<?xml version='1.0' encoding='UTF-8'?><gpx version="1.1" creator="JPX - https://github.com/jenetics/jpx" xmlns="http://www.topografix.com/GPX/1/1"><trk><trkseg><trkpt lat="43.6347467" lon="13.358235"><ele>3.0</ele><time>2026-04-26T08:03:33.277Z</time></trkpt><trkpt lat="43.6347433" lon="13.35811"><ele>3.0</ele><time>2026-04-26T08:03:34.277Z</time></trkpt><trkpt lat="43.6347483" lon="13.3579633"><ele>3.0</ele><time>2026-04-26T08:03:35.278Z</time></trkpt><trkpt lat="43.6347567" lon="13.3578133"><ele>3.0</ele><time>2026-04-26T08:03:36.277Z</time></trkpt><trkpt lat="43.634765" lon="13.3576633"><ele>3.0</ele><time>2026-04-26T08:03:37.277Z</time></trkpt><trkpt lat="43.6347733" lon="13.35751"><ele>3.0</ele><time>2026-04-26T08:03:38.277Z</time></trkpt><trkpt lat="43.63478" lon="13.357355"><ele>3.0</ele><time>2026-04-26T08:03:39.277Z</time></trkpt><trkpt lat="43.6347867" lon="13.3572033"><ele>3.0</ele><time>2026-04-26T08:03:40.277Z</time></trkpt><trkpt lat="43.6347917" lon="13.35704"><ele>3.0</ele><time>2026-04-26T08:03:41.277Z</time></trkpt><trkpt lat="43.6348017" lon="13.3568733"><ele>3.0</ele><time>2026-04-26T08:03:42.277Z</time></trkpt><trkpt lat="43.6348083" lon="13.356705"><ele>3.0</ele><time>2026-04-26T08:03:43.277Z</time></trkpt><trkpt lat="43.6348167" lon="13.3565433"><ele>3.0</ele><time>2026-04-26T08:03:44.278Z</time></trkpt><trkpt lat="43.6348283" lon="13.3563917"><ele>3.0</ele><time>2026-04-26T08:03:45.277Z</time></trkpt><trkpt lat="43.6348317" lon="13.3562267"><ele>3.5</ele><time>2026-04-26T08:03:46.277Z</time></trkpt><trkpt lat="43.6348383" lon="13.3560517"><ele>4.0</ele><time>2026-04-26T08:03:47.277Z</time></trkpt><trkpt lat="43.6348417" lon="13.355865"><ele>4.5</ele><time>2026-04-26T08:03:48.277Z</time></trkpt><trkpt lat="43.63485" lon="13.355675"><ele>5.0</ele><time>2026-04-26T08:03:49.277Z</time></trkpt><trkpt lat="43.6348667" lon="13.3554683"><ele>5.0</ele><time>2026-04-26T08:03:50.277Z</time></trkpt><trkpt lat="43.634875" lon="13.355265"><ele>5.0</ele><time>2026-04-26T08:03:51.278Z</time></trkpt><trkpt lat="43.6348867" lon="13.3550783"><ele>5.0</ele><time>2026-04-26T08:03:52.277Z</time></trkpt><trkpt lat="43.6348967" lon="13.3548933"><ele>5.0</ele><time>2026-04-26T08:03:53.277Z</time></trkpt><trkpt lat="43.6349083" lon="13.3547033"><ele>4.25</ele><time>2026-04-26T08:03:54.278Z</time></trkpt><trkpt lat="43.63492" lon="13.3545183"><ele>3.5</ele><time>2026-04-26T08:03:55.278Z</time></trkpt><trkpt lat="43.6349283" lon="13.3543333"><ele>2.75</ele><time>2026-04-26T08:03:56.277Z</time></trkpt><trkpt lat="43.63494" lon="13.354155"><ele>2.0</ele><time>2026-04-26T08:03:57.277Z</time></trkpt><trkpt lat="43.63495" lon="13.3539867"><ele>2.0</ele><time>2026-04-26T08:03:58.277Z</time></trkpt><trkpt lat="43.634955" lon="13.3538267"><ele>2.0</ele><time>2026-04-26T08:03:59.278Z</time></trkpt><trkpt lat="43.634965" lon="13.3536633"><ele>2.0</ele><time>2026-04-26T08:04:00.277Z</time></trkpt><trkpt lat="43.634975" lon="13.3534817"><ele>2.0</ele><time>2026-04-26T08:04:01.278Z</time></trkpt><trkpt lat="43.63499" lon="13.353295"><ele>2.0</ele><time>2026-04-26T08:04:02.277Z</time></trkpt><trkpt lat="43.6349983" lon="13.3531017"><ele>2.0</ele><time>2026-04-26T08:04:03.277Z</time></trkpt><trkpt lat="43.6350117" lon="13.3529117"><ele>2.0</ele><time>2026-04-26T08:04:04.277Z</time></trkpt><trkpt lat="43.635015" lon="13.352725"><ele>2.0</ele><time>2026-04-26T08:04:05.277Z</time></trkpt><trkpt lat="43.6350183" lon="13.3525483"><ele>2.0</ele><time>2026-04-26T08:04:06.277Z</time></trkpt><trkpt lat="43.635025" lon="13.352385"><ele>2.0</ele><time>2026-04-26T08:04:07.277Z</time></trkpt><trkpt lat="43.63503" lon="13.3522117"><ele>2.0</ele><time>2026-04-26T08:04:08.277Z</time></trkpt><trkpt lat="43.63504" lon="13.3520433"><ele>2.0</ele><time>2026-04-26T08:04:09.277Z</time></trkpt><trkpt lat="43.6350483" lon="13.3518767"><ele>1.75</ele><time>2026-04-26T08:04:10.277Z</time></trkpt><trkpt lat="43.635045" lon="13.3517"><ele>1.5</ele><time>2026-04-26T08:04:11.277Z</time></trkpt><trkpt lat="43.6350167" lon="13.351515"><ele>1.25</ele><time>2026-04-26T08:04:12.278Z</time></trkpt><trkpt lat="43.634975" lon="13.3513283"><ele>1.0</ele><time>2026-04-26T08:04:13.278Z</time></trkpt><trkpt lat="43.6349167" lon="13.35112"><ele>1.0</ele><time>2026-04-26T08:04:14.277Z</time></trkpt><trkpt lat="43.6348567" lon="13.35091"><ele>1.0</ele><time>2026-04-26T08:04:15.277Z</time></trkpt><trkpt lat="43.6347967" lon="13.35068"><ele>1.0</ele><time>2026-04-26T08:04:16.277Z</time></trkpt><trkpt lat="43.6347417" lon="13.3504433"><ele>1.3333333333333333</ele><time>2026-04-26T08:04:17.277Z</time></trkpt><trkpt lat="43.6346817" lon="13.3502167"><ele>1.6666666666666665</ele><time>2026-04-26T08:04:18.278Z</time></trkpt><trkpt lat="43.6346233" lon="13.35"><ele>2.0</ele><time>2026-04-26T08:04:19.277Z</time></trkpt><trkpt lat="43.6345683" lon="13.3497567"><ele>1.6666666666666665</ele><time>2026-04-26T08:04:20.277Z</time></trkpt><trkpt lat="43.6345067" lon="13.3495133"><ele>1.3333333333333333</ele><time>2026-04-26T08:04:21.277Z</time></trkpt><trkpt lat="43.63444" lon="13.3492667"><ele>1.0</ele><time>2026-04-26T08:04:22.277Z</time></trkpt><trkpt lat="43.6343783" lon="13.349025"><ele>0.6666666666666666</ele><time>2026-04-26T08:04:23.278Z</time></trkpt><trkpt lat="43.6343183" lon="13.34879"><ele>0.3333333333333333</ele><time>2026-04-26T08:04:24.277Z</time></trkpt><trkpt lat="43.63426" lon="13.3485567"><ele>0.0</ele><time>2026-04-26T08:04:25.278Z</time></trkpt><trkpt lat="43.634205" lon="13.3483333"><ele>0.0</ele><time>2026-04-26T08:04:26.277Z</time></trkpt><trkpt lat="43.6341417" lon="13.3481033"><ele>0.0</ele><time>2026-04-26T08:04:27.277Z</time></trkpt><trkpt lat="43.63408" lon="13.347865"><ele>0.0</ele><time>2026-04-26T08:04:28.277Z</time></trkpt><trkpt lat="43.6340183" lon="13.3476167"><ele>0.0</ele><time>2026-04-26T08:04:29.277Z</time></trkpt><trkpt lat="43.6339467" lon="13.347355"><ele>0.0</ele><time>2026-04-26T08:04:30.277Z</time></trkpt><trkpt lat="43.633885" lon="13.347105"><ele>0.0</ele><time>2026-04-26T08:04:31.277Z</time></trkpt><trkpt lat="43.6338183" lon="13.3468533"><ele>0.3333333333333333</ele><time>2026-04-26T08:04:32.277Z</time></trkpt><trkpt lat="43.6337533" lon="13.34661"><ele>0.6666666666666666</ele><time>2026-04-26T08:04:33.277Z</time></trkpt><trkpt lat="43.6336883" lon="13.346365"><ele>1.0</ele><time>2026-04-26T08:04:34.278Z</time></trkpt><trkpt lat="43.6336267" lon="13.3461283"><ele>1.3333333333333333</ele><time>2026-04-26T08:04:35.277Z</time></trkpt><trkpt lat="43.633565" lon="13.34589"><ele>1.6666666666666665</ele><time>2026-04-26T08:04:36.277Z</time></trkpt><trkpt lat="43.633505" lon="13.3456683"><ele>2.0</ele><time>2026-04-26T08:04:37.277Z</time></trkpt><trkpt lat="43.6334417" lon="13.34545"><ele>2.0</ele><time>2026-04-26T08:04:38.277Z</time></trkpt><trkpt lat="43.6333833" lon="13.3452283"><ele>2.0</ele><time>2026-04-26T08:04:39.277Z</time></trkpt><trkpt lat="43.6333267" lon="13.3450083"><ele>2.0</ele><time>2026-04-26T08:04:40.277Z</time></trkpt><trkpt lat="43.6332683" lon="13.3447883"><ele>2.6666666666666665</ele><time>2026-04-26T08:04:41.277Z</time></trkpt><trkpt lat="43.633205" lon="13.3445733"><ele>3.333333333333333</ele><time>2026-04-26T08:04:42.278Z</time></trkpt><trkpt lat="43.633145" lon="13.3443583"><ele>4.0</ele><time>2026-04-26T08:04:43.277Z</time></trkpt><trkpt lat="43.6330917" lon="13.3441517"><ele>4.0</ele><time>2026-04-26T08:04:44.277Z</time></trkpt><trkpt lat="43.633045" lon="13.343955"><ele>4.0</ele><time>2026-04-26T08:04:45.277Z</time></trkpt><trkpt lat="43.6329933" lon="13.3437533"><ele>4.0</ele><time>2026-04-26T08:04:46.278Z</time></trkpt><trkpt lat="43.632945" lon="13.3435583"><ele>4.333333333333333</ele><time>2026-04-26T08:04:47.277Z</time></trkpt><trkpt lat="43.632885" lon="13.3433567"><ele>4.666666666666667</ele><time>2026-04-26T08:04:48.277Z</time></trkpt><trkpt lat="43.6328333" lon="13.343155"><ele>5.0</ele><time>2026-04-26T08:04:49.277Z</time></trkpt><trkpt lat="43.6327817" lon="13.3429533"><ele>5.0</ele><time>2026-04-26T08:04:50.278Z</time></trkpt><trkpt lat="43.6327317" lon="13.3427567"><ele>5.0</ele><time>2026-04-26T08:04:51.277Z</time></trkpt><trkpt lat="43.6326767" lon="13.3425633"><ele>5.0</ele><time>2026-04-26T08:04:52.278Z</time></trkpt><trkpt lat="43.6326283" lon="13.34237"><ele>5.0</ele><time>2026-04-26T08:04:53.277Z</time></trkpt><trkpt lat="43.6325767" lon="13.3421867"><ele>5.0</ele><time>2026-04-26T08:04:54.278Z</time></trkpt><trkpt lat="43.63253" lon="13.3419983"><ele>5.0</ele><time>2026-04-26T08:04:55.277Z</time></trkpt><trkpt lat="43.6324817" lon="13.3418083"><ele>5.0</ele><time>2026-04-26T08:04:56.277Z</time></trkpt><trkpt lat="43.6324317" lon="13.3416167"><ele>5.0</ele><time>2026-04-26T08:04:57.277Z</time></trkpt><trkpt lat="43.63238" lon="13.3414283"><ele>5.333333333333334</ele><time>2026-04-26T08:04:58.277Z</time></trkpt><trkpt lat="43.63233" lon="13.3412333"><ele>5.666666666666667</ele><time>2026-04-26T08:04:59.277Z</time></trkpt><trkpt lat="43.6322783" lon="13.3410317"><ele>6.0</ele><time>2026-04-26T08:05:00.277Z</time></trkpt><trkpt lat="43.632225" lon="13.3408133"><ele>6.0</ele><time>2026-04-26T08:05:01.277Z</time></trkpt><trkpt lat="43.6321633" lon="13.3405833"><ele>6.0</ele><time>2026-04-26T08:05:02.277Z</time></trkpt><trkpt lat="43.6321017" lon="13.3403567"><ele>6.0</ele><time>2026-04-26T08:05:03.277Z</time></trkpt><trkpt lat="43.6320483" lon="13.3401267"><ele>6.0</ele><time>2026-04-26T08:05:04.277Z</time></trkpt><trkpt lat="43.63198" lon="13.3398767"><ele>6.0</ele><time>2026-04-26T08:05:05.278Z</time></trkpt><trkpt lat="43.6319217" lon="13.3396433"><ele>6.0</ele><time>2026-04-26T08:05:06.277Z</time></trkpt><trkpt lat="43.6318633" lon="13.33942"><ele>6.0</ele><time>2026-04-26T08:05:07.277Z</time></trkpt><trkpt lat="43.6318083" lon="13.33921"><ele>6.0</ele><time>2026-04-26T08:05:08.277Z</time></trkpt><trkpt lat="43.6317567" lon="13.33901"><ele>6.0</ele><time>2026-04-26T08:05:09.277Z</time></trkpt><trkpt lat="43.6316967" lon="13.3387983"><ele>6.0</ele><time>2026-04-26T08:05:10.278Z</time></trkpt><trkpt lat="43.6316317" lon="13.3385817"><ele>6.0</ele><time>2026-04-26T08:05:11.277Z</time></trkpt><trkpt lat="43.6315683" lon="13.33836"><ele>6.0</ele><time>2026-04-26T08:05:12.277Z</time></trkpt><trkpt lat="43.6315067" lon="13.3381333"><ele>6.666666666666666</ele><time>2026-04-26T08:05:13.277Z</time></trkpt><trkpt lat="43.631445" lon="13.3379117"><ele>7.333333333333333</ele><time>2026-04-26T08:05:14.277Z</time></trkpt><trkpt lat="43.6313767" lon="13.3376733"><ele>8.0</ele><time>2026-04-26T08:05:15.277Z</time></trkpt><trkpt lat="43.6313117" lon="13.3374233"><ele>8.0</ele><time>2026-04-26T08:05:16.277Z</time></trkpt><trkpt lat="43.6312417" lon="13.3371783"><ele>8.0</ele><time>2026-04-26T08:05:17.277Z</time></trkpt><trkpt lat="43.6311667" lon="13.3369333"><ele>8.0</ele><time>2026-04-26T08:05:18.277Z</time></trkpt><trkpt lat="43.6311033" lon="13.3367083"><ele>8.0</ele><time>2026-04-26T08:05:19.277Z</time></trkpt><trkpt lat="43.6310367" lon="13.336485"><ele>8.0</ele><time>2026-04-26T08:05:20.277Z</time></trkpt><trkpt lat="43.6309733" lon="13.3362767"><ele>8.0</ele><time>2026-04-26T08:05:21.277Z</time></trkpt><trkpt lat="43.6309167" lon="13.336075"><ele>8.0</ele><time>2026-04-26T08:05:22.277Z</time></trkpt><trkpt lat="43.6308533" lon="13.33588"><ele>8.0</ele><time>2026-04-26T08:05:23.277Z</time></trkpt><trkpt lat="43.6308017" lon="13.3356683"><ele>8.0</ele><time>2026-04-26T08:05:24.277Z</time></trkpt><trkpt lat="43.6307583" lon="13.335445"><ele>8.0</ele><time>2026-04-26T08:05:25.277Z</time></trkpt><trkpt lat="43.6307367" lon="13.3352283"><ele>8.0</ele><time>2026-04-26T08:05:26.277Z</time></trkpt><trkpt lat="43.6307267" lon="13.3350233"><ele>8.0</ele><time>2026-04-26T08:05:27.277Z</time></trkpt><trkpt lat="43.630715" lon="13.334825"><ele>8.5</ele><time>2026-04-26T08:05:28.277Z</time></trkpt><trkpt lat="43.63071" lon="13.3346317"><ele>9.0</ele><time>2026-04-26T08:05:29.277Z</time></trkpt><trkpt lat="43.6307067" lon="13.3344383"><ele>9.5</ele><time>2026-04-26T08:05:30.277Z</time></trkpt><trkpt lat="43.630705" lon="13.3342533"><ele>10.0</ele><time>2026-04-26T08:05:31.277Z</time></trkpt><trkpt lat="43.6307033" lon="13.3340617"><ele>10.0</ele><time>2026-04-26T08:05:32.278Z</time></trkpt><trkpt lat="43.6306983" lon="13.3338633"><ele>10.0</ele><time>2026-04-26T08:05:33.277Z</time></trkpt><trkpt lat="43.6306817" lon="13.33366"><ele>10.0</ele><time>2026-04-26T08:05:34.277Z</time></trkpt><trkpt lat="43.63065" lon="13.33347"><ele>10.0</ele><time>2026-04-26T08:05:35.277Z</time></trkpt><trkpt lat="43.6306133" lon="13.3332883"><ele>10.0</ele><time>2026-04-26T08:05:36.278Z</time></trkpt><trkpt lat="43.630565" lon="13.3331217"><ele>10.0</ele><time>2026-04-26T08:05:37.277Z</time></trkpt><trkpt lat="43.6304983" lon="13.3329667"><ele>10.0</ele><time>2026-04-26T08:05:38.277Z</time></trkpt><trkpt lat="43.63042" lon="13.3328117"><ele>10.0</ele><time>2026-04-26T08:05:39.277Z</time></trkpt><trkpt lat="43.6303433" lon="13.33267"><ele>10.25</ele><time>2026-04-26T08:05:40.277Z</time></trkpt><trkpt lat="43.6302683" lon="13.332545"><ele>10.5</ele><time>2026-04-26T08:05:41.277Z</time></trkpt><trkpt lat="43.630195" lon="13.332425"><ele>10.75</ele><time>2026-04-26T08:05:42.277Z</time></trkpt><trkpt lat="43.6301217" lon="13.3323067"><ele>11.0</ele><time>2026-04-26T08:05:43.277Z</time></trkpt><trkpt lat="43.630055" lon="13.3321917"><ele>11.0</ele><time>2026-04-26T08:05:44.277Z</time></trkpt><trkpt lat="43.6299983" lon="13.3320917"><ele>11.0</ele><time>2026-04-26T08:05:45.277Z</time></trkpt><trkpt lat="43.6299517" lon="13.332005"><ele>11.0</ele><time>2026-04-26T08:05:46.277Z</time></trkpt><trkpt lat="43.6298983" lon="13.331865"><ele>11.0</ele><time>2026-04-26T08:05:48.278Z</time></trkpt><trkpt lat="43.6298867" lon="13.33176"><ele>11.0</ele><time>2026-04-26T08:05:51.277Z</time></trkpt><trkpt lat="43.6298933" lon="13.3316333"><ele>11.0</ele><time>2026-04-26T08:05:55.277Z</time></trkpt><trkpt lat="43.6299067" lon="13.3314567"><ele>11.0</ele><time>2026-04-26T08:05:57.278Z</time></trkpt><trkpt lat="43.62991" lon="13.331355"><ele>11.0</ele><time>2026-04-26T08:05:58.277Z</time></trkpt><trkpt lat="43.6299167" lon="13.3312433"><ele>11.0</ele><time>2026-04-26T08:05:59.278Z</time></trkpt><trkpt lat="43.629945" lon="13.331145"><ele>11.0</ele><time>2026-04-26T08:06:00.278Z</time></trkpt><trkpt lat="43.6299983" lon="13.331055"><ele>11.0</ele><time>2026-04-26T08:06:01.277Z</time></trkpt><trkpt lat="43.63007" lon="13.3309833"><ele>10.666666666666666</ele><time>2026-04-26T08:06:02.277Z</time></trkpt><trkpt lat="43.630145" lon="13.3309467"><ele>10.333333333333332</ele><time>2026-04-26T08:06:03.278Z</time></trkpt><trkpt lat="43.6302133" lon="13.3309183"><ele>10.0</ele><time>2026-04-26T08:06:04.278Z</time></trkpt><trkpt lat="43.6302717" lon="13.330875"><ele>9.666666666666666</ele><time>2026-04-26T08:06:05.277Z</time></trkpt><trkpt lat="43.6303233" lon="13.330805"><ele>9.333333333333334</ele><time>2026-04-26T08:06:06.277Z</time></trkpt><trkpt lat="43.6303567" lon="13.3307017"><ele>9.0</ele><time>2026-04-26T08:06:07.277Z</time></trkpt><trkpt lat="43.6303817" lon="13.3305617"><ele>8.5</ele><time>2026-04-26T08:06:08.277Z</time></trkpt><trkpt lat="43.630425" lon="13.3304217"><ele>8.0</ele><time>2026-04-26T08:06:09.277Z</time></trkpt><trkpt lat="43.6304983" lon="13.3302717"><ele>7.5</ele><time>2026-04-26T08:06:10.277Z</time></trkpt><trkpt lat="43.6305783" lon="13.3301367"><ele>7.0</ele><time>2026-04-26T08:06:11.277Z</time></trkpt><trkpt lat="43.630655" lon="13.3300017"><ele>7.0</ele><time>2026-04-26T08:06:12.277Z</time></trkpt><trkpt lat="43.63073" lon="13.32987"><ele>7.0</ele><time>2026-04-26T08:06:13.277Z</time></trkpt><trkpt lat="43.630795" lon="13.32974"><ele>7.0</ele><time>2026-04-26T08:06:14.277Z</time></trkpt><trkpt lat="43.6308617" lon="13.3296033"><ele>7.0</ele><time>2026-04-26T08:06:15.277Z</time></trkpt><trkpt lat="43.630935" lon="13.3294667"><ele>7.5</ele><time>2026-04-26T08:06:16.277Z</time></trkpt><trkpt lat="43.6310067" lon="13.3293433"><ele>8.0</ele><time>2026-04-26T08:06:17.277Z</time></trkpt><trkpt lat="43.6310767" lon="13.3292117"><ele>8.5</ele><time>2026-04-26T08:06:18.277Z</time></trkpt><trkpt lat="43.631145" lon="13.3290783"><ele>9.0</ele><time>2026-04-26T08:06:19.277Z</time></trkpt><trkpt lat="43.63121" lon="13.3289433"><ele>9.0</ele><time>2026-04-26T08:06:20.277Z</time></trkpt><trkpt lat="43.631275" lon="13.3288067"><ele>9.0</ele><time>2026-04-26T08:06:21.277Z</time></trkpt><trkpt lat="43.6313417" lon="13.3286767"><ele>9.0</ele><time>2026-04-26T08:06:22.277Z</time></trkpt><trkpt lat="43.631415" lon="13.32855"><ele>9.0</ele><time>2026-04-26T08:06:23.277Z</time></trkpt><trkpt lat="43.6314783" lon="13.3284117"><ele>9.0</ele><time>2026-04-26T08:06:24.277Z</time></trkpt><trkpt lat="43.6315417" lon="13.3282683"><ele>9.0</ele><time>2026-04-26T08:06:25.277Z</time></trkpt><trkpt lat="43.6316067" lon="13.328125"><ele>9.0</ele><time>2026-04-26T08:06:26.277Z</time></trkpt><trkpt lat="43.6316617" lon="13.3279817"><ele>9.0</ele><time>2026-04-26T08:06:27.277Z</time></trkpt><trkpt lat="43.6317167" lon="13.32784"><ele>9.25</ele><time>2026-04-26T08:06:28.277Z</time></trkpt><trkpt lat="43.6317733" lon="13.3276883"><ele>9.5</ele><time>2026-04-26T08:06:29.277Z</time></trkpt><trkpt lat="43.6318333" lon="13.3275283"><ele>9.75</ele><time>2026-04-26T08:06:30.277Z</time></trkpt><trkpt lat="43.63189" lon="13.3273617"><ele>10.0</ele><time>2026-04-26T08:06:31.277Z</time></trkpt><trkpt lat="43.63195" lon="13.327205"><ele>9.5</ele><time>2026-04-26T08:06:32.277Z</time></trkpt><trkpt lat="43.6320117" lon="13.32705"><ele>9.0</ele><time>2026-04-26T08:06:33.277Z</time></trkpt><trkpt lat="43.63207" lon="13.3268983"><ele>8.5</ele><time>2026-04-26T08:06:34.277Z</time></trkpt><trkpt lat="43.6321317" lon="13.3267533"><ele>8.0</ele><time>2026-04-26T08:06:35.277Z</time></trkpt><trkpt lat="43.6321883" lon="13.3266267"><ele>8.0</ele><time>2026-04-26T08:06:36.277Z</time></trkpt><trkpt lat="43.6322383" lon="13.3265067"><ele>8.0</ele><time>2026-04-26T08:06:37.277Z</time></trkpt><trkpt lat="43.6322833" lon="13.3263983"><ele>8.0</ele><time>2026-04-26T08:06:38.277Z</time></trkpt><trkpt lat="43.6323267" lon="13.326305"><ele>8.0</ele><time>2026-04-26T08:06:39.277Z</time></trkpt><trkpt lat="43.6323633" lon="13.3262233"><ele>8.0</ele><time>2026-04-26T08:06:40.277Z</time></trkpt><trkpt lat="43.6324267" lon="13.3260817"><ele>8.333333333333332</ele><time>2026-04-26T08:06:42.277Z</time></trkpt><trkpt lat="43.6324617" lon="13.3260017"><ele>8.666666666666666</ele><time>2026-04-26T08:06:43.277Z</time></trkpt><trkpt lat="43.6325083" lon="13.3259133"><ele>9.0</ele><time>2026-04-26T08:06:44.277Z</time></trkpt><trkpt lat="43.63256" lon="13.3258183"><ele>9.333333333333334</ele><time>2026-04-26T08:06:45.277Z</time></trkpt><trkpt lat="43.6326083" lon="13.325725"><ele>9.666666666666668</ele><time>2026-04-26T08:06:46.277Z</time></trkpt><trkpt lat="43.6326517" lon="13.3256217"><ele>10.0</ele><time>2026-04-26T08:06:47.277Z</time></trkpt><trkpt lat="43.6326983" lon="13.3255117"><ele>10.0</ele><time>2026-04-26T08:06:48.278Z</time></trkpt><trkpt lat="43.6327467" lon="13.3253967"><ele>10.0</ele><time>2026-04-26T08:06:49.277Z</time></trkpt><trkpt lat="43.6327933" lon="13.3252867"><ele>10.0</ele><time>2026-04-26T08:06:50.277Z</time></trkpt><trkpt lat="43.632835" lon="13.3251633"><ele>10.0</ele><time>2026-04-26T08:06:51.277Z</time></trkpt><trkpt lat="43.632885" lon="13.3250483"><ele>10.0</ele><time>2026-04-26T08:06:52.277Z</time></trkpt><trkpt lat="43.6329433" lon="13.324935"><ele>10.0</ele><time>2026-04-26T08:06:53.277Z</time></trkpt><trkpt lat="43.6330017" lon="13.3248217"><ele>10.0</ele><time>2026-04-26T08:06:54.277Z</time></trkpt><trkpt lat="43.63306" lon="13.3247017"><ele>10.0</ele><time>2026-04-26T08:06:55.278Z</time></trkpt><trkpt lat="43.6331217" lon="13.324585"><ele>10.0</ele><time>2026-04-26T08:06:56.277Z</time></trkpt><trkpt lat="43.6331717" lon="13.32445"><ele>10.0</ele><time>2026-04-26T08:06:57.277Z</time></trkpt><trkpt lat="43.6332367" lon="13.3243133"><ele>10.25</ele><time>2026-04-26T08:06:58.277Z</time></trkpt><trkpt lat="43.6333017" lon="13.3241717"><ele>10.5</ele><time>2026-04-26T08:06:59.277Z</time></trkpt><trkpt lat="43.633355" lon="13.3240167"><ele>10.75</ele><time>2026-04-26T08:07:00.277Z</time></trkpt><trkpt lat="43.6334133" lon="13.32388"><ele>11.0</ele><time>2026-04-26T08:07:01.277Z</time></trkpt><trkpt lat="43.6334733" lon="13.32376"><ele>11.200000000000001</ele><time>2026-04-26T08:07:02.277Z</time></trkpt><trkpt lat="43.63353" lon="13.323635"><ele>11.4</ele><time>2026-04-26T08:07:03.277Z</time></trkpt><trkpt lat="43.63358" lon="13.323525"><ele>11.6</ele><time>2026-04-26T08:07:04.278Z</time></trkpt><trkpt lat="43.633625" lon="13.3234233"><ele>11.8</ele><time>2026-04-26T08:07:05.277Z</time></trkpt><trkpt lat="43.6336667" lon="13.323345"><ele>12.0</ele><time>2026-04-26T08:07:06.277Z</time></trkpt><trkpt lat="43.6337217" lon="13.3232217"><ele>12.5</ele><time>2026-04-26T08:07:08.277Z</time></trkpt><trkpt lat="43.6337683" lon="13.3231"><ele>13.0</ele><time>2026-04-26T08:07:10.277Z</time></trkpt><trkpt lat="43.6338267" lon="13.3229583"><ele>13.5</ele><time>2026-04-26T08:07:12.277Z</time></trkpt><trkpt lat="43.6338333" lon="13.322795"><ele>14.0</ele><time>2026-04-26T08:07:14.277Z</time></trkpt><trkpt lat="43.6338433" lon="13.32261"><ele>14.0</ele><time>2026-04-26T08:07:16.277Z</time></trkpt><trkpt lat="43.6338583" lon="13.322525"><ele>13.999999999999998</ele><time>2026-04-26T08:07:17.277Z</time></trkpt><trkpt lat="43.6338367" lon="13.3223733"><ele>13.999999999999998</ele><time>2026-04-26T08:07:19.276Z</time></trkpt><trkpt lat="43.6337333" lon="13.3222517"><ele>14.0</ele><time>2026-04-26T08:07:21.276Z</time></trkpt><trkpt lat="43.63365" lon="13.3221933"><ele>14.0</ele><time>2026-04-26T08:07:22.276Z</time></trkpt><trkpt lat="43.633555" lon="13.32213"><ele>14.0</ele><time>2026-04-26T08:07:23.276Z</time></trkpt><trkpt lat="43.6334733" lon="13.3220733"><ele>13.999999999999998</ele><time>2026-04-26T08:07:24.276Z</time></trkpt><trkpt lat="43.6334033" lon="13.322005"><ele>13.999999999999998</ele><time>2026-04-26T08:07:25.276Z</time></trkpt><trkpt lat="43.6333417" lon="13.3219467"><ele>14.0</ele><time>2026-04-26T08:07:26.277Z</time></trkpt><trkpt lat="43.633255" lon="13.321855"><ele>14.0</ele><time>2026-04-26T08:07:28.276Z</time></trkpt><trkpt lat="43.6332417" lon="13.3217167"><ele>14.000000000000002</ele><time>2026-04-26T08:07:30.276Z</time></trkpt><trkpt lat="43.63328" lon="13.3216333"><ele>14.0</ele><time>2026-04-26T08:07:31.276Z</time></trkpt><trkpt lat="43.633335" lon="13.3215417"><ele>14.0</ele><time>2026-04-26T08:07:32.276Z</time></trkpt><trkpt lat="43.6334017" lon="13.3214383"><ele>14.0</ele><time>2026-04-26T08:07:33.276Z</time></trkpt><trkpt lat="43.6334633" lon="13.3213467"><ele>14.000000000000002</ele><time>2026-04-26T08:07:34.276Z</time></trkpt><trkpt lat="43.633515" lon="13.3212583"><ele>14.0</ele><time>2026-04-26T08:07:35.276Z</time></trkpt><trkpt lat="43.6335583" lon="13.32117"><ele>14.333333333333334</ele><time>2026-04-26T08:07:36.276Z</time></trkpt><trkpt lat="43.6335983" lon="13.3210867"><ele>14.666666666666668</ele><time>2026-04-26T08:07:37.276Z</time></trkpt><trkpt lat="43.6336683" lon="13.32097"><ele>15.0</ele><time>2026-04-26T08:07:39.276Z</time></trkpt><trkpt lat="43.6337033" lon="13.320875"><ele>15.333333333333332</ele><time>2026-04-26T08:07:42.276Z</time></trkpt><trkpt lat="43.633665" lon="13.3207517"><ele>15.666666666666666</ele><time>2026-04-26T08:07:44.276Z</time></trkpt><trkpt lat="43.6336083" lon="13.3206767"><ele>16.0</ele><time>2026-04-26T08:07:45.276Z</time></trkpt><trkpt lat="43.633525" lon="13.320585"><ele>16.75</ele><time>2026-04-26T08:07:46.277Z</time></trkpt><trkpt lat="43.63343" lon="13.3204767"><ele>17.5</ele><time>2026-04-26T08:07:47.276Z</time></trkpt><trkpt lat="43.6333283" lon="13.3203533"><ele>18.25</ele><time>2026-04-26T08:07:48.276Z</time></trkpt><trkpt lat="43.6332317" lon="13.3202217"><ele>19.0</ele><time>2026-04-26T08:07:49.276Z</time></trkpt><trkpt lat="43.6331317" lon="13.3200917"><ele>19.0</ele><time>2026-04-26T08:07:50.276Z</time></trkpt><trkpt lat="43.6330183" lon="13.3199483"><ele>19.0</ele><time>2026-04-26T08:07:51.276Z</time></trkpt><trkpt lat="43.6329083" lon="13.3198133"><ele>19.0</ele><time>2026-04-26T08:07:52.276Z</time></trkpt><trkpt lat="43.632795" lon="13.3196683"><ele>19.666666666666664</ele><time>2026-04-26T08:07:53.276Z</time></trkpt><trkpt lat="43.6326767" lon="13.3195283"><ele>20.333333333333332</ele><time>2026-04-26T08:07:54.277Z</time></trkpt><trkpt lat="43.6325567" lon="13.3194"><ele>21.0</ele><time>2026-04-26T08:07:55.276Z</time></trkpt><trkpt lat="43.63244" lon="13.319255"><ele>21.0</ele><time>2026-04-26T08:07:56.276Z</time></trkpt><trkpt lat="43.63232" lon="13.319105"><ele>21.0</ele><time>2026-04-26T08:07:57.276Z</time></trkpt><trkpt lat="43.6322" lon="13.31896"><ele>21.0</ele><time>2026-04-26T08:07:58.276Z</time></trkpt><trkpt lat="43.63208" lon="13.318815"><ele>21.333333333333332</ele><time>2026-04-26T08:07:59.276Z</time></trkpt><trkpt lat="43.631965" lon="13.3186717"><ele>21.666666666666664</ele><time>2026-04-26T08:08:00.276Z</time></trkpt><trkpt lat="43.63185" lon="13.3185367"><ele>22.0</ele><time>2026-04-26T08:08:01.276Z</time></trkpt><trkpt lat="43.631745" lon="13.3183983"><ele>22.0</ele><time>2026-04-26T08:08:02.276Z</time></trkpt><trkpt lat="43.6316383" lon="13.3182617"><ele>22.0</ele><time>2026-04-26T08:08:03.276Z</time></trkpt><trkpt lat="43.6315333" lon="13.3181233"><ele>22.0</ele><time>2026-04-26T08:08:04.276Z</time></trkpt><trkpt lat="43.6314267" lon="13.3179833"><ele>22.0</ele><time>2026-04-26T08:08:05.276Z</time></trkpt><trkpt lat="43.6313133" lon="13.3178517"><ele>22.0</ele><time>2026-04-26T08:08:06.276Z</time></trkpt><trkpt lat="43.6312" lon="13.3177167"><ele>22.0</ele><time>2026-04-26T08:08:07.276Z</time></trkpt><trkpt lat="43.6310867" lon="13.3175817"><ele>22.0</ele><time>2026-04-26T08:08:08.276Z</time></trkpt><trkpt lat="43.6309833" lon="13.3174417"><ele>22.0</ele><time>2026-04-26T08:08:09.276Z</time></trkpt><trkpt lat="43.6308683" lon="13.317305"><ele>21.25</ele><time>2026-04-26T08:08:10.276Z</time></trkpt><trkpt lat="43.6307617" lon="13.3171667"><ele>20.5</ele><time>2026-04-26T08:08:11.276Z</time></trkpt><trkpt lat="43.630645" lon="13.3170283"><ele>19.75</ele><time>2026-04-26T08:08:12.276Z</time></trkpt><trkpt lat="43.630535" lon="13.3168967"><ele>19.0</ele><time>2026-04-26T08:08:13.276Z</time></trkpt><trkpt lat="43.6304283" lon="13.3167667"><ele>19.0</ele><time>2026-04-26T08:08:14.276Z</time></trkpt><trkpt lat="43.6303183" lon="13.31664"><ele>19.0</ele><time>2026-04-26T08:08:15.276Z</time></trkpt><trkpt lat="43.6302167" lon="13.3165067"><ele>19.0</ele><time>2026-04-26T08:08:16.276Z</time></trkpt><trkpt lat="43.6301117" lon="13.316375"><ele>19.0</ele><time>2026-04-26T08:08:17.276Z</time></trkpt><trkpt lat="43.629995" lon="13.3162367"><ele>19.666666666666664</ele><time>2026-04-26T08:08:18.277Z</time></trkpt><trkpt lat="43.629885" lon="13.3161017"><ele>20.333333333333332</ele><time>2026-04-26T08:08:19.276Z</time></trkpt><trkpt lat="43.629775" lon="13.3159633"><ele>21.0</ele><time>2026-04-26T08:08:20.276Z</time></trkpt><trkpt lat="43.6296617" lon="13.3158183"><ele>21.0</ele><time>2026-04-26T08:08:21.276Z</time></trkpt><trkpt lat="43.6295483" lon="13.3156683"><ele>21.0</ele><time>2026-04-26T08:08:22.276Z</time></trkpt><trkpt lat="43.6294317" lon="13.31553"><ele>21.0</ele><time>2026-04-26T08:08:23.276Z</time></trkpt><trkpt lat="43.6293133" lon="13.3153967"><ele>20.666666666666668</ele><time>2026-04-26T08:08:24.276Z</time></trkpt><trkpt lat="43.629195" lon="13.315255"><ele>20.333333333333336</ele><time>2026-04-26T08:08:25.276Z</time></trkpt><trkpt lat="43.6290783" lon="13.3151083"><ele>20.0</ele><time>2026-04-26T08:08:26.276Z</time></trkpt><trkpt lat="43.6289567" lon="13.3149533"><ele>20.0</ele><time>2026-04-26T08:08:27.276Z</time></trkpt><trkpt lat="43.6288283" lon="13.314805"><ele>20.0</ele><time>2026-04-26T08:08:28.276Z</time></trkpt><trkpt lat="43.6287" lon="13.3146583"><ele>20.0</ele><time>2026-04-26T08:08:29.276Z</time></trkpt><trkpt lat="43.6285733" lon="13.3145067"><ele>20.666666666666668</ele><time>2026-04-26T08:08:30.276Z</time></trkpt><trkpt lat="43.62845" lon="13.3143517"><ele>21.333333333333332</ele><time>2026-04-26T08:08:31.276Z</time></trkpt><trkpt lat="43.6283333" lon="13.3142067"><ele>22.0</ele><time>2026-04-26T08:08:32.276Z</time></trkpt><trkpt lat="43.628215" lon="13.3140567"><ele>22.0</ele><time>2026-04-26T08:08:33.276Z</time></trkpt><trkpt lat="43.6280983" lon="13.3139067"><ele>22.0</ele><time>2026-04-26T08:08:34.276Z</time></trkpt><trkpt lat="43.627985" lon="13.3137583"><ele>22.0</ele><time>2026-04-26T08:08:35.276Z</time></trkpt><trkpt lat="43.6278717" lon="13.313615"><ele>22.0</ele><time>2026-04-26T08:08:36.276Z</time></trkpt><trkpt lat="43.627765" lon="13.313475"><ele>22.0</ele><time>2026-04-26T08:08:37.276Z</time></trkpt><trkpt lat="43.6276583" lon="13.3133383"><ele>22.0</ele><time>2026-04-26T08:08:38.276Z</time></trkpt><trkpt lat="43.6275467" lon="13.3132017"><ele>22.0</ele><time>2026-04-26T08:08:39.277Z</time></trkpt><trkpt lat="43.62743" lon="13.3130633"><ele>22.0</ele><time>2026-04-26T08:08:40.276Z</time></trkpt><trkpt lat="43.627315" lon="13.3129233"><ele>22.0</ele><time>2026-04-26T08:08:41.276Z</time></trkpt><trkpt lat="43.627205" lon="13.3127833"><ele>22.0</ele><time>2026-04-26T08:08:42.276Z</time></trkpt><trkpt lat="43.6270967" lon="13.3126533"><ele>22.0</ele><time>2026-04-26T08:08:43.276Z</time></trkpt><trkpt lat="43.62699" lon="13.31252"><ele>22.0</ele><time>2026-04-26T08:08:44.276Z</time></trkpt><trkpt lat="43.6268783" lon="13.3123833"><ele>22.0</ele><time>2026-04-26T08:08:45.277Z</time></trkpt><trkpt lat="43.6267683" lon="13.3122467"><ele>22.0</ele><time>2026-04-26T08:08:46.276Z</time></trkpt><trkpt lat="43.6266567" lon="13.3121133"><ele>22.0</ele><time>2026-04-26T08:08:47.276Z</time></trkpt><trkpt lat="43.626545" lon="13.3119833"><ele>22.5</ele><time>2026-04-26T08:08:48.276Z</time></trkpt><trkpt lat="43.62644" lon="13.3118517"><ele>23.0</ele><time>2026-04-26T08:08:49.277Z</time></trkpt><trkpt lat="43.6263367" lon="13.3117017"><ele>23.5</ele><time>2026-04-26T08:08:50.276Z</time></trkpt><trkpt lat="43.6262283" lon="13.3115683"><ele>24.0</ele><time>2026-04-26T08:08:51.276Z</time></trkpt><trkpt lat="43.6261133" lon="13.3114383"><ele>24.5</ele><time>2026-04-26T08:08:52.276Z</time></trkpt><trkpt lat="43.626" lon="13.3113117"><ele>25.0</ele><time>2026-04-26T08:08:53.276Z</time></trkpt><trkpt lat="43.6258917" lon="13.3111733"><ele>25.5</ele><time>2026-04-26T08:08:54.276Z</time></trkpt><trkpt lat="43.6257833" lon="13.3110417"><ele>26.0</ele><time>2026-04-26T08:08:55.276Z</time></trkpt><trkpt lat="43.6256767" lon="13.3109067"><ele>26.0</ele><time>2026-04-26T08:08:56.276Z</time></trkpt><trkpt lat="43.625575" lon="13.31078"><ele>26.0</ele><time>2026-04-26T08:08:57.276Z</time></trkpt><trkpt lat="43.6254683" lon="13.3106517"><ele>26.0</ele><time>2026-04-26T08:08:58.276Z</time></trkpt><trkpt lat="43.6253617" lon="13.3105183"><ele>26.0</ele><time>2026-04-26T08:08:59.276Z</time></trkpt><trkpt lat="43.62525" lon="13.3103817"><ele>26.0</ele><time>2026-04-26T08:09:00.276Z</time></trkpt><trkpt lat="43.625145" lon="13.3102467"><ele>26.0</ele><time>2026-04-26T08:09:01.276Z</time></trkpt><trkpt lat="43.6250433" lon="13.3101083"><ele>26.0</ele><time>2026-04-26T08:09:02.276Z</time></trkpt><trkpt lat="43.6249417" lon="13.3099717"><ele>26.0</ele><time>2026-04-26T08:09:03.276Z</time></trkpt><trkpt lat="43.6248383" lon="13.3098517"><ele>26.5</ele><time>2026-04-26T08:09:04.276Z</time></trkpt><trkpt lat="43.6247367" lon="13.309725"><ele>27.0</ele><time>2026-04-26T08:09:05.276Z</time></trkpt><trkpt lat="43.6246333" lon="13.3095917"><ele>27.5</ele><time>2026-04-26T08:09:06.276Z</time></trkpt><trkpt lat="43.6245333" lon="13.3094667"><ele>28.0</ele><time>2026-04-26T08:09:07.276Z</time></trkpt><trkpt lat="43.6244383" lon="13.3093433"><ele>28.0</ele><time>2026-04-26T08:09:08.276Z</time></trkpt><trkpt lat="43.6243417" lon="13.30922"><ele>28.0</ele><time>2026-04-26T08:09:09.276Z</time></trkpt><trkpt lat="43.62424" lon="13.3091033"><ele>28.0</ele><time>2026-04-26T08:09:10.276Z</time></trkpt><trkpt lat="43.624135" lon="13.3089733"><ele>28.0</ele><time>2026-04-26T08:09:11.276Z</time></trkpt><trkpt lat="43.6240333" lon="13.3088433"><ele>27.75</ele><time>2026-04-26T08:09:12.276Z</time></trkpt><trkpt lat="43.6239317" lon="13.3087133"><ele>27.5</ele><time>2026-04-26T08:09:13.276Z</time></trkpt><trkpt lat="43.6238233" lon="13.30858"><ele>27.25</ele><time>2026-04-26T08:09:14.276Z</time></trkpt><trkpt lat="43.6237217" lon="13.3084517"><ele>27.0</ele><time>2026-04-26T08:09:15.276Z</time></trkpt><trkpt lat="43.6236267" lon="13.3083383"><ele>26.75</ele><time>2026-04-26T08:09:16.276Z</time></trkpt><trkpt lat="43.6235233" lon="13.3082133"><ele>26.5</ele><time>2026-04-26T08:09:17.276Z</time></trkpt><trkpt lat="43.62342" lon="13.3080883"><ele>26.25</ele><time>2026-04-26T08:09:18.276Z</time></trkpt><trkpt lat="43.6233217" lon="13.307975"><ele>26.0</ele><time>2026-04-26T08:09:19.276Z</time></trkpt><trkpt lat="43.6232267" lon="13.3078583"><ele>26.5</ele><time>2026-04-26T08:09:20.276Z</time></trkpt><trkpt lat="43.623135" lon="13.3077517"><ele>27.0</ele><time>2026-04-26T08:09:21.276Z</time></trkpt><trkpt lat="43.623045" lon="13.307645"><ele>27.5</ele><time>2026-04-26T08:09:22.277Z</time></trkpt><trkpt lat="43.62295" lon="13.30753"><ele>28.0</ele><time>2026-04-26T08:09:23.276Z</time></trkpt><trkpt lat="43.6228583" lon="13.3074117"><ele>28.25</ele><time>2026-04-26T08:09:24.276Z</time></trkpt><trkpt lat="43.6227617" lon="13.3072883"><ele>28.5</ele><time>2026-04-26T08:09:25.276Z</time></trkpt><trkpt lat="43.6226633" lon="13.307155"><ele>28.75</ele><time>2026-04-26T08:09:26.276Z</time></trkpt><trkpt lat="43.62256" lon="13.3070383"><ele>29.0</ele><time>2026-04-26T08:09:27.276Z</time></trkpt><trkpt lat="43.62246" lon="13.30692"><ele>29.25</ele><time>2026-04-26T08:09:28.276Z</time></trkpt><trkpt lat="43.6223633" lon="13.3068017"><ele>29.5</ele><time>2026-04-26T08:09:29.276Z</time></trkpt><trkpt lat="43.62227" lon="13.3066833"><ele>29.75</ele><time>2026-04-26T08:09:30.276Z</time></trkpt><trkpt lat="43.62217" lon="13.3065733"><ele>30.0</ele><time>2026-04-26T08:09:31.276Z</time></trkpt><trkpt lat="43.62207" lon="13.306455"><ele>29.75</ele><time>2026-04-26T08:09:32.276Z</time></trkpt><trkpt lat="43.6219717" lon="13.3063333"><ele>29.5</ele><time>2026-04-26T08:09:33.276Z</time></trkpt><trkpt lat="43.62188" lon="13.306205"><ele>29.25</ele><time>2026-04-26T08:09:34.276Z</time></trkpt><trkpt lat="43.6217833" lon="13.306085"><ele>29.0</ele><time>2026-04-26T08:09:35.276Z</time></trkpt><trkpt lat="43.621695" lon="13.30598"><ele>29.0</ele><time>2026-04-26T08:09:36.276Z</time></trkpt><trkpt lat="43.6216033" lon="13.3058883"><ele>29.0</ele><time>2026-04-26T08:09:37.276Z</time></trkpt><trkpt lat="43.62152" lon="13.3057983"><ele>29.0</ele><time>2026-04-26T08:09:38.276Z</time></trkpt><trkpt lat="43.621435" lon="13.3057167"><ele>29.0</ele><time>2026-04-26T08:09:39.276Z</time></trkpt><trkpt lat="43.6213367" lon="13.30564"><ele>29.0</ele><time>2026-04-26T08:09:40.276Z</time></trkpt><trkpt lat="43.6212233" lon="13.3055417"><ele>29.5</ele><time>2026-04-26T08:09:41.276Z</time></trkpt><trkpt lat="43.6211083" lon="13.3054233"><ele>30.0</ele><time>2026-04-26T08:09:42.276Z</time></trkpt><trkpt lat="43.6209883" lon="13.3052967"><ele>30.5</ele><time>2026-04-26T08:09:43.276Z</time></trkpt><trkpt lat="43.620875" lon="13.3051733"><ele>31.0</ele><time>2026-04-26T08:09:44.276Z</time></trkpt><trkpt lat="43.6207717" lon="13.3050583"><ele>31.0</ele><time>2026-04-26T08:09:45.276Z</time></trkpt><trkpt lat="43.620685" lon="13.304935"><ele>31.0</ele><time>2026-04-26T08:09:46.276Z</time></trkpt><trkpt lat="43.6205967" lon="13.30482"><ele>31.0</ele><time>2026-04-26T08:09:47.276Z</time></trkpt><trkpt lat="43.6205117" lon="13.304695"><ele>31.0</ele><time>2026-04-26T08:09:48.276Z</time></trkpt><trkpt lat="43.6204233" lon="13.30459"><ele>31.200000000000003</ele><time>2026-04-26T08:09:49.276Z</time></trkpt><trkpt lat="43.6203416" lon="13.3044858"><ele>31.400000000000002</ele><time>2026-04-26T08:09:50.276Z</time></trkpt><trkpt lat="43.620269" lon="13.3043948"><ele>31.6</ele><time>2026-04-26T08:09:51.276Z</time></trkpt><trkpt lat="43.6202069" lon="13.3043076"><ele>31.8</ele><time>2026-04-26T08:09:52.276Z</time></trkpt><trkpt lat="43.6201537" lon="13.3042357"><ele>32.0</ele><time>2026-04-26T08:09:53.276Z</time></trkpt><trkpt lat="43.6200572" lon="13.3041654"><ele>32.0</ele><time>2026-04-26T08:09:55.276Z</time></trkpt><trkpt lat="43.6199655" lon="13.3042245"><ele>32.0</ele><time>2026-04-26T08:09:57.276Z</time></trkpt><trkpt lat="43.6199142" lon="13.3043195"><ele>32.0</ele><time>2026-04-26T08:09:58.276Z</time></trkpt><trkpt lat="43.6198607" lon="13.3044505"><ele>32.0</ele><time>2026-04-26T08:09:59.276Z</time></trkpt><trkpt lat="43.6198061" lon="13.3045932"><ele>32.0</ele><time>2026-04-26T08:10:00.276Z</time></trkpt><trkpt lat="43.6197425" lon="13.3047342"><ele>31.75</ele><time>2026-04-26T08:10:01.276Z</time></trkpt><trkpt lat="43.6196797" lon="13.3048707"><ele>31.5</ele><time>2026-04-26T08:10:02.276Z</time></trkpt><trkpt lat="43.6196164" lon="13.3050135"><ele>31.25</ele><time>2026-04-26T08:10:03.276Z</time></trkpt><trkpt lat="43.6195486" lon="13.3051646"><ele>31.0</ele><time>2026-04-26T08:10:04.276Z</time></trkpt><trkpt lat="43.6194818" lon="13.3053101"><ele>30.8</ele><time>2026-04-26T08:10:05.276Z</time></trkpt><trkpt lat="43.6194226" lon="13.3054493"><ele>30.6</ele><time>2026-04-26T08:10:06.276Z</time></trkpt><trkpt lat="43.6193709" lon="13.3055796"><ele>30.4</ele><time>2026-04-26T08:10:07.276Z</time></trkpt><trkpt lat="43.6193181" lon="13.3057034"><ele>30.2</ele><time>2026-04-26T08:10:08.276Z</time></trkpt><trkpt lat="43.6192609" lon="13.3058071"><ele>30.0</ele><time>2026-04-26T08:10:09.276Z</time></trkpt><trkpt lat="43.6192021" lon="13.3058878"><ele>29.833333333333332</ele><time>2026-04-26T08:10:10.276Z</time></trkpt><trkpt lat="43.6191378" lon="13.3059483"><ele>29.666666666666664</ele><time>2026-04-26T08:10:11.276Z</time></trkpt><trkpt lat="43.6190656" lon="13.3059805"><ele>29.5</ele><time>2026-04-26T08:10:12.276Z</time></trkpt><trkpt lat="43.6189853" lon="13.3059791"><ele>29.333333333333332</ele><time>2026-04-26T08:10:13.277Z</time></trkpt><trkpt lat="43.6188988" lon="13.3059545"><ele>29.166666666666664</ele><time>2026-04-26T08:10:14.276Z</time></trkpt><trkpt lat="43.6188077" lon="13.3058953"><ele>29.0</ele><time>2026-04-26T08:10:15.276Z</time></trkpt><trkpt lat="43.6187106" lon="13.3058267"><ele>29.0</ele><time>2026-04-26T08:10:16.276Z</time></trkpt><trkpt lat="43.6186117" lon="13.3057578"><ele>29.0</ele><time>2026-04-26T08:10:17.276Z</time></trkpt><trkpt lat="43.6185179" lon="13.3057015"><ele>29.0</ele><time>2026-04-26T08:10:18.276Z</time></trkpt><trkpt lat="43.6184301" lon="13.3056527"><ele>29.0</ele><time>2026-04-26T08:10:19.276Z</time></trkpt><trkpt lat="43.618342" lon="13.3056001"><ele>29.0</ele><time>2026-04-26T08:10:20.276Z</time></trkpt><trkpt lat="43.6182505" lon="13.3055445"><ele>29.0</ele><time>2026-04-26T08:10:21.276Z</time></trkpt><trkpt lat="43.6181615" lon="13.3054906"><ele>29.0</ele><time>2026-04-26T08:10:22.276Z</time></trkpt><trkpt lat="43.6180718" lon="13.3054373"><ele>29.0</ele><time>2026-04-26T08:10:23.277Z</time></trkpt><trkpt lat="43.6179821" lon="13.3053832"><ele>29.0</ele><time>2026-04-26T08:10:24.276Z</time></trkpt><trkpt lat="43.6178944" lon="13.3053318"><ele>29.0</ele><time>2026-04-26T08:10:25.276Z</time></trkpt><trkpt lat="43.6177963" lon="13.3052773"><ele>29.0</ele><time>2026-04-26T08:10:26.277Z</time></trkpt><trkpt lat="43.6176898" lon="13.3052164"><ele>29.0</ele><time>2026-04-26T08:10:27.276Z</time></trkpt><trkpt lat="43.6175751" lon="13.3051472"><ele>29.0</ele><time>2026-04-26T08:10:28.276Z</time></trkpt><trkpt lat="43.6174605" lon="13.3050804"><ele>29.0</ele><time>2026-04-26T08:10:29.276Z</time></trkpt><trkpt lat="43.6173465" lon="13.305017"><ele>29.0</ele><time>2026-04-26T08:10:30.276Z</time></trkpt><trkpt lat="43.6172324" lon="13.3049512"><ele>29.0</ele><time>2026-04-26T08:10:31.277Z</time></trkpt><trkpt lat="43.6171141" lon="13.3048838"><ele>29.0</ele><time>2026-04-26T08:10:32.276Z</time></trkpt><trkpt lat="43.6169982" lon="13.3048179"><ele>29.0</ele><time>2026-04-26T08:10:33.276Z</time></trkpt><trkpt lat="43.6168806" lon="13.3047563"><ele>29.25</ele><time>2026-04-26T08:10:34.277Z</time></trkpt><trkpt lat="43.6167607" lon="13.3046896"><ele>29.5</ele><time>2026-04-26T08:10:35.276Z</time></trkpt><trkpt lat="43.6166367" lon="13.3046192"><ele>29.75</ele><time>2026-04-26T08:10:36.276Z</time></trkpt><trkpt lat="43.6165204" lon="13.3045563"><ele>30.0</ele><time>2026-04-26T08:10:37.276Z</time></trkpt><trkpt lat="43.6164139" lon="13.3044991"><ele>30.0</ele><time>2026-04-26T08:10:38.276Z</time></trkpt><trkpt lat="43.6163092" lon="13.3044409"><ele>30.0</ele><time>2026-04-26T08:10:39.276Z</time></trkpt><trkpt lat="43.6161999" lon="13.3043824"><ele>30.0</ele><time>2026-04-26T08:10:40.276Z</time></trkpt><trkpt lat="43.6160856" lon="13.3043209"><ele>30.0</ele><time>2026-04-26T08:10:41.276Z</time></trkpt><trkpt lat="43.615971" lon="13.3042583"><ele>30.0</ele><time>2026-04-26T08:10:42.276Z</time></trkpt><trkpt lat="43.6158589" lon="13.304193"><ele>30.0</ele><time>2026-04-26T08:10:43.276Z</time></trkpt><trkpt lat="43.6157578" lon="13.3041333"><ele>30.0</ele><time>2026-04-26T08:10:44.276Z</time></trkpt><trkpt lat="43.6156653" lon="13.3040808"><ele>30.0</ele><time>2026-04-26T08:10:45.276Z</time></trkpt><trkpt lat="43.615589" lon="13.3040387"><ele>30.0</ele><time>2026-04-26T08:10:46.276Z</time></trkpt><trkpt lat="43.6155241" lon="13.3040021"><ele>29.8</ele><time>2026-04-26T08:10:47.276Z</time></trkpt><trkpt lat="43.6154358" lon="13.3038925"><ele>29.6</ele><time>2026-04-26T08:10:49.276Z</time></trkpt><trkpt lat="43.6154545" lon="13.3037233"><ele>29.4</ele><time>2026-04-26T08:10:51.276Z</time></trkpt><trkpt lat="43.6155091" lon="13.3036319"><ele>29.2</ele><time>2026-04-26T08:10:52.276Z</time></trkpt><trkpt lat="43.6155714" lon="13.3035192"><ele>29.0</ele><time>2026-04-26T08:10:53.276Z</time></trkpt><trkpt lat="43.6156341" lon="13.3033971"><ele>29.0</ele><time>2026-04-26T08:10:54.276Z</time></trkpt><trkpt lat="43.6156937" lon="13.3032658"><ele>29.0</ele><time>2026-04-26T08:10:55.277Z</time></trkpt><trkpt lat="43.6157526" lon="13.3031324"><ele>29.0</ele><time>2026-04-26T08:10:56.276Z</time></trkpt><trkpt lat="43.6158142" lon="13.3029949"><ele>29.0</ele><time>2026-04-26T08:10:57.276Z</time></trkpt><trkpt lat="43.6158752" lon="13.3028575"><ele>29.25</ele><time>2026-04-26T08:10:58.276Z</time></trkpt><trkpt lat="43.6159354" lon="13.3027277"><ele>29.5</ele><time>2026-04-26T08:10:59.276Z</time></trkpt><trkpt lat="43.6160008" lon="13.3025823"><ele>29.75</ele><time>2026-04-26T08:11:00.276Z</time></trkpt><trkpt lat="43.6160754" lon="13.3024281"><ele>30.0</ele><time>2026-04-26T08:11:01.276Z</time></trkpt><trkpt lat="43.6161527" lon="13.302266"><ele>30.25</ele><time>2026-04-26T08:11:02.276Z</time></trkpt><trkpt lat="43.6162316" lon="13.3020874"><ele>30.5</ele><time>2026-04-26T08:11:03.276Z</time></trkpt><trkpt lat="43.6163054" lon="13.3019265"><ele>30.75</ele><time>2026-04-26T08:11:04.276Z</time></trkpt><trkpt lat="43.6163748" lon="13.3017851"><ele>31.0</ele><time>2026-04-26T08:11:05.276Z</time></trkpt><trkpt lat="43.6164362" lon="13.3016572"><ele>31.000000000000004</ele><time>2026-04-26T08:11:06.277Z</time></trkpt><trkpt lat="43.6164871" lon="13.3015418"><ele>31.0</ele><time>2026-04-26T08:11:07.276Z</time></trkpt><trkpt lat="43.6165308" lon="13.3014367"><ele>31.0</ele><time>2026-04-26T08:11:08.276Z</time></trkpt><trkpt lat="43.6165718" lon="13.3013485"><ele>31.0</ele><time>2026-04-26T08:11:09.276Z</time></trkpt><trkpt lat="43.6166176" lon="13.3012837"><ele>31.000000000000004</ele><time>2026-04-26T08:11:10.276Z</time></trkpt><trkpt lat="43.6167265" lon="13.3012243"><ele>31.0</ele><time>2026-04-26T08:11:12.276Z</time></trkpt><trkpt lat="43.6167894" lon="13.3012347"><ele>31.166666666666668</ele><time>2026-04-26T08:11:13.277Z</time></trkpt><trkpt lat="43.6168492" lon="13.3012737"><ele>31.333333333333336</ele><time>2026-04-26T08:11:14.277Z</time></trkpt><trkpt lat="43.6169057" lon="13.3013133"><ele>31.5</ele><time>2026-04-26T08:11:15.276Z</time></trkpt><trkpt lat="43.6170231" lon="13.3013146"><ele>31.666666666666664</ele><time>2026-04-26T08:11:17.276Z</time></trkpt><trkpt lat="43.6170922" lon="13.3012864"><ele>31.833333333333332</ele><time>2026-04-26T08:11:18.276Z</time></trkpt><trkpt lat="43.6171568" lon="13.3012492"><ele>32.0</ele><time>2026-04-26T08:11:19.276Z</time></trkpt><trkpt lat="43.617215" lon="13.3012"><ele>32.166666666666664</ele><time>2026-04-26T08:11:20.277Z</time></trkpt><trkpt lat="43.6172669" lon="13.3011435"><ele>32.33333333333333</ele><time>2026-04-26T08:11:21.276Z</time></trkpt><trkpt lat="43.6173154" lon="13.3010718"><ele>32.5</ele><time>2026-04-26T08:11:22.277Z</time></trkpt><trkpt lat="43.6173589" lon="13.3009899"><ele>32.666666666666664</ele><time>2026-04-26T08:11:23.276Z</time></trkpt><trkpt lat="43.6173972" lon="13.3009113"><ele>32.833333333333336</ele><time>2026-04-26T08:11:24.276Z</time></trkpt><trkpt lat="43.6174578" lon="13.3007908"><ele>33.0</ele><time>2026-04-26T08:11:26.276Z</time></trkpt><trkpt lat="43.6174567" lon="13.3006967"><ele>33.0</ele><time>2026-04-26T08:11:28.276Z</time></trkpt><trkpt lat="43.6173767" lon="13.3005917"><ele>33.0</ele><time>2026-04-26T08:11:30.276Z</time></trkpt><trkpt lat="43.6173133" lon="13.3005283"><ele>33.0</ele><time>2026-04-26T08:11:31.276Z</time></trkpt><trkpt lat="43.61724" lon="13.3004417"><ele>33.0</ele><time>2026-04-26T08:11:32.276Z</time></trkpt><trkpt lat="43.61717" lon="13.30035"><ele>33.0</ele><time>2026-04-26T08:11:33.276Z</time></trkpt><trkpt lat="43.6170917" lon="13.300255"><ele>33.25</ele><time>2026-04-26T08:11:34.276Z</time></trkpt><trkpt lat="43.61701" lon="13.30015"><ele>33.5</ele><time>2026-04-26T08:11:35.277Z</time></trkpt><trkpt lat="43.6169183" lon="13.3000483"><ele>33.75</ele><time>2026-04-26T08:11:36.276Z</time></trkpt><trkpt lat="43.6168233" lon="13.299935"><ele>34.0</ele><time>2026-04-26T08:11:37.276Z</time></trkpt><trkpt lat="43.616735" lon="13.2998367"><ele>33.75</ele><time>2026-04-26T08:11:38.277Z</time></trkpt><trkpt lat="43.61665" lon="13.2997267"><ele>33.5</ele><time>2026-04-26T08:11:39.276Z</time></trkpt><trkpt lat="43.6165533" lon="13.2996133"><ele>33.25</ele><time>2026-04-26T08:11:40.276Z</time></trkpt><trkpt lat="43.616455" lon="13.2995033"><ele>33.0</ele><time>2026-04-26T08:11:41.276Z</time></trkpt><trkpt lat="43.6163617" lon="13.299385"><ele>33.0</ele><time>2026-04-26T08:11:42.276Z</time></trkpt><trkpt lat="43.61627" lon="13.2992617"><ele>33.0</ele><time>2026-04-26T08:11:43.276Z</time></trkpt><trkpt lat="43.6161683" lon="13.2991367"><ele>33.0</ele><time>2026-04-26T08:11:44.276Z</time></trkpt><trkpt lat="43.616065" lon="13.29901"><ele>33.0</ele><time>2026-04-26T08:11:45.277Z</time></trkpt><trkpt lat="43.615965" lon="13.2988967"><ele>33.5</ele><time>2026-04-26T08:11:46.277Z</time></trkpt><trkpt lat="43.615875" lon="13.2988017"><ele>34.0</ele><time>2026-04-26T08:11:47.277Z</time></trkpt><trkpt lat="43.6157817" lon="13.2986967"><ele>34.5</ele><time>2026-04-26T08:11:48.276Z</time></trkpt><trkpt lat="43.6156933" lon="13.2985883"><ele>35.0</ele><time>2026-04-26T08:11:49.276Z</time></trkpt><trkpt lat="43.6156017" lon="13.2984833"><ele>35.0</ele><time>2026-04-26T08:11:50.277Z</time></trkpt><trkpt lat="43.61551" lon="13.2983733"><ele>35.0</ele><time>2026-04-26T08:11:51.276Z</time></trkpt><trkpt lat="43.6154183" lon="13.2982717"><ele>35.0</ele><time>2026-04-26T08:11:52.276Z</time></trkpt><trkpt lat="43.6153333" lon="13.2981733"><ele>35.0</ele><time>2026-04-26T08:11:53.276Z</time></trkpt><trkpt lat="43.6152533" lon="13.2980783"><ele>35.4</ele><time>2026-04-26T08:11:54.276Z</time></trkpt><trkpt lat="43.6151783" lon="13.2979917"><ele>35.8</ele><time>2026-04-26T08:11:55.276Z</time></trkpt><trkpt lat="43.6150983" lon="13.2979083"><ele>36.2</ele><time>2026-04-26T08:11:56.277Z</time></trkpt><trkpt lat="43.6150267" lon="13.2978133"><ele>36.6</ele><time>2026-04-26T08:11:57.276Z</time></trkpt><trkpt lat="43.6149583" lon="13.2977383"><ele>37.0</ele><time>2026-04-26T08:11:58.276Z</time></trkpt><trkpt lat="43.61489" lon="13.2976617"><ele>37.0</ele><time>2026-04-26T08:11:59.277Z</time></trkpt><trkpt lat="43.6148333" lon="13.2975983"><ele>37.0</ele><time>2026-04-26T08:12:00.276Z</time></trkpt><trkpt lat="43.6147733" lon="13.2975367"><ele>37.0</ele><time>2026-04-26T08:12:01.276Z</time></trkpt><trkpt lat="43.61472" lon="13.2974733"><ele>37.0</ele><time>2026-04-26T08:12:02.276Z</time></trkpt><trkpt lat="43.614675" lon="13.2973467"><ele>37.0</ele><time>2026-04-26T08:12:04.276Z</time></trkpt><trkpt lat="43.61471" lon="13.2971967"><ele>37.0</ele><time>2026-04-26T08:12:06.276Z</time></trkpt><trkpt lat="43.6147517" lon="13.2971"><ele>37.0</ele><time>2026-04-26T08:12:07.276Z</time></trkpt><trkpt lat="43.6147967" lon="13.2969967"><ele>37.0</ele><time>2026-04-26T08:12:08.277Z</time></trkpt><trkpt lat="43.6148417" lon="13.29689"><ele>37.0</ele><time>2026-04-26T08:12:09.276Z</time></trkpt><trkpt lat="43.614885" lon="13.2967717"><ele>37.0</ele><time>2026-04-26T08:12:10.276Z</time></trkpt><trkpt lat="43.6149417" lon="13.29664"><ele>37.0</ele><time>2026-04-26T08:12:11.276Z</time></trkpt><trkpt lat="43.6149933" lon="13.2965067"><ele>37.0</ele><time>2026-04-26T08:12:12.276Z</time></trkpt><trkpt lat="43.6150533" lon="13.2963733"><ele>37.0</ele><time>2026-04-26T08:12:13.276Z</time></trkpt><trkpt lat="43.6151083" lon="13.296235"><ele>37.0</ele><time>2026-04-26T08:12:14.276Z</time></trkpt><trkpt lat="43.6151667" lon="13.2961"><ele>37.0</ele><time>2026-04-26T08:12:15.276Z</time></trkpt><trkpt lat="43.6152167" lon="13.295965"><ele>37.0</ele><time>2026-04-26T08:12:16.276Z</time></trkpt><trkpt lat="43.61527" lon="13.295835"><ele>37.0</ele><time>2026-04-26T08:12:17.276Z</time></trkpt><trkpt lat="43.6153217" lon="13.29571"><ele>37.0</ele><time>2026-04-26T08:12:18.276Z</time></trkpt><trkpt lat="43.6153717" lon="13.2955983"><ele>37.0</ele><time>2026-04-26T08:12:19.276Z</time></trkpt><trkpt lat="43.6154183" lon="13.2954917"><ele>37.0</ele><time>2026-04-26T08:12:20.276Z</time></trkpt><trkpt lat="43.6154633" lon="13.2953883"><ele>37.333333333333336</ele><time>2026-04-26T08:12:21.276Z</time></trkpt><trkpt lat="43.6154983" lon="13.2952933"><ele>37.66666666666667</ele><time>2026-04-26T08:12:22.276Z</time></trkpt><trkpt lat="43.615535" lon="13.295205"><ele>38.0</ele><time>2026-04-26T08:12:23.276Z</time></trkpt><trkpt lat="43.615565" lon="13.29508"><ele>38.333333333333336</ele><time>2026-04-26T08:12:25.276Z</time></trkpt><trkpt lat="43.6155233" lon="13.2949783"><ele>38.666666666666664</ele><time>2026-04-26T08:12:28.276Z</time></trkpt><trkpt lat="43.6154683" lon="13.2949333"><ele>39.0</ele><time>2026-04-26T08:12:29.276Z</time></trkpt><trkpt lat="43.6153867" lon="13.2948917"><ele>38.5</ele><time>2026-04-26T08:12:30.276Z</time></trkpt><trkpt lat="43.615275" lon="13.2948467"><ele>38.0</ele><time>2026-04-26T08:12:31.276Z</time></trkpt><trkpt lat="43.6151367" lon="13.2947933"><ele>37.5</ele><time>2026-04-26T08:12:32.276Z</time></trkpt><trkpt lat="43.6149667" lon="13.29473"><ele>37.0</ele><time>2026-04-26T08:12:33.276Z</time></trkpt><trkpt lat="43.61479" lon="13.2946617"><ele>37.0</ele><time>2026-04-26T08:12:34.276Z</time></trkpt><trkpt lat="43.614605" lon="13.2945867"><ele>37.0</ele><time>2026-04-26T08:12:35.276Z</time></trkpt><trkpt lat="43.61442" lon="13.29451"><ele>37.0</ele><time>2026-04-26T08:12:36.276Z</time></trkpt><trkpt lat="43.6142417" lon="13.294435"><ele>36.66666666666667</ele><time>2026-04-26T08:12:37.276Z</time></trkpt><trkpt lat="43.6140633" lon="13.2943617"><ele>36.333333333333336</ele><time>2026-04-26T08:12:38.276Z</time></trkpt><trkpt lat="43.6138817" lon="13.2942833"><ele>36.0</ele><time>2026-04-26T08:12:39.276Z</time></trkpt><trkpt lat="43.6137017" lon="13.2942033"><ele>35.666666666666664</ele><time>2026-04-26T08:12:40.277Z</time></trkpt><trkpt lat="43.6135067" lon="13.294125"><ele>35.33333333333333</ele><time>2026-04-26T08:12:41.276Z</time></trkpt><trkpt lat="43.6133167" lon="13.294045"><ele>35.0</ele><time>2026-04-26T08:12:42.276Z</time></trkpt><trkpt lat="43.6131233" lon="13.293965"><ele>35.0</ele><time>2026-04-26T08:12:43.276Z</time></trkpt><trkpt lat="43.6129283" lon="13.293885"><ele>35.0</ele><time>2026-04-26T08:12:44.276Z</time></trkpt><trkpt lat="43.6127217" lon="13.2938"><ele>35.0</ele><time>2026-04-26T08:12:45.276Z</time></trkpt><trkpt lat="43.6125117" lon="13.29372"><ele>35.0</ele><time>2026-04-26T08:12:46.277Z</time></trkpt><trkpt lat="43.6122983" lon="13.293635"><ele>35.0</ele><time>2026-04-26T08:12:47.276Z</time></trkpt><trkpt lat="43.6120833" lon="13.29354"><ele>35.0</ele><time>2026-04-26T08:12:48.276Z</time></trkpt><trkpt lat="43.6118667" lon="13.293455"><ele>35.0</ele><time>2026-04-26T08:12:49.276Z</time></trkpt><trkpt lat="43.61165" lon="13.2933633"><ele>35.0</ele><time>2026-04-26T08:12:50.276Z</time></trkpt><trkpt lat="43.611435" lon="13.29327"><ele>35.0</ele><time>2026-04-26T08:12:51.276Z</time></trkpt><trkpt lat="43.611225" lon="13.2931817"><ele>35.0</ele><time>2026-04-26T08:12:52.276Z</time></trkpt><trkpt lat="43.6110267" lon="13.2931017"><ele>35.0</ele><time>2026-04-26T08:12:53.276Z</time></trkpt><trkpt lat="43.6108383" lon="13.2930267"><ele>35.0</ele><time>2026-04-26T08:12:54.276Z</time></trkpt><trkpt lat="43.6106617" lon="13.292955"><ele>35.0</ele><time>2026-04-26T08:12:55.276Z</time></trkpt><trkpt lat="43.610495" lon="13.292885"><ele>35.0</ele><time>2026-04-26T08:12:56.276Z</time></trkpt><trkpt lat="43.6103517" lon="13.2928217"><ele>34.5</ele><time>2026-04-26T08:12:57.276Z</time></trkpt><trkpt lat="43.6102183" lon="13.292765"><ele>34.0</ele><time>2026-04-26T08:12:58.276Z</time></trkpt><trkpt lat="43.6100933" lon="13.2927117"><ele>33.5</ele><time>2026-04-26T08:12:59.276Z</time></trkpt><trkpt lat="43.6099783" lon="13.2926317"><ele>33.0</ele><time>2026-04-26T08:13:00.276Z</time></trkpt><trkpt lat="43.609885" lon="13.29252"><ele>33.0</ele><time>2026-04-26T08:13:01.277Z</time></trkpt><trkpt lat="43.60981" lon="13.292375"><ele>33.0</ele><time>2026-04-26T08:13:02.276Z</time></trkpt><trkpt lat="43.6097417" lon="13.292205"><ele>33.0</ele><time>2026-04-26T08:13:03.277Z</time></trkpt><trkpt lat="43.6096767" lon="13.2920217"><ele>33.0</ele><time>2026-04-26T08:13:04.277Z</time></trkpt><trkpt lat="43.6096167" lon="13.291835"><ele>33.333333333333336</ele><time>2026-04-26T08:13:05.276Z</time></trkpt><trkpt lat="43.609555" lon="13.291645"><ele>33.66666666666667</ele><time>2026-04-26T08:13:06.276Z</time></trkpt><trkpt lat="43.609495" lon="13.2914533"><ele>34.0</ele><time>2026-04-26T08:13:07.276Z</time></trkpt><trkpt lat="43.6094267" lon="13.2912683"><ele>33.5</ele><time>2026-04-26T08:13:08.276Z</time></trkpt><trkpt lat="43.609365" lon="13.2910833"><ele>33.0</ele><time>2026-04-26T08:13:09.276Z</time></trkpt><trkpt lat="43.6093033" lon="13.2908967"><ele>32.5</ele><time>2026-04-26T08:13:10.276Z</time></trkpt><trkpt lat="43.60925" lon="13.2907317"><ele>32.0</ele><time>2026-04-26T08:13:11.276Z</time></trkpt><trkpt lat="43.6091967" lon="13.29057"><ele>32.0</ele><time>2026-04-26T08:13:12.276Z</time></trkpt><trkpt lat="43.609145" lon="13.2904217"><ele>32.0</ele><time>2026-04-26T08:13:13.276Z</time></trkpt><trkpt lat="43.6091017" lon="13.2902883"><ele>32.0</ele><time>2026-04-26T08:13:14.276Z</time></trkpt><trkpt lat="43.6090617" lon="13.290165"><ele>32.0</ele><time>2026-04-26T08:13:15.276Z</time></trkpt><trkpt lat="43.6090267" lon="13.2900417"><ele>32.0</ele><time>2026-04-26T08:13:16.277Z</time></trkpt><trkpt lat="43.609005" lon="13.2899267"><ele>32.0</ele><time>2026-04-26T08:13:17.276Z</time></trkpt><trkpt lat="43.609" lon="13.2898083"><ele>32.0</ele><time>2026-04-26T08:13:18.276Z</time></trkpt><trkpt lat="43.6090233" lon="13.2896883"><ele>32.0</ele><time>2026-04-26T08:13:19.276Z</time></trkpt><trkpt lat="43.6090667" lon="13.2895767"><ele>32.0</ele><time>2026-04-26T08:13:20.277Z</time></trkpt><trkpt lat="43.60912" lon="13.2894617"><ele>32.0</ele><time>2026-04-26T08:13:21.276Z</time></trkpt><trkpt lat="43.6091667" lon="13.2893233"><ele>32.0</ele><time>2026-04-26T08:13:22.276Z</time></trkpt><trkpt lat="43.6092117" lon="13.2891517"><ele>32.0</ele><time>2026-04-26T08:13:23.276Z</time></trkpt><trkpt lat="43.609245" lon="13.288985"><ele>32.0</ele><time>2026-04-26T08:13:24.276Z</time></trkpt><trkpt lat="43.6092683" lon="13.28881"><ele>32.0</ele><time>2026-04-26T08:13:25.276Z</time></trkpt><trkpt lat="43.6092883" lon="13.28862"><ele>32.0</ele><time>2026-04-26T08:13:26.276Z</time></trkpt><trkpt lat="43.60932" lon="13.28843"><ele>32.0</ele><time>2026-04-26T08:13:27.276Z</time></trkpt><trkpt lat="43.60935" lon="13.2882417"><ele>32.0</ele><time>2026-04-26T08:13:28.276Z</time></trkpt><trkpt lat="43.6093867" lon="13.2880617"><ele>32.0</ele><time>2026-04-26T08:13:29.276Z</time></trkpt><trkpt lat="43.6094283" lon="13.2878767"><ele>32.0</ele><time>2026-04-26T08:13:30.276Z</time></trkpt><trkpt lat="43.6094683" lon="13.28769"><ele>32.0</ele><time>2026-04-26T08:13:31.276Z</time></trkpt><trkpt lat="43.60951" lon="13.2875133"><ele>32.0</ele><time>2026-04-26T08:13:32.276Z</time></trkpt><trkpt lat="43.6095467" lon="13.287335"><ele>32.0</ele><time>2026-04-26T08:13:33.276Z</time></trkpt><trkpt lat="43.6095833" lon="13.287155"><ele>32.75</ele><time>2026-04-26T08:13:34.276Z</time></trkpt><trkpt lat="43.6096233" lon="13.286985"><ele>33.5</ele><time>2026-04-26T08:13:35.276Z</time></trkpt><trkpt lat="43.609665" lon="13.2868017"><ele>34.25</ele><time>2026-04-26T08:13:36.276Z</time></trkpt><trkpt lat="43.6097183" lon="13.2865983"><ele>35.0</ele><time>2026-04-26T08:13:37.276Z</time></trkpt><trkpt lat="43.6097567" lon="13.2863783"><ele>35.0</ele><time>2026-04-26T08:13:38.276Z</time></trkpt><trkpt lat="43.6098017" lon="13.28614"><ele>35.0</ele><time>2026-04-26T08:13:39.276Z</time></trkpt><trkpt lat="43.609845" lon="13.2858967"><ele>35.0</ele><time>2026-04-26T08:13:40.276Z</time></trkpt><trkpt lat="43.6098817" lon="13.285655"><ele>35.33333333333333</ele><time>2026-04-26T08:13:41.276Z</time></trkpt><trkpt lat="43.6099217" lon="13.28543"><ele>35.666666666666664</ele><time>2026-04-26T08:13:42.276Z</time></trkpt><trkpt lat="43.60996" lon="13.285215"><ele>36.0</ele><time>2026-04-26T08:13:43.276Z</time></trkpt><trkpt lat="43.6099933" lon="13.285005"><ele>36.0</ele><time>2026-04-26T08:13:44.276Z</time></trkpt><trkpt lat="43.6100283" lon="13.2848"><ele>36.0</ele><time>2026-04-26T08:13:45.276Z</time></trkpt><trkpt lat="43.6100817" lon="13.2845967"><ele>36.0</ele><time>2026-04-26T08:13:46.276Z</time></trkpt><trkpt lat="43.6101467" lon="13.284395"><ele>36.0</ele><time>2026-04-26T08:13:47.276Z</time></trkpt><trkpt lat="43.6102317" lon="13.2841933"><ele>36.0</ele><time>2026-04-26T08:13:48.276Z</time></trkpt><trkpt lat="43.6103233" lon="13.284005"><ele>36.0</ele><time>2026-04-26T08:13:49.276Z</time></trkpt><trkpt lat="43.6104067" lon="13.2838233"><ele>36.5</ele><time>2026-04-26T08:13:50.276Z</time></trkpt><trkpt lat="43.6104833" lon="13.283655"><ele>37.0</ele><time>2026-04-26T08:13:51.276Z</time></trkpt><trkpt lat="43.6105633" lon="13.2835183"><ele>37.5</ele><time>2026-04-26T08:13:52.276Z</time></trkpt><trkpt lat="43.6106483" lon="13.2833917"><ele>38.0</ele><time>2026-04-26T08:13:53.276Z</time></trkpt><trkpt lat="43.6107317" lon="13.2832633"><ele>38.0</ele><time>2026-04-26T08:13:54.276Z</time></trkpt><trkpt lat="43.61081" lon="13.2831333"><ele>38.0</ele><time>2026-04-26T08:13:55.276Z</time></trkpt><trkpt lat="43.61088" lon="13.2830017"><ele>38.0</ele><time>2026-04-26T08:13:56.276Z</time></trkpt><trkpt lat="43.6109517" lon="13.2828883"><ele>38.0</ele><time>2026-04-26T08:13:57.277Z</time></trkpt><trkpt lat="43.6110167" lon="13.2827733"><ele>38.0</ele><time>2026-04-26T08:13:58.276Z</time></trkpt><trkpt lat="43.61108" lon="13.28267"><ele>38.0</ele><time>2026-04-26T08:13:59.276Z</time></trkpt><trkpt lat="43.6111283" lon="13.28257"><ele>38.0</ele><time>2026-04-26T08:14:00.276Z</time></trkpt><trkpt lat="43.611165" lon="13.282485"><ele>38.0</ele><time>2026-04-26T08:14:01.276Z</time></trkpt><trkpt lat="43.6112367" lon="13.2823967"><ele>38.0</ele><time>2026-04-26T08:14:03.276Z</time></trkpt><trkpt lat="43.61136" lon="13.2823533"><ele>38.0</ele><time>2026-04-26T08:14:05.276Z</time></trkpt><trkpt lat="43.611445" lon="13.2823383"><ele>38.0</ele><time>2026-04-26T08:14:06.276Z</time></trkpt><trkpt lat="43.6115367" lon="13.282315"><ele>38.0</ele><time>2026-04-26T08:14:07.276Z</time></trkpt><trkpt lat="43.61163" lon="13.2822867"><ele>38.0</ele><time>2026-04-26T08:14:08.276Z</time></trkpt><trkpt lat="43.61172" lon="13.28226"><ele>38.0</ele><time>2026-04-26T08:14:09.276Z</time></trkpt><trkpt lat="43.61182" lon="13.2822283"><ele>38.4</ele><time>2026-04-26T08:14:10.276Z</time></trkpt><trkpt lat="43.611915" lon="13.282195"><ele>38.8</ele><time>2026-04-26T08:14:11.276Z</time></trkpt><trkpt lat="43.6120133" lon="13.2821633"><ele>39.2</ele><time>2026-04-26T08:14:12.276Z</time></trkpt><trkpt lat="43.612115" lon="13.2821217"><ele>39.6</ele><time>2026-04-26T08:14:13.276Z</time></trkpt><trkpt lat="43.6122117" lon="13.282075"><ele>40.0</ele><time>2026-04-26T08:14:14.276Z</time></trkpt><trkpt lat="43.6123067" lon="13.28203"><ele>40.0</ele><time>2026-04-26T08:14:15.276Z</time></trkpt><trkpt lat="43.6123933" lon="13.28198"><ele>40.0</ele><time>2026-04-26T08:14:16.276Z</time></trkpt><trkpt lat="43.6124833" lon="13.2819267"><ele>40.0</ele><time>2026-04-26T08:14:17.276Z</time></trkpt><trkpt lat="43.6125717" lon="13.281865"><ele>40.0</ele><time>2026-04-26T08:14:18.276Z</time></trkpt><trkpt lat="43.6126583" lon="13.2817983"><ele>40.0</ele><time>2026-04-26T08:14:19.276Z</time></trkpt><trkpt lat="43.61274" lon="13.28174"><ele>39.8</ele><time>2026-04-26T08:14:20.276Z</time></trkpt><trkpt lat="43.6128267" lon="13.2816717"><ele>39.6</ele><time>2026-04-26T08:14:21.276Z</time></trkpt><trkpt lat="43.61292" lon="13.28161"><ele>39.4</ele><time>2026-04-26T08:14:22.276Z</time></trkpt><trkpt lat="43.6129967" lon="13.281525"><ele>39.2</ele><time>2026-04-26T08:14:23.276Z</time></trkpt><trkpt lat="43.6130733" lon="13.2814317"><ele>39.0</ele><time>2026-04-26T08:14:24.276Z</time></trkpt><trkpt lat="43.613155" lon="13.2813367"><ele>39.0</ele><time>2026-04-26T08:14:25.276Z</time></trkpt><trkpt lat="43.6132317" lon="13.2812533"><ele>39.0</ele><time>2026-04-26T08:14:26.276Z</time></trkpt><trkpt lat="43.613305" lon="13.2811617"><ele>39.0</ele><time>2026-04-26T08:14:27.276Z</time></trkpt><trkpt lat="43.6133817" lon="13.281065"><ele>39.0</ele><time>2026-04-26T08:14:28.276Z</time></trkpt><trkpt lat="43.6134617" lon="13.280965"><ele>39.0</ele><time>2026-04-26T08:14:29.276Z</time></trkpt><trkpt lat="43.61354" lon="13.280855"><ele>39.0</ele><time>2026-04-26T08:14:30.276Z</time></trkpt><trkpt lat="43.6136217" lon="13.2807317"><ele>39.0</ele><time>2026-04-26T08:14:31.276Z</time></trkpt><trkpt lat="43.6137033" lon="13.280615"><ele>39.0</ele><time>2026-04-26T08:14:32.277Z</time></trkpt><trkpt lat="43.61378" lon="13.2805"><ele>39.0</ele><time>2026-04-26T08:14:33.276Z</time></trkpt><trkpt lat="43.6138617" lon="13.2803733"><ele>39.75</ele><time>2026-04-26T08:14:34.276Z</time></trkpt><trkpt lat="43.613945" lon="13.28024"><ele>40.5</ele><time>2026-04-26T08:14:35.276Z</time></trkpt><trkpt lat="43.6140383" lon="13.2800933"><ele>41.25</ele><time>2026-04-26T08:14:36.276Z</time></trkpt><trkpt lat="43.61413" lon="13.2799433"><ele>42.0</ele><time>2026-04-26T08:14:37.276Z</time></trkpt><trkpt lat="43.6142117" lon="13.279805"><ele>41.75</ele><time>2026-04-26T08:14:38.276Z</time></trkpt><trkpt lat="43.6142783" lon="13.279675"><ele>41.5</ele><time>2026-04-26T08:14:39.276Z</time></trkpt><trkpt lat="43.6143567" lon="13.27954"><ele>41.25</ele><time>2026-04-26T08:14:40.276Z</time></trkpt><trkpt lat="43.614455" lon="13.279405"><ele>41.0</ele><time>2026-04-26T08:14:41.277Z</time></trkpt><trkpt lat="43.614565" lon="13.27927"><ele>41.0</ele><time>2026-04-26T08:14:42.276Z</time></trkpt><trkpt lat="43.6146683" lon="13.2791467"><ele>41.0</ele><time>2026-04-26T08:14:43.276Z</time></trkpt><trkpt lat="43.6147667" lon="13.27903"><ele>41.0</ele><time>2026-04-26T08:14:44.276Z</time></trkpt><trkpt lat="43.6148617" lon="13.27892"><ele>41.0</ele><time>2026-04-26T08:14:45.276Z</time></trkpt><trkpt lat="43.61497" lon="13.2788"><ele>40.75</ele><time>2026-04-26T08:14:46.276Z</time></trkpt><trkpt lat="43.6150667" lon="13.278685"><ele>40.5</ele><time>2026-04-26T08:14:47.276Z</time></trkpt><trkpt lat="43.6151617" lon="13.2785717"><ele>40.25</ele><time>2026-04-26T08:14:48.276Z</time></trkpt><trkpt lat="43.6152583" lon="13.278445"><ele>40.0</ele><time>2026-04-26T08:14:49.277Z</time></trkpt><trkpt lat="43.6153467" lon="13.278315"><ele>40.0</ele><time>2026-04-26T08:14:50.276Z</time></trkpt><trkpt lat="43.6154333" lon="13.278195"><ele>40.0</ele><time>2026-04-26T08:14:51.276Z</time></trkpt><trkpt lat="43.6155183" lon="13.2780817"><ele>40.0</ele><time>2026-04-26T08:14:52.277Z</time></trkpt><trkpt lat="43.615605" lon="13.27796"><ele>40.0</ele><time>2026-04-26T08:14:53.276Z</time></trkpt><trkpt lat="43.6156983" lon="13.27784"><ele>40.75</ele><time>2026-04-26T08:14:54.276Z</time></trkpt><trkpt lat="43.615795" lon="13.27772"><ele>41.5</ele><time>2026-04-26T08:14:55.276Z</time></trkpt><trkpt lat="43.615885" lon="13.27761"><ele>42.25</ele><time>2026-04-26T08:14:56.276Z</time></trkpt><trkpt lat="43.6159767" lon="13.2774983"><ele>43.0</ele><time>2026-04-26T08:14:57.276Z</time></trkpt><trkpt lat="43.61607" lon="13.2773983"><ele>43.0</ele><time>2026-04-26T08:14:58.276Z</time></trkpt><trkpt lat="43.6161633" lon="13.2772917"><ele>43.0</ele><time>2026-04-26T08:14:59.275Z</time></trkpt><trkpt lat="43.6162633" lon="13.277165"><ele>43.0</ele><time>2026-04-26T08:15:00.275Z</time></trkpt><trkpt lat="43.6163483" lon="13.277055"><ele>43.0</ele><time>2026-04-26T08:15:01.275Z</time></trkpt><trkpt lat="43.6164283" lon="13.27695"><ele>43.0</ele><time>2026-04-26T08:15:02.276Z</time></trkpt><trkpt lat="43.6165067" lon="13.2768467"><ele>43.0</ele><time>2026-04-26T08:15:03.275Z</time></trkpt><trkpt lat="43.6165833" lon="13.276745"><ele>43.0</ele><time>2026-04-26T08:15:04.275Z</time></trkpt><trkpt lat="43.61666" lon="13.2766367"><ele>43.0</ele><time>2026-04-26T08:15:05.275Z</time></trkpt><trkpt lat="43.616735" lon="13.2765383"><ele>43.0</ele><time>2026-04-26T08:15:06.275Z</time></trkpt><trkpt lat="43.616805" lon="13.2764383"><ele>43.25</ele><time>2026-04-26T08:15:07.275Z</time></trkpt><trkpt lat="43.6168833" lon="13.2763233"><ele>43.5</ele><time>2026-04-26T08:15:08.275Z</time></trkpt><trkpt lat="43.6169633" lon="13.276205"><ele>43.75</ele><time>2026-04-26T08:15:09.275Z</time></trkpt><trkpt lat="43.6170433" lon="13.2760817"><ele>44.0</ele><time>2026-04-26T08:15:10.275Z</time></trkpt><trkpt lat="43.6171117" lon="13.2759633"><ele>44.0</ele><time>2026-04-26T08:15:11.276Z</time></trkpt><trkpt lat="43.6171917" lon="13.2758417"><ele>44.0</ele><time>2026-04-26T08:15:12.275Z</time></trkpt><trkpt lat="43.61726" lon="13.2757217"><ele>44.0</ele><time>2026-04-26T08:15:13.275Z</time></trkpt><trkpt lat="43.6173333" lon="13.2756"><ele>44.0</ele><time>2026-04-26T08:15:14.275Z</time></trkpt><trkpt lat="43.6173917" lon="13.2754817"><ele>44.0</ele><time>2026-04-26T08:15:15.275Z</time></trkpt><trkpt lat="43.61746" lon="13.2753583"><ele>44.6</ele><time>2026-04-26T08:15:16.275Z</time></trkpt><trkpt lat="43.6175283" lon="13.2752283"><ele>45.2</ele><time>2026-04-26T08:15:17.276Z</time></trkpt><trkpt lat="43.61759" lon="13.2751117"><ele>45.800000000000004</ele><time>2026-04-26T08:15:18.275Z</time></trkpt><trkpt lat="43.6176567" lon="13.2750067"><ele>46.400000000000006</ele><time>2026-04-26T08:15:19.275Z</time></trkpt><trkpt lat="43.6177183" lon="13.2749117"><ele>47.0</ele><time>2026-04-26T08:15:20.275Z</time></trkpt><trkpt lat="43.617765" lon="13.2748117"><ele>47.8</ele><time>2026-04-26T08:15:21.275Z</time></trkpt><trkpt lat="43.617815" lon="13.2747067"><ele>48.6</ele><time>2026-04-26T08:15:22.275Z</time></trkpt><trkpt lat="43.61787" lon="13.2746017"><ele>49.4</ele><time>2026-04-26T08:15:23.275Z</time></trkpt><trkpt lat="43.6179317" lon="13.2744817"><ele>50.199999999999996</ele><time>2026-04-26T08:15:24.275Z</time></trkpt><trkpt lat="43.6180067" lon="13.27434"><ele>51.0</ele><time>2026-04-26T08:15:25.275Z</time></trkpt><trkpt lat="43.618085" lon="13.274215"><ele>50.333333333333336</ele><time>2026-04-26T08:15:26.276Z</time></trkpt><trkpt lat="43.6181433" lon="13.27411"><ele>49.666666666666664</ele><time>2026-04-26T08:15:27.275Z</time></trkpt><trkpt lat="43.618195" lon="13.2740083"><ele>49.0</ele><time>2026-04-26T08:15:28.275Z</time></trkpt><trkpt lat="43.6182383" lon="13.2739133"><ele>48.33333333333333</ele><time>2026-04-26T08:15:29.275Z</time></trkpt><trkpt lat="43.6182783" lon="13.2738167"><ele>47.666666666666664</ele><time>2026-04-26T08:15:30.275Z</time></trkpt><trkpt lat="43.6183183" lon="13.2737217"><ele>47.0</ele><time>2026-04-26T08:15:31.275Z</time></trkpt><trkpt lat="43.61836" lon="13.2736117"><ele>47.0</ele><time>2026-04-26T08:15:32.275Z</time></trkpt><trkpt lat="43.6184033" lon="13.2735067"><ele>47.0</ele><time>2026-04-26T08:15:33.275Z</time></trkpt><trkpt lat="43.618445" lon="13.2734083"><ele>47.0</ele><time>2026-04-26T08:15:34.275Z</time></trkpt><trkpt lat="43.61847" lon="13.2733167"><ele>47.0</ele><time>2026-04-26T08:15:35.275Z</time></trkpt><trkpt lat="43.6184983" lon="13.273235"><ele>47.0</ele><time>2026-04-26T08:15:36.275Z</time></trkpt><trkpt lat="43.61852" lon="13.2731533"><ele>47.0</ele><time>2026-04-26T08:15:37.275Z</time></trkpt><trkpt lat="43.6185433" lon="13.2730717"><ele>47.0</ele><time>2026-04-26T08:15:38.275Z</time></trkpt><trkpt lat="43.618595" lon="13.2729283"><ele>46.2</ele><time>2026-04-26T08:15:40.275Z</time></trkpt><trkpt lat="43.6186633" lon="13.2728083"><ele>45.400000000000006</ele><time>2026-04-26T08:15:42.275Z</time></trkpt><trkpt lat="43.6187367" lon="13.2726867"><ele>44.599999999999994</ele><time>2026-04-26T08:15:44.275Z</time></trkpt><trkpt lat="43.6187767" lon="13.2726033"><ele>43.8</ele><time>2026-04-26T08:15:45.275Z</time></trkpt><trkpt lat="43.61882" lon="13.2725083"><ele>43.0</ele><time>2026-04-26T08:15:46.275Z</time></trkpt><trkpt lat="43.6188667" lon="13.27241"><ele>43.0</ele><time>2026-04-26T08:15:47.275Z</time></trkpt><trkpt lat="43.6189117" lon="13.272315"><ele>43.0</ele><time>2026-04-26T08:15:48.275Z</time></trkpt><trkpt lat="43.61895" lon="13.2722117"><ele>43.0</ele><time>2026-04-26T08:15:49.275Z</time></trkpt><trkpt lat="43.6189933" lon="13.2721017"><ele>43.0</ele><time>2026-04-26T08:15:50.275Z</time></trkpt><trkpt lat="43.6190367" lon="13.2719783"><ele>43.0</ele><time>2026-04-26T08:15:51.275Z</time></trkpt><trkpt lat="43.61909" lon="13.2718383"><ele>43.599999999999994</ele><time>2026-04-26T08:15:52.275Z</time></trkpt><trkpt lat="43.6191333" lon="13.2716883"><ele>44.199999999999996</ele><time>2026-04-26T08:15:53.275Z</time></trkpt><trkpt lat="43.6191867" lon="13.271565"><ele>44.8</ele><time>2026-04-26T08:15:54.275Z</time></trkpt><trkpt lat="43.6192317" lon="13.2714383"><ele>45.4</ele><time>2026-04-26T08:15:55.275Z</time></trkpt><trkpt lat="43.6192467" lon="13.2713333"><ele>46.0</ele><time>2026-04-26T08:15:56.275Z</time></trkpt><trkpt lat="43.61934" lon="13.2712083"><ele>46.5</ele><time>2026-04-26T08:15:57.275Z</time></trkpt><trkpt lat="43.619435" lon="13.2710833"><ele>47.0</ele><time>2026-04-26T08:15:58.275Z</time></trkpt><trkpt lat="43.61952" lon="13.2709717"><ele>47.5</ele><time>2026-04-26T08:15:59.275Z</time></trkpt><trkpt lat="43.6195917" lon="13.27086"><ele>48.0</ele><time>2026-04-26T08:16:00.275Z</time></trkpt><trkpt lat="43.6196667" lon="13.27074"><ele>47.0</ele><time>2026-04-26T08:16:01.275Z</time></trkpt><trkpt lat="43.61974" lon="13.2706133"><ele>46.0</ele><time>2026-04-26T08:16:02.275Z</time></trkpt><trkpt lat="43.6198133" lon="13.2704933"><ele>45.0</ele><time>2026-04-26T08:16:03.275Z</time></trkpt><trkpt lat="43.61989" lon="13.270355"><ele>44.0</ele><time>2026-04-26T08:16:04.275Z</time></trkpt><trkpt lat="43.61996" lon="13.270215"><ele>44.0</ele><time>2026-04-26T08:16:05.276Z</time></trkpt><trkpt lat="43.620035" lon="13.2700783"><ele>44.0</ele><time>2026-04-26T08:16:06.276Z</time></trkpt><trkpt lat="43.620105" lon="13.26992"><ele>44.0</ele><time>2026-04-26T08:16:07.275Z</time></trkpt><trkpt lat="43.62018" lon="13.26977"><ele>44.0</ele><time>2026-04-26T08:16:08.275Z</time></trkpt><trkpt lat="43.6202533" lon="13.269615"><ele>43.75</ele><time>2026-04-26T08:16:09.275Z</time></trkpt><trkpt lat="43.6203217" lon="13.2694583"><ele>43.5</ele><time>2026-04-26T08:16:10.275Z</time></trkpt><trkpt lat="43.6203917" lon="13.2693083"><ele>43.25</ele><time>2026-04-26T08:16:11.275Z</time></trkpt><trkpt lat="43.62046" lon="13.2691567"><ele>43.0</ele><time>2026-04-26T08:16:12.275Z</time></trkpt><trkpt lat="43.6205217" lon="13.26902"><ele>43.2</ele><time>2026-04-26T08:16:13.275Z</time></trkpt><trkpt lat="43.6205717" lon="13.2688967"><ele>43.4</ele><time>2026-04-26T08:16:14.276Z</time></trkpt><trkpt lat="43.6206217" lon="13.2687883"><ele>43.6</ele><time>2026-04-26T08:16:15.275Z</time></trkpt><trkpt lat="43.6206683" lon="13.26868"><ele>43.800000000000004</ele><time>2026-04-26T08:16:16.275Z</time></trkpt><trkpt lat="43.6207283" lon="13.2685617"><ele>44.0</ele><time>2026-04-26T08:16:17.275Z</time></trkpt><trkpt lat="43.6208083" lon="13.26845"><ele>44.0</ele><time>2026-04-26T08:16:18.275Z</time></trkpt><trkpt lat="43.6209017" lon="13.2683467"><ele>44.0</ele><time>2026-04-26T08:16:19.275Z</time></trkpt><trkpt lat="43.6209983" lon="13.2682483"><ele>44.0</ele><time>2026-04-26T08:16:20.275Z</time></trkpt><trkpt lat="43.621095" lon="13.268155"><ele>44.0</ele><time>2026-04-26T08:16:21.275Z</time></trkpt><trkpt lat="43.62117" lon="13.2680717"><ele>43.800000000000004</ele><time>2026-04-26T08:16:22.275Z</time></trkpt><trkpt lat="43.6212317" lon="13.2680033"><ele>43.6</ele><time>2026-04-26T08:16:23.275Z</time></trkpt><trkpt lat="43.6212833" lon="13.2679333"><ele>43.4</ele><time>2026-04-26T08:16:24.275Z</time></trkpt><trkpt lat="43.6213633" lon="13.26782"><ele>43.2</ele><time>2026-04-26T08:16:26.275Z</time></trkpt><trkpt lat="43.621435" lon="13.2677317"><ele>43.0</ele><time>2026-04-26T08:16:28.275Z</time></trkpt><trkpt lat="43.62154" lon="13.2676767"><ele>43.0</ele><time>2026-04-26T08:16:30.275Z</time></trkpt><trkpt lat="43.6216067" lon="13.2676717"><ele>43.0</ele><time>2026-04-26T08:16:31.275Z</time></trkpt><trkpt lat="43.62167" lon="13.267675"><ele>43.0</ele><time>2026-04-26T08:16:32.275Z</time></trkpt><trkpt lat="43.621745" lon="13.26768"><ele>43.0</ele><time>2026-04-26T08:16:33.275Z</time></trkpt><trkpt lat="43.62181" lon="13.26767"><ele>43.0</ele><time>2026-04-26T08:16:34.275Z</time></trkpt><trkpt lat="43.621905" lon="13.2675633"><ele>43.0</ele><time>2026-04-26T08:16:36.275Z</time></trkpt><trkpt lat="43.6219583" lon="13.2674817"><ele>43.2</ele><time>2026-04-26T08:16:37.275Z</time></trkpt><trkpt lat="43.6219933" lon="13.26737"><ele>43.4</ele><time>2026-04-26T08:16:38.275Z</time></trkpt><trkpt lat="43.622025" lon="13.2672433"><ele>43.6</ele><time>2026-04-26T08:16:39.275Z</time></trkpt><trkpt lat="43.622055" lon="13.2671233"><ele>43.800000000000004</ele><time>2026-04-26T08:16:40.275Z</time></trkpt><trkpt lat="43.62209" lon="13.2670133"><ele>44.0</ele><time>2026-04-26T08:16:41.275Z</time></trkpt><trkpt lat="43.6221417" lon="13.2669117"><ele>44.0</ele><time>2026-04-26T08:16:42.275Z</time></trkpt><trkpt lat="43.622205" lon="13.26683"><ele>44.0</ele><time>2026-04-26T08:16:43.276Z</time></trkpt><trkpt lat="43.6222783" lon="13.2667583"><ele>44.0</ele><time>2026-04-26T08:16:44.275Z</time></trkpt><trkpt lat="43.6223467" lon="13.26669"><ele>44.0</ele><time>2026-04-26T08:16:45.275Z</time></trkpt><trkpt lat="43.6224033" lon="13.26663"><ele>44.0</ele><time>2026-04-26T08:16:46.275Z</time></trkpt><trkpt lat="43.6224983" lon="13.2665383"><ele>44.0</ele><time>2026-04-26T08:16:48.275Z</time></trkpt><trkpt lat="43.622575" lon="13.2664767"><ele>43.85714285714286</ele><time>2026-04-26T08:16:50.275Z</time></trkpt><trkpt lat="43.62263" lon="13.2664217"><ele>43.714285714285715</ele><time>2026-04-26T08:16:53.275Z</time></trkpt><trkpt lat="43.62261" lon="13.26631"><ele>43.57142857142857</ele><time>2026-04-26T08:16:56.275Z</time></trkpt><trkpt lat="43.622565" lon="13.2662467"><ele>43.42857142857143</ele><time>2026-04-26T08:16:58.275Z</time></trkpt><trkpt lat="43.62252" lon="13.2661617"><ele>43.285714285714285</ele><time>2026-04-26T08:17:04.275Z</time></trkpt><trkpt lat="43.6224833" lon="13.2660833"><ele>43.142857142857146</ele><time>2026-04-26T08:17:11.275Z</time></trkpt><trkpt lat="43.6224383" lon="13.265995"><ele>43.0</ele><time>2026-04-26T08:17:13.275Z</time></trkpt><trkpt lat="43.6223817" lon="13.265875"><ele>43.0</ele><time>2026-04-26T08:17:15.276Z</time></trkpt><trkpt lat="43.62232" lon="13.265745"><ele>43.0</ele><time>2026-04-26T08:18:59.275Z</time></trkpt><trkpt lat="43.62228" lon="13.2656117"><ele>43.0</ele><time>2026-04-26T08:19:20.275Z</time></trkpt><trkpt lat="43.6222083" lon="13.2654783"><ele>43.0</ele><time>2026-04-26T08:19:22.275Z</time></trkpt><trkpt lat="43.6221733" lon="13.2654017"><ele>43.0</ele><time>2026-04-26T08:19:23.275Z</time></trkpt><trkpt lat="43.6221367" lon="13.265325"><ele>43.5</ele><time>2026-04-26T08:19:24.275Z</time></trkpt><trkpt lat="43.6220967" lon="13.26525"><ele>44.0</ele><time>2026-04-26T08:19:25.275Z</time></trkpt><trkpt lat="43.6220633" lon="13.2651717"><ele>44.5</ele><time>2026-04-26T08:19:26.275Z</time></trkpt><trkpt lat="43.6220283" lon="13.2650983"><ele>45.0</ele><time>2026-04-26T08:19:27.275Z</time></trkpt><trkpt lat="43.6219717" lon="13.264965"><ele>45.5</ele><time>2026-04-26T08:19:29.276Z</time></trkpt><trkpt lat="43.6219217" lon="13.2648667"><ele>46.0</ele><time>2026-04-26T08:19:31.275Z</time></trkpt><trkpt lat="43.62187" lon="13.264765"><ele>47.833333333333336</ele><time>2026-04-26T08:19:33.275Z</time></trkpt><trkpt lat="43.6218367" lon="13.2646883"><ele>49.66666666666667</ele><time>2026-04-26T08:19:35.275Z</time></trkpt><trkpt lat="43.6217883" lon="13.2645833"><ele>51.5</ele><time>2026-04-26T08:19:38.275Z</time></trkpt><trkpt lat="43.62174" lon="13.2644667"><ele>53.333333333333336</ele><time>2026-04-26T08:20:30.275Z</time></trkpt><trkpt lat="43.6216917" lon="13.2643817"><ele>55.166666666666664</ele><time>2026-04-26T08:20:39.275Z</time></trkpt><trkpt lat="43.6216283" lon="13.2642767"><ele>57.0</ele><time>2026-04-26T08:20:41.275Z</time></trkpt><trkpt lat="43.62157" lon="13.2641483"><ele>57.0</ele><time>2026-04-26T08:20:43.275Z</time></trkpt><trkpt lat="43.6215317" lon="13.2640783"><ele>57.0</ele><time>2026-04-26T08:20:44.275Z</time></trkpt><trkpt lat="43.6214967" lon="13.2640033"><ele>57.0</ele><time>2026-04-26T08:20:45.275Z</time></trkpt><trkpt lat="43.6214633" lon="13.2639267"><ele>57.0</ele><time>2026-04-26T08:20:46.276Z</time></trkpt><trkpt lat="43.6214083" lon="13.263805"><ele>57.0</ele><time>2026-04-26T08:20:48.275Z</time></trkpt><trkpt lat="43.6213667" lon="13.263695"><ele>57.0</ele><time>2026-04-26T08:20:51.275Z</time></trkpt><trkpt lat="43.62134" lon="13.263615"><ele>58.8</ele><time>2026-04-26T08:20:53.275Z</time></trkpt><trkpt lat="43.6213183" lon="13.2635233"><ele>60.6</ele><time>2026-04-26T08:20:55.275Z</time></trkpt><trkpt lat="43.62131" lon="13.263415"><ele>62.39999999999999</ele><time>2026-04-26T08:20:57.275Z</time></trkpt><trkpt lat="43.6213367" lon="13.2632983"><ele>64.2</ele><time>2026-04-26T08:20:59.275Z</time></trkpt><trkpt lat="43.6213917" lon="13.2631717"><ele>66.0</ele><time>2026-04-26T08:21:01.275Z</time></trkpt><trkpt lat="43.62147" lon="13.2630533"><ele>67.16666666666667</ele><time>2026-04-26T08:21:03.275Z</time></trkpt><trkpt lat="43.6215067" lon="13.2629783"><ele>68.33333333333333</ele><time>2026-04-26T08:21:04.275Z</time></trkpt><trkpt lat="43.62158" lon="13.262865"><ele>69.5</ele><time>2026-04-26T08:21:06.275Z</time></trkpt><trkpt lat="43.6216533" lon="13.2627367"><ele>70.66666666666666</ele><time>2026-04-26T08:21:08.275Z</time></trkpt><trkpt lat="43.62169" lon="13.2626567"><ele>71.83333333333333</ele><time>2026-04-26T08:21:09.275Z</time></trkpt><trkpt lat="43.6217367" lon="13.262565"><ele>73.0</ele><time>2026-04-26T08:21:10.275Z</time></trkpt><trkpt lat="43.6217833" lon="13.2624667"><ele>73.0</ele><time>2026-04-26T08:21:11.275Z</time></trkpt><trkpt lat="43.6218217" lon="13.2623883"><ele>73.0</ele><time>2026-04-26T08:21:12.275Z</time></trkpt><trkpt lat="43.62187" lon="13.262265"><ele>73.0</ele><time>2026-04-26T08:21:14.276Z</time></trkpt><trkpt lat="43.621875" lon="13.2621633"><ele>73.0</ele><time>2026-04-26T08:21:16.275Z</time></trkpt><trkpt lat="43.6218267" lon="13.262035"><ele>73.0</ele><time>2026-04-26T08:21:18.275Z</time></trkpt><trkpt lat="43.6217717" lon="13.261875"><ele>74.66666666666666</ele><time>2026-04-26T08:21:20.275Z</time></trkpt><trkpt lat="43.62175" lon="13.2617883"><ele>76.33333333333333</ele><time>2026-04-26T08:21:21.275Z</time></trkpt><trkpt lat="43.6217383" lon="13.2616883"><ele>78.0</ele><time>2026-04-26T08:21:22.275Z</time></trkpt><trkpt lat="43.6217367" lon="13.2615783"><ele>79.66666666666667</ele><time>2026-04-26T08:21:23.275Z</time></trkpt><trkpt lat="43.6217483" lon="13.2614767"><ele>81.33333333333334</ele><time>2026-04-26T08:21:24.275Z</time></trkpt><trkpt lat="43.6217717" lon="13.2613733"><ele>83.0</ele><time>2026-04-26T08:21:25.276Z</time></trkpt><trkpt lat="43.6218067" lon="13.2612733"><ele>83.42857142857143</ele><time>2026-04-26T08:21:26.275Z</time></trkpt><trkpt lat="43.62184" lon="13.2611783"><ele>83.85714285714286</ele><time>2026-04-26T08:21:27.275Z</time></trkpt><trkpt lat="43.621875" lon="13.261085"><ele>84.28571428571429</ele><time>2026-04-26T08:21:28.276Z</time></trkpt><trkpt lat="43.621905" lon="13.2610017"><ele>84.71428571428572</ele><time>2026-04-26T08:21:29.275Z</time></trkpt><trkpt lat="43.6219317" lon="13.2609183"><ele>85.14285714285714</ele><time>2026-04-26T08:21:30.275Z</time></trkpt><trkpt lat="43.6219667" lon="13.2608417"><ele>85.57142857142858</ele><time>2026-04-26T08:21:31.276Z</time></trkpt><trkpt lat="43.6219967" lon="13.2607583"><ele>86.0</ele><time>2026-04-26T08:21:32.275Z</time></trkpt><trkpt lat="43.6220383" lon="13.260675"><ele>87.14285714285715</ele><time>2026-04-26T08:21:33.275Z</time></trkpt><trkpt lat="43.62208" lon="13.2605817"><ele>88.28571428571429</ele><time>2026-04-26T08:21:34.275Z</time></trkpt><trkpt lat="43.622105" lon="13.2604833"><ele>89.42857142857143</ele><time>2026-04-26T08:21:35.275Z</time></trkpt><trkpt lat="43.6221267" lon="13.2603933"><ele>90.57142857142858</ele><time>2026-04-26T08:21:36.276Z</time></trkpt><trkpt lat="43.6221417" lon="13.2602967"><ele>91.71428571428571</ele><time>2026-04-26T08:21:37.275Z</time></trkpt><trkpt lat="43.622145" lon="13.2602"><ele>92.85714285714286</ele><time>2026-04-26T08:21:38.275Z</time></trkpt><trkpt lat="43.62214" lon="13.2601"><ele>94.0</ele><time>2026-04-26T08:21:39.275Z</time></trkpt><trkpt lat="43.6221283" lon="13.2599867"><ele>94.0</ele><time>2026-04-26T08:21:40.276Z</time></trkpt><trkpt lat="43.622105" lon="13.2598683"><ele>94.0</ele><time>2026-04-26T08:21:41.275Z</time></trkpt><trkpt lat="43.6220733" lon="13.25975"><ele>94.0</ele><time>2026-04-26T08:21:42.275Z</time></trkpt><trkpt lat="43.6220383" lon="13.2596367"><ele>94.0</ele><time>2026-04-26T08:21:43.275Z</time></trkpt><trkpt lat="43.6220083" lon="13.2595433"><ele>94.0</ele><time>2026-04-26T08:21:44.276Z</time></trkpt><trkpt lat="43.6219733" lon="13.2594083"><ele>94.0</ele><time>2026-04-26T08:21:46.275Z</time></trkpt><trkpt lat="43.6220133" lon="13.2593"><ele>95.14285714285714</ele><time>2026-04-26T08:21:48.275Z</time></trkpt><trkpt lat="43.6220617" lon="13.25924"><ele>96.28571428571428</ele><time>2026-04-26T08:21:49.275Z</time></trkpt><trkpt lat="43.6221183" lon="13.2592017"><ele>97.42857142857143</ele><time>2026-04-26T08:21:50.275Z</time></trkpt><trkpt lat="43.622175" lon="13.2591583"><ele>98.57142857142857</ele><time>2026-04-26T08:21:51.275Z</time></trkpt><trkpt lat="43.6222317" lon="13.25911"><ele>99.71428571428572</ele><time>2026-04-26T08:21:52.275Z</time></trkpt><trkpt lat="43.6222833" lon="13.2590583"><ele>100.85714285714286</ele><time>2026-04-26T08:21:53.275Z</time></trkpt><trkpt lat="43.6223367" lon="13.2589983"><ele>102.0</ele><time>2026-04-26T08:21:54.275Z</time></trkpt><trkpt lat="43.6223867" lon="13.2589317"><ele>103.71428571428572</ele><time>2026-04-26T08:21:55.275Z</time></trkpt><trkpt lat="43.6224333" lon="13.2588683"><ele>105.42857142857143</ele><time>2026-04-26T08:21:56.275Z</time></trkpt><trkpt lat="43.6224817" lon="13.2587967"><ele>107.14285714285714</ele><time>2026-04-26T08:21:57.275Z</time></trkpt><trkpt lat="43.622525" lon="13.2587167"><ele>108.85714285714286</ele><time>2026-04-26T08:21:58.275Z</time></trkpt><trkpt lat="43.6225617" lon="13.258615"><ele>110.57142857142856</ele><time>2026-04-26T08:21:59.275Z</time></trkpt><trkpt lat="43.622615" lon="13.258525"><ele>112.28571428571428</ele><time>2026-04-26T08:22:00.275Z</time></trkpt><trkpt lat="43.6226617" lon="13.2584467"><ele>114.0</ele><time>2026-04-26T08:22:01.275Z</time></trkpt><trkpt lat="43.6227033" lon="13.258345"><ele>114.0</ele><time>2026-04-26T08:22:02.276Z</time></trkpt><trkpt lat="43.6227283" lon="13.25823"><ele>114.0</ele><time>2026-04-26T08:22:03.275Z</time></trkpt><trkpt lat="43.6227733" lon="13.2581217"><ele>114.0</ele><time>2026-04-26T08:22:04.275Z</time></trkpt><trkpt lat="43.62281" lon="13.258015"><ele>114.0</ele><time>2026-04-26T08:22:05.275Z</time></trkpt><trkpt lat="43.622845" lon="13.25792"><ele>114.0</ele><time>2026-04-26T08:22:06.276Z</time></trkpt><trkpt lat="43.622875" lon="13.257825"><ele>114.0</ele><time>2026-04-26T08:22:07.275Z</time></trkpt><trkpt lat="43.6229117" lon="13.2577233"><ele>114.33333333333333</ele><time>2026-04-26T08:22:08.275Z</time></trkpt><trkpt lat="43.6229517" lon="13.2576183"><ele>114.66666666666666</ele><time>2026-04-26T08:22:09.275Z</time></trkpt><trkpt lat="43.6229833" lon="13.2575033"><ele>115.0</ele><time>2026-04-26T08:22:10.276Z</time></trkpt><trkpt lat="43.6230083" lon="13.2573933"><ele>115.33333333333333</ele><time>2026-04-26T08:22:11.275Z</time></trkpt><trkpt lat="43.6230133" lon="13.2572883"><ele>115.66666666666666</ele><time>2026-04-26T08:22:12.275Z</time></trkpt><trkpt lat="43.623025" lon="13.2571817"><ele>116.0</ele><time>2026-04-26T08:22:13.276Z</time></trkpt><trkpt lat="43.62305" lon="13.2570883"><ele>115.99999999999999</ele><time>2026-04-26T08:22:14.275Z</time></trkpt><trkpt lat="43.6230717" lon="13.2569983"><ele>116.0</ele><time>2026-04-26T08:22:15.275Z</time></trkpt><trkpt lat="43.62311" lon="13.2569183"><ele>116.0</ele><time>2026-04-26T08:22:16.275Z</time></trkpt><trkpt lat="43.6231533" lon="13.25685"><ele>116.0</ele><time>2026-04-26T08:22:17.275Z</time></trkpt><trkpt lat="43.6232167" lon="13.256705"><ele>115.99999999999999</ele><time>2026-04-26T08:22:19.275Z</time></trkpt><trkpt lat="43.6232583" lon="13.2565933"><ele>116.0</ele><time>2026-04-26T08:22:21.274Z</time></trkpt><trkpt lat="43.62324" lon="13.25648"><ele>117.19999999999999</ele><time>2026-04-26T08:22:24.274Z</time></trkpt><trkpt lat="43.6231667" lon="13.2564133"><ele>118.39999999999999</ele><time>2026-04-26T08:22:26.274Z</time></trkpt><trkpt lat="43.6231017" lon="13.2563833"><ele>119.6</ele><time>2026-04-26T08:22:27.274Z</time></trkpt><trkpt lat="43.62302" lon="13.256355"><ele>120.8</ele><time>2026-04-26T08:22:28.274Z</time></trkpt><trkpt lat="43.622915" lon="13.2563167"><ele>122.0</ele><time>2026-04-26T08:22:29.274Z</time></trkpt><trkpt lat="43.6228133" lon="13.2562633"><ele>122.0</ele><time>2026-04-26T08:22:30.274Z</time></trkpt><trkpt lat="43.6227033" lon="13.2561833"><ele>121.99999999999999</ele><time>2026-04-26T08:22:31.274Z</time></trkpt><trkpt lat="43.62261" lon="13.2561067"><ele>121.99999999999999</ele><time>2026-04-26T08:22:32.274Z</time></trkpt><trkpt lat="43.6225383" lon="13.256025"><ele>122.0</ele><time>2026-04-26T08:22:33.274Z</time></trkpt><trkpt lat="43.6224783" lon="13.2559233"><ele>122.0</ele><time>2026-04-26T08:22:34.274Z</time></trkpt><trkpt lat="43.62244" lon="13.2558067"><ele>122.0</ele><time>2026-04-26T08:22:35.274Z</time></trkpt><trkpt lat="43.62241" lon="13.2556783"><ele>122.0</ele><time>2026-04-26T08:22:36.274Z</time></trkpt><trkpt lat="43.6223833" lon="13.2555233"><ele>122.0</ele><time>2026-04-26T08:22:37.274Z</time></trkpt><trkpt lat="43.62235" lon="13.2553533"><ele>122.0</ele><time>2026-04-26T08:22:38.274Z</time></trkpt><trkpt lat="43.6223317" lon="13.255175"><ele>121.6</ele><time>2026-04-26T08:22:39.274Z</time></trkpt><trkpt lat="43.6223117" lon="13.2550233"><ele>121.19999999999999</ele><time>2026-04-26T08:22:40.274Z</time></trkpt><trkpt lat="43.6222917" lon="13.2548883"><ele>120.8</ele><time>2026-04-26T08:22:41.275Z</time></trkpt><trkpt lat="43.622255" lon="13.25474"><ele>120.4</ele><time>2026-04-26T08:22:42.274Z</time></trkpt><trkpt lat="43.6222133" lon="13.2545883"><ele>120.0</ele><time>2026-04-26T08:22:43.274Z</time></trkpt><trkpt lat="43.62217" lon="13.25444"><ele>119.75</ele><time>2026-04-26T08:22:44.274Z</time></trkpt><trkpt lat="43.6221217" lon="13.25429"><ele>119.5</ele><time>2026-04-26T08:22:45.274Z</time></trkpt><trkpt lat="43.62208" lon="13.2541283"><ele>119.25</ele><time>2026-04-26T08:22:46.274Z</time></trkpt><trkpt lat="43.6220417" lon="13.2539717"><ele>119.0</ele><time>2026-04-26T08:22:47.274Z</time></trkpt><trkpt lat="43.6220017" lon="13.2538233"><ele>123.0</ele><time>2026-04-26T08:22:48.274Z</time></trkpt><trkpt lat="43.6219667" lon="13.2536783"><ele>127.0</ele><time>2026-04-26T08:22:49.275Z</time></trkpt><trkpt lat="43.6219333" lon="13.25353"><ele>131.0</ele><time>2026-04-26T08:22:50.274Z</time></trkpt><trkpt lat="43.621895" lon="13.253395"><ele>135.0</ele><time>2026-04-26T08:22:51.274Z</time></trkpt><trkpt lat="43.621865" lon="13.253255"><ele>139.0</ele><time>2026-04-26T08:22:52.274Z</time></trkpt><trkpt lat="43.6218367" lon="13.2531017"><ele>139.0</ele><time>2026-04-26T08:22:53.274Z</time></trkpt><trkpt lat="43.6218117" lon="13.2529533"><ele>139.0</ele><time>2026-04-26T08:22:54.274Z</time></trkpt><trkpt lat="43.6217933" lon="13.2528067"><ele>139.0</ele><time>2026-04-26T08:22:55.274Z</time></trkpt><trkpt lat="43.621775" lon="13.2526783"><ele>139.0</ele><time>2026-04-26T08:22:56.274Z</time></trkpt><trkpt lat="43.6217533" lon="13.2525633"><ele>139.0</ele><time>2026-04-26T08:22:57.275Z</time></trkpt><trkpt lat="43.6217283" lon="13.25248"><ele>139.0</ele><time>2026-04-26T08:22:58.274Z</time></trkpt><trkpt lat="43.6216817" lon="13.2523517"><ele>139.0</ele><time>2026-04-26T08:23:00.274Z</time></trkpt><trkpt lat="43.621635" lon="13.2522567"><ele>139.0</ele><time>2026-04-26T08:23:02.275Z</time></trkpt><trkpt lat="43.621655" lon="13.2521367"><ele>139.0</ele><time>2026-04-26T08:23:04.274Z</time></trkpt><trkpt lat="43.6216883" lon="13.2520617"><ele>139.0</ele><time>2026-04-26T08:23:05.274Z</time></trkpt><trkpt lat="43.6217283" lon="13.2519717"><ele>139.0</ele><time>2026-04-26T08:23:06.274Z</time></trkpt><trkpt lat="43.6217717" lon="13.251875"><ele>139.0</ele><time>2026-04-26T08:23:07.274Z</time></trkpt><trkpt lat="43.621815" lon="13.251785"><ele>139.0</ele><time>2026-04-26T08:23:08.274Z</time></trkpt><trkpt lat="43.6218933" lon="13.2516883"><ele>139.0</ele><time>2026-04-26T08:23:10.274Z</time></trkpt><trkpt lat="43.6220017" lon="13.2516583"><ele>139.0</ele><time>2026-04-26T08:23:12.274Z</time></trkpt><trkpt lat="43.622105" lon="13.251565"><ele>139.0</ele><time>2026-04-26T08:23:14.274Z</time></trkpt><trkpt lat="43.6221533" lon="13.2514817"><ele>138.4</ele><time>2026-04-26T08:23:15.274Z</time></trkpt><trkpt lat="43.6221983" lon="13.2513817"><ele>137.8</ele><time>2026-04-26T08:23:16.274Z</time></trkpt><trkpt lat="43.622255" lon="13.251275"><ele>137.2</ele><time>2026-04-26T08:23:17.274Z</time></trkpt><trkpt lat="43.6223217" lon="13.2511833"><ele>136.6</ele><time>2026-04-26T08:23:18.274Z</time></trkpt><trkpt lat="43.6224" lon="13.251125"><ele>136.0</ele><time>2026-04-26T08:23:19.274Z</time></trkpt><trkpt lat="43.6224833" lon="13.25109"><ele>136.0</ele><time>2026-04-26T08:23:20.275Z</time></trkpt><trkpt lat="43.6225667" lon="13.2510533"><ele>136.0</ele><time>2026-04-26T08:23:21.274Z</time></trkpt><trkpt lat="43.6226367" lon="13.2510117"><ele>136.0</ele><time>2026-04-26T08:23:22.274Z</time></trkpt><trkpt lat="43.6226983" lon="13.2509633"><ele>136.0</ele><time>2026-04-26T08:23:23.274Z</time></trkpt><trkpt lat="43.6227567" lon="13.2508917"><ele>136.0</ele><time>2026-04-26T08:23:24.274Z</time></trkpt><trkpt lat="43.6228117" lon="13.2507967"><ele>136.0</ele><time>2026-04-26T08:23:25.275Z</time></trkpt><trkpt lat="43.6228683" lon="13.250675"><ele>134.5</ele><time>2026-04-26T08:23:26.274Z</time></trkpt><trkpt lat="43.6229183" lon="13.2505533"><ele>133.0</ele><time>2026-04-26T08:23:27.274Z</time></trkpt><trkpt lat="43.62296" lon="13.2504417"><ele>131.5</ele><time>2026-04-26T08:23:28.274Z</time></trkpt><trkpt lat="43.6229917" lon="13.2503383"><ele>130.0</ele><time>2026-04-26T08:23:29.274Z</time></trkpt><trkpt lat="43.623025" lon="13.2502517"><ele>128.5</ele><time>2026-04-26T08:23:30.274Z</time></trkpt><trkpt lat="43.6230617" lon="13.2501733"><ele>127.0</ele><time>2026-04-26T08:23:31.274Z</time></trkpt><trkpt lat="43.6231017" lon="13.2500917"><ele>127.0</ele><time>2026-04-26T08:23:32.274Z</time></trkpt><trkpt lat="43.6231433" lon="13.25001"><ele>126.99999999999999</ele><time>2026-04-26T08:23:33.274Z</time></trkpt><trkpt lat="43.6231983" lon="13.2499333"><ele>126.99999999999999</ele><time>2026-04-26T08:23:34.274Z</time></trkpt><trkpt lat="43.6232767" lon="13.24987"><ele>127.0</ele><time>2026-04-26T08:23:35.274Z</time></trkpt><trkpt lat="43.62337" lon="13.24982"><ele>127.0</ele><time>2026-04-26T08:23:36.274Z</time></trkpt><trkpt lat="43.6234833" lon="13.2497617"><ele>127.25</ele><time>2026-04-26T08:23:37.274Z</time></trkpt><trkpt lat="43.623595" lon="13.2497017"><ele>127.5</ele><time>2026-04-26T08:23:38.274Z</time></trkpt><trkpt lat="43.6236983" lon="13.24964"><ele>127.75</ele><time>2026-04-26T08:23:39.274Z</time></trkpt><trkpt lat="43.6238133" lon="13.2495883"><ele>128.0</ele><time>2026-04-26T08:23:40.274Z</time></trkpt><trkpt lat="43.6239317" lon="13.2495333"><ele>128.0</ele><time>2026-04-26T08:23:41.274Z</time></trkpt><trkpt lat="43.624065" lon="13.2494633"><ele>128.0</ele><time>2026-04-26T08:23:42.274Z</time></trkpt><trkpt lat="43.6242117" lon="13.2493967"><ele>128.0</ele><time>2026-04-26T08:23:43.274Z</time></trkpt><trkpt lat="43.6243717" lon="13.2493317"><ele>127.75</ele><time>2026-04-26T08:23:44.274Z</time></trkpt><trkpt lat="43.6245217" lon="13.249275"><ele>127.5</ele><time>2026-04-26T08:23:45.274Z</time></trkpt><trkpt lat="43.6246533" lon="13.249215"><ele>127.25</ele><time>2026-04-26T08:23:46.274Z</time></trkpt><trkpt lat="43.6247767" lon="13.24916"><ele>127.0</ele><time>2026-04-26T08:23:47.275Z</time></trkpt><trkpt lat="43.6248833" lon="13.24911"><ele>127.0</ele><time>2026-04-26T08:23:48.274Z</time></trkpt><trkpt lat="43.62499" lon="13.249085"><ele>126.99999999999999</ele><time>2026-04-26T08:23:49.274Z</time></trkpt><trkpt lat="43.625085" lon="13.249045"><ele>126.99999999999999</ele><time>2026-04-26T08:23:50.274Z</time></trkpt><trkpt lat="43.625175" lon="13.2490033"><ele>127.0</ele><time>2026-04-26T08:23:51.274Z</time></trkpt><trkpt lat="43.6252583" lon="13.2489733"><ele>127.0</ele><time>2026-04-26T08:23:52.275Z</time></trkpt><trkpt lat="43.62533" lon="13.2489517"><ele>126.66666666666667</ele><time>2026-04-26T08:23:53.274Z</time></trkpt><trkpt lat="43.6254367" lon="13.248875"><ele>126.33333333333334</ele><time>2026-04-26T08:23:55.275Z</time></trkpt><trkpt lat="43.6254817" lon="13.24881"><ele>126.0</ele><time>2026-04-26T08:23:56.274Z</time></trkpt><trkpt lat="43.6255183" lon="13.24873"><ele>125.66666666666666</ele><time>2026-04-26T08:23:57.274Z</time></trkpt><trkpt lat="43.62555" lon="13.2486317"><ele>125.33333333333333</ele><time>2026-04-26T08:23:58.274Z</time></trkpt><trkpt lat="43.6255633" lon="13.2485367"><ele>125.0</ele><time>2026-04-26T08:23:59.274Z</time></trkpt><trkpt lat="43.6255717" lon="13.2484417"><ele>125.0</ele><time>2026-04-26T08:24:00.274Z</time></trkpt><trkpt lat="43.6255717" lon="13.2483317"><ele>125.0</ele><time>2026-04-26T08:24:01.274Z</time></trkpt><trkpt lat="43.62556" lon="13.24823"><ele>125.0</ele><time>2026-04-26T08:24:02.274Z</time></trkpt><trkpt lat="43.625505" lon="13.2481"><ele>125.0</ele><time>2026-04-26T08:24:04.274Z</time></trkpt><trkpt lat="43.625415" lon="13.248025"><ele>125.0</ele><time>2026-04-26T08:24:06.275Z</time></trkpt><trkpt lat="43.62531" lon="13.2479517"><ele>126.2</ele><time>2026-04-26T08:24:08.274Z</time></trkpt><trkpt lat="43.625225" lon="13.247855"><ele>127.4</ele><time>2026-04-26T08:24:10.275Z</time></trkpt><trkpt lat="43.6251267" lon="13.2477517"><ele>128.6</ele><time>2026-04-26T08:24:12.274Z</time></trkpt><trkpt lat="43.625075" lon="13.2476817"><ele>129.8</ele><time>2026-04-26T08:24:13.274Z</time></trkpt><trkpt lat="43.6250317" lon="13.2475917"><ele>131.0</ele><time>2026-04-26T08:24:14.274Z</time></trkpt><trkpt lat="43.624995" lon="13.2474867"><ele>131.0</ele><time>2026-04-26T08:24:15.274Z</time></trkpt><trkpt lat="43.6249733" lon="13.2473717"><ele>131.0</ele><time>2026-04-26T08:24:16.274Z</time></trkpt><trkpt lat="43.6249633" lon="13.2472433"><ele>131.0</ele><time>2026-04-26T08:24:17.274Z</time></trkpt><trkpt lat="43.62496" lon="13.2471267"><ele>131.0</ele><time>2026-04-26T08:24:18.274Z</time></trkpt><trkpt lat="43.6249467" lon="13.247015"><ele>131.0</ele><time>2026-04-26T08:24:19.274Z</time></trkpt><trkpt lat="43.6249183" lon="13.2469033"><ele>131.0</ele><time>2026-04-26T08:24:20.274Z</time></trkpt><trkpt lat="43.6248767" lon="13.2467867"><ele>129.2</ele><time>2026-04-26T08:24:21.274Z</time></trkpt><trkpt lat="43.624825" lon="13.24667"><ele>127.39999999999999</ele><time>2026-04-26T08:24:22.274Z</time></trkpt><trkpt lat="43.6247717" lon="13.2465467"><ele>125.6</ele><time>2026-04-26T08:24:23.275Z</time></trkpt><trkpt lat="43.6247167" lon="13.2464317"><ele>123.8</ele><time>2026-04-26T08:24:24.274Z</time></trkpt><trkpt lat="43.624675" lon="13.2463083"><ele>122.0</ele><time>2026-04-26T08:24:25.274Z</time></trkpt><trkpt lat="43.6246183" lon="13.246185"><ele>121.19999999999999</ele><time>2026-04-26T08:24:26.274Z</time></trkpt><trkpt lat="43.6245633" lon="13.2460667"><ele>120.39999999999999</ele><time>2026-04-26T08:24:27.274Z</time></trkpt><trkpt lat="43.6244967" lon="13.2459433"><ele>119.60000000000001</ele><time>2026-04-26T08:24:28.274Z</time></trkpt><trkpt lat="43.62443" lon="13.2458233"><ele>118.80000000000001</ele><time>2026-04-26T08:24:29.274Z</time></trkpt><trkpt lat="43.62437" lon="13.2457233"><ele>118.0</ele><time>2026-04-26T08:24:30.274Z</time></trkpt><trkpt lat="43.6243067" lon="13.2456267"><ele>118.00000000000001</ele><time>2026-04-26T08:24:31.275Z</time></trkpt><trkpt lat="43.624245" lon="13.24553"><ele>118.0</ele><time>2026-04-26T08:24:32.274Z</time></trkpt><trkpt lat="43.624185" lon="13.245435"><ele>118.0</ele><time>2026-04-26T08:24:33.274Z</time></trkpt><trkpt lat="43.6241317" lon="13.245345"><ele>118.0</ele><time>2026-04-26T08:24:34.274Z</time></trkpt><trkpt lat="43.6240817" lon="13.2452617"><ele>118.00000000000001</ele><time>2026-04-26T08:24:35.274Z</time></trkpt><trkpt lat="43.6240383" lon="13.24518"><ele>118.0</ele><time>2026-04-26T08:24:36.274Z</time></trkpt><trkpt lat="43.623995" lon="13.2451067"><ele>118.0</ele><time>2026-04-26T08:24:37.274Z</time></trkpt><trkpt lat="43.6239383" lon="13.244995"><ele>118.00000000000001</ele><time>2026-04-26T08:24:39.274Z</time></trkpt><trkpt lat="43.623885" lon="13.2449217"><ele>118.00000000000001</ele><time>2026-04-26T08:24:42.274Z</time></trkpt><trkpt lat="43.62385" lon="13.2447933"><ele>118.0</ele><time>2026-04-26T08:25:08.274Z</time></trkpt><trkpt lat="43.62381" lon="13.2446683"><ele>118.0</ele><time>2026-04-26T08:25:10.274Z</time></trkpt><trkpt lat="43.6237367" lon="13.2445583"><ele>117.0</ele><time>2026-04-26T08:25:12.274Z</time></trkpt><trkpt lat="43.6236476" lon="13.2444922"><ele>116.00000000000001</ele><time>2026-04-26T08:25:14.274Z</time></trkpt><trkpt lat="43.6235607" lon="13.244445"><ele>115.00000000000001</ele><time>2026-04-26T08:25:16.274Z</time></trkpt><trkpt lat="43.6234817" lon="13.244395"><ele>114.0</ele><time>2026-04-26T08:25:18.274Z</time></trkpt><trkpt lat="43.6234333" lon="13.2442933"><ele>113.0</ele><time>2026-04-26T08:25:20.274Z</time></trkpt><trkpt lat="43.623375" lon="13.244185"><ele>112.99999999999999</ele><time>2026-04-26T08:25:22.274Z</time></trkpt><trkpt lat="43.623295" lon="13.2441217"><ele>113.0</ele><time>2026-04-26T08:25:24.274Z</time></trkpt><trkpt lat="43.6232317" lon="13.2440983"><ele>113.0</ele><time>2026-04-26T08:25:26.274Z</time></trkpt><trkpt lat="43.623145" lon="13.2440583"><ele>113.0</ele><time>2026-04-26T08:25:29.274Z</time></trkpt><trkpt lat="43.6230833" lon="13.24402"><ele>112.99999999999999</ele><time>2026-04-26T08:25:31.275Z</time></trkpt><trkpt lat="43.6230033" lon="13.2439683"><ele>113.0</ele><time>2026-04-26T08:25:34.274Z</time></trkpt><trkpt lat="43.6229433" lon="13.24393"><ele>111.33333333333333</ele><time>2026-04-26T08:25:36.274Z</time></trkpt><trkpt lat="43.6228633" lon="13.2438617"><ele>109.66666666666666</ele><time>2026-04-26T08:25:39.274Z</time></trkpt><trkpt lat="43.6227917" lon="13.243815"><ele>108.0</ele><time>2026-04-26T08:25:41.274Z</time></trkpt><trkpt lat="43.62271" lon="13.2437783"><ele>106.33333333333334</ele><time>2026-04-26T08:25:43.274Z</time></trkpt><trkpt lat="43.6226367" lon="13.2437417"><ele>104.66666666666667</ele><time>2026-04-26T08:25:45.274Z</time></trkpt><trkpt lat="43.6225667" lon="13.2437117"><ele>103.0</ele><time>2026-04-26T08:25:47.274Z</time></trkpt><trkpt lat="43.6225033" lon="13.2436583"><ele>102.4</ele><time>2026-04-26T08:25:49.274Z</time></trkpt><trkpt lat="43.6224533" lon="13.24358"><ele>101.80000000000001</ele><time>2026-04-26T08:25:51.274Z</time></trkpt><trkpt lat="43.622415" lon="13.2434483"><ele>101.2</ele><time>2026-04-26T08:25:53.274Z</time></trkpt><trkpt lat="43.6223933" lon="13.2432967"><ele>100.6</ele><time>2026-04-26T08:25:55.274Z</time></trkpt><trkpt lat="43.6223783" lon="13.2431617"><ele>100.0</ele><time>2026-04-26T08:25:57.274Z</time></trkpt><trkpt lat="43.62237" lon="13.2430417"><ele>98.4</ele><time>2026-04-26T08:25:59.274Z</time></trkpt><trkpt lat="43.6223533" lon="13.2429167"><ele>96.8</ele><time>2026-04-26T08:26:01.274Z</time></trkpt><trkpt lat="43.62231" lon="13.2427983"><ele>95.19999999999999</ele><time>2026-04-26T08:26:03.274Z</time></trkpt><trkpt lat="43.622235" lon="13.2427083"><ele>93.6</ele><time>2026-04-26T08:26:05.274Z</time></trkpt><trkpt lat="43.6221483" lon="13.24264"><ele>92.0</ele><time>2026-04-26T08:26:07.274Z</time></trkpt><trkpt lat="43.622065" lon="13.2425767"><ele>90.6</ele><time>2026-04-26T08:26:09.274Z</time></trkpt><trkpt lat="43.6219567" lon="13.2425033"><ele>89.19999999999999</ele><time>2026-04-26T08:26:11.274Z</time></trkpt><trkpt lat="43.6218933" lon="13.2424617"><ele>87.8</ele><time>2026-04-26T08:26:12.274Z</time></trkpt><trkpt lat="43.6218317" lon="13.2424133"><ele>86.4</ele><time>2026-04-26T08:26:13.274Z</time></trkpt><trkpt lat="43.6217733" lon="13.2423683"><ele>85.0</ele><time>2026-04-26T08:26:14.274Z</time></trkpt><trkpt lat="43.62166" lon="13.242295"><ele>83.4</ele><time>2026-04-26T08:26:16.274Z</time></trkpt><trkpt lat="43.621555" lon="13.2422283"><ele>81.8</ele><time>2026-04-26T08:26:18.275Z</time></trkpt><trkpt lat="43.6214617" lon="13.2421683"><ele>80.2</ele><time>2026-04-26T08:26:20.274Z</time></trkpt><trkpt lat="43.6213817" lon="13.2421183"><ele>78.6</ele><time>2026-04-26T08:26:22.274Z</time></trkpt><trkpt lat="43.6213226" lon="13.24207"><ele>77.0</ele><time>2026-04-26T08:26:24.274Z</time></trkpt><trkpt lat="43.6211941" lon="13.2420029"><ele>77.0</ele><time>2026-04-26T08:26:44.333Z</time></trkpt><trkpt lat="43.6211667" lon="13.2418583"><ele>77.0</ele><time>2026-04-26T08:26:54.274Z</time></trkpt><trkpt lat="43.6212083" lon="13.2417717"><ele>77.0</ele><time>2026-04-26T08:26:57.275Z</time></trkpt><trkpt lat="43.6212467" lon="13.241675"><ele>77.0</ele><time>2026-04-26T08:27:00.274Z</time></trkpt><trkpt lat="43.62122" lon="13.2414867"><ele>77.0</ele><time>2026-04-26T08:27:33.274Z</time></trkpt><trkpt lat="43.621145" lon="13.2414067"><ele>75.2</ele><time>2026-04-26T08:28:03.274Z</time></trkpt><trkpt lat="43.6210933" lon="13.2413283"><ele>73.4</ele><time>2026-04-26T08:28:10.274Z</time></trkpt><trkpt lat="43.621015" lon="13.2411617"><ele>71.6</ele><time>2026-04-26T08:28:23.274Z</time></trkpt><trkpt lat="43.6209683" lon="13.2410883"><ele>69.8</ele><time>2026-04-26T08:28:26.274Z</time></trkpt><trkpt lat="43.6209283" lon="13.2410083"><ele>68.0</ele><time>2026-04-26T08:29:46.274Z</time></trkpt><trkpt lat="43.62082" lon="13.2409767"><ele>68.0</ele><time>2026-04-26T08:30:00.273Z</time></trkpt><trkpt lat="43.62074" lon="13.240965"><ele>68.0</ele><time>2026-04-26T08:30:13.273Z</time></trkpt><trkpt lat="43.6206383" lon="13.24095"><ele>68.0</ele><time>2026-04-26T08:30:15.273Z</time></trkpt><trkpt lat="43.6205467" lon="13.2409017"><ele>68.0</ele><time>2026-04-26T08:30:17.273Z</time></trkpt><trkpt lat="43.6204367" lon="13.2408183"><ele>68.0</ele><time>2026-04-26T08:30:19.273Z</time></trkpt><trkpt lat="43.6203383" lon="13.2407233"><ele>70.0</ele><time>2026-04-26T08:30:21.273Z</time></trkpt><trkpt lat="43.62024" lon="13.240615"><ele>72.0</ele><time>2026-04-26T08:30:23.274Z</time></trkpt><trkpt lat="43.620135" lon="13.2405133"><ele>74.0</ele><time>2026-04-26T08:30:25.273Z</time></trkpt><trkpt lat="43.62008" lon="13.2404633"><ele>76.0</ele><time>2026-04-26T08:30:26.273Z</time></trkpt><trkpt lat="43.620025" lon="13.2404167"><ele>78.0</ele><time>2026-04-26T08:30:27.274Z</time></trkpt><trkpt lat="43.6199667" lon="13.2403617"><ele>78.0</ele><time>2026-04-26T08:30:28.273Z</time></trkpt><trkpt lat="43.6199117" lon="13.2403133"><ele>78.0</ele><time>2026-04-26T08:30:29.273Z</time></trkpt><trkpt lat="43.6198117" lon="13.2402217"><ele>78.0</ele><time>2026-04-26T08:30:31.273Z</time></trkpt><trkpt lat="43.6197067" lon="13.24013"><ele>78.0</ele><time>2026-04-26T08:30:33.273Z</time></trkpt><trkpt lat="43.61965" lon="13.2400883"><ele>78.0</ele><time>2026-04-26T08:30:34.273Z</time></trkpt><trkpt lat="43.6195883" lon="13.2400483"><ele>78.0</ele><time>2026-04-26T08:30:35.273Z</time></trkpt><trkpt lat="43.6195267" lon="13.24"><ele>79.66666666666667</ele><time>2026-04-26T08:30:36.273Z</time></trkpt><trkpt lat="43.61947" lon="13.2399483"><ele>81.33333333333333</ele><time>2026-04-26T08:30:37.273Z</time></trkpt><trkpt lat="43.619405" lon="13.23989"><ele>83.0</ele><time>2026-04-26T08:30:38.273Z</time></trkpt><trkpt lat="43.6193383" lon="13.2398333"><ele>84.66666666666666</ele><time>2026-04-26T08:30:39.273Z</time></trkpt><trkpt lat="43.619275" lon="13.2397783"><ele>86.33333333333333</ele><time>2026-04-26T08:30:40.273Z</time></trkpt><trkpt lat="43.6192067" lon="13.2397233"><ele>88.0</ele><time>2026-04-26T08:30:41.273Z</time></trkpt><trkpt lat="43.6191367" lon="13.2396633"><ele>89.60000000000001</ele><time>2026-04-26T08:30:42.273Z</time></trkpt><trkpt lat="43.6190767" lon="13.2396083"><ele>91.2</ele><time>2026-04-26T08:30:43.273Z</time></trkpt><trkpt lat="43.6190183" lon="13.2395583"><ele>92.8</ele><time>2026-04-26T08:30:44.273Z</time></trkpt><trkpt lat="43.6189383" lon="13.2394667"><ele>94.4</ele><time>2026-04-26T08:30:46.273Z</time></trkpt><trkpt lat="43.6188717" lon="13.2393467"><ele>96.0</ele><time>2026-04-26T08:30:48.273Z</time></trkpt><trkpt lat="43.6187783" lon="13.23924"><ele>95.99999999999999</ele><time>2026-04-26T08:30:50.273Z</time></trkpt><trkpt lat="43.6187233" lon="13.2391933"><ele>96.0</ele><time>2026-04-26T08:30:51.273Z</time></trkpt><trkpt lat="43.6186667" lon="13.2391467"><ele>96.0</ele><time>2026-04-26T08:30:52.273Z</time></trkpt><trkpt lat="43.61861" lon="13.2390867"><ele>96.0</ele><time>2026-04-26T08:30:53.273Z</time></trkpt><trkpt lat="43.6185633" lon="13.2390083"><ele>96.0</ele><time>2026-04-26T08:30:54.273Z</time></trkpt><trkpt lat="43.6185267" lon="13.2389167"><ele>95.99999999999999</ele><time>2026-04-26T08:30:55.273Z</time></trkpt><trkpt lat="43.6185" lon="13.2388167"><ele>96.0</ele><time>2026-04-26T08:30:56.273Z</time></trkpt><trkpt lat="43.6184767" lon="13.23871"><ele>98.33333333333333</ele><time>2026-04-26T08:30:57.273Z</time></trkpt><trkpt lat="43.6184567" lon="13.2386"><ele>100.66666666666666</ele><time>2026-04-26T08:30:58.273Z</time></trkpt><trkpt lat="43.6184467" lon="13.23848"><ele>103.0</ele><time>2026-04-26T08:30:59.273Z</time></trkpt><trkpt lat="43.6184308" lon="13.2383724"><ele>105.33333333333333</ele><time>2026-04-26T08:31:00.274Z</time></trkpt><trkpt lat="43.6184182" lon="13.2382517"><ele>107.66666666666666</ele><time>2026-04-26T08:31:01.273Z</time></trkpt><trkpt lat="43.6184091" lon="13.2381261"><ele>110.0</ele><time>2026-04-26T08:31:02.273Z</time></trkpt><trkpt lat="43.6183966" lon="13.2380007"><ele>110.33333333333333</ele><time>2026-04-26T08:31:03.273Z</time></trkpt><trkpt lat="43.6183848" lon="13.2378824"><ele>110.66666666666666</ele><time>2026-04-26T08:31:04.273Z</time></trkpt><trkpt lat="43.6183758" lon="13.2377772"><ele>111.0</ele><time>2026-04-26T08:31:05.273Z</time></trkpt><trkpt lat="43.6183668" lon="13.237664"><ele>111.33333333333334</ele><time>2026-04-26T08:31:06.273Z</time></trkpt><trkpt lat="43.6183502" lon="13.2375501"><ele>111.66666666666667</ele><time>2026-04-26T08:31:07.273Z</time></trkpt><trkpt lat="43.6183282" lon="13.2374328"><ele>112.0</ele><time>2026-04-26T08:31:08.274Z</time></trkpt><trkpt lat="43.6182944" lon="13.237316"><ele>112.0</ele><time>2026-04-26T08:31:09.273Z</time></trkpt><trkpt lat="43.6182561" lon="13.2371998"><ele>111.99999999999999</ele><time>2026-04-26T08:31:10.274Z</time></trkpt><trkpt lat="43.618216" lon="13.237073"><ele>111.99999999999999</ele><time>2026-04-26T08:31:11.273Z</time></trkpt><trkpt lat="43.6181721" lon="13.2369437"><ele>112.0</ele><time>2026-04-26T08:31:12.273Z</time></trkpt><trkpt lat="43.6181353" lon="13.2368125"><ele>112.0</ele><time>2026-04-26T08:31:13.273Z</time></trkpt><trkpt lat="43.6181006" lon="13.2366856"><ele>112.00000000000001</ele><time>2026-04-26T08:31:14.273Z</time></trkpt><trkpt lat="43.6180693" lon="13.2365672"><ele>112.0</ele><time>2026-04-26T08:31:15.274Z</time></trkpt><trkpt lat="43.6180378" lon="13.2364515"><ele>112.0</ele><time>2026-04-26T08:31:16.273Z</time></trkpt><trkpt lat="43.61801" lon="13.236341"><ele>112.0</ele><time>2026-04-26T08:31:17.273Z</time></trkpt><trkpt lat="43.6179815" lon="13.2362278"><ele>112.00000000000001</ele><time>2026-04-26T08:31:18.273Z</time></trkpt><trkpt lat="43.6179513" lon="13.2361151"><ele>112.0</ele><time>2026-04-26T08:31:19.274Z</time></trkpt><trkpt lat="43.6179144" lon="13.2360044"><ele>112.6</ele><time>2026-04-26T08:31:20.273Z</time></trkpt><trkpt lat="43.6178689" lon="13.2358899"><ele>113.19999999999999</ele><time>2026-04-26T08:31:21.273Z</time></trkpt><trkpt lat="43.6178216" lon="13.23577"><ele>113.8</ele><time>2026-04-26T08:31:22.273Z</time></trkpt><trkpt lat="43.6177734" lon="13.2356609"><ele>114.4</ele><time>2026-04-26T08:31:23.273Z</time></trkpt><trkpt lat="43.617719" lon="13.235546"><ele>115.0</ele><time>2026-04-26T08:31:24.273Z</time></trkpt><trkpt lat="43.6176666" lon="13.235431"><ele>118.2</ele><time>2026-04-26T08:31:25.273Z</time></trkpt><trkpt lat="43.6176137" lon="13.2353085"><ele>121.4</ele><time>2026-04-26T08:31:26.273Z</time></trkpt><trkpt lat="43.6175659" lon="13.2351843"><ele>124.6</ele><time>2026-04-26T08:31:27.273Z</time></trkpt><trkpt lat="43.6175287" lon="13.2350725"><ele>127.8</ele><time>2026-04-26T08:31:28.273Z</time></trkpt><trkpt lat="43.6174911" lon="13.23497"><ele>131.0</ele><time>2026-04-26T08:31:29.273Z</time></trkpt><trkpt lat="43.6174553" lon="13.234883"><ele>131.16666666666666</ele><time>2026-04-26T08:31:30.273Z</time></trkpt><trkpt lat="43.6174197" lon="13.2348027"><ele>131.33333333333331</ele><time>2026-04-26T08:31:31.273Z</time></trkpt><trkpt lat="43.61733" lon="13.2346817"><ele>131.5</ele><time>2026-04-26T08:31:33.273Z</time></trkpt><trkpt lat="43.6172667" lon="13.234625"><ele>131.66666666666666</ele><time>2026-04-26T08:31:34.273Z</time></trkpt><trkpt lat="43.6171917" lon="13.23457"><ele>131.83333333333334</ele><time>2026-04-26T08:31:35.273Z</time></trkpt><trkpt lat="43.61711" lon="13.2345117"><ele>132.0</ele><time>2026-04-26T08:31:36.273Z</time></trkpt><trkpt lat="43.6170333" lon="13.2344517"><ele>134.66666666666666</ele><time>2026-04-26T08:31:37.273Z</time></trkpt><trkpt lat="43.61696" lon="13.234395"><ele>137.33333333333334</ele><time>2026-04-26T08:31:38.273Z</time></trkpt><trkpt lat="43.616885" lon="13.234345"><ele>140.0</ele><time>2026-04-26T08:31:39.273Z</time></trkpt><trkpt lat="43.616805" lon="13.23429"><ele>142.66666666666669</ele><time>2026-04-26T08:31:40.273Z</time></trkpt><trkpt lat="43.61673" lon="13.23424"><ele>145.33333333333334</ele><time>2026-04-26T08:31:41.274Z</time></trkpt><trkpt lat="43.61666" lon="13.2341833"><ele>148.0</ele><time>2026-04-26T08:31:42.273Z</time></trkpt><trkpt lat="43.6165933" lon="13.2341267"><ele>148.0</ele><time>2026-04-26T08:31:43.273Z</time></trkpt><trkpt lat="43.61653" lon="13.2340717"><ele>148.0</ele><time>2026-04-26T08:31:44.273Z</time></trkpt><trkpt lat="43.6164583" lon="13.2340183"><ele>148.0</ele><time>2026-04-26T08:31:45.273Z</time></trkpt><trkpt lat="43.6163967" lon="13.233965"><ele>148.0</ele><time>2026-04-26T08:31:46.274Z</time></trkpt><trkpt lat="43.6163317" lon="13.2338833"><ele>148.0</ele><time>2026-04-26T08:31:48.273Z</time></trkpt><trkpt lat="43.616335" lon="13.23378"><ele>148.0</ele><time>2026-04-26T08:31:51.273Z</time></trkpt><trkpt lat="43.6164017" lon="13.2336683"><ele>149.16666666666669</ele><time>2026-04-26T08:31:53.273Z</time></trkpt><trkpt lat="43.6164517" lon="13.233595"><ele>150.33333333333334</ele><time>2026-04-26T08:31:54.274Z</time></trkpt><trkpt lat="43.6165067" lon="13.2335033"><ele>151.5</ele><time>2026-04-26T08:31:55.273Z</time></trkpt><trkpt lat="43.6165683" lon="13.2334083"><ele>152.66666666666666</ele><time>2026-04-26T08:31:56.273Z</time></trkpt><trkpt lat="43.6166283" lon="13.2333033"><ele>153.83333333333331</ele><time>2026-04-26T08:31:57.273Z</time></trkpt><trkpt lat="43.6166867" lon="13.2332067"><ele>155.0</ele><time>2026-04-26T08:31:58.273Z</time></trkpt><trkpt lat="43.61675" lon="13.2331217"><ele>154.4</ele><time>2026-04-26T08:31:59.273Z</time></trkpt><trkpt lat="43.61683" lon="13.2330167"><ele>153.8</ele><time>2026-04-26T08:32:00.273Z</time></trkpt><trkpt lat="43.6169167" lon="13.232925"><ele>153.2</ele><time>2026-04-26T08:32:01.273Z</time></trkpt><trkpt lat="43.617015" lon="13.23283"><ele>152.6</ele><time>2026-04-26T08:32:02.273Z</time></trkpt><trkpt lat="43.6171" lon="13.232735"><ele>152.0</ele><time>2026-04-26T08:32:03.273Z</time></trkpt><trkpt lat="43.61718" lon="13.2326483"><ele>152.0</ele><time>2026-04-26T08:32:04.273Z</time></trkpt><trkpt lat="43.617265" lon="13.232555"><ele>152.0</ele><time>2026-04-26T08:32:05.273Z</time></trkpt><trkpt lat="43.6173617" lon="13.2324533"><ele>152.0</ele><time>2026-04-26T08:32:06.273Z</time></trkpt><trkpt lat="43.6174467" lon="13.2323567"><ele>152.0</ele><time>2026-04-26T08:32:07.273Z</time></trkpt><trkpt lat="43.6175267" lon="13.2322567"><ele>152.0</ele><time>2026-04-26T08:32:08.273Z</time></trkpt><trkpt lat="43.617595" lon="13.2321567"><ele>151.6</ele><time>2026-04-26T08:32:09.273Z</time></trkpt><trkpt lat="43.6176567" lon="13.2320533"><ele>151.2</ele><time>2026-04-26T08:32:10.273Z</time></trkpt><trkpt lat="43.6177217" lon="13.2319583"><ele>150.8</ele><time>2026-04-26T08:32:11.273Z</time></trkpt><trkpt lat="43.6177833" lon="13.2318583"><ele>150.4</ele><time>2026-04-26T08:32:12.273Z</time></trkpt><trkpt lat="43.617855" lon="13.2317633"><ele>150.0</ele><time>2026-04-26T08:32:13.273Z</time></trkpt><trkpt lat="43.6179233" lon="13.2316683"><ele>150.0</ele><time>2026-04-26T08:32:14.273Z</time></trkpt><trkpt lat="43.6179883" lon="13.231585"><ele>150.0</ele><time>2026-04-26T08:32:15.273Z</time></trkpt><trkpt lat="43.6180617" lon="13.2315267"><ele>150.0</ele><time>2026-04-26T08:32:16.274Z</time></trkpt><trkpt lat="43.6181517" lon="13.2314833"><ele>150.0</ele><time>2026-04-26T08:32:17.273Z</time></trkpt><trkpt lat="43.61826" lon="13.2314617"><ele>150.0</ele><time>2026-04-26T08:32:18.273Z</time></trkpt><trkpt lat="43.61837" lon="13.2314383"><ele>151.2</ele><time>2026-04-26T08:32:19.273Z</time></trkpt><trkpt lat="43.618465" lon="13.2314183"><ele>152.4</ele><time>2026-04-26T08:32:20.273Z</time></trkpt><trkpt lat="43.618565" lon="13.2314117"><ele>153.6</ele><time>2026-04-26T08:32:21.273Z</time></trkpt><trkpt lat="43.618655" lon="13.2314167"><ele>154.8</ele><time>2026-04-26T08:32:22.273Z</time></trkpt><trkpt lat="43.6187583" lon="13.231425"><ele>156.0</ele><time>2026-04-26T08:32:23.273Z</time></trkpt><trkpt lat="43.6188683" lon="13.23145"><ele>154.2</ele><time>2026-04-26T08:32:24.273Z</time></trkpt><trkpt lat="43.6189833" lon="13.2314867"><ele>152.39999999999998</ele><time>2026-04-26T08:32:25.273Z</time></trkpt><trkpt lat="43.6190917" lon="13.2315283"><ele>150.6</ele><time>2026-04-26T08:32:26.273Z</time></trkpt><trkpt lat="43.61919" lon="13.2315717"><ele>148.79999999999998</ele><time>2026-04-26T08:32:27.273Z</time></trkpt><trkpt lat="43.6192783" lon="13.2316083"><ele>147.0</ele><time>2026-04-26T08:32:28.273Z</time></trkpt><trkpt lat="43.619355" lon="13.2316433"><ele>147.0</ele><time>2026-04-26T08:32:29.273Z</time></trkpt><trkpt lat="43.6194167" lon="13.23168"><ele>147.0</ele><time>2026-04-26T08:32:30.273Z</time></trkpt><trkpt lat="43.6194967" lon="13.2317183"><ele>147.0</ele><time>2026-04-26T08:32:32.273Z</time></trkpt><trkpt lat="43.6196" lon="13.2316983"><ele>147.0</ele><time>2026-04-26T08:38:21.272Z</time></trkpt><trkpt lat="43.6196767" lon="13.231705"><ele>147.0</ele><time>2026-04-26T08:38:22.272Z</time></trkpt><trkpt lat="43.61977" lon="13.2317183"><ele>147.0</ele><time>2026-04-26T08:38:23.272Z</time></trkpt><trkpt lat="43.6198633" lon="13.2317417"><ele>147.0</ele><time>2026-04-26T08:38:24.272Z</time></trkpt><trkpt lat="43.619945" lon="13.231745"><ele>147.0</ele><time>2026-04-26T08:38:25.272Z</time></trkpt><trkpt lat="43.6200183" lon="13.2317367"><ele>147.0</ele><time>2026-04-26T08:38:26.272Z</time></trkpt><trkpt lat="43.6201017" lon="13.2317233"><ele>147.0</ele><time>2026-04-26T08:38:27.272Z</time></trkpt><trkpt lat="43.6201933" lon="13.2317017"><ele>147.0</ele><time>2026-04-26T08:38:28.272Z</time></trkpt><trkpt lat="43.6202983" lon="13.231665"><ele>147.0</ele><time>2026-04-26T08:38:29.272Z</time></trkpt><trkpt lat="43.6204217" lon="13.2316067"><ele>147.0</ele><time>2026-04-26T08:38:30.272Z</time></trkpt><trkpt lat="43.6205467" lon="13.2315633"><ele>147.0</ele><time>2026-04-26T08:38:31.272Z</time></trkpt><trkpt lat="43.620685" lon="13.2315433"><ele>147.0</ele><time>2026-04-26T08:38:32.272Z</time></trkpt><trkpt lat="43.6208133" lon="13.231535"><ele>147.0</ele><time>2026-04-26T08:38:33.273Z</time></trkpt><trkpt lat="43.6209417" lon="13.2315383"><ele>147.0</ele><time>2026-04-26T08:38:34.272Z</time></trkpt><trkpt lat="43.621055" lon="13.231525"><ele>147.0</ele><time>2026-04-26T08:38:35.272Z</time></trkpt><trkpt lat="43.6211617" lon="13.2315083"><ele>147.0</ele><time>2026-04-26T08:38:36.272Z</time></trkpt><trkpt lat="43.6212617" lon="13.2315"><ele>147.0</ele><time>2026-04-26T08:38:37.272Z</time></trkpt><trkpt lat="43.62136" lon="13.231485"><ele>147.0</ele><time>2026-04-26T08:38:38.272Z</time></trkpt><trkpt lat="43.6214583" lon="13.2314633"><ele>148.4</ele><time>2026-04-26T08:38:39.272Z</time></trkpt><trkpt lat="43.62156" lon="13.2314283"><ele>149.79999999999998</ele><time>2026-04-26T08:38:40.272Z</time></trkpt><trkpt lat="43.6216617" lon="13.2313983"><ele>151.2</ele><time>2026-04-26T08:38:41.272Z</time></trkpt><trkpt lat="43.62175" lon="13.2313733"><ele>152.6</ele><time>2026-04-26T08:38:42.272Z</time></trkpt><trkpt lat="43.6218333" lon="13.2313517"><ele>154.0</ele><time>2026-04-26T08:38:43.272Z</time></trkpt><trkpt lat="43.6219067" lon="13.2313283"><ele>154.0</ele><time>2026-04-26T08:38:44.272Z</time></trkpt><trkpt lat="43.6219717" lon="13.2313067"><ele>154.0</ele><time>2026-04-26T08:38:45.272Z</time></trkpt><trkpt lat="43.6220867" lon="13.2312633"><ele>154.0</ele><time>2026-04-26T08:38:47.272Z</time></trkpt><trkpt lat="43.62218" lon="13.2312117"><ele>154.0</ele><time>2026-04-26T08:38:49.272Z</time></trkpt><trkpt lat="43.6222567" lon="13.2312033"><ele>154.0</ele><time>2026-04-26T08:38:51.272Z</time></trkpt><trkpt lat="43.6223433" lon="13.231195"><ele>152.4</ele><time>2026-04-26T08:38:53.272Z</time></trkpt><trkpt lat="43.62243" lon="13.231135"><ele>150.8</ele><time>2026-04-26T08:38:55.272Z</time></trkpt><trkpt lat="43.6224717" lon="13.2310133"><ele>149.2</ele><time>2026-04-26T08:38:57.272Z</time></trkpt><trkpt lat="43.6224967" lon="13.2308367"><ele>147.6</ele><time>2026-04-26T08:38:59.272Z</time></trkpt><trkpt lat="43.6225067" lon="13.2307383"><ele>146.0</ele><time>2026-04-26T08:39:00.272Z</time></trkpt><trkpt lat="43.622505" lon="13.2306267"><ele>144.8</ele><time>2026-04-26T08:39:01.272Z</time></trkpt><trkpt lat="43.622515" lon="13.2305333"><ele>143.6</ele><time>2026-04-26T08:39:02.272Z</time></trkpt><trkpt lat="43.6225167" lon="13.2304"><ele>142.4</ele><time>2026-04-26T08:39:03.272Z</time></trkpt><trkpt lat="43.622515" lon="13.23027"><ele>141.2</ele><time>2026-04-26T08:39:04.272Z</time></trkpt><trkpt lat="43.6225067" lon="13.2301117"><ele>140.0</ele><time>2026-04-26T08:39:05.272Z</time></trkpt><trkpt lat="43.6225067" lon="13.2299633"><ele>138.0</ele><time>2026-04-26T08:39:06.272Z</time></trkpt><trkpt lat="43.6225133" lon="13.229805"><ele>136.0</ele><time>2026-04-26T08:39:07.272Z</time></trkpt><trkpt lat="43.622525" lon="13.2296333"><ele>134.0</ele><time>2026-04-26T08:39:08.272Z</time></trkpt><trkpt lat="43.6225383" lon="13.2294683"><ele>132.0</ele><time>2026-04-26T08:39:09.272Z</time></trkpt><trkpt lat="43.622555" lon="13.2292867"><ele>132.0</ele><time>2026-04-26T08:39:10.272Z</time></trkpt><trkpt lat="43.62257" lon="13.2290967"><ele>132.0</ele><time>2026-04-26T08:39:11.272Z</time></trkpt><trkpt lat="43.6225967" lon="13.22891"><ele>132.0</ele><time>2026-04-26T08:39:12.272Z</time></trkpt><trkpt lat="43.6226367" lon="13.2287317"><ele>132.0</ele><time>2026-04-26T08:39:13.272Z</time></trkpt><trkpt lat="43.62269" lon="13.228565"><ele>131.4</ele><time>2026-04-26T08:39:14.272Z</time></trkpt><trkpt lat="43.6227367" lon="13.2284067"><ele>130.79999999999998</ele><time>2026-04-26T08:39:15.272Z</time></trkpt><trkpt lat="43.6227883" lon="13.2282733"><ele>130.2</ele><time>2026-04-26T08:39:16.272Z</time></trkpt><trkpt lat="43.6228383" lon="13.2281517"><ele>129.6</ele><time>2026-04-26T08:39:17.272Z</time></trkpt><trkpt lat="43.6228833" lon="13.2280367"><ele>129.0</ele><time>2026-04-26T08:39:18.273Z</time></trkpt><trkpt lat="43.62292" lon="13.2279183"><ele>129.0</ele><time>2026-04-26T08:39:19.272Z</time></trkpt><trkpt lat="43.622945" lon="13.2277917"><ele>129.0</ele><time>2026-04-26T08:39:20.272Z</time></trkpt><trkpt lat="43.6229517" lon="13.2276617"><ele>129.0</ele><time>2026-04-26T08:39:21.272Z</time></trkpt><trkpt lat="43.6229317" lon="13.2275283"><ele>129.0</ele><time>2026-04-26T08:39:22.272Z</time></trkpt><trkpt lat="43.622895" lon="13.227375"><ele>129.0</ele><time>2026-04-26T08:39:23.272Z</time></trkpt><trkpt lat="43.6228567" lon="13.2272333"><ele>126.0</ele><time>2026-04-26T08:39:24.272Z</time></trkpt><trkpt lat="43.6228117" lon="13.2270833"><ele>123.0</ele><time>2026-04-26T08:39:25.272Z</time></trkpt><trkpt lat="43.6227817" lon="13.2269267"><ele>120.0</ele><time>2026-04-26T08:39:26.273Z</time></trkpt><trkpt lat="43.62276" lon="13.2267633"><ele>117.0</ele><time>2026-04-26T08:39:27.272Z</time></trkpt><trkpt lat="43.6227533" lon="13.2265783"><ele>117.75</ele><time>2026-04-26T08:39:28.272Z</time></trkpt><trkpt lat="43.6227517" lon="13.22639"><ele>118.5</ele><time>2026-04-26T08:39:29.272Z</time></trkpt><trkpt lat="43.6227567" lon="13.22619"><ele>119.25</ele><time>2026-04-26T08:39:30.272Z</time></trkpt><trkpt lat="43.6227617" lon="13.2259767"><ele>120.0</ele><time>2026-04-26T08:39:31.273Z</time></trkpt><trkpt lat="43.6227583" lon="13.2257717"><ele>120.75</ele><time>2026-04-26T08:39:32.272Z</time></trkpt><trkpt lat="43.6227567" lon="13.2255817"><ele>121.5</ele><time>2026-04-26T08:39:33.272Z</time></trkpt><trkpt lat="43.6227483" lon="13.2253867"><ele>122.25</ele><time>2026-04-26T08:39:34.273Z</time></trkpt><trkpt lat="43.622745" lon="13.2251933"><ele>123.0</ele><time>2026-04-26T08:39:35.273Z</time></trkpt><trkpt lat="43.6227533" lon="13.2250367"><ele>123.0</ele><time>2026-04-26T08:39:36.273Z</time></trkpt><trkpt lat="43.62277" lon="13.22492"><ele>123.00000000000001</ele><time>2026-04-26T08:39:37.272Z</time></trkpt><trkpt lat="43.6228067" lon="13.224775"><ele>123.00000000000001</ele><time>2026-04-26T08:39:39.272Z</time></trkpt><trkpt lat="43.62283" lon="13.224635"><ele>123.0</ele><time>2026-04-26T08:39:41.272Z</time></trkpt><trkpt lat="43.6228583" lon="13.2244467"><ele>123.0</ele><time>2026-04-26T08:39:43.272Z</time></trkpt><trkpt lat="43.6228917" lon="13.2243133"><ele>124.80000000000001</ele><time>2026-04-26T08:39:44.272Z</time></trkpt><trkpt lat="43.6229383" lon="13.2241717"><ele>126.60000000000001</ele><time>2026-04-26T08:39:45.272Z</time></trkpt><trkpt lat="43.6229683" lon="13.22404"><ele>128.39999999999998</ele><time>2026-04-26T08:39:46.272Z</time></trkpt><trkpt lat="43.6229967" lon="13.2239467"><ele>130.2</ele><time>2026-04-26T08:39:47.273Z</time></trkpt><trkpt lat="43.6230133" lon="13.2238567"><ele>132.0</ele><time>2026-04-26T08:39:48.272Z</time></trkpt><trkpt lat="43.622975" lon="13.223685"><ele>132.0</ele><time>2026-04-26T08:39:50.272Z</time></trkpt><trkpt lat="43.6229333" lon="13.2235967"><ele>132.0</ele><time>2026-04-26T08:39:51.272Z</time></trkpt><trkpt lat="43.62289" lon="13.22351"><ele>132.0</ele><time>2026-04-26T08:39:52.273Z</time></trkpt><trkpt lat="43.6228383" lon="13.2234283"><ele>132.0</ele><time>2026-04-26T08:39:53.272Z</time></trkpt><trkpt lat="43.6227917" lon="13.2233367"><ele>132.0</ele><time>2026-04-26T08:39:54.272Z</time></trkpt><trkpt lat="43.62273" lon="13.2232533"><ele>132.0</ele><time>2026-04-26T08:39:55.272Z</time></trkpt><trkpt lat="43.622665" lon="13.2231717"><ele>129.79999999999998</ele><time>2026-04-26T08:39:56.272Z</time></trkpt><trkpt lat="43.6225767" lon="13.22311"><ele>127.6</ele><time>2026-04-26T08:39:57.272Z</time></trkpt><trkpt lat="43.6224983" lon="13.2230517"><ele>125.39999999999999</ele><time>2026-04-26T08:39:58.272Z</time></trkpt><trkpt lat="43.622425" lon="13.2229867"><ele>123.19999999999999</ele><time>2026-04-26T08:39:59.272Z</time></trkpt><trkpt lat="43.6223517" lon="13.2229083"><ele>121.0</ele><time>2026-04-26T08:40:00.272Z</time></trkpt><trkpt lat="43.6222817" lon="13.2227933"><ele>121.0</ele><time>2026-04-26T08:40:01.273Z</time></trkpt><trkpt lat="43.622215" lon="13.222655"><ele>121.0</ele><time>2026-04-26T08:40:02.272Z</time></trkpt><trkpt lat="43.6221517" lon="13.2225167"><ele>121.0</ele><time>2026-04-26T08:40:03.272Z</time></trkpt><trkpt lat="43.6220733" lon="13.22235"><ele>121.0</ele><time>2026-04-26T08:40:04.272Z</time></trkpt><trkpt lat="43.6219967" lon="13.2222017"><ele>118.75</ele><time>2026-04-26T08:40:05.272Z</time></trkpt><trkpt lat="43.6219267" lon="13.2220683"><ele>116.5</ele><time>2026-04-26T08:40:06.272Z</time></trkpt><trkpt lat="43.6218617" lon="13.2219367"><ele>114.25</ele><time>2026-04-26T08:40:07.272Z</time></trkpt><trkpt lat="43.6217933" lon="13.221795"><ele>112.0</ele><time>2026-04-26T08:40:08.272Z</time></trkpt><trkpt lat="43.6217317" lon="13.22165"><ele>112.0</ele><time>2026-04-26T08:40:09.272Z</time></trkpt><trkpt lat="43.62168" lon="13.22151"><ele>112.0</ele><time>2026-04-26T08:40:10.272Z</time></trkpt><trkpt lat="43.6216283" lon="13.2213767"><ele>112.0</ele><time>2026-04-26T08:40:11.273Z</time></trkpt><trkpt lat="43.6215767" lon="13.221235"><ele>112.0</ele><time>2026-04-26T08:40:12.272Z</time></trkpt><trkpt lat="43.6215233" lon="13.2210733"><ele>112.75</ele><time>2026-04-26T08:40:13.272Z</time></trkpt><trkpt lat="43.6214767" lon="13.2208983"><ele>113.5</ele><time>2026-04-26T08:40:14.272Z</time></trkpt><trkpt lat="43.6214317" lon="13.2207117"><ele>114.25</ele><time>2026-04-26T08:40:15.272Z</time></trkpt><trkpt lat="43.6213967" lon="13.22053"><ele>115.0</ele><time>2026-04-26T08:40:16.272Z</time></trkpt><trkpt lat="43.6213683" lon="13.2203667"><ele>116.0</ele><time>2026-04-26T08:40:17.272Z</time></trkpt><trkpt lat="43.6213383" lon="13.2202183"><ele>117.0</ele><time>2026-04-26T08:40:18.272Z</time></trkpt><trkpt lat="43.6213067" lon="13.2200717"><ele>118.0</ele><time>2026-04-26T08:40:19.272Z</time></trkpt><trkpt lat="43.62128" lon="13.2199267"><ele>119.0</ele><time>2026-04-26T08:40:20.272Z</time></trkpt><trkpt lat="43.6212633" lon="13.2197817"><ele>120.0</ele><time>2026-04-26T08:40:21.272Z</time></trkpt><trkpt lat="43.621245" lon="13.2196433"><ele>120.8</ele><time>2026-04-26T08:40:22.272Z</time></trkpt><trkpt lat="43.6212317" lon="13.219505"><ele>121.6</ele><time>2026-04-26T08:40:23.272Z</time></trkpt><trkpt lat="43.6212133" lon="13.219375"><ele>122.4</ele><time>2026-04-26T08:40:24.272Z</time></trkpt><trkpt lat="43.6211967" lon="13.2192567"><ele>123.2</ele><time>2026-04-26T08:40:25.272Z</time></trkpt><trkpt lat="43.6211767" lon="13.2191433"><ele>124.0</ele><time>2026-04-26T08:40:26.272Z</time></trkpt><trkpt lat="43.62115" lon="13.21902"><ele>122.2</ele><time>2026-04-26T08:40:27.272Z</time></trkpt><trkpt lat="43.6211133" lon="13.2188867"><ele>120.4</ele><time>2026-04-26T08:40:28.272Z</time></trkpt><trkpt lat="43.6210733" lon="13.2187517"><ele>118.6</ele><time>2026-04-26T08:40:29.273Z</time></trkpt><trkpt lat="43.621015" lon="13.2186117"><ele>116.8</ele><time>2026-04-26T08:40:30.273Z</time></trkpt><trkpt lat="43.6209667" lon="13.21848"><ele>115.0</ele><time>2026-04-26T08:40:31.272Z</time></trkpt><trkpt lat="43.62092" lon="13.218355"><ele>115.0</ele><time>2026-04-26T08:40:32.272Z</time></trkpt><trkpt lat="43.62088" lon="13.2182333"><ele>115.0</ele><time>2026-04-26T08:40:33.272Z</time></trkpt><trkpt lat="43.6208383" lon="13.2181033"><ele>115.0</ele><time>2026-04-26T08:40:34.272Z</time></trkpt><trkpt lat="43.6208033" lon="13.2179567"><ele>115.0</ele><time>2026-04-26T08:40:35.272Z</time></trkpt><trkpt lat="43.6207683" lon="13.2178133"><ele>115.0</ele><time>2026-04-26T08:40:36.273Z</time></trkpt><trkpt lat="43.62074" lon="13.21767"><ele>115.6</ele><time>2026-04-26T08:40:37.272Z</time></trkpt><trkpt lat="43.620715" lon="13.2175217"><ele>116.2</ele><time>2026-04-26T08:40:38.272Z</time></trkpt><trkpt lat="43.6206883" lon="13.2173683"><ele>116.80000000000001</ele><time>2026-04-26T08:40:39.272Z</time></trkpt><trkpt lat="43.6206683" lon="13.2172283"><ele>117.4</ele><time>2026-04-26T08:40:40.272Z</time></trkpt><trkpt lat="43.6206467" lon="13.2170983"><ele>118.0</ele><time>2026-04-26T08:40:41.272Z</time></trkpt><trkpt lat="43.620615" lon="13.2169817"><ele>118.16666666666667</ele><time>2026-04-26T08:40:42.272Z</time></trkpt><trkpt lat="43.6205833" lon="13.2168817"><ele>118.33333333333334</ele><time>2026-04-26T08:40:43.272Z</time></trkpt><trkpt lat="43.6205467" lon="13.216785"><ele>118.5</ele><time>2026-04-26T08:40:44.272Z</time></trkpt><trkpt lat="43.620525" lon="13.2166783"><ele>118.66666666666666</ele><time>2026-04-26T08:40:45.272Z</time></trkpt><trkpt lat="43.62051" lon="13.2165783"><ele>118.83333333333333</ele><time>2026-04-26T08:40:46.273Z</time></trkpt><trkpt lat="43.6205033" lon="13.2164733"><ele>119.0</ele><time>2026-04-26T08:40:47.272Z</time></trkpt><trkpt lat="43.6205167" lon="13.2163683"><ele>119.0</ele><time>2026-04-26T08:40:48.272Z</time></trkpt><trkpt lat="43.6205467" lon="13.2162617"><ele>119.0</ele><time>2026-04-26T08:40:49.272Z</time></trkpt><trkpt lat="43.6205917" lon="13.2161483"><ele>119.0</ele><time>2026-04-26T08:40:50.271Z</time></trkpt><trkpt lat="43.62065" lon="13.2160283"><ele>119.0</ele><time>2026-04-26T08:40:51.272Z</time></trkpt><trkpt lat="43.62072" lon="13.2158967"><ele>119.0</ele><time>2026-04-26T08:40:52.271Z</time></trkpt><trkpt lat="43.6207967" lon="13.2157817"><ele>116.75</ele><time>2026-04-26T08:40:53.271Z</time></trkpt><trkpt lat="43.62087" lon="13.2156533"><ele>114.5</ele><time>2026-04-26T08:40:54.271Z</time></trkpt><trkpt lat="43.6209483" lon="13.2155367"><ele>112.25</ele><time>2026-04-26T08:40:55.271Z</time></trkpt><trkpt lat="43.6210233" lon="13.2154217"><ele>110.0</ele><time>2026-04-26T08:40:56.271Z</time></trkpt><trkpt lat="43.621095" lon="13.215305"><ele>112.4</ele><time>2026-04-26T08:40:57.271Z</time></trkpt><trkpt lat="43.6211667" lon="13.2151983"><ele>114.8</ele><time>2026-04-26T08:40:58.271Z</time></trkpt><trkpt lat="43.621235" lon="13.2151033"><ele>117.19999999999999</ele><time>2026-04-26T08:40:59.271Z</time></trkpt><trkpt lat="43.6213067" lon="13.2150067"><ele>119.6</ele><time>2026-04-26T08:41:00.271Z</time></trkpt><trkpt lat="43.6213833" lon="13.214915"><ele>122.0</ele><time>2026-04-26T08:41:01.271Z</time></trkpt><trkpt lat="43.6214717" lon="13.2148367"><ele>119.6</ele><time>2026-04-26T08:41:02.271Z</time></trkpt><trkpt lat="43.62157" lon="13.21477"><ele>117.19999999999999</ele><time>2026-04-26T08:41:03.271Z</time></trkpt><trkpt lat="43.6216583" lon="13.2147017"><ele>114.8</ele><time>2026-04-26T08:41:04.271Z</time></trkpt><trkpt lat="43.6217433" lon="13.21464"><ele>112.4</ele><time>2026-04-26T08:41:05.271Z</time></trkpt><trkpt lat="43.621835" lon="13.2145883"><ele>110.0</ele><time>2026-04-26T08:41:06.272Z</time></trkpt><trkpt lat="43.6219233" lon="13.2145383"><ele>110.99999999999999</ele><time>2026-04-26T08:41:07.271Z</time></trkpt><trkpt lat="43.6220033" lon="13.2144883"><ele>112.0</ele><time>2026-04-26T08:41:08.271Z</time></trkpt><trkpt lat="43.62208" lon="13.2144483"><ele>113.0</ele><time>2026-04-26T08:41:09.271Z</time></trkpt><trkpt lat="43.6221567" lon="13.2144117"><ele>114.0</ele><time>2026-04-26T08:41:10.272Z</time></trkpt><trkpt lat="43.6222317" lon="13.2143783"><ele>114.99999999999999</ele><time>2026-04-26T08:41:11.271Z</time></trkpt><trkpt lat="43.6223017" lon="13.2143567"><ele>116.0</ele><time>2026-04-26T08:41:12.271Z</time></trkpt><trkpt lat="43.622395" lon="13.21431"><ele>115.99999999999999</ele><time>2026-04-26T08:41:14.271Z</time></trkpt><trkpt lat="43.622445" lon="13.214225"><ele>116.0</ele><time>2026-04-26T08:41:16.271Z</time></trkpt><trkpt lat="43.6224633" lon="13.2141367"><ele>116.0</ele><time>2026-04-26T08:41:18.271Z</time></trkpt><trkpt lat="43.62248" lon="13.2140383"><ele>116.0</ele><time>2026-04-26T08:41:20.271Z</time></trkpt><trkpt lat="43.6224867" lon="13.2139"><ele>115.99999999999999</ele><time>2026-04-26T08:41:22.271Z</time></trkpt><trkpt lat="43.6224917" lon="13.2137367"><ele>116.0</ele><time>2026-04-26T08:41:24.271Z</time></trkpt><trkpt lat="43.6224833" lon="13.2135883"><ele>114.66666666666666</ele><time>2026-04-26T08:41:26.271Z</time></trkpt><trkpt lat="43.6224791" lon="13.2134593"><ele>113.33333333333333</ele><time>2026-04-26T08:41:28.271Z</time></trkpt><trkpt lat="43.622469" lon="13.2133441"><ele>112.0</ele><time>2026-04-26T08:41:30.271Z</time></trkpt><trkpt lat="43.6224655" lon="13.213256"><ele>110.66666666666666</ele><time>2026-04-26T08:41:32.271Z</time></trkpt><trkpt lat="43.62246" lon="13.2131347"><ele>109.33333333333333</ele><time>2026-04-26T08:41:35.271Z</time></trkpt><trkpt lat="43.622437" lon="13.2130106"><ele>108.0</ele><time>2026-04-26T08:41:38.388Z</time></trkpt><trkpt lat="43.6223956" lon="13.2129075"><ele>105.4</ele><time>2026-04-26T08:41:40.304Z</time></trkpt><trkpt lat="43.6223693" lon="13.2128072"><ele>102.80000000000001</ele><time>2026-04-26T08:41:42.43Z</time></trkpt><trkpt lat="43.6223702" lon="13.2126961"><ele>100.2</ele><time>2026-04-26T08:41:44.344Z</time></trkpt><trkpt lat="43.6223803" lon="13.212582"><ele>97.6</ele><time>2026-04-26T08:41:46.365Z</time></trkpt><trkpt lat="43.622366" lon="13.212449"><ele>95.0</ele><time>2026-04-26T08:41:48.271Z</time></trkpt><trkpt lat="43.6223503" lon="13.2122954"><ele>93.0</ele><time>2026-04-26T08:41:50.271Z</time></trkpt><trkpt lat="43.6223413" lon="13.2121454"><ele>91.0</ele><time>2026-04-26T08:41:52.271Z</time></trkpt><trkpt lat="43.6223266" lon="13.2120126"><ele>89.0</ele><time>2026-04-26T08:41:54.271Z</time></trkpt><trkpt lat="43.6223189" lon="13.2118688"><ele>87.0</ele><time>2026-04-26T08:41:56.271Z</time></trkpt><trkpt lat="43.6223133" lon="13.2117283"><ele>85.0</ele><time>2026-04-26T08:41:58.271Z</time></trkpt><trkpt lat="43.6223073" lon="13.2115979"><ele>82.8</ele><time>2026-04-26T08:42:00.271Z</time></trkpt><trkpt lat="43.6222988" lon="13.2114656"><ele>80.6</ele><time>2026-04-26T08:42:02.271Z</time></trkpt><trkpt lat="43.6222939" lon="13.2113355"><ele>78.4</ele><time>2026-04-26T08:42:04.271Z</time></trkpt><trkpt lat="43.6222877" lon="13.2112075"><ele>76.2</ele><time>2026-04-26T08:42:06.271Z</time></trkpt><trkpt lat="43.6222761" lon="13.2110804"><ele>74.0</ele><time>2026-04-26T08:42:08.271Z</time></trkpt><trkpt lat="43.6222667" lon="13.2109583"><ele>74.0</ele><time>2026-04-26T08:42:10.271Z</time></trkpt><trkpt lat="43.6222583" lon="13.2108333"><ele>74.0</ele><time>2026-04-26T08:42:12.271Z</time></trkpt><trkpt lat="43.6222402" lon="13.2106869"><ele>74.0</ele><time>2026-04-26T08:42:14.271Z</time></trkpt><trkpt lat="43.6222279" lon="13.2105998"><ele>74.0</ele><time>2026-04-26T08:42:15.272Z</time></trkpt><trkpt lat="43.6222168" lon="13.2105124"><ele>74.0</ele><time>2026-04-26T08:42:16.271Z</time></trkpt><trkpt lat="43.6222066" lon="13.2104189"><ele>74.0</ele><time>2026-04-26T08:42:17.271Z</time></trkpt><trkpt lat="43.6221956" lon="13.2103159"><ele>72.83333333333334</ele><time>2026-04-26T08:42:18.271Z</time></trkpt><trkpt lat="43.6221864" lon="13.2102049"><ele>71.66666666666667</ele><time>2026-04-26T08:42:19.271Z</time></trkpt><trkpt lat="43.6221757" lon="13.2100829"><ele>70.5</ele><time>2026-04-26T08:42:20.271Z</time></trkpt><trkpt lat="43.6221628" lon="13.209956"><ele>69.33333333333333</ele><time>2026-04-26T08:42:21.271Z</time></trkpt><trkpt lat="43.6221482" lon="13.2098363"><ele>68.16666666666666</ele><time>2026-04-26T08:42:22.271Z</time></trkpt><trkpt lat="43.6221389" lon="13.2097399"><ele>67.0</ele><time>2026-04-26T08:42:23.271Z</time></trkpt><trkpt lat="43.6221255" lon="13.2095645"><ele>67.0</ele><time>2026-04-26T08:42:25.271Z</time></trkpt><trkpt lat="43.6221153" lon="13.2094759"><ele>67.0</ele><time>2026-04-26T08:42:26.271Z</time></trkpt><trkpt lat="43.6220916" lon="13.2093192"><ele>67.0</ele><time>2026-04-26T08:42:28.271Z</time></trkpt><trkpt lat="43.6220452" lon="13.2091983"><ele>67.0</ele><time>2026-04-26T08:42:30.272Z</time></trkpt><trkpt lat="43.6219644" lon="13.2090882"><ele>67.0</ele><time>2026-04-26T08:42:32.272Z</time></trkpt><trkpt lat="43.6219107" lon="13.2089654"><ele>67.33333333333333</ele><time>2026-04-26T08:42:34.271Z</time></trkpt><trkpt lat="43.6219331" lon="13.2088295"><ele>67.66666666666666</ele><time>2026-04-26T08:42:36.271Z</time></trkpt><trkpt lat="43.6219771" lon="13.2087575"><ele>68.0</ele><time>2026-04-26T08:42:37.271Z</time></trkpt><trkpt lat="43.6220356" lon="13.2086809"><ele>68.33333333333333</ele><time>2026-04-26T08:42:38.271Z</time></trkpt><trkpt lat="43.6220969" lon="13.2086013"><ele>68.66666666666667</ele><time>2026-04-26T08:42:39.271Z</time></trkpt><trkpt lat="43.6221545" lon="13.2085237"><ele>69.0</ele><time>2026-04-26T08:42:40.271Z</time></trkpt><trkpt lat="43.6222084" lon="13.2084337"><ele>68.33333333333333</ele><time>2026-04-26T08:42:41.271Z</time></trkpt><trkpt lat="43.6222579" lon="13.208334"><ele>67.66666666666667</ele><time>2026-04-26T08:42:42.272Z</time></trkpt><trkpt lat="43.6223052" lon="13.2082323"><ele>67.0</ele><time>2026-04-26T08:42:43.271Z</time></trkpt><trkpt lat="43.6223514" lon="13.2081334"><ele>66.33333333333334</ele><time>2026-04-26T08:42:44.271Z</time></trkpt><trkpt lat="43.6223953" lon="13.2080428"><ele>65.66666666666667</ele><time>2026-04-26T08:42:45.272Z</time></trkpt><trkpt lat="43.6224397" lon="13.2079552"><ele>65.0</ele><time>2026-04-26T08:42:46.271Z</time></trkpt><trkpt lat="43.6224785" lon="13.2078594"><ele>64.83333333333334</ele><time>2026-04-26T08:42:47.271Z</time></trkpt><trkpt lat="43.622517" lon="13.2077694"><ele>64.66666666666667</ele><time>2026-04-26T08:42:48.271Z</time></trkpt><trkpt lat="43.6225635" lon="13.207688"><ele>64.5</ele><time>2026-04-26T08:42:49.271Z</time></trkpt><trkpt lat="43.6226164" lon="13.2076063"><ele>64.33333333333333</ele><time>2026-04-26T08:42:50.271Z</time></trkpt><trkpt lat="43.6226779" lon="13.2075297"><ele>64.16666666666666</ele><time>2026-04-26T08:42:51.271Z</time></trkpt><trkpt lat="43.6227292" lon="13.2074619"><ele>64.0</ele><time>2026-04-26T08:42:52.271Z</time></trkpt><trkpt lat="43.6228006" lon="13.2073331"><ele>64.16666666666666</ele><time>2026-04-26T08:42:54.272Z</time></trkpt><trkpt lat="43.6228251" lon="13.2071522"><ele>64.33333333333333</ele><time>2026-04-26T08:42:56.271Z</time></trkpt><trkpt lat="43.6228135" lon="13.2070417"><ele>64.5</ele><time>2026-04-26T08:42:57.271Z</time></trkpt><trkpt lat="43.6227926" lon="13.2069345"><ele>64.66666666666667</ele><time>2026-04-26T08:42:58.271Z</time></trkpt><trkpt lat="43.6227694" lon="13.2068302"><ele>64.83333333333334</ele><time>2026-04-26T08:42:59.271Z</time></trkpt><trkpt lat="43.62275" lon="13.206745"><ele>65.0</ele><time>2026-04-26T08:43:00.271Z</time></trkpt><trkpt lat="43.6227286" lon="13.2066032"><ele>66.66666666666667</ele><time>2026-04-26T08:43:02.271Z</time></trkpt><trkpt lat="43.6226831" lon="13.2064389"><ele>68.33333333333334</ele><time>2026-04-26T08:43:04.271Z</time></trkpt><trkpt lat="43.6226445" lon="13.2063537"><ele>70.0</ele><time>2026-04-26T08:43:05.271Z</time></trkpt><trkpt lat="43.6226109" lon="13.2062798"><ele>71.66666666666667</ele><time>2026-04-26T08:43:06.271Z</time></trkpt><trkpt lat="43.6225844" lon="13.2061734"><ele>73.33333333333333</ele><time>2026-04-26T08:43:08.271Z</time></trkpt><trkpt lat="43.6226233" lon="13.2060917"><ele>75.0</ele><time>2026-04-26T08:43:22.271Z</time></trkpt><trkpt lat="43.6227033" lon="13.2060217"><ele>75.0</ele><time>2026-04-26T08:43:24.271Z</time></trkpt><trkpt lat="43.6227767" lon="13.2059833"><ele>75.0</ele><time>2026-04-26T08:43:25.271Z</time></trkpt><trkpt lat="43.6228717" lon="13.2059283"><ele>75.0</ele><time>2026-04-26T08:43:26.271Z</time></trkpt><trkpt lat="43.6229917" lon="13.205845"><ele>75.0</ele><time>2026-04-26T08:43:27.271Z</time></trkpt><trkpt lat="43.6231167" lon="13.2057533"><ele>73.25</ele><time>2026-04-26T08:43:28.271Z</time></trkpt><trkpt lat="43.6232417" lon="13.205665"><ele>71.5</ele><time>2026-04-26T08:43:29.271Z</time></trkpt><trkpt lat="43.6233583" lon="13.20559"><ele>69.75</ele><time>2026-04-26T08:43:30.271Z</time></trkpt><trkpt lat="43.6234767" lon="13.2055167"><ele>68.0</ele><time>2026-04-26T08:43:31.271Z</time></trkpt><trkpt lat="43.6235967" lon="13.2054317"><ele>66.75</ele><time>2026-04-26T08:43:32.272Z</time></trkpt><trkpt lat="43.6237233" lon="13.2053383"><ele>65.5</ele><time>2026-04-26T08:43:33.271Z</time></trkpt><trkpt lat="43.6238567" lon="13.20525"><ele>64.25</ele><time>2026-04-26T08:43:34.271Z</time></trkpt><trkpt lat="43.6239883" lon="13.2051583"><ele>63.0</ele><time>2026-04-26T08:43:35.271Z</time></trkpt><trkpt lat="43.6241183" lon="13.20507"><ele>63.0</ele><time>2026-04-26T08:43:36.271Z</time></trkpt><trkpt lat="43.624255" lon="13.204975"><ele>63.0</ele><time>2026-04-26T08:43:37.271Z</time></trkpt><trkpt lat="43.6243983" lon="13.2048733"><ele>63.0</ele><time>2026-04-26T08:43:38.271Z</time></trkpt><trkpt lat="43.6245517" lon="13.204765"><ele>64.0</ele><time>2026-04-26T08:43:39.271Z</time></trkpt><trkpt lat="43.6246983" lon="13.20466"><ele>65.0</ele><time>2026-04-26T08:43:40.271Z</time></trkpt><trkpt lat="43.62484" lon="13.20456"><ele>66.0</ele><time>2026-04-26T08:43:41.271Z</time></trkpt><trkpt lat="43.62499" lon="13.204465"><ele>66.0</ele><time>2026-04-26T08:43:42.271Z</time></trkpt><trkpt lat="43.6251367" lon="13.2043583"><ele>66.0</ele><time>2026-04-26T08:43:43.271Z</time></trkpt><trkpt lat="43.625305" lon="13.204275"><ele>66.0</ele><time>2026-04-26T08:43:44.272Z</time></trkpt><trkpt lat="43.6254733" lon="13.20422"><ele>67.25</ele><time>2026-04-26T08:43:45.271Z</time></trkpt><trkpt lat="43.62562" lon="13.20419"><ele>68.5</ele><time>2026-04-26T08:43:46.271Z</time></trkpt><trkpt lat="43.6257467" lon="13.20417"><ele>69.75</ele><time>2026-04-26T08:43:47.271Z</time></trkpt><trkpt lat="43.62586" lon="13.204155"><ele>71.0</ele><time>2026-04-26T08:43:48.271Z</time></trkpt><trkpt lat="43.6259567" lon="13.204145"><ele>71.0</ele><time>2026-04-26T08:43:49.272Z</time></trkpt><trkpt lat="43.6260533" lon="13.20413"><ele>71.0</ele><time>2026-04-26T08:43:50.272Z</time></trkpt><trkpt lat="43.6261333" lon="13.20412"><ele>71.0</ele><time>2026-04-26T08:43:51.271Z</time></trkpt><trkpt lat="43.6262133" lon="13.2040917"><ele>71.0</ele><time>2026-04-26T08:43:53.271Z</time></trkpt><trkpt lat="43.62622" lon="13.2039967"><ele>71.0</ele><time>2026-04-26T08:43:55.271Z</time></trkpt><trkpt lat="43.62615" lon="13.2038517"><ele>73.25</ele><time>2026-04-26T08:43:57.271Z</time></trkpt><trkpt lat="43.6260867" lon="13.20374"><ele>75.5</ele><time>2026-04-26T08:43:58.271Z</time></trkpt><trkpt lat="43.6259883" lon="13.20361"><ele>77.75</ele><time>2026-04-26T08:43:59.271Z</time></trkpt><trkpt lat="43.6258717" lon="13.2034483"><ele>80.0</ele><time>2026-04-26T08:44:00.271Z</time></trkpt><trkpt lat="43.625755" lon="13.2032917"><ele>83.25</ele><time>2026-04-26T08:44:01.271Z</time></trkpt><trkpt lat="43.6256433" lon="13.20313"><ele>86.5</ele><time>2026-04-26T08:44:02.271Z</time></trkpt><trkpt lat="43.62555" lon="13.202975"><ele>89.75</ele><time>2026-04-26T08:44:03.271Z</time></trkpt><trkpt lat="43.6254683" lon="13.2028183"><ele>93.0</ele><time>2026-04-26T08:44:04.271Z</time></trkpt><trkpt lat="43.6254033" lon="13.2026533"><ele>93.0</ele><time>2026-04-26T08:44:05.271Z</time></trkpt><trkpt lat="43.625345" lon="13.202475"><ele>93.0</ele><time>2026-04-26T08:44:06.271Z</time></trkpt><trkpt lat="43.6253017" lon="13.2022983"><ele>93.0</ele><time>2026-04-26T08:44:07.271Z</time></trkpt><trkpt lat="43.6252717" lon="13.2021283"><ele>93.0</ele><time>2026-04-26T08:44:08.271Z</time></trkpt><trkpt lat="43.6252533" lon="13.20196"><ele>94.60000000000001</ele><time>2026-04-26T08:44:09.271Z</time></trkpt><trkpt lat="43.625245" lon="13.2018"><ele>96.2</ele><time>2026-04-26T08:44:10.271Z</time></trkpt><trkpt lat="43.6252433" lon="13.2016383"><ele>97.8</ele><time>2026-04-26T08:44:11.271Z</time></trkpt><trkpt lat="43.6252533" lon="13.20149"><ele>99.4</ele><time>2026-04-26T08:44:12.271Z</time></trkpt><trkpt lat="43.6252767" lon="13.2013617"><ele>101.0</ele><time>2026-04-26T08:44:13.271Z</time></trkpt><trkpt lat="43.6253" lon="13.2012283"><ele>101.25</ele><time>2026-04-26T08:44:14.272Z</time></trkpt><trkpt lat="43.6253267" lon="13.201085"><ele>101.5</ele><time>2026-04-26T08:44:15.271Z</time></trkpt><trkpt lat="43.6253383" lon="13.2009267"><ele>101.75</ele><time>2026-04-26T08:44:16.271Z</time></trkpt><trkpt lat="43.62531" lon="13.2007283"><ele>102.0</ele><time>2026-04-26T08:44:17.271Z</time></trkpt><trkpt lat="43.6252533" lon="13.2005317"><ele>104.66666666666666</ele><time>2026-04-26T08:44:18.271Z</time></trkpt><trkpt lat="43.6251883" lon="13.2003217"><ele>107.33333333333333</ele><time>2026-04-26T08:44:19.271Z</time></trkpt><trkpt lat="43.6251217" lon="13.2001083"><ele>110.0</ele><time>2026-04-26T08:44:20.271Z</time></trkpt><trkpt lat="43.6250667" lon="13.199905"><ele>110.66666666666666</ele><time>2026-04-26T08:44:21.271Z</time></trkpt><trkpt lat="43.6250267" lon="13.199695"><ele>111.33333333333334</ele><time>2026-04-26T08:44:22.271Z</time></trkpt><trkpt lat="43.6249817" lon="13.1994717"><ele>112.0</ele><time>2026-04-26T08:44:23.271Z</time></trkpt><trkpt lat="43.624945" lon="13.1992467"><ele>112.0</ele><time>2026-04-26T08:44:24.271Z</time></trkpt><trkpt lat="43.624905" lon="13.1990283"><ele>112.0</ele><time>2026-04-26T08:44:25.271Z</time></trkpt><trkpt lat="43.6248617" lon="13.1988183"><ele>112.0</ele><time>2026-04-26T08:44:26.271Z</time></trkpt><trkpt lat="43.62482" lon="13.1986083"><ele>111.66666666666667</ele><time>2026-04-26T08:44:27.271Z</time></trkpt><trkpt lat="43.6247783" lon="13.198395"><ele>111.33333333333334</ele><time>2026-04-26T08:44:28.271Z</time></trkpt><trkpt lat="43.6247367" lon="13.19818"><ele>111.0</ele><time>2026-04-26T08:44:29.271Z</time></trkpt><trkpt lat="43.6247033" lon="13.1979717"><ele>111.0</ele><time>2026-04-26T08:44:30.271Z</time></trkpt><trkpt lat="43.6246783" lon="13.1977583"><ele>111.0</ele><time>2026-04-26T08:44:31.271Z</time></trkpt><trkpt lat="43.6246483" lon="13.19754"><ele>111.0</ele><time>2026-04-26T08:44:32.271Z</time></trkpt><trkpt lat="43.6246183" lon="13.1973217"><ele>110.66666666666666</ele><time>2026-04-26T08:44:33.271Z</time></trkpt><trkpt lat="43.62459" lon="13.197105"><ele>110.33333333333333</ele><time>2026-04-26T08:44:34.272Z</time></trkpt><trkpt lat="43.6245483" lon="13.196895"><ele>110.0</ele><time>2026-04-26T08:44:35.271Z</time></trkpt><trkpt lat="43.6245017" lon="13.1966967"><ele>114.66666666666666</ele><time>2026-04-26T08:44:36.271Z</time></trkpt><trkpt lat="43.6244633" lon="13.1965"><ele>119.33333333333334</ele><time>2026-04-26T08:44:37.271Z</time></trkpt><trkpt lat="43.6244217" lon="13.1962917"><ele>124.0</ele><time>2026-04-26T08:44:38.271Z</time></trkpt><trkpt lat="43.624365" lon="13.1960933"><ele>124.0</ele><time>2026-04-26T08:44:39.272Z</time></trkpt><trkpt lat="43.6243083" lon="13.195895"><ele>124.0</ele><time>2026-04-26T08:44:40.271Z</time></trkpt><trkpt lat="43.6242467" lon="13.195715"><ele>124.0</ele><time>2026-04-26T08:44:41.271Z</time></trkpt><trkpt lat="43.62419" lon="13.1955383"><ele>124.0</ele><time>2026-04-26T08:44:42.272Z</time></trkpt><trkpt lat="43.62413" lon="13.1953617"><ele>124.0</ele><time>2026-04-26T08:44:43.271Z</time></trkpt><trkpt lat="43.6240767" lon="13.19518"><ele>124.0</ele><time>2026-04-26T08:44:44.271Z</time></trkpt><trkpt lat="43.62403" lon="13.1950083"><ele>124.0</ele><time>2026-04-26T08:44:45.271Z</time></trkpt><trkpt lat="43.623975" lon="13.19485"><ele>124.0</ele><time>2026-04-26T08:44:46.271Z</time></trkpt><trkpt lat="43.6239233" lon="13.1947133"><ele>123.0</ele><time>2026-04-26T08:44:47.271Z</time></trkpt><trkpt lat="43.62387" lon="13.19458"><ele>122.0</ele><time>2026-04-26T08:44:48.271Z</time></trkpt><trkpt lat="43.6238083" lon="13.1944633"><ele>121.0</ele><time>2026-04-26T08:44:49.271Z</time></trkpt><trkpt lat="43.6237433" lon="13.19436"><ele>120.0</ele><time>2026-04-26T08:44:50.271Z</time></trkpt><trkpt lat="43.6236767" lon="13.1942683"><ele>119.0</ele><time>2026-04-26T08:44:51.271Z</time></trkpt><trkpt lat="43.6236117" lon="13.19418"><ele>122.25</ele><time>2026-04-26T08:44:52.271Z</time></trkpt><trkpt lat="43.6235383" lon="13.1941033"><ele>125.5</ele><time>2026-04-26T08:44:53.271Z</time></trkpt><trkpt lat="43.6234483" lon="13.1940467"><ele>128.75</ele><time>2026-04-26T08:44:54.271Z</time></trkpt><trkpt lat="43.6233267" lon="13.194015"><ele>132.0</ele><time>2026-04-26T08:44:55.271Z</time></trkpt><trkpt lat="43.623175" lon="13.1939883"><ele>132.25</ele><time>2026-04-26T08:44:56.271Z</time></trkpt><trkpt lat="43.6230367" lon="13.1939517"><ele>132.5</ele><time>2026-04-26T08:44:57.271Z</time></trkpt><trkpt lat="43.6229167" lon="13.1939417"><ele>132.75</ele><time>2026-04-26T08:44:58.271Z</time></trkpt><trkpt lat="43.622805" lon="13.1939233"><ele>133.0</ele><time>2026-04-26T08:44:59.271Z</time></trkpt><trkpt lat="43.6227" lon="13.193915"><ele>135.4</ele><time>2026-04-26T08:45:00.271Z</time></trkpt><trkpt lat="43.6225983" lon="13.19392"><ele>137.8</ele><time>2026-04-26T08:45:01.271Z</time></trkpt><trkpt lat="43.6224983" lon="13.1939583"><ele>140.2</ele><time>2026-04-26T08:45:02.271Z</time></trkpt><trkpt lat="43.6223883" lon="13.1939867"><ele>142.6</ele><time>2026-04-26T08:45:03.271Z</time></trkpt><trkpt lat="43.622265" lon="13.194"><ele>145.0</ele><time>2026-04-26T08:45:04.271Z</time></trkpt><trkpt lat="43.6221367" lon="13.193985"><ele>145.0</ele><time>2026-04-26T08:45:05.271Z</time></trkpt><trkpt lat="43.6219983" lon="13.193955"><ele>145.0</ele><time>2026-04-26T08:45:06.271Z</time></trkpt><trkpt lat="43.6218467" lon="13.1939317"><ele>145.0</ele><time>2026-04-26T08:45:07.271Z</time></trkpt><trkpt lat="43.62169" lon="13.193905"><ele>145.0</ele><time>2026-04-26T08:45:08.271Z</time></trkpt><trkpt lat="43.62154" lon="13.1938967"><ele>145.0</ele><time>2026-04-26T08:45:09.272Z</time></trkpt><trkpt lat="43.621405" lon="13.1938883"><ele>145.0</ele><time>2026-04-26T08:45:10.271Z</time></trkpt><trkpt lat="43.62129" lon="13.1938833"><ele>145.0</ele><time>2026-04-26T08:45:11.271Z</time></trkpt><trkpt lat="43.6211833" lon="13.19387"><ele>144.0</ele><time>2026-04-26T08:45:12.271Z</time></trkpt><trkpt lat="43.621085" lon="13.1938333"><ele>143.0</ele><time>2026-04-26T08:45:13.271Z</time></trkpt><trkpt lat="43.6210017" lon="13.1937833"><ele>142.0</ele><time>2026-04-26T08:45:14.271Z</time></trkpt><trkpt lat="43.62093" lon="13.1937233"><ele>141.0</ele><time>2026-04-26T08:45:15.271Z</time></trkpt><trkpt lat="43.62087" lon="13.1936333"><ele>140.0</ele><time>2026-04-26T08:45:16.271Z</time></trkpt><trkpt lat="43.6208083" lon="13.1935217"><ele>140.0</ele><time>2026-04-26T08:45:17.271Z</time></trkpt><trkpt lat="43.620745" lon="13.1933933"><ele>140.0</ele><time>2026-04-26T08:45:18.272Z</time></trkpt><trkpt lat="43.6206867" lon="13.193265"><ele>140.0</ele><time>2026-04-26T08:45:19.272Z</time></trkpt><trkpt lat="43.6206367" lon="13.1931533"><ele>140.0</ele><time>2026-04-26T08:45:20.271Z</time></trkpt><trkpt lat="43.62058" lon="13.19308"><ele>140.0</ele><time>2026-04-26T08:45:21.271Z</time></trkpt><trkpt lat="43.6205283" lon="13.1930283"><ele>140.16666666666666</ele><time>2026-04-26T08:45:22.271Z</time></trkpt><trkpt lat="43.6204667" lon="13.1929833"><ele>140.33333333333331</ele><time>2026-04-26T08:45:23.272Z</time></trkpt><trkpt lat="43.620395" lon="13.1929417"><ele>140.5</ele><time>2026-04-26T08:45:24.271Z</time></trkpt><trkpt lat="43.6203233" lon="13.192885"><ele>140.66666666666666</ele><time>2026-04-26T08:45:25.271Z</time></trkpt><trkpt lat="43.6202567" lon="13.1928283"><ele>140.83333333333334</ele><time>2026-04-26T08:45:26.272Z</time></trkpt><trkpt lat="43.6202" lon="13.19275"><ele>141.0</ele><time>2026-04-26T08:45:27.271Z</time></trkpt><trkpt lat="43.6201467" lon="13.192655"><ele>141.0</ele><time>2026-04-26T08:45:28.271Z</time></trkpt><trkpt lat="43.620095" lon="13.192535"><ele>141.0</ele><time>2026-04-26T08:45:29.272Z</time></trkpt><trkpt lat="43.6200467" lon="13.1924067"><ele>141.0</ele><time>2026-04-26T08:45:30.271Z</time></trkpt><trkpt lat="43.6199983" lon="13.1922867"><ele>141.0</ele><time>2026-04-26T08:45:31.271Z</time></trkpt><trkpt lat="43.6199567" lon="13.192155"><ele>141.0</ele><time>2026-04-26T08:45:32.271Z</time></trkpt><trkpt lat="43.6199133" lon="13.1920283"><ele>142.6</ele><time>2026-04-26T08:45:33.272Z</time></trkpt><trkpt lat="43.6198583" lon="13.1919083"><ele>144.2</ele><time>2026-04-26T08:45:34.271Z</time></trkpt><trkpt lat="43.6198033" lon="13.1917983"><ele>145.8</ele><time>2026-04-26T08:45:35.271Z</time></trkpt><trkpt lat="43.6197367" lon="13.1917133"><ele>147.4</ele><time>2026-04-26T08:45:36.271Z</time></trkpt><trkpt lat="43.6196583" lon="13.1916483"><ele>149.0</ele><time>2026-04-26T08:45:37.271Z</time></trkpt><trkpt lat="43.6195633" lon="13.19158"><ele>148.0</ele><time>2026-04-26T08:45:38.271Z</time></trkpt><trkpt lat="43.6194583" lon="13.1915217"><ele>147.0</ele><time>2026-04-26T08:45:39.271Z</time></trkpt><trkpt lat="43.619355" lon="13.19146"><ele>146.0</ele><time>2026-04-26T08:45:40.271Z</time></trkpt><trkpt lat="43.6192567" lon="13.1914"><ele>145.0</ele><time>2026-04-26T08:45:41.271Z</time></trkpt><trkpt lat="43.6191633" lon="13.191335"><ele>144.0</ele><time>2026-04-26T08:45:42.271Z</time></trkpt><trkpt lat="43.619055" lon="13.19127"><ele>146.5</ele><time>2026-04-26T08:45:43.271Z</time></trkpt><trkpt lat="43.6189467" lon="13.191205"><ele>149.0</ele><time>2026-04-26T08:45:44.271Z</time></trkpt><trkpt lat="43.618835" lon="13.1911567"><ele>151.5</ele><time>2026-04-26T08:45:45.272Z</time></trkpt><trkpt lat="43.6187167" lon="13.191125"><ele>154.0</ele><time>2026-04-26T08:45:46.271Z</time></trkpt><trkpt lat="43.6186017" lon="13.1910883"><ele>154.2</ele><time>2026-04-26T08:45:47.271Z</time></trkpt><trkpt lat="43.618485" lon="13.19105"><ele>154.4</ele><time>2026-04-26T08:45:48.271Z</time></trkpt><trkpt lat="43.6183783" lon="13.1909917"><ele>154.6</ele><time>2026-04-26T08:45:49.272Z</time></trkpt><trkpt lat="43.6182883" lon="13.190925"><ele>154.8</ele><time>2026-04-26T08:45:50.272Z</time></trkpt><trkpt lat="43.6182033" lon="13.1908517"><ele>155.0</ele><time>2026-04-26T08:45:51.271Z</time></trkpt><trkpt lat="43.61813" lon="13.19079"><ele>155.0</ele><time>2026-04-26T08:45:52.271Z</time></trkpt><trkpt lat="43.61806" lon="13.1907483"><ele>155.0</ele><time>2026-04-26T08:45:53.271Z</time></trkpt><trkpt lat="43.6179783" lon="13.1907317"><ele>155.0</ele><time>2026-04-26T08:45:54.271Z</time></trkpt><trkpt lat="43.6178917" lon="13.1907217"><ele>155.0</ele><time>2026-04-26T08:45:55.272Z</time></trkpt><trkpt lat="43.6178067" lon="13.190715"><ele>155.0</ele><time>2026-04-26T08:45:56.271Z</time></trkpt><trkpt lat="43.61773" lon="13.190695"><ele>155.0</ele><time>2026-04-26T08:45:57.271Z</time></trkpt><trkpt lat="43.6176633" lon="13.190645"><ele>156.8</ele><time>2026-04-26T08:45:58.271Z</time></trkpt><trkpt lat="43.6176" lon="13.1905583"><ele>158.6</ele><time>2026-04-26T08:45:59.271Z</time></trkpt><trkpt lat="43.6175383" lon="13.1904417"><ele>160.39999999999998</ele><time>2026-04-26T08:46:00.271Z</time></trkpt><trkpt lat="43.617485" lon="13.1903183"><ele>162.2</ele><time>2026-04-26T08:46:01.272Z</time></trkpt><trkpt lat="43.617425" lon="13.190195"><ele>164.0</ele><time>2026-04-26T08:46:02.271Z</time></trkpt><trkpt lat="43.61735" lon="13.1900883"><ele>164.0</ele><time>2026-04-26T08:46:03.271Z</time></trkpt><trkpt lat="43.617275" lon="13.18999"><ele>164.0</ele><time>2026-04-26T08:46:04.271Z</time></trkpt><trkpt lat="43.617205" lon="13.189875"><ele>164.0</ele><time>2026-04-26T08:46:05.272Z</time></trkpt><trkpt lat="43.6171383" lon="13.189765"><ele>164.0</ele><time>2026-04-26T08:46:06.271Z</time></trkpt><trkpt lat="43.61708" lon="13.1896617"><ele>164.0</ele><time>2026-04-26T08:46:07.271Z</time></trkpt><trkpt lat="43.6170283" lon="13.1895683"><ele>164.33333333333331</ele><time>2026-04-26T08:46:08.271Z</time></trkpt><trkpt lat="43.616985" lon="13.1894683"><ele>164.66666666666666</ele><time>2026-04-26T08:46:09.271Z</time></trkpt><trkpt lat="43.6169433" lon="13.18937"><ele>165.0</ele><time>2026-04-26T08:46:10.271Z</time></trkpt><trkpt lat="43.616895" lon="13.1892767"><ele>165.33333333333334</ele><time>2026-04-26T08:46:11.271Z</time></trkpt><trkpt lat="43.6168383" lon="13.1892033"><ele>165.66666666666669</ele><time>2026-04-26T08:46:12.271Z</time></trkpt><trkpt lat="43.6167733" lon="13.1891267"><ele>166.0</ele><time>2026-04-26T08:46:13.271Z</time></trkpt><trkpt lat="43.6166867" lon="13.1890567"><ele>164.4</ele><time>2026-04-26T08:46:14.272Z</time></trkpt><trkpt lat="43.616585" lon="13.1889983"><ele>162.8</ele><time>2026-04-26T08:46:15.271Z</time></trkpt><trkpt lat="43.6164917" lon="13.1889467"><ele>161.20000000000002</ele><time>2026-04-26T08:46:16.271Z</time></trkpt><trkpt lat="43.6163967" lon="13.1889017"><ele>159.60000000000002</ele><time>2026-04-26T08:46:17.271Z</time></trkpt><trkpt lat="43.6162917" lon="13.1888733"><ele>158.0</ele><time>2026-04-26T08:46:18.271Z</time></trkpt><trkpt lat="43.6161767" lon="13.1888517"><ele>159.0</ele><time>2026-04-26T08:46:19.271Z</time></trkpt><trkpt lat="43.6160567" lon="13.18883"><ele>160.0</ele><time>2026-04-26T08:46:20.271Z</time></trkpt><trkpt lat="43.61593" lon="13.1888167"><ele>161.0</ele><time>2026-04-26T08:46:21.271Z</time></trkpt><trkpt lat="43.6158083" lon="13.1888017"><ele>162.0</ele><time>2026-04-26T08:46:22.272Z</time></trkpt><trkpt lat="43.6156817" lon="13.188785"><ele>162.0</ele><time>2026-04-26T08:46:23.271Z</time></trkpt><trkpt lat="43.6155583" lon="13.1887683"><ele>162.0</ele><time>2026-04-26T08:46:24.271Z</time></trkpt><trkpt lat="43.6154233" lon="13.1887317"><ele>162.0</ele><time>2026-04-26T08:46:25.271Z</time></trkpt><trkpt lat="43.6152783" lon="13.1886883"><ele>162.0</ele><time>2026-04-26T08:46:26.271Z</time></trkpt><trkpt lat="43.61514" lon="13.1886417"><ele>163.75</ele><time>2026-04-26T08:46:27.271Z</time></trkpt><trkpt lat="43.6150117" lon="13.1885917"><ele>165.5</ele><time>2026-04-26T08:46:28.271Z</time></trkpt><trkpt lat="43.6148933" lon="13.188525"><ele>167.25</ele><time>2026-04-26T08:46:29.271Z</time></trkpt><trkpt lat="43.6147617" lon="13.188465"><ele>169.0</ele><time>2026-04-26T08:46:30.271Z</time></trkpt><trkpt lat="43.614635" lon="13.1884"><ele>169.0</ele><time>2026-04-26T08:46:31.271Z</time></trkpt><trkpt lat="43.61451" lon="13.18833"><ele>169.0</ele><time>2026-04-26T08:46:32.271Z</time></trkpt><trkpt lat="43.61439" lon="13.1882583"><ele>169.0</ele><time>2026-04-26T08:46:33.271Z</time></trkpt><trkpt lat="43.61428" lon="13.1881917"><ele>169.0</ele><time>2026-04-26T08:46:34.271Z</time></trkpt><trkpt lat="43.6141733" lon="13.1881117"><ele>168.75</ele><time>2026-04-26T08:46:35.271Z</time></trkpt><trkpt lat="43.6140717" lon="13.18803"><ele>168.5</ele><time>2026-04-26T08:46:36.272Z</time></trkpt><trkpt lat="43.6139717" lon="13.1879317"><ele>168.25</ele><time>2026-04-26T08:46:37.271Z</time></trkpt><trkpt lat="43.61385" lon="13.187805"><ele>168.0</ele><time>2026-04-26T08:46:38.271Z</time></trkpt><trkpt lat="43.61372" lon="13.18768"><ele>168.25</ele><time>2026-04-26T08:46:39.271Z</time></trkpt><trkpt lat="43.6135917" lon="13.18755"><ele>168.5</ele><time>2026-04-26T08:46:40.271Z</time></trkpt><trkpt lat="43.6134783" lon="13.1874167"><ele>168.75</ele><time>2026-04-26T08:46:41.271Z</time></trkpt><trkpt lat="43.61338" lon="13.1872967"><ele>169.0</ele><time>2026-04-26T08:46:42.272Z</time></trkpt><trkpt lat="43.613275" lon="13.187185"><ele>169.0</ele><time>2026-04-26T08:46:43.271Z</time></trkpt><trkpt lat="43.6131733" lon="13.1871083"><ele>169.0</ele><time>2026-04-26T08:46:44.271Z</time></trkpt><trkpt lat="43.61308" lon="13.18705"><ele>169.0</ele><time>2026-04-26T08:46:45.271Z</time></trkpt><trkpt lat="43.6129833" lon="13.1870283"><ele>169.0</ele><time>2026-04-26T08:46:46.271Z</time></trkpt><trkpt lat="43.6128833" lon="13.1870317"><ele>169.0</ele><time>2026-04-26T08:46:47.271Z</time></trkpt><trkpt lat="43.6127733" lon="13.1870567"><ele>169.0</ele><time>2026-04-26T08:46:48.271Z</time></trkpt><trkpt lat="43.612645" lon="13.187115"><ele>169.0</ele><time>2026-04-26T08:46:49.271Z</time></trkpt><trkpt lat="43.6125117" lon="13.1871883"><ele>169.0</ele><time>2026-04-26T08:46:50.271Z</time></trkpt><trkpt lat="43.6123817" lon="13.1872683"><ele>169.0</ele><time>2026-04-26T08:46:51.271Z</time></trkpt><trkpt lat="43.6122683" lon="13.1873583"><ele>168.5</ele><time>2026-04-26T08:46:52.271Z</time></trkpt><trkpt lat="43.6121617" lon="13.1874467"><ele>168.0</ele><time>2026-04-26T08:46:53.271Z</time></trkpt><trkpt lat="43.6120533" lon="13.1875267"><ele>167.5</ele><time>2026-04-26T08:46:54.271Z</time></trkpt><trkpt lat="43.6119383" lon="13.187595"><ele>167.0</ele><time>2026-04-26T08:46:55.271Z</time></trkpt><trkpt lat="43.61182" lon="13.1876383"><ele>167.0</ele><time>2026-04-26T08:46:56.271Z</time></trkpt><trkpt lat="43.6117" lon="13.187675"><ele>167.0</ele><time>2026-04-26T08:46:57.271Z</time></trkpt><trkpt lat="43.6115617" lon="13.1876983"><ele>167.0</ele><time>2026-04-26T08:46:58.271Z</time></trkpt><trkpt lat="43.61143" lon="13.187675"><ele>167.0</ele><time>2026-04-26T08:46:59.272Z</time></trkpt><trkpt lat="43.6112967" lon="13.1876333"><ele>167.0</ele><time>2026-04-26T08:47:00.271Z</time></trkpt><trkpt lat="43.611175" lon="13.18759"><ele>167.0</ele><time>2026-04-26T08:47:01.271Z</time></trkpt><trkpt lat="43.6110583" lon="13.1875367"><ele>167.0</ele><time>2026-04-26T08:47:02.271Z</time></trkpt><trkpt lat="43.6109483" lon="13.1874883"><ele>167.0</ele><time>2026-04-26T08:47:03.271Z</time></trkpt><trkpt lat="43.6108383" lon="13.1874483"><ele>167.5</ele><time>2026-04-26T08:47:04.271Z</time></trkpt><trkpt lat="43.6107233" lon="13.1874017"><ele>168.0</ele><time>2026-04-26T08:47:05.271Z</time></trkpt><trkpt lat="43.61061" lon="13.1873483"><ele>168.5</ele><time>2026-04-26T08:47:06.271Z</time></trkpt><trkpt lat="43.6104867" lon="13.18729"><ele>169.0</ele><time>2026-04-26T08:47:07.272Z</time></trkpt><trkpt lat="43.6103683" lon="13.1872333"><ele>168.25</ele><time>2026-04-26T08:47:08.272Z</time></trkpt><trkpt lat="43.6102633" lon="13.18717"><ele>167.5</ele><time>2026-04-26T08:47:09.271Z</time></trkpt><trkpt lat="43.6101583" lon="13.1871133"><ele>166.75</ele><time>2026-04-26T08:47:10.271Z</time></trkpt><trkpt lat="43.610055" lon="13.1870583"><ele>166.0</ele><time>2026-04-26T08:47:11.271Z</time></trkpt><trkpt lat="43.6099517" lon="13.1869933"><ele>166.0</ele><time>2026-04-26T08:47:12.271Z</time></trkpt><trkpt lat="43.609845" lon="13.1869333"><ele>166.0</ele><time>2026-04-26T08:47:13.271Z</time></trkpt><trkpt lat="43.609745" lon="13.1868817"><ele>166.0</ele><time>2026-04-26T08:47:14.271Z</time></trkpt><trkpt lat="43.6096483" lon="13.1868333"><ele>166.0</ele><time>2026-04-26T08:47:15.272Z</time></trkpt><trkpt lat="43.60955" lon="13.1867933"><ele>166.0</ele><time>2026-04-26T08:47:16.271Z</time></trkpt><trkpt lat="43.6094417" lon="13.1867617"><ele>166.75</ele><time>2026-04-26T08:47:17.271Z</time></trkpt><trkpt lat="43.6093283" lon="13.1867333"><ele>167.5</ele><time>2026-04-26T08:47:18.272Z</time></trkpt><trkpt lat="43.6092167" lon="13.186715"><ele>168.25</ele><time>2026-04-26T08:47:19.271Z</time></trkpt><trkpt lat="43.60911" lon="13.1866933"><ele>169.0</ele><time>2026-04-26T08:47:20.271Z</time></trkpt><trkpt lat="43.608995" lon="13.1866717"><ele>169.0</ele><time>2026-04-26T08:47:21.271Z</time></trkpt><trkpt lat="43.60886" lon="13.1866483"><ele>169.0</ele><time>2026-04-26T08:47:22.271Z</time></trkpt><trkpt lat="43.60873" lon="13.1866233"><ele>169.0</ele><time>2026-04-26T08:47:23.271Z</time></trkpt><trkpt lat="43.6085967" lon="13.186605"><ele>169.0</ele><time>2026-04-26T08:47:24.271Z</time></trkpt><trkpt lat="43.608465" lon="13.1865933"><ele>167.75</ele><time>2026-04-26T08:47:25.271Z</time></trkpt><trkpt lat="43.6083433" lon="13.1865633"><ele>166.5</ele><time>2026-04-26T08:47:26.271Z</time></trkpt><trkpt lat="43.6082217" lon="13.186545"><ele>165.25</ele><time>2026-04-26T08:47:27.271Z</time></trkpt><trkpt lat="43.6080967" lon="13.1865"><ele>164.0</ele><time>2026-04-26T08:47:28.271Z</time></trkpt><trkpt lat="43.6079733" lon="13.18644"><ele>163.75</ele><time>2026-04-26T08:47:29.271Z</time></trkpt><trkpt lat="43.6078583" lon="13.1863617"><ele>163.5</ele><time>2026-04-26T08:47:30.271Z</time></trkpt><trkpt lat="43.607735" lon="13.1862567"><ele>163.25</ele><time>2026-04-26T08:47:31.271Z</time></trkpt><trkpt lat="43.6076033" lon="13.18614"><ele>163.0</ele><time>2026-04-26T08:47:32.271Z</time></trkpt><trkpt lat="43.607465" lon="13.186005"><ele>163.0</ele><time>2026-04-26T08:47:33.271Z</time></trkpt><trkpt lat="43.60732" lon="13.185865"><ele>163.0</ele><time>2026-04-26T08:47:34.271Z</time></trkpt><trkpt lat="43.6071733" lon="13.1857333"><ele>163.0</ele><time>2026-04-26T08:47:35.271Z</time></trkpt><trkpt lat="43.6070333" lon="13.1856167"><ele>165.33333333333334</ele><time>2026-04-26T08:47:36.271Z</time></trkpt><trkpt lat="43.6068983" lon="13.18552"><ele>167.66666666666666</ele><time>2026-04-26T08:47:37.271Z</time></trkpt><trkpt lat="43.6067667" lon="13.1854333"><ele>170.0</ele><time>2026-04-26T08:47:38.271Z</time></trkpt><trkpt lat="43.6066183" lon="13.1853767"><ele>170.0</ele><time>2026-04-26T08:47:39.27Z</time></trkpt><trkpt lat="43.60644" lon="13.1853433"><ele>170.0</ele><time>2026-04-26T08:47:40.27Z</time></trkpt><trkpt lat="43.6062367" lon="13.1853417"><ele>170.0</ele><time>2026-04-26T08:47:41.27Z</time></trkpt><trkpt lat="43.606045" lon="13.1853433"><ele>173.0</ele><time>2026-04-26T08:47:42.27Z</time></trkpt><trkpt lat="43.6058783" lon="13.185345"><ele>176.0</ele><time>2026-04-26T08:47:43.27Z</time></trkpt><trkpt lat="43.6057217" lon="13.1853417"><ele>179.0</ele><time>2026-04-26T08:47:44.27Z</time></trkpt><trkpt lat="43.6055867" lon="13.185325"><ele>179.0</ele><time>2026-04-26T08:47:45.27Z</time></trkpt><trkpt lat="43.6054583" lon="13.1852917"><ele>179.0</ele><time>2026-04-26T08:47:46.27Z</time></trkpt><trkpt lat="43.60533" lon="13.1852267"><ele>179.0</ele><time>2026-04-26T08:47:47.27Z</time></trkpt><trkpt lat="43.6052067" lon="13.1851533"><ele>179.0</ele><time>2026-04-26T08:47:48.27Z</time></trkpt><trkpt lat="43.6050917" lon="13.1850533"><ele>178.75</ele><time>2026-04-26T08:47:49.27Z</time></trkpt><trkpt lat="43.6049783" lon="13.1849483"><ele>178.5</ele><time>2026-04-26T08:47:50.27Z</time></trkpt><trkpt lat="43.60486" lon="13.184835"><ele>178.25</ele><time>2026-04-26T08:47:51.27Z</time></trkpt><trkpt lat="43.6047483" lon="13.1847117"><ele>178.0</ele><time>2026-04-26T08:47:52.27Z</time></trkpt><trkpt lat="43.6046483" lon="13.1845733"><ele>178.0</ele><time>2026-04-26T08:47:53.27Z</time></trkpt><trkpt lat="43.604565" lon="13.18442"><ele>178.0</ele><time>2026-04-26T08:47:54.27Z</time></trkpt><trkpt lat="43.6044917" lon="13.184235"><ele>178.0</ele><time>2026-04-26T08:47:55.27Z</time></trkpt><trkpt lat="43.6044167" lon="13.1840433"><ele>178.0</ele><time>2026-04-26T08:47:56.27Z</time></trkpt><trkpt lat="43.6043517" lon="13.18386"><ele>179.0</ele><time>2026-04-26T08:47:57.27Z</time></trkpt><trkpt lat="43.6043" lon="13.1837067"><ele>180.0</ele><time>2026-04-26T08:47:58.27Z</time></trkpt><trkpt lat="43.6042483" lon="13.1835633"><ele>181.0</ele><time>2026-04-26T08:47:59.27Z</time></trkpt><trkpt lat="43.604205" lon="13.1834333"><ele>182.0</ele><time>2026-04-26T08:48:00.27Z</time></trkpt><trkpt lat="43.604155" lon="13.1833067"><ele>183.0</ele><time>2026-04-26T08:48:01.27Z</time></trkpt><trkpt lat="43.6040967" lon="13.1832067"><ele>183.2</ele><time>2026-04-26T08:48:02.27Z</time></trkpt><trkpt lat="43.6040267" lon="13.1831233"><ele>183.4</ele><time>2026-04-26T08:48:03.27Z</time></trkpt><trkpt lat="43.6039383" lon="13.1830667"><ele>183.6</ele><time>2026-04-26T08:48:04.27Z</time></trkpt><trkpt lat="43.60382" lon="13.183045"><ele>183.79999999999998</ele><time>2026-04-26T08:48:05.27Z</time></trkpt><trkpt lat="43.6036833" lon="13.1830517"><ele>184.0</ele><time>2026-04-26T08:48:06.27Z</time></trkpt><trkpt lat="43.603545" lon="13.1830583"><ele>185.75</ele><time>2026-04-26T08:48:07.27Z</time></trkpt><trkpt lat="43.603408" lon="13.1830725"><ele>187.5</ele><time>2026-04-26T08:48:08.271Z</time></trkpt><trkpt lat="43.6032637" lon="13.18309"><ele>189.25</ele><time>2026-04-26T08:48:09.27Z</time></trkpt><trkpt lat="43.6031314" lon="13.1831036"><ele>191.0</ele><time>2026-04-26T08:48:10.27Z</time></trkpt><trkpt lat="43.6030066" lon="13.1831227"><ele>191.0</ele><time>2026-04-26T08:48:11.27Z</time></trkpt><trkpt lat="43.6028809" lon="13.1831424"><ele>191.0</ele><time>2026-04-26T08:48:12.27Z</time></trkpt><trkpt lat="43.6027564" lon="13.1831444"><ele>191.0</ele><time>2026-04-26T08:48:13.27Z</time></trkpt><trkpt lat="43.6026382" lon="13.1831206"><ele>191.0</ele><time>2026-04-26T08:48:14.271Z</time></trkpt><trkpt lat="43.6025146" lon="13.1830737"><ele>190.20000000000002</ele><time>2026-04-26T08:48:15.27Z</time></trkpt><trkpt lat="43.6024076" lon="13.1830124"><ele>189.4</ele><time>2026-04-26T08:48:16.27Z</time></trkpt><trkpt lat="43.6023141" lon="13.1829531"><ele>188.6</ele><time>2026-04-26T08:48:17.27Z</time></trkpt><trkpt lat="43.6022374" lon="13.1829179"><ele>187.8</ele><time>2026-04-26T08:48:18.27Z</time></trkpt><trkpt lat="43.602162" lon="13.182914"><ele>187.0</ele><time>2026-04-26T08:48:19.27Z</time></trkpt><trkpt lat="43.6020777" lon="13.1829295"><ele>187.0</ele><time>2026-04-26T08:48:20.27Z</time></trkpt><trkpt lat="43.6019819" lon="13.1829703"><ele>187.0</ele><time>2026-04-26T08:48:21.27Z</time></trkpt><trkpt lat="43.6018759" lon="13.183028"><ele>187.0</ele><time>2026-04-26T08:48:22.27Z</time></trkpt><trkpt lat="43.6017683" lon="13.1830556"><ele>187.0</ele><time>2026-04-26T08:48:23.271Z</time></trkpt><trkpt lat="43.6016633" lon="13.1830257"><ele>187.0</ele><time>2026-04-26T08:48:24.27Z</time></trkpt><trkpt lat="43.6015603" lon="13.1829406"><ele>187.0</ele><time>2026-04-26T08:48:25.27Z</time></trkpt><trkpt lat="43.6014589" lon="13.1828195"><ele>187.0</ele><time>2026-04-26T08:48:26.271Z</time></trkpt><trkpt lat="43.6013656" lon="13.1826834"><ele>187.0</ele><time>2026-04-26T08:48:27.27Z</time></trkpt><trkpt lat="43.6012721" lon="13.1825417"><ele>187.0</ele><time>2026-04-26T08:48:28.27Z</time></trkpt><trkpt lat="43.6011737" lon="13.1823821"><ele>188.5</ele><time>2026-04-26T08:48:29.27Z</time></trkpt><trkpt lat="43.6010759" lon="13.1822189"><ele>190.0</ele><time>2026-04-26T08:48:30.27Z</time></trkpt><trkpt lat="43.6009859" lon="13.1820716"><ele>191.5</ele><time>2026-04-26T08:48:31.27Z</time></trkpt><trkpt lat="43.6008985" lon="13.1819369"><ele>193.0</ele><time>2026-04-26T08:48:32.27Z</time></trkpt><trkpt lat="43.6008056" lon="13.1818192"><ele>193.0</ele><time>2026-04-26T08:48:33.27Z</time></trkpt><trkpt lat="43.6007114" lon="13.1817138"><ele>193.0</ele><time>2026-04-26T08:48:34.271Z</time></trkpt><trkpt lat="43.6006206" lon="13.1816116"><ele>193.0</ele><time>2026-04-26T08:48:35.27Z</time></trkpt><trkpt lat="43.6005431" lon="13.181508"><ele>193.0</ele><time>2026-04-26T08:48:36.27Z</time></trkpt><trkpt lat="43.6004723" lon="13.1813954"><ele>193.0</ele><time>2026-04-26T08:48:37.27Z</time></trkpt><trkpt lat="43.6004081" lon="13.1812593"><ele>193.0</ele><time>2026-04-26T08:48:38.27Z</time></trkpt><trkpt lat="43.6003447" lon="13.1811099"><ele>193.0</ele><time>2026-04-26T08:48:39.27Z</time></trkpt><trkpt lat="43.6002865" lon="13.1809491"><ele>193.0</ele><time>2026-04-26T08:48:40.27Z</time></trkpt><trkpt lat="43.6002257" lon="13.1807796"><ele>193.25</ele><time>2026-04-26T08:48:41.27Z</time></trkpt><trkpt lat="43.6001758" lon="13.1806099"><ele>193.5</ele><time>2026-04-26T08:48:42.27Z</time></trkpt><trkpt lat="43.6001297" lon="13.1804355"><ele>193.75</ele><time>2026-04-26T08:48:43.27Z</time></trkpt><trkpt lat="43.6000906" lon="13.1802604"><ele>194.0</ele><time>2026-04-26T08:48:44.27Z</time></trkpt><trkpt lat="43.6000499" lon="13.1800915"><ele>194.0</ele><time>2026-04-26T08:48:45.27Z</time></trkpt><trkpt lat="43.5999966" lon="13.1799451"><ele>194.0</ele><time>2026-04-26T08:48:46.27Z</time></trkpt><trkpt lat="43.5999316" lon="13.1798117"><ele>194.0</ele><time>2026-04-26T08:48:47.27Z</time></trkpt><trkpt lat="43.5998518" lon="13.1797006"><ele>194.0</ele><time>2026-04-26T08:48:48.27Z</time></trkpt><trkpt lat="43.5997546" lon="13.17961"><ele>192.75</ele><time>2026-04-26T08:48:49.271Z</time></trkpt><trkpt lat="43.5996364" lon="13.1795251"><ele>191.5</ele><time>2026-04-26T08:48:50.27Z</time></trkpt><trkpt lat="43.5995048" lon="13.1794481"><ele>190.25</ele><time>2026-04-26T08:48:51.27Z</time></trkpt><trkpt lat="43.5993713" lon="13.1793742"><ele>189.0</ele><time>2026-04-26T08:48:52.27Z</time></trkpt><trkpt lat="43.5992468" lon="13.1792896"><ele>189.0</ele><time>2026-04-26T08:48:53.27Z</time></trkpt><trkpt lat="43.5991228" lon="13.1791985"><ele>189.0</ele><time>2026-04-26T08:48:54.27Z</time></trkpt><trkpt lat="43.5990058" lon="13.1791033"><ele>189.0</ele><time>2026-04-26T08:48:55.27Z</time></trkpt><trkpt lat="43.5988761" lon="13.1790051"><ele>189.0</ele><time>2026-04-26T08:48:56.27Z</time></trkpt><trkpt lat="43.598744" lon="13.178906"><ele>188.33333333333334</ele><time>2026-04-26T08:48:57.27Z</time></trkpt><trkpt lat="43.598603" lon="13.1787929"><ele>187.66666666666669</ele><time>2026-04-26T08:48:58.27Z</time></trkpt><trkpt lat="43.5984582" lon="13.1786829"><ele>187.0</ele><time>2026-04-26T08:48:59.27Z</time></trkpt><trkpt lat="43.5983212" lon="13.1785636"><ele>187.0</ele><time>2026-04-26T08:49:00.27Z</time></trkpt><trkpt lat="43.5981812" lon="13.1784497"><ele>187.0</ele><time>2026-04-26T08:49:01.27Z</time></trkpt><trkpt lat="43.5980439" lon="13.178338"><ele>187.0</ele><time>2026-04-26T08:49:02.27Z</time></trkpt><trkpt lat="43.5979029" lon="13.1782386"><ele>186.66666666666669</ele><time>2026-04-26T08:49:03.27Z</time></trkpt><trkpt lat="43.5977605" lon="13.1781415"><ele>186.33333333333334</ele><time>2026-04-26T08:49:04.27Z</time></trkpt><trkpt lat="43.5976161" lon="13.1780412"><ele>186.0</ele><time>2026-04-26T08:49:05.27Z</time></trkpt><trkpt lat="43.5974828" lon="13.1779333"><ele>186.0</ele><time>2026-04-26T08:49:06.271Z</time></trkpt><trkpt lat="43.5973501" lon="13.1778025"><ele>186.0</ele><time>2026-04-26T08:49:07.27Z</time></trkpt><trkpt lat="43.5972226" lon="13.1776565"><ele>186.0</ele><time>2026-04-26T08:49:08.27Z</time></trkpt><trkpt lat="43.5970948" lon="13.1775044"><ele>186.0</ele><time>2026-04-26T08:49:09.27Z</time></trkpt><trkpt lat="43.5969715" lon="13.1773583"><ele>186.0</ele><time>2026-04-26T08:49:10.27Z</time></trkpt><trkpt lat="43.5968582" lon="13.1772237"><ele>186.0</ele><time>2026-04-26T08:49:11.27Z</time></trkpt><trkpt lat="43.5967394" lon="13.1770898"><ele>187.5</ele><time>2026-04-26T08:49:12.27Z</time></trkpt><trkpt lat="43.5966287" lon="13.1769546"><ele>189.0</ele><time>2026-04-26T08:49:13.27Z</time></trkpt><trkpt lat="43.5965289" lon="13.1768128"><ele>190.5</ele><time>2026-04-26T08:49:14.27Z</time></trkpt><trkpt lat="43.5964202" lon="13.176658"><ele>192.0</ele><time>2026-04-26T08:49:15.27Z</time></trkpt><trkpt lat="43.5963136" lon="13.176488"><ele>192.0</ele><time>2026-04-26T08:49:16.27Z</time></trkpt><trkpt lat="43.5962111" lon="13.1763001"><ele>192.0</ele><time>2026-04-26T08:49:17.27Z</time></trkpt><trkpt lat="43.5961117" lon="13.1761065"><ele>192.0</ele><time>2026-04-26T08:49:18.271Z</time></trkpt><trkpt lat="43.5960147" lon="13.1759283"><ele>192.25</ele><time>2026-04-26T08:49:19.271Z</time></trkpt><trkpt lat="43.5959215" lon="13.1757766"><ele>192.5</ele><time>2026-04-26T08:49:20.271Z</time></trkpt><trkpt lat="43.5958212" lon="13.1756339"><ele>192.75</ele><time>2026-04-26T08:49:21.271Z</time></trkpt><trkpt lat="43.5956964" lon="13.1754935"><ele>193.0</ele><time>2026-04-26T08:49:22.27Z</time></trkpt><trkpt lat="43.5955602" lon="13.1753583"><ele>193.0</ele><time>2026-04-26T08:49:23.27Z</time></trkpt><trkpt lat="43.5954125" lon="13.1752187"><ele>193.0</ele><time>2026-04-26T08:49:24.271Z</time></trkpt><trkpt lat="43.5952718" lon="13.1750823"><ele>193.0</ele><time>2026-04-26T08:49:25.271Z</time></trkpt><trkpt lat="43.595143" lon="13.1749494"><ele>195.5</ele><time>2026-04-26T08:49:26.27Z</time></trkpt><trkpt lat="43.5950295" lon="13.1748222"><ele>198.0</ele><time>2026-04-26T08:49:27.27Z</time></trkpt><trkpt lat="43.5949332" lon="13.1747087"><ele>200.5</ele><time>2026-04-26T08:49:28.27Z</time></trkpt><trkpt lat="43.5948535" lon="13.1746055"><ele>203.0</ele><time>2026-04-26T08:49:29.27Z</time></trkpt><trkpt lat="43.5947782" lon="13.17451"><ele>203.0</ele><time>2026-04-26T08:49:30.27Z</time></trkpt><trkpt lat="43.5946971" lon="13.174402"><ele>203.0</ele><time>2026-04-26T08:49:31.27Z</time></trkpt><trkpt lat="43.5946037" lon="13.1742728"><ele>203.0</ele><time>2026-04-26T08:49:32.27Z</time></trkpt><trkpt lat="43.594502" lon="13.1741258"><ele>203.0</ele><time>2026-04-26T08:49:33.27Z</time></trkpt><trkpt lat="43.5943897" lon="13.1739744"><ele>204.33333333333334</ele><time>2026-04-26T08:49:34.27Z</time></trkpt><trkpt lat="43.594265" lon="13.1738129"><ele>205.66666666666669</ele><time>2026-04-26T08:49:35.27Z</time></trkpt><trkpt lat="43.5941332" lon="13.1736494"><ele>207.0</ele><time>2026-04-26T08:49:36.27Z</time></trkpt><trkpt lat="43.593995" lon="13.1735005"><ele>207.0</ele><time>2026-04-26T08:49:37.27Z</time></trkpt><trkpt lat="43.59385" lon="13.1733716"><ele>207.0</ele><time>2026-04-26T08:49:38.27Z</time></trkpt><trkpt lat="43.5937212" lon="13.1732814"><ele>207.0</ele><time>2026-04-26T08:49:39.27Z</time></trkpt><trkpt lat="43.5935964" lon="13.1732154"><ele>210.75</ele><time>2026-04-26T08:49:40.27Z</time></trkpt><trkpt lat="43.5934739" lon="13.1731589"><ele>214.5</ele><time>2026-04-26T08:49:41.27Z</time></trkpt><trkpt lat="43.5933567" lon="13.1731071"><ele>218.25</ele><time>2026-04-26T08:49:42.27Z</time></trkpt><trkpt lat="43.5932395" lon="13.1730739"><ele>222.0</ele><time>2026-04-26T08:49:43.27Z</time></trkpt><trkpt lat="43.593127" lon="13.1730735"><ele>222.0</ele><time>2026-04-26T08:49:44.27Z</time></trkpt><trkpt lat="43.5930173" lon="13.1731039"><ele>222.0</ele><time>2026-04-26T08:49:45.27Z</time></trkpt><trkpt lat="43.592911" lon="13.173133"><ele>222.0</ele><time>2026-04-26T08:49:46.27Z</time></trkpt><trkpt lat="43.5928078" lon="13.1731415"><ele>222.0</ele><time>2026-04-26T08:49:47.27Z</time></trkpt><trkpt lat="43.5927151" lon="13.1731146"><ele>222.0</ele><time>2026-04-26T08:49:48.27Z</time></trkpt><trkpt lat="43.5926233" lon="13.173045"><ele>222.2</ele><time>2026-04-26T08:49:49.27Z</time></trkpt><trkpt lat="43.5925317" lon="13.172965"><ele>222.39999999999998</ele><time>2026-04-26T08:49:50.271Z</time></trkpt><trkpt lat="43.5924383" lon="13.1728767"><ele>222.60000000000002</ele><time>2026-04-26T08:49:51.27Z</time></trkpt><trkpt lat="43.5923583" lon="13.17278"><ele>222.8</ele><time>2026-04-26T08:49:52.27Z</time></trkpt><trkpt lat="43.5922833" lon="13.172675"><ele>223.0</ele><time>2026-04-26T08:49:53.27Z</time></trkpt><trkpt lat="43.5922083" lon="13.1725583"><ele>223.0</ele><time>2026-04-26T08:49:54.271Z</time></trkpt><trkpt lat="43.5921283" lon="13.172445"><ele>223.0</ele><time>2026-04-26T08:49:55.27Z</time></trkpt><trkpt lat="43.5920483" lon="13.1723367"><ele>223.0</ele><time>2026-04-26T08:49:56.27Z</time></trkpt><trkpt lat="43.5919683" lon="13.1722417"><ele>223.0</ele><time>2026-04-26T08:49:57.27Z</time></trkpt><trkpt lat="43.5918817" lon="13.1721533"><ele>223.0</ele><time>2026-04-26T08:49:58.27Z</time></trkpt><trkpt lat="43.5917933" lon="13.1720667"><ele>221.75</ele><time>2026-04-26T08:49:59.27Z</time></trkpt><trkpt lat="43.5916967" lon="13.1719867"><ele>220.5</ele><time>2026-04-26T08:50:00.27Z</time></trkpt><trkpt lat="43.5915917" lon="13.1719167"><ele>219.25</ele><time>2026-04-26T08:50:01.27Z</time></trkpt><trkpt lat="43.5914833" lon="13.1718567"><ele>218.0</ele><time>2026-04-26T08:50:02.27Z</time></trkpt><trkpt lat="43.5913867" lon="13.1717917"><ele>218.0</ele><time>2026-04-26T08:50:03.27Z</time></trkpt><trkpt lat="43.5912783" lon="13.171725"><ele>218.0</ele><time>2026-04-26T08:50:04.27Z</time></trkpt><trkpt lat="43.5911717" lon="13.1716517"><ele>218.0</ele><time>2026-04-26T08:50:05.27Z</time></trkpt><trkpt lat="43.5910717" lon="13.171575"><ele>218.0</ele><time>2026-04-26T08:50:06.27Z</time></trkpt><trkpt lat="43.59097" lon="13.1715017"><ele>215.8</ele><time>2026-04-26T08:50:07.27Z</time></trkpt><trkpt lat="43.5908683" lon="13.17143"><ele>213.60000000000002</ele><time>2026-04-26T08:50:08.27Z</time></trkpt><trkpt lat="43.590775" lon="13.1713667"><ele>211.39999999999998</ele><time>2026-04-26T08:50:09.27Z</time></trkpt><trkpt lat="43.59069" lon="13.1713083"><ele>209.2</ele><time>2026-04-26T08:50:10.27Z</time></trkpt><trkpt lat="43.59061" lon="13.1712483"><ele>207.0</ele><time>2026-04-26T08:50:11.27Z</time></trkpt><trkpt lat="43.59054" lon="13.17119"><ele>207.0</ele><time>2026-04-26T08:50:12.27Z</time></trkpt><trkpt lat="43.5904733" lon="13.1711467"><ele>207.0</ele><time>2026-04-26T08:50:13.271Z</time></trkpt><trkpt lat="43.5904067" lon="13.1711133"><ele>207.0</ele><time>2026-04-26T08:50:14.27Z</time></trkpt><trkpt lat="43.5903467" lon="13.1710767"><ele>207.0</ele><time>2026-04-26T08:50:15.27Z</time></trkpt><trkpt lat="43.5902517" lon="13.17104"><ele>207.0</ele><time>2026-04-26T08:50:17.27Z</time></trkpt><trkpt lat="43.5901167" lon="13.1710833"><ele>207.0</ele><time>2026-04-26T08:50:19.27Z</time></trkpt><trkpt lat="43.590005" lon="13.1711317"><ele>204.33333333333331</ele><time>2026-04-26T08:50:20.27Z</time></trkpt><trkpt lat="43.58986" lon="13.17117"><ele>201.66666666666666</ele><time>2026-04-26T08:50:21.27Z</time></trkpt><trkpt lat="43.589695" lon="13.1711833"><ele>199.0</ele><time>2026-04-26T08:50:22.271Z</time></trkpt><trkpt lat="43.5895083" lon="13.1711817"><ele>199.0</ele><time>2026-04-26T08:50:23.27Z</time></trkpt><trkpt lat="43.5893267" lon="13.1711817"><ele>199.0</ele><time>2026-04-26T08:50:24.27Z</time></trkpt><trkpt lat="43.5891483" lon="13.1711617"><ele>199.0</ele><time>2026-04-26T08:50:25.27Z</time></trkpt><trkpt lat="43.588975" lon="13.1711417"><ele>199.0</ele><time>2026-04-26T08:50:26.27Z</time></trkpt><trkpt lat="43.5888033" lon="13.17111"><ele>199.0</ele><time>2026-04-26T08:50:27.271Z</time></trkpt><trkpt lat="43.5886367" lon="13.1710683"><ele>199.0</ele><time>2026-04-26T08:50:28.27Z</time></trkpt><trkpt lat="43.5884817" lon="13.1710333"><ele>201.0</ele><time>2026-04-26T08:50:29.27Z</time></trkpt><trkpt lat="43.5883183" lon="13.1710083"><ele>203.0</ele><time>2026-04-26T08:50:30.27Z</time></trkpt><trkpt lat="43.5881583" lon="13.1709817"><ele>205.0</ele><time>2026-04-26T08:50:31.271Z</time></trkpt><trkpt lat="43.5880067" lon="13.1709633"><ele>205.0</ele><time>2026-04-26T08:50:32.27Z</time></trkpt><trkpt lat="43.587845" lon="13.17095"><ele>205.0</ele><time>2026-04-26T08:50:33.27Z</time></trkpt><trkpt lat="43.587685" lon="13.170935"><ele>205.0</ele><time>2026-04-26T08:50:34.27Z</time></trkpt><trkpt lat="43.5875267" lon="13.170925"><ele>206.0</ele><time>2026-04-26T08:50:35.27Z</time></trkpt><trkpt lat="43.587365" lon="13.17091"><ele>207.0</ele><time>2026-04-26T08:50:36.27Z</time></trkpt><trkpt lat="43.5872067" lon="13.1708983"><ele>208.0</ele><time>2026-04-26T08:50:37.27Z</time></trkpt><trkpt lat="43.5870533" lon="13.1708833"><ele>208.0</ele><time>2026-04-26T08:50:38.27Z</time></trkpt><trkpt lat="43.5869067" lon="13.170865"><ele>208.0</ele><time>2026-04-26T08:50:39.27Z</time></trkpt><trkpt lat="43.5867617" lon="13.1708467"><ele>208.0</ele><time>2026-04-26T08:50:40.27Z</time></trkpt><trkpt lat="43.5866133" lon="13.170815"><ele>208.0</ele><time>2026-04-26T08:50:41.27Z</time></trkpt><trkpt lat="43.5864583" lon="13.1707683"><ele>208.0</ele><time>2026-04-26T08:50:42.27Z</time></trkpt><trkpt lat="43.5862967" lon="13.1706933"><ele>208.0</ele><time>2026-04-26T08:50:43.27Z</time></trkpt><trkpt lat="43.5861483" lon="13.1706117"><ele>208.0</ele><time>2026-04-26T08:50:44.271Z</time></trkpt><trkpt lat="43.5860033" lon="13.1705133"><ele>209.0</ele><time>2026-04-26T08:50:45.271Z</time></trkpt><trkpt lat="43.5858667" lon="13.170415"><ele>210.0</ele><time>2026-04-26T08:50:46.27Z</time></trkpt><trkpt lat="43.5857383" lon="13.1703083"><ele>211.0</ele><time>2026-04-26T08:50:47.27Z</time></trkpt><trkpt lat="43.5856183" lon="13.1702"><ele>212.0</ele><time>2026-04-26T08:50:48.271Z</time></trkpt><trkpt lat="43.5854983" lon="13.1701"><ele>212.0</ele><time>2026-04-26T08:50:49.27Z</time></trkpt><trkpt lat="43.5853833" lon="13.170015"><ele>212.0</ele><time>2026-04-26T08:50:50.27Z</time></trkpt><trkpt lat="43.58527" lon="13.1699367"><ele>212.0</ele><time>2026-04-26T08:50:51.27Z</time></trkpt><trkpt lat="43.5851467" lon="13.1698717"><ele>212.0</ele><time>2026-04-26T08:50:52.27Z</time></trkpt><trkpt lat="43.5850267" lon="13.1698117"><ele>212.75</ele><time>2026-04-26T08:50:53.27Z</time></trkpt><trkpt lat="43.58491" lon="13.1697467"><ele>213.5</ele><time>2026-04-26T08:50:54.27Z</time></trkpt><trkpt lat="43.5847867" lon="13.16968"><ele>214.25</ele><time>2026-04-26T08:50:55.27Z</time></trkpt><trkpt lat="43.5846533" lon="13.1696183"><ele>215.0</ele><time>2026-04-26T08:50:56.27Z</time></trkpt><trkpt lat="43.5845183" lon="13.16956"><ele>216.5</ele><time>2026-04-26T08:50:57.27Z</time></trkpt><trkpt lat="43.5843783" lon="13.1695017"><ele>218.0</ele><time>2026-04-26T08:50:58.27Z</time></trkpt><trkpt lat="43.5842533" lon="13.1694467"><ele>219.5</ele><time>2026-04-26T08:50:59.27Z</time></trkpt><trkpt lat="43.5841367" lon="13.1693983"><ele>221.0</ele><time>2026-04-26T08:51:00.27Z</time></trkpt><trkpt lat="43.5840133" lon="13.1693367"><ele>221.0</ele><time>2026-04-26T08:51:01.27Z</time></trkpt><trkpt lat="43.5838817" lon="13.169285"><ele>221.0</ele><time>2026-04-26T08:51:02.27Z</time></trkpt><trkpt lat="43.58376" lon="13.1692183"><ele>221.0</ele><time>2026-04-26T08:51:03.27Z</time></trkpt><trkpt lat="43.5836417" lon="13.1691717"><ele>221.0</ele><time>2026-04-26T08:51:04.27Z</time></trkpt><trkpt lat="43.5835367" lon="13.169115"><ele>221.8</ele><time>2026-04-26T08:51:05.27Z</time></trkpt><trkpt lat="43.583425" lon="13.16907"><ele>222.60000000000002</ele><time>2026-04-26T08:51:06.27Z</time></trkpt><trkpt lat="43.5833217" lon="13.1690283"><ele>223.4</ele><time>2026-04-26T08:51:07.27Z</time></trkpt><trkpt lat="43.58322" lon="13.1689867"><ele>224.2</ele><time>2026-04-26T08:51:08.27Z</time></trkpt><trkpt lat="43.5831317" lon="13.16894"><ele>225.0</ele><time>2026-04-26T08:51:09.27Z</time></trkpt><trkpt lat="43.583065" lon="13.1689083"><ele>225.0</ele><time>2026-04-26T08:51:10.27Z</time></trkpt><trkpt lat="43.5829767" lon="13.1688667"><ele>225.0</ele><time>2026-04-26T08:51:12.27Z</time></trkpt><trkpt lat="43.5828817" lon="13.1687783"><ele>225.0</ele><time>2026-04-26T08:51:14.27Z</time></trkpt><trkpt lat="43.5828217" lon="13.1687133"><ele>225.0</ele><time>2026-04-26T08:51:15.27Z</time></trkpt><trkpt lat="43.58274" lon="13.1686383"><ele>225.0</ele><time>2026-04-26T08:51:16.27Z</time></trkpt><trkpt lat="43.58265" lon="13.1685367"><ele>225.6</ele><time>2026-04-26T08:51:17.27Z</time></trkpt><trkpt lat="43.582555" lon="13.1684183"><ele>226.2</ele><time>2026-04-26T08:51:18.27Z</time></trkpt><trkpt lat="43.5824733" lon="13.1683117"><ele>226.8</ele><time>2026-04-26T08:51:19.27Z</time></trkpt><trkpt lat="43.582395" lon="13.1682117"><ele>227.4</ele><time>2026-04-26T08:51:20.27Z</time></trkpt><trkpt lat="43.5823283" lon="13.16811"><ele>228.0</ele><time>2026-04-26T08:51:21.27Z</time></trkpt><trkpt lat="43.58226" lon="13.1680067"><ele>228.0</ele><time>2026-04-26T08:51:22.27Z</time></trkpt><trkpt lat="43.58218" lon="13.1679167"><ele>228.0</ele><time>2026-04-26T08:51:23.27Z</time></trkpt><trkpt lat="43.5821117" lon="13.1678283"><ele>228.0</ele><time>2026-04-26T08:51:24.27Z</time></trkpt><trkpt lat="43.5820533" lon="13.167745"><ele>228.0</ele><time>2026-04-26T08:51:25.27Z</time></trkpt><trkpt lat="43.5819867" lon="13.1676783"><ele>228.0</ele><time>2026-04-26T08:51:26.27Z</time></trkpt><trkpt lat="43.58192" lon="13.167605"><ele>228.0</ele><time>2026-04-26T08:51:27.27Z</time></trkpt><trkpt lat="43.5818483" lon="13.1675233"><ele>229.0</ele><time>2026-04-26T08:51:28.271Z</time></trkpt><trkpt lat="43.5817833" lon="13.16743"><ele>230.0</ele><time>2026-04-26T08:51:29.27Z</time></trkpt><trkpt lat="43.581715" lon="13.1673367"><ele>231.0</ele><time>2026-04-26T08:51:30.27Z</time></trkpt><trkpt lat="43.5816517" lon="13.1672467"><ele>232.0</ele><time>2026-04-26T08:51:31.27Z</time></trkpt><trkpt lat="43.5815883" lon="13.1671617"><ele>233.0</ele><time>2026-04-26T08:51:32.27Z</time></trkpt><trkpt lat="43.5815217" lon="13.1671133"><ele>234.0</ele><time>2026-04-26T08:51:33.27Z</time></trkpt><trkpt lat="43.5814533" lon="13.1670967"><ele>234.0</ele><time>2026-04-26T08:51:34.27Z</time></trkpt><trkpt lat="43.5813783" lon="13.1671267"><ele>233.99999999999997</ele><time>2026-04-26T08:51:35.27Z</time></trkpt><trkpt lat="43.5813017" lon="13.16721"><ele>233.99999999999997</ele><time>2026-04-26T08:51:36.27Z</time></trkpt><trkpt lat="43.58122" lon="13.1672933"><ele>234.0</ele><time>2026-04-26T08:51:37.27Z</time></trkpt><trkpt lat="43.581135" lon="13.1673883"><ele>234.0</ele><time>2026-04-26T08:51:38.27Z</time></trkpt><trkpt lat="43.58105" lon="13.1674867"><ele>234.6</ele><time>2026-04-26T08:51:39.27Z</time></trkpt><trkpt lat="43.5809667" lon="13.1675767"><ele>235.2</ele><time>2026-04-26T08:51:40.27Z</time></trkpt><trkpt lat="43.5808917" lon="13.16766"><ele>235.79999999999998</ele><time>2026-04-26T08:51:41.27Z</time></trkpt><trkpt lat="43.5808067" lon="13.1677117"><ele>236.39999999999998</ele><time>2026-04-26T08:51:42.27Z</time></trkpt><trkpt lat="43.58072" lon="13.1677283"><ele>237.0</ele><time>2026-04-26T08:51:43.27Z</time></trkpt><trkpt lat="43.5806183" lon="13.1677117"><ele>237.0</ele><time>2026-04-26T08:51:44.27Z</time></trkpt><trkpt lat="43.5805183" lon="13.167655"><ele>237.0</ele><time>2026-04-26T08:51:45.271Z</time></trkpt><trkpt lat="43.5804133" lon="13.1675767"><ele>237.0</ele><time>2026-04-26T08:51:46.27Z</time></trkpt><trkpt lat="43.580305" lon="13.1674917"><ele>237.0</ele><time>2026-04-26T08:51:47.27Z</time></trkpt><trkpt lat="43.5801967" lon="13.16742"><ele>238.39999999999998</ele><time>2026-04-26T08:51:48.27Z</time></trkpt><trkpt lat="43.5800867" lon="13.1673483"><ele>239.79999999999998</ele><time>2026-04-26T08:51:49.27Z</time></trkpt><trkpt lat="43.5799933" lon="13.1672717"><ele>241.2</ele><time>2026-04-26T08:51:50.27Z</time></trkpt><trkpt lat="43.5799067" lon="13.1672017"><ele>242.6</ele><time>2026-04-26T08:51:51.27Z</time></trkpt><trkpt lat="43.57982" lon="13.1671367"><ele>244.0</ele><time>2026-04-26T08:51:52.271Z</time></trkpt><trkpt lat="43.5797383" lon="13.1670767"><ele>244.0</ele><time>2026-04-26T08:51:53.27Z</time></trkpt><trkpt lat="43.5796483" lon="13.1670283"><ele>243.99999999999997</ele><time>2026-04-26T08:51:54.27Z</time></trkpt><trkpt lat="43.5795683" lon="13.1669717"><ele>243.99999999999997</ele><time>2026-04-26T08:51:55.271Z</time></trkpt><trkpt lat="43.5794883" lon="13.1669133"><ele>244.0</ele><time>2026-04-26T08:51:56.27Z</time></trkpt><trkpt lat="43.5794033" lon="13.1668517"><ele>244.0</ele><time>2026-04-26T08:51:57.27Z</time></trkpt><trkpt lat="43.5793067" lon="13.166785"><ele>243.2</ele><time>2026-04-26T08:51:58.27Z</time></trkpt><trkpt lat="43.5792133" lon="13.1667117"><ele>242.39999999999998</ele><time>2026-04-26T08:51:59.27Z</time></trkpt><trkpt lat="43.5791233" lon="13.1666467"><ele>241.6</ele><time>2026-04-26T08:52:00.27Z</time></trkpt><trkpt lat="43.579035" lon="13.1665883"><ele>240.8</ele><time>2026-04-26T08:52:01.27Z</time></trkpt><trkpt lat="43.5789283" lon="13.1665267"><ele>240.0</ele><time>2026-04-26T08:52:02.27Z</time></trkpt><trkpt lat="43.57881" lon="13.166445"><ele>240.0</ele><time>2026-04-26T08:52:03.27Z</time></trkpt><trkpt lat="43.5786983" lon="13.166365"><ele>240.0</ele><time>2026-04-26T08:52:04.27Z</time></trkpt><trkpt lat="43.5786217" lon="13.1662733"><ele>240.0</ele><time>2026-04-26T08:52:05.27Z</time></trkpt><trkpt lat="43.578565" lon="13.166165"><ele>240.0</ele><time>2026-04-26T08:52:06.271Z</time></trkpt><trkpt lat="43.578525" lon="13.166035"><ele>240.0</ele><time>2026-04-26T08:52:07.27Z</time></trkpt><trkpt lat="43.5785" lon="13.1658967"><ele>236.25</ele><time>2026-04-26T08:52:08.27Z</time></trkpt><trkpt lat="43.5784883" lon="13.1657433"><ele>232.5</ele><time>2026-04-26T08:52:09.27Z</time></trkpt><trkpt lat="43.57849" lon="13.1655833"><ele>228.75</ele><time>2026-04-26T08:52:10.27Z</time></trkpt><trkpt lat="43.5784967" lon="13.1654133"><ele>225.0</ele><time>2026-04-26T08:52:11.27Z</time></trkpt><trkpt lat="43.5785083" lon="13.1652467"><ele>223.75</ele><time>2026-04-26T08:52:12.271Z</time></trkpt><trkpt lat="43.57852" lon="13.1650817"><ele>222.5</ele><time>2026-04-26T08:52:13.27Z</time></trkpt><trkpt lat="43.5785267" lon="13.1649267"><ele>221.25</ele><time>2026-04-26T08:52:14.27Z</time></trkpt><trkpt lat="43.57853" lon="13.1647733"><ele>220.0</ele><time>2026-04-26T08:52:15.27Z</time></trkpt><trkpt lat="43.57854" lon="13.1646267"><ele>219.0</ele><time>2026-04-26T08:52:16.27Z</time></trkpt><trkpt lat="43.578545" lon="13.1644817"><ele>218.0</ele><time>2026-04-26T08:52:17.27Z</time></trkpt><trkpt lat="43.5785533" lon="13.164345"><ele>217.0</ele><time>2026-04-26T08:52:18.27Z</time></trkpt><trkpt lat="43.5785517" lon="13.16419"><ele>216.0</ele><time>2026-04-26T08:52:19.27Z</time></trkpt><trkpt lat="43.5785517" lon="13.1640467"><ele>215.0</ele><time>2026-04-26T08:52:20.27Z</time></trkpt><trkpt lat="43.57855" lon="13.16389"><ele>214.75</ele><time>2026-04-26T08:52:21.27Z</time></trkpt><trkpt lat="43.57854" lon="13.1637217"><ele>214.5</ele><time>2026-04-26T08:52:22.27Z</time></trkpt><trkpt lat="43.5785283" lon="13.16355"><ele>214.25</ele><time>2026-04-26T08:52:23.27Z</time></trkpt><trkpt lat="43.5785067" lon="13.16339"><ele>214.0</ele><time>2026-04-26T08:52:24.271Z</time></trkpt><trkpt lat="43.5784867" lon="13.1632383"><ele>214.5</ele><time>2026-04-26T08:52:25.27Z</time></trkpt><trkpt lat="43.5784583" lon="13.1630933"><ele>215.0</ele><time>2026-04-26T08:52:26.27Z</time></trkpt><trkpt lat="43.5784217" lon="13.1629417"><ele>215.5</ele><time>2026-04-26T08:52:27.27Z</time></trkpt><trkpt lat="43.5783733" lon="13.1627883"><ele>216.0</ele><time>2026-04-26T08:52:28.27Z</time></trkpt><trkpt lat="43.57833" lon="13.1626433"><ele>216.0</ele><time>2026-04-26T08:52:29.27Z</time></trkpt><trkpt lat="43.5782867" lon="13.1624933"><ele>216.0</ele><time>2026-04-26T08:52:30.271Z</time></trkpt><trkpt lat="43.5782433" lon="13.1623483"><ele>216.0</ele><time>2026-04-26T08:52:31.27Z</time></trkpt><trkpt lat="43.5782167" lon="13.1621933"><ele>216.0</ele><time>2026-04-26T08:52:32.27Z</time></trkpt><trkpt lat="43.57819" lon="13.1620333"><ele>215.5</ele><time>2026-04-26T08:52:33.27Z</time></trkpt><trkpt lat="43.5781833" lon="13.161865"><ele>215.0</ele><time>2026-04-26T08:52:34.27Z</time></trkpt><trkpt lat="43.5781833" lon="13.1617017"><ele>214.5</ele><time>2026-04-26T08:52:35.27Z</time></trkpt><trkpt lat="43.5782" lon="13.1615467"><ele>214.0</ele><time>2026-04-26T08:52:36.27Z</time></trkpt><trkpt lat="43.5782133" lon="13.1613883"><ele>212.79999999999998</ele><time>2026-04-26T08:52:37.271Z</time></trkpt><trkpt lat="43.5782333" lon="13.1612433"><ele>211.59999999999997</ele><time>2026-04-26T08:52:38.271Z</time></trkpt><trkpt lat="43.578255" lon="13.1610983"><ele>210.4</ele><time>2026-04-26T08:52:39.27Z</time></trkpt><trkpt lat="43.5782783" lon="13.1609467"><ele>209.2</ele><time>2026-04-26T08:52:40.271Z</time></trkpt><trkpt lat="43.5783133" lon="13.1608067"><ele>208.0</ele><time>2026-04-26T08:52:41.27Z</time></trkpt><trkpt lat="43.57836" lon="13.160675"><ele>207.0</ele><time>2026-04-26T08:52:42.27Z</time></trkpt><trkpt lat="43.5784283" lon="13.1605583"><ele>206.0</ele><time>2026-04-26T08:52:43.27Z</time></trkpt><trkpt lat="43.5785083" lon="13.160445"><ele>205.0</ele><time>2026-04-26T08:52:44.27Z</time></trkpt><trkpt lat="43.5785883" lon="13.1603117"><ele>204.0</ele><time>2026-04-26T08:52:45.27Z</time></trkpt><trkpt lat="43.57866" lon="13.1601617"><ele>204.5</ele><time>2026-04-26T08:52:46.27Z</time></trkpt><trkpt lat="43.5787117" lon="13.1599817"><ele>205.0</ele><time>2026-04-26T08:52:47.27Z</time></trkpt><trkpt lat="43.5787417" lon="13.1597867"><ele>205.5</ele><time>2026-04-26T08:52:48.27Z</time></trkpt><trkpt lat="43.5787533" lon="13.1595867"><ele>206.0</ele><time>2026-04-26T08:52:49.27Z</time></trkpt><trkpt lat="43.5787483" lon="13.1593933"><ele>204.25</ele><time>2026-04-26T08:52:50.27Z</time></trkpt><trkpt lat="43.5787433" lon="13.1592183"><ele>202.5</ele><time>2026-04-26T08:52:51.271Z</time></trkpt><trkpt lat="43.5787433" lon="13.15906"><ele>200.75</ele><time>2026-04-26T08:52:52.27Z</time></trkpt><trkpt lat="43.5787317" lon="13.1588983"><ele>199.0</ele><time>2026-04-26T08:52:53.27Z</time></trkpt><trkpt lat="43.5787167" lon="13.15873"><ele>199.0</ele><time>2026-04-26T08:52:54.27Z</time></trkpt><trkpt lat="43.5787017" lon="13.158555"><ele>199.0</ele><time>2026-04-26T08:52:55.27Z</time></trkpt><trkpt lat="43.5786733" lon="13.1583917"><ele>199.0</ele><time>2026-04-26T08:52:56.27Z</time></trkpt><trkpt lat="43.5786467" lon="13.15822"><ele>199.0</ele><time>2026-04-26T08:52:57.27Z</time></trkpt><trkpt lat="43.5786233" lon="13.1580583"><ele>199.2</ele><time>2026-04-26T08:52:58.27Z</time></trkpt><trkpt lat="43.5785967" lon="13.1579117"><ele>199.39999999999998</ele><time>2026-04-26T08:52:59.27Z</time></trkpt><trkpt lat="43.5785667" lon="13.1577567"><ele>199.6</ele><time>2026-04-26T08:53:00.27Z</time></trkpt><trkpt lat="43.57854" lon="13.1576133"><ele>199.8</ele><time>2026-04-26T08:53:01.27Z</time></trkpt><trkpt lat="43.5785167" lon="13.1574667"><ele>200.0</ele><time>2026-04-26T08:53:02.27Z</time></trkpt><trkpt lat="43.5784817" lon="13.1573183"><ele>200.0</ele><time>2026-04-26T08:53:03.27Z</time></trkpt><trkpt lat="43.578435" lon="13.157145"><ele>200.0</ele><time>2026-04-26T08:53:04.27Z</time></trkpt><trkpt lat="43.57838" lon="13.1569617"><ele>200.0</ele><time>2026-04-26T08:53:05.27Z</time></trkpt><trkpt lat="43.578315" lon="13.1567883"><ele>200.0</ele><time>2026-04-26T08:53:06.271Z</time></trkpt><trkpt lat="43.57825" lon="13.1566167"><ele>198.75</ele><time>2026-04-26T08:53:07.27Z</time></trkpt><trkpt lat="43.578195" lon="13.1564533"><ele>197.5</ele><time>2026-04-26T08:53:08.27Z</time></trkpt><trkpt lat="43.5781517" lon="13.1562917"><ele>196.25</ele><time>2026-04-26T08:53:09.27Z</time></trkpt><trkpt lat="43.5780967" lon="13.1561317"><ele>195.0</ele><time>2026-04-26T08:53:10.27Z</time></trkpt><trkpt lat="43.5780467" lon="13.15597"><ele>195.0</ele><time>2026-04-26T08:53:11.27Z</time></trkpt><trkpt lat="43.5779917" lon="13.1558067"><ele>195.0</ele><time>2026-04-26T08:53:12.27Z</time></trkpt><trkpt lat="43.5779367" lon="13.15565"><ele>195.0</ele><time>2026-04-26T08:53:13.27Z</time></trkpt><trkpt lat="43.5778867" lon="13.1554983"><ele>195.0</ele><time>2026-04-26T08:53:14.27Z</time></trkpt><trkpt lat="43.5778383" lon="13.1553567"><ele>195.8</ele><time>2026-04-26T08:53:15.271Z</time></trkpt><trkpt lat="43.5777883" lon="13.1552167"><ele>196.6</ele><time>2026-04-26T08:53:16.27Z</time></trkpt><trkpt lat="43.577735" lon="13.1550917"><ele>197.39999999999998</ele><time>2026-04-26T08:53:17.27Z</time></trkpt><trkpt lat="43.5776883" lon="13.15496"><ele>198.2</ele><time>2026-04-26T08:53:18.27Z</time></trkpt><trkpt lat="43.57765" lon="13.1548267"><ele>199.0</ele><time>2026-04-26T08:53:19.27Z</time></trkpt><trkpt lat="43.5776233" lon="13.1546867"><ele>199.0</ele><time>2026-04-26T08:53:20.27Z</time></trkpt><trkpt lat="43.5776083" lon="13.15453"><ele>199.0</ele><time>2026-04-26T08:53:21.27Z</time></trkpt><trkpt lat="43.5775967" lon="13.15436"><ele>199.0</ele><time>2026-04-26T08:53:22.27Z</time></trkpt><trkpt lat="43.5775867" lon="13.1541733"><ele>199.0</ele><time>2026-04-26T08:53:23.271Z</time></trkpt><trkpt lat="43.5775817" lon="13.1539983"><ele>199.25</ele><time>2026-04-26T08:53:24.271Z</time></trkpt><trkpt lat="43.5775683" lon="13.15383"><ele>199.5</ele><time>2026-04-26T08:53:25.27Z</time></trkpt><trkpt lat="43.57756" lon="13.1536567"><ele>199.75</ele><time>2026-04-26T08:53:26.27Z</time></trkpt><trkpt lat="43.577555" lon="13.1534733"><ele>200.0</ele><time>2026-04-26T08:53:27.27Z</time></trkpt><trkpt lat="43.5775417" lon="13.1532983"><ele>200.4</ele><time>2026-04-26T08:53:28.27Z</time></trkpt><trkpt lat="43.577535" lon="13.1531383"><ele>200.8</ele><time>2026-04-26T08:53:29.271Z</time></trkpt><trkpt lat="43.5775267" lon="13.1529817"><ele>201.2</ele><time>2026-04-26T08:53:30.27Z</time></trkpt><trkpt lat="43.57751" lon="13.1528383"><ele>201.6</ele><time>2026-04-26T08:53:31.27Z</time></trkpt><trkpt lat="43.5774917" lon="13.1527"><ele>202.0</ele><time>2026-04-26T08:53:32.27Z</time></trkpt><trkpt lat="43.5774767" lon="13.1525517"><ele>202.0</ele><time>2026-04-26T08:53:33.27Z</time></trkpt><trkpt lat="43.5774633" lon="13.1524033"><ele>202.0</ele><time>2026-04-26T08:53:34.27Z</time></trkpt><trkpt lat="43.577455" lon="13.152255"><ele>202.0</ele><time>2026-04-26T08:53:35.271Z</time></trkpt><trkpt lat="43.5774567" lon="13.1521033"><ele>202.0</ele><time>2026-04-26T08:53:36.27Z</time></trkpt><trkpt lat="43.5774667" lon="13.151945"><ele>202.0</ele><time>2026-04-26T08:53:37.27Z</time></trkpt><trkpt lat="43.5774817" lon="13.15178"><ele>202.0</ele><time>2026-04-26T08:53:38.27Z</time></trkpt><trkpt lat="43.5774967" lon="13.1516117"><ele>202.0</ele><time>2026-04-26T08:53:39.27Z</time></trkpt><trkpt lat="43.5775083" lon="13.15144"><ele>202.0</ele><time>2026-04-26T08:53:40.27Z</time></trkpt><trkpt lat="43.5775283" lon="13.1512633"><ele>202.0</ele><time>2026-04-26T08:53:41.27Z</time></trkpt><trkpt lat="43.5775483" lon="13.1510767"><ele>202.5</ele><time>2026-04-26T08:53:42.27Z</time></trkpt><trkpt lat="43.5775633" lon="13.1508833"><ele>203.0</ele><time>2026-04-26T08:53:43.27Z</time></trkpt><trkpt lat="43.57758" lon="13.1507017"><ele>203.5</ele><time>2026-04-26T08:53:44.27Z</time></trkpt><trkpt lat="43.5776" lon="13.1505267"><ele>204.0</ele><time>2026-04-26T08:53:45.27Z</time></trkpt><trkpt lat="43.5776283" lon="13.150355"><ele>204.5</ele><time>2026-04-26T08:53:46.27Z</time></trkpt><trkpt lat="43.5776517" lon="13.1501867"><ele>205.0</ele><time>2026-04-26T08:53:47.27Z</time></trkpt><trkpt lat="43.57768" lon="13.15002"><ele>205.5</ele><time>2026-04-26T08:53:48.27Z</time></trkpt><trkpt lat="43.57771" lon="13.14987"><ele>206.0</ele><time>2026-04-26T08:53:49.27Z</time></trkpt><trkpt lat="43.5777383" lon="13.1497233"><ele>206.20000000000002</ele><time>2026-04-26T08:53:50.27Z</time></trkpt><trkpt lat="43.5777633" lon="13.1495833"><ele>206.4</ele><time>2026-04-26T08:53:51.271Z</time></trkpt><trkpt lat="43.5778017" lon="13.149445"><ele>206.6</ele><time>2026-04-26T08:53:52.27Z</time></trkpt><trkpt lat="43.5778417" lon="13.1492967"><ele>206.8</ele><time>2026-04-26T08:53:53.27Z</time></trkpt><trkpt lat="43.5778717" lon="13.1491533"><ele>207.0</ele><time>2026-04-26T08:53:54.27Z</time></trkpt><trkpt lat="43.5779133" lon="13.1490167"><ele>207.0</ele><time>2026-04-26T08:53:55.27Z</time></trkpt><trkpt lat="43.577965" lon="13.1488833"><ele>207.0</ele><time>2026-04-26T08:53:56.27Z</time></trkpt><trkpt lat="43.57803" lon="13.1487417"><ele>207.0</ele><time>2026-04-26T08:53:57.27Z</time></trkpt><trkpt lat="43.5781" lon="13.148615"><ele>207.0</ele><time>2026-04-26T08:53:58.27Z</time></trkpt><trkpt lat="43.57817" lon="13.148485"><ele>207.0</ele><time>2026-04-26T08:53:59.271Z</time></trkpt><trkpt lat="43.578245" lon="13.1483467"><ele>207.0</ele><time>2026-04-26T08:54:00.271Z</time></trkpt><trkpt lat="43.578315" lon="13.14821"><ele>207.0</ele><time>2026-04-26T08:54:01.27Z</time></trkpt><trkpt lat="43.5783833" lon="13.148065"><ele>207.0</ele><time>2026-04-26T08:54:02.27Z</time></trkpt><trkpt lat="43.5784433" lon="13.14792"><ele>207.0</ele><time>2026-04-26T08:54:03.27Z</time></trkpt><trkpt lat="43.578495" lon="13.1477733"><ele>207.0</ele><time>2026-04-26T08:54:04.27Z</time></trkpt><trkpt lat="43.5785517" lon="13.1476317"><ele>207.0</ele><time>2026-04-26T08:54:05.27Z</time></trkpt><trkpt lat="43.5786033" lon="13.1474833"><ele>207.0</ele><time>2026-04-26T08:54:06.27Z</time></trkpt><trkpt lat="43.578655" lon="13.1473367"><ele>206.75</ele><time>2026-04-26T08:54:07.27Z</time></trkpt><trkpt lat="43.5787067" lon="13.1471833"><ele>206.5</ele><time>2026-04-26T08:54:08.27Z</time></trkpt><trkpt lat="43.5787567" lon="13.1470217"><ele>206.25</ele><time>2026-04-26T08:54:09.27Z</time></trkpt><trkpt lat="43.5788033" lon="13.1468617"><ele>206.0</ele><time>2026-04-26T08:54:10.27Z</time></trkpt><trkpt lat="43.57885" lon="13.1467033"><ele>206.0</ele><time>2026-04-26T08:54:11.27Z</time></trkpt><trkpt lat="43.5788983" lon="13.14655"><ele>206.0</ele><time>2026-04-26T08:54:12.27Z</time></trkpt><trkpt lat="43.5789483" lon="13.1464017"><ele>206.0</ele><time>2026-04-26T08:54:13.27Z</time></trkpt><trkpt lat="43.5789917" lon="13.1462533"><ele>206.0</ele><time>2026-04-26T08:54:14.27Z</time></trkpt><trkpt lat="43.5790267" lon="13.146095"><ele>206.25</ele><time>2026-04-26T08:54:15.271Z</time></trkpt><trkpt lat="43.5790517" lon="13.1459183"><ele>206.5</ele><time>2026-04-26T08:54:16.27Z</time></trkpt><trkpt lat="43.5790567" lon="13.1457333"><ele>206.75</ele><time>2026-04-26T08:54:17.27Z</time></trkpt><trkpt lat="43.5790617" lon="13.1455417"><ele>207.0</ele><time>2026-04-26T08:54:18.27Z</time></trkpt><trkpt lat="43.5790417" lon="13.145335"><ele>207.0</ele><time>2026-04-26T08:54:19.27Z</time></trkpt><trkpt lat="43.5790217" lon="13.1451383"><ele>207.0</ele><time>2026-04-26T08:54:20.27Z</time></trkpt><trkpt lat="43.579" lon="13.1449683"><ele>207.0</ele><time>2026-04-26T08:54:21.27Z</time></trkpt><trkpt lat="43.5789867" lon="13.1448083"><ele>207.0</ele><time>2026-04-26T08:54:22.27Z</time></trkpt><trkpt lat="43.5789733" lon="13.144655"><ele>207.39999999999998</ele><time>2026-04-26T08:54:23.27Z</time></trkpt><trkpt lat="43.5789567" lon="13.1445083"><ele>207.79999999999998</ele><time>2026-04-26T08:54:24.27Z</time></trkpt><trkpt lat="43.5789383" lon="13.1443567"><ele>208.2</ele><time>2026-04-26T08:54:25.27Z</time></trkpt><trkpt lat="43.5789183" lon="13.1442083"><ele>208.6</ele><time>2026-04-26T08:54:26.27Z</time></trkpt><trkpt lat="43.5789017" lon="13.144055"><ele>209.0</ele><time>2026-04-26T08:54:27.27Z</time></trkpt><trkpt lat="43.5788733" lon="13.143895"><ele>209.25</ele><time>2026-04-26T08:54:28.27Z</time></trkpt><trkpt lat="43.5788367" lon="13.1437367"><ele>209.5</ele><time>2026-04-26T08:54:29.27Z</time></trkpt><trkpt lat="43.578795" lon="13.1435783"><ele>209.75</ele><time>2026-04-26T08:54:30.27Z</time></trkpt><trkpt lat="43.5787433" lon="13.14341"><ele>210.0</ele><time>2026-04-26T08:54:31.27Z</time></trkpt><trkpt lat="43.5786883" lon="13.1432383"><ele>209.75</ele><time>2026-04-26T08:54:32.27Z</time></trkpt><trkpt lat="43.5786267" lon="13.1430717"><ele>209.5</ele><time>2026-04-26T08:54:33.27Z</time></trkpt><trkpt lat="43.57857" lon="13.14293"><ele>209.25</ele><time>2026-04-26T08:54:34.27Z</time></trkpt><trkpt lat="43.57852" lon="13.1428"><ele>209.0</ele><time>2026-04-26T08:54:35.27Z</time></trkpt><trkpt lat="43.57848" lon="13.1426683"><ele>209.0</ele><time>2026-04-26T08:54:36.27Z</time></trkpt><trkpt lat="43.57845" lon="13.142545"><ele>209.0</ele><time>2026-04-26T08:54:37.27Z</time></trkpt><trkpt lat="43.5784267" lon="13.1424167"><ele>209.0</ele><time>2026-04-26T08:54:38.27Z</time></trkpt><trkpt lat="43.57842" lon="13.142295"><ele>209.0</ele><time>2026-04-26T08:54:39.271Z</time></trkpt><trkpt lat="43.5784183" lon="13.142175"><ele>209.0</ele><time>2026-04-26T08:54:40.27Z</time></trkpt><trkpt lat="43.5784283" lon="13.142055"><ele>209.0</ele><time>2026-04-26T08:54:41.27Z</time></trkpt><trkpt lat="43.57844" lon="13.1419167"><ele>209.0</ele><time>2026-04-26T08:54:42.27Z</time></trkpt><trkpt lat="43.5784583" lon="13.1417583"><ele>209.0</ele><time>2026-04-26T08:54:43.27Z</time></trkpt><trkpt lat="43.5784633" lon="13.1415967"><ele>209.0</ele><time>2026-04-26T08:54:44.271Z</time></trkpt><trkpt lat="43.5784567" lon="13.141435"><ele>209.0</ele><time>2026-04-26T08:54:45.27Z</time></trkpt><trkpt lat="43.578445" lon="13.14127"><ele>209.0</ele><time>2026-04-26T08:54:46.27Z</time></trkpt><trkpt lat="43.5784217" lon="13.141125"><ele>209.0</ele><time>2026-04-26T08:54:47.27Z</time></trkpt><trkpt lat="43.5783883" lon="13.140995"><ele>209.0</ele><time>2026-04-26T08:54:48.27Z</time></trkpt><trkpt lat="43.578355" lon="13.1408483"><ele>209.0</ele><time>2026-04-26T08:54:49.27Z</time></trkpt><trkpt lat="43.5783183" lon="13.14069"><ele>209.0</ele><time>2026-04-26T08:54:50.27Z</time></trkpt><trkpt lat="43.5782817" lon="13.1405367"><ele>209.0</ele><time>2026-04-26T08:54:51.27Z</time></trkpt><trkpt lat="43.5782583" lon="13.1403883"><ele>209.0</ele><time>2026-04-26T08:54:52.27Z</time></trkpt><trkpt lat="43.5782383" lon="13.1402317"><ele>209.0</ele><time>2026-04-26T08:54:53.27Z</time></trkpt><trkpt lat="43.5782283" lon="13.14007"><ele>209.0</ele><time>2026-04-26T08:54:54.27Z</time></trkpt><trkpt lat="43.5782167" lon="13.139905"><ele>209.0</ele><time>2026-04-26T08:54:55.27Z</time></trkpt><trkpt lat="43.5782133" lon="13.139735"><ele>209.0</ele><time>2026-04-26T08:54:56.27Z</time></trkpt><trkpt lat="43.5782083" lon="13.139565"><ele>209.0</ele><time>2026-04-26T08:54:57.27Z</time></trkpt><trkpt lat="43.5782067" lon="13.1394"><ele>209.75</ele><time>2026-04-26T08:54:58.27Z</time></trkpt><trkpt lat="43.5782" lon="13.139235"><ele>210.5</ele><time>2026-04-26T08:54:59.27Z</time></trkpt><trkpt lat="43.578195" lon="13.1390683"><ele>211.25</ele><time>2026-04-26T08:55:00.27Z</time></trkpt><trkpt lat="43.5781883" lon="13.1389033"><ele>212.0</ele><time>2026-04-26T08:55:01.27Z</time></trkpt><trkpt lat="43.5781883" lon="13.1387517"><ele>212.2</ele><time>2026-04-26T08:55:02.271Z</time></trkpt><trkpt lat="43.5781867" lon="13.1386117"><ele>212.39999999999998</ele><time>2026-04-26T08:55:03.27Z</time></trkpt><trkpt lat="43.578175" lon="13.13848"><ele>212.60000000000002</ele><time>2026-04-26T08:55:04.27Z</time></trkpt><trkpt lat="43.57817" lon="13.1383467"><ele>212.8</ele><time>2026-04-26T08:55:05.271Z</time></trkpt><trkpt lat="43.5781733" lon="13.138215"><ele>213.0</ele><time>2026-04-26T08:55:06.271Z</time></trkpt><trkpt lat="43.57817" lon="13.13807"><ele>213.0</ele><time>2026-04-26T08:55:07.27Z</time></trkpt><trkpt lat="43.578175" lon="13.1379217"><ele>213.0</ele><time>2026-04-26T08:55:08.27Z</time></trkpt><trkpt lat="43.5781867" lon="13.1377583"><ele>213.0</ele><time>2026-04-26T08:55:09.27Z</time></trkpt><trkpt lat="43.5782" lon="13.1375883"><ele>213.0</ele><time>2026-04-26T08:55:10.27Z</time></trkpt><trkpt lat="43.5782183" lon="13.1374117"><ele>212.0</ele><time>2026-04-26T08:55:11.27Z</time></trkpt><trkpt lat="43.5782367" lon="13.137245"><ele>211.0</ele><time>2026-04-26T08:55:12.27Z</time></trkpt><trkpt lat="43.5782567" lon="13.1370867"><ele>210.0</ele><time>2026-04-26T08:55:13.27Z</time></trkpt><trkpt lat="43.57828" lon="13.136925"><ele>209.0</ele><time>2026-04-26T08:55:14.27Z</time></trkpt><trkpt lat="43.5782983" lon="13.1367667"><ele>209.0</ele><time>2026-04-26T08:55:15.27Z</time></trkpt><trkpt lat="43.57831" lon="13.136615"><ele>209.0</ele><time>2026-04-26T08:55:16.27Z</time></trkpt><trkpt lat="43.57833" lon="13.1364667"><ele>209.0</ele><time>2026-04-26T08:55:17.27Z</time></trkpt><trkpt lat="43.5783433" lon="13.1363217"><ele>209.0</ele><time>2026-04-26T08:55:18.27Z</time></trkpt><trkpt lat="43.57834" lon="13.1361817"><ele>209.0</ele><time>2026-04-26T08:55:19.27Z</time></trkpt><trkpt lat="43.5783233" lon="13.1360433"><ele>208.33333333333334</ele><time>2026-04-26T08:55:20.27Z</time></trkpt><trkpt lat="43.5783" lon="13.13592"><ele>207.66666666666669</ele><time>2026-04-26T08:55:21.271Z</time></trkpt><trkpt lat="43.57827" lon="13.1358"><ele>207.0</ele><time>2026-04-26T08:55:22.27Z</time></trkpt><trkpt lat="43.578255" lon="13.1356783"><ele>206.33333333333331</ele><time>2026-04-26T08:55:23.27Z</time></trkpt><trkpt lat="43.57826" lon="13.13556"><ele>205.66666666666666</ele><time>2026-04-26T08:55:24.27Z</time></trkpt><trkpt lat="43.5782983" lon="13.1354533"><ele>205.0</ele><time>2026-04-26T08:55:25.27Z</time></trkpt><trkpt lat="43.5783767" lon="13.1353833"><ele>202.8</ele><time>2026-04-26T08:55:26.27Z</time></trkpt><trkpt lat="43.5784767" lon="13.1353483"><ele>200.6</ele><time>2026-04-26T08:55:27.27Z</time></trkpt><trkpt lat="43.5785933" lon="13.1353317"><ele>198.39999999999998</ele><time>2026-04-26T08:55:28.27Z</time></trkpt><trkpt lat="43.5787083" lon="13.1353283"><ele>196.2</ele><time>2026-04-26T08:55:29.27Z</time></trkpt><trkpt lat="43.5788167" lon="13.135325"><ele>194.0</ele><time>2026-04-26T08:55:30.27Z</time></trkpt><trkpt lat="43.578925" lon="13.135315"><ele>193.79999999999998</ele><time>2026-04-26T08:55:31.271Z</time></trkpt><trkpt lat="43.5790267" lon="13.13531"><ele>193.6</ele><time>2026-04-26T08:55:32.27Z</time></trkpt><trkpt lat="43.579135" lon="13.1352983"><ele>193.4</ele><time>2026-04-26T08:55:33.271Z</time></trkpt><trkpt lat="43.5792433" lon="13.135285"><ele>193.2</ele><time>2026-04-26T08:55:34.27Z</time></trkpt><trkpt lat="43.579345" lon="13.1352833"><ele>193.0</ele><time>2026-04-26T08:55:35.271Z</time></trkpt><trkpt lat="43.5794383" lon="13.1352783"><ele>192.4</ele><time>2026-04-26T08:55:36.271Z</time></trkpt><trkpt lat="43.57954" lon="13.135275"><ele>191.8</ele><time>2026-04-26T08:55:37.27Z</time></trkpt><trkpt lat="43.5796383" lon="13.1352667"><ele>191.2</ele><time>2026-04-26T08:55:38.27Z</time></trkpt><trkpt lat="43.5797267" lon="13.13526"><ele>190.6</ele><time>2026-04-26T08:55:39.27Z</time></trkpt><trkpt lat="43.579815" lon="13.1352517"><ele>190.0</ele><time>2026-04-26T08:55:40.27Z</time></trkpt><trkpt lat="43.5799" lon="13.1352433"><ele>190.0</ele><time>2026-04-26T08:55:41.271Z</time></trkpt><trkpt lat="43.5799767" lon="13.1352417"><ele>190.0</ele><time>2026-04-26T08:55:42.271Z</time></trkpt><trkpt lat="43.5800417" lon="13.13523"><ele>190.0</ele><time>2026-04-26T08:55:43.27Z</time></trkpt><trkpt lat="43.58015" lon="13.1351533"><ele>190.0</ele><time>2026-04-26T08:55:45.27Z</time></trkpt><trkpt lat="43.58019" lon="13.13507"><ele>190.0</ele><time>2026-04-26T08:55:46.27Z</time></trkpt><trkpt lat="43.5802367" lon="13.1349517"><ele>190.0</ele><time>2026-04-26T08:55:47.27Z</time></trkpt><trkpt lat="43.580285" lon="13.1348"><ele>189.75</ele><time>2026-04-26T08:55:48.27Z</time></trkpt><trkpt lat="43.5803417" lon="13.1346533"><ele>189.5</ele><time>2026-04-26T08:55:49.27Z</time></trkpt><trkpt lat="43.580405" lon="13.1345067"><ele>189.25</ele><time>2026-04-26T08:55:50.27Z</time></trkpt><trkpt lat="43.58048" lon="13.1343467"><ele>189.0</ele><time>2026-04-26T08:55:51.27Z</time></trkpt><trkpt lat="43.5805533" lon="13.1341933"><ele>189.75</ele><time>2026-04-26T08:55:52.27Z</time></trkpt><trkpt lat="43.5806183" lon="13.134035"><ele>190.5</ele><time>2026-04-26T08:55:53.27Z</time></trkpt><trkpt lat="43.580675" lon="13.1338683"><ele>191.25</ele><time>2026-04-26T08:55:54.27Z</time></trkpt><trkpt lat="43.580725" lon="13.1337"><ele>192.0</ele><time>2026-04-26T08:55:55.271Z</time></trkpt><trkpt lat="43.5807533" lon="13.1335233"><ele>192.0</ele><time>2026-04-26T08:55:56.27Z</time></trkpt><trkpt lat="43.58077" lon="13.1333467"><ele>192.0</ele><time>2026-04-26T08:55:57.27Z</time></trkpt><trkpt lat="43.5807733" lon="13.1331717"><ele>192.0</ele><time>2026-04-26T08:55:58.27Z</time></trkpt><trkpt lat="43.5807817" lon="13.133"><ele>192.0</ele><time>2026-04-26T08:55:59.271Z</time></trkpt><trkpt lat="43.5807917" lon="13.13283"><ele>192.39999999999998</ele><time>2026-04-26T08:56:00.27Z</time></trkpt><trkpt lat="43.580785" lon="13.13266"><ele>192.79999999999998</ele><time>2026-04-26T08:56:01.27Z</time></trkpt><trkpt lat="43.5807517" lon="13.13251"><ele>193.2</ele><time>2026-04-26T08:56:02.27Z</time></trkpt><trkpt lat="43.5807117" lon="13.1323733"><ele>193.6</ele><time>2026-04-26T08:56:03.27Z</time></trkpt><trkpt lat="43.5806717" lon="13.1322683"><ele>194.0</ele><time>2026-04-26T08:56:04.27Z</time></trkpt><trkpt lat="43.5806333" lon="13.13219"><ele>194.6</ele><time>2026-04-26T08:56:05.27Z</time></trkpt><trkpt lat="43.5805567" lon="13.1320567"><ele>195.2</ele><time>2026-04-26T08:56:07.27Z</time></trkpt><trkpt lat="43.580515" lon="13.1319867"><ele>195.79999999999998</ele><time>2026-04-26T08:56:08.271Z</time></trkpt><trkpt lat="43.5804767" lon="13.1319017"><ele>196.39999999999998</ele><time>2026-04-26T08:56:09.27Z</time></trkpt><trkpt lat="43.5804383" lon="13.1317817"><ele>197.0</ele><time>2026-04-26T08:56:10.27Z</time></trkpt><trkpt lat="43.580395" lon="13.13165"><ele>194.6</ele><time>2026-04-26T08:56:11.27Z</time></trkpt><trkpt lat="43.58034" lon="13.13152"><ele>192.2</ele><time>2026-04-26T08:56:12.271Z</time></trkpt><trkpt lat="43.5802733" lon="13.1313983"><ele>189.8</ele><time>2026-04-26T08:56:13.27Z</time></trkpt><trkpt lat="43.5801967" lon="13.1312783"><ele>187.4</ele><time>2026-04-26T08:56:14.27Z</time></trkpt><trkpt lat="43.5801217" lon="13.13116"><ele>185.0</ele><time>2026-04-26T08:56:15.27Z</time></trkpt><trkpt lat="43.5800383" lon="13.1310583"><ele>185.0</ele><time>2026-04-26T08:56:16.27Z</time></trkpt><trkpt lat="43.57995" lon="13.1309583"><ele>185.0</ele><time>2026-04-26T08:56:17.271Z</time></trkpt><trkpt lat="43.57986" lon="13.13086"><ele>185.0</ele><time>2026-04-26T08:56:18.27Z</time></trkpt><trkpt lat="43.5797617" lon="13.13076"><ele>185.0</ele><time>2026-04-26T08:56:19.27Z</time></trkpt><trkpt lat="43.57966" lon="13.1306583"><ele>183.0</ele><time>2026-04-26T08:56:20.27Z</time></trkpt><trkpt lat="43.5795533" lon="13.1305617"><ele>181.0</ele><time>2026-04-26T08:56:21.27Z</time></trkpt><trkpt lat="43.5794483" lon="13.1304633"><ele>179.0</ele><time>2026-04-26T08:56:22.27Z</time></trkpt><trkpt lat="43.5793467" lon="13.1303483"><ele>177.0</ele><time>2026-04-26T08:56:23.27Z</time></trkpt><trkpt lat="43.5792333" lon="13.130215"><ele>176.5</ele><time>2026-04-26T08:56:24.27Z</time></trkpt><trkpt lat="43.5791283" lon="13.1300583"><ele>176.0</ele><time>2026-04-26T08:56:25.27Z</time></trkpt><trkpt lat="43.5790317" lon="13.1299017"><ele>175.5</ele><time>2026-04-26T08:56:26.27Z</time></trkpt><trkpt lat="43.5789383" lon="13.12975"><ele>175.0</ele><time>2026-04-26T08:56:27.27Z</time></trkpt><trkpt lat="43.5788433" lon="13.1296033"><ele>174.0</ele><time>2026-04-26T08:56:28.27Z</time></trkpt><trkpt lat="43.5787483" lon="13.129465"><ele>173.0</ele><time>2026-04-26T08:56:29.27Z</time></trkpt><trkpt lat="43.5786533" lon="13.1293117"><ele>172.0</ele><time>2026-04-26T08:56:30.27Z</time></trkpt><trkpt lat="43.57854" lon="13.1291533"><ele>171.0</ele><time>2026-04-26T08:56:31.27Z</time></trkpt><trkpt lat="43.5784283" lon="13.1289883"><ele>170.66666666666666</ele><time>2026-04-26T08:56:32.27Z</time></trkpt><trkpt lat="43.5783133" lon="13.128835"><ele>170.33333333333331</ele><time>2026-04-26T08:56:33.27Z</time></trkpt><trkpt lat="43.5782" lon="13.1286867"><ele>170.0</ele><time>2026-04-26T08:56:34.271Z</time></trkpt><trkpt lat="43.578085" lon="13.12854"><ele>170.0</ele><time>2026-04-26T08:56:35.27Z</time></trkpt><trkpt lat="43.5779667" lon="13.1283867"><ele>170.0</ele><time>2026-04-26T08:56:36.27Z</time></trkpt><trkpt lat="43.5778433" lon="13.1282183"><ele>170.0</ele><time>2026-04-26T08:56:37.27Z</time></trkpt><trkpt lat="43.5777283" lon="13.1280467"><ele>168.33333333333331</ele><time>2026-04-26T08:56:38.27Z</time></trkpt><trkpt lat="43.5776217" lon="13.1278717"><ele>166.66666666666666</ele><time>2026-04-26T08:56:39.27Z</time></trkpt><trkpt lat="43.57752" lon="13.1276933"><ele>165.0</ele><time>2026-04-26T08:56:40.27Z</time></trkpt><trkpt lat="43.57742" lon="13.1275333"><ele>162.5</ele><time>2026-04-26T08:56:41.27Z</time></trkpt><trkpt lat="43.577335" lon="13.1273767"><ele>160.0</ele><time>2026-04-26T08:56:42.27Z</time></trkpt><trkpt lat="43.5772533" lon="13.12722"><ele>157.5</ele><time>2026-04-26T08:56:43.271Z</time></trkpt><trkpt lat="43.5771817" lon="13.1270617"><ele>155.0</ele><time>2026-04-26T08:56:44.27Z</time></trkpt><trkpt lat="43.5771317" lon="13.1269"><ele>155.0</ele><time>2026-04-26T08:56:45.27Z</time></trkpt><trkpt lat="43.577085" lon="13.1267333"><ele>155.0</ele><time>2026-04-26T08:56:46.27Z</time></trkpt><trkpt lat="43.5770467" lon="13.1265683"><ele>155.0</ele><time>2026-04-26T08:56:47.27Z</time></trkpt><trkpt lat="43.577005" lon="13.1264217"><ele>155.0</ele><time>2026-04-26T08:56:48.27Z</time></trkpt><trkpt lat="43.576955" lon="13.1262933"><ele>154.8</ele><time>2026-04-26T08:56:49.27Z</time></trkpt><trkpt lat="43.5768933" lon="13.126175"><ele>154.6</ele><time>2026-04-26T08:56:50.27Z</time></trkpt><trkpt lat="43.5768267" lon="13.12607"><ele>154.4</ele><time>2026-04-26T08:56:51.27Z</time></trkpt><trkpt lat="43.5767517" lon="13.1259633"><ele>154.2</ele><time>2026-04-26T08:56:52.27Z</time></trkpt><trkpt lat="43.5766617" lon="13.1258617"><ele>154.0</ele><time>2026-04-26T08:56:53.27Z</time></trkpt><trkpt lat="43.5765533" lon="13.1257767"><ele>153.75</ele><time>2026-04-26T08:56:54.271Z</time></trkpt><trkpt lat="43.57644" lon="13.1257033"><ele>153.5</ele><time>2026-04-26T08:56:55.27Z</time></trkpt><trkpt lat="43.5763317" lon="13.12564"><ele>153.25</ele><time>2026-04-26T08:56:56.27Z</time></trkpt><trkpt lat="43.576225" lon="13.1255933"><ele>153.0</ele><time>2026-04-26T08:56:57.27Z</time></trkpt><trkpt lat="43.5761283" lon="13.1255533"><ele>153.0</ele><time>2026-04-26T08:56:58.27Z</time></trkpt><trkpt lat="43.5760267" lon="13.12549"><ele>153.0</ele><time>2026-04-26T08:56:59.27Z</time></trkpt><trkpt lat="43.5759433" lon="13.125405"><ele>153.0</ele><time>2026-04-26T08:57:00.27Z</time></trkpt><trkpt lat="43.5758633" lon="13.1252883"><ele>153.0</ele><time>2026-04-26T08:57:01.27Z</time></trkpt><trkpt lat="43.57581" lon="13.1251417"><ele>153.0</ele><time>2026-04-26T08:57:02.27Z</time></trkpt><trkpt lat="43.5757633" lon="13.1249917"><ele>153.0</ele><time>2026-04-26T08:57:03.27Z</time></trkpt><trkpt lat="43.5757183" lon="13.1248433"><ele>153.0</ele><time>2026-04-26T08:57:04.27Z</time></trkpt><trkpt lat="43.5756767" lon="13.1247217"><ele>153.0</ele><time>2026-04-26T08:57:05.27Z</time></trkpt><trkpt lat="43.575635" lon="13.1246117"><ele>153.0</ele><time>2026-04-26T08:57:06.27Z</time></trkpt><trkpt lat="43.5755783" lon="13.124515"><ele>153.0</ele><time>2026-04-26T08:57:07.271Z</time></trkpt><trkpt lat="43.5755" lon="13.1244083"><ele>153.0</ele><time>2026-04-26T08:57:08.27Z</time></trkpt><trkpt lat="43.575425" lon="13.1243067"><ele>153.0</ele><time>2026-04-26T08:57:09.271Z</time></trkpt><trkpt lat="43.5753417" lon="13.1242033"><ele>153.0</ele><time>2026-04-26T08:57:10.27Z</time></trkpt><trkpt lat="43.575265" lon="13.1241183"><ele>153.0</ele><time>2026-04-26T08:57:11.27Z</time></trkpt><trkpt lat="43.5751883" lon="13.1240367"><ele>149.0</ele><time>2026-04-26T08:57:12.27Z</time></trkpt><trkpt lat="43.5750833" lon="13.1239567"><ele>145.0</ele><time>2026-04-26T08:57:13.27Z</time></trkpt><trkpt lat="43.5749683" lon="13.1238833"><ele>141.0</ele><time>2026-04-26T08:57:14.27Z</time></trkpt><trkpt lat="43.57485" lon="13.1238167"><ele>137.0</ele><time>2026-04-26T08:57:15.27Z</time></trkpt><trkpt lat="43.574735" lon="13.1237483"><ele>137.0</ele><time>2026-04-26T08:57:16.27Z</time></trkpt><trkpt lat="43.5746167" lon="13.1236767"><ele>137.0</ele><time>2026-04-26T08:57:17.27Z</time></trkpt><trkpt lat="43.5745033" lon="13.1236067"><ele>137.0</ele><time>2026-04-26T08:57:18.27Z</time></trkpt><trkpt lat="43.5743817" lon="13.1235333"><ele>137.0</ele><time>2026-04-26T08:57:19.27Z</time></trkpt><trkpt lat="43.5742617" lon="13.12345"><ele>137.25</ele><time>2026-04-26T08:57:20.27Z</time></trkpt><trkpt lat="43.5741583" lon="13.1233617"><ele>137.5</ele><time>2026-04-26T08:57:21.27Z</time></trkpt><trkpt lat="43.5740467" lon="13.12329"><ele>137.75</ele><time>2026-04-26T08:57:22.27Z</time></trkpt><trkpt lat="43.573935" lon="13.1232217"><ele>138.0</ele><time>2026-04-26T08:57:23.27Z</time></trkpt><trkpt lat="43.5738333" lon="13.1231367"><ele>137.20000000000002</ele><time>2026-04-26T08:57:24.27Z</time></trkpt><trkpt lat="43.5737383" lon="13.123045"><ele>136.4</ele><time>2026-04-26T08:57:25.27Z</time></trkpt><trkpt lat="43.5736617" lon="13.1229483"><ele>135.60000000000002</ele><time>2026-04-26T08:57:26.27Z</time></trkpt><trkpt lat="43.573575" lon="13.12285"><ele>134.8</ele><time>2026-04-26T08:57:27.27Z</time></trkpt><trkpt lat="43.5735017" lon="13.12275"><ele>134.0</ele><time>2026-04-26T08:57:28.271Z</time></trkpt><trkpt lat="43.573425" lon="13.1226617"><ele>134.0</ele><time>2026-04-26T08:57:29.27Z</time></trkpt><trkpt lat="43.5733383" lon="13.1225767"><ele>134.0</ele><time>2026-04-26T08:57:30.27Z</time></trkpt><trkpt lat="43.573245" lon="13.1225"><ele>134.0</ele><time>2026-04-26T08:57:31.27Z</time></trkpt><trkpt lat="43.5731517" lon="13.12243"><ele>134.0</ele><time>2026-04-26T08:57:32.27Z</time></trkpt><trkpt lat="43.5730567" lon="13.1223533"><ele>134.0</ele><time>2026-04-26T08:57:33.27Z</time></trkpt><trkpt lat="43.5729667" lon="13.12227"><ele>131.0</ele><time>2026-04-26T08:57:34.271Z</time></trkpt><trkpt lat="43.572875" lon="13.1221783"><ele>128.0</ele><time>2026-04-26T08:57:35.27Z</time></trkpt><trkpt lat="43.572775" lon="13.1220883"><ele>125.0</ele><time>2026-04-26T08:57:36.27Z</time></trkpt><trkpt lat="43.5726883" lon="13.122"><ele>122.0</ele><time>2026-04-26T08:57:37.27Z</time></trkpt><trkpt lat="43.5725917" lon="13.1219167"><ele>122.0</ele><time>2026-04-26T08:57:38.27Z</time></trkpt><trkpt lat="43.572485" lon="13.12182"><ele>122.0</ele><time>2026-04-26T08:57:39.27Z</time></trkpt><trkpt lat="43.572385" lon="13.1217167"><ele>122.0</ele><time>2026-04-26T08:57:40.271Z</time></trkpt><trkpt lat="43.572295" lon="13.1216133"><ele>122.0</ele><time>2026-04-26T08:57:41.27Z</time></trkpt><trkpt lat="43.5722133" lon="13.121515"><ele>120.25</ele><time>2026-04-26T08:57:42.27Z</time></trkpt><trkpt lat="43.5721333" lon="13.12141"><ele>118.5</ele><time>2026-04-26T08:57:43.27Z</time></trkpt><trkpt lat="43.5720517" lon="13.1213017"><ele>116.75</ele><time>2026-04-26T08:57:44.27Z</time></trkpt><trkpt lat="43.5719767" lon="13.121175"><ele>115.0</ele><time>2026-04-26T08:57:45.27Z</time></trkpt><trkpt lat="43.57191" lon="13.1210483"><ele>115.0</ele><time>2026-04-26T08:57:46.27Z</time></trkpt><trkpt lat="43.5718467" lon="13.12091"><ele>115.0</ele><time>2026-04-26T08:57:47.27Z</time></trkpt><trkpt lat="43.5717833" lon="13.1207667"><ele>115.0</ele><time>2026-04-26T08:57:48.271Z</time></trkpt><trkpt lat="43.5717183" lon="13.12063"><ele>115.0</ele><time>2026-04-26T08:57:49.27Z</time></trkpt><trkpt lat="43.5716517" lon="13.1204917"><ele>112.25</ele><time>2026-04-26T08:57:50.27Z</time></trkpt><trkpt lat="43.5715883" lon="13.12035"><ele>109.5</ele><time>2026-04-26T08:57:51.27Z</time></trkpt><trkpt lat="43.57153" lon="13.1202167"><ele>106.75</ele><time>2026-04-26T08:57:52.27Z</time></trkpt><trkpt lat="43.5714717" lon="13.12008"><ele>104.0</ele><time>2026-04-26T08:57:53.27Z</time></trkpt><trkpt lat="43.571415" lon="13.11995"><ele>101.25</ele><time>2026-04-26T08:57:54.27Z</time></trkpt><trkpt lat="43.5713533" lon="13.1198183"><ele>98.5</ele><time>2026-04-26T08:57:55.27Z</time></trkpt><trkpt lat="43.5712917" lon="13.1196833"><ele>95.75</ele><time>2026-04-26T08:57:56.27Z</time></trkpt><trkpt lat="43.5712283" lon="13.11955"><ele>93.0</ele><time>2026-04-26T08:57:57.27Z</time></trkpt><trkpt lat="43.5711667" lon="13.119415"><ele>93.0</ele><time>2026-04-26T08:57:58.27Z</time></trkpt><trkpt lat="43.5711033" lon="13.11927"><ele>93.0</ele><time>2026-04-26T08:57:59.27Z</time></trkpt><trkpt lat="43.571035" lon="13.119125"><ele>93.0</ele><time>2026-04-26T08:58:00.271Z</time></trkpt><trkpt lat="43.57097" lon="13.1189767"><ele>93.0</ele><time>2026-04-26T08:58:01.27Z</time></trkpt><trkpt lat="43.5708967" lon="13.1188333"><ele>91.75</ele><time>2026-04-26T08:58:02.27Z</time></trkpt><trkpt lat="43.570825" lon="13.118675"><ele>90.5</ele><time>2026-04-26T08:58:03.27Z</time></trkpt><trkpt lat="43.570755" lon="13.1185183"><ele>89.25</ele><time>2026-04-26T08:58:04.271Z</time></trkpt><trkpt lat="43.57069" lon="13.1183617"><ele>88.0</ele><time>2026-04-26T08:58:05.27Z</time></trkpt><trkpt lat="43.570625" lon="13.118195"><ele>87.25</ele><time>2026-04-26T08:58:06.27Z</time></trkpt><trkpt lat="43.57056" lon="13.11803"><ele>86.5</ele><time>2026-04-26T08:58:07.27Z</time></trkpt><trkpt lat="43.5704883" lon="13.11786"><ele>85.75</ele><time>2026-04-26T08:58:08.27Z</time></trkpt><trkpt lat="43.5704135" lon="13.1177006"><ele>85.0</ele><time>2026-04-26T08:58:09.271Z</time></trkpt><trkpt lat="43.5703451" lon="13.1175466"><ele>84.5</ele><time>2026-04-26T08:58:10.27Z</time></trkpt><trkpt lat="43.5702757" lon="13.1173937"><ele>84.0</ele><time>2026-04-26T08:58:11.27Z</time></trkpt><trkpt lat="43.5702094" lon="13.1172498"><ele>83.5</ele><time>2026-04-26T08:58:12.269Z</time></trkpt><trkpt lat="43.5701489" lon="13.1171163"><ele>83.0</ele><time>2026-04-26T08:58:13.27Z</time></trkpt><trkpt lat="43.5700883" lon="13.1169879"><ele>83.0</ele><time>2026-04-26T08:58:14.271Z</time></trkpt><trkpt lat="43.5700299" lon="13.1168532"><ele>83.0</ele><time>2026-04-26T08:58:15.27Z</time></trkpt><trkpt lat="43.5699775" lon="13.1167068"><ele>83.0</ele><time>2026-04-26T08:58:16.27Z</time></trkpt><trkpt lat="43.5699377" lon="13.1165328"><ele>83.0</ele><time>2026-04-26T08:58:17.27Z</time></trkpt><trkpt lat="43.5699093" lon="13.1163443"><ele>83.5</ele><time>2026-04-26T08:58:18.27Z</time></trkpt><trkpt lat="43.5698776" lon="13.1161508"><ele>84.0</ele><time>2026-04-26T08:58:19.27Z</time></trkpt><trkpt lat="43.5698504" lon="13.1159671"><ele>84.5</ele><time>2026-04-26T08:58:20.27Z</time></trkpt><trkpt lat="43.5698287" lon="13.1158043"><ele>85.0</ele><time>2026-04-26T08:58:21.271Z</time></trkpt><trkpt lat="43.5698072" lon="13.1156602"><ele>85.0</ele><time>2026-04-26T08:58:22.27Z</time></trkpt><trkpt lat="43.5697857" lon="13.1155278"><ele>85.0</ele><time>2026-04-26T08:58:23.27Z</time></trkpt><trkpt lat="43.569771" lon="13.1154217"><ele>85.0</ele><time>2026-04-26T08:58:24.27Z</time></trkpt><trkpt lat="43.5697577" lon="13.1152958"><ele>85.0</ele><time>2026-04-26T08:58:26.271Z</time></trkpt><trkpt lat="43.5696833" lon="13.1152436"><ele>85.0</ele><time>2026-04-26T08:58:34.27Z</time></trkpt><trkpt lat="43.5695859" lon="13.1153187"><ele>85.0</ele><time>2026-04-26T08:58:36.27Z</time></trkpt><trkpt lat="43.5695204" lon="13.1153834"><ele>85.0</ele><time>2026-04-26T08:58:37.27Z</time></trkpt><trkpt lat="43.5694427" lon="13.1154662"><ele>85.0</ele><time>2026-04-26T08:58:38.27Z</time></trkpt><trkpt lat="43.5693429" lon="13.1155649"><ele>85.0</ele><time>2026-04-26T08:58:39.27Z</time></trkpt><trkpt lat="43.5692195" lon="13.1156749"><ele>85.0</ele><time>2026-04-26T08:58:40.27Z</time></trkpt><trkpt lat="43.569085" lon="13.115792"><ele>85.0</ele><time>2026-04-26T08:58:41.27Z</time></trkpt><trkpt lat="43.5689452" lon="13.1159176"><ele>85.0</ele><time>2026-04-26T08:58:42.27Z</time></trkpt><trkpt lat="43.5688065" lon="13.1160387"><ele>85.0</ele><time>2026-04-26T08:58:43.27Z</time></trkpt><trkpt lat="43.5686717" lon="13.1161519"><ele>85.75</ele><time>2026-04-26T08:58:44.27Z</time></trkpt><trkpt lat="43.5685462" lon="13.1162693"><ele>86.5</ele><time>2026-04-26T08:58:45.27Z</time></trkpt><trkpt lat="43.5684289" lon="13.1163962"><ele>87.25</ele><time>2026-04-26T08:58:46.271Z</time></trkpt><trkpt lat="43.5683221" lon="13.1165337"><ele>88.0</ele><time>2026-04-26T08:58:47.27Z</time></trkpt><trkpt lat="43.5682321" lon="13.11669"><ele>89.25</ele><time>2026-04-26T08:58:48.27Z</time></trkpt><trkpt lat="43.568171" lon="13.116852"><ele>90.5</ele><time>2026-04-26T08:58:49.27Z</time></trkpt><trkpt lat="43.568127" lon="13.117006"><ele>91.75</ele><time>2026-04-26T08:58:50.271Z</time></trkpt><trkpt lat="43.5680875" lon="13.117147"><ele>93.0</ele><time>2026-04-26T08:58:51.27Z</time></trkpt><trkpt lat="43.5680428" lon="13.1172832"><ele>92.80000000000001</ele><time>2026-04-26T08:58:52.27Z</time></trkpt><trkpt lat="43.5679885" lon="13.1174131"><ele>92.6</ele><time>2026-04-26T08:58:53.27Z</time></trkpt><trkpt lat="43.5679145" lon="13.1175192"><ele>92.4</ele><time>2026-04-26T08:58:54.27Z</time></trkpt><trkpt lat="43.5678239" lon="13.1176028"><ele>92.19999999999999</ele><time>2026-04-26T08:58:55.27Z</time></trkpt><trkpt lat="43.5677167" lon="13.1176616"><ele>92.0</ele><time>2026-04-26T08:58:56.271Z</time></trkpt><trkpt lat="43.5676096" lon="13.1176837"><ele>94.5</ele><time>2026-04-26T08:58:57.27Z</time></trkpt><trkpt lat="43.5674976" lon="13.1176744"><ele>97.0</ele><time>2026-04-26T08:58:58.27Z</time></trkpt><trkpt lat="43.567386" lon="13.1176326"><ele>99.5</ele><time>2026-04-26T08:58:59.27Z</time></trkpt><trkpt lat="43.5672862" lon="13.1175677"><ele>102.0</ele><time>2026-04-26T08:59:00.27Z</time></trkpt><trkpt lat="43.5671888" lon="13.1174756"><ele>101.0</ele><time>2026-04-26T08:59:01.27Z</time></trkpt><trkpt lat="43.5670797" lon="13.1173627"><ele>100.0</ele><time>2026-04-26T08:59:02.27Z</time></trkpt><trkpt lat="43.5669676" lon="13.1172675"><ele>99.0</ele><time>2026-04-26T08:59:03.27Z</time></trkpt><trkpt lat="43.5668543" lon="13.1171892"><ele>98.0</ele><time>2026-04-26T08:59:04.27Z</time></trkpt><trkpt lat="43.5667294" lon="13.1171515"><ele>98.0</ele><time>2026-04-26T08:59:05.271Z</time></trkpt><trkpt lat="43.5665941" lon="13.1171545"><ele>98.0</ele><time>2026-04-26T08:59:06.27Z</time></trkpt><trkpt lat="43.5664539" lon="13.1171933"><ele>98.0</ele><time>2026-04-26T08:59:07.27Z</time></trkpt><trkpt lat="43.5663154" lon="13.1172533"><ele>98.0</ele><time>2026-04-26T08:59:08.27Z</time></trkpt><trkpt lat="43.5661759" lon="13.1173259"><ele>101.0</ele><time>2026-04-26T08:59:09.27Z</time></trkpt><trkpt lat="43.5660446" lon="13.117404"><ele>104.0</ele><time>2026-04-26T08:59:10.27Z</time></trkpt><trkpt lat="43.5659338" lon="13.1174894"><ele>107.0</ele><time>2026-04-26T08:59:11.27Z</time></trkpt><trkpt lat="43.565851" lon="13.1175907"><ele>110.0</ele><time>2026-04-26T08:59:12.27Z</time></trkpt><trkpt lat="43.565795" lon="13.1176919"><ele>109.99999999999999</ele><time>2026-04-26T08:59:13.27Z</time></trkpt><trkpt lat="43.5657563" lon="13.117783"><ele>110.0</ele><time>2026-04-26T08:59:14.271Z</time></trkpt><trkpt lat="43.5657284" lon="13.1178612"><ele>110.0</ele><time>2026-04-26T08:59:15.27Z</time></trkpt><trkpt lat="43.5656946" lon="13.1179617"><ele>110.0</ele><time>2026-04-26T08:59:17.27Z</time></trkpt><trkpt lat="43.5657614" lon="13.1180042"><ele>109.99999999999999</ele><time>2026-04-26T08:59:27.27Z</time></trkpt><trkpt lat="43.5657914" lon="13.1178802"><ele>110.0</ele><time>2026-04-26T08:59:29.27Z</time></trkpt><trkpt lat="43.565809" lon="13.1177804"><ele>110.0</ele><time>2026-04-26T08:59:30.27Z</time></trkpt><trkpt lat="43.5658478" lon="13.1176705"><ele>110.0</ele><time>2026-04-26T08:59:31.27Z</time></trkpt><trkpt lat="43.565929" lon="13.1175534"><ele>110.0</ele><time>2026-04-26T08:59:32.27Z</time></trkpt><trkpt lat="43.5660522" lon="13.1174497"><ele>110.0</ele><time>2026-04-26T08:59:33.27Z</time></trkpt><trkpt lat="43.566197" lon="13.1173664"><ele>107.0</ele><time>2026-04-26T08:59:34.27Z</time></trkpt><trkpt lat="43.5663402" lon="13.1172983"><ele>104.0</ele><time>2026-04-26T08:59:35.27Z</time></trkpt><trkpt lat="43.5664794" lon="13.1172418"><ele>101.0</ele><time>2026-04-26T08:59:36.27Z</time></trkpt><trkpt lat="43.5666155" lon="13.117198"><ele>98.0</ele><time>2026-04-26T08:59:37.27Z</time></trkpt><trkpt lat="43.5667506" lon="13.1171993"><ele>98.0</ele><time>2026-04-26T08:59:38.271Z</time></trkpt><trkpt lat="43.5668841" lon="13.1172442"><ele>98.0</ele><time>2026-04-26T08:59:39.27Z</time></trkpt><trkpt lat="43.567009" lon="13.1173252"><ele>98.0</ele><time>2026-04-26T08:59:40.27Z</time></trkpt><trkpt lat="43.5671193" lon="13.117423"><ele>98.0</ele><time>2026-04-26T08:59:41.27Z</time></trkpt><trkpt lat="43.5672207" lon="13.1175217"><ele>98.80000000000001</ele><time>2026-04-26T08:59:42.27Z</time></trkpt><trkpt lat="43.5673169" lon="13.1176068"><ele>99.6</ele><time>2026-04-26T08:59:43.27Z</time></trkpt><trkpt lat="43.5674147" lon="13.1176759"><ele>100.4</ele><time>2026-04-26T08:59:44.27Z</time></trkpt><trkpt lat="43.5675197" lon="13.1177106"><ele>101.19999999999999</ele><time>2026-04-26T08:59:45.27Z</time></trkpt><trkpt lat="43.5676308" lon="13.1177151"><ele>102.0</ele><time>2026-04-26T08:59:46.27Z</time></trkpt><trkpt lat="43.5677453" lon="13.1176848"><ele>102.0</ele><time>2026-04-26T08:59:47.27Z</time></trkpt><trkpt lat="43.5678582" lon="13.1176217"><ele>102.0</ele><time>2026-04-26T08:59:48.27Z</time></trkpt><trkpt lat="43.5679578" lon="13.1175218"><ele>102.0</ele><time>2026-04-26T08:59:49.27Z</time></trkpt><trkpt lat="43.5680423" lon="13.117393"><ele>102.0</ele><time>2026-04-26T08:59:50.27Z</time></trkpt><trkpt lat="43.5681033" lon="13.1172493"><ele>100.5</ele><time>2026-04-26T08:59:51.27Z</time></trkpt><trkpt lat="43.5681502" lon="13.1171122"><ele>99.0</ele><time>2026-04-26T08:59:52.27Z</time></trkpt><trkpt lat="43.5681793" lon="13.1169948"><ele>97.5</ele><time>2026-04-26T08:59:53.27Z</time></trkpt><trkpt lat="43.5682025" lon="13.1168931"><ele>96.0</ele><time>2026-04-26T08:59:54.27Z</time></trkpt><trkpt lat="43.5682147" lon="13.1167951"><ele>94.5</ele><time>2026-04-26T08:59:55.27Z</time></trkpt><trkpt lat="43.5682105" lon="13.1166947"><ele>93.0</ele><time>2026-04-26T08:59:56.27Z</time></trkpt><trkpt lat="43.5681901" lon="13.1165956"><ele>92.16666666666667</ele><time>2026-04-26T08:59:57.271Z</time></trkpt><trkpt lat="43.5681637" lon="13.116483"><ele>91.33333333333333</ele><time>2026-04-26T08:59:58.27Z</time></trkpt><trkpt lat="43.5681346" lon="13.116364"><ele>90.5</ele><time>2026-04-26T08:59:59.27Z</time></trkpt><trkpt lat="43.5681083" lon="13.1162404"><ele>89.66666666666666</ele><time>2026-04-26T09:00:00.27Z</time></trkpt><trkpt lat="43.5680777" lon="13.1161223"><ele>88.83333333333333</ele><time>2026-04-26T09:00:01.27Z</time></trkpt><trkpt lat="43.5680407" lon="13.1160132"><ele>88.0</ele><time>2026-04-26T09:00:02.27Z</time></trkpt><trkpt lat="43.5679939" lon="13.1159147"><ele>88.0</ele><time>2026-04-26T09:00:03.269Z</time></trkpt><trkpt lat="43.567933" lon="13.1158221"><ele>88.0</ele><time>2026-04-26T09:00:04.269Z</time></trkpt><trkpt lat="43.5678528" lon="13.1157366"><ele>88.0</ele><time>2026-04-26T09:00:05.27Z</time></trkpt><trkpt lat="43.5677604" lon="13.1156661"><ele>88.0</ele><time>2026-04-26T09:00:06.269Z</time></trkpt><trkpt lat="43.5676776" lon="13.1155856"><ele>88.0</ele><time>2026-04-26T09:00:07.27Z</time></trkpt><trkpt lat="43.5676053" lon="13.1154752"><ele>87.75</ele><time>2026-04-26T09:00:08.269Z</time></trkpt><trkpt lat="43.5675442" lon="13.1153419"><ele>87.5</ele><time>2026-04-26T09:00:09.27Z</time></trkpt><trkpt lat="43.5675075" lon="13.1151834"><ele>87.25</ele><time>2026-04-26T09:00:10.269Z</time></trkpt><trkpt lat="43.5674849" lon="13.1150102"><ele>87.0</ele><time>2026-04-26T09:00:11.269Z</time></trkpt><trkpt lat="43.567455" lon="13.1148215"><ele>87.0</ele><time>2026-04-26T09:00:12.269Z</time></trkpt><trkpt lat="43.5674143" lon="13.1146371"><ele>87.0</ele><time>2026-04-26T09:00:13.269Z</time></trkpt><trkpt lat="43.5673692" lon="13.1144532"><ele>87.0</ele><time>2026-04-26T09:00:14.269Z</time></trkpt><trkpt lat="43.5673151" lon="13.1142804"><ele>87.0</ele><time>2026-04-26T09:00:15.27Z</time></trkpt><trkpt lat="43.5672354" lon="13.1141157"><ele>88.33333333333333</ele><time>2026-04-26T09:00:16.269Z</time></trkpt><trkpt lat="43.5671342" lon="13.1139705"><ele>89.66666666666666</ele><time>2026-04-26T09:00:17.269Z</time></trkpt><trkpt lat="43.5670036" lon="13.1138291"><ele>91.0</ele><time>2026-04-26T09:00:18.269Z</time></trkpt><trkpt lat="43.5668603" lon="13.1136916"><ele>91.75</ele><time>2026-04-26T09:00:19.27Z</time></trkpt><trkpt lat="43.5667295" lon="13.1135771"><ele>92.5</ele><time>2026-04-26T09:00:20.269Z</time></trkpt><trkpt lat="43.5666155" lon="13.1134771"><ele>93.25</ele><time>2026-04-26T09:00:21.269Z</time></trkpt><trkpt lat="43.5665113" lon="13.1133754"><ele>94.0</ele><time>2026-04-26T09:00:22.269Z</time></trkpt><trkpt lat="43.5664243" lon="13.1132822"><ele>95.33333333333333</ele><time>2026-04-26T09:00:23.269Z</time></trkpt><trkpt lat="43.5663597" lon="13.1132014"><ele>96.66666666666666</ele><time>2026-04-26T09:00:24.269Z</time></trkpt><trkpt lat="43.5663185" lon="13.1131219"><ele>98.0</ele><time>2026-04-26T09:00:25.269Z</time></trkpt><trkpt lat="43.5662744" lon="13.1129705"><ele>99.33333333333333</ele><time>2026-04-26T09:00:27.269Z</time></trkpt><trkpt lat="43.5662816" lon="13.1128802"><ele>100.66666666666667</ele><time>2026-04-26T09:00:28.269Z</time></trkpt><trkpt lat="43.5663026" lon="13.1127859"><ele>102.0</ele><time>2026-04-26T09:00:29.269Z</time></trkpt><trkpt lat="43.566329" lon="13.1126734"><ele>102.0</ele><time>2026-04-26T09:00:30.269Z</time></trkpt><trkpt lat="43.5663578" lon="13.112541"><ele>102.0</ele><time>2026-04-26T09:00:31.27Z</time></trkpt><trkpt lat="43.5663908" lon="13.1123929"><ele>102.0</ele><time>2026-04-26T09:00:32.269Z</time></trkpt><trkpt lat="43.5664237" lon="13.1122394"><ele>102.0</ele><time>2026-04-26T09:00:33.269Z</time></trkpt><trkpt lat="43.5664507" lon="13.1120913"><ele>102.0</ele><time>2026-04-26T09:00:34.269Z</time></trkpt><trkpt lat="43.5664781" lon="13.1119447"><ele>103.6</ele><time>2026-04-26T09:00:35.269Z</time></trkpt><trkpt lat="43.5665035" lon="13.1118037"><ele>105.19999999999999</ele><time>2026-04-26T09:00:36.269Z</time></trkpt><trkpt lat="43.566527" lon="13.1116628"><ele>106.8</ele><time>2026-04-26T09:00:37.269Z</time></trkpt><trkpt lat="43.566553" lon="13.1115228"><ele>108.4</ele><time>2026-04-26T09:00:38.269Z</time></trkpt><trkpt lat="43.5665784" lon="13.1113815"><ele>110.0</ele><time>2026-04-26T09:00:39.27Z</time></trkpt><trkpt lat="43.5666034" lon="13.1112439"><ele>111.6</ele><time>2026-04-26T09:00:40.269Z</time></trkpt><trkpt lat="43.5666307" lon="13.1111092"><ele>113.2</ele><time>2026-04-26T09:00:41.269Z</time></trkpt><trkpt lat="43.5666563" lon="13.1109788"><ele>114.80000000000001</ele><time>2026-04-26T09:00:42.269Z</time></trkpt><trkpt lat="43.5666815" lon="13.1108482"><ele>116.4</ele><time>2026-04-26T09:00:43.269Z</time></trkpt><trkpt lat="43.5667051" lon="13.1107234"><ele>118.0</ele><time>2026-04-26T09:00:44.269Z</time></trkpt><trkpt lat="43.5667311" lon="13.1106002"><ele>119.00000000000001</ele><time>2026-04-26T09:00:45.269Z</time></trkpt><trkpt lat="43.5667605" lon="13.1104836"><ele>120.0</ele><time>2026-04-26T09:00:46.27Z</time></trkpt><trkpt lat="43.5667879" lon="13.1103732"><ele>121.0</ele><time>2026-04-26T09:00:47.269Z</time></trkpt><trkpt lat="43.5668039" lon="13.1102859"><ele>122.0</ele><time>2026-04-26T09:00:48.27Z</time></trkpt><trkpt lat="43.5668142" lon="13.1101615"><ele>123.00000000000001</ele><time>2026-04-26T09:00:50.269Z</time></trkpt><trkpt lat="43.5667584" lon="13.1100552"><ele>124.0</ele><time>2026-04-26T09:00:52.269Z</time></trkpt><trkpt lat="43.5667034" lon="13.1099975"><ele>124.00000000000001</ele><time>2026-04-26T09:00:53.269Z</time></trkpt><trkpt lat="43.5666362" lon="13.1099269"><ele>124.0</ele><time>2026-04-26T09:00:54.269Z</time></trkpt><trkpt lat="43.5665599" lon="13.1098502"><ele>124.0</ele><time>2026-04-26T09:00:55.269Z</time></trkpt><trkpt lat="43.5664924" lon="13.1097658"><ele>124.0</ele><time>2026-04-26T09:00:56.269Z</time></trkpt><trkpt lat="43.5664313" lon="13.1096808"><ele>124.00000000000001</ele><time>2026-04-26T09:00:57.269Z</time></trkpt><trkpt lat="43.5663801" lon="13.109593"><ele>124.0</ele><time>2026-04-26T09:00:58.269Z</time></trkpt><trkpt lat="43.5663374" lon="13.1094843"><ele>124.80000000000001</ele><time>2026-04-26T09:00:59.269Z</time></trkpt><trkpt lat="43.566298" lon="13.1093644"><ele>125.60000000000001</ele><time>2026-04-26T09:01:00.269Z</time></trkpt><trkpt lat="43.5662578" lon="13.1092334"><ele>126.4</ele><time>2026-04-26T09:01:01.269Z</time></trkpt><trkpt lat="43.566218" lon="13.1090932"><ele>127.2</ele><time>2026-04-26T09:01:02.269Z</time></trkpt><trkpt lat="43.5661733" lon="13.10894"><ele>128.0</ele><time>2026-04-26T09:01:03.269Z</time></trkpt><trkpt lat="43.5661387" lon="13.1087899"><ele>129.5</ele><time>2026-04-26T09:01:04.269Z</time></trkpt><trkpt lat="43.5661104" lon="13.1086434"><ele>131.0</ele><time>2026-04-26T09:01:05.269Z</time></trkpt><trkpt lat="43.5660799" lon="13.1084909"><ele>132.5</ele><time>2026-04-26T09:01:06.269Z</time></trkpt><trkpt lat="43.5660529" lon="13.1083372"><ele>134.0</ele><time>2026-04-26T09:01:07.27Z</time></trkpt><trkpt lat="43.5660204" lon="13.1081824"><ele>136.25</ele><time>2026-04-26T09:01:08.269Z</time></trkpt><trkpt lat="43.5659906" lon="13.1080252"><ele>138.5</ele><time>2026-04-26T09:01:09.269Z</time></trkpt><trkpt lat="43.5659609" lon="13.1078695"><ele>140.75</ele><time>2026-04-26T09:01:10.269Z</time></trkpt><trkpt lat="43.5659324" lon="13.1077126"><ele>143.0</ele><time>2026-04-26T09:01:11.269Z</time></trkpt><trkpt lat="43.5659026" lon="13.107553"><ele>144.75</ele><time>2026-04-26T09:01:12.269Z</time></trkpt><trkpt lat="43.5658812" lon="13.1073951"><ele>146.5</ele><time>2026-04-26T09:01:13.269Z</time></trkpt><trkpt lat="43.5658634" lon="13.1072381"><ele>148.25</ele><time>2026-04-26T09:01:14.269Z</time></trkpt><trkpt lat="43.5658422" lon="13.1070878"><ele>150.0</ele><time>2026-04-26T09:01:15.269Z</time></trkpt><trkpt lat="43.5658212" lon="13.1069329"><ele>150.0</ele><time>2026-04-26T09:01:16.269Z</time></trkpt><trkpt lat="43.5657968" lon="13.1067727"><ele>150.0</ele><time>2026-04-26T09:01:17.27Z</time></trkpt><trkpt lat="43.5657768" lon="13.1066126"><ele>150.0</ele><time>2026-04-26T09:01:18.269Z</time></trkpt><trkpt lat="43.5657577" lon="13.1064542"><ele>150.0</ele><time>2026-04-26T09:01:19.27Z</time></trkpt><trkpt lat="43.5657426" lon="13.1062959"><ele>151.8</ele><time>2026-04-26T09:01:20.269Z</time></trkpt><trkpt lat="43.565722" lon="13.1061401"><ele>153.6</ele><time>2026-04-26T09:01:21.269Z</time></trkpt><trkpt lat="43.5657063" lon="13.1059928"><ele>155.4</ele><time>2026-04-26T09:01:22.269Z</time></trkpt><trkpt lat="43.5656991" lon="13.1058504"><ele>157.2</ele><time>2026-04-26T09:01:23.269Z</time></trkpt><trkpt lat="43.5656991" lon="13.105718"><ele>159.0</ele><time>2026-04-26T09:01:24.269Z</time></trkpt><trkpt lat="43.56571" lon="13.1056017"><ele>160.2</ele><time>2026-04-26T09:01:25.269Z</time></trkpt><trkpt lat="43.565715" lon="13.1054817"><ele>161.4</ele><time>2026-04-26T09:01:26.269Z</time></trkpt><trkpt lat="43.56571" lon="13.1053667"><ele>162.6</ele><time>2026-04-26T09:01:27.269Z</time></trkpt><trkpt lat="43.5656767" lon="13.1052483"><ele>163.8</ele><time>2026-04-26T09:01:28.27Z</time></trkpt><trkpt lat="43.5656267" lon="13.105135"><ele>165.0</ele><time>2026-04-26T09:01:29.269Z</time></trkpt><trkpt lat="43.565565" lon="13.1050317"><ele>165.0</ele><time>2026-04-26T09:01:30.269Z</time></trkpt><trkpt lat="43.5655" lon="13.1049167"><ele>165.0</ele><time>2026-04-26T09:01:31.269Z</time></trkpt><trkpt lat="43.5654233" lon="13.1048017"><ele>165.0</ele><time>2026-04-26T09:01:32.269Z</time></trkpt><trkpt lat="43.5653367" lon="13.10469"><ele>165.0</ele><time>2026-04-26T09:01:33.269Z</time></trkpt><trkpt lat="43.5652583" lon="13.1045633"><ele>166.75</ele><time>2026-04-26T09:01:34.269Z</time></trkpt><trkpt lat="43.565175" lon="13.1044383"><ele>168.5</ele><time>2026-04-26T09:01:35.269Z</time></trkpt><trkpt lat="43.5650783" lon="13.10431"><ele>170.25</ele><time>2026-04-26T09:01:36.27Z</time></trkpt><trkpt lat="43.5649883" lon="13.1041767"><ele>172.0</ele><time>2026-04-26T09:01:37.269Z</time></trkpt><trkpt lat="43.5648967" lon="13.1040417"><ele>173.5</ele><time>2026-04-26T09:01:38.269Z</time></trkpt><trkpt lat="43.5648033" lon="13.103915"><ele>175.0</ele><time>2026-04-26T09:01:39.269Z</time></trkpt><trkpt lat="43.5647067" lon="13.1037883"><ele>176.5</ele><time>2026-04-26T09:01:40.269Z</time></trkpt><trkpt lat="43.5646167" lon="13.103665"><ele>178.0</ele><time>2026-04-26T09:01:41.269Z</time></trkpt><trkpt lat="43.564525" lon="13.1035483"><ele>178.83333333333334</ele><time>2026-04-26T09:01:42.269Z</time></trkpt><trkpt lat="43.564455" lon="13.103445"><ele>179.66666666666669</ele><time>2026-04-26T09:01:43.269Z</time></trkpt><trkpt lat="43.564395" lon="13.1033633"><ele>180.5</ele><time>2026-04-26T09:01:44.269Z</time></trkpt><trkpt lat="43.5643483" lon="13.1032917"><ele>181.33333333333334</ele><time>2026-04-26T09:01:45.27Z</time></trkpt><trkpt lat="43.5642917" lon="13.1031883"><ele>182.16666666666666</ele><time>2026-04-26T09:01:47.269Z</time></trkpt><trkpt lat="43.5643167" lon="13.1030983"><ele>183.0</ele><time>2026-04-26T09:01:49.269Z</time></trkpt><trkpt lat="43.564405" lon="13.1030033"><ele>183.0</ele><time>2026-04-26T09:01:51.269Z</time></trkpt><trkpt lat="43.5644567" lon="13.1029517"><ele>183.0</ele><time>2026-04-26T09:01:52.269Z</time></trkpt><trkpt lat="43.56451" lon="13.1029"><ele>183.0</ele><time>2026-04-26T09:01:53.269Z</time></trkpt><trkpt lat="43.5645617" lon="13.1028467"><ele>183.0</ele><time>2026-04-26T09:01:54.269Z</time></trkpt><trkpt lat="43.5646583" lon="13.1027433"><ele>183.0</ele><time>2026-04-26T09:01:56.269Z</time></trkpt><trkpt lat="43.5647117" lon="13.102695"><ele>183.0</ele><time>2026-04-26T09:01:57.269Z</time></trkpt><trkpt lat="43.5647733" lon="13.10263"><ele>183.0</ele><time>2026-04-26T09:01:58.269Z</time></trkpt><trkpt lat="43.5648383" lon="13.1025483"><ele>183.0</ele><time>2026-04-26T09:01:59.269Z</time></trkpt><trkpt lat="43.564915" lon="13.1024617"><ele>183.0</ele><time>2026-04-26T09:02:00.27Z</time></trkpt><trkpt lat="43.564985" lon="13.1023767"><ele>183.0</ele><time>2026-04-26T09:02:01.269Z</time></trkpt><trkpt lat="43.5650517" lon="13.102285"><ele>183.0</ele><time>2026-04-26T09:02:02.269Z</time></trkpt><trkpt lat="43.5651183" lon="13.1021883"><ele>183.16666666666666</ele><time>2026-04-26T09:02:03.269Z</time></trkpt><trkpt lat="43.5651733" lon="13.1021017"><ele>183.33333333333334</ele><time>2026-04-26T09:02:04.269Z</time></trkpt><trkpt lat="43.5652317" lon="13.1020133"><ele>183.5</ele><time>2026-04-26T09:02:05.269Z</time></trkpt><trkpt lat="43.5652883" lon="13.1019233"><ele>183.66666666666669</ele><time>2026-04-26T09:02:06.269Z</time></trkpt><trkpt lat="43.5653467" lon="13.1018233"><ele>183.83333333333334</ele><time>2026-04-26T09:02:07.269Z</time></trkpt><trkpt lat="43.5654083" lon="13.1017267"><ele>184.0</ele><time>2026-04-26T09:02:08.269Z</time></trkpt><trkpt lat="43.56547" lon="13.101635"><ele>182.6</ele><time>2026-04-26T09:02:09.269Z</time></trkpt><trkpt lat="43.5655283" lon="13.1015383"><ele>181.2</ele><time>2026-04-26T09:02:10.269Z</time></trkpt><trkpt lat="43.565585" lon="13.101445"><ele>179.79999999999998</ele><time>2026-04-26T09:02:11.269Z</time></trkpt><trkpt lat="43.565655" lon="13.1013517"><ele>178.39999999999998</ele><time>2026-04-26T09:02:12.269Z</time></trkpt><trkpt lat="43.565725" lon="13.1012383"><ele>177.0</ele><time>2026-04-26T09:02:13.269Z</time></trkpt><trkpt lat="43.5658067" lon="13.1011067"><ele>177.0</ele><time>2026-04-26T09:02:14.269Z</time></trkpt><trkpt lat="43.5658933" lon="13.1009667"><ele>177.0</ele><time>2026-04-26T09:02:15.27Z</time></trkpt><trkpt lat="43.5659783" lon="13.1008333"><ele>177.0</ele><time>2026-04-26T09:02:16.269Z</time></trkpt><trkpt lat="43.5660567" lon="13.1007"><ele>177.0</ele><time>2026-04-26T09:02:17.269Z</time></trkpt><trkpt lat="43.5661383" lon="13.1005617"><ele>176.0</ele><time>2026-04-26T09:02:18.27Z</time></trkpt><trkpt lat="43.5662167" lon="13.1004267"><ele>175.0</ele><time>2026-04-26T09:02:19.269Z</time></trkpt><trkpt lat="43.5663083" lon="13.1002917"><ele>174.0</ele><time>2026-04-26T09:02:20.27Z</time></trkpt><trkpt lat="43.5663917" lon="13.1001533"><ele>173.0</ele><time>2026-04-26T09:02:21.269Z</time></trkpt><trkpt lat="43.5664633" lon="13.1000183"><ele>173.75</ele><time>2026-04-26T09:02:22.27Z</time></trkpt><trkpt lat="43.5665383" lon="13.0998733"><ele>174.5</ele><time>2026-04-26T09:02:23.269Z</time></trkpt><trkpt lat="43.5666183" lon="13.0997433"><ele>175.25</ele><time>2026-04-26T09:02:24.269Z</time></trkpt><trkpt lat="43.5666933" lon="13.099605"><ele>176.0</ele><time>2026-04-26T09:02:25.269Z</time></trkpt><trkpt lat="43.5667533" lon="13.099455"><ele>176.0</ele><time>2026-04-26T09:02:26.269Z</time></trkpt><trkpt lat="43.5668067" lon="13.0993"><ele>176.0</ele><time>2026-04-26T09:02:27.269Z</time></trkpt><trkpt lat="43.56686" lon="13.0991617"><ele>176.0</ele><time>2026-04-26T09:02:28.269Z</time></trkpt><trkpt lat="43.5669117" lon="13.0990333"><ele>176.0</ele><time>2026-04-26T09:02:29.269Z</time></trkpt><trkpt lat="43.5669567" lon="13.0989"><ele>176.4</ele><time>2026-04-26T09:02:30.269Z</time></trkpt><trkpt lat="43.566995" lon="13.0987667"><ele>176.8</ele><time>2026-04-26T09:02:31.269Z</time></trkpt><trkpt lat="43.5670317" lon="13.0986283"><ele>177.20000000000002</ele><time>2026-04-26T09:02:32.269Z</time></trkpt><trkpt lat="43.5670717" lon="13.0984867"><ele>177.60000000000002</ele><time>2026-04-26T09:02:33.269Z</time></trkpt><trkpt lat="43.5671233" lon="13.0983317"><ele>178.0</ele><time>2026-04-26T09:02:34.269Z</time></trkpt><trkpt lat="43.5671883" lon="13.0981667"><ele>176.75</ele><time>2026-04-26T09:02:35.27Z</time></trkpt><trkpt lat="43.5672533" lon="13.0979917"><ele>175.5</ele><time>2026-04-26T09:02:36.269Z</time></trkpt><trkpt lat="43.5673133" lon="13.09784"><ele>174.25</ele><time>2026-04-26T09:02:37.269Z</time></trkpt><trkpt lat="43.5673617" lon="13.0977017"><ele>173.0</ele><time>2026-04-26T09:02:38.269Z</time></trkpt><trkpt lat="43.5673967" lon="13.09756"><ele>174.25</ele><time>2026-04-26T09:02:39.269Z</time></trkpt><trkpt lat="43.567415" lon="13.0974117"><ele>175.5</ele><time>2026-04-26T09:02:40.269Z</time></trkpt><trkpt lat="43.5674183" lon="13.0972583"><ele>176.75</ele><time>2026-04-26T09:02:41.269Z</time></trkpt><trkpt lat="43.5673917" lon="13.0970983"><ele>178.0</ele><time>2026-04-26T09:02:42.269Z</time></trkpt><trkpt lat="43.5673483" lon="13.0969333"><ele>178.0</ele><time>2026-04-26T09:02:43.269Z</time></trkpt><trkpt lat="43.5672983" lon="13.09676"><ele>178.0</ele><time>2026-04-26T09:02:44.269Z</time></trkpt><trkpt lat="43.567245" lon="13.0965783"><ele>178.0</ele><time>2026-04-26T09:02:45.27Z</time></trkpt><trkpt lat="43.5671967" lon="13.0964017"><ele>178.0</ele><time>2026-04-26T09:02:46.269Z</time></trkpt><trkpt lat="43.5671367" lon="13.096215"><ele>177.75</ele><time>2026-04-26T09:02:47.269Z</time></trkpt><trkpt lat="43.567085" lon="13.0960317"><ele>177.5</ele><time>2026-04-26T09:02:48.269Z</time></trkpt><trkpt lat="43.5670317" lon="13.09585"><ele>177.25</ele><time>2026-04-26T09:02:49.269Z</time></trkpt><trkpt lat="43.5669817" lon="13.0956633"><ele>177.0</ele><time>2026-04-26T09:02:50.269Z</time></trkpt><trkpt lat="43.56693" lon="13.09546"><ele>177.5</ele><time>2026-04-26T09:02:51.27Z</time></trkpt><trkpt lat="43.5668817" lon="13.0952667"><ele>178.0</ele><time>2026-04-26T09:02:52.269Z</time></trkpt><trkpt lat="43.5668417" lon="13.095095"><ele>178.5</ele><time>2026-04-26T09:02:53.269Z</time></trkpt><trkpt lat="43.566805" lon="13.0949433"><ele>179.0</ele><time>2026-04-26T09:02:54.269Z</time></trkpt><trkpt lat="43.5667717" lon="13.094805"><ele>179.0</ele><time>2026-04-26T09:02:55.269Z</time></trkpt><trkpt lat="43.5667283" lon="13.0946883"><ele>179.0</ele><time>2026-04-26T09:02:56.27Z</time></trkpt><trkpt lat="43.5666783" lon="13.0945733"><ele>179.0</ele><time>2026-04-26T09:02:57.27Z</time></trkpt><trkpt lat="43.566625" lon="13.094465"><ele>179.0</ele><time>2026-04-26T09:02:58.269Z</time></trkpt><trkpt lat="43.5665517" lon="13.094355"><ele>179.0</ele><time>2026-04-26T09:02:59.269Z</time></trkpt><trkpt lat="43.56647" lon="13.094245"><ele>179.0</ele><time>2026-04-26T09:03:00.269Z</time></trkpt><trkpt lat="43.5663783" lon="13.0941483"><ele>179.0</ele><time>2026-04-26T09:03:01.27Z</time></trkpt><trkpt lat="43.566285" lon="13.0940633"><ele>179.0</ele><time>2026-04-26T09:03:02.269Z</time></trkpt><trkpt lat="43.5661983" lon="13.0939833"><ele>179.0</ele><time>2026-04-26T09:03:03.269Z</time></trkpt><trkpt lat="43.5661217" lon="13.0939033"><ele>179.0</ele><time>2026-04-26T09:03:04.269Z</time></trkpt><trkpt lat="43.56605" lon="13.09382"><ele>178.0</ele><time>2026-04-26T09:03:05.269Z</time></trkpt><trkpt lat="43.5659667" lon="13.09374"><ele>177.0</ele><time>2026-04-26T09:03:06.269Z</time></trkpt><trkpt lat="43.5658717" lon="13.0936567"><ele>176.0</ele><time>2026-04-26T09:03:07.269Z</time></trkpt><trkpt lat="43.56578" lon="13.0935817"><ele>175.0</ele><time>2026-04-26T09:03:08.269Z</time></trkpt><trkpt lat="43.56569" lon="13.09351"><ele>174.0</ele><time>2026-04-26T09:03:09.269Z</time></trkpt><trkpt lat="43.5656033" lon="13.0934383"><ele>174.0</ele><time>2026-04-26T09:03:10.269Z</time></trkpt><trkpt lat="43.5655117" lon="13.0933617"><ele>174.0</ele><time>2026-04-26T09:03:11.27Z</time></trkpt><trkpt lat="43.56542" lon="13.0932867"><ele>174.0</ele><time>2026-04-26T09:03:12.269Z</time></trkpt><trkpt lat="43.56533" lon="13.0932183"><ele>174.0</ele><time>2026-04-26T09:03:13.269Z</time></trkpt><trkpt lat="43.5652383" lon="13.0931533"><ele>174.0</ele><time>2026-04-26T09:03:14.269Z</time></trkpt><trkpt lat="43.565145" lon="13.0930883"><ele>172.39999999999998</ele><time>2026-04-26T09:03:15.269Z</time></trkpt><trkpt lat="43.56505" lon="13.0930233"><ele>170.8</ele><time>2026-04-26T09:03:16.269Z</time></trkpt><trkpt lat="43.564955" lon="13.0929433"><ele>169.2</ele><time>2026-04-26T09:03:17.269Z</time></trkpt><trkpt lat="43.5648717" lon="13.09287"><ele>167.60000000000002</ele><time>2026-04-26T09:03:18.269Z</time></trkpt><trkpt lat="43.5647867" lon="13.0927833"><ele>166.0</ele><time>2026-04-26T09:03:19.269Z</time></trkpt><trkpt lat="43.564695" lon="13.092695"><ele>166.0</ele><time>2026-04-26T09:03:20.27Z</time></trkpt><trkpt lat="43.5646117" lon="13.0926033"><ele>166.0</ele><time>2026-04-26T09:03:21.269Z</time></trkpt><trkpt lat="43.5645333" lon="13.092515"><ele>166.0</ele><time>2026-04-26T09:03:22.269Z</time></trkpt><trkpt lat="43.5644483" lon="13.0924217"><ele>166.0</ele><time>2026-04-26T09:03:23.269Z</time></trkpt><trkpt lat="43.5643533" lon="13.0923333"><ele>166.0</ele><time>2026-04-26T09:03:24.269Z</time></trkpt><trkpt lat="43.5642417" lon="13.0922333"><ele>163.5</ele><time>2026-04-26T09:03:25.269Z</time></trkpt><trkpt lat="43.56413" lon="13.0921217"><ele>161.0</ele><time>2026-04-26T09:03:26.27Z</time></trkpt><trkpt lat="43.5640233" lon="13.0920083"><ele>158.5</ele><time>2026-04-26T09:03:27.269Z</time></trkpt><trkpt lat="43.563925" lon="13.0919083"><ele>156.0</ele><time>2026-04-26T09:03:28.269Z</time></trkpt><trkpt lat="43.56383" lon="13.091805"><ele>156.0</ele><time>2026-04-26T09:03:29.27Z</time></trkpt><trkpt lat="43.56374" lon="13.0917033"><ele>156.0</ele><time>2026-04-26T09:03:30.269Z</time></trkpt><trkpt lat="43.5636483" lon="13.0915933"><ele>156.0</ele><time>2026-04-26T09:03:31.269Z</time></trkpt><trkpt lat="43.56357" lon="13.0914967"><ele>156.0</ele><time>2026-04-26T09:03:32.269Z</time></trkpt><trkpt lat="43.5635017" lon="13.0914017"><ele>156.0</ele><time>2026-04-26T09:03:33.269Z</time></trkpt><trkpt lat="43.563435" lon="13.0913"><ele>155.0</ele><time>2026-04-26T09:03:34.269Z</time></trkpt><trkpt lat="43.56338" lon="13.09119"><ele>154.0</ele><time>2026-04-26T09:03:35.269Z</time></trkpt><trkpt lat="43.5633383" lon="13.091075"><ele>153.0</ele><time>2026-04-26T09:03:36.269Z</time></trkpt><trkpt lat="43.5633067" lon="13.0909633"><ele>152.0</ele><time>2026-04-26T09:03:37.269Z</time></trkpt><trkpt lat="43.5632833" lon="13.09086"><ele>151.0</ele><time>2026-04-26T09:03:38.269Z</time></trkpt><trkpt lat="43.5632617" lon="13.0907633"><ele>150.0</ele><time>2026-04-26T09:03:39.269Z</time></trkpt><trkpt lat="43.56323" lon="13.09066"><ele>148.5</ele><time>2026-04-26T09:03:40.269Z</time></trkpt><trkpt lat="43.5632033" lon="13.0905617"><ele>147.0</ele><time>2026-04-26T09:03:41.269Z</time></trkpt><trkpt lat="43.5631717" lon="13.090465"><ele>145.5</ele><time>2026-04-26T09:03:42.269Z</time></trkpt><trkpt lat="43.5631333" lon="13.0903717"><ele>144.0</ele><time>2026-04-26T09:03:43.269Z</time></trkpt><trkpt lat="43.56309" lon="13.09028"><ele>142.5</ele><time>2026-04-26T09:03:44.27Z</time></trkpt><trkpt lat="43.5630417" lon="13.090185"><ele>141.0</ele><time>2026-04-26T09:03:45.269Z</time></trkpt><trkpt lat="43.5629917" lon="13.0901"><ele>141.0</ele><time>2026-04-26T09:03:46.269Z</time></trkpt><trkpt lat="43.5629367" lon="13.0900183"><ele>141.0</ele><time>2026-04-26T09:03:47.269Z</time></trkpt><trkpt lat="43.5628783" lon="13.0899283"><ele>141.0</ele><time>2026-04-26T09:03:48.269Z</time></trkpt><trkpt lat="43.5628183" lon="13.08984"><ele>141.0</ele><time>2026-04-26T09:03:49.269Z</time></trkpt><trkpt lat="43.562755" lon="13.0897483"><ele>141.0</ele><time>2026-04-26T09:03:50.269Z</time></trkpt><trkpt lat="43.562695" lon="13.0896617"><ele>141.0</ele><time>2026-04-26T09:03:51.269Z</time></trkpt><trkpt lat="43.5626333" lon="13.089585"><ele>138.6</ele><time>2026-04-26T09:03:52.269Z</time></trkpt><trkpt lat="43.56256" lon="13.0895067"><ele>136.2</ele><time>2026-04-26T09:03:53.27Z</time></trkpt><trkpt lat="43.56248" lon="13.0894183"><ele>133.8</ele><time>2026-04-26T09:03:54.269Z</time></trkpt><trkpt lat="43.5624017" lon="13.0893367"><ele>131.4</ele><time>2026-04-26T09:03:55.269Z</time></trkpt><trkpt lat="43.562325" lon="13.0892633"><ele>129.0</ele><time>2026-04-26T09:03:56.27Z</time></trkpt><trkpt lat="43.5622533" lon="13.0891867"><ele>129.0</ele><time>2026-04-26T09:03:57.269Z</time></trkpt><trkpt lat="43.5621967" lon="13.0891017"><ele>129.0</ele><time>2026-04-26T09:03:58.269Z</time></trkpt><trkpt lat="43.5621533" lon="13.0890017"><ele>129.0</ele><time>2026-04-26T09:03:59.269Z</time></trkpt><trkpt lat="43.5621133" lon="13.0888883"><ele>129.0</ele><time>2026-04-26T09:04:00.269Z</time></trkpt><trkpt lat="43.5620783" lon="13.0887867"><ele>129.0</ele><time>2026-04-26T09:04:01.269Z</time></trkpt><trkpt lat="43.5620383" lon="13.0886883"><ele>129.0</ele><time>2026-04-26T09:04:02.27Z</time></trkpt><trkpt lat="43.5620017" lon="13.0885967"><ele>126.85714285714283</ele><time>2026-04-26T09:04:03.269Z</time></trkpt><trkpt lat="43.56196" lon="13.0885067"><ele>124.71428571428571</ele><time>2026-04-26T09:04:04.269Z</time></trkpt><trkpt lat="43.5619117" lon="13.088425"><ele>122.57142857142856</ele><time>2026-04-26T09:04:05.269Z</time></trkpt><trkpt lat="43.561865" lon="13.0883467"><ele>120.42857142857142</ele><time>2026-04-26T09:04:06.27Z</time></trkpt><trkpt lat="43.5618167" lon="13.0882783"><ele>118.28571428571428</ele><time>2026-04-26T09:04:07.269Z</time></trkpt><trkpt lat="43.56176" lon="13.08822"><ele>116.14285714285714</ele><time>2026-04-26T09:04:08.269Z</time></trkpt><trkpt lat="43.561705" lon="13.088165"><ele>114.0</ele><time>2026-04-26T09:04:09.269Z</time></trkpt><trkpt lat="43.5616417" lon="13.088125"><ele>112.66666666666667</ele><time>2026-04-26T09:04:10.269Z</time></trkpt><trkpt lat="43.5615767" lon="13.0880933"><ele>111.33333333333334</ele><time>2026-04-26T09:04:11.269Z</time></trkpt><trkpt lat="43.56151" lon="13.0880667"><ele>110.0</ele><time>2026-04-26T09:04:12.269Z</time></trkpt><trkpt lat="43.5614417" lon="13.08806"><ele>108.66666666666667</ele><time>2026-04-26T09:04:13.269Z</time></trkpt><trkpt lat="43.5613567" lon="13.0880583"><ele>107.33333333333334</ele><time>2026-04-26T09:04:14.269Z</time></trkpt><trkpt lat="43.5612667" lon="13.0880867"><ele>106.0</ele><time>2026-04-26T09:04:15.27Z</time></trkpt><trkpt lat="43.5611733" lon="13.0881167"><ele>105.75</ele><time>2026-04-26T09:04:16.27Z</time></trkpt><trkpt lat="43.5610733" lon="13.08811"><ele>105.5</ele><time>2026-04-26T09:04:17.269Z</time></trkpt><trkpt lat="43.5609717" lon="13.0880633"><ele>105.25</ele><time>2026-04-26T09:04:18.269Z</time></trkpt><trkpt lat="43.5608783" lon="13.087975"><ele>105.0</ele><time>2026-04-26T09:04:19.269Z</time></trkpt><trkpt lat="43.56078" lon="13.087845"><ele>105.0</ele><time>2026-04-26T09:04:20.269Z</time></trkpt><trkpt lat="43.5606867" lon="13.0877017"><ele>105.0</ele><time>2026-04-26T09:04:21.269Z</time></trkpt><trkpt lat="43.5606083" lon="13.087575"><ele>105.0</ele><time>2026-04-26T09:04:22.269Z</time></trkpt><trkpt lat="43.560535" lon="13.087475"><ele>105.0</ele><time>2026-04-26T09:04:23.27Z</time></trkpt><trkpt lat="43.56046" lon="13.0873933"><ele>105.75</ele><time>2026-04-26T09:04:24.269Z</time></trkpt><trkpt lat="43.5603667" lon="13.0873167"><ele>106.5</ele><time>2026-04-26T09:04:25.27Z</time></trkpt><trkpt lat="43.5602567" lon="13.0872433"><ele>107.25</ele><time>2026-04-26T09:04:26.269Z</time></trkpt><trkpt lat="43.5601367" lon="13.08716"><ele>108.0</ele><time>2026-04-26T09:04:27.269Z</time></trkpt><trkpt lat="43.5600183" lon="13.0870783"><ele>111.0</ele><time>2026-04-26T09:04:28.269Z</time></trkpt><trkpt lat="43.5599167" lon="13.087005"><ele>114.00000000000001</ele><time>2026-04-26T09:04:29.269Z</time></trkpt><trkpt lat="43.5598267" lon="13.0869217"><ele>117.00000000000001</ele><time>2026-04-26T09:04:30.269Z</time></trkpt><trkpt lat="43.55975" lon="13.0868417"><ele>120.0</ele><time>2026-04-26T09:04:31.269Z</time></trkpt><trkpt lat="43.5596833" lon="13.0867767"><ele>123.0</ele><time>2026-04-26T09:04:32.269Z</time></trkpt><trkpt lat="43.5596317" lon="13.0866567"><ele>124.2</ele><time>2026-04-26T09:04:34.269Z</time></trkpt><trkpt lat="43.5596867" lon="13.0864883"><ele>125.4</ele><time>2026-04-26T09:04:36.27Z</time></trkpt><trkpt lat="43.559735" lon="13.0863617"><ele>126.60000000000001</ele><time>2026-04-26T09:04:37.269Z</time></trkpt><trkpt lat="43.5597867" lon="13.0862317"><ele>127.80000000000001</ele><time>2026-04-26T09:04:38.269Z</time></trkpt><trkpt lat="43.559835" lon="13.0861183"><ele>129.0</ele><time>2026-04-26T09:04:39.269Z</time></trkpt><trkpt lat="43.559885" lon="13.0859817"><ele>129.0</ele><time>2026-04-26T09:04:40.269Z</time></trkpt><trkpt lat="43.5599317" lon="13.08584"><ele>129.0</ele><time>2026-04-26T09:04:41.269Z</time></trkpt><trkpt lat="43.5599817" lon="13.0856883"><ele>129.0</ele><time>2026-04-26T09:04:42.269Z</time></trkpt><trkpt lat="43.5600349" lon="13.0855364"><ele>129.0</ele><time>2026-04-26T09:04:43.269Z</time></trkpt><trkpt lat="43.5600839" lon="13.085394"><ele>129.83333333333334</ele><time>2026-04-26T09:04:44.269Z</time></trkpt><trkpt lat="43.560131" lon="13.0852692"><ele>130.66666666666666</ele><time>2026-04-26T09:04:45.269Z</time></trkpt><trkpt lat="43.5601772" lon="13.0851501"><ele>131.5</ele><time>2026-04-26T09:04:46.269Z</time></trkpt><trkpt lat="43.5602208" lon="13.0850505"><ele>132.33333333333331</ele><time>2026-04-26T09:04:47.269Z</time></trkpt><trkpt lat="43.5602582" lon="13.0849692"><ele>133.16666666666666</ele><time>2026-04-26T09:04:48.269Z</time></trkpt><trkpt lat="43.5602846" lon="13.0848517"><ele>134.0</ele><time>2026-04-26T09:04:50.269Z</time></trkpt><trkpt lat="43.5602547" lon="13.0847609"><ele>135.25</ele><time>2026-04-26T09:04:52.269Z</time></trkpt><trkpt lat="43.5601593" lon="13.0846265"><ele>136.5</ele><time>2026-04-26T09:04:54.269Z</time></trkpt><trkpt lat="43.56009" lon="13.0845478"><ele>137.75</ele><time>2026-04-26T09:04:55.269Z</time></trkpt><trkpt lat="43.5600129" lon="13.0844431"><ele>139.0</ele><time>2026-04-26T09:04:56.269Z</time></trkpt><trkpt lat="43.5599251" lon="13.0843307"><ele>139.0</ele><time>2026-04-26T09:04:57.269Z</time></trkpt><trkpt lat="43.5598334" lon="13.0842113"><ele>139.0</ele><time>2026-04-26T09:04:58.269Z</time></trkpt><trkpt lat="43.5597416" lon="13.0840878"><ele>139.0</ele><time>2026-04-26T09:04:59.269Z</time></trkpt><trkpt lat="43.5596557" lon="13.0839606"><ele>139.0</ele><time>2026-04-26T09:05:00.269Z</time></trkpt><trkpt lat="43.559571" lon="13.0838361"><ele>137.25</ele><time>2026-04-26T09:05:01.269Z</time></trkpt><trkpt lat="43.5594933" lon="13.0837181"><ele>135.5</ele><time>2026-04-26T09:05:02.269Z</time></trkpt><trkpt lat="43.5594263" lon="13.0836081"><ele>133.75</ele><time>2026-04-26T09:05:03.269Z</time></trkpt><trkpt lat="43.5593604" lon="13.0834884"><ele>132.0</ele><time>2026-04-26T09:05:04.269Z</time></trkpt><trkpt lat="43.5592864" lon="13.0833534"><ele>131.5</ele><time>2026-04-26T09:05:05.27Z</time></trkpt><trkpt lat="43.5592063" lon="13.0832031"><ele>131.0</ele><time>2026-04-26T09:05:06.27Z</time></trkpt><trkpt lat="43.5591348" lon="13.0830451"><ele>130.5</ele><time>2026-04-26T09:05:07.269Z</time></trkpt><trkpt lat="43.5590672" lon="13.0828952"><ele>130.0</ele><time>2026-04-26T09:05:08.269Z</time></trkpt><trkpt lat="43.5589999" lon="13.0827476"><ele>130.0</ele><time>2026-04-26T09:05:09.269Z</time></trkpt><trkpt lat="43.5589357" lon="13.082598"><ele>130.0</ele><time>2026-04-26T09:05:10.269Z</time></trkpt><trkpt lat="43.5588696" lon="13.0824488"><ele>130.0</ele><time>2026-04-26T09:05:11.269Z</time></trkpt><trkpt lat="43.5588041" lon="13.082301"><ele>130.0</ele><time>2026-04-26T09:05:12.269Z</time></trkpt><trkpt lat="43.5587388" lon="13.0821552"><ele>128.75</ele><time>2026-04-26T09:05:13.269Z</time></trkpt><trkpt lat="43.558668" lon="13.0820059"><ele>127.5</ele><time>2026-04-26T09:05:14.269Z</time></trkpt><trkpt lat="43.558595" lon="13.0818614"><ele>126.25</ele><time>2026-04-26T09:05:15.269Z</time></trkpt><trkpt lat="43.5585261" lon="13.081724"><ele>125.0</ele><time>2026-04-26T09:05:16.269Z</time></trkpt><trkpt lat="43.5584623" lon="13.0815959"><ele>123.0</ele><time>2026-04-26T09:05:17.269Z</time></trkpt><trkpt lat="43.5584012" lon="13.081478"><ele>121.0</ele><time>2026-04-26T09:05:18.269Z</time></trkpt><trkpt lat="43.5583374" lon="13.0813565"><ele>119.0</ele><time>2026-04-26T09:05:19.269Z</time></trkpt><trkpt lat="43.5582722" lon="13.0812397"><ele>117.0</ele><time>2026-04-26T09:05:20.269Z</time></trkpt><trkpt lat="43.5582016" lon="13.0811345"><ele>115.0</ele><time>2026-04-26T09:05:21.269Z</time></trkpt><trkpt lat="43.5581308" lon="13.0810404"><ele>115.00000000000001</ele><time>2026-04-26T09:05:22.27Z</time></trkpt><trkpt lat="43.5580593" lon="13.0809587"><ele>115.0</ele><time>2026-04-26T09:05:23.269Z</time></trkpt><trkpt lat="43.5579883" lon="13.0809"><ele>115.0</ele><time>2026-04-26T09:05:24.269Z</time></trkpt><trkpt lat="43.557915" lon="13.0808567"><ele>115.0</ele><time>2026-04-26T09:05:25.269Z</time></trkpt><trkpt lat="43.5578367" lon="13.0808267"><ele>115.00000000000001</ele><time>2026-04-26T09:05:26.269Z</time></trkpt><trkpt lat="43.557755" lon="13.08083"><ele>115.0</ele><time>2026-04-26T09:05:27.269Z</time></trkpt><trkpt lat="43.5576667" lon="13.0808583"><ele>114.50000000000001</ele><time>2026-04-26T09:05:28.269Z</time></trkpt><trkpt lat="43.5575767" lon="13.0809083"><ele>114.0</ele><time>2026-04-26T09:05:29.269Z</time></trkpt><trkpt lat="43.5575" lon="13.0809633"><ele>113.5</ele><time>2026-04-26T09:05:30.269Z</time></trkpt><trkpt lat="43.55743" lon="13.0810217"><ele>113.0</ele><time>2026-04-26T09:05:31.269Z</time></trkpt><trkpt lat="43.5573583" lon="13.081075"><ele>112.50000000000001</ele><time>2026-04-26T09:05:32.269Z</time></trkpt><trkpt lat="43.5573017" lon="13.0811317"><ele>112.0</ele><time>2026-04-26T09:05:33.269Z</time></trkpt><trkpt lat="43.557235" lon="13.0812167"><ele>112.0</ele><time>2026-04-26T09:05:34.269Z</time></trkpt><trkpt lat="43.5571633" lon="13.081315"><ele>111.99999999999999</ele><time>2026-04-26T09:05:35.269Z</time></trkpt><trkpt lat="43.5570967" lon="13.0814317"><ele>111.99999999999999</ele><time>2026-04-26T09:05:36.269Z</time></trkpt><trkpt lat="43.5570367" lon="13.0815567"><ele>112.0</ele><time>2026-04-26T09:05:37.269Z</time></trkpt><trkpt lat="43.5569783" lon="13.0817"><ele>112.0</ele><time>2026-04-26T09:05:38.269Z</time></trkpt><trkpt lat="43.5569267" lon="13.0818533"><ele>109.5</ele><time>2026-04-26T09:05:39.269Z</time></trkpt><trkpt lat="43.5568817" lon="13.0820067"><ele>107.0</ele><time>2026-04-26T09:05:40.269Z</time></trkpt><trkpt lat="43.5568333" lon="13.0821483"><ele>104.5</ele><time>2026-04-26T09:05:41.269Z</time></trkpt><trkpt lat="43.55678" lon="13.0822833"><ele>102.0</ele><time>2026-04-26T09:05:42.269Z</time></trkpt><trkpt lat="43.5567217" lon="13.0824117"><ele>101.39999999999999</ele><time>2026-04-26T09:05:43.269Z</time></trkpt><trkpt lat="43.5566583" lon="13.08251"><ele>100.8</ele><time>2026-04-26T09:05:44.269Z</time></trkpt><trkpt lat="43.5565817" lon="13.0825667"><ele>100.2</ele><time>2026-04-26T09:05:45.269Z</time></trkpt><trkpt lat="43.556475" lon="13.0826167"><ele>99.6</ele><time>2026-04-26T09:05:46.269Z</time></trkpt><trkpt lat="43.5563583" lon="13.0826183"><ele>99.0</ele><time>2026-04-26T09:05:47.269Z</time></trkpt><trkpt lat="43.55625" lon="13.0825983"><ele>98.5</ele><time>2026-04-26T09:05:48.269Z</time></trkpt><trkpt lat="43.55614" lon="13.0825983"><ele>98.0</ele><time>2026-04-26T09:05:49.269Z</time></trkpt><trkpt lat="43.5560083" lon="13.0826517"><ele>97.5</ele><time>2026-04-26T09:05:50.269Z</time></trkpt><trkpt lat="43.55587" lon="13.0827217"><ele>97.0</ele><time>2026-04-26T09:05:51.269Z</time></trkpt><trkpt lat="43.555715" lon="13.0828167"><ele>97.0</ele><time>2026-04-26T09:05:52.269Z</time></trkpt><trkpt lat="43.5555583" lon="13.082905"><ele>97.0</ele><time>2026-04-26T09:05:53.269Z</time></trkpt><trkpt lat="43.55539" lon="13.08299"><ele>97.0</ele><time>2026-04-26T09:05:54.269Z</time></trkpt><trkpt lat="43.55522" lon="13.083075"><ele>97.0</ele><time>2026-04-26T09:05:55.269Z</time></trkpt><trkpt lat="43.5550517" lon="13.0831733"><ele>97.0</ele><time>2026-04-26T09:05:56.269Z</time></trkpt><trkpt lat="43.5548983" lon="13.0832783"><ele>97.0</ele><time>2026-04-26T09:05:57.269Z</time></trkpt><trkpt lat="43.5547617" lon="13.083385"><ele>97.5</ele><time>2026-04-26T09:05:58.269Z</time></trkpt><trkpt lat="43.5546333" lon="13.083485"><ele>98.0</ele><time>2026-04-26T09:05:59.269Z</time></trkpt><trkpt lat="43.5545083" lon="13.08357"><ele>98.5</ele><time>2026-04-26T09:06:00.269Z</time></trkpt><trkpt lat="43.55439" lon="13.0836517"><ele>99.0</ele><time>2026-04-26T09:06:01.269Z</time></trkpt><trkpt lat="43.5542617" lon="13.08371"><ele>99.0</ele><time>2026-04-26T09:06:02.269Z</time></trkpt><trkpt lat="43.5541233" lon="13.0837817"><ele>99.0</ele><time>2026-04-26T09:06:03.269Z</time></trkpt><trkpt lat="43.5539717" lon="13.0838717"><ele>99.0</ele><time>2026-04-26T09:06:04.269Z</time></trkpt><trkpt lat="43.5538117" lon="13.0839717"><ele>99.0</ele><time>2026-04-26T09:06:05.269Z</time></trkpt><trkpt lat="43.5536567" lon="13.084065"><ele>99.0</ele><time>2026-04-26T09:06:06.27Z</time></trkpt><trkpt lat="43.553505" lon="13.0841467"><ele>99.0</ele><time>2026-04-26T09:06:07.269Z</time></trkpt><trkpt lat="43.5533567" lon="13.0842233"><ele>99.0</ele><time>2026-04-26T09:06:08.269Z</time></trkpt><trkpt lat="43.553215" lon="13.0842867"><ele>99.0</ele><time>2026-04-26T09:06:09.269Z</time></trkpt><trkpt lat="43.5530783" lon="13.08434"><ele>99.0</ele><time>2026-04-26T09:06:10.269Z</time></trkpt><trkpt lat="43.5529267" lon="13.0843867"><ele>99.0</ele><time>2026-04-26T09:06:11.269Z</time></trkpt><trkpt lat="43.552775" lon="13.08441"><ele>99.0</ele><time>2026-04-26T09:06:12.269Z</time></trkpt><trkpt lat="43.5526433" lon="13.0844267"><ele>99.0</ele><time>2026-04-26T09:06:13.269Z</time></trkpt><trkpt lat="43.5525217" lon="13.0844283"><ele>99.0</ele><time>2026-04-26T09:06:14.269Z</time></trkpt><trkpt lat="43.5524083" lon="13.0844167"><ele>99.0</ele><time>2026-04-26T09:06:15.269Z</time></trkpt><trkpt lat="43.552305" lon="13.0843667"><ele>99.0</ele><time>2026-04-26T09:06:16.269Z</time></trkpt><trkpt lat="43.5522" lon="13.084285"><ele>99.0</ele><time>2026-04-26T09:06:17.269Z</time></trkpt><trkpt lat="43.552085" lon="13.0841667"><ele>99.0</ele><time>2026-04-26T09:06:18.269Z</time></trkpt><trkpt lat="43.55197" lon="13.084005"><ele>99.0</ele><time>2026-04-26T09:06:19.269Z</time></trkpt><trkpt lat="43.5518483" lon="13.0838233"><ele>98.66666666666666</ele><time>2026-04-26T09:06:20.269Z</time></trkpt><trkpt lat="43.5517067" lon="13.083635"><ele>98.33333333333333</ele><time>2026-04-26T09:06:21.27Z</time></trkpt><trkpt lat="43.5516" lon="13.0834583"><ele>98.0</ele><time>2026-04-26T09:06:22.269Z</time></trkpt><trkpt lat="43.5515133" lon="13.0832867"><ele>97.33333333333333</ele><time>2026-04-26T09:06:23.269Z</time></trkpt><trkpt lat="43.55144" lon="13.0831017"><ele>96.66666666666666</ele><time>2026-04-26T09:06:24.269Z</time></trkpt><trkpt lat="43.5513667" lon="13.0829117"><ele>96.0</ele><time>2026-04-26T09:06:25.269Z</time></trkpt><trkpt lat="43.5513" lon="13.082725"><ele>96.0</ele><time>2026-04-26T09:06:26.27Z</time></trkpt><trkpt lat="43.5512317" lon="13.0825517"><ele>96.0</ele><time>2026-04-26T09:06:27.269Z</time></trkpt><trkpt lat="43.551145" lon="13.0823817"><ele>96.0</ele><time>2026-04-26T09:06:28.269Z</time></trkpt><trkpt lat="43.5510533" lon="13.082215"><ele>96.0</ele><time>2026-04-26T09:06:29.269Z</time></trkpt><trkpt lat="43.550965" lon="13.0820633"><ele>96.8</ele><time>2026-04-26T09:06:30.269Z</time></trkpt><trkpt lat="43.550875" lon="13.0819267"><ele>97.6</ele><time>2026-04-26T09:06:31.269Z</time></trkpt><trkpt lat="43.5508083" lon="13.0818233"><ele>98.4</ele><time>2026-04-26T09:06:32.269Z</time></trkpt><trkpt lat="43.5507483" lon="13.08173"><ele>99.2</ele><time>2026-04-26T09:06:33.27Z</time></trkpt><trkpt lat="43.5507067" lon="13.081655"><ele>100.0</ele><time>2026-04-26T09:06:34.269Z</time></trkpt><trkpt lat="43.55065" lon="13.0815467"><ele>100.00000000000001</ele><time>2026-04-26T09:06:36.269Z</time></trkpt><trkpt lat="43.5506083" lon="13.081405"><ele>100.0</ele><time>2026-04-26T09:06:38.269Z</time></trkpt><trkpt lat="43.5505833" lon="13.0813133"><ele>100.0</ele><time>2026-04-26T09:06:39.269Z</time></trkpt><trkpt lat="43.5505483" lon="13.0812133"><ele>100.0</ele><time>2026-04-26T09:06:40.269Z</time></trkpt><trkpt lat="43.5505117" lon="13.081105"><ele>100.00000000000001</ele><time>2026-04-26T09:06:41.269Z</time></trkpt><trkpt lat="43.5504767" lon="13.0809967"><ele>100.0</ele><time>2026-04-26T09:06:42.27Z</time></trkpt><trkpt lat="43.5504333" lon="13.0808833"><ele>100.0</ele><time>2026-04-26T09:06:43.269Z</time></trkpt><trkpt lat="43.5503883" lon="13.0807733"><ele>100.0</ele><time>2026-04-26T09:06:44.269Z</time></trkpt><trkpt lat="43.5503333" lon="13.0806733"><ele>100.0</ele><time>2026-04-26T09:06:45.27Z</time></trkpt><trkpt lat="43.550275" lon="13.080575"><ele>100.0</ele><time>2026-04-26T09:06:46.269Z</time></trkpt><trkpt lat="43.55021" lon="13.0804867"><ele>100.0</ele><time>2026-04-26T09:06:47.27Z</time></trkpt><trkpt lat="43.5501483" lon="13.0804"><ele>99.66666666666667</ele><time>2026-04-26T09:06:48.269Z</time></trkpt><trkpt lat="43.5500883" lon="13.0803233"><ele>99.33333333333334</ele><time>2026-04-26T09:06:49.269Z</time></trkpt><trkpt lat="43.5500183" lon="13.0802567"><ele>99.0</ele><time>2026-04-26T09:06:50.269Z</time></trkpt><trkpt lat="43.5499417" lon="13.0802017"><ele>98.66666666666666</ele><time>2026-04-26T09:06:51.269Z</time></trkpt><trkpt lat="43.549865" lon="13.0801617"><ele>98.33333333333333</ele><time>2026-04-26T09:06:52.269Z</time></trkpt><trkpt lat="43.5497717" lon="13.0801567"><ele>98.0</ele><time>2026-04-26T09:06:53.269Z</time></trkpt><trkpt lat="43.5496533" lon="13.080175"><ele>99.25</ele><time>2026-04-26T09:06:54.269Z</time></trkpt><trkpt lat="43.5495317" lon="13.0801933"><ele>100.5</ele><time>2026-04-26T09:06:55.269Z</time></trkpt><trkpt lat="43.549405" lon="13.0802133"><ele>101.75</ele><time>2026-04-26T09:06:56.27Z</time></trkpt><trkpt lat="43.54926" lon="13.0802483"><ele>103.0</ele><time>2026-04-26T09:06:57.269Z</time></trkpt><trkpt lat="43.5491183" lon="13.0802867"><ele>103.0</ele><time>2026-04-26T09:06:58.269Z</time></trkpt><trkpt lat="43.5489833" lon="13.0803217"><ele>103.0</ele><time>2026-04-26T09:06:59.27Z</time></trkpt><trkpt lat="43.5488617" lon="13.08035"><ele>103.0</ele><time>2026-04-26T09:07:00.269Z</time></trkpt><trkpt lat="43.5487417" lon="13.0803633"><ele>103.0</ele><time>2026-04-26T09:07:01.269Z</time></trkpt><trkpt lat="43.5486167" lon="13.0803583"><ele>103.75</ele><time>2026-04-26T09:07:02.269Z</time></trkpt><trkpt lat="43.548495" lon="13.0803283"><ele>104.5</ele><time>2026-04-26T09:07:03.269Z</time></trkpt><trkpt lat="43.5483683" lon="13.0802867"><ele>105.25</ele><time>2026-04-26T09:07:04.269Z</time></trkpt><trkpt lat="43.5482383" lon="13.08024"><ele>106.0</ele><time>2026-04-26T09:07:05.269Z</time></trkpt><trkpt lat="43.5481067" lon="13.08018"><ele>106.0</ele><time>2026-04-26T09:07:06.269Z</time></trkpt><trkpt lat="43.5479808" lon="13.0801176"><ele>106.0</ele><time>2026-04-26T09:07:07.269Z</time></trkpt><trkpt lat="43.5478674" lon="13.0800531"><ele>106.0</ele><time>2026-04-26T09:07:08.269Z</time></trkpt><trkpt lat="43.5477674" lon="13.0799902"><ele>106.0</ele><time>2026-04-26T09:07:09.269Z</time></trkpt><trkpt lat="43.5476716" lon="13.0799252"><ele>105.5</ele><time>2026-04-26T09:07:10.269Z</time></trkpt><trkpt lat="43.5475752" lon="13.0798539"><ele>105.0</ele><time>2026-04-26T09:07:11.269Z</time></trkpt><trkpt lat="43.5474743" lon="13.079777"><ele>104.5</ele><time>2026-04-26T09:07:12.269Z</time></trkpt><trkpt lat="43.5473736" lon="13.0796902"><ele>104.0</ele><time>2026-04-26T09:07:13.27Z</time></trkpt><trkpt lat="43.5472746" lon="13.0796037"><ele>104.0</ele><time>2026-04-26T09:07:14.269Z</time></trkpt><trkpt lat="43.5471756" lon="13.0795235"><ele>104.0</ele><time>2026-04-26T09:07:15.269Z</time></trkpt><trkpt lat="43.5470719" lon="13.0794448"><ele>104.0</ele><time>2026-04-26T09:07:16.27Z</time></trkpt><trkpt lat="43.5469546" lon="13.0793677"><ele>104.0</ele><time>2026-04-26T09:07:17.269Z</time></trkpt><trkpt lat="43.5468326" lon="13.0792933"><ele>103.5</ele><time>2026-04-26T09:07:18.269Z</time></trkpt><trkpt lat="43.5467069" lon="13.0792148"><ele>103.0</ele><time>2026-04-26T09:07:19.27Z</time></trkpt><trkpt lat="43.54659" lon="13.0791409"><ele>102.5</ele><time>2026-04-26T09:07:20.269Z</time></trkpt><trkpt lat="43.5464836" lon="13.0790725"><ele>102.0</ele><time>2026-04-26T09:07:21.269Z</time></trkpt><trkpt lat="43.5463798" lon="13.0790061"><ele>102.0</ele><time>2026-04-26T09:07:22.269Z</time></trkpt><trkpt lat="43.5462821" lon="13.0789483"><ele>102.0</ele><time>2026-04-26T09:07:23.269Z</time></trkpt><trkpt lat="43.5461943" lon="13.0789013"><ele>102.0</ele><time>2026-04-26T09:07:24.269Z</time></trkpt><trkpt lat="43.5461064" lon="13.0788574"><ele>102.0</ele><time>2026-04-26T09:07:25.269Z</time></trkpt><trkpt lat="43.54602" lon="13.0788277"><ele>102.0</ele><time>2026-04-26T09:07:26.269Z</time></trkpt><trkpt lat="43.5459337" lon="13.0788113"><ele>102.6</ele><time>2026-04-26T09:07:27.269Z</time></trkpt><trkpt lat="43.5458468" lon="13.0788029"><ele>103.19999999999999</ele><time>2026-04-26T09:07:28.269Z</time></trkpt><trkpt lat="43.545756" lon="13.0788024"><ele>103.8</ele><time>2026-04-26T09:07:29.27Z</time></trkpt><trkpt lat="43.5456633" lon="13.0787924"><ele>104.4</ele><time>2026-04-26T09:07:30.269Z</time></trkpt><trkpt lat="43.5455675" lon="13.0787563"><ele>105.0</ele><time>2026-04-26T09:07:31.27Z</time></trkpt><trkpt lat="43.5454683" lon="13.0786747"><ele>104.75</ele><time>2026-04-26T09:07:32.269Z</time></trkpt><trkpt lat="43.545373" lon="13.0785507"><ele>104.5</ele><time>2026-04-26T09:07:33.269Z</time></trkpt><trkpt lat="43.5452793" lon="13.0783922"><ele>104.25</ele><time>2026-04-26T09:07:34.269Z</time></trkpt><trkpt lat="43.5451946" lon="13.0782297"><ele>104.0</ele><time>2026-04-26T09:07:35.27Z</time></trkpt><trkpt lat="43.5451112" lon="13.0780702"><ele>103.25</ele><time>2026-04-26T09:07:36.269Z</time></trkpt><trkpt lat="43.5450291" lon="13.0779238"><ele>102.5</ele><time>2026-04-26T09:07:37.269Z</time></trkpt><trkpt lat="43.5449427" lon="13.0777711"><ele>101.75</ele><time>2026-04-26T09:07:38.269Z</time></trkpt><trkpt lat="43.5448443" lon="13.0776241"><ele>101.0</ele><time>2026-04-26T09:07:39.269Z</time></trkpt><trkpt lat="43.5447465" lon="13.0774763"><ele>101.5</ele><time>2026-04-26T09:07:40.269Z</time></trkpt><trkpt lat="43.5446516" lon="13.0773414"><ele>102.0</ele><time>2026-04-26T09:07:41.269Z</time></trkpt><trkpt lat="43.5445528" lon="13.0772182"><ele>102.5</ele><time>2026-04-26T09:07:42.269Z</time></trkpt><trkpt lat="43.5444343" lon="13.0771022"><ele>103.0</ele><time>2026-04-26T09:07:43.269Z</time></trkpt><trkpt lat="43.5443073" lon="13.076993"><ele>103.80000000000001</ele><time>2026-04-26T09:07:44.269Z</time></trkpt><trkpt lat="43.5441884" lon="13.076905"><ele>104.6</ele><time>2026-04-26T09:07:45.27Z</time></trkpt><trkpt lat="43.5440886" lon="13.076822"><ele>105.39999999999999</ele><time>2026-04-26T09:07:46.269Z</time></trkpt><trkpt lat="43.5440079" lon="13.076741"><ele>106.19999999999999</ele><time>2026-04-26T09:07:47.269Z</time></trkpt><trkpt lat="43.5439377" lon="13.0766763"><ele>107.0</ele><time>2026-04-26T09:07:48.269Z</time></trkpt><trkpt lat="43.5438689" lon="13.0766351"><ele>107.0</ele><time>2026-04-26T09:07:49.269Z</time></trkpt><trkpt lat="43.543794" lon="13.0766151"><ele>106.99999999999999</ele><time>2026-04-26T09:07:50.269Z</time></trkpt><trkpt lat="43.5437108" lon="13.0766272"><ele>106.99999999999999</ele><time>2026-04-26T09:07:51.269Z</time></trkpt><trkpt lat="43.5436112" lon="13.0766656"><ele>107.0</ele><time>2026-04-26T09:07:52.269Z</time></trkpt><trkpt lat="43.5434948" lon="13.0767273"><ele>107.0</ele><time>2026-04-26T09:07:53.269Z</time></trkpt><trkpt lat="43.543374" lon="13.0767995"><ele>107.66666666666666</ele><time>2026-04-26T09:07:54.269Z</time></trkpt><trkpt lat="43.5432374" lon="13.0768936"><ele>108.33333333333334</ele><time>2026-04-26T09:07:55.269Z</time></trkpt><trkpt lat="43.5430961" lon="13.0770098"><ele>109.0</ele><time>2026-04-26T09:07:56.269Z</time></trkpt><trkpt lat="43.5429615" lon="13.0771158"><ele>111.6</ele><time>2026-04-26T09:07:57.269Z</time></trkpt><trkpt lat="43.5428514" lon="13.0772034"><ele>114.2</ele><time>2026-04-26T09:07:58.269Z</time></trkpt><trkpt lat="43.5427617" lon="13.0772647"><ele>116.79999999999998</ele><time>2026-04-26T09:07:59.27Z</time></trkpt><trkpt lat="43.5426804" lon="13.0773104"><ele>119.39999999999999</ele><time>2026-04-26T09:08:00.27Z</time></trkpt><trkpt lat="43.5426103" lon="13.0773191"><ele>122.0</ele><time>2026-04-26T09:08:01.269Z</time></trkpt><trkpt lat="43.542549" lon="13.077292"><ele>122.0</ele><time>2026-04-26T09:08:02.269Z</time></trkpt><trkpt lat="43.5424928" lon="13.0772205"><ele>121.99999999999999</ele><time>2026-04-26T09:08:03.269Z</time></trkpt><trkpt lat="43.5424285" lon="13.0771186"><ele>121.99999999999999</ele><time>2026-04-26T09:08:04.269Z</time></trkpt><trkpt lat="43.5423596" lon="13.0769941"><ele>122.0</ele><time>2026-04-26T09:08:05.269Z</time></trkpt><trkpt lat="43.5422918" lon="13.0768646"><ele>122.0</ele><time>2026-04-26T09:08:06.269Z</time></trkpt><trkpt lat="43.542231" lon="13.0767316"><ele>121.39999999999999</ele><time>2026-04-26T09:08:07.269Z</time></trkpt><trkpt lat="43.5421787" lon="13.0765967"><ele>120.79999999999998</ele><time>2026-04-26T09:08:08.27Z</time></trkpt><trkpt lat="43.5421277" lon="13.0764822"><ele>120.2</ele><time>2026-04-26T09:08:09.269Z</time></trkpt><trkpt lat="43.542073" lon="13.0763958"><ele>119.6</ele><time>2026-04-26T09:08:10.27Z</time></trkpt><trkpt lat="43.5420205" lon="13.0763288"><ele>119.0</ele><time>2026-04-26T09:08:11.269Z</time></trkpt><trkpt lat="43.5419138" lon="13.0762616"><ele>121.80000000000001</ele><time>2026-04-26T09:08:13.269Z</time></trkpt><trkpt lat="43.5417837" lon="13.0762572"><ele>124.60000000000001</ele><time>2026-04-26T09:08:15.269Z</time></trkpt><trkpt lat="43.541697" lon="13.0762491"><ele>127.4</ele><time>2026-04-26T09:08:16.269Z</time></trkpt><trkpt lat="43.5415954" lon="13.0762303"><ele>130.20000000000002</ele><time>2026-04-26T09:08:17.269Z</time></trkpt><trkpt lat="43.5414911" lon="13.0762003"><ele>133.0</ele><time>2026-04-26T09:08:18.269Z</time></trkpt><trkpt lat="43.5413988" lon="13.0761664"><ele>133.0</ele><time>2026-04-26T09:08:19.269Z</time></trkpt><trkpt lat="43.5413185" lon="13.0761502"><ele>133.0</ele><time>2026-04-26T09:08:20.269Z</time></trkpt><trkpt lat="43.5412315" lon="13.0761588"><ele>133.0</ele><time>2026-04-26T09:08:21.269Z</time></trkpt><trkpt lat="43.5411325" lon="13.0761991"><ele>133.0</ele><time>2026-04-26T09:08:22.269Z</time></trkpt><trkpt lat="43.5410351" lon="13.076259"><ele>133.0</ele><time>2026-04-26T09:08:23.269Z</time></trkpt><trkpt lat="43.5409367" lon="13.0763483"><ele>136.5</ele><time>2026-04-26T09:08:24.269Z</time></trkpt><trkpt lat="43.5408332" lon="13.0764502"><ele>140.0</ele><time>2026-04-26T09:08:25.269Z</time></trkpt><trkpt lat="43.5407286" lon="13.0765298"><ele>143.5</ele><time>2026-04-26T09:08:26.269Z</time></trkpt><trkpt lat="43.5406134" lon="13.0765861"><ele>147.0</ele><time>2026-04-26T09:08:27.27Z</time></trkpt><trkpt lat="43.540502" lon="13.0766131"><ele>148.4</ele><time>2026-04-26T09:08:28.269Z</time></trkpt><trkpt lat="43.5403938" lon="13.0766071"><ele>149.79999999999998</ele><time>2026-04-26T09:08:29.27Z</time></trkpt><trkpt lat="43.5402842" lon="13.0765825"><ele>151.2</ele><time>2026-04-26T09:08:30.269Z</time></trkpt><trkpt lat="43.540182" lon="13.0765439"><ele>152.6</ele><time>2026-04-26T09:08:31.269Z</time></trkpt><trkpt lat="43.540083" lon="13.0764974"><ele>154.0</ele><time>2026-04-26T09:08:32.269Z</time></trkpt><trkpt lat="43.5399893" lon="13.0764471"><ele>154.0</ele><time>2026-04-26T09:08:33.269Z</time></trkpt><trkpt lat="43.5398969" lon="13.0763913"><ele>154.0</ele><time>2026-04-26T09:08:34.269Z</time></trkpt><trkpt lat="43.5398065" lon="13.0763371"><ele>154.0</ele><time>2026-04-26T09:08:35.269Z</time></trkpt><trkpt lat="43.5397169" lon="13.0762856"><ele>154.0</ele><time>2026-04-26T09:08:36.269Z</time></trkpt><trkpt lat="43.5396279" lon="13.0762345"><ele>154.0</ele><time>2026-04-26T09:08:37.269Z</time></trkpt><trkpt lat="43.5395457" lon="13.0761737"><ele>155.8</ele><time>2026-04-26T09:08:38.269Z</time></trkpt><trkpt lat="43.5394728" lon="13.0761124"><ele>157.60000000000002</ele><time>2026-04-26T09:08:39.269Z</time></trkpt><trkpt lat="43.5394019" lon="13.076047"><ele>159.4</ele><time>2026-04-26T09:08:40.269Z</time></trkpt><trkpt lat="43.5393291" lon="13.0759705"><ele>161.20000000000002</ele><time>2026-04-26T09:08:41.269Z</time></trkpt><trkpt lat="43.5392563" lon="13.0758876"><ele>163.0</ele><time>2026-04-26T09:08:42.27Z</time></trkpt><trkpt lat="43.5391823" lon="13.0758016"><ele>162.0</ele><time>2026-04-26T09:08:43.269Z</time></trkpt><trkpt lat="43.5390988" lon="13.0757273"><ele>161.0</ele><time>2026-04-26T09:08:44.27Z</time></trkpt><trkpt lat="43.5390139" lon="13.0756671"><ele>160.0</ele><time>2026-04-26T09:08:45.27Z</time></trkpt><trkpt lat="43.5389268" lon="13.0756237"><ele>159.0</ele><time>2026-04-26T09:08:46.269Z</time></trkpt><trkpt lat="43.5388329" lon="13.0755991"><ele>158.0</ele><time>2026-04-26T09:08:47.269Z</time></trkpt><trkpt lat="43.5387317" lon="13.075605"><ele>160.25</ele><time>2026-04-26T09:08:48.27Z</time></trkpt><trkpt lat="43.5386217" lon="13.0756267"><ele>162.5</ele><time>2026-04-26T09:08:49.269Z</time></trkpt><trkpt lat="43.53851" lon="13.0756617"><ele>164.75</ele><time>2026-04-26T09:08:50.269Z</time></trkpt><trkpt lat="43.538385" lon="13.075695"><ele>167.0</ele><time>2026-04-26T09:08:51.269Z</time></trkpt><trkpt lat="43.5382617" lon="13.0757167"><ele>167.0</ele><time>2026-04-26T09:08:52.269Z</time></trkpt><trkpt lat="43.5381333" lon="13.0757217"><ele>167.0</ele><time>2026-04-26T09:08:53.269Z</time></trkpt><trkpt lat="43.5380083" lon="13.07573"><ele>167.0</ele><time>2026-04-26T09:08:54.27Z</time></trkpt><trkpt lat="43.53789" lon="13.0757433"><ele>167.0</ele><time>2026-04-26T09:08:55.269Z</time></trkpt><trkpt lat="43.5377883" lon="13.0757533"><ele>168.16666666666666</ele><time>2026-04-26T09:08:56.269Z</time></trkpt><trkpt lat="43.537685" lon="13.075765"><ele>169.33333333333331</ele><time>2026-04-26T09:08:57.269Z</time></trkpt><trkpt lat="43.5375883" lon="13.0757633"><ele>170.5</ele><time>2026-04-26T09:08:58.269Z</time></trkpt><trkpt lat="43.5375067" lon="13.075735"><ele>171.66666666666666</ele><time>2026-04-26T09:08:59.269Z</time></trkpt><trkpt lat="43.5374467" lon="13.0756717"><ele>172.83333333333334</ele><time>2026-04-26T09:09:00.269Z</time></trkpt><trkpt lat="43.5373967" lon="13.07559"><ele>174.0</ele><time>2026-04-26T09:09:01.269Z</time></trkpt><trkpt lat="43.5373567" lon="13.0754967"><ele>174.0</ele><time>2026-04-26T09:09:02.269Z</time></trkpt><trkpt lat="43.5373167" lon="13.0753983"><ele>174.0</ele><time>2026-04-26T09:09:03.269Z</time></trkpt><trkpt lat="43.5372583" lon="13.075315"><ele>174.0</ele><time>2026-04-26T09:09:04.269Z</time></trkpt><trkpt lat="43.53719" lon="13.0752167"><ele>174.0</ele><time>2026-04-26T09:09:05.269Z</time></trkpt><trkpt lat="43.5371167" lon="13.0751367"><ele>174.0</ele><time>2026-04-26T09:09:06.269Z</time></trkpt><trkpt lat="43.53703" lon="13.0750717"><ele>173.5</ele><time>2026-04-26T09:09:07.27Z</time></trkpt><trkpt lat="43.5369233" lon="13.075"><ele>173.0</ele><time>2026-04-26T09:09:08.27Z</time></trkpt><trkpt lat="43.5367933" lon="13.07494"><ele>172.5</ele><time>2026-04-26T09:09:09.269Z</time></trkpt><trkpt lat="43.5366583" lon="13.07489"><ele>172.0</ele><time>2026-04-26T09:09:10.269Z</time></trkpt><trkpt lat="43.5365033" lon="13.0748383"><ele>172.0</ele><time>2026-04-26T09:09:11.269Z</time></trkpt><trkpt lat="43.5363533" lon="13.0747733"><ele>172.0</ele><time>2026-04-26T09:09:12.269Z</time></trkpt><trkpt lat="43.5362" lon="13.074695"><ele>172.0</ele><time>2026-04-26T09:09:13.269Z</time></trkpt><trkpt lat="43.5360583" lon="13.0746217"><ele>175.25</ele><time>2026-04-26T09:09:14.269Z</time></trkpt><trkpt lat="43.5359317" lon="13.0745483"><ele>178.5</ele><time>2026-04-26T09:09:15.269Z</time></trkpt><trkpt lat="43.5358167" lon="13.0744867"><ele>181.75</ele><time>2026-04-26T09:09:16.269Z</time></trkpt><trkpt lat="43.535695" lon="13.0744317"><ele>185.0</ele><time>2026-04-26T09:09:17.269Z</time></trkpt><trkpt lat="43.5355633" lon="13.0743933"><ele>185.0</ele><time>2026-04-26T09:09:18.269Z</time></trkpt><trkpt lat="43.5354217" lon="13.0743717"><ele>185.0</ele><time>2026-04-26T09:09:19.269Z</time></trkpt><trkpt lat="43.535275" lon="13.0743733"><ele>185.0</ele><time>2026-04-26T09:09:20.269Z</time></trkpt><trkpt lat="43.5351267" lon="13.07439"><ele>185.0</ele><time>2026-04-26T09:09:21.269Z</time></trkpt><trkpt lat="43.534995" lon="13.0744117"><ele>187.75</ele><time>2026-04-26T09:09:22.269Z</time></trkpt><trkpt lat="43.5348483" lon="13.0744238"><ele>190.5</ele><time>2026-04-26T09:09:23.269Z</time></trkpt><trkpt lat="43.5347033" lon="13.0744096"><ele>193.25</ele><time>2026-04-26T09:09:24.269Z</time></trkpt><trkpt lat="43.5345694" lon="13.0743793"><ele>196.0</ele><time>2026-04-26T09:09:25.269Z</time></trkpt><trkpt lat="43.5344497" lon="13.074317"><ele>197.25</ele><time>2026-04-26T09:09:26.269Z</time></trkpt><trkpt lat="43.5343456" lon="13.0742271"><ele>198.5</ele><time>2026-04-26T09:09:27.269Z</time></trkpt><trkpt lat="43.5342468" lon="13.0741424"><ele>199.75</ele><time>2026-04-26T09:09:28.269Z</time></trkpt><trkpt lat="43.5341382" lon="13.0740741"><ele>201.0</ele><time>2026-04-26T09:09:29.269Z</time></trkpt><trkpt lat="43.5340116" lon="13.07404"><ele>201.0</ele><time>2026-04-26T09:09:30.269Z</time></trkpt><trkpt lat="43.5338701" lon="13.0740526"><ele>201.0</ele><time>2026-04-26T09:09:31.269Z</time></trkpt><trkpt lat="43.5337371" lon="13.0740772"><ele>201.0</ele><time>2026-04-26T09:09:32.269Z</time></trkpt><trkpt lat="43.5336057" lon="13.0740846"><ele>201.0</ele><time>2026-04-26T09:09:33.269Z</time></trkpt><trkpt lat="43.5334845" lon="13.0740491"><ele>204.25</ele><time>2026-04-26T09:09:34.269Z</time></trkpt><trkpt lat="43.5333729" lon="13.0739752"><ele>207.5</ele><time>2026-04-26T09:09:35.269Z</time></trkpt><trkpt lat="43.5332651" lon="13.0738845"><ele>210.75</ele><time>2026-04-26T09:09:36.269Z</time></trkpt><trkpt lat="43.5331585" lon="13.0737911"><ele>214.0</ele><time>2026-04-26T09:09:37.269Z</time></trkpt><trkpt lat="43.53305" lon="13.0737125"><ele>214.0</ele><time>2026-04-26T09:09:38.269Z</time></trkpt><trkpt lat="43.5329394" lon="13.0736488"><ele>214.0</ele><time>2026-04-26T09:09:39.269Z</time></trkpt><trkpt lat="43.5328274" lon="13.0735893"><ele>214.0</ele><time>2026-04-26T09:09:40.269Z</time></trkpt><trkpt lat="43.5327099" lon="13.0735198"><ele>214.0</ele><time>2026-04-26T09:09:41.269Z</time></trkpt><trkpt lat="43.532587" lon="13.0734438"><ele>216.39999999999998</ele><time>2026-04-26T09:09:42.269Z</time></trkpt><trkpt lat="43.5324793" lon="13.0733688"><ele>218.79999999999998</ele><time>2026-04-26T09:09:43.269Z</time></trkpt><trkpt lat="43.5323886" lon="13.0732828"><ele>221.20000000000002</ele><time>2026-04-26T09:09:44.269Z</time></trkpt><trkpt lat="43.5323072" lon="13.0731851"><ele>223.60000000000002</ele><time>2026-04-26T09:09:45.269Z</time></trkpt><trkpt lat="43.532236" lon="13.0730749"><ele>226.0</ele><time>2026-04-26T09:09:46.269Z</time></trkpt><trkpt lat="43.532172" lon="13.0729728"><ele>226.0</ele><time>2026-04-26T09:09:47.269Z</time></trkpt><trkpt lat="43.5321039" lon="13.0728842"><ele>226.00000000000003</ele><time>2026-04-26T09:09:48.269Z</time></trkpt><trkpt lat="43.5320249" lon="13.0728231"><ele>226.00000000000003</ele><time>2026-04-26T09:09:49.269Z</time></trkpt><trkpt lat="43.5319209" lon="13.0727936"><ele>226.0</ele><time>2026-04-26T09:09:50.269Z</time></trkpt><trkpt lat="43.5318032" lon="13.0727957"><ele>226.0</ele><time>2026-04-26T09:09:51.269Z</time></trkpt><trkpt lat="43.5316733" lon="13.0728112"><ele>231.0</ele><time>2026-04-26T09:09:52.27Z</time></trkpt><trkpt lat="43.5315397" lon="13.0728396"><ele>236.0</ele><time>2026-04-26T09:09:53.269Z</time></trkpt><trkpt lat="43.5313977" lon="13.0728706"><ele>241.0</ele><time>2026-04-26T09:09:54.269Z</time></trkpt><trkpt lat="43.5312616" lon="13.0728909"><ele>246.0</ele><time>2026-04-26T09:09:55.269Z</time></trkpt><trkpt lat="43.53113" lon="13.0728983"><ele>250.0</ele><time>2026-04-26T09:09:56.27Z</time></trkpt><trkpt lat="43.5310017" lon="13.0729083"><ele>254.0</ele><time>2026-04-26T09:09:57.269Z</time></trkpt><trkpt lat="43.53087" lon="13.0729067"><ele>258.0</ele><time>2026-04-26T09:09:58.269Z</time></trkpt><trkpt lat="43.5307417" lon="13.0729167"><ele>262.0</ele><time>2026-04-26T09:09:59.269Z</time></trkpt><trkpt lat="43.53064" lon="13.072935"><ele>262.0</ele><time>2026-04-26T09:10:00.269Z</time></trkpt><trkpt lat="43.5305533" lon="13.0729617"><ele>262.0</ele><time>2026-04-26T09:10:01.269Z</time></trkpt><trkpt lat="43.5304833" lon="13.0730133"><ele>262.0</ele><time>2026-04-26T09:10:02.27Z</time></trkpt><trkpt lat="43.5304133" lon="13.073075"><ele>262.0</ele><time>2026-04-26T09:10:03.27Z</time></trkpt><trkpt lat="43.5303517" lon="13.0731417"><ele>262.0</ele><time>2026-04-26T09:10:04.269Z</time></trkpt><trkpt lat="43.5302967" lon="13.0731883"><ele>262.0</ele><time>2026-04-26T09:10:05.269Z</time></trkpt><trkpt lat="43.530215" lon="13.0732733"><ele>265.0</ele><time>2026-04-26T09:10:07.269Z</time></trkpt><trkpt lat="43.530155" lon="13.0733167"><ele>268.0</ele><time>2026-04-26T09:10:08.269Z</time></trkpt><trkpt lat="43.53008" lon="13.07336"><ele>271.0</ele><time>2026-04-26T09:10:09.269Z</time></trkpt><trkpt lat="43.53" lon="13.0734033"><ele>274.0</ele><time>2026-04-26T09:10:10.269Z</time></trkpt><trkpt lat="43.5299183" lon="13.0734567"><ele>277.0</ele><time>2026-04-26T09:10:11.269Z</time></trkpt><trkpt lat="43.5298283" lon="13.0735"><ele>280.0</ele><time>2026-04-26T09:10:12.27Z</time></trkpt><trkpt lat="43.5297433" lon="13.07353"><ele>280.0</ele><time>2026-04-26T09:10:13.269Z</time></trkpt><trkpt lat="43.5296767" lon="13.073555"><ele>280.0</ele><time>2026-04-26T09:10:14.269Z</time></trkpt><trkpt lat="43.52957" lon="13.0736017"><ele>280.0</ele><time>2026-04-26T09:10:16.269Z</time></trkpt><trkpt lat="43.5294917" lon="13.0736017"><ele>280.0</ele><time>2026-04-26T09:10:18.269Z</time></trkpt><trkpt lat="43.52942" lon="13.073495"><ele>280.0</ele><time>2026-04-26T09:10:20.269Z</time></trkpt><trkpt lat="43.52939" lon="13.0734"><ele>280.0</ele><time>2026-04-26T09:10:21.269Z</time></trkpt><trkpt lat="43.52936" lon="13.073285"><ele>282.0</ele><time>2026-04-26T09:10:22.269Z</time></trkpt><trkpt lat="43.52932" lon="13.0731433"><ele>284.0</ele><time>2026-04-26T09:10:23.269Z</time></trkpt><trkpt lat="43.5292817" lon="13.0729817"><ele>286.0</ele><time>2026-04-26T09:10:24.27Z</time></trkpt><trkpt lat="43.5292317" lon="13.0728267"><ele>288.0</ele><time>2026-04-26T09:10:25.27Z</time></trkpt><trkpt lat="43.5291783" lon="13.07269"><ele>288.0</ele><time>2026-04-26T09:10:26.269Z</time></trkpt><trkpt lat="43.529135" lon="13.07255"><ele>288.0</ele><time>2026-04-26T09:10:27.269Z</time></trkpt><trkpt lat="43.529105" lon="13.0724167"><ele>288.0</ele><time>2026-04-26T09:10:28.27Z</time></trkpt><trkpt lat="43.5290833" lon="13.07229"><ele>288.0</ele><time>2026-04-26T09:10:29.27Z</time></trkpt><trkpt lat="43.5290883" lon="13.0721667"><ele>288.0</ele><time>2026-04-26T09:10:30.269Z</time></trkpt><trkpt lat="43.5291167" lon="13.0720383"><ele>288.5</ele><time>2026-04-26T09:10:31.269Z</time></trkpt><trkpt lat="43.5291583" lon="13.0719033"><ele>289.0</ele><time>2026-04-26T09:10:32.269Z</time></trkpt><trkpt lat="43.529215" lon="13.0717617"><ele>289.5</ele><time>2026-04-26T09:10:33.269Z</time></trkpt><trkpt lat="43.529275" lon="13.0716"><ele>290.0</ele><time>2026-04-26T09:10:34.27Z</time></trkpt><trkpt lat="43.5293317" lon="13.071425"><ele>292.25</ele><time>2026-04-26T09:10:35.269Z</time></trkpt><trkpt lat="43.5293867" lon="13.0712333"><ele>294.5</ele><time>2026-04-26T09:10:36.268Z</time></trkpt><trkpt lat="43.5294367" lon="13.071045"><ele>296.75</ele><time>2026-04-26T09:10:37.268Z</time></trkpt><trkpt lat="43.52948" lon="13.0708733"><ele>299.0</ele><time>2026-04-26T09:10:38.268Z</time></trkpt><trkpt lat="43.5295033" lon="13.0707033"><ele>300.5</ele><time>2026-04-26T09:10:39.268Z</time></trkpt><trkpt lat="43.5295033" lon="13.0705417"><ele>302.0</ele><time>2026-04-26T09:10:40.268Z</time></trkpt><trkpt lat="43.5294817" lon="13.0703767"><ele>303.5</ele><time>2026-04-26T09:10:41.268Z</time></trkpt><trkpt lat="43.52944" lon="13.07021"><ele>305.0</ele><time>2026-04-26T09:10:42.268Z</time></trkpt><trkpt lat="43.5293933" lon="13.0700483"><ele>305.6666666666667</ele><time>2026-04-26T09:10:43.268Z</time></trkpt><trkpt lat="43.5293517" lon="13.0699183"><ele>306.33333333333337</ele><time>2026-04-26T09:10:44.268Z</time></trkpt><trkpt lat="43.5293217" lon="13.0698333"><ele>307.0</ele><time>2026-04-26T09:10:45.268Z</time></trkpt><trkpt lat="43.52929" lon="13.069745"><ele>307.6666666666667</ele><time>2026-04-26T09:10:47.268Z</time></trkpt><trkpt lat="43.52921" lon="13.0697017"><ele>308.3333333333333</ele><time>2026-04-26T09:10:50.268Z</time></trkpt><trkpt lat="43.5291533" lon="13.0698167"><ele>309.0</ele><time>2026-04-26T09:10:52.268Z</time></trkpt><trkpt lat="43.5291167" lon="13.0699183"><ele>308.2</ele><time>2026-04-26T09:10:53.269Z</time></trkpt><trkpt lat="43.5290983" lon="13.070045"><ele>307.4</ele><time>2026-04-26T09:10:54.268Z</time></trkpt><trkpt lat="43.5290783" lon="13.0701817"><ele>306.6</ele><time>2026-04-26T09:10:55.269Z</time></trkpt><trkpt lat="43.5290533" lon="13.0703183"><ele>305.8</ele><time>2026-04-26T09:10:56.268Z</time></trkpt><trkpt lat="43.52903" lon="13.07043"><ele>305.0</ele><time>2026-04-26T09:10:57.268Z</time></trkpt><trkpt lat="43.52899" lon="13.0705117"><ele>305.0</ele><time>2026-04-26T09:10:58.268Z</time></trkpt><trkpt lat="43.5288733" lon="13.0705733"><ele>305.0</ele><time>2026-04-26T09:11:00.268Z</time></trkpt><trkpt lat="43.5288133" lon="13.07054"><ele>305.0</ele><time>2026-04-26T09:11:01.268Z</time></trkpt><trkpt lat="43.5287833" lon="13.07043"><ele>305.0</ele><time>2026-04-26T09:11:02.268Z</time></trkpt><trkpt lat="43.5287633" lon="13.0703033"><ele>305.0</ele><time>2026-04-26T09:11:03.269Z</time></trkpt><trkpt lat="43.5287483" lon="13.0701633"><ele>305.0</ele><time>2026-04-26T09:11:04.268Z</time></trkpt><trkpt lat="43.5287517" lon="13.0700033"><ele>305.0</ele><time>2026-04-26T09:11:05.268Z</time></trkpt><trkpt lat="43.5287467" lon="13.06984"><ele>305.0</ele><time>2026-04-26T09:11:06.268Z</time></trkpt><trkpt lat="43.5287367" lon="13.0696917"><ele>305.0</ele><time>2026-04-26T09:11:07.268Z</time></trkpt><trkpt lat="43.5287033" lon="13.0695667"><ele>305.0</ele><time>2026-04-26T09:11:08.269Z</time></trkpt><trkpt lat="43.528655" lon="13.0694467"><ele>307.83333333333337</ele><time>2026-04-26T09:11:09.268Z</time></trkpt><trkpt lat="43.5285983" lon="13.06935"><ele>310.6666666666667</ele><time>2026-04-26T09:11:10.268Z</time></trkpt><trkpt lat="43.5285183" lon="13.0692783"><ele>313.5</ele><time>2026-04-26T09:11:11.268Z</time></trkpt><trkpt lat="43.5284533" lon="13.0692133"><ele>316.3333333333333</ele><time>2026-04-26T09:11:12.269Z</time></trkpt><trkpt lat="43.52838" lon="13.069155"><ele>319.16666666666663</ele><time>2026-04-26T09:11:13.268Z</time></trkpt><trkpt lat="43.5283083" lon="13.0690817"><ele>322.0</ele><time>2026-04-26T09:11:14.268Z</time></trkpt><trkpt lat="43.5282517" lon="13.0690033"><ele>323.6</ele><time>2026-04-26T09:11:15.268Z</time></trkpt><trkpt lat="43.5282033" lon="13.0689117"><ele>325.20000000000005</ele><time>2026-04-26T09:11:16.269Z</time></trkpt><trkpt lat="43.5281617" lon="13.0688017"><ele>326.8</ele><time>2026-04-26T09:11:17.268Z</time></trkpt><trkpt lat="43.5281133" lon="13.06869"><ele>328.4</ele><time>2026-04-26T09:11:18.268Z</time></trkpt><trkpt lat="43.5280667" lon="13.0685633"><ele>330.0</ele><time>2026-04-26T09:11:19.268Z</time></trkpt><trkpt lat="43.5280217" lon="13.0684267"><ele>330.0</ele><time>2026-04-26T09:11:20.268Z</time></trkpt><trkpt lat="43.5279767" lon="13.0682933"><ele>330.0</ele><time>2026-04-26T09:11:21.268Z</time></trkpt><trkpt lat="43.5279317" lon="13.0681733"><ele>330.0</ele><time>2026-04-26T09:11:22.268Z</time></trkpt><trkpt lat="43.5278883" lon="13.0680833"><ele>330.0</ele><time>2026-04-26T09:11:23.268Z</time></trkpt><trkpt lat="43.52785" lon="13.068"><ele>330.0</ele><time>2026-04-26T09:11:24.268Z</time></trkpt><trkpt lat="43.5278017" lon="13.0678583"><ele>333.0</ele><time>2026-04-26T09:11:26.268Z</time></trkpt><trkpt lat="43.5277567" lon="13.0677567"><ele>336.0</ele><time>2026-04-26T09:11:28.268Z</time></trkpt><trkpt lat="43.5277067" lon="13.0675867"><ele>339.0</ele><time>2026-04-26T09:11:30.268Z</time></trkpt><trkpt lat="43.5276817" lon="13.06745"><ele>342.0</ele><time>2026-04-26T09:11:31.268Z</time></trkpt><trkpt lat="43.52765" lon="13.06727"><ele>342.75</ele><time>2026-04-26T09:11:32.268Z</time></trkpt><trkpt lat="43.52762" lon="13.06708"><ele>343.5</ele><time>2026-04-26T09:11:33.268Z</time></trkpt><trkpt lat="43.5275833" lon="13.066885"><ele>344.25</ele><time>2026-04-26T09:11:34.268Z</time></trkpt><trkpt lat="43.5275383" lon="13.0666883"><ele>345.0</ele><time>2026-04-26T09:11:35.268Z</time></trkpt><trkpt lat="43.5274967" lon="13.0665067"><ele>345.0</ele><time>2026-04-26T09:11:36.269Z</time></trkpt><trkpt lat="43.5274533" lon="13.0663333"><ele>345.0</ele><time>2026-04-26T09:11:37.268Z</time></trkpt><trkpt lat="43.5273933" lon="13.06617"><ele>345.0</ele><time>2026-04-26T09:11:38.268Z</time></trkpt><trkpt lat="43.5273367" lon="13.0660083"><ele>345.0</ele><time>2026-04-26T09:11:39.268Z</time></trkpt><trkpt lat="43.5272667" lon="13.0658467"><ele>343.5</ele><time>2026-04-26T09:11:40.268Z</time></trkpt><trkpt lat="43.5271967" lon="13.06571"><ele>342.0</ele><time>2026-04-26T09:11:41.268Z</time></trkpt><trkpt lat="43.52711" lon="13.0655617"><ele>340.5</ele><time>2026-04-26T09:11:42.268Z</time></trkpt><trkpt lat="43.52703" lon="13.0654083"><ele>339.0</ele><time>2026-04-26T09:11:43.268Z</time></trkpt><trkpt lat="43.526965" lon="13.065255"><ele>342.2</ele><time>2026-04-26T09:11:44.269Z</time></trkpt><trkpt lat="43.5268867" lon="13.065135"><ele>345.4</ele><time>2026-04-26T09:11:45.268Z</time></trkpt><trkpt lat="43.5268167" lon="13.0650117"><ele>348.6</ele><time>2026-04-26T09:11:46.268Z</time></trkpt><trkpt lat="43.5267633" lon="13.064885"><ele>351.8</ele><time>2026-04-26T09:11:47.268Z</time></trkpt><trkpt lat="43.526715" lon="13.064775"><ele>355.0</ele><time>2026-04-26T09:11:48.268Z</time></trkpt><trkpt lat="43.5266617" lon="13.0646833"><ele>356.0</ele><time>2026-04-26T09:11:49.268Z</time></trkpt><trkpt lat="43.5266367" lon="13.0645733"><ele>357.0</ele><time>2026-04-26T09:11:50.268Z</time></trkpt><trkpt lat="43.526615" lon="13.06446"><ele>358.0</ele><time>2026-04-26T09:11:51.268Z</time></trkpt><trkpt lat="43.5265983" lon="13.0643467"><ele>359.0</ele><time>2026-04-26T09:11:52.268Z</time></trkpt><trkpt lat="43.5265917" lon="13.0642367"><ele>360.0</ele><time>2026-04-26T09:11:53.268Z</time></trkpt><trkpt lat="43.5265917" lon="13.0641317"><ele>361.0</ele><time>2026-04-26T09:11:54.269Z</time></trkpt><trkpt lat="43.5265917" lon="13.064035"><ele>361.8333333333333</ele><time>2026-04-26T09:11:55.268Z</time></trkpt><trkpt lat="43.5265983" lon="13.0639417"><ele>362.66666666666663</ele><time>2026-04-26T09:11:56.268Z</time></trkpt><trkpt lat="43.5266133" lon="13.0638417"><ele>363.5</ele><time>2026-04-26T09:11:57.268Z</time></trkpt><trkpt lat="43.5266383" lon="13.0637417"><ele>364.3333333333333</ele><time>2026-04-26T09:11:58.269Z</time></trkpt><trkpt lat="43.5266783" lon="13.06364"><ele>365.1666666666667</ele><time>2026-04-26T09:11:59.268Z</time></trkpt><trkpt lat="43.5267183" lon="13.0635417"><ele>366.0</ele><time>2026-04-26T09:12:00.268Z</time></trkpt><trkpt lat="43.5267617" lon="13.0634367"><ele>366.0</ele><time>2026-04-26T09:12:01.268Z</time></trkpt><trkpt lat="43.5268" lon="13.0633233"><ele>366.0</ele><time>2026-04-26T09:12:02.268Z</time></trkpt><trkpt lat="43.5268317" lon="13.0632133"><ele>366.0</ele><time>2026-04-26T09:12:03.268Z</time></trkpt><trkpt lat="43.526875" lon="13.0631"><ele>366.0</ele><time>2026-04-26T09:12:04.269Z</time></trkpt><trkpt lat="43.5269217" lon="13.0629783"><ele>366.0</ele><time>2026-04-26T09:12:05.269Z</time></trkpt><trkpt lat="43.5269683" lon="13.062835"><ele>367.75</ele><time>2026-04-26T09:12:06.268Z</time></trkpt><trkpt lat="43.5270217" lon="13.0626783"><ele>369.5</ele><time>2026-04-26T09:12:07.268Z</time></trkpt><trkpt lat="43.5270883" lon="13.0625183"><ele>371.25</ele><time>2026-04-26T09:12:08.268Z</time></trkpt><trkpt lat="43.5271467" lon="13.0623817"><ele>373.0</ele><time>2026-04-26T09:12:09.268Z</time></trkpt><trkpt lat="43.5272033" lon="13.0622283"><ele>369.5</ele><time>2026-04-26T09:12:10.268Z</time></trkpt><trkpt lat="43.5272617" lon="13.062065"><ele>366.0</ele><time>2026-04-26T09:12:11.268Z</time></trkpt><trkpt lat="43.52733" lon="13.0618867"><ele>362.5</ele><time>2026-04-26T09:12:12.268Z</time></trkpt><trkpt lat="43.527395" lon="13.06172"><ele>359.0</ele><time>2026-04-26T09:12:13.268Z</time></trkpt><trkpt lat="43.527465" lon="13.06156"><ele>359.0</ele><time>2026-04-26T09:12:14.268Z</time></trkpt><trkpt lat="43.5275283" lon="13.06141"><ele>359.0</ele><time>2026-04-26T09:12:15.268Z</time></trkpt><trkpt lat="43.527585" lon="13.0612717"><ele>359.0</ele><time>2026-04-26T09:12:16.268Z</time></trkpt><trkpt lat="43.527635" lon="13.0611417"><ele>359.0</ele><time>2026-04-26T09:12:17.268Z</time></trkpt><trkpt lat="43.52769" lon="13.0609983"><ele>359.0</ele><time>2026-04-26T09:12:18.268Z</time></trkpt><trkpt lat="43.52775" lon="13.0608583"><ele>359.0</ele><time>2026-04-26T09:12:19.268Z</time></trkpt><trkpt lat="43.5278083" lon="13.0607133"><ele>359.0</ele><time>2026-04-26T09:12:20.268Z</time></trkpt><trkpt lat="43.5278733" lon="13.0605617"><ele>359.0</ele><time>2026-04-26T09:12:21.268Z</time></trkpt><trkpt lat="43.5279417" lon="13.0604267"><ele>360.5</ele><time>2026-04-26T09:12:22.268Z</time></trkpt><trkpt lat="43.5280083" lon="13.0602833"><ele>362.0</ele><time>2026-04-26T09:12:23.268Z</time></trkpt><trkpt lat="43.5280683" lon="13.0601433"><ele>363.5</ele><time>2026-04-26T09:12:24.268Z</time></trkpt><trkpt lat="43.5281317" lon="13.0600183"><ele>365.0</ele><time>2026-04-26T09:12:25.268Z</time></trkpt><trkpt lat="43.5281883" lon="13.0599033"><ele>366.6</ele><time>2026-04-26T09:12:26.268Z</time></trkpt><trkpt lat="43.5282367" lon="13.0598133"><ele>368.2</ele><time>2026-04-26T09:12:27.268Z</time></trkpt><trkpt lat="43.5282867" lon="13.05973"><ele>369.79999999999995</ele><time>2026-04-26T09:12:28.268Z</time></trkpt><trkpt lat="43.528325" lon="13.059635"><ele>371.4</ele><time>2026-04-26T09:12:29.269Z</time></trkpt><trkpt lat="43.5283717" lon="13.0595183"><ele>373.0</ele><time>2026-04-26T09:12:30.268Z</time></trkpt><trkpt lat="43.5284267" lon="13.0593733"><ele>373.0</ele><time>2026-04-26T09:12:31.268Z</time></trkpt><trkpt lat="43.5284783" lon="13.0592067"><ele>373.0</ele><time>2026-04-26T09:12:32.268Z</time></trkpt><trkpt lat="43.5285317" lon="13.0590517"><ele>373.0</ele><time>2026-04-26T09:12:33.268Z</time></trkpt><trkpt lat="43.5285783" lon="13.058885"><ele>373.0</ele><time>2026-04-26T09:12:34.268Z</time></trkpt><trkpt lat="43.528615" lon="13.058715"><ele>374.0</ele><time>2026-04-26T09:12:35.268Z</time></trkpt><trkpt lat="43.5286417" lon="13.0585517"><ele>375.0</ele><time>2026-04-26T09:12:36.269Z</time></trkpt><trkpt lat="43.52865" lon="13.0583817"><ele>376.0</ele><time>2026-04-26T09:12:37.268Z</time></trkpt><trkpt lat="43.5286467" lon="13.058175"><ele>377.0</ele><time>2026-04-26T09:12:38.269Z</time></trkpt><trkpt lat="43.5286217" lon="13.0579633"><ele>377.0</ele><time>2026-04-26T09:12:39.268Z</time></trkpt><trkpt lat="43.5285883" lon="13.0577433"><ele>377.0</ele><time>2026-04-26T09:12:40.268Z</time></trkpt><trkpt lat="43.52856" lon="13.0575317"><ele>377.0</ele><time>2026-04-26T09:12:41.268Z</time></trkpt><trkpt lat="43.52852" lon="13.057315"><ele>376.0</ele><time>2026-04-26T09:12:42.268Z</time></trkpt><trkpt lat="43.5284717" lon="13.0570933"><ele>375.0</ele><time>2026-04-26T09:12:43.268Z</time></trkpt><trkpt lat="43.5284267" lon="13.0568817"><ele>374.0</ele><time>2026-04-26T09:12:44.268Z</time></trkpt><trkpt lat="43.52837" lon="13.0566817"><ele>373.75</ele><time>2026-04-26T09:12:45.268Z</time></trkpt><trkpt lat="43.52831" lon="13.0565"><ele>373.5</ele><time>2026-04-26T09:12:46.268Z</time></trkpt><trkpt lat="43.5282533" lon="13.0563283"><ele>373.25</ele><time>2026-04-26T09:12:47.268Z</time></trkpt><trkpt lat="43.5281883" lon="13.05616"><ele>373.0</ele><time>2026-04-26T09:12:48.268Z</time></trkpt><trkpt lat="43.528125" lon="13.0559933"><ele>373.0</ele><time>2026-04-26T09:12:49.268Z</time></trkpt><trkpt lat="43.5280633" lon="13.0558383"><ele>373.0</ele><time>2026-04-26T09:12:50.268Z</time></trkpt><trkpt lat="43.5280017" lon="13.05569"><ele>373.0</ele><time>2026-04-26T09:12:51.269Z</time></trkpt><trkpt lat="43.5279367" lon="13.0555533"><ele>373.0</ele><time>2026-04-26T09:12:52.268Z</time></trkpt><trkpt lat="43.52788" lon="13.0554367"><ele>372.59999999999997</ele><time>2026-04-26T09:12:53.268Z</time></trkpt><trkpt lat="43.5278233" lon="13.0553217"><ele>372.2</ele><time>2026-04-26T09:12:54.268Z</time></trkpt><trkpt lat="43.5277733" lon="13.055195"><ele>371.8</ele><time>2026-04-26T09:12:55.268Z</time></trkpt><trkpt lat="43.5277233" lon="13.05507"><ele>371.4</ele><time>2026-04-26T09:12:56.268Z</time></trkpt><trkpt lat="43.5276683" lon="13.05495"><ele>371.0</ele><time>2026-04-26T09:12:57.268Z</time></trkpt><trkpt lat="43.527605" lon="13.0548317"><ele>370.25</ele><time>2026-04-26T09:12:58.268Z</time></trkpt><trkpt lat="43.527545" lon="13.0547"><ele>369.5</ele><time>2026-04-26T09:12:59.268Z</time></trkpt><trkpt lat="43.5274783" lon="13.0545683"><ele>368.75</ele><time>2026-04-26T09:13:00.268Z</time></trkpt><trkpt lat="43.5273917" lon="13.054425"><ele>368.0</ele><time>2026-04-26T09:13:01.268Z</time></trkpt><trkpt lat="43.5273083" lon="13.0542767"><ele>368.0</ele><time>2026-04-26T09:13:02.268Z</time></trkpt><trkpt lat="43.5272283" lon="13.05413"><ele>368.0</ele><time>2026-04-26T09:13:03.268Z</time></trkpt><trkpt lat="43.5271533" lon="13.0539833"><ele>368.0</ele><time>2026-04-26T09:13:04.268Z</time></trkpt><trkpt lat="43.5270783" lon="13.05385"><ele>368.0</ele><time>2026-04-26T09:13:05.268Z</time></trkpt><trkpt lat="43.5269983" lon="13.0537233"><ele>365.5</ele><time>2026-04-26T09:13:06.268Z</time></trkpt><trkpt lat="43.52692" lon="13.0535933"><ele>363.0</ele><time>2026-04-26T09:13:07.268Z</time></trkpt><trkpt lat="43.5268367" lon="13.053465"><ele>360.5</ele><time>2026-04-26T09:13:08.268Z</time></trkpt><trkpt lat="43.526755" lon="13.0533383"><ele>358.0</ele><time>2026-04-26T09:13:09.268Z</time></trkpt><trkpt lat="43.526655" lon="13.0532183"><ele>354.75</ele><time>2026-04-26T09:13:10.268Z</time></trkpt><trkpt lat="43.5265433" lon="13.0531133"><ele>351.5</ele><time>2026-04-26T09:13:11.268Z</time></trkpt><trkpt lat="43.5264183" lon="13.05302"><ele>348.25</ele><time>2026-04-26T09:13:12.268Z</time></trkpt><trkpt lat="43.5262683" lon="13.0529483"><ele>345.0</ele><time>2026-04-26T09:13:13.268Z</time></trkpt><trkpt lat="43.5261183" lon="13.0528833"><ele>345.0</ele><time>2026-04-26T09:13:14.268Z</time></trkpt><trkpt lat="43.5259633" lon="13.0528367"><ele>345.0</ele><time>2026-04-26T09:13:15.268Z</time></trkpt><trkpt lat="43.5258133" lon="13.052775"><ele>345.0</ele><time>2026-04-26T09:13:16.268Z</time></trkpt><trkpt lat="43.5256717" lon="13.05273"><ele>345.0</ele><time>2026-04-26T09:13:17.268Z</time></trkpt><trkpt lat="43.5255267" lon="13.0526667"><ele>345.0</ele><time>2026-04-26T09:13:18.269Z</time></trkpt><trkpt lat="43.525395" lon="13.0526133"><ele>345.0</ele><time>2026-04-26T09:13:19.269Z</time></trkpt><trkpt lat="43.5252567" lon="13.0525733"><ele>345.0</ele><time>2026-04-26T09:13:20.268Z</time></trkpt><trkpt lat="43.52513" lon="13.0525367"><ele>344.75</ele><time>2026-04-26T09:13:21.268Z</time></trkpt><trkpt lat="43.5249967" lon="13.0524983"><ele>344.5</ele><time>2026-04-26T09:13:22.268Z</time></trkpt><trkpt lat="43.524855" lon="13.052465"><ele>344.25</ele><time>2026-04-26T09:13:23.268Z</time></trkpt><trkpt lat="43.5247117" lon="13.05243"><ele>344.0</ele><time>2026-04-26T09:13:24.268Z</time></trkpt><trkpt lat="43.5245567" lon="13.052415"><ele>339.6666666666667</ele><time>2026-04-26T09:13:25.268Z</time></trkpt><trkpt lat="43.5243867" lon="13.052415"><ele>335.3333333333333</ele><time>2026-04-26T09:13:26.268Z</time></trkpt><trkpt lat="43.5242033" lon="13.0524217"><ele>331.0</ele><time>2026-04-26T09:13:27.268Z</time></trkpt><trkpt lat="43.5240117" lon="13.05243"><ele>331.0</ele><time>2026-04-26T09:13:28.268Z</time></trkpt><trkpt lat="43.5238167" lon="13.0524333"><ele>331.0</ele><time>2026-04-26T09:13:29.268Z</time></trkpt><trkpt lat="43.52364" lon="13.0524317"><ele>331.0</ele><time>2026-04-26T09:13:30.268Z</time></trkpt><trkpt lat="43.52347" lon="13.05244"><ele>329.3333333333333</ele><time>2026-04-26T09:13:31.268Z</time></trkpt><trkpt lat="43.5233033" lon="13.052445"><ele>327.6666666666667</ele><time>2026-04-26T09:13:32.268Z</time></trkpt><trkpt lat="43.52314" lon="13.0524467"><ele>326.0</ele><time>2026-04-26T09:13:33.268Z</time></trkpt><trkpt lat="43.5229717" lon="13.0524383"><ele>326.33333333333337</ele><time>2026-04-26T09:13:34.268Z</time></trkpt><trkpt lat="43.522805" lon="13.052405"><ele>326.6666666666667</ele><time>2026-04-26T09:13:35.269Z</time></trkpt><trkpt lat="43.5226283" lon="13.052355"><ele>327.0</ele><time>2026-04-26T09:13:36.268Z</time></trkpt><trkpt lat="43.5224467" lon="13.0522883"><ele>327.0</ele><time>2026-04-26T09:13:37.268Z</time></trkpt><trkpt lat="43.5222617" lon="13.0521983"><ele>327.0</ele><time>2026-04-26T09:13:38.268Z</time></trkpt><trkpt lat="43.52208" lon="13.0520983"><ele>327.0</ele><time>2026-04-26T09:13:39.268Z</time></trkpt><trkpt lat="43.5219033" lon="13.0519983"><ele>327.3333333333333</ele><time>2026-04-26T09:13:40.268Z</time></trkpt><trkpt lat="43.52172" lon="13.0518983"><ele>327.66666666666663</ele><time>2026-04-26T09:13:41.268Z</time></trkpt><trkpt lat="43.5215383" lon="13.0517933"><ele>328.0</ele><time>2026-04-26T09:13:42.268Z</time></trkpt><trkpt lat="43.521355" lon="13.0516917"><ele>328.66666666666663</ele><time>2026-04-26T09:13:43.268Z</time></trkpt><trkpt lat="43.5211733" lon="13.0515983"><ele>329.3333333333333</ele><time>2026-04-26T09:13:44.269Z</time></trkpt><trkpt lat="43.5209917" lon="13.0515017"><ele>330.0</ele><time>2026-04-26T09:13:45.268Z</time></trkpt><trkpt lat="43.5208" lon="13.051425"><ele>330.0</ele><time>2026-04-26T09:13:46.268Z</time></trkpt><trkpt lat="43.5206067" lon="13.0513633"><ele>330.0</ele><time>2026-04-26T09:13:47.269Z</time></trkpt><trkpt lat="43.5204" lon="13.0513233"><ele>330.0</ele><time>2026-04-26T09:13:48.268Z</time></trkpt><trkpt lat="43.5201767" lon="13.051295"><ele>329.5</ele><time>2026-04-26T09:13:49.268Z</time></trkpt><trkpt lat="43.5199483" lon="13.0512617"><ele>329.0</ele><time>2026-04-26T09:13:50.269Z</time></trkpt><trkpt lat="43.5197167" lon="13.0512267"><ele>328.0</ele><time>2026-04-26T09:13:51.268Z</time></trkpt><trkpt lat="43.5194817" lon="13.0512067"><ele>327.0</ele><time>2026-04-26T09:13:52.268Z</time></trkpt><trkpt lat="43.51925" lon="13.0511917"><ele>327.0</ele><time>2026-04-26T09:13:53.268Z</time></trkpt><trkpt lat="43.5190283" lon="13.0511767"><ele>327.0</ele><time>2026-04-26T09:13:54.268Z</time></trkpt><trkpt lat="43.51883" lon="13.0511617"><ele>327.0</ele><time>2026-04-26T09:13:55.268Z</time></trkpt><trkpt lat="43.5186367" lon="13.0511483"><ele>328.3333333333333</ele><time>2026-04-26T09:13:56.268Z</time></trkpt><trkpt lat="43.5184533" lon="13.0511367"><ele>329.66666666666663</ele><time>2026-04-26T09:13:57.268Z</time></trkpt><trkpt lat="43.5182733" lon="13.0511267"><ele>331.0</ele><time>2026-04-26T09:13:58.268Z</time></trkpt><trkpt lat="43.5180917" lon="13.051115"><ele>331.0</ele><time>2026-04-26T09:13:59.268Z</time></trkpt><trkpt lat="43.5179317" lon="13.0511017"><ele>331.0</ele><time>2026-04-26T09:14:00.268Z</time></trkpt><trkpt lat="43.5177667" lon="13.0511"><ele>331.0</ele><time>2026-04-26T09:14:01.268Z</time></trkpt><trkpt lat="43.5176" lon="13.051105"><ele>332.66666666666663</ele><time>2026-04-26T09:14:02.268Z</time></trkpt><trkpt lat="43.5174383" lon="13.0511133"><ele>334.3333333333333</ele><time>2026-04-26T09:14:03.268Z</time></trkpt><trkpt lat="43.5172717" lon="13.0511317"><ele>336.0</ele><time>2026-04-26T09:14:04.268Z</time></trkpt><trkpt lat="43.5171" lon="13.05116"><ele>336.0</ele><time>2026-04-26T09:14:05.268Z</time></trkpt><trkpt lat="43.5169217" lon="13.0512133"><ele>336.0</ele><time>2026-04-26T09:14:06.268Z</time></trkpt><trkpt lat="43.51674" lon="13.0513"><ele>336.0</ele><time>2026-04-26T09:14:07.268Z</time></trkpt><trkpt lat="43.51655" lon="13.0514117"><ele>336.0</ele><time>2026-04-26T09:14:08.268Z</time></trkpt><trkpt lat="43.51635" lon="13.05152"><ele>336.0</ele><time>2026-04-26T09:14:09.268Z</time></trkpt><trkpt lat="43.5161567" lon="13.051625"><ele>336.0</ele><time>2026-04-26T09:14:10.268Z</time></trkpt><trkpt lat="43.515975" lon="13.0517417"><ele>340.3333333333333</ele><time>2026-04-26T09:14:11.268Z</time></trkpt><trkpt lat="43.5157933" lon="13.05187"><ele>344.66666666666663</ele><time>2026-04-26T09:14:12.268Z</time></trkpt><trkpt lat="43.515625" lon="13.0520067"><ele>349.0</ele><time>2026-04-26T09:14:13.268Z</time></trkpt><trkpt lat="43.5154717" lon="13.052125"><ele>350.3333333333333</ele><time>2026-04-26T09:14:14.269Z</time></trkpt><trkpt lat="43.5153183" lon="13.0522517"><ele>351.6666666666667</ele><time>2026-04-26T09:14:15.269Z</time></trkpt><trkpt lat="43.51517" lon="13.05238"><ele>353.0</ele><time>2026-04-26T09:14:16.269Z</time></trkpt><trkpt lat="43.515025" lon="13.0524933"><ele>355.25</ele><time>2026-04-26T09:14:17.269Z</time></trkpt><trkpt lat="43.5149017" lon="13.0526067"><ele>357.5</ele><time>2026-04-26T09:14:18.268Z</time></trkpt><trkpt lat="43.5147833" lon="13.05274"><ele>359.75</ele><time>2026-04-26T09:14:19.268Z</time></trkpt><trkpt lat="43.514685" lon="13.0528933"><ele>362.0</ele><time>2026-04-26T09:14:20.269Z</time></trkpt><trkpt lat="43.5145933" lon="13.053055"><ele>363.40000000000003</ele><time>2026-04-26T09:14:21.268Z</time></trkpt><trkpt lat="43.5145117" lon="13.053185"><ele>364.8</ele><time>2026-04-26T09:14:22.268Z</time></trkpt><trkpt lat="43.51444" lon="13.053275"><ele>366.2</ele><time>2026-04-26T09:14:23.268Z</time></trkpt><trkpt lat="43.514365" lon="13.0533267"><ele>367.6</ele><time>2026-04-26T09:14:24.268Z</time></trkpt><trkpt lat="43.5142717" lon="13.053315"><ele>369.0</ele><time>2026-04-26T09:14:25.268Z</time></trkpt><trkpt lat="43.5141883" lon="13.0532483"><ele>369.0</ele><time>2026-04-26T09:14:26.268Z</time></trkpt><trkpt lat="43.5140967" lon="13.0531417"><ele>369.0</ele><time>2026-04-26T09:14:27.268Z</time></trkpt><trkpt lat="43.514" lon="13.0530133"><ele>369.0</ele><time>2026-04-26T09:14:28.268Z</time></trkpt><trkpt lat="43.5139067" lon="13.05289"><ele>369.0</ele><time>2026-04-26T09:14:29.268Z</time></trkpt><trkpt lat="43.513825" lon="13.0527683"><ele>369.0</ele><time>2026-04-26T09:14:30.268Z</time></trkpt><trkpt lat="43.5137517" lon="13.0526817"><ele>369.0</ele><time>2026-04-26T09:14:31.268Z</time></trkpt><trkpt lat="43.5136817" lon="13.052625"><ele>369.0</ele><time>2026-04-26T09:14:32.268Z</time></trkpt><trkpt lat="43.51362" lon="13.0525967"><ele>369.0</ele><time>2026-04-26T09:14:33.268Z</time></trkpt><trkpt lat="43.51352" lon="13.0526633"><ele>369.0</ele><time>2026-04-26T09:14:35.268Z</time></trkpt><trkpt lat="43.5135217" lon="13.05278"><ele>369.0</ele><time>2026-04-26T09:14:36.268Z</time></trkpt><trkpt lat="43.5135517" lon="13.0529183"><ele>371.79999999999995</ele><time>2026-04-26T09:14:37.269Z</time></trkpt><trkpt lat="43.5135833" lon="13.05306"><ele>374.59999999999997</ele><time>2026-04-26T09:14:38.268Z</time></trkpt><trkpt lat="43.5136033" lon="13.0531833"><ele>377.4</ele><time>2026-04-26T09:14:39.268Z</time></trkpt><trkpt lat="43.51359" lon="13.0533067"><ele>380.2</ele><time>2026-04-26T09:14:40.268Z</time></trkpt><trkpt lat="43.5135567" lon="13.0534483"><ele>383.0</ele><time>2026-04-26T09:14:41.268Z</time></trkpt><trkpt lat="43.5135083" lon="13.0536033"><ele>384.0</ele><time>2026-04-26T09:14:42.268Z</time></trkpt><trkpt lat="43.51345" lon="13.05376"><ele>385.0</ele><time>2026-04-26T09:14:43.269Z</time></trkpt><trkpt lat="43.5133833" lon="13.0539217"><ele>386.0</ele><time>2026-04-26T09:14:44.268Z</time></trkpt><trkpt lat="43.513315" lon="13.0540867"><ele>387.0</ele><time>2026-04-26T09:14:45.268Z</time></trkpt><trkpt lat="43.5132483" lon="13.05426"><ele>387.0</ele><time>2026-04-26T09:14:46.268Z</time></trkpt><trkpt lat="43.5131983" lon="13.05444"><ele>387.0</ele><time>2026-04-26T09:14:47.268Z</time></trkpt><trkpt lat="43.51317" lon="13.05463"><ele>387.0</ele><time>2026-04-26T09:14:48.268Z</time></trkpt><trkpt lat="43.513155" lon="13.0548217"><ele>387.0</ele><time>2026-04-26T09:14:49.268Z</time></trkpt><trkpt lat="43.5131617" lon="13.0549917"><ele>386.6</ele><time>2026-04-26T09:14:50.268Z</time></trkpt><trkpt lat="43.5131717" lon="13.05514"><ele>386.20000000000005</ele><time>2026-04-26T09:14:51.268Z</time></trkpt><trkpt lat="43.51319" lon="13.0552817"><ele>385.8</ele><time>2026-04-26T09:14:52.268Z</time></trkpt><trkpt lat="43.5132" lon="13.0554017"><ele>385.4</ele><time>2026-04-26T09:14:53.268Z</time></trkpt><trkpt lat="43.5131817" lon="13.0554983"><ele>385.0</ele><time>2026-04-26T09:14:54.268Z</time></trkpt><trkpt lat="43.51308" lon="13.0555983"><ele>385.0</ele><time>2026-04-26T09:14:56.268Z</time></trkpt><trkpt lat="43.5130033" lon="13.055555"><ele>385.0</ele><time>2026-04-26T09:14:57.268Z</time></trkpt><trkpt lat="43.5129233" lon="13.0554633"><ele>385.0</ele><time>2026-04-26T09:14:58.268Z</time></trkpt><trkpt lat="43.51286" lon="13.0553167"><ele>385.0</ele><time>2026-04-26T09:14:59.268Z</time></trkpt><trkpt lat="43.5128183" lon="13.0551433"><ele>385.0</ele><time>2026-04-26T09:15:00.268Z</time></trkpt><trkpt lat="43.5127817" lon="13.0549683"><ele>389.0</ele><time>2026-04-26T09:15:01.268Z</time></trkpt><trkpt lat="43.5127433" lon="13.05478"><ele>393.0</ele><time>2026-04-26T09:15:02.268Z</time></trkpt><trkpt lat="43.5127017" lon="13.0545833"><ele>397.0</ele><time>2026-04-26T09:15:03.268Z</time></trkpt><trkpt lat="43.512655" lon="13.0543817"><ele>401.0</ele><time>2026-04-26T09:15:04.268Z</time></trkpt><trkpt lat="43.5126083" lon="13.05418"><ele>402.0</ele><time>2026-04-26T09:15:05.268Z</time></trkpt><trkpt lat="43.5125617" lon="13.0539817"><ele>403.0</ele><time>2026-04-26T09:15:06.268Z</time></trkpt><trkpt lat="43.5125167" lon="13.0537683"><ele>404.0</ele><time>2026-04-26T09:15:07.268Z</time></trkpt><trkpt lat="43.51247" lon="13.0535517"><ele>404.0</ele><time>2026-04-26T09:15:08.268Z</time></trkpt><trkpt lat="43.5124183" lon="13.053335"><ele>404.0</ele><time>2026-04-26T09:15:09.268Z</time></trkpt><trkpt lat="43.5123767" lon="13.0531283"><ele>404.0</ele><time>2026-04-26T09:15:10.268Z</time></trkpt><trkpt lat="43.5123383" lon="13.052935"><ele>404.0</ele><time>2026-04-26T09:15:11.268Z</time></trkpt><trkpt lat="43.5122983" lon="13.0527517"><ele>404.0</ele><time>2026-04-26T09:15:12.268Z</time></trkpt><trkpt lat="43.5122633" lon="13.0525767"><ele>404.0</ele><time>2026-04-26T09:15:13.268Z</time></trkpt><trkpt lat="43.51223" lon="13.0524183"><ele>404.0</ele><time>2026-04-26T09:15:14.269Z</time></trkpt><trkpt lat="43.5121917" lon="13.0522667"><ele>405.4</ele><time>2026-04-26T09:15:15.268Z</time></trkpt><trkpt lat="43.5121433" lon="13.0521333"><ele>406.79999999999995</ele><time>2026-04-26T09:15:16.268Z</time></trkpt><trkpt lat="43.5120817" lon="13.052035"><ele>408.20000000000005</ele><time>2026-04-26T09:15:17.268Z</time></trkpt><trkpt lat="43.512005" lon="13.0519733"><ele>409.6</ele><time>2026-04-26T09:15:18.268Z</time></trkpt><trkpt lat="43.511895" lon="13.05195"><ele>411.0</ele><time>2026-04-26T09:15:19.268Z</time></trkpt><trkpt lat="43.5117783" lon="13.051955"><ele>411.0</ele><time>2026-04-26T09:15:20.268Z</time></trkpt><trkpt lat="43.5116467" lon="13.051965"><ele>411.0</ele><time>2026-04-26T09:15:21.268Z</time></trkpt><trkpt lat="43.51151" lon="13.0519633"><ele>411.0</ele><time>2026-04-26T09:15:22.268Z</time></trkpt><trkpt lat="43.5113667" lon="13.0519483"><ele>411.0</ele><time>2026-04-26T09:15:23.269Z</time></trkpt><trkpt lat="43.5112283" lon="13.0519383"><ele>410.5</ele><time>2026-04-26T09:15:24.269Z</time></trkpt><trkpt lat="43.5110983" lon="13.0519267"><ele>410.0</ele><time>2026-04-26T09:15:25.268Z</time></trkpt><trkpt lat="43.510965" lon="13.0519133"><ele>409.5</ele><time>2026-04-26T09:15:26.268Z</time></trkpt><trkpt lat="43.5108267" lon="13.0518833"><ele>409.0</ele><time>2026-04-26T09:15:27.268Z</time></trkpt><trkpt lat="43.510685" lon="13.05183"><ele>409.0</ele><time>2026-04-26T09:15:28.268Z</time></trkpt><trkpt lat="43.5105533" lon="13.0517533"><ele>409.0</ele><time>2026-04-26T09:15:29.268Z</time></trkpt><trkpt lat="43.5104317" lon="13.0516567"><ele>409.0</ele><time>2026-04-26T09:15:30.269Z</time></trkpt><trkpt lat="43.5103083" lon="13.05156"><ele>409.0</ele><time>2026-04-26T09:15:31.269Z</time></trkpt><trkpt lat="43.5102033" lon="13.0514683"><ele>406.5</ele><time>2026-04-26T09:15:32.268Z</time></trkpt><trkpt lat="43.5100983" lon="13.0513883"><ele>404.0</ele><time>2026-04-26T09:15:33.268Z</time></trkpt><trkpt lat="43.5099983" lon="13.0513233"><ele>401.5</ele><time>2026-04-26T09:15:34.268Z</time></trkpt><trkpt lat="43.50989" lon="13.0512783"><ele>399.0</ele><time>2026-04-26T09:15:35.268Z</time></trkpt><trkpt lat="43.50976" lon="13.051265"><ele>399.0</ele><time>2026-04-26T09:15:36.268Z</time></trkpt><trkpt lat="43.5096183" lon="13.051275"><ele>399.0</ele><time>2026-04-26T09:15:37.268Z</time></trkpt><trkpt lat="43.509475" lon="13.0512867"><ele>399.0</ele><time>2026-04-26T09:15:38.268Z</time></trkpt><trkpt lat="43.50933" lon="13.051295"><ele>399.0</ele><time>2026-04-26T09:15:39.268Z</time></trkpt><trkpt lat="43.509185" lon="13.051295"><ele>399.75</ele><time>2026-04-26T09:15:40.268Z</time></trkpt><trkpt lat="43.509045" lon="13.0512817"><ele>400.5</ele><time>2026-04-26T09:15:41.268Z</time></trkpt><trkpt lat="43.5089" lon="13.0512533"><ele>401.25</ele><time>2026-04-26T09:15:42.268Z</time></trkpt><trkpt lat="43.5087583" lon="13.051195"><ele>402.0</ele><time>2026-04-26T09:15:43.268Z</time></trkpt><trkpt lat="43.5086183" lon="13.0511183"><ele>402.25</ele><time>2026-04-26T09:15:44.268Z</time></trkpt><trkpt lat="43.5084817" lon="13.0510467"><ele>402.5</ele><time>2026-04-26T09:15:45.268Z</time></trkpt><trkpt lat="43.5083496" lon="13.0509835"><ele>402.75</ele><time>2026-04-26T09:15:46.269Z</time></trkpt><trkpt lat="43.5082185" lon="13.0509401"><ele>403.0</ele><time>2026-04-26T09:15:47.268Z</time></trkpt><trkpt lat="43.5080813" lon="13.0509141"><ele>403.0</ele><time>2026-04-26T09:15:48.268Z</time></trkpt><trkpt lat="43.5079292" lon="13.0508943"><ele>403.0</ele><time>2026-04-26T09:15:49.268Z</time></trkpt><trkpt lat="43.507769" lon="13.0508705"><ele>403.0</ele><time>2026-04-26T09:15:50.268Z</time></trkpt><trkpt lat="43.5075983" lon="13.050861"><ele>402.6666666666667</ele><time>2026-04-26T09:15:51.268Z</time></trkpt><trkpt lat="43.5074187" lon="13.0508646"><ele>402.33333333333337</ele><time>2026-04-26T09:15:52.268Z</time></trkpt><trkpt lat="43.5072341" lon="13.050881"><ele>402.0</ele><time>2026-04-26T09:15:53.269Z</time></trkpt><trkpt lat="43.5070445" lon="13.0508965"><ele>401.0</ele><time>2026-04-26T09:15:54.268Z</time></trkpt><trkpt lat="43.5068581" lon="13.0508946"><ele>400.0</ele><time>2026-04-26T09:15:55.269Z</time></trkpt><trkpt lat="43.5066824" lon="13.050889"><ele>399.0</ele><time>2026-04-26T09:15:56.269Z</time></trkpt><trkpt lat="43.5065094" lon="13.0508793"><ele>399.0</ele><time>2026-04-26T09:15:57.268Z</time></trkpt><trkpt lat="43.5063328" lon="13.0508658"><ele>399.0</ele><time>2026-04-26T09:15:58.268Z</time></trkpt><trkpt lat="43.5061558" lon="13.0508627"><ele>399.0</ele><time>2026-04-26T09:15:59.268Z</time></trkpt><trkpt lat="43.5059788" lon="13.0508703"><ele>397.33333333333337</ele><time>2026-04-26T09:16:00.268Z</time></trkpt><trkpt lat="43.5058034" lon="13.0508971"><ele>395.6666666666667</ele><time>2026-04-26T09:16:01.269Z</time></trkpt><trkpt lat="43.5056332" lon="13.0509332"><ele>394.0</ele><time>2026-04-26T09:16:02.268Z</time></trkpt><trkpt lat="43.505473" lon="13.0509627"><ele>394.6666666666667</ele><time>2026-04-26T09:16:03.268Z</time></trkpt><trkpt lat="43.505315" lon="13.0509805"><ele>395.33333333333337</ele><time>2026-04-26T09:16:04.268Z</time></trkpt><trkpt lat="43.5051593" lon="13.0509858"><ele>396.0</ele><time>2026-04-26T09:16:05.268Z</time></trkpt><trkpt lat="43.5050113" lon="13.050968"><ele>396.0</ele><time>2026-04-26T09:16:06.268Z</time></trkpt><trkpt lat="43.5048735" lon="13.0509056"><ele>396.0</ele><time>2026-04-26T09:16:07.268Z</time></trkpt><trkpt lat="43.5047519" lon="13.0507855"><ele>396.0</ele><time>2026-04-26T09:16:08.268Z</time></trkpt><trkpt lat="43.5046582" lon="13.0506204"><ele>396.0</ele><time>2026-04-26T09:16:09.268Z</time></trkpt><trkpt lat="43.5045912" lon="13.0504285"><ele>398.75</ele><time>2026-04-26T09:16:10.268Z</time></trkpt><trkpt lat="43.5045506" lon="13.050235"><ele>401.5</ele><time>2026-04-26T09:16:11.268Z</time></trkpt><trkpt lat="43.5045193" lon="13.0500593"><ele>404.25</ele><time>2026-04-26T09:16:12.268Z</time></trkpt><trkpt lat="43.5044938" lon="13.0499043"><ele>407.0</ele><time>2026-04-26T09:16:13.268Z</time></trkpt><trkpt lat="43.5044612" lon="13.0497831"><ele>406.99999999999994</ele><time>2026-04-26T09:16:14.268Z</time></trkpt><trkpt lat="43.5044177" lon="13.0496885"><ele>407.0</ele><time>2026-04-26T09:16:15.268Z</time></trkpt><trkpt lat="43.5043564" lon="13.0496467"><ele>407.0</ele><time>2026-04-26T09:16:16.269Z</time></trkpt><trkpt lat="43.5042925" lon="13.0496609"><ele>407.0</ele><time>2026-04-26T09:16:17.268Z</time></trkpt><trkpt lat="43.5042363" lon="13.0497241"><ele>406.99999999999994</ele><time>2026-04-26T09:16:18.268Z</time></trkpt><trkpt lat="43.5042067" lon="13.0498583"><ele>407.0</ele><time>2026-04-26T09:16:19.268Z</time></trkpt><trkpt lat="43.5042367" lon="13.0499983"><ele>409.0</ele><time>2026-04-26T09:16:20.268Z</time></trkpt><trkpt lat="43.5042783" lon="13.0501383"><ele>411.0</ele><time>2026-04-26T09:16:21.268Z</time></trkpt><trkpt lat="43.5043267" lon="13.0502917"><ele>413.0</ele><time>2026-04-26T09:16:22.268Z</time></trkpt><trkpt lat="43.5043683" lon="13.0504433"><ele>415.0</ele><time>2026-04-26T09:16:23.268Z</time></trkpt><trkpt lat="43.50438" lon="13.0505917"><ele>415.0</ele><time>2026-04-26T09:16:24.268Z</time></trkpt><trkpt lat="43.50435" lon="13.05073"><ele>415.0</ele><time>2026-04-26T09:16:25.268Z</time></trkpt><trkpt lat="43.5042867" lon="13.0508617"><ele>415.0</ele><time>2026-04-26T09:16:26.268Z</time></trkpt><trkpt lat="43.5042" lon="13.0509933"><ele>415.0</ele><time>2026-04-26T09:16:27.268Z</time></trkpt><trkpt lat="43.5040983" lon="13.0511267"><ele>414.6666666666667</ele><time>2026-04-26T09:16:28.268Z</time></trkpt><trkpt lat="43.503975" lon="13.0512667"><ele>414.33333333333337</ele><time>2026-04-26T09:16:29.268Z</time></trkpt><trkpt lat="43.503865" lon="13.051405"><ele>414.0</ele><time>2026-04-26T09:16:30.268Z</time></trkpt><trkpt lat="43.50376" lon="13.051535"><ele>417.5</ele><time>2026-04-26T09:16:31.268Z</time></trkpt><trkpt lat="43.503675" lon="13.0516767"><ele>421.0</ele><time>2026-04-26T09:16:32.268Z</time></trkpt><trkpt lat="43.5036033" lon="13.0518367"><ele>424.5</ele><time>2026-04-26T09:16:33.269Z</time></trkpt><trkpt lat="43.50355" lon="13.0519883"><ele>428.0</ele><time>2026-04-26T09:16:34.268Z</time></trkpt><trkpt lat="43.5034933" lon="13.05214"><ele>428.0</ele><time>2026-04-26T09:16:35.268Z</time></trkpt><trkpt lat="43.5034267" lon="13.0522567"><ele>428.0</ele><time>2026-04-26T09:16:36.268Z</time></trkpt><trkpt lat="43.503315" lon="13.05233"><ele>428.0</ele><time>2026-04-26T09:16:37.268Z</time></trkpt><trkpt lat="43.5031817" lon="13.05237"><ele>428.0</ele><time>2026-04-26T09:16:38.268Z</time></trkpt><trkpt lat="43.50304" lon="13.052375"><ele>431.25</ele><time>2026-04-26T09:16:39.268Z</time></trkpt><trkpt lat="43.5029017" lon="13.0523483"><ele>434.5</ele><time>2026-04-26T09:16:40.268Z</time></trkpt><trkpt lat="43.5027733" lon="13.05232"><ele>437.75</ele><time>2026-04-26T09:16:41.268Z</time></trkpt><trkpt lat="43.50265" lon="13.0523317"><ele>441.0</ele><time>2026-04-26T09:16:42.268Z</time></trkpt><trkpt lat="43.502535" lon="13.0523933"><ele>438.25</ele><time>2026-04-26T09:16:43.268Z</time></trkpt><trkpt lat="43.502445" lon="13.0525167"><ele>435.5</ele><time>2026-04-26T09:16:44.268Z</time></trkpt><trkpt lat="43.5023717" lon="13.0526683"><ele>432.75</ele><time>2026-04-26T09:16:45.268Z</time></trkpt><trkpt lat="43.50232" lon="13.052825"><ele>430.0</ele><time>2026-04-26T09:16:46.268Z</time></trkpt><trkpt lat="43.5022933" lon="13.05297"><ele>430.00000000000006</ele><time>2026-04-26T09:16:47.268Z</time></trkpt><trkpt lat="43.5022883" lon="13.05311"><ele>430.0</ele><time>2026-04-26T09:16:48.268Z</time></trkpt><trkpt lat="43.5022967" lon="13.0532183"><ele>430.0</ele><time>2026-04-26T09:16:49.268Z</time></trkpt><trkpt lat="43.502295" lon="13.0533083"><ele>430.0</ele><time>2026-04-26T09:16:50.268Z</time></trkpt><trkpt lat="43.5022317" lon="13.053415"><ele>430.00000000000006</ele><time>2026-04-26T09:16:52.268Z</time></trkpt><trkpt lat="43.5021733" lon="13.0533817"><ele>430.0</ele><time>2026-04-26T09:16:53.268Z</time></trkpt><trkpt lat="43.5021217" lon="13.0533017"><ele>431.5</ele><time>2026-04-26T09:16:54.268Z</time></trkpt><trkpt lat="43.5020733" lon="13.05318"><ele>433.0</ele><time>2026-04-26T09:16:55.268Z</time></trkpt><trkpt lat="43.5020183" lon="13.0530317"><ele>434.5</ele><time>2026-04-26T09:16:56.268Z</time></trkpt><trkpt lat="43.5019533" lon="13.0528983"><ele>436.0</ele><time>2026-04-26T09:16:57.268Z</time></trkpt><trkpt lat="43.50186" lon="13.05277"><ele>436.0</ele><time>2026-04-26T09:16:58.268Z</time></trkpt><trkpt lat="43.501755" lon="13.0526583"><ele>436.0</ele><time>2026-04-26T09:16:59.268Z</time></trkpt><trkpt lat="43.5016517" lon="13.0525633"><ele>436.0</ele><time>2026-04-26T09:17:00.268Z</time></trkpt><trkpt lat="43.5015517" lon="13.0524783"><ele>436.0</ele><time>2026-04-26T09:17:01.268Z</time></trkpt><trkpt lat="43.5014417" lon="13.05239"><ele>437.5</ele><time>2026-04-26T09:17:02.268Z</time></trkpt><trkpt lat="43.5013267" lon="13.0522883"><ele>439.0</ele><time>2026-04-26T09:17:03.268Z</time></trkpt><trkpt lat="43.5012267" lon="13.0521733"><ele>440.5</ele><time>2026-04-26T09:17:04.269Z</time></trkpt><trkpt lat="43.5011383" lon="13.05203"><ele>442.0</ele><time>2026-04-26T09:17:05.268Z</time></trkpt><trkpt lat="43.50107" lon="13.0518517"><ele>442.0</ele><time>2026-04-26T09:17:06.268Z</time></trkpt><trkpt lat="43.5010283" lon="13.0516517"><ele>442.0</ele><time>2026-04-26T09:17:07.268Z</time></trkpt><trkpt lat="43.5009933" lon="13.0514417"><ele>442.0</ele><time>2026-04-26T09:17:08.268Z</time></trkpt><trkpt lat="43.50096" lon="13.0512333"><ele>442.0</ele><time>2026-04-26T09:17:09.269Z</time></trkpt><trkpt lat="43.5009133" lon="13.0510183"><ele>442.0</ele><time>2026-04-26T09:17:10.268Z</time></trkpt><trkpt lat="43.5008617" lon="13.0507983"><ele>442.0</ele><time>2026-04-26T09:17:11.268Z</time></trkpt><trkpt lat="43.500805" lon="13.0505717"><ele>442.0</ele><time>2026-04-26T09:17:12.268Z</time></trkpt><trkpt lat="43.5007483" lon="13.0503467"><ele>442.0</ele><time>2026-04-26T09:17:13.268Z</time></trkpt><trkpt lat="43.5006933" lon="13.0501283"><ele>442.0</ele><time>2026-04-26T09:17:14.268Z</time></trkpt><trkpt lat="43.500645" lon="13.0499133"><ele>442.33333333333337</ele><time>2026-04-26T09:17:15.268Z</time></trkpt><trkpt lat="43.5006033" lon="13.049685"><ele>442.66666666666663</ele><time>2026-04-26T09:17:16.269Z</time></trkpt><trkpt lat="43.5005567" lon="13.0494567"><ele>443.0</ele><time>2026-04-26T09:17:17.268Z</time></trkpt><trkpt lat="43.5005067" lon="13.0492233"><ele>443.3333333333333</ele><time>2026-04-26T09:17:18.268Z</time></trkpt><trkpt lat="43.5004517" lon="13.0489917"><ele>443.66666666666663</ele><time>2026-04-26T09:17:19.268Z</time></trkpt><trkpt lat="43.5003883" lon="13.048765"><ele>444.0</ele><time>2026-04-26T09:17:20.268Z</time></trkpt><trkpt lat="43.500325" lon="13.0485367"><ele>439.33333333333337</ele><time>2026-04-26T09:17:21.268Z</time></trkpt><trkpt lat="43.500255" lon="13.0483167"><ele>434.6666666666667</ele><time>2026-04-26T09:17:22.268Z</time></trkpt><trkpt lat="43.50019" lon="13.0481033"><ele>430.0</ele><time>2026-04-26T09:17:23.269Z</time></trkpt><trkpt lat="43.5001183" lon="13.0479033"><ele>430.0</ele><time>2026-04-26T09:17:24.268Z</time></trkpt><trkpt lat="43.5000417" lon="13.0477167"><ele>430.0</ele><time>2026-04-26T09:17:25.268Z</time></trkpt><trkpt lat="43.4999533" lon="13.0475333"><ele>430.0</ele><time>2026-04-26T09:17:26.268Z</time></trkpt><trkpt lat="43.49986" lon="13.0473367"><ele>432.0</ele><time>2026-04-26T09:17:27.268Z</time></trkpt><trkpt lat="43.4997617" lon="13.047145"><ele>434.0</ele><time>2026-04-26T09:17:28.268Z</time></trkpt><trkpt lat="43.4996617" lon="13.046955"><ele>436.0</ele><time>2026-04-26T09:17:29.268Z</time></trkpt><trkpt lat="43.4995483" lon="13.046765"><ele>433.0</ele><time>2026-04-26T09:17:30.268Z</time></trkpt><trkpt lat="43.4994233" lon="13.0465717"><ele>430.0</ele><time>2026-04-26T09:17:31.269Z</time></trkpt><trkpt lat="43.4992917" lon="13.0463733"><ele>427.0</ele><time>2026-04-26T09:17:32.268Z</time></trkpt><trkpt lat="43.4991617" lon="13.046185"><ele>427.0</ele><time>2026-04-26T09:17:33.269Z</time></trkpt><trkpt lat="43.4990267" lon="13.0459933"><ele>427.0</ele><time>2026-04-26T09:17:34.268Z</time></trkpt><trkpt lat="43.4988917" lon="13.045805"><ele>427.0</ele><time>2026-04-26T09:17:35.268Z</time></trkpt><trkpt lat="43.4987533" lon="13.0456317"><ele>424.33333333333337</ele><time>2026-04-26T09:17:36.268Z</time></trkpt><trkpt lat="43.49863" lon="13.0454517"><ele>421.66666666666663</ele><time>2026-04-26T09:17:37.268Z</time></trkpt><trkpt lat="43.4985117" lon="13.0452817"><ele>419.0</ele><time>2026-04-26T09:17:38.268Z</time></trkpt><trkpt lat="43.4984033" lon="13.0451067"><ele>419.66666666666663</ele><time>2026-04-26T09:17:39.269Z</time></trkpt><trkpt lat="43.4982917" lon="13.0449517"><ele>420.33333333333337</ele><time>2026-04-26T09:17:40.268Z</time></trkpt><trkpt lat="43.49818" lon="13.0448033"><ele>421.0</ele><time>2026-04-26T09:17:41.268Z</time></trkpt><trkpt lat="43.4980667" lon="13.0446533"><ele>421.0</ele><time>2026-04-26T09:17:42.268Z</time></trkpt><trkpt lat="43.4979483" lon="13.0445083"><ele>421.0</ele><time>2026-04-26T09:17:43.268Z</time></trkpt><trkpt lat="43.4978217" lon="13.0443683"><ele>421.0</ele><time>2026-04-26T09:17:44.269Z</time></trkpt><trkpt lat="43.4976783" lon="13.0442533"><ele>417.33333333333337</ele><time>2026-04-26T09:17:45.268Z</time></trkpt><trkpt lat="43.4975333" lon="13.0441633"><ele>413.66666666666663</ele><time>2026-04-26T09:17:46.268Z</time></trkpt><trkpt lat="43.497375" lon="13.044095"><ele>410.0</ele><time>2026-04-26T09:17:47.268Z</time></trkpt><trkpt lat="43.4972083" lon="13.0440333"><ele>408.3333333333333</ele><time>2026-04-26T09:17:48.268Z</time></trkpt><trkpt lat="43.4970467" lon="13.0439733"><ele>406.66666666666663</ele><time>2026-04-26T09:17:49.268Z</time></trkpt><trkpt lat="43.4968783" lon="13.043885"><ele>405.0</ele><time>2026-04-26T09:17:50.268Z</time></trkpt><trkpt lat="43.4967267" lon="13.04377"><ele>405.0</ele><time>2026-04-26T09:17:51.269Z</time></trkpt><trkpt lat="43.4965917" lon="13.04364"><ele>405.0</ele><time>2026-04-26T09:17:52.268Z</time></trkpt><trkpt lat="43.496465" lon="13.0435017"><ele>405.0</ele><time>2026-04-26T09:17:53.268Z</time></trkpt><trkpt lat="43.4963467" lon="13.0433817"><ele>406.66666666666663</ele><time>2026-04-26T09:17:54.268Z</time></trkpt><trkpt lat="43.4962067" lon="13.0432717"><ele>408.3333333333333</ele><time>2026-04-26T09:17:55.268Z</time></trkpt><trkpt lat="43.4960783" lon="13.0431733"><ele>410.0</ele><time>2026-04-26T09:17:56.269Z</time></trkpt><trkpt lat="43.4959483" lon="13.0430733"><ele>410.0</ele><time>2026-04-26T09:17:57.268Z</time></trkpt><trkpt lat="43.4958183" lon="13.0429533"><ele>410.0</ele><time>2026-04-26T09:17:58.268Z</time></trkpt><trkpt lat="43.495695" lon="13.0428133"><ele>410.0</ele><time>2026-04-26T09:17:59.268Z</time></trkpt><trkpt lat="43.49559" lon="13.0426417"><ele>411.3333333333333</ele><time>2026-04-26T09:18:00.268Z</time></trkpt><trkpt lat="43.4954933" lon="13.0424483"><ele>412.66666666666663</ele><time>2026-04-26T09:18:01.268Z</time></trkpt><trkpt lat="43.4954133" lon="13.0422317"><ele>414.0</ele><time>2026-04-26T09:18:02.268Z</time></trkpt><trkpt lat="43.4953417" lon="13.0420267"><ele>412.66666666666663</ele><time>2026-04-26T09:18:03.268Z</time></trkpt><trkpt lat="43.4952883" lon="13.0418133"><ele>411.3333333333333</ele><time>2026-04-26T09:18:04.268Z</time></trkpt><trkpt lat="43.4952433" lon="13.0415917"><ele>410.0</ele><time>2026-04-26T09:18:05.268Z</time></trkpt><trkpt lat="43.4952017" lon="13.041365"><ele>410.0</ele><time>2026-04-26T09:18:06.268Z</time></trkpt><trkpt lat="43.495155" lon="13.0411467"><ele>410.0</ele><time>2026-04-26T09:18:07.268Z</time></trkpt><trkpt lat="43.4951083" lon="13.0409467"><ele>410.0</ele><time>2026-04-26T09:18:08.268Z</time></trkpt><trkpt lat="43.4950583" lon="13.040755"><ele>411.5</ele><time>2026-04-26T09:18:09.268Z</time></trkpt><trkpt lat="43.4950067" lon="13.0405817"><ele>413.0</ele><time>2026-04-26T09:18:10.268Z</time></trkpt><trkpt lat="43.4949583" lon="13.0404083"><ele>414.5</ele><time>2026-04-26T09:18:11.268Z</time></trkpt><trkpt lat="43.4949117" lon="13.0402417"><ele>416.0</ele><time>2026-04-26T09:18:12.268Z</time></trkpt><trkpt lat="43.49487" lon="13.0400683"><ele>415.5</ele><time>2026-04-26T09:18:13.268Z</time></trkpt><trkpt lat="43.4948283" lon="13.0399"><ele>415.0</ele><time>2026-04-26T09:18:14.268Z</time></trkpt><trkpt lat="43.4947883" lon="13.0397317"><ele>414.5</ele><time>2026-04-26T09:18:15.268Z</time></trkpt><trkpt lat="43.49475" lon="13.039555"><ele>414.0</ele><time>2026-04-26T09:18:16.268Z</time></trkpt><trkpt lat="43.4946967" lon="13.0393917"><ele>414.0</ele><time>2026-04-26T09:18:17.268Z</time></trkpt><trkpt lat="43.4946283" lon="13.0392017"><ele>414.0</ele><time>2026-04-26T09:18:18.268Z</time></trkpt><trkpt lat="43.494545" lon="13.03901"><ele>414.0</ele><time>2026-04-26T09:18:19.268Z</time></trkpt><trkpt lat="43.494465" lon="13.0388217"><ele>411.75</ele><time>2026-04-26T09:18:20.268Z</time></trkpt><trkpt lat="43.4943833" lon="13.038645"><ele>409.5</ele><time>2026-04-26T09:18:21.268Z</time></trkpt><trkpt lat="43.4942967" lon="13.0384883"><ele>407.25</ele><time>2026-04-26T09:18:22.268Z</time></trkpt><trkpt lat="43.4941917" lon="13.03834"><ele>405.0</ele><time>2026-04-26T09:18:23.268Z</time></trkpt><trkpt lat="43.4940733" lon="13.038215"><ele>404.33333333333337</ele><time>2026-04-26T09:18:24.268Z</time></trkpt><trkpt lat="43.493935" lon="13.03811"><ele>403.6666666666667</ele><time>2026-04-26T09:18:25.268Z</time></trkpt><trkpt lat="43.493775" lon="13.038025"><ele>403.0</ele><time>2026-04-26T09:18:26.268Z</time></trkpt><trkpt lat="43.4936067" lon="13.0379567"><ele>403.0</ele><time>2026-04-26T09:18:27.268Z</time></trkpt><trkpt lat="43.493445" lon="13.037885"><ele>403.0</ele><time>2026-04-26T09:18:28.268Z</time></trkpt><trkpt lat="43.4932833" lon="13.0377883"><ele>403.0</ele><time>2026-04-26T09:18:29.268Z</time></trkpt><trkpt lat="43.49312" lon="13.0376783"><ele>403.0</ele><time>2026-04-26T09:18:30.268Z</time></trkpt><trkpt lat="43.4929633" lon="13.03756"><ele>403.0</ele><time>2026-04-26T09:18:31.268Z</time></trkpt><trkpt lat="43.492805" lon="13.037445"><ele>403.0</ele><time>2026-04-26T09:18:32.268Z</time></trkpt><trkpt lat="43.4926417" lon="13.0373267"><ele>402.0</ele><time>2026-04-26T09:18:33.268Z</time></trkpt><trkpt lat="43.4924783" lon="13.0372033"><ele>401.0</ele><time>2026-04-26T09:18:34.268Z</time></trkpt><trkpt lat="43.4923167" lon="13.0370767"><ele>400.0</ele><time>2026-04-26T09:18:35.268Z</time></trkpt><trkpt lat="43.4921617" lon="13.0369683"><ele>400.33333333333337</ele><time>2026-04-26T09:18:36.268Z</time></trkpt><trkpt lat="43.49201" lon="13.0368733"><ele>400.66666666666663</ele><time>2026-04-26T09:18:37.268Z</time></trkpt><trkpt lat="43.4918583" lon="13.0368083"><ele>401.0</ele><time>2026-04-26T09:18:38.268Z</time></trkpt><trkpt lat="43.4917033" lon="13.0367567"><ele>401.0</ele><time>2026-04-26T09:18:39.268Z</time></trkpt><trkpt lat="43.491555" lon="13.0367283"><ele>401.0</ele><time>2026-04-26T09:18:40.268Z</time></trkpt><trkpt lat="43.4914117" lon="13.03671"><ele>401.0</ele><time>2026-04-26T09:18:41.268Z</time></trkpt><trkpt lat="43.4912717" lon="13.03672"><ele>401.0</ele><time>2026-04-26T09:18:42.268Z</time></trkpt><trkpt lat="43.4911167" lon="13.036725"><ele>400.5</ele><time>2026-04-26T09:18:43.268Z</time></trkpt><trkpt lat="43.4909833" lon="13.03674"><ele>400.0</ele><time>2026-04-26T09:18:44.268Z</time></trkpt><trkpt lat="43.490845" lon="13.036755"><ele>399.5</ele><time>2026-04-26T09:18:45.269Z</time></trkpt><trkpt lat="43.4907017" lon="13.0367717"><ele>399.0</ele><time>2026-04-26T09:18:46.269Z</time></trkpt><trkpt lat="43.490565" lon="13.0367833"><ele>399.0</ele><time>2026-04-26T09:18:47.268Z</time></trkpt><trkpt lat="43.4904333" lon="13.0367783"><ele>399.0</ele><time>2026-04-26T09:18:48.268Z</time></trkpt><trkpt lat="43.4902767" lon="13.03676"><ele>399.0</ele><time>2026-04-26T09:18:49.269Z</time></trkpt><trkpt lat="43.4901167" lon="13.03673"><ele>399.33333333333337</ele><time>2026-04-26T09:18:50.268Z</time></trkpt><trkpt lat="43.4899717" lon="13.0366733"><ele>399.6666666666667</ele><time>2026-04-26T09:18:51.268Z</time></trkpt><trkpt lat="43.4898267" lon="13.0365933"><ele>400.0</ele><time>2026-04-26T09:18:52.268Z</time></trkpt><trkpt lat="43.4896917" lon="13.0365033"><ele>398.33333333333337</ele><time>2026-04-26T09:18:53.268Z</time></trkpt><trkpt lat="43.4895667" lon="13.0363917"><ele>396.66666666666663</ele><time>2026-04-26T09:18:54.269Z</time></trkpt><trkpt lat="43.4894433" lon="13.0362517"><ele>395.0</ele><time>2026-04-26T09:18:55.268Z</time></trkpt><trkpt lat="43.4893283" lon="13.0360933"><ele>395.0</ele><time>2026-04-26T09:18:56.268Z</time></trkpt><trkpt lat="43.4892167" lon="13.0359183"><ele>395.0</ele><time>2026-04-26T09:18:57.268Z</time></trkpt><trkpt lat="43.4891133" lon="13.035735"><ele>395.0</ele><time>2026-04-26T09:18:58.268Z</time></trkpt><trkpt lat="43.4890117" lon="13.0355683"><ele>393.5</ele><time>2026-04-26T09:18:59.268Z</time></trkpt><trkpt lat="43.4889167" lon="13.0354067"><ele>392.0</ele><time>2026-04-26T09:19:00.268Z</time></trkpt><trkpt lat="43.4888383" lon="13.0352617"><ele>390.5</ele><time>2026-04-26T09:19:01.268Z</time></trkpt><trkpt lat="43.48876" lon="13.03513"><ele>389.0</ele><time>2026-04-26T09:19:02.269Z</time></trkpt><trkpt lat="43.4886733" lon="13.035025"><ele>389.0</ele><time>2026-04-26T09:19:03.268Z</time></trkpt><trkpt lat="43.4885617" lon="13.0349517"><ele>389.0</ele><time>2026-04-26T09:19:04.268Z</time></trkpt><trkpt lat="43.4884467" lon="13.03493"><ele>389.0</ele><time>2026-04-26T09:19:05.268Z</time></trkpt><trkpt lat="43.4883117" lon="13.0349633"><ele>389.0</ele><time>2026-04-26T09:19:06.268Z</time></trkpt><trkpt lat="43.4881783" lon="13.03501"><ele>389.0</ele><time>2026-04-26T09:19:07.268Z</time></trkpt><trkpt lat="43.4880483" lon="13.035025"><ele>389.0</ele><time>2026-04-26T09:19:08.268Z</time></trkpt><trkpt lat="43.4879117" lon="13.0349967"><ele>389.0</ele><time>2026-04-26T09:19:09.268Z</time></trkpt><trkpt lat="43.4877817" lon="13.03495"><ele>389.0</ele><time>2026-04-26T09:19:10.268Z</time></trkpt><trkpt lat="43.4876533" lon="13.0349117"><ele>387.75</ele><time>2026-04-26T09:19:11.268Z</time></trkpt><trkpt lat="43.4875217" lon="13.0349"><ele>386.5</ele><time>2026-04-26T09:19:12.268Z</time></trkpt><trkpt lat="43.4873967" lon="13.03492"><ele>385.25</ele><time>2026-04-26T09:19:13.268Z</time></trkpt><trkpt lat="43.48728" lon="13.0349833"><ele>384.0</ele><time>2026-04-26T09:19:14.268Z</time></trkpt><trkpt lat="43.4871683" lon="13.0350683"><ele>382.0</ele><time>2026-04-26T09:19:15.268Z</time></trkpt><trkpt lat="43.4870533" lon="13.0351517"><ele>380.0</ele><time>2026-04-26T09:19:16.268Z</time></trkpt><trkpt lat="43.4869483" lon="13.03524"><ele>378.0</ele><time>2026-04-26T09:19:17.268Z</time></trkpt><trkpt lat="43.4868433" lon="13.03531"><ele>376.0</ele><time>2026-04-26T09:19:18.268Z</time></trkpt><trkpt lat="43.4867283" lon="13.0353233"><ele>376.0</ele><time>2026-04-26T09:19:19.268Z</time></trkpt><trkpt lat="43.4866083" lon="13.035275"><ele>376.0</ele><time>2026-04-26T09:19:20.268Z</time></trkpt><trkpt lat="43.4864883" lon="13.0351667"><ele>376.0</ele><time>2026-04-26T09:19:21.268Z</time></trkpt><trkpt lat="43.4863767" lon="13.0350383"><ele>376.0</ele><time>2026-04-26T09:19:22.268Z</time></trkpt><trkpt lat="43.48627" lon="13.034905"><ele>374.75</ele><time>2026-04-26T09:19:23.268Z</time></trkpt><trkpt lat="43.4861667" lon="13.0347717"><ele>373.5</ele><time>2026-04-26T09:19:24.268Z</time></trkpt><trkpt lat="43.4860633" lon="13.0346233"><ele>372.25</ele><time>2026-04-26T09:19:25.268Z</time></trkpt><trkpt lat="43.4859517" lon="13.0344783"><ele>371.0</ele><time>2026-04-26T09:19:26.268Z</time></trkpt><trkpt lat="43.4858433" lon="13.0343433"><ele>371.0</ele><time>2026-04-26T09:19:27.268Z</time></trkpt><trkpt lat="43.4857317" lon="13.0342067"><ele>371.0</ele><time>2026-04-26T09:19:28.268Z</time></trkpt><trkpt lat="43.4856217" lon="13.0340483"><ele>371.0</ele><time>2026-04-26T09:19:29.268Z</time></trkpt><trkpt lat="43.4855133" lon="13.0338867"><ele>368.6666666666667</ele><time>2026-04-26T09:19:30.268Z</time></trkpt><trkpt lat="43.48541" lon="13.0337133"><ele>366.3333333333333</ele><time>2026-04-26T09:19:31.268Z</time></trkpt><trkpt lat="43.4853117" lon="13.0335233"><ele>364.0</ele><time>2026-04-26T09:19:32.268Z</time></trkpt><trkpt lat="43.4852133" lon="13.0333317"><ele>362.66666666666663</ele><time>2026-04-26T09:19:33.268Z</time></trkpt><trkpt lat="43.4851183" lon="13.0331283"><ele>361.3333333333333</ele><time>2026-04-26T09:19:34.268Z</time></trkpt><trkpt lat="43.4850267" lon="13.03293"><ele>360.0</ele><time>2026-04-26T09:19:35.268Z</time></trkpt><trkpt lat="43.4849367" lon="13.0327383"><ele>360.0</ele><time>2026-04-26T09:19:36.268Z</time></trkpt><trkpt lat="43.4848517" lon="13.0325433"><ele>360.0</ele><time>2026-04-26T09:19:37.268Z</time></trkpt><trkpt lat="43.484775" lon="13.0323517"><ele>360.0</ele><time>2026-04-26T09:19:38.268Z</time></trkpt><trkpt lat="43.4846983" lon="13.0321583"><ele>359.3333333333333</ele><time>2026-04-26T09:19:39.268Z</time></trkpt><trkpt lat="43.484625" lon="13.0319683"><ele>358.66666666666663</ele><time>2026-04-26T09:19:40.268Z</time></trkpt><trkpt lat="43.4845467" lon="13.031785"><ele>358.0</ele><time>2026-04-26T09:19:41.268Z</time></trkpt><trkpt lat="43.4844667" lon="13.031625"><ele>356.3333333333333</ele><time>2026-04-26T09:19:42.268Z</time></trkpt><trkpt lat="43.4843617" lon="13.031485"><ele>354.6666666666667</ele><time>2026-04-26T09:19:43.268Z</time></trkpt><trkpt lat="43.4842283" lon="13.0313733"><ele>353.0</ele><time>2026-04-26T09:19:44.268Z</time></trkpt><trkpt lat="43.4840783" lon="13.0312817"><ele>353.0</ele><time>2026-04-26T09:19:45.268Z</time></trkpt><trkpt lat="43.4839233" lon="13.0312017"><ele>353.0</ele><time>2026-04-26T09:19:46.268Z</time></trkpt><trkpt lat="43.4837583" lon="13.031125"><ele>353.0</ele><time>2026-04-26T09:19:47.269Z</time></trkpt><trkpt lat="43.4835933" lon="13.0310433"><ele>353.6666666666667</ele><time>2026-04-26T09:19:48.268Z</time></trkpt><trkpt lat="43.4834167" lon="13.0309583"><ele>354.3333333333333</ele><time>2026-04-26T09:19:49.268Z</time></trkpt><trkpt lat="43.4832267" lon="13.03087"><ele>355.0</ele><time>2026-04-26T09:19:50.268Z</time></trkpt><trkpt lat="43.4830283" lon="13.030785"><ele>355.0</ele><time>2026-04-26T09:19:51.268Z</time></trkpt><trkpt lat="43.4828333" lon="13.0306983"><ele>355.0</ele><time>2026-04-26T09:19:52.268Z</time></trkpt><trkpt lat="43.48263" lon="13.0306083"><ele>355.0</ele><time>2026-04-26T09:19:53.268Z</time></trkpt><trkpt lat="43.48243" lon="13.0305183"><ele>355.0</ele><time>2026-04-26T09:19:54.268Z</time></trkpt><trkpt lat="43.482225" lon="13.030435"><ele>355.0</ele><time>2026-04-26T09:19:55.268Z</time></trkpt><trkpt lat="43.482025" lon="13.030355"><ele>355.0</ele><time>2026-04-26T09:19:56.268Z</time></trkpt><trkpt lat="43.4818267" lon="13.0302983"><ele>357.3333333333333</ele><time>2026-04-26T09:19:57.268Z</time></trkpt><trkpt lat="43.4816217" lon="13.0302667"><ele>359.6666666666667</ele><time>2026-04-26T09:19:58.268Z</time></trkpt><trkpt lat="43.4814167" lon="13.0302433"><ele>362.0</ele><time>2026-04-26T09:19:59.268Z</time></trkpt><trkpt lat="43.4812283" lon="13.0302217"><ele>365.33333333333337</ele><time>2026-04-26T09:20:00.268Z</time></trkpt><trkpt lat="43.4810517" lon="13.0302"><ele>368.6666666666667</ele><time>2026-04-26T09:20:01.268Z</time></trkpt><trkpt lat="43.4808767" lon="13.0301817"><ele>372.0</ele><time>2026-04-26T09:20:02.269Z</time></trkpt><trkpt lat="43.480705" lon="13.0301417"><ele>372.0</ele><time>2026-04-26T09:20:03.268Z</time></trkpt><trkpt lat="43.4805233" lon="13.03008"><ele>372.0</ele><time>2026-04-26T09:20:04.268Z</time></trkpt><trkpt lat="43.4803467" lon="13.029985"><ele>372.0</ele><time>2026-04-26T09:20:05.268Z</time></trkpt><trkpt lat="43.4801783" lon="13.02987"><ele>373.3333333333333</ele><time>2026-04-26T09:20:06.268Z</time></trkpt><trkpt lat="43.4800083" lon="13.02975"><ele>374.66666666666663</ele><time>2026-04-26T09:20:07.268Z</time></trkpt><trkpt lat="43.4798417" lon="13.0296233"><ele>376.0</ele><time>2026-04-26T09:20:08.268Z</time></trkpt><trkpt lat="43.479675" lon="13.029495"><ele>377.3333333333333</ele><time>2026-04-26T09:20:09.268Z</time></trkpt><trkpt lat="43.47951" lon="13.0293717"><ele>378.6666666666667</ele><time>2026-04-26T09:20:10.269Z</time></trkpt><trkpt lat="43.479345" lon="13.02924"><ele>380.0</ele><time>2026-04-26T09:20:11.268Z</time></trkpt><trkpt lat="43.4791767" lon="13.029105"><ele>380.6666666666667</ele><time>2026-04-26T09:20:12.268Z</time></trkpt><trkpt lat="43.4790033" lon="13.0289617"><ele>381.3333333333333</ele><time>2026-04-26T09:20:13.268Z</time></trkpt><trkpt lat="43.4788367" lon="13.0288067"><ele>382.0</ele><time>2026-04-26T09:20:14.268Z</time></trkpt><trkpt lat="43.4786867" lon="13.0286433"><ele>384.66666666666663</ele><time>2026-04-26T09:20:15.268Z</time></trkpt><trkpt lat="43.4785383" lon="13.02847"><ele>387.3333333333333</ele><time>2026-04-26T09:20:16.268Z</time></trkpt><trkpt lat="43.4783933" lon="13.0283"><ele>390.0</ele><time>2026-04-26T09:20:17.268Z</time></trkpt><trkpt lat="43.4782367" lon="13.028145"><ele>390.0</ele><time>2026-04-26T09:20:18.269Z</time></trkpt><trkpt lat="43.4780867" lon="13.02801"><ele>390.0</ele><time>2026-04-26T09:20:19.268Z</time></trkpt><trkpt lat="43.477945" lon="13.02788"><ele>390.0</ele><time>2026-04-26T09:20:20.269Z</time></trkpt><trkpt lat="43.4778083" lon="13.0277667"><ele>393.25</ele><time>2026-04-26T09:20:21.268Z</time></trkpt><trkpt lat="43.4776917" lon="13.0276683"><ele>396.5</ele><time>2026-04-26T09:20:22.268Z</time></trkpt><trkpt lat="43.4775767" lon="13.0275983"><ele>399.75</ele><time>2026-04-26T09:20:23.269Z</time></trkpt><trkpt lat="43.47746" lon="13.0275667"><ele>403.0</ele><time>2026-04-26T09:20:24.268Z</time></trkpt><trkpt lat="43.4773433" lon="13.0275917"><ele>403.0</ele><time>2026-04-26T09:20:25.268Z</time></trkpt><trkpt lat="43.47723" lon="13.0276767"><ele>403.0</ele><time>2026-04-26T09:20:26.268Z</time></trkpt><trkpt lat="43.477115" lon="13.02779"><ele>403.0</ele><time>2026-04-26T09:20:27.268Z</time></trkpt><trkpt lat="43.477015" lon="13.0278933"><ele>403.0</ele><time>2026-04-26T09:20:28.268Z</time></trkpt><trkpt lat="43.4769183" lon="13.0279867"><ele>403.59999999999997</ele><time>2026-04-26T09:20:29.268Z</time></trkpt><trkpt lat="43.4768167" lon="13.028055"><ele>404.2</ele><time>2026-04-26T09:20:30.268Z</time></trkpt><trkpt lat="43.4767217" lon="13.02809"><ele>404.8</ele><time>2026-04-26T09:20:31.268Z</time></trkpt><trkpt lat="43.47664" lon="13.028075"><ele>405.4</ele><time>2026-04-26T09:20:32.269Z</time></trkpt><trkpt lat="43.4765583" lon="13.0280333"><ele>406.0</ele><time>2026-04-26T09:20:33.269Z</time></trkpt><trkpt lat="43.4764833" lon="13.0279567"><ele>406.0</ele><time>2026-04-26T09:20:34.268Z</time></trkpt><trkpt lat="43.47641" lon="13.027845"><ele>406.0</ele><time>2026-04-26T09:20:35.269Z</time></trkpt><trkpt lat="43.476355" lon="13.0277017"><ele>406.0</ele><time>2026-04-26T09:20:36.268Z</time></trkpt><trkpt lat="43.47632" lon="13.0275267"><ele>406.0</ele><time>2026-04-26T09:20:37.268Z</time></trkpt><trkpt lat="43.47629" lon="13.0273267"><ele>405.0</ele><time>2026-04-26T09:20:38.268Z</time></trkpt><trkpt lat="43.47627" lon="13.027125"><ele>404.0</ele><time>2026-04-26T09:20:39.268Z</time></trkpt><trkpt lat="43.4762367" lon="13.0269267"><ele>403.0</ele><time>2026-04-26T09:20:40.269Z</time></trkpt><trkpt lat="43.4762033" lon="13.0267183"><ele>406.33333333333337</ele><time>2026-04-26T09:20:41.268Z</time></trkpt><trkpt lat="43.4761717" lon="13.026495"><ele>409.66666666666663</ele><time>2026-04-26T09:20:42.268Z</time></trkpt><trkpt lat="43.4761317" lon="13.026265"><ele>413.0</ele><time>2026-04-26T09:20:43.268Z</time></trkpt><trkpt lat="43.4760867" lon="13.02604"><ele>413.0</ele><time>2026-04-26T09:20:44.268Z</time></trkpt><trkpt lat="43.4760283" lon="13.0258267"><ele>413.0</ele><time>2026-04-26T09:20:45.268Z</time></trkpt><trkpt lat="43.475965" lon="13.0256267"><ele>413.0</ele><time>2026-04-26T09:20:46.268Z</time></trkpt><trkpt lat="43.4758983" lon="13.0254333"><ele>416.66666666666663</ele><time>2026-04-26T09:20:47.268Z</time></trkpt><trkpt lat="43.475815" lon="13.02524"><ele>420.33333333333337</ele><time>2026-04-26T09:20:48.268Z</time></trkpt><trkpt lat="43.475725" lon="13.0250533"><ele>424.0</ele><time>2026-04-26T09:20:49.268Z</time></trkpt><trkpt lat="43.47564" lon="13.0248617"><ele>421.6666666666667</ele><time>2026-04-26T09:20:50.269Z</time></trkpt><trkpt lat="43.4755467" lon="13.0246667"><ele>419.33333333333337</ele><time>2026-04-26T09:20:51.268Z</time></trkpt><trkpt lat="43.47547" lon="13.0244633"><ele>417.0</ele><time>2026-04-26T09:20:52.268Z</time></trkpt><trkpt lat="43.4754033" lon="13.0242483"><ele>418.0</ele><time>2026-04-26T09:20:53.268Z</time></trkpt><trkpt lat="43.4753483" lon="13.0240267"><ele>419.0</ele><time>2026-04-26T09:20:54.268Z</time></trkpt><trkpt lat="43.4753183" lon="13.0238033"><ele>420.0</ele><time>2026-04-26T09:20:55.268Z</time></trkpt><trkpt lat="43.4753117" lon="13.02357"><ele>420.0</ele><time>2026-04-26T09:20:56.268Z</time></trkpt><trkpt lat="43.4753133" lon="13.0233283"><ele>420.0</ele><time>2026-04-26T09:20:57.268Z</time></trkpt><trkpt lat="43.475315" lon="13.0230867"><ele>420.0</ele><time>2026-04-26T09:20:58.268Z</time></trkpt><trkpt lat="43.4753117" lon="13.02285"><ele>422.66666666666663</ele><time>2026-04-26T09:20:59.268Z</time></trkpt><trkpt lat="43.475305" lon="13.0226083"><ele>425.3333333333333</ele><time>2026-04-26T09:21:00.268Z</time></trkpt><trkpt lat="43.475305" lon="13.0223817"><ele>428.0</ele><time>2026-04-26T09:21:01.268Z</time></trkpt><trkpt lat="43.4753067" lon="13.0221667"><ele>429.25</ele><time>2026-04-26T09:21:02.269Z</time></trkpt><trkpt lat="43.4753083" lon="13.0219517"><ele>430.5</ele><time>2026-04-26T09:21:03.268Z</time></trkpt><trkpt lat="43.475305" lon="13.0217433"><ele>431.75</ele><time>2026-04-26T09:21:04.268Z</time></trkpt><trkpt lat="43.4752917" lon="13.0215567"><ele>433.0</ele><time>2026-04-26T09:21:05.268Z</time></trkpt><trkpt lat="43.475245" lon="13.021365"><ele>435.6666666666667</ele><time>2026-04-26T09:21:06.269Z</time></trkpt><trkpt lat="43.4751667" lon="13.02117"><ele>438.33333333333337</ele><time>2026-04-26T09:21:07.268Z</time></trkpt><trkpt lat="43.4750683" lon="13.020985"><ele>441.0</ele><time>2026-04-26T09:21:08.268Z</time></trkpt><trkpt lat="43.47495" lon="13.02078"><ele>443.33333333333337</ele><time>2026-04-26T09:21:09.268Z</time></trkpt><trkpt lat="43.474825" lon="13.0205583"><ele>445.6666666666667</ele><time>2026-04-26T09:21:10.268Z</time></trkpt><trkpt lat="43.4747083" lon="13.02036"><ele>448.0</ele><time>2026-04-26T09:21:11.269Z</time></trkpt><trkpt lat="43.474605" lon="13.02018"><ele>447.6666666666667</ele><time>2026-04-26T09:21:12.268Z</time></trkpt><trkpt lat="43.47451" lon="13.0200083"><ele>447.33333333333337</ele><time>2026-04-26T09:21:13.268Z</time></trkpt><trkpt lat="43.474415" lon="13.0198267"><ele>447.0</ele><time>2026-04-26T09:21:14.268Z</time></trkpt><trkpt lat="43.47432" lon="13.01962"><ele>447.0</ele><time>2026-04-26T09:21:15.268Z</time></trkpt><trkpt lat="43.4742517" lon="13.0194033"><ele>447.0</ele><time>2026-04-26T09:21:16.268Z</time></trkpt><trkpt lat="43.474205" lon="13.01919"><ele>447.0</ele><time>2026-04-26T09:21:17.268Z</time></trkpt><trkpt lat="43.474175" lon="13.0189817"><ele>449.0</ele><time>2026-04-26T09:21:18.268Z</time></trkpt><trkpt lat="43.4741483" lon="13.0187717"><ele>451.0</ele><time>2026-04-26T09:21:19.268Z</time></trkpt><trkpt lat="43.4741283" lon="13.0185667"><ele>453.0</ele><time>2026-04-26T09:21:20.268Z</time></trkpt><trkpt lat="43.4740983" lon="13.0183417"><ele>454.0</ele><time>2026-04-26T09:21:21.268Z</time></trkpt><trkpt lat="43.474065" lon="13.0181183"><ele>455.0</ele><time>2026-04-26T09:21:22.268Z</time></trkpt><trkpt lat="43.4740367" lon="13.0178917"><ele>456.0</ele><time>2026-04-26T09:21:23.268Z</time></trkpt><trkpt lat="43.474" lon="13.01765"><ele>457.66666666666663</ele><time>2026-04-26T09:21:24.268Z</time></trkpt><trkpt lat="43.4739667" lon="13.0174183"><ele>459.3333333333333</ele><time>2026-04-26T09:21:25.268Z</time></trkpt><trkpt lat="43.47393" lon="13.017195"><ele>461.0</ele><time>2026-04-26T09:21:26.268Z</time></trkpt><trkpt lat="43.4738967" lon="13.016985"><ele>461.0</ele><time>2026-04-26T09:21:27.269Z</time></trkpt><trkpt lat="43.4738433" lon="13.0167783"><ele>461.0</ele><time>2026-04-26T09:21:28.268Z</time></trkpt><trkpt lat="43.4737767" lon="13.0165867"><ele>461.0</ele><time>2026-04-26T09:21:29.268Z</time></trkpt><trkpt lat="43.473695" lon="13.016415"><ele>459.75</ele><time>2026-04-26T09:21:30.268Z</time></trkpt><trkpt lat="43.4736033" lon="13.01627"><ele>458.5</ele><time>2026-04-26T09:21:31.268Z</time></trkpt><trkpt lat="43.4734883" lon="13.0161483"><ele>457.25</ele><time>2026-04-26T09:21:32.268Z</time></trkpt><trkpt lat="43.4733605" lon="13.0160353"><ele>456.0</ele><time>2026-04-26T09:21:33.268Z</time></trkpt><trkpt lat="43.4732211" lon="13.0159331"><ele>456.0</ele><time>2026-04-26T09:21:34.268Z</time></trkpt><trkpt lat="43.4730794" lon="13.0158416"><ele>456.0</ele><time>2026-04-26T09:21:35.268Z</time></trkpt><trkpt lat="43.4729489" lon="13.0157562"><ele>456.0</ele><time>2026-04-26T09:21:36.268Z</time></trkpt><trkpt lat="43.4728374" lon="13.0156722"><ele>456.0</ele><time>2026-04-26T09:21:37.268Z</time></trkpt><trkpt lat="43.472751" lon="13.0155774"><ele>456.75</ele><time>2026-04-26T09:21:38.268Z</time></trkpt><trkpt lat="43.4726939" lon="13.0154521"><ele>457.5</ele><time>2026-04-26T09:21:39.268Z</time></trkpt><trkpt lat="43.4726657" lon="13.0153041"><ele>458.25</ele><time>2026-04-26T09:21:40.268Z</time></trkpt><trkpt lat="43.4726661" lon="13.0151335"><ele>459.0</ele><time>2026-04-26T09:21:41.268Z</time></trkpt><trkpt lat="43.4726665" lon="13.0149401"><ele>459.0</ele><time>2026-04-26T09:21:42.268Z</time></trkpt><trkpt lat="43.4726494" lon="13.014734"><ele>459.0</ele><time>2026-04-26T09:21:43.268Z</time></trkpt><trkpt lat="43.4725932" lon="13.014531"><ele>459.0</ele><time>2026-04-26T09:21:44.268Z</time></trkpt><trkpt lat="43.4725018" lon="13.0143397"><ele>459.0</ele><time>2026-04-26T09:21:45.268Z</time></trkpt><trkpt lat="43.4724028" lon="13.0141697"><ele>459.0</ele><time>2026-04-26T09:21:46.268Z</time></trkpt><trkpt lat="43.472299" lon="13.0140034"><ele>459.0</ele><time>2026-04-26T09:21:47.268Z</time></trkpt><trkpt lat="43.4722173" lon="13.0138218"><ele>458.0</ele><time>2026-04-26T09:21:48.268Z</time></trkpt><trkpt lat="43.4721566" lon="13.0136228"><ele>457.0</ele><time>2026-04-26T09:21:49.268Z</time></trkpt><trkpt lat="43.4721123" lon="13.0134087"><ele>456.0</ele><time>2026-04-26T09:21:50.268Z</time></trkpt><trkpt lat="43.4720792" lon="13.0132048"><ele>456.0</ele><time>2026-04-26T09:21:51.269Z</time></trkpt><trkpt lat="43.4720425" lon="13.0130145"><ele>456.0</ele><time>2026-04-26T09:21:52.268Z</time></trkpt><trkpt lat="43.4719779" lon="13.0128434"><ele>456.0</ele><time>2026-04-26T09:21:53.268Z</time></trkpt><trkpt lat="43.4718884" lon="13.0126824"><ele>456.0</ele><time>2026-04-26T09:21:54.268Z</time></trkpt><trkpt lat="43.4717811" lon="13.0125269"><ele>460.66666666666663</ele><time>2026-04-26T09:21:55.268Z</time></trkpt><trkpt lat="43.4716658" lon="13.012368"><ele>465.3333333333333</ele><time>2026-04-26T09:21:56.268Z</time></trkpt><trkpt lat="43.4715514" lon="13.0122045"><ele>470.0</ele><time>2026-04-26T09:21:57.268Z</time></trkpt><trkpt lat="43.471447" lon="13.0120516"><ele>470.0</ele><time>2026-04-26T09:21:58.268Z</time></trkpt><trkpt lat="43.4713486" lon="13.0119028"><ele>470.0</ele><time>2026-04-26T09:21:59.268Z</time></trkpt><trkpt lat="43.4712553" lon="13.0117602"><ele>470.0</ele><time>2026-04-26T09:22:00.268Z</time></trkpt><trkpt lat="43.4711515" lon="13.0116231"><ele>470.0</ele><time>2026-04-26T09:22:01.268Z</time></trkpt><trkpt lat="43.471043" lon="13.0115114"><ele>470.25</ele><time>2026-04-26T09:22:02.268Z</time></trkpt><trkpt lat="43.4709173" lon="13.0114306"><ele>470.5</ele><time>2026-04-26T09:22:03.268Z</time></trkpt><trkpt lat="43.4707773" lon="13.0113872"><ele>470.75</ele><time>2026-04-26T09:22:04.268Z</time></trkpt><trkpt lat="43.4706319" lon="13.011369"><ele>471.0</ele><time>2026-04-26T09:22:05.268Z</time></trkpt><trkpt lat="43.4704849" lon="13.0113625"><ele>468.0</ele><time>2026-04-26T09:22:06.268Z</time></trkpt><trkpt lat="43.470336" lon="13.0113677"><ele>465.0</ele><time>2026-04-26T09:22:07.268Z</time></trkpt><trkpt lat="43.4701843" lon="13.0113826"><ele>462.0</ele><time>2026-04-26T09:22:08.268Z</time></trkpt><trkpt lat="43.4700327" lon="13.0114012"><ele>462.0</ele><time>2026-04-26T09:22:09.269Z</time></trkpt><trkpt lat="43.4698891" lon="13.0114162"><ele>462.0</ele><time>2026-04-26T09:22:10.268Z</time></trkpt><trkpt lat="43.4697503" lon="13.0114348"><ele>462.0</ele><time>2026-04-26T09:22:11.268Z</time></trkpt><trkpt lat="43.469619" lon="13.0114433"><ele>462.0</ele><time>2026-04-26T09:22:12.269Z</time></trkpt><trkpt lat="43.4694884" lon="13.0114179"><ele>461.0</ele><time>2026-04-26T09:22:13.268Z</time></trkpt><trkpt lat="43.4693644" lon="13.0113457"><ele>460.0</ele><time>2026-04-26T09:22:14.268Z</time></trkpt><trkpt lat="43.4692512" lon="13.011239"><ele>459.0</ele><time>2026-04-26T09:22:15.268Z</time></trkpt><trkpt lat="43.4691639" lon="13.0111066"><ele>458.0</ele><time>2026-04-26T09:22:16.269Z</time></trkpt><trkpt lat="43.4691028" lon="13.0109546"><ele>459.5</ele><time>2026-04-26T09:22:17.268Z</time></trkpt><trkpt lat="43.4690665" lon="13.0107933"><ele>461.0</ele><time>2026-04-26T09:22:18.268Z</time></trkpt><trkpt lat="43.4690511" lon="13.0106249"><ele>462.5</ele><time>2026-04-26T09:22:19.268Z</time></trkpt><trkpt lat="43.46903" lon="13.0104617"><ele>464.0</ele><time>2026-04-26T09:22:20.269Z</time></trkpt><trkpt lat="43.4689733" lon="13.0103037"><ele>464.0</ele><time>2026-04-26T09:22:21.268Z</time></trkpt><trkpt lat="43.4688848" lon="13.0101698"><ele>464.0</ele><time>2026-04-26T09:22:22.268Z</time></trkpt><trkpt lat="43.4687778" lon="13.010062"><ele>464.0</ele><time>2026-04-26T09:22:23.268Z</time></trkpt><trkpt lat="43.4686594" lon="13.0099653"><ele>464.0</ele><time>2026-04-26T09:22:24.268Z</time></trkpt><trkpt lat="43.4685287" lon="13.0098695"><ele>464.5</ele><time>2026-04-26T09:22:25.268Z</time></trkpt><trkpt lat="43.4684025" lon="13.0097678"><ele>465.0</ele><time>2026-04-26T09:22:26.268Z</time></trkpt><trkpt lat="43.4682828" lon="13.0096502"><ele>465.5</ele><time>2026-04-26T09:22:27.268Z</time></trkpt><trkpt lat="43.4681695" lon="13.0095262"><ele>466.0</ele><time>2026-04-26T09:22:28.268Z</time></trkpt><trkpt lat="43.468062" lon="13.0094019"><ele>466.0</ele><time>2026-04-26T09:22:29.268Z</time></trkpt><trkpt lat="43.4679571" lon="13.0092577"><ele>466.0</ele><time>2026-04-26T09:22:30.268Z</time></trkpt><trkpt lat="43.4678586" lon="13.009105"><ele>466.0</ele><time>2026-04-26T09:22:31.268Z</time></trkpt><trkpt lat="43.4677668" lon="13.0089471"><ele>466.0</ele><time>2026-04-26T09:22:32.268Z</time></trkpt><trkpt lat="43.467684" lon="13.0087803"><ele>464.5</ele><time>2026-04-26T09:22:33.269Z</time></trkpt><trkpt lat="43.4676093" lon="13.0086055"><ele>463.0</ele><time>2026-04-26T09:22:34.268Z</time></trkpt><trkpt lat="43.4675527" lon="13.0084179"><ele>461.5</ele><time>2026-04-26T09:22:35.268Z</time></trkpt><trkpt lat="43.4675093" lon="13.0082211"><ele>460.0</ele><time>2026-04-26T09:22:36.268Z</time></trkpt><trkpt lat="43.4674705" lon="13.0080231"><ele>460.0</ele><time>2026-04-26T09:22:37.268Z</time></trkpt><trkpt lat="43.4674385" lon="13.0078328"><ele>460.0</ele><time>2026-04-26T09:22:38.268Z</time></trkpt><trkpt lat="43.4674083" lon="13.007651"><ele>460.0</ele><time>2026-04-26T09:22:39.269Z</time></trkpt><trkpt lat="43.4673983" lon="13.00748"><ele>460.0</ele><time>2026-04-26T09:22:40.268Z</time></trkpt><trkpt lat="43.4674117" lon="13.0073133"><ele>460.5</ele><time>2026-04-26T09:22:41.268Z</time></trkpt><trkpt lat="43.4674367" lon="13.0071417"><ele>461.0</ele><time>2026-04-26T09:22:42.268Z</time></trkpt><trkpt lat="43.4674583" lon="13.0069567"><ele>461.5</ele><time>2026-04-26T09:22:43.268Z</time></trkpt><trkpt lat="43.4674717" lon="13.00675"><ele>462.0</ele><time>2026-04-26T09:22:44.268Z</time></trkpt><trkpt lat="43.46747" lon="13.0065417"><ele>463.0</ele><time>2026-04-26T09:22:45.269Z</time></trkpt><trkpt lat="43.4674433" lon="13.0063217"><ele>464.0</ele><time>2026-04-26T09:22:46.268Z</time></trkpt><trkpt lat="43.4674183" lon="13.0061017"><ele>465.0</ele><time>2026-04-26T09:22:47.268Z</time></trkpt><trkpt lat="43.4673867" lon="13.0058783"><ele>467.0</ele><time>2026-04-26T09:22:48.268Z</time></trkpt><trkpt lat="43.4673533" lon="13.00567"><ele>469.0</ele><time>2026-04-26T09:22:49.268Z</time></trkpt><trkpt lat="43.46732" lon="13.005455"><ele>471.0</ele><time>2026-04-26T09:22:50.269Z</time></trkpt><trkpt lat="43.4672817" lon="13.005245"><ele>471.0</ele><time>2026-04-26T09:22:51.268Z</time></trkpt><trkpt lat="43.467235" lon="13.00503"><ele>471.0</ele><time>2026-04-26T09:22:52.268Z</time></trkpt><trkpt lat="43.4671733" lon="13.0048267"><ele>471.0</ele><time>2026-04-26T09:22:53.268Z</time></trkpt><trkpt lat="43.467105" lon="13.004625"><ele>468.66666666666663</ele><time>2026-04-26T09:22:54.268Z</time></trkpt><trkpt lat="43.4670183" lon="13.004425"><ele>466.3333333333333</ele><time>2026-04-26T09:22:55.268Z</time></trkpt><trkpt lat="43.4669283" lon="13.00423"><ele>464.0</ele><time>2026-04-26T09:22:56.268Z</time></trkpt><trkpt lat="43.4668367" lon="13.0040267"><ele>464.0</ele><time>2026-04-26T09:22:57.268Z</time></trkpt><trkpt lat="43.4667483" lon="13.0038283"><ele>464.0</ele><time>2026-04-26T09:22:58.268Z</time></trkpt><trkpt lat="43.46666" lon="13.0036367"><ele>464.0</ele><time>2026-04-26T09:22:59.268Z</time></trkpt><trkpt lat="43.4665767" lon="13.00346"><ele>462.5</ele><time>2026-04-26T09:23:00.268Z</time></trkpt><trkpt lat="43.46649" lon="13.0032817"><ele>461.0</ele><time>2026-04-26T09:23:01.269Z</time></trkpt><trkpt lat="43.4664083" lon="13.0031183"><ele>459.5</ele><time>2026-04-26T09:23:02.268Z</time></trkpt><trkpt lat="43.4663317" lon="13.0029633"><ele>458.0</ele><time>2026-04-26T09:23:03.268Z</time></trkpt><trkpt lat="43.46626" lon="13.0028183"><ele>457.5</ele><time>2026-04-26T09:23:04.269Z</time></trkpt><trkpt lat="43.46619" lon="13.00268"><ele>457.0</ele><time>2026-04-26T09:23:05.268Z</time></trkpt><trkpt lat="43.4661233" lon="13.0025433"><ele>456.5</ele><time>2026-04-26T09:23:06.268Z</time></trkpt><trkpt lat="43.4660517" lon="13.0024167"><ele>456.0</ele><time>2026-04-26T09:23:07.268Z</time></trkpt><trkpt lat="43.4659683" lon="13.00231"><ele>453.5</ele><time>2026-04-26T09:23:08.268Z</time></trkpt><trkpt lat="43.4658683" lon="13.0022133"><ele>451.0</ele><time>2026-04-26T09:23:09.268Z</time></trkpt><trkpt lat="43.46577" lon="13.0021167"><ele>448.5</ele><time>2026-04-26T09:23:10.269Z</time></trkpt><trkpt lat="43.465675" lon="13.00202"><ele>446.0</ele><time>2026-04-26T09:23:11.268Z</time></trkpt><trkpt lat="43.4655783" lon="13.0019017"><ele>446.0</ele><time>2026-04-26T09:23:12.269Z</time></trkpt><trkpt lat="43.4654867" lon="13.001775"><ele>446.0</ele><time>2026-04-26T09:23:13.268Z</time></trkpt><trkpt lat="43.4654" lon="13.0016417"><ele>446.0</ele><time>2026-04-26T09:23:14.268Z</time></trkpt><trkpt lat="43.4653167" lon="13.0015117"><ele>446.0</ele><time>2026-04-26T09:23:15.269Z</time></trkpt><trkpt lat="43.4652433" lon="13.0013917"><ele>448.0</ele><time>2026-04-26T09:23:16.268Z</time></trkpt><trkpt lat="43.46517" lon="13.0012683"><ele>450.0</ele><time>2026-04-26T09:23:17.268Z</time></trkpt><trkpt lat="43.465105" lon="13.00116"><ele>452.0</ele><time>2026-04-26T09:23:18.268Z</time></trkpt><trkpt lat="43.4650417" lon="13.00105"><ele>454.0</ele><time>2026-04-26T09:23:19.268Z</time></trkpt><trkpt lat="43.4649767" lon="13.000945"><ele>456.0</ele><time>2026-04-26T09:23:20.268Z</time></trkpt><trkpt lat="43.464915" lon="13.0008483"><ele>455.4</ele><time>2026-04-26T09:23:21.268Z</time></trkpt><trkpt lat="43.4648583" lon="13.000745"><ele>454.8</ele><time>2026-04-26T09:23:22.269Z</time></trkpt><trkpt lat="43.4648017" lon="13.0006433"><ele>454.19999999999993</ele><time>2026-04-26T09:23:23.268Z</time></trkpt><trkpt lat="43.4647483" lon="13.0005483"><ele>453.59999999999997</ele><time>2026-04-26T09:23:24.268Z</time></trkpt><trkpt lat="43.4646967" lon="13.00046"><ele>453.0</ele><time>2026-04-26T09:23:25.268Z</time></trkpt><trkpt lat="43.46462" lon="13.000345"><ele>453.0</ele><time>2026-04-26T09:23:27.268Z</time></trkpt><trkpt lat="43.464565" lon="13.0002817"><ele>453.0</ele><time>2026-04-26T09:23:29.268Z</time></trkpt><trkpt lat="43.4645283" lon="13.0002017"><ele>453.0</ele><time>2026-04-26T09:23:31.268Z</time></trkpt><trkpt lat="43.4645133" lon="13.000085"><ele>453.0</ele><time>2026-04-26T09:23:33.268Z</time></trkpt><trkpt lat="43.4645583" lon="12.99992"><ele>453.0</ele><time>2026-04-26T09:23:35.268Z</time></trkpt><trkpt lat="43.4646017" lon="12.9998217"><ele>453.0</ele><time>2026-04-26T09:23:36.268Z</time></trkpt><trkpt lat="43.464655" lon="12.999725"><ele>453.0</ele><time>2026-04-26T09:23:37.268Z</time></trkpt><trkpt lat="43.4647133" lon="12.99963"><ele>452.99999999999994</ele><time>2026-04-26T09:23:38.268Z</time></trkpt><trkpt lat="43.4647817" lon="12.9995333"><ele>452.99999999999994</ele><time>2026-04-26T09:23:39.268Z</time></trkpt><trkpt lat="43.4648683" lon="12.999435"><ele>453.0</ele><time>2026-04-26T09:23:40.268Z</time></trkpt><trkpt lat="43.4649483" lon="12.9993483"><ele>453.0</ele><time>2026-04-26T09:23:41.268Z</time></trkpt><trkpt lat="43.46503" lon="12.9992483"><ele>458.0</ele><time>2026-04-26T09:23:42.268Z</time></trkpt><trkpt lat="43.4651067" lon="12.9991333"><ele>463.0</ele><time>2026-04-26T09:23:43.269Z</time></trkpt><trkpt lat="43.4651717" lon="12.9990167"><ele>468.0</ele><time>2026-04-26T09:23:44.269Z</time></trkpt><trkpt lat="43.46525" lon="12.9988917"><ele>473.0</ele><time>2026-04-26T09:23:45.268Z</time></trkpt><trkpt lat="43.4653133" lon="12.9987617"><ele>473.0</ele><time>2026-04-26T09:23:46.268Z</time></trkpt><trkpt lat="43.46538" lon="12.99863"><ele>472.99999999999994</ele><time>2026-04-26T09:23:47.268Z</time></trkpt><trkpt lat="43.46544" lon="12.9984917"><ele>472.99999999999994</ele><time>2026-04-26T09:23:48.268Z</time></trkpt><trkpt lat="43.4654917" lon="12.9983633"><ele>473.0</ele><time>2026-04-26T09:23:49.268Z</time></trkpt><trkpt lat="43.4655233" lon="12.99824"><ele>473.0</ele><time>2026-04-26T09:23:50.268Z</time></trkpt><trkpt lat="43.465555" lon="12.9981233"><ele>473.8333333333333</ele><time>2026-04-26T09:23:51.268Z</time></trkpt><trkpt lat="43.4655667" lon="12.9980117"><ele>474.66666666666663</ele><time>2026-04-26T09:23:52.268Z</time></trkpt><trkpt lat="43.4655767" lon="12.997895"><ele>475.5</ele><time>2026-04-26T09:23:53.269Z</time></trkpt><trkpt lat="43.4655883" lon="12.9977833"><ele>476.33333333333337</ele><time>2026-04-26T09:23:54.268Z</time></trkpt><trkpt lat="43.4655933" lon="12.9976767"><ele>477.1666666666667</ele><time>2026-04-26T09:23:55.268Z</time></trkpt><trkpt lat="43.4655983" lon="12.997575"><ele>478.0</ele><time>2026-04-26T09:23:56.269Z</time></trkpt><trkpt lat="43.4656167" lon="12.9974917"><ele>478.0</ele><time>2026-04-26T09:23:57.268Z</time></trkpt><trkpt lat="43.4656717" lon="12.997415"><ele>477.99999999999994</ele><time>2026-04-26T09:23:58.268Z</time></trkpt><trkpt lat="43.4657567" lon="12.9973533"><ele>477.99999999999994</ele><time>2026-04-26T09:23:59.268Z</time></trkpt><trkpt lat="43.4658683" lon="12.9972867"><ele>478.0</ele><time>2026-04-26T09:24:00.268Z</time></trkpt><trkpt lat="43.4659833" lon="12.9972117"><ele>478.0</ele><time>2026-04-26T09:24:01.268Z</time></trkpt><trkpt lat="43.466085" lon="12.997125"><ele>478.0</ele><time>2026-04-26T09:24:02.268Z</time></trkpt><trkpt lat="43.466175" lon="12.9970217"><ele>477.99999999999994</ele><time>2026-04-26T09:24:03.268Z</time></trkpt><trkpt lat="43.46625" lon="12.9969233"><ele>477.99999999999994</ele><time>2026-04-26T09:24:04.268Z</time></trkpt><trkpt lat="43.4663117" lon="12.99682"><ele>478.0</ele><time>2026-04-26T09:24:05.268Z</time></trkpt><trkpt lat="43.466355" lon="12.9967033"><ele>478.0</ele><time>2026-04-26T09:24:06.268Z</time></trkpt><trkpt lat="43.466395" lon="12.9965567"><ele>474.75</ele><time>2026-04-26T09:24:07.269Z</time></trkpt><trkpt lat="43.466435" lon="12.9963917"><ele>471.5</ele><time>2026-04-26T09:24:08.268Z</time></trkpt><trkpt lat="43.46648" lon="12.9962217"><ele>468.25</ele><time>2026-04-26T09:24:09.268Z</time></trkpt><trkpt lat="43.466525" lon="12.996065"><ele>465.0</ele><time>2026-04-26T09:24:10.268Z</time></trkpt><trkpt lat="43.4665517" lon="12.9959383"><ele>468.25</ele><time>2026-04-26T09:24:11.268Z</time></trkpt><trkpt lat="43.46658" lon="12.995795"><ele>471.5</ele><time>2026-04-26T09:24:12.268Z</time></trkpt><trkpt lat="43.4665967" lon="12.9956433"><ele>474.75</ele><time>2026-04-26T09:24:13.268Z</time></trkpt><trkpt lat="43.4666167" lon="12.995485"><ele>478.0</ele><time>2026-04-26T09:24:14.268Z</time></trkpt><trkpt lat="43.4666117" lon="12.99532"><ele>478.0</ele><time>2026-04-26T09:24:15.268Z</time></trkpt><trkpt lat="43.4666" lon="12.995165"><ele>478.0</ele><time>2026-04-26T09:24:16.268Z</time></trkpt><trkpt lat="43.4665667" lon="12.9950117"><ele>478.0</ele><time>2026-04-26T09:24:17.268Z</time></trkpt><trkpt lat="43.4665183" lon="12.9948567"><ele>478.0</ele><time>2026-04-26T09:24:18.268Z</time></trkpt><trkpt lat="43.46647" lon="12.9947017"><ele>477.25</ele><time>2026-04-26T09:24:19.269Z</time></trkpt><trkpt lat="43.4664083" lon="12.9945517"><ele>476.5</ele><time>2026-04-26T09:24:20.268Z</time></trkpt><trkpt lat="43.4663333" lon="12.994405"><ele>475.75</ele><time>2026-04-26T09:24:21.268Z</time></trkpt><trkpt lat="43.4662533" lon="12.99427"><ele>475.0</ele><time>2026-04-26T09:24:22.268Z</time></trkpt><trkpt lat="43.4661717" lon="12.9941367"><ele>480.75</ele><time>2026-04-26T09:24:23.268Z</time></trkpt><trkpt lat="43.4660833" lon="12.9940117"><ele>486.5</ele><time>2026-04-26T09:24:24.268Z</time></trkpt><trkpt lat="43.4659817" lon="12.9938867"><ele>492.25</ele><time>2026-04-26T09:24:25.268Z</time></trkpt><trkpt lat="43.4658833" lon="12.993765"><ele>498.0</ele><time>2026-04-26T09:24:26.268Z</time></trkpt><trkpt lat="43.4657883" lon="12.993655"><ele>498.0</ele><time>2026-04-26T09:24:27.268Z</time></trkpt><trkpt lat="43.465695" lon="12.99354"><ele>498.0</ele><time>2026-04-26T09:24:28.268Z</time></trkpt><trkpt lat="43.4655917" lon="12.993435"><ele>498.0</ele><time>2026-04-26T09:24:29.268Z</time></trkpt><trkpt lat="43.4654883" lon="12.99332"><ele>498.0</ele><time>2026-04-26T09:24:30.268Z</time></trkpt><trkpt lat="43.4653917" lon="12.9931933"><ele>500.59999999999997</ele><time>2026-04-26T09:24:31.268Z</time></trkpt><trkpt lat="43.465305" lon="12.9930767"><ele>503.19999999999993</ele><time>2026-04-26T09:24:32.268Z</time></trkpt><trkpt lat="43.4652183" lon="12.9929667"><ele>505.8</ele><time>2026-04-26T09:24:33.268Z</time></trkpt><trkpt lat="43.46514" lon="12.9928717"><ele>508.4</ele><time>2026-04-26T09:24:34.268Z</time></trkpt><trkpt lat="43.46507" lon="12.9927933"><ele>511.0</ele><time>2026-04-26T09:24:35.268Z</time></trkpt><trkpt lat="43.4650067" lon="12.9927333"><ele>511.0</ele><time>2026-04-26T09:24:36.269Z</time></trkpt><trkpt lat="43.46495" lon="12.9926817"><ele>511.0</ele><time>2026-04-26T09:24:37.268Z</time></trkpt><trkpt lat="43.4648817" lon="12.99264"><ele>511.0</ele><time>2026-04-26T09:24:38.268Z</time></trkpt><trkpt lat="43.4648083" lon="12.9926117"><ele>511.0</ele><time>2026-04-26T09:24:39.268Z</time></trkpt><trkpt lat="43.464735" lon="12.9925933"><ele>511.0</ele><time>2026-04-26T09:24:40.268Z</time></trkpt><trkpt lat="43.4646583" lon="12.992575"><ele>511.0</ele><time>2026-04-26T09:24:41.268Z</time></trkpt><trkpt lat="43.46459" lon="12.9925683"><ele>511.0</ele><time>2026-04-26T09:24:42.268Z</time></trkpt><trkpt lat="43.4644533" lon="12.99254"><ele>515.2</ele><time>2026-04-26T09:24:44.268Z</time></trkpt><trkpt lat="43.464365" lon="12.992525"><ele>519.4000000000001</ele><time>2026-04-26T09:24:45.268Z</time></trkpt><trkpt lat="43.46426" lon="12.99253"><ele>523.6</ele><time>2026-04-26T09:24:46.268Z</time></trkpt><trkpt lat="43.4641583" lon="12.9925467"><ele>527.8000000000001</ele><time>2026-04-26T09:24:47.268Z</time></trkpt><trkpt lat="43.4640583" lon="12.9925583"><ele>532.0</ele><time>2026-04-26T09:24:48.268Z</time></trkpt><trkpt lat="43.4639667" lon="12.992555"><ele>532.0</ele><time>2026-04-26T09:24:49.268Z</time></trkpt><trkpt lat="43.4638867" lon="12.99256"><ele>532.0</ele><time>2026-04-26T09:24:50.268Z</time></trkpt><trkpt lat="43.4638" lon="12.9925717"><ele>532.0</ele><time>2026-04-26T09:24:51.268Z</time></trkpt><trkpt lat="43.4637083" lon="12.992585"><ele>532.0</ele><time>2026-04-26T09:24:52.268Z</time></trkpt><trkpt lat="43.46362" lon="12.9926017"><ele>532.0</ele><time>2026-04-26T09:24:53.268Z</time></trkpt><trkpt lat="43.46353" lon="12.992625"><ele>532.0</ele><time>2026-04-26T09:24:54.269Z</time></trkpt><trkpt lat="43.4634483" lon="12.9926683"><ele>533.1666666666667</ele><time>2026-04-26T09:24:55.268Z</time></trkpt><trkpt lat="43.4633617" lon="12.992705"><ele>534.3333333333334</ele><time>2026-04-26T09:24:56.268Z</time></trkpt><trkpt lat="43.4632867" lon="12.9927517"><ele>535.5</ele><time>2026-04-26T09:24:57.268Z</time></trkpt><trkpt lat="43.4631683" lon="12.9928283"><ele>536.6666666666666</ele><time>2026-04-26T09:24:59.268Z</time></trkpt><trkpt lat="43.4631067" lon="12.9928717"><ele>537.8333333333333</ele><time>2026-04-26T09:25:00.268Z</time></trkpt><trkpt lat="43.4630533" lon="12.9929383"><ele>539.0</ele><time>2026-04-26T09:25:01.268Z</time></trkpt><trkpt lat="43.4629983" lon="12.9930117"><ele>539.0</ele><time>2026-04-26T09:25:02.268Z</time></trkpt><trkpt lat="43.4629517" lon="12.9930867"><ele>539.0</ele><time>2026-04-26T09:25:03.268Z</time></trkpt><trkpt lat="43.4629033" lon="12.9931667"><ele>539.0</ele><time>2026-04-26T09:25:04.268Z</time></trkpt><trkpt lat="43.462855" lon="12.9932433"><ele>539.0</ele><time>2026-04-26T09:25:05.268Z</time></trkpt><trkpt lat="43.4628033" lon="12.99331"><ele>539.0</ele><time>2026-04-26T09:25:06.268Z</time></trkpt><trkpt lat="43.4627483" lon="12.9933717"><ele>539.0</ele><time>2026-04-26T09:25:07.268Z</time></trkpt><trkpt lat="43.4626967" lon="12.9934367"><ele>539.0</ele><time>2026-04-26T09:25:08.268Z</time></trkpt><trkpt lat="43.4626433" lon="12.9935067"><ele>541.1666666666666</ele><time>2026-04-26T09:25:09.269Z</time></trkpt><trkpt lat="43.4626" lon="12.993575"><ele>543.3333333333333</ele><time>2026-04-26T09:25:10.268Z</time></trkpt><trkpt lat="43.46255" lon="12.99363"><ele>545.5</ele><time>2026-04-26T09:25:11.268Z</time></trkpt><trkpt lat="43.46248" lon="12.99367"><ele>547.6666666666666</ele><time>2026-04-26T09:25:12.268Z</time></trkpt><trkpt lat="43.4624" lon="12.9937167"><ele>549.8333333333334</ele><time>2026-04-26T09:25:13.268Z</time></trkpt><trkpt lat="43.4623017" lon="12.99375"><ele>552.0</ele><time>2026-04-26T09:25:14.268Z</time></trkpt><trkpt lat="43.462195" lon="12.9937767"><ele>552.0</ele><time>2026-04-26T09:25:15.268Z</time></trkpt><trkpt lat="43.4621033" lon="12.9937983"><ele>552.0</ele><time>2026-04-26T09:25:16.268Z</time></trkpt><trkpt lat="43.4620133" lon="12.99381"><ele>552.0</ele><time>2026-04-26T09:25:17.268Z</time></trkpt><trkpt lat="43.4619233" lon="12.993815"><ele>552.0</ele><time>2026-04-26T09:25:18.268Z</time></trkpt><trkpt lat="43.4618367" lon="12.9938217"><ele>552.0</ele><time>2026-04-26T09:25:19.268Z</time></trkpt><trkpt lat="43.4617533" lon="12.9938333"><ele>552.0</ele><time>2026-04-26T09:25:20.269Z</time></trkpt><trkpt lat="43.4616667" lon="12.9938417"><ele>552.0</ele><time>2026-04-26T09:25:21.268Z</time></trkpt><trkpt lat="43.461585" lon="12.9938567"><ele>552.0</ele><time>2026-04-26T09:25:22.269Z</time></trkpt><trkpt lat="43.4615067" lon="12.9938833"><ele>552.0</ele><time>2026-04-26T09:25:23.269Z</time></trkpt><trkpt lat="43.461435" lon="12.993895"><ele>552.0</ele><time>2026-04-26T09:25:24.268Z</time></trkpt><trkpt lat="43.4613183" lon="12.9939083"><ele>552.0</ele><time>2026-04-26T09:25:26.268Z</time></trkpt><trkpt lat="43.4612117" lon="12.9939317"><ele>550.2</ele><time>2026-04-26T09:25:28.269Z</time></trkpt><trkpt lat="43.461135" lon="12.9939967"><ele>548.4000000000001</ele><time>2026-04-26T09:25:30.269Z</time></trkpt><trkpt lat="43.4610833" lon="12.99409"><ele>546.5999999999999</ele><time>2026-04-26T09:25:32.268Z</time></trkpt><trkpt lat="43.4610717" lon="12.9942183"><ele>544.8</ele><time>2026-04-26T09:25:34.269Z</time></trkpt><trkpt lat="43.4610983" lon="12.994385"><ele>543.0</ele><time>2026-04-26T09:25:36.269Z</time></trkpt><trkpt lat="43.461115" lon="12.9944883"><ele>546.6</ele><time>2026-04-26T09:25:37.269Z</time></trkpt><trkpt lat="43.4611267" lon="12.9945917"><ele>550.1999999999999</ele><time>2026-04-26T09:25:38.268Z</time></trkpt><trkpt lat="43.4611117" lon="12.9947567"><ele>553.8</ele><time>2026-04-26T09:25:40.268Z</time></trkpt><trkpt lat="43.4610533" lon="12.994895"><ele>557.4</ele><time>2026-04-26T09:25:42.268Z</time></trkpt><trkpt lat="43.4609667" lon="12.9949917"><ele>561.0</ele><time>2026-04-26T09:25:44.268Z</time></trkpt><trkpt lat="43.4608717" lon="12.995035"><ele>561.0</ele><time>2026-04-26T09:25:46.268Z</time></trkpt><trkpt lat="43.46078" lon="12.9949983"><ele>561.0</ele><time>2026-04-26T09:25:48.269Z</time></trkpt><trkpt lat="43.4606783" lon="12.99491"><ele>561.0</ele><time>2026-04-26T09:25:50.268Z</time></trkpt><trkpt lat="43.4605833" lon="12.9948533"><ele>561.0</ele><time>2026-04-26T09:25:52.269Z</time></trkpt><trkpt lat="43.4604917" lon="12.9947983"><ele>561.0</ele><time>2026-04-26T09:25:54.269Z</time></trkpt><trkpt lat="43.4604" lon="12.9947467"><ele>565.4</ele><time>2026-04-26T09:25:56.268Z</time></trkpt><trkpt lat="43.4602983" lon="12.9947083"><ele>569.8</ele><time>2026-04-26T09:25:58.268Z</time></trkpt><trkpt lat="43.4601767" lon="12.99466"><ele>574.1999999999999</ele><time>2026-04-26T09:26:00.268Z</time></trkpt><trkpt lat="43.4600983" lon="12.9946167"><ele>578.6</ele><time>2026-04-26T09:26:01.268Z</time></trkpt><trkpt lat="43.460025" lon="12.9945817"><ele>583.0</ele><time>2026-04-26T09:26:02.268Z</time></trkpt><trkpt lat="43.45995" lon="12.9945433"><ele>583.0</ele><time>2026-04-26T09:26:03.268Z</time></trkpt><trkpt lat="43.459875" lon="12.9945067"><ele>583.0</ele><time>2026-04-26T09:26:04.268Z</time></trkpt><trkpt lat="43.4598117" lon="12.99448"><ele>583.0</ele><time>2026-04-26T09:26:05.268Z</time></trkpt><trkpt lat="43.45969" lon="12.9944417"><ele>583.0</ele><time>2026-04-26T09:26:07.268Z</time></trkpt><trkpt lat="43.45963" lon="12.994415"><ele>583.0</ele><time>2026-04-26T09:26:08.268Z</time></trkpt><trkpt lat="43.4595" lon="12.994365"><ele>587.6</ele><time>2026-04-26T09:26:10.268Z</time></trkpt><trkpt lat="43.4593833" lon="12.9943217"><ele>592.1999999999999</ele><time>2026-04-26T09:26:12.268Z</time></trkpt><trkpt lat="43.459285" lon="12.9943067"><ele>596.8</ele><time>2026-04-26T09:26:14.268Z</time></trkpt><trkpt lat="43.4591767" lon="12.994275"><ele>601.4</ele><time>2026-04-26T09:26:16.268Z</time></trkpt><trkpt lat="43.4590717" lon="12.994215"><ele>606.0</ele><time>2026-04-26T09:26:18.268Z</time></trkpt><trkpt lat="43.458975" lon="12.9941733"><ele>604.6</ele><time>2026-04-26T09:26:20.268Z</time></trkpt><trkpt lat="43.4588663" lon="12.994109"><ele>603.2</ele><time>2026-04-26T09:26:22.268Z</time></trkpt><trkpt lat="43.4587712" lon="12.9940579"><ele>601.8</ele><time>2026-04-26T09:26:24.268Z</time></trkpt><trkpt lat="43.458665" lon="12.9939872"><ele>600.4</ele><time>2026-04-26T09:26:28.402Z</time></trkpt><trkpt lat="43.4585993" lon="12.9939283"><ele>599.0</ele><time>2026-04-26T09:26:29.359Z</time></trkpt><trkpt lat="43.4585243" lon="12.9939275"><ele>599.0</ele><time>2026-04-26T09:26:31.379Z</time></trkpt><trkpt lat="43.4584657" lon="12.9939881"><ele>599.0</ele><time>2026-04-26T09:26:33.27Z</time></trkpt><trkpt lat="43.4583983" lon="12.9940867"><ele>599.0</ele><time>2026-04-26T09:26:36.268Z</time></trkpt><trkpt lat="43.4583567" lon="12.9941817"><ele>599.0</ele><time>2026-04-26T09:26:38.268Z</time></trkpt><trkpt lat="43.4583167" lon="12.9943033"><ele>599.0</ele><time>2026-04-26T09:26:40.269Z</time></trkpt><trkpt lat="43.45825" lon="12.99439"><ele>599.0</ele><time>2026-04-26T09:26:42.268Z</time></trkpt><trkpt lat="43.4581517" lon="12.9944317"><ele>598.6666666666666</ele><time>2026-04-26T09:26:44.268Z</time></trkpt><trkpt lat="43.4580883" lon="12.994445"><ele>598.3333333333333</ele><time>2026-04-26T09:26:45.268Z</time></trkpt><trkpt lat="43.4579967" lon="12.9944767"><ele>598.0</ele><time>2026-04-26T09:26:47.268Z</time></trkpt><trkpt lat="43.4579433" lon="12.994595"><ele>597.6666666666666</ele><time>2026-04-26T09:26:50.268Z</time></trkpt><trkpt lat="43.4579483" lon="12.9947167"><ele>597.3333333333334</ele><time>2026-04-26T09:26:52.269Z</time></trkpt><trkpt lat="43.4579733" lon="12.99485"><ele>597.0</ele><time>2026-04-26T09:26:54.268Z</time></trkpt><trkpt lat="43.4580083" lon="12.9949633"><ele>598.25</ele><time>2026-04-26T09:26:56.268Z</time></trkpt><trkpt lat="43.45803" lon="12.995115"><ele>599.5</ele><time>2026-04-26T09:26:58.268Z</time></trkpt><trkpt lat="43.45799" lon="12.9952483"><ele>600.75</ele><time>2026-04-26T09:27:00.268Z</time></trkpt><trkpt lat="43.4579217" lon="12.995385"><ele>602.0</ele><time>2026-04-26T09:27:02.268Z</time></trkpt><trkpt lat="43.4578483" lon="12.9955233"><ele>602.0</ele><time>2026-04-26T09:27:04.268Z</time></trkpt><trkpt lat="43.4578133" lon="12.9956017"><ele>602.0</ele><time>2026-04-26T09:27:05.269Z</time></trkpt><trkpt lat="43.4577483" lon="12.9957467"><ele>602.0</ele><time>2026-04-26T09:27:07.268Z</time></trkpt><trkpt lat="43.4576933" lon="12.995865"><ele>602.0</ele><time>2026-04-26T09:27:09.268Z</time></trkpt><trkpt lat="43.4576183" lon="12.99592"><ele>602.0</ele><time>2026-04-26T09:27:11.268Z</time></trkpt><trkpt lat="43.4575017" lon="12.9959117"><ele>602.0</ele><time>2026-04-26T09:27:13.268Z</time></trkpt><trkpt lat="43.457435" lon="12.9958917"><ele>602.0</ele><time>2026-04-26T09:27:14.268Z</time></trkpt><trkpt lat="43.457365" lon="12.9958583"><ele>602.0</ele><time>2026-04-26T09:27:15.268Z</time></trkpt><trkpt lat="43.457305" lon="12.9958167"><ele>602.0</ele><time>2026-04-26T09:27:16.268Z</time></trkpt><trkpt lat="43.4572" lon="12.995745"><ele>602.0</ele><time>2026-04-26T09:27:18.268Z</time></trkpt><trkpt lat="43.45711" lon="12.995655"><ele>602.0</ele><time>2026-04-26T09:27:20.268Z</time></trkpt><trkpt lat="43.45703" lon="12.99557"><ele>603.6</ele><time>2026-04-26T09:27:22.268Z</time></trkpt><trkpt lat="43.45695" lon="12.9954833"><ele>605.2</ele><time>2026-04-26T09:27:24.268Z</time></trkpt><trkpt lat="43.456865" lon="12.9953833"><ele>606.8</ele><time>2026-04-26T09:27:26.269Z</time></trkpt><trkpt lat="43.45678" lon="12.9952967"><ele>608.4</ele><time>2026-04-26T09:27:28.268Z</time></trkpt><trkpt lat="43.456685" lon="12.9951967"><ele>610.0</ele><time>2026-04-26T09:27:30.268Z</time></trkpt><trkpt lat="43.4566067" lon="12.9950867"><ele>610.2</ele><time>2026-04-26T09:27:32.268Z</time></trkpt><trkpt lat="43.4565333" lon="12.9949717"><ele>610.4</ele><time>2026-04-26T09:27:34.268Z</time></trkpt><trkpt lat="43.4564767" lon="12.9948767"><ele>610.6</ele><time>2026-04-26T09:27:36.268Z</time></trkpt><trkpt lat="43.4564033" lon="12.9948"><ele>610.8</ele><time>2026-04-26T09:27:38.268Z</time></trkpt><trkpt lat="43.45632" lon="12.9947217"><ele>611.0</ele><time>2026-04-26T09:27:40.268Z</time></trkpt><trkpt lat="43.4562283" lon="12.9946633"><ele>611.0</ele><time>2026-04-26T09:27:42.268Z</time></trkpt><trkpt lat="43.45615" lon="12.994625"><ele>611.0</ele><time>2026-04-26T09:27:44.268Z</time></trkpt><trkpt lat="43.4560733" lon="12.9946167"><ele>611.0</ele><time>2026-04-26T09:27:46.268Z</time></trkpt><trkpt lat="43.455995" lon="12.994595"><ele>611.0</ele><time>2026-04-26T09:27:48.268Z</time></trkpt><trkpt lat="43.4558967" lon="12.9945833"><ele>611.0</ele><time>2026-04-26T09:27:50.268Z</time></trkpt><trkpt lat="43.4558133" lon="12.9945683"><ele>611.0</ele><time>2026-04-26T09:27:52.268Z</time></trkpt><trkpt lat="43.4557267" lon="12.9945567"><ele>611.0</ele><time>2026-04-26T09:27:54.268Z</time></trkpt><trkpt lat="43.45563" lon="12.9945433"><ele>611.0</ele><time>2026-04-26T09:27:56.268Z</time></trkpt><trkpt lat="43.4555533" lon="12.9945417"><ele>611.0</ele><time>2026-04-26T09:27:58.268Z</time></trkpt><trkpt lat="43.455465" lon="12.99453"><ele>611.0</ele><time>2026-04-26T09:28:00.268Z</time></trkpt><trkpt lat="43.4553917" lon="12.9945233"><ele>611.0</ele><time>2026-04-26T09:28:02.268Z</time></trkpt><trkpt lat="43.4552967" lon="12.9945083"><ele>611.0</ele><time>2026-04-26T09:28:04.268Z</time></trkpt><trkpt lat="43.4552233" lon="12.9944917"><ele>609.6</ele><time>2026-04-26T09:28:06.269Z</time></trkpt><trkpt lat="43.4551067" lon="12.9944567"><ele>608.2</ele><time>2026-04-26T09:28:08.268Z</time></trkpt><trkpt lat="43.455015" lon="12.99442"><ele>606.8</ele><time>2026-04-26T09:28:10.268Z</time></trkpt><trkpt lat="43.4549183" lon="12.994365"><ele>605.4</ele><time>2026-04-26T09:28:12.268Z</time></trkpt><trkpt lat="43.4548467" lon="12.99433"><ele>604.0</ele><time>2026-04-26T09:28:13.268Z</time></trkpt><trkpt lat="43.4547867" lon="12.9943"><ele>604.0</ele><time>2026-04-26T09:28:14.268Z</time></trkpt><trkpt lat="43.454725" lon="12.9942617"><ele>604.0</ele><time>2026-04-26T09:28:15.268Z</time></trkpt><trkpt lat="43.4546617" lon="12.9942283"><ele>604.0</ele><time>2026-04-26T09:28:16.268Z</time></trkpt><trkpt lat="43.454565" lon="12.99418"><ele>604.0</ele><time>2026-04-26T09:28:18.268Z</time></trkpt><trkpt lat="43.4544733" lon="12.9941267"><ele>604.0</ele><time>2026-04-26T09:28:20.268Z</time></trkpt><trkpt lat="43.4544067" lon="12.994095"><ele>604.0</ele><time>2026-04-26T09:28:22.268Z</time></trkpt><trkpt lat="43.4542967" lon="12.9939767"><ele>596.5</ele><time>2026-04-26T09:31:18.269Z</time></trkpt><trkpt lat="43.4541953" lon="12.9939419"><ele>589.0</ele><time>2026-04-26T09:31:48.325Z</time></trkpt><trkpt lat="43.4540708" lon="12.9939161"><ele>581.5</ele><time>2026-04-26T09:31:59.381Z</time></trkpt><trkpt lat="43.453939" lon="12.9938484"><ele>574.0</ele><time>2026-04-26T09:32:05.443Z</time></trkpt><trkpt lat="43.4538333" lon="12.9937333"><ele>570.0</ele><time>2026-04-26T09:32:29.268Z</time></trkpt><trkpt lat="43.4537633" lon="12.9936917"><ele>566.0</ele><time>2026-04-26T09:32:54.268Z</time></trkpt><trkpt lat="43.453715" lon="12.9936317"><ele>562.0</ele><time>2026-04-26T09:32:56.268Z</time></trkpt><trkpt lat="43.4536517" lon="12.9935733"><ele>558.0</ele><time>2026-04-26T09:32:58.269Z</time></trkpt><trkpt lat="43.45357" lon="12.9934217"><ele>554.0</ele><time>2026-04-26T09:33:08.268Z</time></trkpt><trkpt lat="43.4535267" lon="12.9933433"><ele>550.0</ele><time>2026-04-26T09:33:10.268Z</time></trkpt><trkpt lat="43.4534883" lon="12.9932683"><ele>549.8</ele><time>2026-04-26T09:33:12.268Z</time></trkpt><trkpt lat="43.4534433" lon="12.9931583"><ele>549.6</ele><time>2026-04-26T09:33:15.268Z</time></trkpt><trkpt lat="43.453405" lon="12.9930617"><ele>549.4</ele><time>2026-04-26T09:33:17.268Z</time></trkpt><trkpt lat="43.4533667" lon="12.992965"><ele>549.2</ele><time>2026-04-26T09:33:19.268Z</time></trkpt><trkpt lat="43.4533233" lon="12.9928567"><ele>549.0</ele><time>2026-04-26T09:33:21.267Z</time></trkpt><trkpt lat="43.45327" lon="12.9926967"><ele>549.0</ele><time>2026-04-26T09:33:23.267Z</time></trkpt><trkpt lat="43.453235" lon="12.9926117"><ele>549.0</ele><time>2026-04-26T09:33:24.267Z</time></trkpt><trkpt lat="43.4531933" lon="12.9925333"><ele>549.0</ele><time>2026-04-26T09:33:25.267Z</time></trkpt><trkpt lat="43.4531533" lon="12.992455"><ele>549.0</ele><time>2026-04-26T09:33:26.267Z</time></trkpt><trkpt lat="43.4531117" lon="12.992385"><ele>549.0</ele><time>2026-04-26T09:33:27.267Z</time></trkpt><trkpt lat="43.4530467" lon="12.9922517"><ele>549.0</ele><time>2026-04-26T09:33:29.267Z</time></trkpt><trkpt lat="43.4530033" lon="12.9921867"><ele>548.5714285714286</ele><time>2026-04-26T09:33:30.267Z</time></trkpt><trkpt lat="43.45296" lon="12.99212"><ele>548.1428571428571</ele><time>2026-04-26T09:33:31.267Z</time></trkpt><trkpt lat="43.4529133" lon="12.9920467"><ele>547.7142857142858</ele><time>2026-04-26T09:33:32.267Z</time></trkpt><trkpt lat="43.45286" lon="12.9919717"><ele>547.2857142857142</ele><time>2026-04-26T09:33:33.268Z</time></trkpt><trkpt lat="43.4528067" lon="12.9919"><ele>546.8571428571429</ele><time>2026-04-26T09:33:34.267Z</time></trkpt><trkpt lat="43.45276" lon="12.991825"><ele>546.4285714285714</ele><time>2026-04-26T09:33:35.267Z</time></trkpt><trkpt lat="43.4527083" lon="12.9917667"><ele>546.0</ele><time>2026-04-26T09:33:36.267Z</time></trkpt><trkpt lat="43.452655" lon="12.9917033"><ele>545.6666666666666</ele><time>2026-04-26T09:33:37.267Z</time></trkpt><trkpt lat="43.45261" lon="12.99163"><ele>545.3333333333334</ele><time>2026-04-26T09:33:38.267Z</time></trkpt><trkpt lat="43.4525567" lon="12.9915583"><ele>545.0</ele><time>2026-04-26T09:33:39.267Z</time></trkpt><trkpt lat="43.4525033" lon="12.9915033"><ele>544.6666666666667</ele><time>2026-04-26T09:33:40.267Z</time></trkpt><trkpt lat="43.4523783" lon="12.9914183"><ele>544.3333333333334</ele><time>2026-04-26T09:33:42.267Z</time></trkpt><trkpt lat="43.4523067" lon="12.991365"><ele>544.0</ele><time>2026-04-26T09:33:43.267Z</time></trkpt><trkpt lat="43.45223" lon="12.9913033"><ele>544.0</ele><time>2026-04-26T09:33:44.267Z</time></trkpt><trkpt lat="43.4521567" lon="12.9912367"><ele>544.0</ele><time>2026-04-26T09:33:45.267Z</time></trkpt><trkpt lat="43.4520833" lon="12.9911767"><ele>544.0</ele><time>2026-04-26T09:33:46.267Z</time></trkpt><trkpt lat="43.451995" lon="12.9911217"><ele>544.0</ele><time>2026-04-26T09:33:47.267Z</time></trkpt><trkpt lat="43.4519117" lon="12.9910733"><ele>544.0</ele><time>2026-04-26T09:33:48.267Z</time></trkpt><trkpt lat="43.4518333" lon="12.991025"><ele>544.0</ele><time>2026-04-26T09:33:49.268Z</time></trkpt><trkpt lat="43.45176" lon="12.9909867"><ele>543.3333333333334</ele><time>2026-04-26T09:33:50.267Z</time></trkpt><trkpt lat="43.4516867" lon="12.9909617"><ele>542.6666666666667</ele><time>2026-04-26T09:33:51.267Z</time></trkpt><trkpt lat="43.45161" lon="12.9909367"><ele>542.0</ele><time>2026-04-26T09:33:52.267Z</time></trkpt><trkpt lat="43.4515317" lon="12.9909217"><ele>541.3333333333334</ele><time>2026-04-26T09:33:53.268Z</time></trkpt><trkpt lat="43.4514567" lon="12.99091"><ele>540.6666666666666</ele><time>2026-04-26T09:33:54.267Z</time></trkpt><trkpt lat="43.4513917" lon="12.9909033"><ele>540.0</ele><time>2026-04-26T09:33:55.267Z</time></trkpt><trkpt lat="43.4513117" lon="12.9908717"><ele>542.1666666666666</ele><time>2026-04-26T09:33:56.268Z</time></trkpt><trkpt lat="43.45124" lon="12.99083"><ele>544.3333333333334</ele><time>2026-04-26T09:33:57.267Z</time></trkpt><trkpt lat="43.4511583" lon="12.99078"><ele>546.5</ele><time>2026-04-26T09:33:58.267Z</time></trkpt><trkpt lat="43.4510933" lon="12.9907267"><ele>548.6666666666667</ele><time>2026-04-26T09:33:59.267Z</time></trkpt><trkpt lat="43.45103" lon="12.9906767"><ele>550.8333333333334</ele><time>2026-04-26T09:34:00.267Z</time></trkpt><trkpt lat="43.4509683" lon="12.99064"><ele>553.0</ele><time>2026-04-26T09:34:01.267Z</time></trkpt><trkpt lat="43.4508567" lon="12.99059"><ele>553.0</ele><time>2026-04-26T09:34:03.267Z</time></trkpt><trkpt lat="43.450755" lon="12.9905133"><ele>553.0</ele><time>2026-04-26T09:34:05.267Z</time></trkpt><trkpt lat="43.4507067" lon="12.9904517"><ele>553.0</ele><time>2026-04-26T09:34:06.267Z</time></trkpt><trkpt lat="43.4506483" lon="12.990365"><ele>553.0</ele><time>2026-04-26T09:34:07.267Z</time></trkpt><trkpt lat="43.45059" lon="12.9902817"><ele>553.0</ele><time>2026-04-26T09:34:08.267Z</time></trkpt><trkpt lat="43.4505183" lon="12.9902017"><ele>553.0</ele><time>2026-04-26T09:34:09.267Z</time></trkpt><trkpt lat="43.4504317" lon="12.9901233"><ele>550.5</ele><time>2026-04-26T09:34:10.267Z</time></trkpt><trkpt lat="43.45033" lon="12.9900367"><ele>548.0</ele><time>2026-04-26T09:34:11.267Z</time></trkpt><trkpt lat="43.45022" lon="12.98995"><ele>545.5</ele><time>2026-04-26T09:34:12.267Z</time></trkpt><trkpt lat="43.4501067" lon="12.9898717"><ele>543.0</ele><time>2026-04-26T09:34:13.268Z</time></trkpt><trkpt lat="43.4499917" lon="12.9898033"><ele>547.1999999999999</ele><time>2026-04-26T09:34:14.267Z</time></trkpt><trkpt lat="43.4498917" lon="12.9897417"><ele>551.4</ele><time>2026-04-26T09:34:15.267Z</time></trkpt><trkpt lat="43.4498133" lon="12.989695"><ele>555.5999999999999</ele><time>2026-04-26T09:34:16.267Z</time></trkpt><trkpt lat="43.4497383" lon="12.9896333"><ele>559.8</ele><time>2026-04-26T09:34:18.267Z</time></trkpt><trkpt lat="43.4496883" lon="12.9896917"><ele>564.0</ele><time>2026-04-26T09:34:58.267Z</time></trkpt><trkpt lat="43.449585" lon="12.9896917"><ele>564.0</ele><time>2026-04-26T09:35:00.268Z</time></trkpt><trkpt lat="43.4495033" lon="12.9896783"><ele>564.0</ele><time>2026-04-26T09:35:02.267Z</time></trkpt><trkpt lat="43.449395" lon="12.9896017"><ele>564.0</ele><time>2026-04-26T09:35:20.267Z</time></trkpt><trkpt lat="43.4493083" lon="12.98952"><ele>564.0</ele><time>2026-04-26T09:35:22.267Z</time></trkpt><trkpt lat="43.44921" lon="12.9894717"><ele>564.0</ele><time>2026-04-26T09:35:24.267Z</time></trkpt><trkpt lat="43.4491167" lon="12.9894583"><ele>564.0</ele><time>2026-04-26T09:35:26.267Z</time></trkpt><trkpt lat="43.4490367" lon="12.98942"><ele>564.0</ele><time>2026-04-26T09:35:28.267Z</time></trkpt><trkpt lat="43.4489483" lon="12.9893567"><ele>564.0</ele><time>2026-04-26T09:35:30.267Z</time></trkpt><trkpt lat="43.4488533" lon="12.98926"><ele>564.0</ele><time>2026-04-26T09:35:32.267Z</time></trkpt><trkpt lat="43.448805" lon="12.9892"><ele>564.0</ele><time>2026-04-26T09:35:33.267Z</time></trkpt><trkpt lat="43.448755" lon="12.98914"><ele>564.0</ele><time>2026-04-26T09:35:34.267Z</time></trkpt><trkpt lat="43.4486517" lon="12.9890417"><ele>568.2</ele><time>2026-04-26T09:35:36.267Z</time></trkpt><trkpt lat="43.4485517" lon="12.9889333"><ele>572.4</ele><time>2026-04-26T09:35:38.267Z</time></trkpt><trkpt lat="43.448465" lon="12.988825"><ele>576.6</ele><time>2026-04-26T09:35:40.267Z</time></trkpt><trkpt lat="43.4483783" lon="12.98871"><ele>580.8</ele><time>2026-04-26T09:35:42.267Z</time></trkpt><trkpt lat="43.44833" lon="12.98864"><ele>585.0</ele><time>2026-04-26T09:35:43.267Z</time></trkpt><trkpt lat="43.4482767" lon="12.98857"><ele>585.0</ele><time>2026-04-26T09:35:44.267Z</time></trkpt><trkpt lat="43.4482233" lon="12.9884967"><ele>585.0</ele><time>2026-04-26T09:35:45.267Z</time></trkpt><trkpt lat="43.4481767" lon="12.98842"><ele>585.0</ele><time>2026-04-26T09:35:46.268Z</time></trkpt><trkpt lat="43.448125" lon="12.988345"><ele>585.0</ele><time>2026-04-26T09:35:47.267Z</time></trkpt><trkpt lat="43.44807" lon="12.9882733"><ele>585.0</ele><time>2026-04-26T09:35:48.267Z</time></trkpt><trkpt lat="43.4480133" lon="12.9882033"><ele>585.0</ele><time>2026-04-26T09:35:49.267Z</time></trkpt><trkpt lat="43.4479617" lon="12.98813"><ele>585.0</ele><time>2026-04-26T09:35:50.267Z</time></trkpt><trkpt lat="43.4479067" lon="12.98806"><ele>586.8571428571429</ele><time>2026-04-26T09:35:51.267Z</time></trkpt><trkpt lat="43.4478517" lon="12.9879817"><ele>588.7142857142857</ele><time>2026-04-26T09:35:52.267Z</time></trkpt><trkpt lat="43.4477967" lon="12.9879067"><ele>590.5714285714286</ele><time>2026-04-26T09:35:53.267Z</time></trkpt><trkpt lat="43.4477417" lon="12.9878383"><ele>592.4285714285714</ele><time>2026-04-26T09:35:54.267Z</time></trkpt><trkpt lat="43.447685" lon="12.9877833"><ele>594.2857142857143</ele><time>2026-04-26T09:35:55.267Z</time></trkpt><trkpt lat="43.4476283" lon="12.9877167"><ele>596.1428571428571</ele><time>2026-04-26T09:35:56.267Z</time></trkpt><trkpt lat="43.44758" lon="12.9876383"><ele>598.0</ele><time>2026-04-26T09:35:57.267Z</time></trkpt><trkpt lat="43.4475317" lon="12.9875617"><ele>600.7142857142857</ele><time>2026-04-26T09:35:58.267Z</time></trkpt><trkpt lat="43.4474783" lon="12.9875"><ele>603.4285714285714</ele><time>2026-04-26T09:35:59.267Z</time></trkpt><trkpt lat="43.4474267" lon="12.9874467"><ele>606.1428571428571</ele><time>2026-04-26T09:36:00.268Z</time></trkpt><trkpt lat="43.44737" lon="12.98739"><ele>608.8571428571429</ele><time>2026-04-26T09:36:01.268Z</time></trkpt><trkpt lat="43.4473183" lon="12.9873317"><ele>611.5714285714286</ele><time>2026-04-26T09:36:02.267Z</time></trkpt><trkpt lat="43.4472617" lon="12.98727"><ele>614.2857142857143</ele><time>2026-04-26T09:36:03.267Z</time></trkpt><trkpt lat="43.4471983" lon="12.9871967"><ele>617.0</ele><time>2026-04-26T09:36:04.267Z</time></trkpt><trkpt lat="43.44715" lon="12.9871317"><ele>615.0</ele><time>2026-04-26T09:36:05.267Z</time></trkpt><trkpt lat="43.4470933" lon="12.98706"><ele>613.0</ele><time>2026-04-26T09:36:06.267Z</time></trkpt><trkpt lat="43.4470367" lon="12.9869867"><ele>611.0</ele><time>2026-04-26T09:36:07.267Z</time></trkpt><trkpt lat="43.4469783" lon="12.9869133"><ele>609.0</ele><time>2026-04-26T09:36:08.268Z</time></trkpt><trkpt lat="43.4469167" lon="12.9868367"><ele>607.0</ele><time>2026-04-26T09:36:09.267Z</time></trkpt><trkpt lat="43.4468617" lon="12.9867633"><ele>605.0</ele><time>2026-04-26T09:36:10.267Z</time></trkpt><trkpt lat="43.4468067" lon="12.986685"><ele>608.6666666666666</ele><time>2026-04-26T09:36:11.267Z</time></trkpt><trkpt lat="43.4467517" lon="12.9866083"><ele>612.3333333333333</ele><time>2026-04-26T09:36:12.268Z</time></trkpt><trkpt lat="43.4466867" lon="12.986525"><ele>616.0</ele><time>2026-04-26T09:36:13.267Z</time></trkpt><trkpt lat="43.4466317" lon="12.9864483"><ele>619.6666666666666</ele><time>2026-04-26T09:36:14.267Z</time></trkpt><trkpt lat="43.4465683" lon="12.98637"><ele>623.3333333333334</ele><time>2026-04-26T09:36:15.267Z</time></trkpt><trkpt lat="43.4464983" lon="12.98629"><ele>627.0</ele><time>2026-04-26T09:36:16.267Z</time></trkpt><trkpt lat="43.4464317" lon="12.9862067"><ele>627.0</ele><time>2026-04-26T09:36:17.267Z</time></trkpt><trkpt lat="43.4463767" lon="12.98613"><ele>627.0</ele><time>2026-04-26T09:36:18.267Z</time></trkpt><trkpt lat="43.44632" lon="12.9860617"><ele>627.0</ele><time>2026-04-26T09:36:19.267Z</time></trkpt><trkpt lat="43.44626" lon="12.985995"><ele>627.0</ele><time>2026-04-26T09:36:20.267Z</time></trkpt><trkpt lat="43.4461983" lon="12.98593"><ele>627.0</ele><time>2026-04-26T09:36:21.267Z</time></trkpt><trkpt lat="43.4461417" lon="12.9858533"><ele>627.0</ele><time>2026-04-26T09:36:22.267Z</time></trkpt><trkpt lat="43.44608" lon="12.9857767"><ele>628.5</ele><time>2026-04-26T09:36:23.267Z</time></trkpt><trkpt lat="43.4460167" lon="12.9856967"><ele>630.0</ele><time>2026-04-26T09:36:24.267Z</time></trkpt><trkpt lat="43.44595" lon="12.9856133"><ele>631.5</ele><time>2026-04-26T09:36:25.267Z</time></trkpt><trkpt lat="43.4458883" lon="12.9855333"><ele>633.0</ele><time>2026-04-26T09:36:26.267Z</time></trkpt><trkpt lat="43.4458317" lon="12.98546"><ele>634.5</ele><time>2026-04-26T09:36:27.267Z</time></trkpt><trkpt lat="43.4457717" lon="12.9853917"><ele>636.0</ele><time>2026-04-26T09:36:28.267Z</time></trkpt><trkpt lat="43.4457167" lon="12.985315"><ele>636.0</ele><time>2026-04-26T09:36:29.268Z</time></trkpt><trkpt lat="43.4456667" lon="12.9852383"><ele>636.0</ele><time>2026-04-26T09:36:30.268Z</time></trkpt><trkpt lat="43.4456217" lon="12.9851567"><ele>636.0</ele><time>2026-04-26T09:36:31.267Z</time></trkpt><trkpt lat="43.4455767" lon="12.9850783"><ele>636.0</ele><time>2026-04-26T09:36:32.268Z</time></trkpt><trkpt lat="43.4455283" lon="12.9850117"><ele>636.0</ele><time>2026-04-26T09:36:33.267Z</time></trkpt><trkpt lat="43.4454717" lon="12.98496"><ele>636.0</ele><time>2026-04-26T09:36:34.267Z</time></trkpt><trkpt lat="43.4454133" lon="12.9849"><ele>636.0</ele><time>2026-04-26T09:36:35.267Z</time></trkpt><trkpt lat="43.44535" lon="12.9848383"><ele>637.8333333333334</ele><time>2026-04-26T09:36:36.267Z</time></trkpt><trkpt lat="43.4452817" lon="12.984765"><ele>639.6666666666666</ele><time>2026-04-26T09:36:37.267Z</time></trkpt><trkpt lat="43.445215" lon="12.9847"><ele>641.5</ele><time>2026-04-26T09:36:38.267Z</time></trkpt><trkpt lat="43.445155" lon="12.98463"><ele>643.3333333333333</ele><time>2026-04-26T09:36:39.268Z</time></trkpt><trkpt lat="43.4451017" lon="12.9845733"><ele>645.1666666666666</ele><time>2026-04-26T09:36:40.267Z</time></trkpt><trkpt lat="43.44505" lon="12.9845217"><ele>647.0</ele><time>2026-04-26T09:36:41.268Z</time></trkpt><trkpt lat="43.444955" lon="12.984415"><ele>647.0</ele><time>2026-04-26T09:36:43.267Z</time></trkpt><trkpt lat="43.4448617" lon="12.984315"><ele>647.0</ele><time>2026-04-26T09:36:45.267Z</time></trkpt><trkpt lat="43.44478" lon="12.9842167"><ele>647.0</ele><time>2026-04-26T09:36:47.267Z</time></trkpt><trkpt lat="43.444715" lon="12.9841217"><ele>647.0</ele><time>2026-04-26T09:36:49.268Z</time></trkpt><trkpt lat="43.444655" lon="12.98402"><ele>647.0</ele><time>2026-04-26T09:36:51.267Z</time></trkpt><trkpt lat="43.4445867" lon="12.9839233"><ele>651.2</ele><time>2026-04-26T09:36:53.267Z</time></trkpt><trkpt lat="43.4444933" lon="12.9838233"><ele>655.4000000000001</ele><time>2026-04-26T09:36:55.267Z</time></trkpt><trkpt lat="43.4444417" lon="12.9837633"><ele>659.5999999999999</ele><time>2026-04-26T09:36:56.267Z</time></trkpt><trkpt lat="43.44439" lon="12.983705"><ele>663.8</ele><time>2026-04-26T09:36:57.268Z</time></trkpt><trkpt lat="43.444315" lon="12.9836033"><ele>668.0</ele><time>2026-04-26T09:36:59.267Z</time></trkpt><trkpt lat="43.444265" lon="12.9834917"><ele>668.0</ele><time>2026-04-26T09:37:01.267Z</time></trkpt><trkpt lat="43.4442115" lon="12.9833879"><ele>668.0</ele><time>2026-04-26T09:37:03.267Z</time></trkpt><trkpt lat="43.4441363" lon="12.9832791"><ele>668.0</ele><time>2026-04-26T09:37:05.267Z</time></trkpt><trkpt lat="43.4440456" lon="12.9831757"><ele>668.0</ele><time>2026-04-26T09:37:07.267Z</time></trkpt><trkpt lat="43.4439437" lon="12.9831142"><ele>668.0</ele><time>2026-04-26T09:37:09.267Z</time></trkpt><trkpt lat="43.4438369" lon="12.983075"><ele>673.0</ele><time>2026-04-26T09:37:11.267Z</time></trkpt><trkpt lat="43.4437316" lon="12.9830671"><ele>678.0</ele><time>2026-04-26T09:37:13.267Z</time></trkpt><trkpt lat="43.4436264" lon="12.9830596"><ele>683.0</ele><time>2026-04-26T09:37:15.267Z</time></trkpt><trkpt lat="43.4435309" lon="12.983032"><ele>688.0</ele><time>2026-04-26T09:37:17.267Z</time></trkpt><trkpt lat="43.4434175" lon="12.9829976"><ele>693.0</ele><time>2026-04-26T09:37:19.267Z</time></trkpt><trkpt lat="43.4433498" lon="12.9829808"><ele>693.0</ele><time>2026-04-26T09:37:20.267Z</time></trkpt><trkpt lat="43.4432833" lon="12.9829626"><ele>693.0</ele><time>2026-04-26T09:37:21.267Z</time></trkpt><trkpt lat="43.4432194" lon="12.9829466"><ele>693.0</ele><time>2026-04-26T09:37:22.267Z</time></trkpt><trkpt lat="43.443106" lon="12.9829"><ele>693.0</ele><time>2026-04-26T09:37:24.267Z</time></trkpt><trkpt lat="43.4430476" lon="12.9828613"><ele>693.0</ele><time>2026-04-26T09:37:25.267Z</time></trkpt><trkpt lat="43.442988" lon="12.9828252"><ele>693.0</ele><time>2026-04-26T09:37:26.267Z</time></trkpt><trkpt lat="43.442929" lon="12.982791"><ele>693.0</ele><time>2026-04-26T09:37:27.267Z</time></trkpt><trkpt lat="43.4428112" lon="12.9827301"><ele>696.2857142857143</ele><time>2026-04-26T09:37:29.267Z</time></trkpt><trkpt lat="43.4427484" lon="12.9826925"><ele>699.5714285714286</ele><time>2026-04-26T09:37:30.267Z</time></trkpt><trkpt lat="43.4426873" lon="12.9826465"><ele>702.8571428571429</ele><time>2026-04-26T09:37:31.267Z</time></trkpt><trkpt lat="43.4426193" lon="12.982598"><ele>706.1428571428571</ele><time>2026-04-26T09:37:32.267Z</time></trkpt><trkpt lat="43.4425525" lon="12.9825555"><ele>709.4285714285714</ele><time>2026-04-26T09:37:33.267Z</time></trkpt><trkpt lat="43.4424883" lon="12.98252"><ele>712.7142857142858</ele><time>2026-04-26T09:37:34.267Z</time></trkpt><trkpt lat="43.4424283" lon="12.9824817"><ele>716.0</ele><time>2026-04-26T09:37:35.267Z</time></trkpt><trkpt lat="43.442325" lon="12.9824033"><ele>716.0</ele><time>2026-04-26T09:37:37.267Z</time></trkpt><trkpt lat="43.44224" lon="12.9823583"><ele>716.0</ele><time>2026-04-26T09:37:39.267Z</time></trkpt><trkpt lat="43.4421617" lon="12.9823817"><ele>716.0</ele><time>2026-04-26T09:37:41.268Z</time></trkpt><trkpt lat="43.442065" lon="12.9824417"><ele>716.0</ele><time>2026-04-26T09:37:43.267Z</time></trkpt><trkpt lat="43.4419767" lon="12.9824783"><ele>716.0</ele><time>2026-04-26T09:37:45.267Z</time></trkpt><trkpt lat="43.4418917" lon="12.9825367"><ele>719.6666666666666</ele><time>2026-04-26T09:37:48.267Z</time></trkpt><trkpt lat="43.4418067" lon="12.9825417"><ele>723.3333333333333</ele><time>2026-04-26T09:37:59.268Z</time></trkpt><trkpt lat="43.4417267" lon="12.98243"><ele>727.0</ele><time>2026-04-26T09:38:57.267Z</time></trkpt><trkpt lat="43.441665" lon="12.982405"><ele>730.6666666666666</ele><time>2026-04-26T09:38:59.267Z</time></trkpt><trkpt lat="43.4416067" lon="12.9822783"><ele>734.3333333333334</ele><time>2026-04-26T09:48:49.266Z</time></trkpt><trkpt lat="43.4415733" lon="12.9821883"><ele>738.0</ele><time>2026-04-26T09:48:50.266Z</time></trkpt><trkpt lat="43.44154" lon="12.982105"><ele>738.0</ele><time>2026-04-26T09:48:51.266Z</time></trkpt><trkpt lat="43.4415083" lon="12.9820283"><ele>738.0</ele><time>2026-04-26T09:48:52.266Z</time></trkpt><trkpt lat="43.441465" lon="12.9819417"><ele>738.0</ele><time>2026-04-26T09:48:53.266Z</time></trkpt><trkpt lat="43.4414033" lon="12.9818417"><ele>738.0</ele><time>2026-04-26T09:48:54.266Z</time></trkpt><trkpt lat="43.44134" lon="12.981735"><ele>738.0</ele><time>2026-04-26T09:48:55.266Z</time></trkpt><trkpt lat="43.4412783" lon="12.9816267"><ele>738.0</ele><time>2026-04-26T09:48:56.266Z</time></trkpt><trkpt lat="43.44122" lon="12.98153"><ele>741.5999999999999</ele><time>2026-04-26T09:48:57.266Z</time></trkpt><trkpt lat="43.441165" lon="12.9814417"><ele>745.1999999999999</ele><time>2026-04-26T09:48:58.266Z</time></trkpt><trkpt lat="43.44111" lon="12.9813483"><ele>748.8</ele><time>2026-04-26T09:48:59.266Z</time></trkpt><trkpt lat="43.4410433" lon="12.9812483"><ele>752.4</ele><time>2026-04-26T09:49:00.266Z</time></trkpt><trkpt lat="43.44097" lon="12.98114"><ele>756.0</ele><time>2026-04-26T09:49:01.266Z</time></trkpt><trkpt lat="43.4408933" lon="12.9810267"><ele>756.0</ele><time>2026-04-26T09:49:02.266Z</time></trkpt><trkpt lat="43.4408017" lon="12.9809167"><ele>756.0</ele><time>2026-04-26T09:49:03.266Z</time></trkpt><trkpt lat="43.4407167" lon="12.9808083"><ele>756.0</ele><time>2026-04-26T09:49:04.266Z</time></trkpt><trkpt lat="43.440625" lon="12.9806933"><ele>756.0</ele><time>2026-04-26T09:49:05.266Z</time></trkpt><trkpt lat="43.4405317" lon="12.9805683"><ele>758.75</ele><time>2026-04-26T09:49:06.266Z</time></trkpt><trkpt lat="43.4404367" lon="12.9804433"><ele>761.5</ele><time>2026-04-26T09:49:07.266Z</time></trkpt><trkpt lat="43.4403517" lon="12.9803333"><ele>764.25</ele><time>2026-04-26T09:49:08.266Z</time></trkpt><trkpt lat="43.44026" lon="12.98022"><ele>767.0</ele><time>2026-04-26T09:49:09.266Z</time></trkpt><trkpt lat="43.4401683" lon="12.9801183"><ele>767.0</ele><time>2026-04-26T09:49:10.266Z</time></trkpt><trkpt lat="43.4400783" lon="12.9800217"><ele>767.0</ele><time>2026-04-26T09:49:11.266Z</time></trkpt><trkpt lat="43.4399767" lon="12.979945"><ele>767.0</ele><time>2026-04-26T09:49:12.266Z</time></trkpt><trkpt lat="43.4398683" lon="12.9798883"><ele>767.0</ele><time>2026-04-26T09:49:13.266Z</time></trkpt><trkpt lat="43.4397633" lon="12.979845"><ele>765.8</ele><time>2026-04-26T09:49:14.266Z</time></trkpt><trkpt lat="43.4396633" lon="12.9798133"><ele>764.6</ele><time>2026-04-26T09:49:15.266Z</time></trkpt><trkpt lat="43.4395633" lon="12.979785"><ele>763.4</ele><time>2026-04-26T09:49:16.266Z</time></trkpt><trkpt lat="43.4394683" lon="12.9797583"><ele>762.1999999999999</ele><time>2026-04-26T09:49:17.266Z</time></trkpt><trkpt lat="43.4393867" lon="12.979735"><ele>761.0</ele><time>2026-04-26T09:49:18.266Z</time></trkpt><trkpt lat="43.43931" lon="12.9797233"><ele>763.5999999999999</ele><time>2026-04-26T09:49:19.266Z</time></trkpt><trkpt lat="43.4392117" lon="12.9797283"><ele>766.2</ele><time>2026-04-26T09:49:21.266Z</time></trkpt><trkpt lat="43.439125" lon="12.9797017"><ele>768.8</ele><time>2026-04-26T09:49:24.266Z</time></trkpt><trkpt lat="43.4390583" lon="12.979575"><ele>771.4000000000001</ele><time>2026-04-26T09:49:26.267Z</time></trkpt><trkpt lat="43.438985" lon="12.9794417"><ele>774.0</ele><time>2026-04-26T09:49:28.266Z</time></trkpt><trkpt lat="43.4389417" lon="12.979375"><ele>774.0</ele><time>2026-04-26T09:49:29.267Z</time></trkpt><trkpt lat="43.4389017" lon="12.9793017"><ele>774.0</ele><time>2026-04-26T09:49:30.266Z</time></trkpt><trkpt lat="43.438855" lon="12.9792267"><ele>774.0</ele><time>2026-04-26T09:49:31.266Z</time></trkpt><trkpt lat="43.438815" lon="12.9791583"><ele>774.0</ele><time>2026-04-26T09:49:32.265Z</time></trkpt><trkpt lat="43.4387417" lon="12.9790367"><ele>774.0</ele><time>2026-04-26T09:49:34.265Z</time></trkpt><trkpt lat="43.4386833" lon="12.9789333"><ele>774.0</ele><time>2026-04-26T09:49:36.265Z</time></trkpt><trkpt lat="43.4386233" lon="12.97884"><ele>773.1666666666666</ele><time>2026-04-26T09:49:38.265Z</time></trkpt><trkpt lat="43.4385367" lon="12.97874"><ele>772.3333333333333</ele><time>2026-04-26T09:49:40.264Z</time></trkpt><trkpt lat="43.4384883" lon="12.9786833"><ele>771.5</ele><time>2026-04-26T09:49:41.265Z</time></trkpt><trkpt lat="43.4384333" lon="12.978635"><ele>770.6666666666666</ele><time>2026-04-26T09:49:42.265Z</time></trkpt><trkpt lat="43.4383667" lon="12.9785817"><ele>769.8333333333333</ele><time>2026-04-26T09:49:43.265Z</time></trkpt><trkpt lat="43.4382983" lon="12.9785283"><ele>769.0</ele><time>2026-04-26T09:49:44.265Z</time></trkpt><trkpt lat="43.4382283" lon="12.9784767"><ele>768.9999999999999</ele><time>2026-04-26T09:49:45.265Z</time></trkpt><trkpt lat="43.43817" lon="12.97841"><ele>769.0</ele><time>2026-04-26T09:49:46.265Z</time></trkpt><trkpt lat="43.4381067" lon="12.9783483"><ele>769.0</ele><time>2026-04-26T09:49:47.265Z</time></trkpt><trkpt lat="43.43803" lon="12.9782917"><ele>769.0</ele><time>2026-04-26T09:49:48.265Z</time></trkpt><trkpt lat="43.43796" lon="12.9782417"><ele>768.9999999999999</ele><time>2026-04-26T09:49:49.265Z</time></trkpt><trkpt lat="43.4378867" lon="12.9781917"><ele>769.0</ele><time>2026-04-26T09:49:50.265Z</time></trkpt><trkpt lat="43.4378167" lon="12.9781383"><ele>767.6666666666666</ele><time>2026-04-26T09:49:51.265Z</time></trkpt><trkpt lat="43.437745" lon="12.9780833"><ele>766.3333333333333</ele><time>2026-04-26T09:49:52.265Z</time></trkpt><trkpt lat="43.4376855" lon="12.9780431"><ele>765.0</ele><time>2026-04-26T09:49:53.265Z</time></trkpt><trkpt lat="43.4376206" lon="12.9780009"><ele>763.6666666666666</ele><time>2026-04-26T09:49:54.265Z</time></trkpt><trkpt lat="43.4375571" lon="12.9779651"><ele>762.3333333333333</ele><time>2026-04-26T09:49:55.265Z</time></trkpt><trkpt lat="43.4374947" lon="12.9779344"><ele>761.0</ele><time>2026-04-26T09:49:56.265Z</time></trkpt><trkpt lat="43.4373946" lon="12.9778796"><ele>761.0</ele><time>2026-04-26T09:49:58.265Z</time></trkpt><trkpt lat="43.4372974" lon="12.9778223"><ele>761.0</ele><time>2026-04-26T09:50:00.265Z</time></trkpt><trkpt lat="43.4372004" lon="12.9777797"><ele>761.0</ele><time>2026-04-26T09:50:02.265Z</time></trkpt><trkpt lat="43.4371119" lon="12.9777323"><ele>761.0</ele><time>2026-04-26T09:50:04.265Z</time></trkpt><trkpt lat="43.4370309" lon="12.9777062"><ele>761.0</ele><time>2026-04-26T09:50:06.265Z</time></trkpt><trkpt lat="43.4369611" lon="12.977697"><ele>760.6666666666666</ele><time>2026-04-26T09:50:08.265Z</time></trkpt><trkpt lat="43.4368595" lon="12.9776699"><ele>760.3333333333333</ele><time>2026-04-26T09:50:10.265Z</time></trkpt><trkpt lat="43.4367947" lon="12.977647"><ele>760.0</ele><time>2026-04-26T09:50:11.265Z</time></trkpt><trkpt lat="43.4367228" lon="12.977612"><ele>759.6666666666666</ele><time>2026-04-26T09:50:12.265Z</time></trkpt><trkpt lat="43.4366602" lon="12.9775627"><ele>759.3333333333334</ele><time>2026-04-26T09:50:13.265Z</time></trkpt><trkpt lat="43.4366042" lon="12.9775077"><ele>759.0</ele><time>2026-04-26T09:50:14.265Z</time></trkpt><trkpt lat="43.4365502" lon="12.9774559"><ele>756.0</ele><time>2026-04-26T09:50:15.265Z</time></trkpt><trkpt lat="43.4364497" lon="12.9773926"><ele>753.0</ele><time>2026-04-26T09:50:17.265Z</time></trkpt><trkpt lat="43.4363485" lon="12.977358"><ele>750.0</ele><time>2026-04-26T09:50:19.265Z</time></trkpt><trkpt lat="43.4362559" lon="12.9773151"><ele>747.0</ele><time>2026-04-26T09:50:21.265Z</time></trkpt><trkpt lat="43.4361533" lon="12.9772817"><ele>744.0</ele><time>2026-04-26T09:50:23.266Z</time></trkpt><trkpt lat="43.4360417" lon="12.97725"><ele>741.1666666666666</ele><time>2026-04-26T09:50:25.265Z</time></trkpt><trkpt lat="43.4359567" lon="12.9772367"><ele>738.3333333333334</ele><time>2026-04-26T09:50:27.265Z</time></trkpt><trkpt lat="43.4358833" lon="12.9772133"><ele>735.5</ele><time>2026-04-26T09:50:29.265Z</time></trkpt><trkpt lat="43.4357983" lon="12.9771917"><ele>732.6666666666667</ele><time>2026-04-26T09:50:31.265Z</time></trkpt><trkpt lat="43.4357117" lon="12.9771733"><ele>729.8333333333334</ele><time>2026-04-26T09:50:33.266Z</time></trkpt><trkpt lat="43.4356233" lon="12.9771567"><ele>727.0</ele><time>2026-04-26T09:50:35.265Z</time></trkpt><trkpt lat="43.4355267" lon="12.9771367"><ele>723.5</ele><time>2026-04-26T09:50:37.265Z</time></trkpt><trkpt lat="43.4354517" lon="12.9771217"><ele>720.0</ele><time>2026-04-26T09:50:39.266Z</time></trkpt><trkpt lat="43.43538" lon="12.97711"><ele>716.5</ele><time>2026-04-26T09:50:41.266Z</time></trkpt><trkpt lat="43.4353133" lon="12.977085"><ele>713.0</ele><time>2026-04-26T09:50:43.266Z</time></trkpt><trkpt lat="43.4352083" lon="12.9770567"><ele>709.5</ele><time>2026-04-26T09:50:45.266Z</time></trkpt><trkpt lat="43.4351267" lon="12.9770283"><ele>706.0</ele><time>2026-04-26T09:50:47.265Z</time></trkpt><trkpt lat="43.4350267" lon="12.9770217"><ele>706.0</ele><time>2026-04-26T09:50:49.265Z</time></trkpt><trkpt lat="43.4349133" lon="12.9770433"><ele>706.0</ele><time>2026-04-26T09:50:51.265Z</time></trkpt><trkpt lat="43.43479" lon="12.977095"><ele>706.0</ele><time>2026-04-26T09:50:53.265Z</time></trkpt><trkpt lat="43.4347233" lon="12.97712"><ele>706.0</ele><time>2026-04-26T09:50:54.265Z</time></trkpt><trkpt lat="43.4346567" lon="12.9771383"><ele>706.0</ele><time>2026-04-26T09:50:55.265Z</time></trkpt><trkpt lat="43.434585" lon="12.9771533"><ele>703.8333333333334</ele><time>2026-04-26T09:50:56.265Z</time></trkpt><trkpt lat="43.4345033" lon="12.9771717"><ele>701.6666666666667</ele><time>2026-04-26T09:50:57.265Z</time></trkpt><trkpt lat="43.434425" lon="12.9771833"><ele>699.5</ele><time>2026-04-26T09:50:58.265Z</time></trkpt><trkpt lat="43.4343417" lon="12.97719"><ele>697.3333333333334</ele><time>2026-04-26T09:50:59.266Z</time></trkpt><trkpt lat="43.4342617" lon="12.9771933"><ele>695.1666666666666</ele><time>2026-04-26T09:51:00.265Z</time></trkpt><trkpt lat="43.4341883" lon="12.9772017"><ele>693.0</ele><time>2026-04-26T09:51:01.265Z</time></trkpt><trkpt lat="43.43412" lon="12.9772283"><ele>693.0</ele><time>2026-04-26T09:51:02.265Z</time></trkpt><trkpt lat="43.4340467" lon="12.9772767"><ele>693.0</ele><time>2026-04-26T09:51:03.266Z</time></trkpt><trkpt lat="43.4339683" lon="12.977345"><ele>693.0</ele><time>2026-04-26T09:51:04.265Z</time></trkpt><trkpt lat="43.4338833" lon="12.9774233"><ele>693.0</ele><time>2026-04-26T09:51:05.265Z</time></trkpt><trkpt lat="43.4338" lon="12.9774883"><ele>693.0</ele><time>2026-04-26T09:51:06.265Z</time></trkpt><trkpt lat="43.43372" lon="12.9775467"><ele>690.4</ele><time>2026-04-26T09:51:07.265Z</time></trkpt><trkpt lat="43.4336417" lon="12.9775967"><ele>687.8</ele><time>2026-04-26T09:51:08.265Z</time></trkpt><trkpt lat="43.4335667" lon="12.9776267"><ele>685.2</ele><time>2026-04-26T09:51:09.265Z</time></trkpt><trkpt lat="43.4334533" lon="12.9776367"><ele>682.6</ele><time>2026-04-26T09:51:11.265Z</time></trkpt><trkpt lat="43.43335" lon="12.9776117"><ele>680.0</ele><time>2026-04-26T09:51:13.265Z</time></trkpt><trkpt lat="43.4332733" lon="12.9775617"><ele>679.5</ele><time>2026-04-26T09:51:15.265Z</time></trkpt><trkpt lat="43.4331967" lon="12.9775017"><ele>679.0</ele><time>2026-04-26T09:51:17.265Z</time></trkpt><trkpt lat="43.4331067" lon="12.9774367"><ele>678.5</ele><time>2026-04-26T09:51:19.265Z</time></trkpt><trkpt lat="43.43301" lon="12.977375"><ele>678.0</ele><time>2026-04-26T09:51:21.265Z</time></trkpt><trkpt lat="43.4329367" lon="12.9773317"><ele>677.5</ele><time>2026-04-26T09:51:23.265Z</time></trkpt><trkpt lat="43.43288" lon="12.9772817"><ele>677.0</ele><time>2026-04-26T09:51:25.265Z</time></trkpt><trkpt lat="43.43285" lon="12.9771917"><ele>677.0</ele><time>2026-04-26T09:51:27.265Z</time></trkpt><trkpt lat="43.4328133" lon="12.9771017"><ele>677.0</ele><time>2026-04-26T09:51:29.265Z</time></trkpt><trkpt lat="43.43276" lon="12.9770167"><ele>677.0</ele><time>2026-04-26T09:51:31.265Z</time></trkpt><trkpt lat="43.4326933" lon="12.9769517"><ele>677.0</ele><time>2026-04-26T09:51:33.265Z</time></trkpt><trkpt lat="43.4326117" lon="12.9769083"><ele>677.0</ele><time>2026-04-26T09:51:35.265Z</time></trkpt><trkpt lat="43.4325417" lon="12.9768633"><ele>677.0</ele><time>2026-04-26T09:51:37.265Z</time></trkpt><trkpt lat="43.4324633" lon="12.9768183"><ele>677.0</ele><time>2026-04-26T09:51:39.265Z</time></trkpt><trkpt lat="43.4323917" lon="12.976785"><ele>677.0</ele><time>2026-04-26T09:51:41.265Z</time></trkpt><trkpt lat="43.4323067" lon="12.976735"><ele>677.0</ele><time>2026-04-26T09:51:43.265Z</time></trkpt><trkpt lat="43.4322233" lon="12.9766767"><ele>677.0</ele><time>2026-04-26T09:51:45.265Z</time></trkpt><trkpt lat="43.432145" lon="12.9766067"><ele>677.0</ele><time>2026-04-26T09:51:47.265Z</time></trkpt><trkpt lat="43.4320817" lon="12.9765617"><ele>677.0</ele><time>2026-04-26T09:51:49.265Z</time></trkpt><trkpt lat="43.4320033" lon="12.9765333"><ele>673.6666666666666</ele><time>2026-04-26T09:51:51.265Z</time></trkpt><trkpt lat="43.43194" lon="12.9765033"><ele>670.3333333333333</ele><time>2026-04-26T09:51:53.265Z</time></trkpt><trkpt lat="43.43188" lon="12.9764467"><ele>667.0</ele><time>2026-04-26T09:51:55.265Z</time></trkpt><trkpt lat="43.431825" lon="12.9763833"><ele>663.6666666666666</ele><time>2026-04-26T09:51:57.265Z</time></trkpt><trkpt lat="43.4317767" lon="12.9763217"><ele>660.3333333333334</ele><time>2026-04-26T09:51:59.265Z</time></trkpt><trkpt lat="43.4317183" lon="12.9762217"><ele>657.0</ele><time>2026-04-26T09:52:02.265Z</time></trkpt><trkpt lat="43.4316583" lon="12.9761233"><ele>657.0</ele><time>2026-04-26T09:52:05.265Z</time></trkpt><trkpt lat="43.4316083" lon="12.9760683"><ele>657.0</ele><time>2026-04-26T09:52:07.265Z</time></trkpt><trkpt lat="43.431555" lon="12.9760217"><ele>657.0</ele><time>2026-04-26T09:52:09.265Z</time></trkpt><trkpt lat="43.43148" lon="12.976005"><ele>657.0</ele><time>2026-04-26T09:52:11.266Z</time></trkpt><trkpt lat="43.4313833" lon="12.9760033"><ele>657.0</ele><time>2026-04-26T09:52:13.265Z</time></trkpt><trkpt lat="43.431275" lon="12.9759883"><ele>657.0</ele><time>2026-04-26T09:52:15.265Z</time></trkpt><trkpt lat="43.4311683" lon="12.9759817"><ele>654.4000000000001</ele><time>2026-04-26T09:52:17.266Z</time></trkpt><trkpt lat="43.4310617" lon="12.9759717"><ele>651.8000000000001</ele><time>2026-04-26T09:52:19.265Z</time></trkpt><trkpt lat="43.4309717" lon="12.9759583"><ele>649.2</ele><time>2026-04-26T09:52:21.265Z</time></trkpt><trkpt lat="43.4308833" lon="12.9759467"><ele>646.6</ele><time>2026-04-26T09:52:23.265Z</time></trkpt><trkpt lat="43.430785" lon="12.97594"><ele>644.0</ele><time>2026-04-26T09:52:25.265Z</time></trkpt><trkpt lat="43.4307067" lon="12.97597"><ele>644.0</ele><time>2026-04-26T09:52:27.265Z</time></trkpt><trkpt lat="43.43062" lon="12.975935"><ele>644.0</ele><time>2026-04-26T09:52:30.265Z</time></trkpt><trkpt lat="43.4305333" lon="12.9759067"><ele>644.0</ele><time>2026-04-26T09:52:32.265Z</time></trkpt><trkpt lat="43.4304567" lon="12.9758617"><ele>644.0</ele><time>2026-04-26T09:52:34.265Z</time></trkpt><trkpt lat="43.430385" lon="12.9758267"><ele>644.0</ele><time>2026-04-26T09:52:36.265Z</time></trkpt><trkpt lat="43.430315" lon="12.9757583"><ele>644.0</ele><time>2026-04-26T09:52:38.265Z</time></trkpt><trkpt lat="43.4302333" lon="12.9756683"><ele>643.5</ele><time>2026-04-26T09:52:40.265Z</time></trkpt><trkpt lat="43.4301367" lon="12.9755617"><ele>643.0</ele><time>2026-04-26T09:52:42.265Z</time></trkpt><trkpt lat="43.430045" lon="12.97546"><ele>642.5</ele><time>2026-04-26T09:52:44.265Z</time></trkpt><trkpt lat="43.4299583" lon="12.9753783"><ele>642.0</ele><time>2026-04-26T09:52:46.265Z</time></trkpt><trkpt lat="43.4298717" lon="12.9752967"><ele>642.0</ele><time>2026-04-26T09:52:48.265Z</time></trkpt><trkpt lat="43.42978" lon="12.9752467"><ele>642.0</ele><time>2026-04-26T09:52:50.265Z</time></trkpt><trkpt lat="43.42968" lon="12.975205"><ele>642.0</ele><time>2026-04-26T09:52:52.265Z</time></trkpt><trkpt lat="43.429605" lon="12.97515"><ele>642.0</ele><time>2026-04-26T09:52:54.265Z</time></trkpt><trkpt lat="43.42953" lon="12.9750933"><ele>642.0</ele><time>2026-04-26T09:52:56.265Z</time></trkpt><trkpt lat="43.4294533" lon="12.9750283"><ele>641.0</ele><time>2026-04-26T09:52:58.265Z</time></trkpt><trkpt lat="43.4293683" lon="12.9749683"><ele>640.0</ele><time>2026-04-26T09:53:00.265Z</time></trkpt><trkpt lat="43.4292933" lon="12.9748967"><ele>639.0</ele><time>2026-04-26T09:53:02.266Z</time></trkpt><trkpt lat="43.42924" lon="12.9747867"><ele>638.0</ele><time>2026-04-26T09:53:04.265Z</time></trkpt><trkpt lat="43.429195" lon="12.9746567"><ele>637.0</ele><time>2026-04-26T09:53:06.265Z</time></trkpt><trkpt lat="43.429145" lon="12.9745"><ele>637.0</ele><time>2026-04-26T09:53:08.265Z</time></trkpt><trkpt lat="43.4291217" lon="12.9744133"><ele>637.0</ele><time>2026-04-26T09:53:09.265Z</time></trkpt><trkpt lat="43.429105" lon="12.974325"><ele>637.0</ele><time>2026-04-26T09:53:10.265Z</time></trkpt><trkpt lat="43.4290883" lon="12.9742383"><ele>637.0</ele><time>2026-04-26T09:53:11.265Z</time></trkpt><trkpt lat="43.4290833" lon="12.974135"><ele>637.0</ele><time>2026-04-26T09:53:12.265Z</time></trkpt><trkpt lat="43.4290833" lon="12.9740417"><ele>637.0</ele><time>2026-04-26T09:53:13.265Z</time></trkpt><trkpt lat="43.429085" lon="12.9739533"><ele>637.0</ele><time>2026-04-26T09:53:14.265Z</time></trkpt><trkpt lat="43.4290867" lon="12.9738617"><ele>634.1666666666667</ele><time>2026-04-26T09:53:15.265Z</time></trkpt><trkpt lat="43.42908" lon="12.973755"><ele>631.3333333333334</ele><time>2026-04-26T09:53:16.265Z</time></trkpt><trkpt lat="43.4290633" lon="12.9736317"><ele>628.5</ele><time>2026-04-26T09:53:17.265Z</time></trkpt><trkpt lat="43.4290483" lon="12.97351"><ele>625.6666666666666</ele><time>2026-04-26T09:53:18.266Z</time></trkpt><trkpt lat="43.429015" lon="12.9733867"><ele>622.8333333333333</ele><time>2026-04-26T09:53:19.265Z</time></trkpt><trkpt lat="43.4289833" lon="12.9732683"><ele>620.0</ele><time>2026-04-26T09:53:20.265Z</time></trkpt><trkpt lat="43.42895" lon="12.973175"><ele>618.0</ele><time>2026-04-26T09:53:21.265Z</time></trkpt><trkpt lat="43.4289183" lon="12.973075"><ele>616.0</ele><time>2026-04-26T09:53:22.265Z</time></trkpt><trkpt lat="43.4288933" lon="12.9729783"><ele>614.0</ele><time>2026-04-26T09:53:23.265Z</time></trkpt><trkpt lat="43.4288633" lon="12.9728717"><ele>612.0</ele><time>2026-04-26T09:53:24.265Z</time></trkpt><trkpt lat="43.4288367" lon="12.9727533"><ele>610.0</ele><time>2026-04-26T09:53:25.266Z</time></trkpt><trkpt lat="43.4288067" lon="12.972645"><ele>608.0</ele><time>2026-04-26T09:53:26.265Z</time></trkpt><trkpt lat="43.4287817" lon="12.97254"><ele>618.0</ele><time>2026-04-26T09:53:27.265Z</time></trkpt><trkpt lat="43.42875" lon="12.972465"><ele>628.0</ele><time>2026-04-26T09:53:28.265Z</time></trkpt><trkpt lat="43.4286717" lon="12.9723533"><ele>638.0</ele><time>2026-04-26T09:53:30.265Z</time></trkpt><trkpt lat="43.4285933" lon="12.9722233"><ele>648.0</ele><time>2026-04-26T09:53:32.265Z</time></trkpt><trkpt lat="43.4285617" lon="12.972085"><ele>658.0</ele><time>2026-04-26T09:53:34.265Z</time></trkpt><trkpt lat="43.4285167" lon="12.9719617"><ele>658.0</ele><time>2026-04-26T09:53:36.265Z</time></trkpt><trkpt lat="43.4284367" lon="12.9718767"><ele>658.0</ele><time>2026-04-26T09:53:38.265Z</time></trkpt><trkpt lat="43.428335" lon="12.97173"><ele>658.0</ele><time>2026-04-26T09:53:40.266Z</time></trkpt><trkpt lat="43.428235" lon="12.971615"><ele>658.0</ele><time>2026-04-26T09:53:42.266Z</time></trkpt><trkpt lat="43.4281517" lon="12.9715017"><ele>661.25</ele><time>2026-04-26T09:53:44.265Z</time></trkpt><trkpt lat="43.4280867" lon="12.971395"><ele>664.5</ele><time>2026-04-26T09:53:46.265Z</time></trkpt><trkpt lat="43.4280167" lon="12.9712567"><ele>667.75</ele><time>2026-04-26T09:53:48.265Z</time></trkpt><trkpt lat="43.4279633" lon="12.971105"><ele>671.0</ele><time>2026-04-26T09:53:50.265Z</time></trkpt><trkpt lat="43.4278917" lon="12.9709683"><ele>665.5999999999999</ele><time>2026-04-26T09:53:52.265Z</time></trkpt><trkpt lat="43.4278367" lon="12.97083"><ele>660.2</ele><time>2026-04-26T09:53:54.265Z</time></trkpt><trkpt lat="43.4277817" lon="12.9707233"><ele>654.8</ele><time>2026-04-26T09:53:55.265Z</time></trkpt><trkpt lat="43.4277417" lon="12.97063"><ele>649.4000000000001</ele><time>2026-04-26T09:53:56.265Z</time></trkpt><trkpt lat="43.4276967" lon="12.9705283"><ele>644.0</ele><time>2026-04-26T09:53:57.265Z</time></trkpt><trkpt lat="43.427665" lon="12.9704183"><ele>644.0</ele><time>2026-04-26T09:53:58.265Z</time></trkpt><trkpt lat="43.4276333" lon="12.9703167"><ele>644.0</ele><time>2026-04-26T09:53:59.265Z</time></trkpt><trkpt lat="43.4275783" lon="12.9701767"><ele>644.0</ele><time>2026-04-26T09:54:01.265Z</time></trkpt><trkpt lat="43.427525" lon="12.9700467"><ele>644.0</ele><time>2026-04-26T09:54:03.265Z</time></trkpt><trkpt lat="43.427475" lon="12.9699283"><ele>644.0</ele><time>2026-04-26T09:54:05.265Z</time></trkpt><trkpt lat="43.427435" lon="12.969805"><ele>639.1666666666666</ele><time>2026-04-26T09:54:07.265Z</time></trkpt><trkpt lat="43.4273933" lon="12.96967"><ele>634.3333333333333</ele><time>2026-04-26T09:54:09.265Z</time></trkpt><trkpt lat="43.4273667" lon="12.9695633"><ele>629.5</ele><time>2026-04-26T09:54:11.266Z</time></trkpt><trkpt lat="43.4273509" lon="12.9694748"><ele>624.6666666666666</ele><time>2026-04-26T09:54:13.265Z</time></trkpt><trkpt lat="43.4273246" lon="12.9693893"><ele>619.8333333333334</ele><time>2026-04-26T09:54:16.265Z</time></trkpt><trkpt lat="43.4273098" lon="12.9692733"><ele>615.0</ele><time>2026-04-26T09:54:20.327Z</time></trkpt><trkpt lat="43.4272844" lon="12.9691782"><ele>612.5</ele><time>2026-04-26T09:54:22.344Z</time></trkpt><trkpt lat="43.4272652" lon="12.9690802"><ele>610.0</ele><time>2026-04-26T09:54:24.265Z</time></trkpt><trkpt lat="43.4272133" lon="12.9689267"><ele>607.5</ele><time>2026-04-26T09:54:27.265Z</time></trkpt><trkpt lat="43.4271467" lon="12.9688383"><ele>605.0</ele><time>2026-04-26T09:54:30.265Z</time></trkpt><trkpt lat="43.427075" lon="12.968765"><ele>602.5</ele><time>2026-04-26T09:54:33.265Z</time></trkpt><trkpt lat="43.4270167" lon="12.968715"><ele>600.0</ele><time>2026-04-26T09:54:35.265Z</time></trkpt><trkpt lat="43.42696" lon="12.968655"><ele>600.0</ele><time>2026-04-26T09:54:37.265Z</time></trkpt><trkpt lat="43.4269017" lon="12.9686067"><ele>600.0</ele><time>2026-04-26T09:54:39.265Z</time></trkpt><trkpt lat="43.4268367" lon="12.9685567"><ele>600.0</ele><time>2026-04-26T09:54:41.265Z</time></trkpt><trkpt lat="43.4267667" lon="12.9685083"><ele>600.0</ele><time>2026-04-26T09:54:43.265Z</time></trkpt><trkpt lat="43.4267033" lon="12.9684683"><ele>600.0</ele><time>2026-04-26T09:54:45.265Z</time></trkpt><trkpt lat="43.4266283" lon="12.96843"><ele>600.0</ele><time>2026-04-26T09:54:47.265Z</time></trkpt><trkpt lat="43.4265517" lon="12.9683717"><ele>595.8333333333334</ele><time>2026-04-26T09:54:49.265Z</time></trkpt><trkpt lat="43.4264733" lon="12.96832"><ele>591.6666666666666</ele><time>2026-04-26T09:54:51.265Z</time></trkpt><trkpt lat="43.4264052" lon="12.9682765"><ele>587.5</ele><time>2026-04-26T09:54:53.167Z</time></trkpt><trkpt lat="43.4263236" lon="12.9682471"><ele>583.3333333333333</ele><time>2026-04-26T09:54:55.206Z</time></trkpt><trkpt lat="43.4262316" lon="12.9682117"><ele>579.1666666666666</ele><time>2026-04-26T09:54:57.331Z</time></trkpt><trkpt lat="43.426159" lon="12.9681676"><ele>575.0</ele><time>2026-04-26T09:54:59.352Z</time></trkpt><trkpt lat="43.4260789" lon="12.9681442"><ele>573.4285714285714</ele><time>2026-04-26T09:55:01.384Z</time></trkpt><trkpt lat="43.4260043" lon="12.9681228"><ele>571.8571428571428</ele><time>2026-04-26T09:55:03.245Z</time></trkpt><trkpt lat="43.425935" lon="12.96813"><ele>570.2857142857142</ele><time>2026-04-26T09:55:05.265Z</time></trkpt><trkpt lat="43.4258517" lon="12.9681233"><ele>568.7142857142857</ele><time>2026-04-26T09:55:07.265Z</time></trkpt><trkpt lat="43.4257833" lon="12.9681217"><ele>567.1428571428571</ele><time>2026-04-26T09:55:09.265Z</time></trkpt><trkpt lat="43.4257133" lon="12.9681233"><ele>565.5714285714286</ele><time>2026-04-26T09:55:11.265Z</time></trkpt><trkpt lat="43.42565" lon="12.9681"><ele>564.0</ele><time>2026-04-26T09:55:13.265Z</time></trkpt><trkpt lat="43.425585" lon="12.9680683"><ele>564.0</ele><time>2026-04-26T09:55:15.265Z</time></trkpt><trkpt lat="43.4255383" lon="12.9680067"><ele>564.0</ele><time>2026-04-26T09:55:17.265Z</time></trkpt><trkpt lat="43.4254833" lon="12.9679033"><ele>564.0</ele><time>2026-04-26T09:55:20.265Z</time></trkpt><trkpt lat="43.42545" lon="12.967825"><ele>564.0</ele><time>2026-04-26T09:55:22.265Z</time></trkpt><trkpt lat="43.4253917" lon="12.967725"><ele>564.0</ele><time>2026-04-26T09:55:25.265Z</time></trkpt><trkpt lat="43.4253417" lon="12.9676567"><ele>564.0</ele><time>2026-04-26T09:55:27.265Z</time></trkpt><trkpt lat="43.4252867" lon="12.9675933"><ele>562.1666666666666</ele><time>2026-04-26T09:55:29.265Z</time></trkpt><trkpt lat="43.4252135" lon="12.9675439"><ele>560.3333333333334</ele><time>2026-04-26T09:55:31.361Z</time></trkpt><trkpt lat="43.4251487" lon="12.9675158"><ele>558.5</ele><time>2026-04-26T09:55:33.275Z</time></trkpt><trkpt lat="43.42509" lon="12.967465"><ele>556.6666666666667</ele><time>2026-04-26T09:55:35.266Z</time></trkpt><trkpt lat="43.4250233" lon="12.967415"><ele>554.8333333333334</ele><time>2026-04-26T09:55:37.265Z</time></trkpt><trkpt lat="43.424945" lon="12.9673683"><ele>553.0</ele><time>2026-04-26T09:55:39.265Z</time></trkpt><trkpt lat="43.4248833" lon="12.9673183"><ele>549.1666666666667</ele><time>2026-04-26T09:55:41.266Z</time></trkpt><trkpt lat="43.4248067" lon="12.9672533"><ele>545.3333333333334</ele><time>2026-04-26T09:55:43.265Z</time></trkpt><trkpt lat="43.4247317" lon="12.96719"><ele>541.5</ele><time>2026-04-26T09:55:45.265Z</time></trkpt><trkpt lat="43.42466" lon="12.9671483"><ele>537.6666666666666</ele><time>2026-04-26T09:55:47.265Z</time></trkpt><trkpt lat="43.424575" lon="12.967105"><ele>533.8333333333333</ele><time>2026-04-26T09:55:49.266Z</time></trkpt><trkpt lat="43.4244817" lon="12.96707"><ele>530.0</ele><time>2026-04-26T09:55:51.265Z</time></trkpt><trkpt lat="43.4243983" lon="12.9670333"><ele>528.8333333333333</ele><time>2026-04-26T09:55:53.265Z</time></trkpt><trkpt lat="43.42431" lon="12.9670033"><ele>527.6666666666666</ele><time>2026-04-26T09:55:55.265Z</time></trkpt><trkpt lat="43.424235" lon="12.9669783"><ele>526.5</ele><time>2026-04-26T09:55:57.265Z</time></trkpt><trkpt lat="43.4241583" lon="12.9669383"><ele>525.3333333333334</ele><time>2026-04-26T09:55:59.265Z</time></trkpt><trkpt lat="43.4240817" lon="12.96689"><ele>524.1666666666667</ele><time>2026-04-26T09:56:01.265Z</time></trkpt><trkpt lat="43.423995" lon="12.9668417"><ele>523.0</ele><time>2026-04-26T09:56:03.265Z</time></trkpt><trkpt lat="43.4238867" lon="12.9667967"><ele>521.1999999999999</ele><time>2026-04-26T09:56:05.265Z</time></trkpt><trkpt lat="43.4237833" lon="12.96676"><ele>519.4</ele><time>2026-04-26T09:56:07.265Z</time></trkpt><trkpt lat="43.4236817" lon="12.9667267"><ele>517.5999999999999</ele><time>2026-04-26T09:56:09.265Z</time></trkpt><trkpt lat="43.4235867" lon="12.9666983"><ele>515.8</ele><time>2026-04-26T09:56:11.265Z</time></trkpt><trkpt lat="43.4235017" lon="12.9666733"><ele>514.0</ele><time>2026-04-26T09:56:13.265Z</time></trkpt><trkpt lat="43.4234167" lon="12.96665"><ele>510.1666666666667</ele><time>2026-04-26T09:56:15.265Z</time></trkpt><trkpt lat="43.4233267" lon="12.9666317"><ele>506.33333333333337</ele><time>2026-04-26T09:56:17.265Z</time></trkpt><trkpt lat="43.4232417" lon="12.9666117"><ele>502.5</ele><time>2026-04-26T09:56:19.265Z</time></trkpt><trkpt lat="43.42315" lon="12.9665867"><ele>498.66666666666663</ele><time>2026-04-26T09:56:21.265Z</time></trkpt><trkpt lat="43.4230567" lon="12.9665683"><ele>494.8333333333333</ele><time>2026-04-26T09:56:23.265Z</time></trkpt><trkpt lat="43.4229733" lon="12.9665617"><ele>491.0</ele><time>2026-04-26T09:56:25.266Z</time></trkpt><trkpt lat="43.422885" lon="12.966555"><ele>488.8333333333333</ele><time>2026-04-26T09:56:27.265Z</time></trkpt><trkpt lat="43.4228" lon="12.9665533"><ele>486.66666666666663</ele><time>2026-04-26T09:56:29.265Z</time></trkpt><trkpt lat="43.422725" lon="12.9665817"><ele>484.5</ele><time>2026-04-26T09:56:31.264Z</time></trkpt><trkpt lat="43.4226467" lon="12.9666133"><ele>482.33333333333337</ele><time>2026-04-26T09:56:33.264Z</time></trkpt><trkpt lat="43.42256" lon="12.9666433"><ele>480.1666666666667</ele><time>2026-04-26T09:56:35.264Z</time></trkpt><trkpt lat="43.422485" lon="12.9666733"><ele>478.0</ele><time>2026-04-26T09:56:37.265Z</time></trkpt><trkpt lat="43.4224617" lon="12.966575"><ele>478.0</ele><time>2026-04-26T09:56:41.264Z</time></trkpt><trkpt lat="43.4225567" lon="12.9664717"><ele>477.99999999999994</ele><time>2026-04-26T09:56:43.264Z</time></trkpt><trkpt lat="43.4226233" lon="12.9663717"><ele>477.99999999999994</ele><time>2026-04-26T09:56:45.265Z</time></trkpt><trkpt lat="43.4226817" lon="12.96627"><ele>478.0</ele><time>2026-04-26T09:56:47.264Z</time></trkpt><trkpt lat="43.4227433" lon="12.9661867"><ele>478.0</ele><time>2026-04-26T09:56:49.264Z</time></trkpt><trkpt lat="43.4227583" lon="12.9660717"><ele>478.00000000000006</ele><time>2026-04-26T09:56:51.264Z</time></trkpt><trkpt lat="43.4227333" lon="12.9659183"><ele>478.0</ele><time>2026-04-26T09:56:53.264Z</time></trkpt><trkpt lat="43.4227117" lon="12.9658317"><ele>478.0</ele><time>2026-04-26T09:56:54.264Z</time></trkpt><trkpt lat="43.4226883" lon="12.9657483"><ele>478.0</ele><time>2026-04-26T09:56:55.264Z</time></trkpt><trkpt lat="43.4226633" lon="12.9656667"><ele>478.00000000000006</ele><time>2026-04-26T09:56:56.264Z</time></trkpt><trkpt lat="43.42263" lon="12.965575"><ele>478.0</ele><time>2026-04-26T09:56:57.264Z</time></trkpt><trkpt lat="43.4225967" lon="12.9654967"><ele>476.33333333333337</ele><time>2026-04-26T09:56:58.264Z</time></trkpt><trkpt lat="43.422545" lon="12.965365"><ele>474.6666666666667</ele><time>2026-04-26T09:57:00.264Z</time></trkpt><trkpt lat="43.4225183" lon="12.9652817"><ele>473.0</ele><time>2026-04-26T09:57:02.264Z</time></trkpt><trkpt lat="43.4224867" lon="12.9651817"><ele>471.33333333333337</ele><time>2026-04-26T09:57:04.264Z</time></trkpt><trkpt lat="43.4224317" lon="12.96506"><ele>469.6666666666667</ele><time>2026-04-26T09:57:06.264Z</time></trkpt><trkpt lat="43.4224167" lon="12.96497"><ele>468.0</ele><time>2026-04-26T09:57:07.264Z</time></trkpt><trkpt lat="43.4224133" lon="12.9648667"><ele>467.79999999999995</ele><time>2026-04-26T09:57:08.264Z</time></trkpt><trkpt lat="43.4224283" lon="12.9647533"><ele>467.59999999999997</ele><time>2026-04-26T09:57:09.264Z</time></trkpt><trkpt lat="43.4224567" lon="12.964635"><ele>467.40000000000003</ele><time>2026-04-26T09:57:10.264Z</time></trkpt><trkpt lat="43.4224883" lon="12.9645033"><ele>467.20000000000005</ele><time>2026-04-26T09:57:11.264Z</time></trkpt><trkpt lat="43.4225317" lon="12.9643667"><ele>467.0</ele><time>2026-04-26T09:57:12.264Z</time></trkpt><trkpt lat="43.4225767" lon="12.964225"><ele>467.25</ele><time>2026-04-26T09:57:13.265Z</time></trkpt><trkpt lat="43.4226283" lon="12.9640767"><ele>467.5</ele><time>2026-04-26T09:57:14.264Z</time></trkpt><trkpt lat="43.4226867" lon="12.9639217"><ele>467.75</ele><time>2026-04-26T09:57:15.264Z</time></trkpt><trkpt lat="43.4227517" lon="12.9637617"><ele>468.0</ele><time>2026-04-26T09:57:16.264Z</time></trkpt><trkpt lat="43.4228217" lon="12.9635983"><ele>468.0</ele><time>2026-04-26T09:57:17.264Z</time></trkpt><trkpt lat="43.4228767" lon="12.9634333"><ele>468.0</ele><time>2026-04-26T09:57:18.264Z</time></trkpt><trkpt lat="43.4229383" lon="12.9632833"><ele>468.0</ele><time>2026-04-26T09:57:19.264Z</time></trkpt><trkpt lat="43.423" lon="12.9631433"><ele>468.0</ele><time>2026-04-26T09:57:20.264Z</time></trkpt><trkpt lat="43.4230767" lon="12.96302"><ele>463.5</ele><time>2026-04-26T09:57:21.264Z</time></trkpt><trkpt lat="43.4231767" lon="12.962905"><ele>459.0</ele><time>2026-04-26T09:57:22.264Z</time></trkpt><trkpt lat="43.4232817" lon="12.9627933"><ele>454.5</ele><time>2026-04-26T09:57:23.264Z</time></trkpt><trkpt lat="43.4233967" lon="12.9626767"><ele>450.0</ele><time>2026-04-26T09:57:24.264Z</time></trkpt><trkpt lat="43.4235217" lon="12.96257"><ele>452.0</ele><time>2026-04-26T09:57:25.264Z</time></trkpt><trkpt lat="43.4236467" lon="12.9624583"><ele>454.0</ele><time>2026-04-26T09:57:26.264Z</time></trkpt><trkpt lat="43.4237817" lon="12.9623517"><ele>456.0</ele><time>2026-04-26T09:57:27.264Z</time></trkpt><trkpt lat="43.4239217" lon="12.9622467"><ele>450.66666666666663</ele><time>2026-04-26T09:57:28.264Z</time></trkpt><trkpt lat="43.4240667" lon="12.9621417"><ele>445.3333333333333</ele><time>2026-04-26T09:57:29.264Z</time></trkpt><trkpt lat="43.4242167" lon="12.962035"><ele>440.0</ele><time>2026-04-26T09:57:30.264Z</time></trkpt><trkpt lat="43.42436" lon="12.9619383"><ele>440.0</ele><time>2026-04-26T09:57:31.264Z</time></trkpt><trkpt lat="43.4245033" lon="12.9618417"><ele>440.0</ele><time>2026-04-26T09:57:32.264Z</time></trkpt><trkpt lat="43.4246367" lon="12.96174"><ele>440.0</ele><time>2026-04-26T09:57:33.264Z</time></trkpt><trkpt lat="43.4247667" lon="12.9616383"><ele>438.5</ele><time>2026-04-26T09:57:34.265Z</time></trkpt><trkpt lat="43.424895" lon="12.961535"><ele>437.0</ele><time>2026-04-26T09:57:35.264Z</time></trkpt><trkpt lat="43.4250233" lon="12.9614383"><ele>435.5</ele><time>2026-04-26T09:57:36.264Z</time></trkpt><trkpt lat="43.4251467" lon="12.961355"><ele>434.0</ele><time>2026-04-26T09:57:37.264Z</time></trkpt><trkpt lat="43.42526" lon="12.9612583"><ele>434.0</ele><time>2026-04-26T09:57:38.264Z</time></trkpt><trkpt lat="43.425365" lon="12.9611433"><ele>434.0</ele><time>2026-04-26T09:57:39.264Z</time></trkpt><trkpt lat="43.4254667" lon="12.9610267"><ele>434.0</ele><time>2026-04-26T09:57:40.264Z</time></trkpt><trkpt lat="43.4255633" lon="12.960915"><ele>434.0</ele><time>2026-04-26T09:57:41.264Z</time></trkpt><trkpt lat="43.4256733" lon="12.9608217"><ele>433.5</ele><time>2026-04-26T09:57:42.264Z</time></trkpt><trkpt lat="43.4257933" lon="12.9607483"><ele>433.0</ele><time>2026-04-26T09:57:43.264Z</time></trkpt><trkpt lat="43.4259133" lon="12.96069"><ele>432.5</ele><time>2026-04-26T09:57:44.264Z</time></trkpt><trkpt lat="43.4260433" lon="12.9606383"><ele>432.0</ele><time>2026-04-26T09:57:45.264Z</time></trkpt><trkpt lat="43.42618" lon="12.960605"><ele>432.0</ele><time>2026-04-26T09:57:46.265Z</time></trkpt><trkpt lat="43.42631" lon="12.9605917"><ele>432.0</ele><time>2026-04-26T09:57:47.264Z</time></trkpt><trkpt lat="43.4264367" lon="12.9605983"><ele>432.0</ele><time>2026-04-26T09:57:48.264Z</time></trkpt><trkpt lat="43.42656" lon="12.9605933"><ele>432.0</ele><time>2026-04-26T09:57:49.264Z</time></trkpt><trkpt lat="43.4266833" lon="12.96057"><ele>429.25</ele><time>2026-04-26T09:57:50.264Z</time></trkpt><trkpt lat="43.4268033" lon="12.9605417"><ele>426.5</ele><time>2026-04-26T09:57:51.264Z</time></trkpt><trkpt lat="43.4269117" lon="12.9604983"><ele>423.75</ele><time>2026-04-26T09:57:52.265Z</time></trkpt><trkpt lat="43.4270133" lon="12.9604183"><ele>421.0</ele><time>2026-04-26T09:57:53.264Z</time></trkpt><trkpt lat="43.427095" lon="12.9603083"><ele>418.25</ele><time>2026-04-26T09:57:54.264Z</time></trkpt><trkpt lat="43.42716" lon="12.9601683"><ele>415.5</ele><time>2026-04-26T09:57:55.264Z</time></trkpt><trkpt lat="43.4272267" lon="12.9600217"><ele>412.75</ele><time>2026-04-26T09:57:56.264Z</time></trkpt><trkpt lat="43.4273067" lon="12.9599"><ele>410.0</ele><time>2026-04-26T09:57:57.264Z</time></trkpt><trkpt lat="43.4274117" lon="12.9597967"><ele>410.0</ele><time>2026-04-26T09:57:58.264Z</time></trkpt><trkpt lat="43.4275367" lon="12.95973"><ele>410.0</ele><time>2026-04-26T09:57:59.264Z</time></trkpt><trkpt lat="43.4276717" lon="12.9596883"><ele>410.0</ele><time>2026-04-26T09:58:00.264Z</time></trkpt><trkpt lat="43.4278067" lon="12.959635"><ele>410.0</ele><time>2026-04-26T09:58:01.264Z</time></trkpt><trkpt lat="43.4279383" lon="12.959585"><ele>404.0</ele><time>2026-04-26T09:58:02.264Z</time></trkpt><trkpt lat="43.4280617" lon="12.9595017"><ele>398.0</ele><time>2026-04-26T09:58:03.264Z</time></trkpt><trkpt lat="43.428185" lon="12.9594217"><ele>392.0</ele><time>2026-04-26T09:58:04.264Z</time></trkpt><trkpt lat="43.4282983" lon="12.9593367"><ele>386.0</ele><time>2026-04-26T09:58:05.264Z</time></trkpt><trkpt lat="43.428415" lon="12.95925"><ele>392.0</ele><time>2026-04-26T09:58:06.264Z</time></trkpt><trkpt lat="43.4285233" lon="12.9591533"><ele>398.0</ele><time>2026-04-26T09:58:07.264Z</time></trkpt><trkpt lat="43.4286317" lon="12.9590333"><ele>404.0</ele><time>2026-04-26T09:58:08.264Z</time></trkpt><trkpt lat="43.4287183" lon="12.9588917"><ele>410.0</ele><time>2026-04-26T09:58:09.264Z</time></trkpt><trkpt lat="43.4288017" lon="12.9587483"><ele>404.75</ele><time>2026-04-26T09:58:10.264Z</time></trkpt><trkpt lat="43.4288767" lon="12.95859"><ele>399.5</ele><time>2026-04-26T09:58:11.264Z</time></trkpt><trkpt lat="43.42894" lon="12.9584467"><ele>394.25</ele><time>2026-04-26T09:58:12.264Z</time></trkpt><trkpt lat="43.4289967" lon="12.9582917"><ele>389.0</ele><time>2026-04-26T09:58:13.264Z</time></trkpt><trkpt lat="43.4290568" lon="12.9581464"><ele>389.0</ele><time>2026-04-26T09:58:14.264Z</time></trkpt><trkpt lat="43.4291075" lon="12.957998"><ele>389.0</ele><time>2026-04-26T09:58:15.265Z</time></trkpt><trkpt lat="43.429148" lon="12.9578378"><ele>389.0</ele><time>2026-04-26T09:58:16.264Z</time></trkpt><trkpt lat="43.4291772" lon="12.9576656"><ele>389.0</ele><time>2026-04-26T09:58:17.264Z</time></trkpt><trkpt lat="43.4291858" lon="12.9574935"><ele>390.75</ele><time>2026-04-26T09:58:18.264Z</time></trkpt><trkpt lat="43.4291996" lon="12.9573183"><ele>392.5</ele><time>2026-04-26T09:58:19.264Z</time></trkpt><trkpt lat="43.4292136" lon="12.9571504"><ele>394.25</ele><time>2026-04-26T09:58:20.264Z</time></trkpt><trkpt lat="43.4292432" lon="12.956978"><ele>396.0</ele><time>2026-04-26T09:58:21.265Z</time></trkpt><trkpt lat="43.4292959" lon="12.9568072"><ele>397.25</ele><time>2026-04-26T09:58:22.264Z</time></trkpt><trkpt lat="43.4293612" lon="12.9566497"><ele>398.5</ele><time>2026-04-26T09:58:23.264Z</time></trkpt><trkpt lat="43.4294287" lon="12.9565074"><ele>399.75</ele><time>2026-04-26T09:58:24.264Z</time></trkpt><trkpt lat="43.4294984" lon="12.9563859"><ele>401.0</ele><time>2026-04-26T09:58:25.264Z</time></trkpt><trkpt lat="43.4295708" lon="12.9562641"><ele>393.8</ele><time>2026-04-26T09:58:26.264Z</time></trkpt><trkpt lat="43.4296431" lon="12.956145"><ele>386.6</ele><time>2026-04-26T09:58:27.264Z</time></trkpt><trkpt lat="43.4297105" lon="12.9560286"><ele>379.4</ele><time>2026-04-26T09:58:28.264Z</time></trkpt><trkpt lat="43.4297698" lon="12.955908"><ele>372.2</ele><time>2026-04-26T09:58:29.264Z</time></trkpt><trkpt lat="43.4298096" lon="12.9557754"><ele>365.0</ele><time>2026-04-26T09:58:30.264Z</time></trkpt><trkpt lat="43.4298297" lon="12.9556374"><ele>365.0</ele><time>2026-04-26T09:58:31.264Z</time></trkpt><trkpt lat="43.4298301" lon="12.9554881"><ele>365.0</ele><time>2026-04-26T09:58:32.264Z</time></trkpt><trkpt lat="43.4298269" lon="12.9553398"><ele>365.0</ele><time>2026-04-26T09:58:33.264Z</time></trkpt><trkpt lat="43.4298251" lon="12.9551849"><ele>365.0</ele><time>2026-04-26T09:58:34.264Z</time></trkpt><trkpt lat="43.4298262" lon="12.9550224"><ele>365.0</ele><time>2026-04-26T09:58:35.264Z</time></trkpt><trkpt lat="43.4298445" lon="12.9548642"><ele>365.25</ele><time>2026-04-26T09:58:36.264Z</time></trkpt><trkpt lat="43.4298871" lon="12.9547207"><ele>365.5</ele><time>2026-04-26T09:58:37.264Z</time></trkpt><trkpt lat="43.4299497" lon="12.9545934"><ele>365.75</ele><time>2026-04-26T09:58:38.264Z</time></trkpt><trkpt lat="43.4300088" lon="12.9544605"><ele>366.0</ele><time>2026-04-26T09:58:39.264Z</time></trkpt><trkpt lat="43.4300544" lon="12.9543015"><ele>367.0</ele><time>2026-04-26T09:58:40.264Z</time></trkpt><trkpt lat="43.4300829" lon="12.9541166"><ele>368.0</ele><time>2026-04-26T09:58:41.264Z</time></trkpt><trkpt lat="43.4301021" lon="12.953918"><ele>369.0</ele><time>2026-04-26T09:58:42.264Z</time></trkpt><trkpt lat="43.4301138" lon="12.9537228"><ele>370.0</ele><time>2026-04-26T09:58:43.264Z</time></trkpt><trkpt lat="43.4301391" lon="12.9535331"><ele>370.0</ele><time>2026-04-26T09:58:44.264Z</time></trkpt><trkpt lat="43.430182" lon="12.9533611"><ele>370.0</ele><time>2026-04-26T09:58:45.264Z</time></trkpt><trkpt lat="43.430235" lon="12.953215"><ele>370.0</ele><time>2026-04-26T09:58:46.264Z</time></trkpt><trkpt lat="43.4302883" lon="12.95308"><ele>370.0</ele><time>2026-04-26T09:58:47.264Z</time></trkpt><trkpt lat="43.43032" lon="12.9529533"><ele>370.0</ele><time>2026-04-26T09:58:48.264Z</time></trkpt><trkpt lat="43.4303333" lon="12.952815"><ele>370.0</ele><time>2026-04-26T09:58:49.264Z</time></trkpt><trkpt lat="43.430315" lon="12.95265"><ele>370.0</ele><time>2026-04-26T09:58:50.264Z</time></trkpt><trkpt lat="43.4302683" lon="12.9524717"><ele>370.0</ele><time>2026-04-26T09:58:51.264Z</time></trkpt><trkpt lat="43.430215" lon="12.9522933"><ele>369.0</ele><time>2026-04-26T09:58:52.264Z</time></trkpt><trkpt lat="43.4301467" lon="12.952125"><ele>368.0</ele><time>2026-04-26T09:58:53.264Z</time></trkpt><trkpt lat="43.430075" lon="12.9519517"><ele>367.0</ele><time>2026-04-26T09:58:54.264Z</time></trkpt><trkpt lat="43.4300233" lon="12.9517917"><ele>366.0</ele><time>2026-04-26T09:58:55.264Z</time></trkpt><trkpt lat="43.4299933" lon="12.9516467"><ele>363.4</ele><time>2026-04-26T09:58:56.264Z</time></trkpt><trkpt lat="43.4299967" lon="12.9515067"><ele>360.8</ele><time>2026-04-26T09:58:57.264Z</time></trkpt><trkpt lat="43.4300333" lon="12.951375"><ele>358.2</ele><time>2026-04-26T09:58:58.264Z</time></trkpt><trkpt lat="43.43009" lon="12.9512733"><ele>355.59999999999997</ele><time>2026-04-26T09:58:59.264Z</time></trkpt><trkpt lat="43.43016" lon="12.9512083"><ele>353.0</ele><time>2026-04-26T09:59:00.264Z</time></trkpt><trkpt lat="43.4302367" lon="12.9511817"><ele>353.0</ele><time>2026-04-26T09:59:01.264Z</time></trkpt><trkpt lat="43.4303217" lon="12.9512283"><ele>353.0</ele><time>2026-04-26T09:59:02.264Z</time></trkpt><trkpt lat="43.430405" lon="12.9513233"><ele>353.0</ele><time>2026-04-26T09:59:03.264Z</time></trkpt><trkpt lat="43.4304917" lon="12.9514517"><ele>353.0</ele><time>2026-04-26T09:59:04.264Z</time></trkpt><trkpt lat="43.4305767" lon="12.9515917"><ele>349.5</ele><time>2026-04-26T09:59:05.264Z</time></trkpt><trkpt lat="43.4306717" lon="12.9517117"><ele>346.0</ele><time>2026-04-26T09:59:06.265Z</time></trkpt><trkpt lat="43.430765" lon="12.9518217"><ele>342.5</ele><time>2026-04-26T09:59:07.264Z</time></trkpt><trkpt lat="43.4308567" lon="12.9519267"><ele>339.0</ele><time>2026-04-26T09:59:08.265Z</time></trkpt><trkpt lat="43.43095" lon="12.9520117"><ele>339.0</ele><time>2026-04-26T09:59:09.264Z</time></trkpt><trkpt lat="43.431035" lon="12.9520883"><ele>339.0</ele><time>2026-04-26T09:59:10.264Z</time></trkpt><trkpt lat="43.4311167" lon="12.9521433"><ele>339.0</ele><time>2026-04-26T09:59:11.264Z</time></trkpt><trkpt lat="43.4311867" lon="12.9521733"><ele>339.0</ele><time>2026-04-26T09:59:12.265Z</time></trkpt><trkpt lat="43.4312517" lon="12.952175"><ele>339.0</ele><time>2026-04-26T09:59:13.264Z</time></trkpt><trkpt lat="43.4313117" lon="12.9521483"><ele>339.0</ele><time>2026-04-26T09:59:14.264Z</time></trkpt><trkpt lat="43.43136" lon="12.952005"><ele>339.0</ele><time>2026-04-26T09:59:16.264Z</time></trkpt><trkpt lat="43.4313133" lon="12.9518983"><ele>339.0</ele><time>2026-04-26T09:59:17.264Z</time></trkpt><trkpt lat="43.4312417" lon="12.9518067"><ele>339.0</ele><time>2026-04-26T09:59:18.264Z</time></trkpt><trkpt lat="43.4311683" lon="12.9517133"><ele>339.0</ele><time>2026-04-26T09:59:19.264Z</time></trkpt><trkpt lat="43.4311117" lon="12.9516033"><ele>339.0</ele><time>2026-04-26T09:59:20.264Z</time></trkpt><trkpt lat="43.4310767" lon="12.9514933"><ele>336.75</ele><time>2026-04-26T09:59:21.264Z</time></trkpt><trkpt lat="43.4310767" lon="12.9513783"><ele>334.5</ele><time>2026-04-26T09:59:22.264Z</time></trkpt><trkpt lat="43.4311467" lon="12.95126"><ele>332.25</ele><time>2026-04-26T09:59:23.264Z</time></trkpt><trkpt lat="43.4312467" lon="12.9511533"><ele>330.0</ele><time>2026-04-26T09:59:24.264Z</time></trkpt><trkpt lat="43.4313583" lon="12.951065"><ele>326.75</ele><time>2026-04-26T09:59:25.264Z</time></trkpt><trkpt lat="43.4314883" lon="12.9510083"><ele>323.5</ele><time>2026-04-26T09:59:26.264Z</time></trkpt><trkpt lat="43.43162" lon="12.9509667"><ele>320.25</ele><time>2026-04-26T09:59:27.264Z</time></trkpt><trkpt lat="43.431755" lon="12.950925"><ele>317.0</ele><time>2026-04-26T09:59:28.264Z</time></trkpt><trkpt lat="43.4318833" lon="12.9508667"><ele>316.0</ele><time>2026-04-26T09:59:29.264Z</time></trkpt><trkpt lat="43.4320083" lon="12.95078"><ele>315.0</ele><time>2026-04-26T09:59:30.265Z</time></trkpt><trkpt lat="43.4321233" lon="12.95067"><ele>314.0</ele><time>2026-04-26T09:59:31.264Z</time></trkpt><trkpt lat="43.4322067" lon="12.950535"><ele>313.0</ele><time>2026-04-26T09:59:32.264Z</time></trkpt><trkpt lat="43.43226" lon="12.950375"><ele>308.75</ele><time>2026-04-26T09:59:33.264Z</time></trkpt><trkpt lat="43.4322917" lon="12.9502017"><ele>304.5</ele><time>2026-04-26T09:59:34.264Z</time></trkpt><trkpt lat="43.4323" lon="12.9500083"><ele>300.25</ele><time>2026-04-26T09:59:35.264Z</time></trkpt><trkpt lat="43.4323" lon="12.9498067"><ele>296.0</ele><time>2026-04-26T09:59:36.264Z</time></trkpt><trkpt lat="43.4323" lon="12.9496067"><ele>295.0</ele><time>2026-04-26T09:59:37.264Z</time></trkpt><trkpt lat="43.4323017" lon="12.9494"><ele>294.0</ele><time>2026-04-26T09:59:38.264Z</time></trkpt><trkpt lat="43.4323033" lon="12.9492017"><ele>293.0</ele><time>2026-04-26T09:59:39.264Z</time></trkpt><trkpt lat="43.4323" lon="12.9490017"><ele>292.0</ele><time>2026-04-26T09:59:40.264Z</time></trkpt><trkpt lat="43.43231" lon="12.9488033"><ele>291.25</ele><time>2026-04-26T09:59:41.264Z</time></trkpt><trkpt lat="43.43232" lon="12.9486117"><ele>290.5</ele><time>2026-04-26T09:59:42.264Z</time></trkpt><trkpt lat="43.432325" lon="12.9484217"><ele>289.75</ele><time>2026-04-26T09:59:43.264Z</time></trkpt><trkpt lat="43.43233" lon="12.94823"><ele>289.0</ele><time>2026-04-26T09:59:44.264Z</time></trkpt><trkpt lat="43.4323333" lon="12.9480333"><ele>288.25</ele><time>2026-04-26T09:59:45.265Z</time></trkpt><trkpt lat="43.4323317" lon="12.9478367"><ele>287.5</ele><time>2026-04-26T09:59:46.264Z</time></trkpt><trkpt lat="43.432325" lon="12.9476417"><ele>286.75</ele><time>2026-04-26T09:59:47.264Z</time></trkpt><trkpt lat="43.4323033" lon="12.9474533"><ele>286.0</ele><time>2026-04-26T09:59:48.264Z</time></trkpt><trkpt lat="43.43228" lon="12.9472817"><ele>284.25</ele><time>2026-04-26T09:59:49.264Z</time></trkpt><trkpt lat="43.4322433" lon="12.947115"><ele>282.5</ele><time>2026-04-26T09:59:50.264Z</time></trkpt><trkpt lat="43.4321867" lon="12.94695"><ele>280.75</ele><time>2026-04-26T09:59:51.264Z</time></trkpt><trkpt lat="43.4321183" lon="12.946805"><ele>279.0</ele><time>2026-04-26T09:59:52.264Z</time></trkpt><trkpt lat="43.43202" lon="12.9466783"><ele>278.0</ele><time>2026-04-26T09:59:53.264Z</time></trkpt><trkpt lat="43.4319217" lon="12.9465567"><ele>277.0</ele><time>2026-04-26T09:59:54.264Z</time></trkpt><trkpt lat="43.431825" lon="12.9464617"><ele>276.0</ele><time>2026-04-26T09:59:55.264Z</time></trkpt><trkpt lat="43.431725" lon="12.94636"><ele>275.0</ele><time>2026-04-26T09:59:56.264Z</time></trkpt><trkpt lat="43.43162" lon="12.9462517"><ele>275.0</ele><time>2026-04-26T09:59:57.264Z</time></trkpt><trkpt lat="43.4315067" lon="12.9461217"><ele>275.0</ele><time>2026-04-26T09:59:58.264Z</time></trkpt><trkpt lat="43.431395" lon="12.9459783"><ele>275.0</ele><time>2026-04-26T09:59:59.264Z</time></trkpt><trkpt lat="43.4312883" lon="12.945845"><ele>275.0</ele><time>2026-04-26T10:00:00.264Z</time></trkpt><trkpt lat="43.4311617" lon="12.9457433"><ele>273.33333333333337</ele><time>2026-04-26T10:00:01.265Z</time></trkpt><trkpt lat="43.431025" lon="12.94567"><ele>271.6666666666667</ele><time>2026-04-26T10:00:02.264Z</time></trkpt><trkpt lat="43.4308867" lon="12.9455667"><ele>270.0</ele><time>2026-04-26T10:00:03.264Z</time></trkpt><trkpt lat="43.4307567" lon="12.94543"><ele>270.0</ele><time>2026-04-26T10:00:04.264Z</time></trkpt><trkpt lat="43.430645" lon="12.9452867"><ele>270.0</ele><time>2026-04-26T10:00:05.264Z</time></trkpt><trkpt lat="43.4305317" lon="12.9451183"><ele>270.0</ele><time>2026-04-26T10:00:06.264Z</time></trkpt><trkpt lat="43.4304233" lon="12.9449383"><ele>269.3333333333333</ele><time>2026-04-26T10:00:07.264Z</time></trkpt><trkpt lat="43.4303167" lon="12.94475"><ele>268.66666666666663</ele><time>2026-04-26T10:00:08.264Z</time></trkpt><trkpt lat="43.430215" lon="12.9445583"><ele>268.0</ele><time>2026-04-26T10:00:09.264Z</time></trkpt><trkpt lat="43.430125" lon="12.9443917"><ele>268.0</ele><time>2026-04-26T10:00:10.264Z</time></trkpt><trkpt lat="43.4300367" lon="12.94424"><ele>268.0</ele><time>2026-04-26T10:00:11.264Z</time></trkpt><trkpt lat="43.4299583" lon="12.944075"><ele>268.0</ele><time>2026-04-26T10:00:12.264Z</time></trkpt><trkpt lat="43.4298983" lon="12.9439033"><ele>268.0</ele><time>2026-04-26T10:00:13.264Z</time></trkpt><trkpt lat="43.4298517" lon="12.9436917"><ele>269.0</ele><time>2026-04-26T10:00:14.264Z</time></trkpt><trkpt lat="43.4298183" lon="12.9434667"><ele>270.0</ele><time>2026-04-26T10:00:15.264Z</time></trkpt><trkpt lat="43.4297917" lon="12.9432217"><ele>271.0</ele><time>2026-04-26T10:00:16.264Z</time></trkpt><trkpt lat="43.4297683" lon="12.94297"><ele>273.66666666666663</ele><time>2026-04-26T10:00:17.264Z</time></trkpt><trkpt lat="43.429745" lon="12.942715"><ele>276.3333333333333</ele><time>2026-04-26T10:00:18.264Z</time></trkpt><trkpt lat="43.4297217" lon="12.94247"><ele>279.0</ele><time>2026-04-26T10:00:19.264Z</time></trkpt><trkpt lat="43.4296833" lon="12.9422267"><ele>273.0</ele><time>2026-04-26T10:00:20.264Z</time></trkpt><trkpt lat="43.429635" lon="12.94199"><ele>267.0</ele><time>2026-04-26T10:00:21.264Z</time></trkpt><trkpt lat="43.42956" lon="12.9417717"><ele>261.0</ele><time>2026-04-26T10:00:22.264Z</time></trkpt><trkpt lat="43.4294667" lon="12.9415633"><ele>259.6666666666667</ele><time>2026-04-26T10:00:23.264Z</time></trkpt><trkpt lat="43.4293833" lon="12.9413633"><ele>258.33333333333337</ele><time>2026-04-26T10:00:24.264Z</time></trkpt><trkpt lat="43.4293217" lon="12.9411383"><ele>257.0</ele><time>2026-04-26T10:00:25.264Z</time></trkpt><trkpt lat="43.4292767" lon="12.940885"><ele>258.6666666666667</ele><time>2026-04-26T10:00:26.264Z</time></trkpt><trkpt lat="43.429235" lon="12.9406367"><ele>260.3333333333333</ele><time>2026-04-26T10:00:27.264Z</time></trkpt><trkpt lat="43.4291967" lon="12.9403833"><ele>262.0</ele><time>2026-04-26T10:00:28.265Z</time></trkpt><trkpt lat="43.4291467" lon="12.9401367"><ele>264.0</ele><time>2026-04-26T10:00:29.264Z</time></trkpt><trkpt lat="43.4290917" lon="12.939895"><ele>266.0</ele><time>2026-04-26T10:00:30.264Z</time></trkpt><trkpt lat="43.42903" lon="12.9396617"><ele>268.0</ele><time>2026-04-26T10:00:31.264Z</time></trkpt><trkpt lat="43.4289583" lon="12.93943"><ele>268.0</ele><time>2026-04-26T10:00:32.264Z</time></trkpt><trkpt lat="43.42889" lon="12.9392217"><ele>268.0</ele><time>2026-04-26T10:00:33.264Z</time></trkpt><trkpt lat="43.4288367" lon="12.9390267"><ele>268.0</ele><time>2026-04-26T10:00:34.264Z</time></trkpt><trkpt lat="43.4287683" lon="12.9388267"><ele>266.5</ele><time>2026-04-26T10:00:35.264Z</time></trkpt><trkpt lat="43.428685" lon="12.93865"><ele>265.0</ele><time>2026-04-26T10:00:36.264Z</time></trkpt><trkpt lat="43.4286017" lon="12.9384883"><ele>263.5</ele><time>2026-04-26T10:00:37.264Z</time></trkpt><trkpt lat="43.4284967" lon="12.9383383"><ele>262.0</ele><time>2026-04-26T10:00:38.264Z</time></trkpt><trkpt lat="43.4283483" lon="12.9382"><ele>262.0</ele><time>2026-04-26T10:00:39.264Z</time></trkpt><trkpt lat="43.42817" lon="12.9380467"><ele>262.0</ele><time>2026-04-26T10:00:40.264Z</time></trkpt><trkpt lat="43.4279833" lon="12.9378867"><ele>262.0</ele><time>2026-04-26T10:00:41.264Z</time></trkpt><trkpt lat="43.427815" lon="12.9377333"><ele>259.3333333333333</ele><time>2026-04-26T10:00:42.264Z</time></trkpt><trkpt lat="43.4276633" lon="12.937585"><ele>256.6666666666667</ele><time>2026-04-26T10:00:43.264Z</time></trkpt><trkpt lat="43.4275183" lon="12.937435"><ele>254.0</ele><time>2026-04-26T10:00:44.265Z</time></trkpt><trkpt lat="43.4273833" lon="12.9373067"><ele>254.0</ele><time>2026-04-26T10:00:45.264Z</time></trkpt><trkpt lat="43.4272583" lon="12.9372"><ele>254.0</ele><time>2026-04-26T10:00:46.264Z</time></trkpt><trkpt lat="43.42712" lon="12.9371133"><ele>254.0</ele><time>2026-04-26T10:00:47.264Z</time></trkpt><trkpt lat="43.4269783" lon="12.9370267"><ele>251.33333333333334</ele><time>2026-04-26T10:00:48.264Z</time></trkpt><trkpt lat="43.42683" lon="12.9369683"><ele>248.66666666666669</ele><time>2026-04-26T10:00:49.265Z</time></trkpt><trkpt lat="43.426675" lon="12.9368867"><ele>246.0</ele><time>2026-04-26T10:00:50.264Z</time></trkpt><trkpt lat="43.4265517" lon="12.9367917"><ele>247.60000000000002</ele><time>2026-04-26T10:00:51.264Z</time></trkpt><trkpt lat="43.426455" lon="12.9366833"><ele>249.20000000000002</ele><time>2026-04-26T10:00:52.264Z</time></trkpt><trkpt lat="43.42639" lon="12.9365667"><ele>250.79999999999998</ele><time>2026-04-26T10:00:53.264Z</time></trkpt><trkpt lat="43.426355" lon="12.936435"><ele>252.39999999999998</ele><time>2026-04-26T10:00:54.264Z</time></trkpt><trkpt lat="43.42635" lon="12.936295"><ele>254.0</ele><time>2026-04-26T10:00:55.264Z</time></trkpt><trkpt lat="43.4263633" lon="12.9361667"><ele>254.0</ele><time>2026-04-26T10:00:56.264Z</time></trkpt><trkpt lat="43.4264017" lon="12.9360333"><ele>253.99999999999997</ele><time>2026-04-26T10:00:57.264Z</time></trkpt><trkpt lat="43.426465" lon="12.9359167"><ele>253.99999999999997</ele><time>2026-04-26T10:00:58.264Z</time></trkpt><trkpt lat="43.4265417" lon="12.9357967"><ele>254.0</ele><time>2026-04-26T10:00:59.264Z</time></trkpt><trkpt lat="43.4266217" lon="12.9356783"><ele>254.0</ele><time>2026-04-26T10:01:00.264Z</time></trkpt><trkpt lat="43.4267033" lon="12.9355533"><ele>252.75</ele><time>2026-04-26T10:01:01.264Z</time></trkpt><trkpt lat="43.42677" lon="12.935425"><ele>251.5</ele><time>2026-04-26T10:01:02.264Z</time></trkpt><trkpt lat="43.4268346" lon="12.9352869"><ele>250.25</ele><time>2026-04-26T10:01:03.264Z</time></trkpt><trkpt lat="43.4268932" lon="12.9351431"><ele>249.0</ele><time>2026-04-26T10:01:04.264Z</time></trkpt><trkpt lat="43.4269546" lon="12.9350001"><ele>247.25</ele><time>2026-04-26T10:01:05.264Z</time></trkpt><trkpt lat="43.4270137" lon="12.9348532"><ele>245.5</ele><time>2026-04-26T10:01:06.264Z</time></trkpt><trkpt lat="43.427078" lon="12.9347056"><ele>243.75</ele><time>2026-04-26T10:01:07.264Z</time></trkpt><trkpt lat="43.427134" lon="12.9345582"><ele>242.0</ele><time>2026-04-26T10:01:08.264Z</time></trkpt><trkpt lat="43.4271894" lon="12.9344215"><ele>242.8</ele><time>2026-04-26T10:01:09.264Z</time></trkpt><trkpt lat="43.4272424" lon="12.9342893"><ele>243.6</ele><time>2026-04-26T10:01:10.264Z</time></trkpt><trkpt lat="43.4272977" lon="12.9341549"><ele>244.40000000000003</ele><time>2026-04-26T10:01:11.264Z</time></trkpt><trkpt lat="43.4273456" lon="12.9340183"><ele>245.20000000000002</ele><time>2026-04-26T10:01:12.264Z</time></trkpt><trkpt lat="43.4273959" lon="12.9338771"><ele>246.0</ele><time>2026-04-26T10:01:13.264Z</time></trkpt><trkpt lat="43.4274438" lon="12.9337321"><ele>246.0</ele><time>2026-04-26T10:01:14.265Z</time></trkpt><trkpt lat="43.4274842" lon="12.9335877"><ele>246.00000000000003</ele><time>2026-04-26T10:01:15.264Z</time></trkpt><trkpt lat="43.4275194" lon="12.9334393"><ele>246.00000000000003</ele><time>2026-04-26T10:01:16.264Z</time></trkpt><trkpt lat="43.4275491" lon="12.9332938"><ele>246.0</ele><time>2026-04-26T10:01:17.264Z</time></trkpt><trkpt lat="43.4275706" lon="12.9331586"><ele>246.0</ele><time>2026-04-26T10:01:18.264Z</time></trkpt><trkpt lat="43.4275978" lon="12.9330321"><ele>245.20000000000002</ele><time>2026-04-26T10:01:19.264Z</time></trkpt><trkpt lat="43.427622" lon="12.9329246"><ele>244.40000000000003</ele><time>2026-04-26T10:01:20.264Z</time></trkpt><trkpt lat="43.4276659" lon="12.9327806"><ele>243.6</ele><time>2026-04-26T10:01:22.264Z</time></trkpt><trkpt lat="43.4277157" lon="12.9326817"><ele>242.8</ele><time>2026-04-26T10:01:25.265Z</time></trkpt><trkpt lat="43.4277579" lon="12.93253"><ele>242.0</ele><time>2026-04-26T10:01:27.264Z</time></trkpt><trkpt lat="43.4277483" lon="12.9323967"><ele>241.25</ele><time>2026-04-26T10:01:29.264Z</time></trkpt><trkpt lat="43.4276467" lon="12.932335"><ele>240.5</ele><time>2026-04-26T10:01:31.264Z</time></trkpt><trkpt lat="43.427555" lon="12.932335"><ele>239.75</ele><time>2026-04-26T10:01:32.264Z</time></trkpt><trkpt lat="43.4274417" lon="12.9323717"><ele>239.0</ele><time>2026-04-26T10:01:33.264Z</time></trkpt><trkpt lat="43.4272967" lon="12.9324033"><ele>238.33333333333334</ele><time>2026-04-26T10:01:34.264Z</time></trkpt><trkpt lat="43.4271383" lon="12.9324183"><ele>237.66666666666669</ele><time>2026-04-26T10:01:35.264Z</time></trkpt><trkpt lat="43.42698" lon="12.9324117"><ele>237.0</ele><time>2026-04-26T10:01:36.264Z</time></trkpt><trkpt lat="43.426825" lon="12.9323933"><ele>237.0</ele><time>2026-04-26T10:01:37.264Z</time></trkpt><trkpt lat="43.426685" lon="12.93237"><ele>237.0</ele><time>2026-04-26T10:01:38.264Z</time></trkpt><trkpt lat="43.4265517" lon="12.9323517"><ele>237.0</ele><time>2026-04-26T10:01:39.264Z</time></trkpt><trkpt lat="43.42641" lon="12.9323417"><ele>237.0</ele><time>2026-04-26T10:01:40.264Z</time></trkpt><trkpt lat="43.4262683" lon="12.9323417"><ele>240.5</ele><time>2026-04-26T10:01:41.264Z</time></trkpt><trkpt lat="43.4261233" lon="12.9323617"><ele>244.0</ele><time>2026-04-26T10:01:42.264Z</time></trkpt><trkpt lat="43.425985" lon="12.9324017"><ele>247.5</ele><time>2026-04-26T10:01:43.264Z</time></trkpt><trkpt lat="43.4258533" lon="12.932455"><ele>251.0</ele><time>2026-04-26T10:01:44.264Z</time></trkpt><trkpt lat="43.4257233" lon="12.9325017"><ele>251.0</ele><time>2026-04-26T10:01:45.264Z</time></trkpt><trkpt lat="43.425585" lon="12.93255"><ele>251.0</ele><time>2026-04-26T10:01:46.264Z</time></trkpt><trkpt lat="43.42544" lon="12.93258"><ele>251.0</ele><time>2026-04-26T10:01:47.264Z</time></trkpt><trkpt lat="43.4252967" lon="12.9325933"><ele>251.0</ele><time>2026-04-26T10:01:48.264Z</time></trkpt><trkpt lat="43.4251517" lon="12.9325883"><ele>252.66666666666669</ele><time>2026-04-26T10:01:49.265Z</time></trkpt><trkpt lat="43.4250017" lon="12.9325583"><ele>254.33333333333331</ele><time>2026-04-26T10:01:50.264Z</time></trkpt><trkpt lat="43.4248567" lon="12.9325117"><ele>256.0</ele><time>2026-04-26T10:01:51.264Z</time></trkpt><trkpt lat="43.424705" lon="12.9324517"><ele>252.0</ele><time>2026-04-26T10:01:52.265Z</time></trkpt><trkpt lat="43.42454" lon="12.9323733"><ele>248.0</ele><time>2026-04-26T10:01:53.264Z</time></trkpt><trkpt lat="43.4243683" lon="12.9322783"><ele>244.0</ele><time>2026-04-26T10:01:54.264Z</time></trkpt><trkpt lat="43.424215" lon="12.9321883"><ele>244.0</ele><time>2026-04-26T10:01:55.264Z</time></trkpt><trkpt lat="43.424065" lon="12.93209"><ele>244.0</ele><time>2026-04-26T10:01:56.264Z</time></trkpt><trkpt lat="43.4239183" lon="12.931995"><ele>244.0</ele><time>2026-04-26T10:01:57.264Z</time></trkpt><trkpt lat="43.4237767" lon="12.9319"><ele>241.0</ele><time>2026-04-26T10:01:58.264Z</time></trkpt><trkpt lat="43.4236317" lon="12.9318183"><ele>238.0</ele><time>2026-04-26T10:01:59.264Z</time></trkpt><trkpt lat="43.42347" lon="12.9317617"><ele>235.0</ele><time>2026-04-26T10:02:00.264Z</time></trkpt><trkpt lat="43.4233233" lon="12.9316867"><ele>237.33333333333331</ele><time>2026-04-26T10:02:01.264Z</time></trkpt><trkpt lat="43.4231617" lon="12.931615"><ele>239.66666666666669</ele><time>2026-04-26T10:02:02.264Z</time></trkpt><trkpt lat="43.423005" lon="12.9315483"><ele>242.0</ele><time>2026-04-26T10:02:03.264Z</time></trkpt><trkpt lat="43.4228467" lon="12.9314733"><ele>242.0</ele><time>2026-04-26T10:02:04.265Z</time></trkpt><trkpt lat="43.4226867" lon="12.9314067"><ele>242.0</ele><time>2026-04-26T10:02:05.264Z</time></trkpt><trkpt lat="43.4225233" lon="12.9313483"><ele>242.0</ele><time>2026-04-26T10:02:06.264Z</time></trkpt><trkpt lat="43.422355" lon="12.9313067"><ele>242.0</ele><time>2026-04-26T10:02:07.264Z</time></trkpt><trkpt lat="43.4221917" lon="12.93127"><ele>242.0</ele><time>2026-04-26T10:02:08.265Z</time></trkpt><trkpt lat="43.42202" lon="12.9312283"><ele>242.0</ele><time>2026-04-26T10:02:09.264Z</time></trkpt><trkpt lat="43.4218383" lon="12.9311833"><ele>241.0</ele><time>2026-04-26T10:02:10.264Z</time></trkpt><trkpt lat="43.421635" lon="12.9311583"><ele>240.0</ele><time>2026-04-26T10:02:11.264Z</time></trkpt><trkpt lat="43.4214267" lon="12.931125"><ele>239.0</ele><time>2026-04-26T10:02:12.264Z</time></trkpt><trkpt lat="43.4212167" lon="12.9311"><ele>237.33333333333334</ele><time>2026-04-26T10:02:13.264Z</time></trkpt><trkpt lat="43.4210033" lon="12.931075"><ele>235.66666666666669</ele><time>2026-04-26T10:02:14.264Z</time></trkpt><trkpt lat="43.4208" lon="12.9310483"><ele>234.0</ele><time>2026-04-26T10:02:15.264Z</time></trkpt><trkpt lat="43.4205983" lon="12.9310217"><ele>233.33333333333331</ele><time>2026-04-26T10:02:16.264Z</time></trkpt><trkpt lat="43.4203983" lon="12.9309883"><ele>232.66666666666666</ele><time>2026-04-26T10:02:17.264Z</time></trkpt><trkpt lat="43.4201967" lon="12.9309483"><ele>232.0</ele><time>2026-04-26T10:02:18.264Z</time></trkpt><trkpt lat="43.42" lon="12.9309183"><ele>235.66666666666666</ele><time>2026-04-26T10:02:19.264Z</time></trkpt><trkpt lat="43.4198017" lon="12.9308883"><ele>239.33333333333331</ele><time>2026-04-26T10:02:20.264Z</time></trkpt><trkpt lat="43.4196067" lon="12.9308767"><ele>243.0</ele><time>2026-04-26T10:02:21.264Z</time></trkpt><trkpt lat="43.4194217" lon="12.930845"><ele>243.0</ele><time>2026-04-26T10:02:22.264Z</time></trkpt><trkpt lat="43.4192467" lon="12.9308183"><ele>243.0</ele><time>2026-04-26T10:02:23.264Z</time></trkpt><trkpt lat="43.4190717" lon="12.93079"><ele>243.0</ele><time>2026-04-26T10:02:24.264Z</time></trkpt><trkpt lat="43.4189033" lon="12.9307583"><ele>241.33333333333331</ele><time>2026-04-26T10:02:25.264Z</time></trkpt><trkpt lat="43.4187267" lon="12.9307317"><ele>239.66666666666666</ele><time>2026-04-26T10:02:26.264Z</time></trkpt><trkpt lat="43.418545" lon="12.93071"><ele>238.0</ele><time>2026-04-26T10:02:27.265Z</time></trkpt><trkpt lat="43.4183633" lon="12.93068"><ele>238.0</ele><time>2026-04-26T10:02:28.264Z</time></trkpt><trkpt lat="43.41817" lon="12.9306467"><ele>238.0</ele><time>2026-04-26T10:02:29.264Z</time></trkpt><trkpt lat="43.4179633" lon="12.930595"><ele>238.0</ele><time>2026-04-26T10:02:30.264Z</time></trkpt><trkpt lat="43.417735" lon="12.9305483"><ele>236.0</ele><time>2026-04-26T10:02:31.264Z</time></trkpt><trkpt lat="43.417495" lon="12.9305017"><ele>234.0</ele><time>2026-04-26T10:02:32.264Z</time></trkpt><trkpt lat="43.417275" lon="12.9304567"><ele>233.33333333333331</ele><time>2026-04-26T10:02:33.264Z</time></trkpt><trkpt lat="43.417065" lon="12.93041"><ele>232.66666666666666</ele><time>2026-04-26T10:02:34.264Z</time></trkpt><trkpt lat="43.4168733" lon="12.930375"><ele>232.0</ele><time>2026-04-26T10:02:35.264Z</time></trkpt><trkpt lat="43.416695" lon="12.93033"><ele>232.0</ele><time>2026-04-26T10:02:36.265Z</time></trkpt><trkpt lat="43.4165283" lon="12.930295"><ele>232.0</ele><time>2026-04-26T10:02:37.264Z</time></trkpt><trkpt lat="43.4163583" lon="12.930255"><ele>232.0</ele><time>2026-04-26T10:02:38.264Z</time></trkpt><trkpt lat="43.4161933" lon="12.9302217"><ele>231.66666666666666</ele><time>2026-04-26T10:02:39.264Z</time></trkpt><trkpt lat="43.4160283" lon="12.9301817"><ele>231.33333333333331</ele><time>2026-04-26T10:02:40.264Z</time></trkpt><trkpt lat="43.4158667" lon="12.9301283"><ele>231.0</ele><time>2026-04-26T10:02:41.264Z</time></trkpt><trkpt lat="43.41571" lon="12.9300933"><ele>234.0</ele><time>2026-04-26T10:02:42.264Z</time></trkpt><trkpt lat="43.41554" lon="12.9300467"><ele>237.0</ele><time>2026-04-26T10:02:43.264Z</time></trkpt><trkpt lat="43.4153617" lon="12.9300017"><ele>240.0</ele><time>2026-04-26T10:02:44.264Z</time></trkpt><trkpt lat="43.4151867" lon="12.929945"><ele>240.0</ele><time>2026-04-26T10:02:45.264Z</time></trkpt><trkpt lat="43.415015" lon="12.9298933"><ele>240.0</ele><time>2026-04-26T10:02:46.264Z</time></trkpt><trkpt lat="43.4148483" lon="12.929845"><ele>240.0</ele><time>2026-04-26T10:02:47.264Z</time></trkpt><trkpt lat="43.4146783" lon="12.929795"><ele>238.33333333333331</ele><time>2026-04-26T10:02:48.264Z</time></trkpt><trkpt lat="43.414515" lon="12.9297383"><ele>236.66666666666666</ele><time>2026-04-26T10:02:49.265Z</time></trkpt><trkpt lat="43.414355" lon="12.9296817"><ele>235.0</ele><time>2026-04-26T10:02:50.264Z</time></trkpt><trkpt lat="43.4141967" lon="12.9296267"><ele>235.0</ele><time>2026-04-26T10:02:51.264Z</time></trkpt><trkpt lat="43.414035" lon="12.9295767"><ele>235.0</ele><time>2026-04-26T10:02:52.264Z</time></trkpt><trkpt lat="43.41387" lon="12.9295283"><ele>235.0</ele><time>2026-04-26T10:02:53.265Z</time></trkpt><trkpt lat="43.4137033" lon="12.9294783"><ele>233.66666666666666</ele><time>2026-04-26T10:02:54.264Z</time></trkpt><trkpt lat="43.41353" lon="12.9294267"><ele>232.33333333333331</ele><time>2026-04-26T10:02:55.265Z</time></trkpt><trkpt lat="43.4133433" lon="12.929405"><ele>231.0</ele><time>2026-04-26T10:02:56.265Z</time></trkpt><trkpt lat="43.413165" lon="12.92939"><ele>230.66666666666669</ele><time>2026-04-26T10:02:57.264Z</time></trkpt><trkpt lat="43.4129817" lon="12.9293783"><ele>230.33333333333334</ele><time>2026-04-26T10:02:58.264Z</time></trkpt><trkpt lat="43.41279" lon="12.9293667"><ele>230.0</ele><time>2026-04-26T10:02:59.264Z</time></trkpt><trkpt lat="43.41261" lon="12.9293567"><ele>230.0</ele><time>2026-04-26T10:03:00.264Z</time></trkpt><trkpt lat="43.4124283" lon="12.9293483"><ele>230.0</ele><time>2026-04-26T10:03:01.264Z</time></trkpt><trkpt lat="43.412245" lon="12.929345"><ele>230.0</ele><time>2026-04-26T10:03:02.264Z</time></trkpt><trkpt lat="43.4120667" lon="12.929345"><ele>230.33333333333334</ele><time>2026-04-26T10:03:03.264Z</time></trkpt><trkpt lat="43.4118933" lon="12.9293267"><ele>230.66666666666669</ele><time>2026-04-26T10:03:04.264Z</time></trkpt><trkpt lat="43.4117233" lon="12.929305"><ele>231.0</ele><time>2026-04-26T10:03:05.264Z</time></trkpt><trkpt lat="43.4115567" lon="12.9292883"><ele>231.0</ele><time>2026-04-26T10:03:06.264Z</time></trkpt><trkpt lat="43.4113833" lon="12.9292767"><ele>231.0</ele><time>2026-04-26T10:03:07.264Z</time></trkpt><trkpt lat="43.4112083" lon="12.929295"><ele>231.0</ele><time>2026-04-26T10:03:08.264Z</time></trkpt><trkpt lat="43.4110383" lon="12.9293317"><ele>231.33333333333331</ele><time>2026-04-26T10:03:09.264Z</time></trkpt><trkpt lat="43.4108817" lon="12.9293867"><ele>231.66666666666666</ele><time>2026-04-26T10:03:10.264Z</time></trkpt><trkpt lat="43.4107233" lon="12.929445"><ele>232.0</ele><time>2026-04-26T10:03:11.264Z</time></trkpt><trkpt lat="43.4105683" lon="12.9294933"><ele>233.66666666666666</ele><time>2026-04-26T10:03:12.264Z</time></trkpt><trkpt lat="43.4104" lon="12.9295667"><ele>235.33333333333331</ele><time>2026-04-26T10:03:13.264Z</time></trkpt><trkpt lat="43.410235" lon="12.92965"><ele>237.0</ele><time>2026-04-26T10:03:14.264Z</time></trkpt><trkpt lat="43.410075" lon="12.9297417"><ele>237.0</ele><time>2026-04-26T10:03:15.264Z</time></trkpt><trkpt lat="43.4099217" lon="12.92984"><ele>237.0</ele><time>2026-04-26T10:03:16.264Z</time></trkpt><trkpt lat="43.4097667" lon="12.9299433"><ele>237.0</ele><time>2026-04-26T10:03:17.264Z</time></trkpt><trkpt lat="43.4096233" lon="12.9300667"><ele>237.66666666666669</ele><time>2026-04-26T10:03:18.264Z</time></trkpt><trkpt lat="43.409485" lon="12.9302267"><ele>238.33333333333334</ele><time>2026-04-26T10:03:19.264Z</time></trkpt><trkpt lat="43.40936" lon="12.9303917"><ele>239.0</ele><time>2026-04-26T10:03:20.264Z</time></trkpt><trkpt lat="43.4092417" lon="12.930575"><ele>239.0</ele><time>2026-04-26T10:03:21.264Z</time></trkpt><trkpt lat="43.4091433" lon="12.9307617"><ele>239.0</ele><time>2026-04-26T10:03:22.264Z</time></trkpt><trkpt lat="43.4090467" lon="12.9309667"><ele>239.0</ele><time>2026-04-26T10:03:23.264Z</time></trkpt><trkpt lat="43.408965" lon="12.9311717"><ele>240.0</ele><time>2026-04-26T10:03:24.264Z</time></trkpt><trkpt lat="43.4088933" lon="12.93137"><ele>241.0</ele><time>2026-04-26T10:03:25.264Z</time></trkpt><trkpt lat="43.4088317" lon="12.9315683"><ele>242.0</ele><time>2026-04-26T10:03:26.264Z</time></trkpt><trkpt lat="43.408765" lon="12.9317617"><ele>242.0</ele><time>2026-04-26T10:03:27.264Z</time></trkpt><trkpt lat="43.4087033" lon="12.931965"><ele>242.0</ele><time>2026-04-26T10:03:28.264Z</time></trkpt><trkpt lat="43.4086417" lon="12.9321533"><ele>242.0</ele><time>2026-04-26T10:03:29.264Z</time></trkpt><trkpt lat="43.408585" lon="12.9323367"><ele>242.0</ele><time>2026-04-26T10:03:30.264Z</time></trkpt><trkpt lat="43.40852" lon="12.9325117"><ele>242.0</ele><time>2026-04-26T10:03:31.264Z</time></trkpt><trkpt lat="43.4084533" lon="12.932675"><ele>242.0</ele><time>2026-04-26T10:03:32.264Z</time></trkpt><trkpt lat="43.40839" lon="12.9328167"><ele>242.0</ele><time>2026-04-26T10:03:33.264Z</time></trkpt><trkpt lat="43.4083283" lon="12.9329467"><ele>239.6</ele><time>2026-04-26T10:03:34.264Z</time></trkpt><trkpt lat="43.408275" lon="12.933065"><ele>237.2</ele><time>2026-04-26T10:03:35.264Z</time></trkpt><trkpt lat="43.4082217" lon="12.933175"><ele>234.8</ele><time>2026-04-26T10:03:36.264Z</time></trkpt><trkpt lat="43.408175" lon="12.9332767"><ele>232.4</ele><time>2026-04-26T10:03:37.265Z</time></trkpt><trkpt lat="43.40812" lon="12.9333783"><ele>230.0</ele><time>2026-04-26T10:03:38.264Z</time></trkpt><trkpt lat="43.4080617" lon="12.9334733"><ele>229.50000000000003</ele><time>2026-04-26T10:03:39.264Z</time></trkpt><trkpt lat="43.4080083" lon="12.93357"><ele>229.0</ele><time>2026-04-26T10:03:40.264Z</time></trkpt><trkpt lat="43.4079583" lon="12.9336483"><ele>228.5</ele><time>2026-04-26T10:03:41.264Z</time></trkpt><trkpt lat="43.4079167" lon="12.9337183"><ele>228.0</ele><time>2026-04-26T10:03:42.264Z</time></trkpt><trkpt lat="43.407855" lon="12.9338183"><ele>227.50000000000003</ele><time>2026-04-26T10:03:44.264Z</time></trkpt><trkpt lat="43.4078183" lon="12.9338967"><ele>227.0</ele><time>2026-04-26T10:03:47.264Z</time></trkpt><trkpt lat="43.4077717" lon="12.93405"><ele>226.8</ele><time>2026-04-26T10:03:53.264Z</time></trkpt><trkpt lat="43.4077217" lon="12.9341483"><ele>226.6</ele><time>2026-04-26T10:03:54.264Z</time></trkpt><trkpt lat="43.4076517" lon="12.93428"><ele>226.40000000000003</ele><time>2026-04-26T10:03:55.265Z</time></trkpt><trkpt lat="43.407585" lon="12.934415"><ele>226.20000000000002</ele><time>2026-04-26T10:03:56.264Z</time></trkpt><trkpt lat="43.4075183" lon="12.93455"><ele>226.0</ele><time>2026-04-26T10:03:57.264Z</time></trkpt><trkpt lat="43.40745" lon="12.9346767"><ele>227.0</ele><time>2026-04-26T10:03:58.264Z</time></trkpt><trkpt lat="43.4073783" lon="12.9348033"><ele>228.0</ele><time>2026-04-26T10:03:59.265Z</time></trkpt><trkpt lat="43.4072917" lon="12.934935"><ele>229.0</ele><time>2026-04-26T10:04:00.264Z</time></trkpt><trkpt lat="43.4072033" lon="12.93506"><ele>230.0</ele><time>2026-04-26T10:04:01.265Z</time></trkpt><trkpt lat="43.4071117" lon="12.9351983"><ele>230.0</ele><time>2026-04-26T10:04:02.264Z</time></trkpt><trkpt lat="43.4070367" lon="12.9353433"><ele>230.0</ele><time>2026-04-26T10:04:03.264Z</time></trkpt><trkpt lat="43.406955" lon="12.935495"><ele>230.0</ele><time>2026-04-26T10:04:04.264Z</time></trkpt><trkpt lat="43.40687" lon="12.9356483"><ele>230.0</ele><time>2026-04-26T10:04:05.264Z</time></trkpt><trkpt lat="43.4067867" lon="12.9357967"><ele>230.75</ele><time>2026-04-26T10:04:06.264Z</time></trkpt><trkpt lat="43.4067033" lon="12.9359483"><ele>231.5</ele><time>2026-04-26T10:04:07.265Z</time></trkpt><trkpt lat="43.40662" lon="12.9360967"><ele>232.25</ele><time>2026-04-26T10:04:08.264Z</time></trkpt><trkpt lat="43.4065533" lon="12.936265"><ele>233.0</ele><time>2026-04-26T10:04:09.263Z</time></trkpt><trkpt lat="43.40651" lon="12.9364467"><ele>233.0</ele><time>2026-04-26T10:04:10.263Z</time></trkpt><trkpt lat="43.406505" lon="12.936635"><ele>233.0</ele><time>2026-04-26T10:04:11.264Z</time></trkpt><trkpt lat="43.40653" lon="12.9368117"><ele>233.0</ele><time>2026-04-26T10:04:12.263Z</time></trkpt><trkpt lat="43.4065767" lon="12.9369783"><ele>233.0</ele><time>2026-04-26T10:04:13.263Z</time></trkpt><trkpt lat="43.406625" lon="12.937125"><ele>232.8</ele><time>2026-04-26T10:04:14.263Z</time></trkpt><trkpt lat="43.406675" lon="12.9372567"><ele>232.60000000000002</ele><time>2026-04-26T10:04:15.263Z</time></trkpt><trkpt lat="43.4067183" lon="12.93738"><ele>232.39999999999998</ele><time>2026-04-26T10:04:16.263Z</time></trkpt><trkpt lat="43.4067567" lon="12.9375017"><ele>232.2</ele><time>2026-04-26T10:04:17.263Z</time></trkpt><trkpt lat="43.4067933" lon="12.9376133"><ele>232.0</ele><time>2026-04-26T10:04:18.264Z</time></trkpt><trkpt lat="43.4068267" lon="12.9377167"><ele>231.39999999999998</ele><time>2026-04-26T10:04:19.263Z</time></trkpt><trkpt lat="43.4068683" lon="12.93784"><ele>230.79999999999998</ele><time>2026-04-26T10:04:21.263Z</time></trkpt><trkpt lat="43.4069033" lon="12.9379633"><ele>230.2</ele><time>2026-04-26T10:04:32.263Z</time></trkpt><trkpt lat="43.406965" lon="12.93805"><ele>229.6</ele><time>2026-04-26T10:04:35.264Z</time></trkpt><trkpt lat="43.4070083" lon="12.93812"><ele>229.0</ele><time>2026-04-26T10:04:38.263Z</time></trkpt><trkpt lat="43.4069983" lon="12.93826"><ele>228.99999999999997</ele><time>2026-04-26T10:04:47.263Z</time></trkpt><trkpt lat="43.4069267" lon="12.938305"><ele>229.0</ele><time>2026-04-26T10:04:51.264Z</time></trkpt><trkpt lat="43.4068883" lon="12.9384083"><ele>229.0</ele><time>2026-04-26T10:04:53.263Z</time></trkpt><trkpt lat="43.4068833" lon="12.9385033"><ele>229.0</ele><time>2026-04-26T10:04:54.263Z</time></trkpt><trkpt lat="43.4068767" lon="12.93862"><ele>228.99999999999997</ele><time>2026-04-26T10:04:55.264Z</time></trkpt><trkpt lat="43.4068783" lon="12.9387517"><ele>229.0</ele><time>2026-04-26T10:04:56.263Z</time></trkpt><trkpt lat="43.4068767" lon="12.9388967"><ele>228.75</ele><time>2026-04-26T10:04:57.263Z</time></trkpt><trkpt lat="43.4068817" lon="12.93906"><ele>228.5</ele><time>2026-04-26T10:04:58.263Z</time></trkpt><trkpt lat="43.4068767" lon="12.9392267"><ele>228.25</ele><time>2026-04-26T10:04:59.263Z</time></trkpt><trkpt lat="43.4068633" lon="12.9394017"><ele>228.0</ele><time>2026-04-26T10:05:00.263Z</time></trkpt><trkpt lat="43.40686" lon="12.9395817"><ele>230.0</ele><time>2026-04-26T10:05:01.263Z</time></trkpt><trkpt lat="43.4068483" lon="12.9397617"><ele>232.0</ele><time>2026-04-26T10:05:02.263Z</time></trkpt><trkpt lat="43.4068133" lon="12.939945"><ele>234.0</ele><time>2026-04-26T10:05:03.263Z</time></trkpt><trkpt lat="43.4067817" lon="12.94013"><ele>236.0</ele><time>2026-04-26T10:05:04.263Z</time></trkpt><trkpt lat="43.4067417" lon="12.9403167"><ele>238.0</ele><time>2026-04-26T10:05:05.263Z</time></trkpt><trkpt lat="43.4066833" lon="12.9404817"><ele>240.0</ele><time>2026-04-26T10:05:06.263Z</time></trkpt><trkpt lat="43.4066083" lon="12.9406467"><ele>242.0</ele><time>2026-04-26T10:05:07.263Z</time></trkpt><trkpt lat="43.4065333" lon="12.9407783"><ele>244.0</ele><time>2026-04-26T10:05:08.263Z</time></trkpt><trkpt lat="43.4064417" lon="12.9409033"><ele>241.25</ele><time>2026-04-26T10:05:09.263Z</time></trkpt><trkpt lat="43.406345" lon="12.9410283"><ele>238.5</ele><time>2026-04-26T10:05:10.263Z</time></trkpt><trkpt lat="43.4062433" lon="12.941155"><ele>235.75</ele><time>2026-04-26T10:05:11.263Z</time></trkpt><trkpt lat="43.40614" lon="12.9412883"><ele>233.0</ele><time>2026-04-26T10:05:12.263Z</time></trkpt><trkpt lat="43.40603" lon="12.9414067"><ele>233.0</ele><time>2026-04-26T10:05:13.263Z</time></trkpt><trkpt lat="43.4059183" lon="12.9415383"><ele>233.0</ele><time>2026-04-26T10:05:14.263Z</time></trkpt><trkpt lat="43.40581" lon="12.9416767"><ele>233.0</ele><time>2026-04-26T10:05:15.263Z</time></trkpt><trkpt lat="43.40571" lon="12.9418233"><ele>233.0</ele><time>2026-04-26T10:05:16.263Z</time></trkpt><trkpt lat="43.4056283" lon="12.941985"><ele>235.5</ele><time>2026-04-26T10:05:17.263Z</time></trkpt><trkpt lat="43.4055733" lon="12.9421533"><ele>238.0</ele><time>2026-04-26T10:05:18.263Z</time></trkpt><trkpt lat="43.4055433" lon="12.942345"><ele>240.5</ele><time>2026-04-26T10:05:19.263Z</time></trkpt><trkpt lat="43.4055517" lon="12.9425667"><ele>243.0</ele><time>2026-04-26T10:05:20.263Z</time></trkpt><trkpt lat="43.405575" lon="12.9428133"><ele>245.0</ele><time>2026-04-26T10:05:21.263Z</time></trkpt><trkpt lat="43.4056167" lon="12.9430667"><ele>247.0</ele><time>2026-04-26T10:05:22.263Z</time></trkpt><trkpt lat="43.4056617" lon="12.9432967"><ele>249.0</ele><time>2026-04-26T10:05:23.263Z</time></trkpt><trkpt lat="43.405705" lon="12.9435217"><ele>249.0</ele><time>2026-04-26T10:05:24.263Z</time></trkpt><trkpt lat="43.40574" lon="12.94372"><ele>249.0</ele><time>2026-04-26T10:05:25.263Z</time></trkpt><trkpt lat="43.4057867" lon="12.94392"><ele>249.0</ele><time>2026-04-26T10:05:26.264Z</time></trkpt><trkpt lat="43.40583" lon="12.9441167"><ele>248.75</ele><time>2026-04-26T10:05:27.263Z</time></trkpt><trkpt lat="43.4058683" lon="12.9443117"><ele>248.5</ele><time>2026-04-26T10:05:28.263Z</time></trkpt><trkpt lat="43.405895" lon="12.9445083"><ele>248.25</ele><time>2026-04-26T10:05:29.263Z</time></trkpt><trkpt lat="43.4059" lon="12.944705"><ele>248.0</ele><time>2026-04-26T10:05:30.263Z</time></trkpt><trkpt lat="43.405895" lon="12.9448983"><ele>251.0</ele><time>2026-04-26T10:05:31.263Z</time></trkpt><trkpt lat="43.4058683" lon="12.9450933"><ele>254.0</ele><time>2026-04-26T10:05:32.263Z</time></trkpt><trkpt lat="43.4058283" lon="12.94526"><ele>257.0</ele><time>2026-04-26T10:05:33.263Z</time></trkpt><trkpt lat="43.4057433" lon="12.94541"><ele>260.0</ele><time>2026-04-26T10:05:34.263Z</time></trkpt><trkpt lat="43.4056633" lon="12.9455517"><ele>260.0</ele><time>2026-04-26T10:05:35.263Z</time></trkpt><trkpt lat="43.4055783" lon="12.9456617"><ele>260.0</ele><time>2026-04-26T10:05:36.263Z</time></trkpt><trkpt lat="43.4054917" lon="12.9457717"><ele>260.0</ele><time>2026-04-26T10:05:37.263Z</time></trkpt><trkpt lat="43.4054133" lon="12.9458917"><ele>260.0</ele><time>2026-04-26T10:05:38.263Z</time></trkpt><trkpt lat="43.40534" lon="12.9460167"><ele>253.75</ele><time>2026-04-26T10:05:39.264Z</time></trkpt><trkpt lat="43.4052783" lon="12.9461617"><ele>247.5</ele><time>2026-04-26T10:05:40.263Z</time></trkpt><trkpt lat="43.4052117" lon="12.9462967"><ele>241.25</ele><time>2026-04-26T10:05:41.263Z</time></trkpt><trkpt lat="43.4051683" lon="12.9464333"><ele>235.0</ele><time>2026-04-26T10:05:42.263Z</time></trkpt><trkpt lat="43.4051483" lon="12.946585"><ele>239.8</ele><time>2026-04-26T10:05:43.263Z</time></trkpt><trkpt lat="43.4051233" lon="12.94673"><ele>244.6</ele><time>2026-04-26T10:05:44.264Z</time></trkpt><trkpt lat="43.4050867" lon="12.9468683"><ele>249.39999999999998</ele><time>2026-04-26T10:05:45.263Z</time></trkpt><trkpt lat="43.405045" lon="12.9470183"><ele>254.2</ele><time>2026-04-26T10:05:46.263Z</time></trkpt><trkpt lat="43.4050067" lon="12.9471617"><ele>259.0</ele><time>2026-04-26T10:05:47.263Z</time></trkpt><trkpt lat="43.40495" lon="12.9473033"><ele>259.0</ele><time>2026-04-26T10:05:48.263Z</time></trkpt><trkpt lat="43.4048833" lon="12.9474417"><ele>259.0</ele><time>2026-04-26T10:05:49.264Z</time></trkpt><trkpt lat="43.4048067" lon="12.9475867"><ele>259.0</ele><time>2026-04-26T10:05:50.263Z</time></trkpt><trkpt lat="43.4047183" lon="12.94772"><ele>259.0</ele><time>2026-04-26T10:05:51.263Z</time></trkpt><trkpt lat="43.40463" lon="12.94785"><ele>254.75</ele><time>2026-04-26T10:05:52.263Z</time></trkpt><trkpt lat="43.4045183" lon="12.9479483"><ele>250.5</ele><time>2026-04-26T10:05:53.263Z</time></trkpt><trkpt lat="43.40441" lon="12.9480483"><ele>246.25</ele><time>2026-04-26T10:05:54.263Z</time></trkpt><trkpt lat="43.404295" lon="12.948145"><ele>242.0</ele><time>2026-04-26T10:05:55.263Z</time></trkpt><trkpt lat="43.4041767" lon="12.94823"><ele>242.0</ele><time>2026-04-26T10:05:56.263Z</time></trkpt><trkpt lat="43.4040517" lon="12.9483"><ele>242.0</ele><time>2026-04-26T10:05:57.263Z</time></trkpt><trkpt lat="43.403925" lon="12.9483683"><ele>242.0</ele><time>2026-04-26T10:05:58.263Z</time></trkpt><trkpt lat="43.4038" lon="12.948445"><ele>242.0</ele><time>2026-04-26T10:05:59.263Z</time></trkpt><trkpt lat="43.4036767" lon="12.9485217"><ele>244.5</ele><time>2026-04-26T10:06:00.263Z</time></trkpt><trkpt lat="43.403555" lon="12.9485933"><ele>247.0</ele><time>2026-04-26T10:06:01.263Z</time></trkpt><trkpt lat="43.4034367" lon="12.9486517"><ele>249.5</ele><time>2026-04-26T10:06:02.263Z</time></trkpt><trkpt lat="43.4033283" lon="12.9487083"><ele>252.0</ele><time>2026-04-26T10:06:03.263Z</time></trkpt><trkpt lat="43.4032217" lon="12.948745"><ele>252.0</ele><time>2026-04-26T10:06:04.263Z</time></trkpt><trkpt lat="43.4031167" lon="12.948755"><ele>252.0</ele><time>2026-04-26T10:06:05.263Z</time></trkpt><trkpt lat="43.4030083" lon="12.94875"><ele>252.0</ele><time>2026-04-26T10:06:06.263Z</time></trkpt><trkpt lat="43.402905" lon="12.9487433"><ele>252.0</ele><time>2026-04-26T10:06:07.263Z</time></trkpt><trkpt lat="43.402805" lon="12.9487567"><ele>252.0</ele><time>2026-04-26T10:06:08.263Z</time></trkpt><trkpt lat="43.4027083" lon="12.9488"><ele>254.25</ele><time>2026-04-26T10:06:09.263Z</time></trkpt><trkpt lat="43.402615" lon="12.9488783"><ele>256.5</ele><time>2026-04-26T10:06:10.263Z</time></trkpt><trkpt lat="43.402525" lon="12.9489833"><ele>258.75</ele><time>2026-04-26T10:06:11.263Z</time></trkpt><trkpt lat="43.40243" lon="12.9491083"><ele>261.0</ele><time>2026-04-26T10:06:12.263Z</time></trkpt><trkpt lat="43.4023354" lon="12.9492344"><ele>262.25</ele><time>2026-04-26T10:06:13.263Z</time></trkpt><trkpt lat="43.4022361" lon="12.9493696"><ele>263.5</ele><time>2026-04-26T10:06:14.263Z</time></trkpt><trkpt lat="43.4021483" lon="12.9495117"><ele>264.75</ele><time>2026-04-26T10:06:15.263Z</time></trkpt><trkpt lat="43.4020755" lon="12.9496508"><ele>266.0</ele><time>2026-04-26T10:06:16.263Z</time></trkpt><trkpt lat="43.4020098" lon="12.9497952"><ele>266.0</ele><time>2026-04-26T10:06:17.263Z</time></trkpt><trkpt lat="43.4019568" lon="12.9499424"><ele>266.0</ele><time>2026-04-26T10:06:18.263Z</time></trkpt><trkpt lat="43.4019186" lon="12.9501018"><ele>266.0</ele><time>2026-04-26T10:06:19.263Z</time></trkpt><trkpt lat="43.4018873" lon="12.9502671"><ele>266.0</ele><time>2026-04-26T10:06:20.263Z</time></trkpt><trkpt lat="43.4018589" lon="12.9504403"><ele>266.0</ele><time>2026-04-26T10:06:21.264Z</time></trkpt><trkpt lat="43.4018311" lon="12.950607"><ele>266.0</ele><time>2026-04-26T10:06:22.263Z</time></trkpt><trkpt lat="43.4018033" lon="12.9507667"><ele>266.0</ele><time>2026-04-26T10:06:23.263Z</time></trkpt><trkpt lat="43.4017867" lon="12.950925"><ele>266.0</ele><time>2026-04-26T10:06:24.263Z</time></trkpt><trkpt lat="43.4017633" lon="12.9510817"><ele>266.0</ele><time>2026-04-26T10:06:25.263Z</time></trkpt><trkpt lat="43.4017367" lon="12.95123"><ele>266.0</ele><time>2026-04-26T10:06:26.263Z</time></trkpt><trkpt lat="43.40171" lon="12.9513817"><ele>266.0</ele><time>2026-04-26T10:06:27.263Z</time></trkpt><trkpt lat="43.4016817" lon="12.95154"><ele>266.0</ele><time>2026-04-26T10:06:28.263Z</time></trkpt><trkpt lat="43.4016567" lon="12.9517017"><ele>266.0</ele><time>2026-04-26T10:06:29.263Z</time></trkpt><trkpt lat="43.4016383" lon="12.9518583"><ele>266.0</ele><time>2026-04-26T10:06:30.263Z</time></trkpt><trkpt lat="43.40163" lon="12.9520183"><ele>266.0</ele><time>2026-04-26T10:06:31.263Z</time></trkpt><trkpt lat="43.4016283" lon="12.95218"><ele>266.0</ele><time>2026-04-26T10:06:32.263Z</time></trkpt><trkpt lat="43.4016267" lon="12.952355"><ele>266.0</ele><time>2026-04-26T10:06:33.263Z</time></trkpt><trkpt lat="43.4016317" lon="12.9525267"><ele>266.0</ele><time>2026-04-26T10:06:34.263Z</time></trkpt><trkpt lat="43.4016567" lon="12.9526917"><ele>266.0</ele><time>2026-04-26T10:06:35.263Z</time></trkpt><trkpt lat="43.4016733" lon="12.95286"><ele>266.0</ele><time>2026-04-26T10:06:36.263Z</time></trkpt><trkpt lat="43.4016833" lon="12.9530333"><ele>266.0</ele><time>2026-04-26T10:06:37.263Z</time></trkpt><trkpt lat="43.4016967" lon="12.9531933"><ele>266.0</ele><time>2026-04-26T10:06:38.263Z</time></trkpt><trkpt lat="43.4016933" lon="12.9533483"><ele>266.0</ele><time>2026-04-26T10:06:39.263Z</time></trkpt><trkpt lat="43.4017" lon="12.9535017"><ele>266.0</ele><time>2026-04-26T10:06:40.263Z</time></trkpt><trkpt lat="43.4017067" lon="12.9536617"><ele>266.0</ele><time>2026-04-26T10:06:41.263Z</time></trkpt><trkpt lat="43.4017217" lon="12.953835"><ele>266.0</ele><time>2026-04-26T10:06:42.263Z</time></trkpt><trkpt lat="43.4017333" lon="12.9540183"><ele>266.0</ele><time>2026-04-26T10:06:43.263Z</time></trkpt><trkpt lat="43.4017317" lon="12.95421"><ele>266.0</ele><time>2026-04-26T10:06:44.263Z</time></trkpt><trkpt lat="43.401725" lon="12.9543983"><ele>266.0</ele><time>2026-04-26T10:06:45.263Z</time></trkpt><trkpt lat="43.4017133" lon="12.9545783"><ele>266.0</ele><time>2026-04-26T10:06:46.263Z</time></trkpt><trkpt lat="43.4017" lon="12.9547517"><ele>266.0</ele><time>2026-04-26T10:06:47.263Z</time></trkpt><trkpt lat="43.4016933" lon="12.9549133"><ele>266.0</ele><time>2026-04-26T10:06:48.263Z</time></trkpt><trkpt lat="43.4017033" lon="12.955065"><ele>266.0</ele><time>2026-04-26T10:06:49.263Z</time></trkpt><trkpt lat="43.401695" lon="12.9552033"><ele>266.0</ele><time>2026-04-26T10:06:50.263Z</time></trkpt><trkpt lat="43.4016867" lon="12.9553467"><ele>266.0</ele><time>2026-04-26T10:06:51.264Z</time></trkpt><trkpt lat="43.4016783" lon="12.9554883"><ele>266.0</ele><time>2026-04-26T10:06:52.263Z</time></trkpt><trkpt lat="43.4016683" lon="12.955625"><ele>266.0</ele><time>2026-04-26T10:06:53.264Z</time></trkpt><trkpt lat="43.4016783" lon="12.9557517"><ele>266.0</ele><time>2026-04-26T10:06:54.263Z</time></trkpt><trkpt lat="43.4017133" lon="12.95587"><ele>266.0</ele><time>2026-04-26T10:06:55.263Z</time></trkpt><trkpt lat="43.401765" lon="12.9559683"><ele>266.0</ele><time>2026-04-26T10:06:56.264Z</time></trkpt><trkpt lat="43.4018217" lon="12.95606"><ele>266.0</ele><time>2026-04-26T10:06:57.263Z</time></trkpt><trkpt lat="43.4018633" lon="12.9561583"><ele>266.0</ele><time>2026-04-26T10:06:58.264Z</time></trkpt><trkpt lat="43.40189" lon="12.9562583"><ele>266.0</ele><time>2026-04-26T10:06:59.263Z</time></trkpt><trkpt lat="43.4018933" lon="12.9563683"><ele>266.0</ele><time>2026-04-26T10:07:00.263Z</time></trkpt><trkpt lat="43.401875" lon="12.9564783"><ele>266.0</ele><time>2026-04-26T10:07:01.263Z</time></trkpt><trkpt lat="43.401845" lon="12.9565867"><ele>266.0</ele><time>2026-04-26T10:07:02.263Z</time></trkpt><trkpt lat="43.4018133" lon="12.95669"><ele>266.0</ele><time>2026-04-26T10:07:03.263Z</time></trkpt><trkpt lat="43.4017867" lon="12.9567933"><ele>266.0</ele><time>2026-04-26T10:07:04.263Z</time></trkpt><trkpt lat="43.4017617" lon="12.95689"><ele>266.0</ele><time>2026-04-26T10:07:05.264Z</time></trkpt><trkpt lat="43.401745" lon="12.9569817"><ele>266.0</ele><time>2026-04-26T10:07:06.263Z</time></trkpt><trkpt lat="43.4017383" lon="12.9570767"><ele>266.0</ele><time>2026-04-26T10:07:07.264Z</time></trkpt><trkpt lat="43.40173" lon="12.9571833"><ele>266.0</ele><time>2026-04-26T10:07:08.263Z</time></trkpt><trkpt lat="43.401725" lon="12.957305"><ele>266.0</ele><time>2026-04-26T10:07:09.263Z</time></trkpt><trkpt lat="43.4017233" lon="12.95743"><ele>266.0</ele><time>2026-04-26T10:07:10.263Z</time></trkpt><trkpt lat="43.40172" lon="12.9575533"><ele>266.0</ele><time>2026-04-26T10:07:11.263Z</time></trkpt><trkpt lat="43.4017183" lon="12.957685"><ele>266.0</ele><time>2026-04-26T10:07:12.263Z</time></trkpt><trkpt lat="43.4017183" lon="12.9578317"><ele>266.0</ele><time>2026-04-26T10:07:13.263Z</time></trkpt><trkpt lat="43.40172" lon="12.9579917"><ele>266.0</ele><time>2026-04-26T10:07:14.263Z</time></trkpt><trkpt lat="43.4017183" lon="12.9581567"><ele>266.0</ele><time>2026-04-26T10:07:15.263Z</time></trkpt><trkpt lat="43.401715" lon="12.9583167"><ele>266.0</ele><time>2026-04-26T10:07:16.263Z</time></trkpt><trkpt lat="43.4017117" lon="12.95847"><ele>266.0</ele><time>2026-04-26T10:07:17.263Z</time></trkpt><trkpt lat="43.401705" lon="12.9586133"><ele>266.0</ele><time>2026-04-26T10:07:18.263Z</time></trkpt><trkpt lat="43.4017017" lon="12.95875"><ele>266.0</ele><time>2026-04-26T10:07:19.263Z</time></trkpt><trkpt lat="43.4016933" lon="12.9588767"><ele>266.0</ele><time>2026-04-26T10:07:20.263Z</time></trkpt><trkpt lat="43.40168" lon="12.9589983"><ele>266.0</ele><time>2026-04-26T10:07:21.263Z</time></trkpt><trkpt lat="43.4016583" lon="12.95911"><ele>266.0</ele><time>2026-04-26T10:07:22.263Z</time></trkpt><trkpt lat="43.401635" lon="12.9592083"><ele>266.0</ele><time>2026-04-26T10:07:23.263Z</time></trkpt><trkpt lat="43.401605" lon="12.9592967"><ele>266.0</ele><time>2026-04-26T10:07:24.263Z</time></trkpt><trkpt lat="43.4015683" lon="12.9593767"><ele>266.0</ele><time>2026-04-26T10:07:25.263Z</time></trkpt><trkpt lat="43.40153" lon="12.9594583"><ele>266.0</ele><time>2026-04-26T10:07:26.263Z</time></trkpt><trkpt lat="43.4014917" lon="12.959545"><ele>266.0</ele><time>2026-04-26T10:07:27.263Z</time></trkpt><trkpt lat="43.40145" lon="12.9596317"><ele>266.0</ele><time>2026-04-26T10:07:28.264Z</time></trkpt><trkpt lat="43.401405" lon="12.9597167"><ele>266.0</ele><time>2026-04-26T10:07:29.264Z</time></trkpt><trkpt lat="43.4013617" lon="12.9598017"><ele>266.0</ele><time>2026-04-26T10:07:30.263Z</time></trkpt><trkpt lat="43.4013183" lon="12.9598783"><ele>266.0</ele><time>2026-04-26T10:07:31.263Z</time></trkpt><trkpt lat="43.40127" lon="12.9599533"><ele>266.0</ele><time>2026-04-26T10:07:32.264Z</time></trkpt><trkpt lat="43.4012117" lon="12.9600233"><ele>266.0</ele><time>2026-04-26T10:07:33.263Z</time></trkpt><trkpt lat="43.4011467" lon="12.960095"><ele>266.0</ele><time>2026-04-26T10:07:34.263Z</time></trkpt><trkpt lat="43.40107" lon="12.960155"><ele>266.0</ele><time>2026-04-26T10:07:35.264Z</time></trkpt><trkpt lat="43.4009917" lon="12.9602233"><ele>266.0</ele><time>2026-04-26T10:07:36.263Z</time></trkpt><trkpt lat="43.4009117" lon="12.9602933"><ele>266.0</ele><time>2026-04-26T10:07:37.263Z</time></trkpt><trkpt lat="43.400835" lon="12.9603617"><ele>266.0</ele><time>2026-04-26T10:07:38.263Z</time></trkpt><trkpt lat="43.4007533" lon="12.9604367"><ele>266.0</ele><time>2026-04-26T10:07:39.263Z</time></trkpt><trkpt lat="43.4006783" lon="12.960525"><ele>266.0</ele><time>2026-04-26T10:07:40.263Z</time></trkpt><trkpt lat="43.4006117" lon="12.960615"><ele>266.0</ele><time>2026-04-26T10:07:41.263Z</time></trkpt><trkpt lat="43.4005667" lon="12.9607117"><ele>266.0</ele><time>2026-04-26T10:07:42.263Z</time></trkpt><trkpt lat="43.400525" lon="12.9608017"><ele>266.0</ele><time>2026-04-26T10:07:43.263Z</time></trkpt><trkpt lat="43.4004883" lon="12.9608967"><ele>266.0</ele><time>2026-04-26T10:07:44.263Z</time></trkpt><trkpt lat="43.4004567" lon="12.960995"><ele>266.0</ele><time>2026-04-26T10:07:45.263Z</time></trkpt><trkpt lat="43.40043" lon="12.961105"><ele>266.0</ele><time>2026-04-26T10:07:46.263Z</time></trkpt><trkpt lat="43.400395" lon="12.961215"><ele>266.0</ele><time>2026-04-26T10:07:47.263Z</time></trkpt><trkpt lat="43.4003617" lon="12.96132"><ele>266.0</ele><time>2026-04-26T10:07:48.263Z</time></trkpt><trkpt lat="43.4003283" lon="12.9614183"><ele>266.0</ele><time>2026-04-26T10:07:49.264Z</time></trkpt><trkpt lat="43.4003" lon="12.9615667"><ele>266.0</ele><time>2026-04-26T10:07:51.262Z</time></trkpt><trkpt lat="43.4003067" lon="12.961675"><ele>265.0</ele><time>2026-04-26T10:07:53.263Z</time></trkpt><trkpt lat="43.4003067" lon="12.961785"><ele>264.0</ele><time>2026-04-26T10:07:56.264Z</time></trkpt><trkpt lat="43.40033" lon="12.961895"><ele>263.0</ele><time>2026-04-26T10:07:58.263Z</time></trkpt><trkpt lat="43.40037" lon="12.9620483"><ele>262.0</ele><time>2026-04-26T10:08:00.263Z</time></trkpt><trkpt lat="43.4003917" lon="12.9621433"><ele>261.0</ele><time>2026-04-26T10:08:01.263Z</time></trkpt><trkpt lat="43.4004133" lon="12.9622517"><ele>260.0</ele><time>2026-04-26T10:08:02.263Z</time></trkpt><trkpt lat="43.4004383" lon="12.9623717"><ele>260.0</ele><time>2026-04-26T10:08:03.263Z</time></trkpt><trkpt lat="43.4004667" lon="12.9625017"><ele>260.0</ele><time>2026-04-26T10:08:04.263Z</time></trkpt><trkpt lat="43.4004967" lon="12.9626317"><ele>260.0</ele><time>2026-04-26T10:08:05.263Z</time></trkpt><trkpt lat="43.400525" lon="12.9627567"><ele>260.0</ele><time>2026-04-26T10:08:06.263Z</time></trkpt><trkpt lat="43.4005467" lon="12.96288"><ele>260.0</ele><time>2026-04-26T10:08:07.263Z</time></trkpt><trkpt lat="43.40056" lon="12.9630167"><ele>251.5</ele><time>2026-04-26T10:08:08.263Z</time></trkpt><trkpt lat="43.400565" lon="12.9631683"><ele>243.0</ele><time>2026-04-26T10:08:09.263Z</time></trkpt><trkpt lat="43.400565" lon="12.9633283"><ele>234.5</ele><time>2026-04-26T10:08:10.263Z</time></trkpt><trkpt lat="43.4005583" lon="12.9635017"><ele>226.0</ele><time>2026-04-26T10:08:11.263Z</time></trkpt><trkpt lat="43.4005483" lon="12.963685"><ele>223.75</ele><time>2026-04-26T10:08:12.263Z</time></trkpt><trkpt lat="43.4005333" lon="12.96387"><ele>221.5</ele><time>2026-04-26T10:08:13.263Z</time></trkpt><trkpt lat="43.4005233" lon="12.9640583"><ele>219.25</ele><time>2026-04-26T10:08:14.263Z</time></trkpt><trkpt lat="43.400515" lon="12.9642433"><ele>217.0</ele><time>2026-04-26T10:08:15.263Z</time></trkpt><trkpt lat="43.4005033" lon="12.964425"><ele>231.0</ele><time>2026-04-26T10:08:16.263Z</time></trkpt><trkpt lat="43.4004933" lon="12.9646083"><ele>245.0</ele><time>2026-04-26T10:08:17.263Z</time></trkpt><trkpt lat="43.4004833" lon="12.9647733"><ele>259.0</ele><time>2026-04-26T10:08:18.263Z</time></trkpt><trkpt lat="43.4004833" lon="12.9649317"><ele>273.0</ele><time>2026-04-26T10:08:19.263Z</time></trkpt><trkpt lat="43.4004967" lon="12.96508"><ele>262.5</ele><time>2026-04-26T10:08:20.263Z</time></trkpt><trkpt lat="43.4005267" lon="12.9652233"><ele>252.0</ele><time>2026-04-26T10:08:21.263Z</time></trkpt><trkpt lat="43.40058" lon="12.9653667"><ele>241.5</ele><time>2026-04-26T10:08:22.263Z</time></trkpt><trkpt lat="43.4006583" lon="12.9655017"><ele>231.0</ele><time>2026-04-26T10:08:23.263Z</time></trkpt><trkpt lat="43.4007467" lon="12.9656217"><ele>231.0</ele><time>2026-04-26T10:08:24.263Z</time></trkpt><trkpt lat="43.4008417" lon="12.9657217"><ele>231.0</ele><time>2026-04-26T10:08:25.263Z</time></trkpt><trkpt lat="43.4009367" lon="12.9658117"><ele>231.0</ele><time>2026-04-26T10:08:26.263Z</time></trkpt><trkpt lat="43.4010333" lon="12.965905"><ele>231.0</ele><time>2026-04-26T10:08:27.263Z</time></trkpt><trkpt lat="43.401125" lon="12.96599"><ele>228.8</ele><time>2026-04-26T10:08:28.263Z</time></trkpt><trkpt lat="43.4012167" lon="12.96608"><ele>226.60000000000002</ele><time>2026-04-26T10:08:29.263Z</time></trkpt><trkpt lat="43.40131" lon="12.9661667"><ele>224.4</ele><time>2026-04-26T10:08:30.263Z</time></trkpt><trkpt lat="43.4014083" lon="12.9662467"><ele>222.2</ele><time>2026-04-26T10:08:31.263Z</time></trkpt><trkpt lat="43.4014983" lon="12.9663217"><ele>220.0</ele><time>2026-04-26T10:08:32.263Z</time></trkpt><trkpt lat="43.40158" lon="12.9663867"><ele>219.99999999999997</ele><time>2026-04-26T10:08:33.263Z</time></trkpt><trkpt lat="43.4016567" lon="12.966455"><ele>220.0</ele><time>2026-04-26T10:08:34.263Z</time></trkpt><trkpt lat="43.4017317" lon="12.9665133"><ele>220.0</ele><time>2026-04-26T10:08:35.264Z</time></trkpt><trkpt lat="43.401805" lon="12.9665733"><ele>220.0</ele><time>2026-04-26T10:08:36.263Z</time></trkpt><trkpt lat="43.4018767" lon="12.9666333"><ele>219.99999999999997</ele><time>2026-04-26T10:08:37.263Z</time></trkpt><trkpt lat="43.40195" lon="12.9666933"><ele>220.0</ele><time>2026-04-26T10:08:38.263Z</time></trkpt><trkpt lat="43.4020183" lon="12.9667583"><ele>221.66666666666666</ele><time>2026-04-26T10:08:39.263Z</time></trkpt><trkpt lat="43.4020833" lon="12.96683"><ele>223.33333333333331</ele><time>2026-04-26T10:08:40.263Z</time></trkpt><trkpt lat="43.40215" lon="12.9669167"><ele>225.0</ele><time>2026-04-26T10:08:41.263Z</time></trkpt><trkpt lat="43.4022067" lon="12.9670067"><ele>226.66666666666669</ele><time>2026-04-26T10:08:42.263Z</time></trkpt><trkpt lat="43.402265" lon="12.9671017"><ele>228.33333333333334</ele><time>2026-04-26T10:08:43.263Z</time></trkpt><trkpt lat="43.4023117" lon="12.9671967"><ele>230.0</ele><time>2026-04-26T10:08:44.263Z</time></trkpt><trkpt lat="43.402345" lon="12.9672883"><ele>226.57142857142853</ele><time>2026-04-26T10:08:45.263Z</time></trkpt><trkpt lat="43.4023767" lon="12.9673783"><ele>223.14285714285714</ele><time>2026-04-26T10:08:46.263Z</time></trkpt><trkpt lat="43.4024" lon="12.9674667"><ele>219.7142857142857</ele><time>2026-04-26T10:08:47.263Z</time></trkpt><trkpt lat="43.4024217" lon="12.96756"><ele>216.28571428571428</ele><time>2026-04-26T10:08:48.263Z</time></trkpt><trkpt lat="43.4024383" lon="12.9676517"><ele>212.85714285714283</ele><time>2026-04-26T10:08:49.263Z</time></trkpt><trkpt lat="43.4024567" lon="12.9677433"><ele>209.42857142857142</ele><time>2026-04-26T10:08:50.263Z</time></trkpt><trkpt lat="43.4024817" lon="12.9678317"><ele>206.0</ele><time>2026-04-26T10:08:51.264Z</time></trkpt><trkpt lat="43.402495" lon="12.9679183"><ele>206.00000000000003</ele><time>2026-04-26T10:08:52.263Z</time></trkpt><trkpt lat="43.4025017" lon="12.968015"><ele>206.0</ele><time>2026-04-26T10:08:53.264Z</time></trkpt><trkpt lat="43.4025067" lon="12.96812"><ele>206.0</ele><time>2026-04-26T10:08:54.263Z</time></trkpt><trkpt lat="43.402515" lon="12.9682267"><ele>206.0</ele><time>2026-04-26T10:08:55.263Z</time></trkpt><trkpt lat="43.40251" lon="12.9683317"><ele>206.00000000000003</ele><time>2026-04-26T10:08:56.264Z</time></trkpt><trkpt lat="43.4025083" lon="12.96844"><ele>206.0</ele><time>2026-04-26T10:08:57.263Z</time></trkpt><trkpt lat="43.4024933" lon="12.9685483"><ele>206.14285714285714</ele><time>2026-04-26T10:08:58.263Z</time></trkpt><trkpt lat="43.4024833" lon="12.9686467"><ele>206.28571428571428</ele><time>2026-04-26T10:08:59.263Z</time></trkpt><trkpt lat="43.4024717" lon="12.968735"><ele>206.42857142857144</ele><time>2026-04-26T10:09:00.263Z</time></trkpt><trkpt lat="43.4024583" lon="12.96883"><ele>206.57142857142856</ele><time>2026-04-26T10:09:01.263Z</time></trkpt><trkpt lat="43.40244" lon="12.9689283"><ele>206.71428571428572</ele><time>2026-04-26T10:09:02.263Z</time></trkpt><trkpt lat="43.40241" lon="12.969025"><ele>206.85714285714286</ele><time>2026-04-26T10:09:03.263Z</time></trkpt><trkpt lat="43.4023783" lon="12.9691183"><ele>207.0</ele><time>2026-04-26T10:09:04.263Z</time></trkpt><trkpt lat="43.40234" lon="12.96921"><ele>206.33333333333334</ele><time>2026-04-26T10:09:05.264Z</time></trkpt><trkpt lat="43.4023" lon="12.9692967"><ele>205.66666666666669</ele><time>2026-04-26T10:09:06.263Z</time></trkpt><trkpt lat="43.402255" lon="12.96939"><ele>205.0</ele><time>2026-04-26T10:09:07.263Z</time></trkpt><trkpt lat="43.4022067" lon="12.9694867"><ele>204.33333333333334</ele><time>2026-04-26T10:09:08.263Z</time></trkpt><trkpt lat="43.40216" lon="12.969595"><ele>203.66666666666669</ele><time>2026-04-26T10:09:09.263Z</time></trkpt><trkpt lat="43.4021117" lon="12.969705"><ele>203.0</ele><time>2026-04-26T10:09:10.264Z</time></trkpt><trkpt lat="43.4020583" lon="12.9698117"><ele>203.8</ele><time>2026-04-26T10:09:11.263Z</time></trkpt><trkpt lat="43.402015" lon="12.9699317"><ele>204.60000000000002</ele><time>2026-04-26T10:09:12.263Z</time></trkpt><trkpt lat="43.4019667" lon="12.97005"><ele>205.39999999999998</ele><time>2026-04-26T10:09:13.263Z</time></trkpt><trkpt lat="43.4019033" lon="12.9701683"><ele>206.2</ele><time>2026-04-26T10:09:14.264Z</time></trkpt><trkpt lat="43.4018433" lon="12.970295"><ele>207.0</ele><time>2026-04-26T10:09:15.263Z</time></trkpt><trkpt lat="43.40178" lon="12.9704233"><ele>207.0</ele><time>2026-04-26T10:09:16.263Z</time></trkpt><trkpt lat="43.4017217" lon="12.9705617"><ele>207.0</ele><time>2026-04-26T10:09:17.263Z</time></trkpt><trkpt lat="43.401665" lon="12.970695"><ele>207.0</ele><time>2026-04-26T10:09:18.263Z</time></trkpt><trkpt lat="43.4016" lon="12.9708317"><ele>207.0</ele><time>2026-04-26T10:09:19.263Z</time></trkpt><trkpt lat="43.40153" lon="12.9709733"><ele>205.0</ele><time>2026-04-26T10:09:20.263Z</time></trkpt><trkpt lat="43.4014633" lon="12.9711183"><ele>203.0</ele><time>2026-04-26T10:09:21.263Z</time></trkpt><trkpt lat="43.401395" lon="12.9712733"><ele>201.0</ele><time>2026-04-26T10:09:22.263Z</time></trkpt><trkpt lat="43.4013333" lon="12.9714167"><ele>199.0</ele><time>2026-04-26T10:09:23.263Z</time></trkpt><trkpt lat="43.4012783" lon="12.9715633"><ele>200.6</ele><time>2026-04-26T10:09:24.263Z</time></trkpt><trkpt lat="43.401235" lon="12.971705"><ele>202.2</ele><time>2026-04-26T10:09:25.263Z</time></trkpt><trkpt lat="43.4012183" lon="12.9718517"><ele>203.79999999999998</ele><time>2026-04-26T10:09:26.263Z</time></trkpt><trkpt lat="43.401215" lon="12.9719983"><ele>205.39999999999998</ele><time>2026-04-26T10:09:27.263Z</time></trkpt><trkpt lat="43.401225" lon="12.9721417"><ele>207.0</ele><time>2026-04-26T10:09:28.263Z</time></trkpt><trkpt lat="43.4012383" lon="12.9722667"><ele>207.0</ele><time>2026-04-26T10:09:29.264Z</time></trkpt><trkpt lat="43.4012683" lon="12.9723917"><ele>207.0</ele><time>2026-04-26T10:09:30.263Z</time></trkpt><trkpt lat="43.4013" lon="12.9725167"><ele>207.0</ele><time>2026-04-26T10:09:31.263Z</time></trkpt><trkpt lat="43.4013267" lon="12.9726433"><ele>207.0</ele><time>2026-04-26T10:09:32.263Z</time></trkpt><trkpt lat="43.4013517" lon="12.97277"><ele>207.0</ele><time>2026-04-26T10:09:33.263Z</time></trkpt><trkpt lat="43.40138" lon="12.9729"><ele>206.39999999999998</ele><time>2026-04-26T10:09:34.263Z</time></trkpt><trkpt lat="43.4014083" lon="12.9730283"><ele>205.79999999999998</ele><time>2026-04-26T10:09:35.263Z</time></trkpt><trkpt lat="43.40144" lon="12.973155"><ele>205.2</ele><time>2026-04-26T10:09:36.263Z</time></trkpt><trkpt lat="43.40147" lon="12.9732817"><ele>204.6</ele><time>2026-04-26T10:09:37.263Z</time></trkpt><trkpt lat="43.4015033" lon="12.9733967"><ele>204.0</ele><time>2026-04-26T10:09:38.263Z</time></trkpt><trkpt lat="43.4015267" lon="12.9735167"><ele>206.0</ele><time>2026-04-26T10:09:39.263Z</time></trkpt><trkpt lat="43.4015533" lon="12.973625"><ele>208.0</ele><time>2026-04-26T10:09:40.263Z</time></trkpt><trkpt lat="43.40159" lon="12.97374"><ele>209.99999999999997</ele><time>2026-04-26T10:09:41.263Z</time></trkpt><trkpt lat="43.4016233" lon="12.97386"><ele>212.0</ele><time>2026-04-26T10:09:42.264Z</time></trkpt><trkpt lat="43.4016567" lon="12.9739883"><ele>214.0</ele><time>2026-04-26T10:09:43.263Z</time></trkpt><trkpt lat="43.40171" lon="12.97411"><ele>214.6</ele><time>2026-04-26T10:09:44.263Z</time></trkpt><trkpt lat="43.4017717" lon="12.9742233"><ele>215.2</ele><time>2026-04-26T10:09:45.263Z</time></trkpt><trkpt lat="43.4018317" lon="12.9743217"><ele>215.79999999999998</ele><time>2026-04-26T10:09:46.263Z</time></trkpt><trkpt lat="43.401905" lon="12.9743883"><ele>216.39999999999998</ele><time>2026-04-26T10:09:47.263Z</time></trkpt><trkpt lat="43.4019833" lon="12.9744283"><ele>217.0</ele><time>2026-04-26T10:09:48.263Z</time></trkpt><trkpt lat="43.4020833" lon="12.9744467"><ele>212.0</ele><time>2026-04-26T10:09:49.263Z</time></trkpt><trkpt lat="43.4022083" lon="12.9744433"><ele>207.0</ele><time>2026-04-26T10:09:50.264Z</time></trkpt><trkpt lat="43.4023417" lon="12.9744483"><ele>202.0</ele><time>2026-04-26T10:09:51.263Z</time></trkpt><trkpt lat="43.4024683" lon="12.97447"><ele>197.0</ele><time>2026-04-26T10:09:52.263Z</time></trkpt><trkpt lat="43.4026067" lon="12.9744867"><ele>197.0</ele><time>2026-04-26T10:09:53.263Z</time></trkpt><trkpt lat="43.4027367" lon="12.97451"><ele>197.0</ele><time>2026-04-26T10:09:54.264Z</time></trkpt><trkpt lat="43.4028717" lon="12.974525"><ele>197.0</ele><time>2026-04-26T10:09:55.264Z</time></trkpt><trkpt lat="43.4030017" lon="12.9745383"><ele>197.0</ele><time>2026-04-26T10:09:56.263Z</time></trkpt><trkpt lat="43.4031233" lon="12.9745517"><ele>196.75</ele><time>2026-04-26T10:09:57.263Z</time></trkpt><trkpt lat="43.40324" lon="12.9745667"><ele>196.5</ele><time>2026-04-26T10:09:58.263Z</time></trkpt><trkpt lat="43.4033567" lon="12.9745833"><ele>196.25</ele><time>2026-04-26T10:09:59.263Z</time></trkpt><trkpt lat="43.403465" lon="12.9746033"><ele>196.0</ele><time>2026-04-26T10:10:00.263Z</time></trkpt><trkpt lat="43.4035733" lon="12.97462"><ele>196.0</ele><time>2026-04-26T10:10:01.263Z</time></trkpt><trkpt lat="43.4036817" lon="12.9746433"><ele>196.0</ele><time>2026-04-26T10:10:02.263Z</time></trkpt><trkpt lat="43.4037817" lon="12.9746717"><ele>196.0</ele><time>2026-04-26T10:10:03.263Z</time></trkpt><trkpt lat="43.403885" lon="12.97471"><ele>196.0</ele><time>2026-04-26T10:10:04.263Z</time></trkpt><trkpt lat="43.4039767" lon="12.9747617"><ele>196.0</ele><time>2026-04-26T10:10:05.263Z</time></trkpt><trkpt lat="43.40407" lon="12.9748167"><ele>195.20000000000002</ele><time>2026-04-26T10:10:06.263Z</time></trkpt><trkpt lat="43.4041567" lon="12.974885"><ele>194.4</ele><time>2026-04-26T10:10:07.263Z</time></trkpt><trkpt lat="43.404245" lon="12.974965"><ele>193.6</ele><time>2026-04-26T10:10:08.263Z</time></trkpt><trkpt lat="43.4043267" lon="12.9750683"><ele>192.8</ele><time>2026-04-26T10:10:09.263Z</time></trkpt><trkpt lat="43.4044083" lon="12.97518"><ele>192.0</ele><time>2026-04-26T10:10:10.263Z</time></trkpt><trkpt lat="43.4044867" lon="12.9753117"><ele>192.0</ele><time>2026-04-26T10:10:11.263Z</time></trkpt><trkpt lat="43.404555" lon="12.975455"><ele>192.0</ele><time>2026-04-26T10:10:12.263Z</time></trkpt><trkpt lat="43.4046183" lon="12.97559"><ele>192.0</ele><time>2026-04-26T10:10:13.263Z</time></trkpt><trkpt lat="43.4046617" lon="12.9757233"><ele>192.0</ele><time>2026-04-26T10:10:14.263Z</time></trkpt><trkpt lat="43.4046833" lon="12.9758567"><ele>192.0</ele><time>2026-04-26T10:10:15.263Z</time></trkpt><trkpt lat="43.4047017" lon="12.9759983"><ele>193.39999999999998</ele><time>2026-04-26T10:10:16.263Z</time></trkpt><trkpt lat="43.40472" lon="12.9761283"><ele>194.79999999999998</ele><time>2026-04-26T10:10:17.263Z</time></trkpt><trkpt lat="43.40473" lon="12.9762633"><ele>196.2</ele><time>2026-04-26T10:10:18.263Z</time></trkpt><trkpt lat="43.4047517" lon="12.9764117"><ele>197.6</ele><time>2026-04-26T10:10:19.263Z</time></trkpt><trkpt lat="43.404765" lon="12.976555"><ele>199.0</ele><time>2026-04-26T10:10:20.263Z</time></trkpt><trkpt lat="43.4047817" lon="12.97669"><ele>199.0</ele><time>2026-04-26T10:10:21.263Z</time></trkpt><trkpt lat="43.4047967" lon="12.976825"><ele>199.0</ele><time>2026-04-26T10:10:22.263Z</time></trkpt><trkpt lat="43.404815" lon="12.9769583"><ele>199.0</ele><time>2026-04-26T10:10:23.263Z</time></trkpt><trkpt lat="43.4048333" lon="12.9770833"><ele>199.0</ele><time>2026-04-26T10:10:24.263Z</time></trkpt><trkpt lat="43.4048533" lon="12.9772"><ele>199.0</ele><time>2026-04-26T10:10:25.263Z</time></trkpt><trkpt lat="43.4048733" lon="12.9773117"><ele>198.99999999999997</ele><time>2026-04-26T10:10:26.263Z</time></trkpt><trkpt lat="43.4049033" lon="12.9774233"><ele>199.0</ele><time>2026-04-26T10:10:27.263Z</time></trkpt><trkpt lat="43.4049417" lon="12.9775333"><ele>199.0</ele><time>2026-04-26T10:10:28.263Z</time></trkpt><trkpt lat="43.404985" lon="12.9776233"><ele>199.0</ele><time>2026-04-26T10:10:29.263Z</time></trkpt><trkpt lat="43.4050333" lon="12.9777033"><ele>198.99999999999997</ele><time>2026-04-26T10:10:30.264Z</time></trkpt><trkpt lat="43.4050683" lon="12.9777933"><ele>199.0</ele><time>2026-04-26T10:10:31.263Z</time></trkpt><trkpt lat="43.4051033" lon="12.9778867"><ele>197.2</ele><time>2026-04-26T10:10:32.263Z</time></trkpt><trkpt lat="43.40515" lon="12.9779767"><ele>195.39999999999998</ele><time>2026-04-26T10:10:33.263Z</time></trkpt><trkpt lat="43.4052" lon="12.97807"><ele>193.6</ele><time>2026-04-26T10:10:34.263Z</time></trkpt><trkpt lat="43.4052583" lon="12.978165"><ele>191.8</ele><time>2026-04-26T10:10:35.263Z</time></trkpt><trkpt lat="43.4053167" lon="12.9782667"><ele>190.0</ele><time>2026-04-26T10:10:36.263Z</time></trkpt><trkpt lat="43.40538" lon="12.9783833"><ele>189.25</ele><time>2026-04-26T10:10:37.263Z</time></trkpt><trkpt lat="43.4054533" lon="12.9785083"><ele>188.5</ele><time>2026-04-26T10:10:38.263Z</time></trkpt><trkpt lat="43.405525" lon="12.9786567"><ele>187.75</ele><time>2026-04-26T10:10:39.263Z</time></trkpt><trkpt lat="43.4055917" lon="12.9787883"><ele>187.0</ele><time>2026-04-26T10:10:40.263Z</time></trkpt><trkpt lat="43.4056567" lon="12.978905"><ele>186.83333333333334</ele><time>2026-04-26T10:10:41.263Z</time></trkpt><trkpt lat="43.4057317" lon="12.9790117"><ele>186.66666666666669</ele><time>2026-04-26T10:10:42.263Z</time></trkpt><trkpt lat="43.405795" lon="12.97911"><ele>186.5</ele><time>2026-04-26T10:10:43.263Z</time></trkpt><trkpt lat="43.4058417" lon="12.9792"><ele>186.33333333333334</ele><time>2026-04-26T10:10:44.263Z</time></trkpt><trkpt lat="43.4058867" lon="12.9792833"><ele>186.16666666666666</ele><time>2026-04-26T10:10:45.263Z</time></trkpt><trkpt lat="43.405925" lon="12.9793633"><ele>186.0</ele><time>2026-04-26T10:10:46.264Z</time></trkpt><trkpt lat="43.405975" lon="12.9794667"><ele>185.83333333333334</ele><time>2026-04-26T10:10:48.263Z</time></trkpt><trkpt lat="43.4060267" lon="12.97957"><ele>185.66666666666666</ele><time>2026-04-26T10:10:51.263Z</time></trkpt><trkpt lat="43.4060683" lon="12.97968"><ele>185.5</ele><time>2026-04-26T10:10:53.263Z</time></trkpt><trkpt lat="43.4061183" lon="12.9797867"><ele>185.33333333333331</ele><time>2026-04-26T10:10:55.263Z</time></trkpt><trkpt lat="43.40615" lon="12.9798733"><ele>185.16666666666666</ele><time>2026-04-26T10:10:57.263Z</time></trkpt><trkpt lat="43.4061567" lon="12.9799733"><ele>185.0</ele><time>2026-04-26T10:11:00.263Z</time></trkpt><trkpt lat="43.4061917" lon="12.97989"><ele>185.0</ele><time>2026-04-26T10:11:05.263Z</time></trkpt><trkpt lat="43.4061417" lon="12.9797467"><ele>185.0</ele><time>2026-04-26T10:11:07.263Z</time></trkpt><trkpt lat="43.40607" lon="12.9796433"><ele>185.0</ele><time>2026-04-26T10:11:09.263Z</time></trkpt><trkpt lat="43.40602" lon="12.9795617"><ele>185.0</ele><time>2026-04-26T10:11:12.263Z</time></trkpt><trkpt lat="43.4062822" lon="12.9798562"><ele>185.0</ele><time>2026-04-26T10:15:03.285Z</time></trkpt><trkpt lat="43.4061632" lon="12.9796303"><ele>185.0</ele><time>2026-04-26T10:15:04.285Z</time></trkpt><trkpt lat="43.406121" lon="12.9795262"><ele>185.0</ele><time>2026-04-26T10:15:06.285Z</time></trkpt><trkpt lat="43.4061464" lon="12.9796469"><ele>185.0</ele><time>2026-04-26T10:15:08.285Z</time></trkpt><trkpt lat="43.4060695" lon="12.979498"><ele>185.0</ele><time>2026-04-26T10:15:19.273Z</time></trkpt><trkpt lat="43.4058118" lon="12.9796195"><ele>185.0</ele><time>2026-04-26T10:16:05.284Z</time></trkpt><trkpt lat="43.4058534" lon="12.979551"><ele>185.0</ele><time>2026-04-26T10:16:06.284Z</time></trkpt><trkpt lat="43.4059208" lon="12.9794526"><ele>185.0</ele><time>2026-04-26T10:16:09.284Z</time></trkpt><trkpt lat="43.4059783" lon="12.9795088"><ele>185.0</ele><time>2026-04-26T10:16:13.398Z</time></trkpt><trkpt lat="43.4059607" lon="12.9795983"><ele>185.0</ele><time>2026-04-26T10:17:19.343Z</time></trkpt><trkpt lat="43.4059264" lon="12.9796854"><ele>185.0</ele><time>2026-04-26T10:20:13.304Z</time></trkpt><trkpt lat="43.4059675" lon="12.9796131"><ele>185.0</ele><time>2026-04-26T10:21:28.284Z</time></trkpt><trkpt lat="43.406036" lon="12.9796564"><ele>185.0</ele><time>2026-04-26T10:32:55.283Z</time></trkpt><trkpt lat="43.406115" lon="12.9798066"><ele>185.0</ele><time>2026-04-26T10:32:56.284Z</time></trkpt><trkpt lat="43.4061994" lon="12.9799821"><ele>185.75</ele><time>2026-04-26T10:32:57.283Z</time></trkpt><trkpt lat="43.4062862" lon="12.9801544"><ele>186.5</ele><time>2026-04-26T10:32:58.283Z</time></trkpt><trkpt lat="43.4063687" lon="12.9803029"><ele>187.25</ele><time>2026-04-26T10:32:59.283Z</time></trkpt><trkpt lat="43.4064317" lon="12.9804197"><ele>188.0</ele><time>2026-04-26T10:33:00.283Z</time></trkpt><trkpt lat="43.4064828" lon="12.9805071"><ele>188.0</ele><time>2026-04-26T10:33:01.283Z</time></trkpt><trkpt lat="43.4065192" lon="12.9805817"><ele>188.0</ele><time>2026-04-26T10:33:02.283Z</time></trkpt><trkpt lat="43.4065542" lon="12.9806575"><ele>188.0</ele><time>2026-04-26T10:33:03.283Z</time></trkpt><trkpt lat="43.4066021" lon="12.9807986"><ele>188.0</ele><time>2026-04-26T10:33:05.283Z</time></trkpt><trkpt lat="43.4066367" lon="12.9808867"><ele>188.0</ele><time>2026-04-26T10:33:07.283Z</time></trkpt><trkpt lat="43.406725" lon="12.9809467"><ele>188.0</ele><time>2026-04-26T10:33:09.283Z</time></trkpt><trkpt lat="43.4067917" lon="12.980945"><ele>188.0</ele><time>2026-04-26T10:33:10.283Z</time></trkpt><trkpt lat="43.406875" lon="12.98092"><ele>188.0</ele><time>2026-04-26T10:33:11.283Z</time></trkpt><trkpt lat="43.4069683" lon="12.980865"><ele>188.0</ele><time>2026-04-26T10:33:12.283Z</time></trkpt><trkpt lat="43.4070667" lon="12.980805"><ele>188.0</ele><time>2026-04-26T10:33:13.283Z</time></trkpt><trkpt lat="43.4071767" lon="12.980735"><ele>188.0</ele><time>2026-04-26T10:33:14.283Z</time></trkpt><trkpt lat="43.4072983" lon="12.9806717"><ele>188.75</ele><time>2026-04-26T10:33:15.283Z</time></trkpt><trkpt lat="43.4074317" lon="12.9806017"><ele>189.5</ele><time>2026-04-26T10:33:16.283Z</time></trkpt><trkpt lat="43.4075633" lon="12.9805317"><ele>190.25</ele><time>2026-04-26T10:33:17.283Z</time></trkpt><trkpt lat="43.4076817" lon="12.980465"><ele>191.0</ele><time>2026-04-26T10:33:18.283Z</time></trkpt><trkpt lat="43.4078017" lon="12.9804"><ele>191.0</ele><time>2026-04-26T10:33:19.283Z</time></trkpt><trkpt lat="43.4079183" lon="12.980335"><ele>191.0</ele><time>2026-04-26T10:33:20.283Z</time></trkpt><trkpt lat="43.4080383" lon="12.9802783"><ele>191.0</ele><time>2026-04-26T10:33:21.284Z</time></trkpt><trkpt lat="43.4081483" lon="12.9802217"><ele>191.0</ele><time>2026-04-26T10:33:22.283Z</time></trkpt><trkpt lat="43.408255" lon="12.9801633"><ele>190.33333333333331</ele><time>2026-04-26T10:33:23.283Z</time></trkpt><trkpt lat="43.4083583" lon="12.9801233"><ele>189.66666666666666</ele><time>2026-04-26T10:33:24.283Z</time></trkpt><trkpt lat="43.4084583" lon="12.9800817"><ele>189.0</ele><time>2026-04-26T10:33:25.284Z</time></trkpt><trkpt lat="43.4085467" lon="12.9800483"><ele>188.33333333333334</ele><time>2026-04-26T10:33:26.283Z</time></trkpt><trkpt lat="43.4086183" lon="12.98002"><ele>187.66666666666669</ele><time>2026-04-26T10:33:27.283Z</time></trkpt><trkpt lat="43.4086867" lon="12.9799933"><ele>187.0</ele><time>2026-04-26T10:33:28.283Z</time></trkpt><trkpt lat="43.4087483" lon="12.9799567"><ele>187.6</ele><time>2026-04-26T10:33:29.283Z</time></trkpt><trkpt lat="43.4088267" lon="12.9798183"><ele>188.2</ele><time>2026-04-26T10:33:31.283Z</time></trkpt><trkpt lat="43.4088333" lon="12.9797017"><ele>188.8</ele><time>2026-04-26T10:33:32.283Z</time></trkpt><trkpt lat="43.40883" lon="12.9795517"><ele>189.4</ele><time>2026-04-26T10:33:33.284Z</time></trkpt><trkpt lat="43.40883" lon="12.9794067"><ele>190.0</ele><time>2026-04-26T10:33:34.283Z</time></trkpt><trkpt lat="43.408845" lon="12.979265"><ele>188.0</ele><time>2026-04-26T10:33:35.283Z</time></trkpt><trkpt lat="43.4088933" lon="12.9791417"><ele>186.0</ele><time>2026-04-26T10:33:36.283Z</time></trkpt><trkpt lat="43.4089617" lon="12.9790167"><ele>184.0</ele><time>2026-04-26T10:33:37.283Z</time></trkpt><trkpt lat="43.4090533" lon="12.9789067"><ele>182.0</ele><time>2026-04-26T10:33:38.283Z</time></trkpt><trkpt lat="43.4091617" lon="12.9788217"><ele>182.0</ele><time>2026-04-26T10:33:39.284Z</time></trkpt><trkpt lat="43.4092933" lon="12.9787567"><ele>182.0</ele><time>2026-04-26T10:33:40.283Z</time></trkpt><trkpt lat="43.4094367" lon="12.9787"><ele>182.0</ele><time>2026-04-26T10:33:41.283Z</time></trkpt><trkpt lat="43.4095867" lon="12.97865"><ele>182.0</ele><time>2026-04-26T10:33:42.283Z</time></trkpt><trkpt lat="43.4097433" lon="12.9785967"><ele>182.0</ele><time>2026-04-26T10:33:43.283Z</time></trkpt><trkpt lat="43.4099117" lon="12.978545"><ele>182.0</ele><time>2026-04-26T10:33:44.283Z</time></trkpt><trkpt lat="43.4100633" lon="12.9785067"><ele>182.0</ele><time>2026-04-26T10:33:45.283Z</time></trkpt><trkpt lat="43.4102083" lon="12.9784983"><ele>182.0</ele><time>2026-04-26T10:33:46.283Z</time></trkpt><trkpt lat="43.4103433" lon="12.9785167"><ele>182.0</ele><time>2026-04-26T10:33:47.283Z</time></trkpt><trkpt lat="43.410475" lon="12.978555"><ele>182.0</ele><time>2026-04-26T10:33:48.283Z</time></trkpt><trkpt lat="43.4105983" lon="12.978605"><ele>182.0</ele><time>2026-04-26T10:33:49.284Z</time></trkpt><trkpt lat="43.4107083" lon="12.9786683"><ele>182.0</ele><time>2026-04-26T10:33:50.283Z</time></trkpt><trkpt lat="43.4107967" lon="12.9787417"><ele>182.0</ele><time>2026-04-26T10:33:51.283Z</time></trkpt><trkpt lat="43.4108633" lon="12.9788233"><ele>182.0</ele><time>2026-04-26T10:33:52.283Z</time></trkpt><trkpt lat="43.410925" lon="12.9789033"><ele>182.0</ele><time>2026-04-26T10:33:53.283Z</time></trkpt><trkpt lat="43.4109983" lon="12.9789633"><ele>182.0</ele><time>2026-04-26T10:33:54.283Z</time></trkpt><trkpt lat="43.4110783" lon="12.97899"><ele>182.0</ele><time>2026-04-26T10:33:55.283Z</time></trkpt><trkpt lat="43.411165" lon="12.9789867"><ele>182.0</ele><time>2026-04-26T10:33:56.283Z</time></trkpt><trkpt lat="43.411245" lon="12.9789733"><ele>182.0</ele><time>2026-04-26T10:33:57.283Z</time></trkpt><trkpt lat="43.4112183" lon="12.978865"><ele>182.0</ele><time>2026-04-26T10:34:08.283Z</time></trkpt><trkpt lat="43.4112033" lon="12.9787783"><ele>182.0</ele><time>2026-04-26T10:34:10.283Z</time></trkpt><trkpt lat="43.4112983" lon="12.97871"><ele>182.0</ele><time>2026-04-26T10:34:12.283Z</time></trkpt><trkpt lat="43.4113833" lon="12.97873"><ele>182.0</ele><time>2026-04-26T10:34:13.283Z</time></trkpt><trkpt lat="43.4114733" lon="12.978795"><ele>182.5</ele><time>2026-04-26T10:34:14.283Z</time></trkpt><trkpt lat="43.4115617" lon="12.978905"><ele>183.0</ele><time>2026-04-26T10:34:15.283Z</time></trkpt><trkpt lat="43.41164" lon="12.9790517"><ele>183.5</ele><time>2026-04-26T10:34:16.283Z</time></trkpt><trkpt lat="43.4117283" lon="12.9792317"><ele>184.0</ele><time>2026-04-26T10:34:17.283Z</time></trkpt><trkpt lat="43.4118167" lon="12.9794317"><ele>187.66666666666669</ele><time>2026-04-26T10:34:18.283Z</time></trkpt><trkpt lat="43.4119" lon="12.9796117"><ele>191.33333333333334</ele><time>2026-04-26T10:34:19.283Z</time></trkpt><trkpt lat="43.4119733" lon="12.979795"><ele>195.0</ele><time>2026-04-26T10:34:20.283Z</time></trkpt><trkpt lat="43.41209" lon="12.97994"><ele>202.33333333333331</ele><time>2026-04-26T10:34:21.284Z</time></trkpt><trkpt lat="43.412225" lon="12.98005"><ele>209.66666666666666</ele><time>2026-04-26T10:34:22.283Z</time></trkpt><trkpt lat="43.41237" lon="12.9801383"><ele>217.0</ele><time>2026-04-26T10:34:23.284Z</time></trkpt><trkpt lat="43.412525" lon="12.9802133"><ele>217.0</ele><time>2026-04-26T10:34:24.284Z</time></trkpt><trkpt lat="43.412655" lon="12.9802917"><ele>217.0</ele><time>2026-04-26T10:34:25.283Z</time></trkpt><trkpt lat="43.4127833" lon="12.9803733"><ele>217.0</ele><time>2026-04-26T10:34:26.283Z</time></trkpt><trkpt lat="43.41289" lon="12.9804767"><ele>217.0</ele><time>2026-04-26T10:34:27.284Z</time></trkpt><trkpt lat="43.41299" lon="12.9806017"><ele>219.33333333333331</ele><time>2026-04-26T10:34:28.283Z</time></trkpt><trkpt lat="43.4130817" lon="12.9807533"><ele>221.66666666666669</ele><time>2026-04-26T10:34:29.283Z</time></trkpt><trkpt lat="43.41318" lon="12.9809317"><ele>224.0</ele><time>2026-04-26T10:34:30.283Z</time></trkpt><trkpt lat="43.4132767" lon="12.9811467"><ele>224.0</ele><time>2026-04-26T10:34:31.283Z</time></trkpt><trkpt lat="43.4133867" lon="12.9813783"><ele>224.0</ele><time>2026-04-26T10:34:32.283Z</time></trkpt><trkpt lat="43.41349" lon="12.9815967"><ele>224.0</ele><time>2026-04-26T10:34:33.283Z</time></trkpt><trkpt lat="43.4135833" lon="12.981785"><ele>220.75</ele><time>2026-04-26T10:34:34.283Z</time></trkpt><trkpt lat="43.4136783" lon="12.98195"><ele>217.5</ele><time>2026-04-26T10:34:35.283Z</time></trkpt><trkpt lat="43.413775" lon="12.9820917"><ele>214.25</ele><time>2026-04-26T10:34:36.283Z</time></trkpt><trkpt lat="43.41389" lon="12.9822167"><ele>211.0</ele><time>2026-04-26T10:34:37.283Z</time></trkpt><trkpt lat="43.4140117" lon="12.9823417"><ele>211.0</ele><time>2026-04-26T10:34:38.283Z</time></trkpt><trkpt lat="43.41414" lon="12.982455"><ele>211.0</ele><time>2026-04-26T10:34:39.283Z</time></trkpt><trkpt lat="43.4142617" lon="12.9825733"><ele>211.0</ele><time>2026-04-26T10:34:40.283Z</time></trkpt><trkpt lat="43.414375" lon="12.9826983"><ele>211.0</ele><time>2026-04-26T10:34:41.283Z</time></trkpt><trkpt lat="43.4144817" lon="12.9828233"><ele>211.5</ele><time>2026-04-26T10:34:42.283Z</time></trkpt><trkpt lat="43.4145967" lon="12.9829417"><ele>212.0</ele><time>2026-04-26T10:34:43.283Z</time></trkpt><trkpt lat="43.4147083" lon="12.9830433"><ele>212.5</ele><time>2026-04-26T10:34:44.283Z</time></trkpt><trkpt lat="43.4148017" lon="12.98313"><ele>213.0</ele><time>2026-04-26T10:34:45.283Z</time></trkpt><trkpt lat="43.4148867" lon="12.9832133"><ele>213.0</ele><time>2026-04-26T10:34:46.283Z</time></trkpt><trkpt lat="43.4149667" lon="12.9833083"><ele>213.0</ele><time>2026-04-26T10:34:47.283Z</time></trkpt><trkpt lat="43.4150533" lon="12.9834233"><ele>213.0</ele><time>2026-04-26T10:34:48.283Z</time></trkpt><trkpt lat="43.41514" lon="12.98355"><ele>213.0</ele><time>2026-04-26T10:34:49.283Z</time></trkpt><trkpt lat="43.4152167" lon="12.9836917"><ele>213.5</ele><time>2026-04-26T10:34:50.283Z</time></trkpt><trkpt lat="43.415305" lon="12.9838383"><ele>214.0</ele><time>2026-04-26T10:34:51.283Z</time></trkpt><trkpt lat="43.4153883" lon="12.9839783"><ele>214.5</ele><time>2026-04-26T10:34:52.283Z</time></trkpt><trkpt lat="43.4154517" lon="12.9841317"><ele>215.0</ele><time>2026-04-26T10:34:53.283Z</time></trkpt><trkpt lat="43.4155167" lon="12.9842717"><ele>215.0</ele><time>2026-04-26T10:34:54.283Z</time></trkpt><trkpt lat="43.415585" lon="12.98439"><ele>215.0</ele><time>2026-04-26T10:34:55.283Z</time></trkpt><trkpt lat="43.4156383" lon="12.9845017"><ele>215.0</ele><time>2026-04-26T10:34:56.283Z</time></trkpt><trkpt lat="43.4156833" lon="12.9846183"><ele>215.0</ele><time>2026-04-26T10:34:57.284Z</time></trkpt><trkpt lat="43.4157367" lon="12.9847417"><ele>215.0</ele><time>2026-04-26T10:34:58.283Z</time></trkpt><trkpt lat="43.4157817" lon="12.984885"><ele>215.6</ele><time>2026-04-26T10:34:59.283Z</time></trkpt><trkpt lat="43.415825" lon="12.985035"><ele>216.2</ele><time>2026-04-26T10:35:00.283Z</time></trkpt><trkpt lat="43.4158667" lon="12.9851767"><ele>216.8</ele><time>2026-04-26T10:35:01.283Z</time></trkpt><trkpt lat="43.4159183" lon="12.985325"><ele>217.4</ele><time>2026-04-26T10:35:02.283Z</time></trkpt><trkpt lat="43.4159583" lon="12.98545"><ele>218.0</ele><time>2026-04-26T10:35:03.283Z</time></trkpt><trkpt lat="43.41599" lon="12.9855617"><ele>218.0</ele><time>2026-04-26T10:35:04.283Z</time></trkpt><trkpt lat="43.4160267" lon="12.9856467"><ele>218.0</ele><time>2026-04-26T10:35:05.283Z</time></trkpt><trkpt lat="43.4160783" lon="12.98577"><ele>218.0</ele><time>2026-04-26T10:35:07.283Z</time></trkpt><trkpt lat="43.416035" lon="12.9858817"><ele>218.0</ele><time>2026-04-26T10:35:10.283Z</time></trkpt><trkpt lat="43.4159083" lon="12.985955"><ele>218.0</ele><time>2026-04-26T10:35:12.283Z</time></trkpt><trkpt lat="43.41584" lon="12.9860083"><ele>219.50000000000003</ele><time>2026-04-26T10:35:13.283Z</time></trkpt><trkpt lat="43.41578" lon="12.98608"><ele>221.0</ele><time>2026-04-26T10:35:14.283Z</time></trkpt><trkpt lat="43.415725" lon="12.9861683"><ele>222.5</ele><time>2026-04-26T10:35:15.283Z</time></trkpt><trkpt lat="43.415675" lon="12.9862733"><ele>224.0</ele><time>2026-04-26T10:35:16.283Z</time></trkpt><trkpt lat="43.4156267" lon="12.9863817"><ele>225.50000000000003</ele><time>2026-04-26T10:35:17.283Z</time></trkpt><trkpt lat="43.41559" lon="12.9864883"><ele>227.0</ele><time>2026-04-26T10:35:18.283Z</time></trkpt><trkpt lat="43.4155467" lon="12.986595"><ele>230.39999999999998</ele><time>2026-04-26T10:35:19.283Z</time></trkpt><trkpt lat="43.4155" lon="12.9866967"><ele>233.79999999999998</ele><time>2026-04-26T10:35:20.282Z</time></trkpt><trkpt lat="43.415455" lon="12.9868067"><ele>237.2</ele><time>2026-04-26T10:35:21.282Z</time></trkpt><trkpt lat="43.4154117" lon="12.9869183"><ele>240.6</ele><time>2026-04-26T10:35:22.282Z</time></trkpt><trkpt lat="43.4153617" lon="12.98704"><ele>244.0</ele><time>2026-04-26T10:35:23.282Z</time></trkpt><trkpt lat="43.4153083" lon="12.9871533"><ele>246.16666666666666</ele><time>2026-04-26T10:35:24.282Z</time></trkpt><trkpt lat="43.4152717" lon="12.98725"><ele>248.33333333333331</ele><time>2026-04-26T10:35:25.283Z</time></trkpt><trkpt lat="43.4152367" lon="12.98733"><ele>250.5</ele><time>2026-04-26T10:35:26.283Z</time></trkpt><trkpt lat="43.4151733" lon="12.9874333"><ele>252.66666666666669</ele><time>2026-04-26T10:35:28.282Z</time></trkpt><trkpt lat="43.4151117" lon="12.9874117"><ele>254.83333333333334</ele><time>2026-04-26T10:35:30.282Z</time></trkpt><trkpt lat="43.4151067" lon="12.9872733"><ele>257.0</ele><time>2026-04-26T10:35:32.282Z</time></trkpt><trkpt lat="43.415085" lon="12.987155"><ele>257.0</ele><time>2026-04-26T10:35:33.282Z</time></trkpt><trkpt lat="43.4150483" lon="12.987035"><ele>257.0</ele><time>2026-04-26T10:35:34.282Z</time></trkpt><trkpt lat="43.415" lon="12.9869267"><ele>257.0</ele><time>2026-04-26T10:35:35.282Z</time></trkpt><trkpt lat="43.4149617" lon="12.9868433"><ele>257.0</ele><time>2026-04-26T10:35:36.282Z</time></trkpt><trkpt lat="43.4149233" lon="12.9867383"><ele>257.0</ele><time>2026-04-26T10:35:37.282Z</time></trkpt><trkpt lat="43.4148917" lon="12.98662"><ele>257.0</ele><time>2026-04-26T10:35:38.282Z</time></trkpt><trkpt lat="43.4148667" lon="12.9864967"><ele>255.33333333333334</ele><time>2026-04-26T10:35:39.282Z</time></trkpt><trkpt lat="43.4148517" lon="12.986385"><ele>253.66666666666669</ele><time>2026-04-26T10:35:40.282Z</time></trkpt><trkpt lat="43.4148267" lon="12.9862833"><ele>252.0</ele><time>2026-04-26T10:35:41.282Z</time></trkpt><trkpt lat="43.41481" lon="12.9861933"><ele>250.33333333333331</ele><time>2026-04-26T10:35:42.282Z</time></trkpt><trkpt lat="43.41476" lon="12.9860633"><ele>248.66666666666666</ele><time>2026-04-26T10:35:44.282Z</time></trkpt><trkpt lat="43.4146733" lon="12.9859833"><ele>247.0</ele><time>2026-04-26T10:35:46.282Z</time></trkpt><trkpt lat="43.4146083" lon="12.985945"><ele>252.39999999999998</ele><time>2026-04-26T10:35:47.282Z</time></trkpt><trkpt lat="43.4145417" lon="12.9859167"><ele>257.79999999999995</ele><time>2026-04-26T10:35:48.282Z</time></trkpt><trkpt lat="43.4144167" lon="12.9858767"><ele>263.2</ele><time>2026-04-26T10:35:50.282Z</time></trkpt><trkpt lat="43.4143567" lon="12.9858433"><ele>268.59999999999997</ele><time>2026-04-26T10:35:51.282Z</time></trkpt><trkpt lat="43.4142617" lon="12.9857783"><ele>274.0</ele><time>2026-04-26T10:35:53.282Z</time></trkpt><trkpt lat="43.4141817" lon="12.9856933"><ele>274.0</ele><time>2026-04-26T10:35:55.282Z</time></trkpt><trkpt lat="43.4141233" lon="12.9856335"><ele>274.0</ele><time>2026-04-26T10:35:57.282Z</time></trkpt><trkpt lat="43.4140554" lon="12.9855748"><ele>274.0</ele><time>2026-04-26T10:35:58.283Z</time></trkpt><trkpt lat="43.4139913" lon="12.9855232"><ele>274.0</ele><time>2026-04-26T10:35:59.282Z</time></trkpt><trkpt lat="43.4139169" lon="12.9854792"><ele>274.0</ele><time>2026-04-26T10:36:00.283Z</time></trkpt><trkpt lat="43.4138408" lon="12.9854332"><ele>274.0</ele><time>2026-04-26T10:36:01.283Z</time></trkpt><trkpt lat="43.4137655" lon="12.9853765"><ele>276.16666666666663</ele><time>2026-04-26T10:36:02.283Z</time></trkpt><trkpt lat="43.4137058" lon="12.9852889"><ele>278.3333333333333</ele><time>2026-04-26T10:36:03.282Z</time></trkpt><trkpt lat="43.4136536" lon="12.9851815"><ele>280.5</ele><time>2026-04-26T10:36:04.282Z</time></trkpt><trkpt lat="43.4136113" lon="12.9850781"><ele>282.6666666666667</ele><time>2026-04-26T10:36:05.282Z</time></trkpt><trkpt lat="43.4135742" lon="12.9849988"><ele>284.83333333333337</ele><time>2026-04-26T10:36:06.282Z</time></trkpt><trkpt lat="43.4135008" lon="12.9849055"><ele>287.0</ele><time>2026-04-26T10:36:08.282Z</time></trkpt><trkpt lat="43.4134243" lon="12.9848844"><ele>287.0</ele><time>2026-04-26T10:36:12.282Z</time></trkpt><trkpt lat="43.4133843" lon="12.9850041"><ele>287.0</ele><time>2026-04-26T10:36:15.283Z</time></trkpt><trkpt lat="43.4133927" lon="12.9851653"><ele>287.0</ele><time>2026-04-26T10:36:17.282Z</time></trkpt><trkpt lat="43.4134141" lon="12.9852591"><ele>287.0</ele><time>2026-04-26T10:36:18.282Z</time></trkpt><trkpt lat="43.4134294" lon="12.9853515"><ele>287.0</ele><time>2026-04-26T10:36:19.282Z</time></trkpt><trkpt lat="43.4134595" lon="12.9854961"><ele>289.33333333333337</ele><time>2026-04-26T10:36:21.282Z</time></trkpt><trkpt lat="43.4134575" lon="12.9855981"><ele>291.6666666666667</ele><time>2026-04-26T10:36:23.282Z</time></trkpt><trkpt lat="43.4133834" lon="12.9856081"><ele>294.0</ele><time>2026-04-26T10:36:26.282Z</time></trkpt><trkpt lat="43.41332" lon="12.98552"><ele>296.3333333333333</ele><time>2026-04-26T10:36:28.282Z</time></trkpt><trkpt lat="43.4132267" lon="12.9854"><ele>298.66666666666663</ele><time>2026-04-26T10:36:30.283Z</time></trkpt><trkpt lat="43.4131667" lon="12.98534"><ele>301.0</ele><time>2026-04-26T10:36:31.282Z</time></trkpt><trkpt lat="43.4131117" lon="12.9852733"><ele>301.0</ele><time>2026-04-26T10:36:32.282Z</time></trkpt><trkpt lat="43.4130617" lon="12.9852083"><ele>301.0</ele><time>2026-04-26T10:36:33.282Z</time></trkpt><trkpt lat="43.4129933" lon="12.9851217"><ele>301.0</ele><time>2026-04-26T10:36:34.282Z</time></trkpt><trkpt lat="43.4129433" lon="12.9850183"><ele>301.0</ele><time>2026-04-26T10:36:35.282Z</time></trkpt><trkpt lat="43.4129" lon="12.9849333"><ele>301.0</ele><time>2026-04-26T10:36:36.282Z</time></trkpt><trkpt lat="43.412865" lon="12.9848367"><ele>301.0</ele><time>2026-04-26T10:36:37.282Z</time></trkpt><trkpt lat="43.4128283" lon="12.984745"><ele>303.5</ele><time>2026-04-26T10:36:38.282Z</time></trkpt><trkpt lat="43.41278" lon="12.98466"><ele>306.0</ele><time>2026-04-26T10:36:39.282Z</time></trkpt><trkpt lat="43.4126967" lon="12.9845717"><ele>308.5</ele><time>2026-04-26T10:36:41.282Z</time></trkpt><trkpt lat="43.41263" lon="12.984595"><ele>311.0</ele><time>2026-04-26T10:36:43.283Z</time></trkpt><trkpt lat="43.4125917" lon="12.9846967"><ele>313.5</ele><time>2026-04-26T10:36:45.282Z</time></trkpt><trkpt lat="43.4125783" lon="12.9848"><ele>316.0</ele><time>2026-04-26T10:36:46.283Z</time></trkpt><trkpt lat="43.412575" lon="12.9849283"><ele>318.0</ele><time>2026-04-26T10:36:47.282Z</time></trkpt><trkpt lat="43.4125717" lon="12.9850783"><ele>320.0</ele><time>2026-04-26T10:36:48.282Z</time></trkpt><trkpt lat="43.4125683" lon="12.9852333"><ele>322.0</ele><time>2026-04-26T10:36:49.282Z</time></trkpt><trkpt lat="43.4125733" lon="12.98538"><ele>324.0</ele><time>2026-04-26T10:36:50.282Z</time></trkpt><trkpt lat="43.4125717" lon="12.9855167"><ele>326.0</ele><time>2026-04-26T10:36:51.282Z</time></trkpt><trkpt lat="43.4125767" lon="12.9856417"><ele>326.0</ele><time>2026-04-26T10:36:52.282Z</time></trkpt><trkpt lat="43.41258" lon="12.9857633"><ele>326.0</ele><time>2026-04-26T10:36:53.282Z</time></trkpt><trkpt lat="43.4125833" lon="12.985865"><ele>326.0</ele><time>2026-04-26T10:36:54.282Z</time></trkpt><trkpt lat="43.4125733" lon="12.98597"><ele>326.0</ele><time>2026-04-26T10:36:55.282Z</time></trkpt><trkpt lat="43.4125433" lon="12.9860667"><ele>326.0</ele><time>2026-04-26T10:36:56.282Z</time></trkpt><trkpt lat="43.4125167" lon="12.986155"><ele>326.0</ele><time>2026-04-26T10:36:57.282Z</time></trkpt><trkpt lat="43.4125017" lon="12.986245"><ele>328.1666666666667</ele><time>2026-04-26T10:36:58.282Z</time></trkpt><trkpt lat="43.4124983" lon="12.9864167"><ele>330.33333333333337</ele><time>2026-04-26T10:37:00.282Z</time></trkpt><trkpt lat="43.4125083" lon="12.9865083"><ele>332.5</ele><time>2026-04-26T10:37:01.282Z</time></trkpt><trkpt lat="43.412525" lon="12.9866017"><ele>334.6666666666667</ele><time>2026-04-26T10:37:02.283Z</time></trkpt><trkpt lat="43.4125617" lon="12.9866983"><ele>336.8333333333333</ele><time>2026-04-26T10:37:03.282Z</time></trkpt><trkpt lat="43.4126067" lon="12.98679"><ele>339.0</ele><time>2026-04-26T10:37:04.282Z</time></trkpt><trkpt lat="43.412655" lon="12.986875"><ele>337.6666666666667</ele><time>2026-04-26T10:37:05.283Z</time></trkpt><trkpt lat="43.4127117" lon="12.9869433"><ele>336.3333333333333</ele><time>2026-04-26T10:37:06.281Z</time></trkpt><trkpt lat="43.4127617" lon="12.9870067"><ele>335.0</ele><time>2026-04-26T10:37:07.282Z</time></trkpt><trkpt lat="43.4128233" lon="12.987055"><ele>333.66666666666663</ele><time>2026-04-26T10:37:08.282Z</time></trkpt><trkpt lat="43.4128983" lon="12.98711"><ele>332.3333333333333</ele><time>2026-04-26T10:37:09.282Z</time></trkpt><trkpt lat="43.412965" lon="12.987165"><ele>331.0</ele><time>2026-04-26T10:37:10.282Z</time></trkpt><trkpt lat="43.4130217" lon="12.98723"><ele>331.0</ele><time>2026-04-26T10:37:11.282Z</time></trkpt><trkpt lat="43.4130783" lon="12.9872967"><ele>331.0</ele><time>2026-04-26T10:37:12.282Z</time></trkpt><trkpt lat="43.4131283" lon="12.9873717"><ele>331.0</ele><time>2026-04-26T10:37:13.282Z</time></trkpt><trkpt lat="43.4131733" lon="12.9874917"><ele>331.0</ele><time>2026-04-26T10:37:15.282Z</time></trkpt><trkpt lat="43.4131783" lon="12.9875883"><ele>331.0</ele><time>2026-04-26T10:37:17.282Z</time></trkpt><trkpt lat="43.4131117" lon="12.9876467"><ele>331.0</ele><time>2026-04-26T10:37:19.282Z</time></trkpt><trkpt lat="43.4129967" lon="12.9876967"><ele>335.8333333333333</ele><time>2026-04-26T10:37:21.282Z</time></trkpt><trkpt lat="43.4129367" lon="12.9877333"><ele>340.66666666666663</ele><time>2026-04-26T10:37:22.282Z</time></trkpt><trkpt lat="43.4128783" lon="12.9878"><ele>345.5</ele><time>2026-04-26T10:37:23.282Z</time></trkpt><trkpt lat="43.4128217" lon="12.9878783"><ele>350.3333333333333</ele><time>2026-04-26T10:37:24.282Z</time></trkpt><trkpt lat="43.4127683" lon="12.9879783"><ele>355.1666666666667</ele><time>2026-04-26T10:37:25.282Z</time></trkpt><trkpt lat="43.4127133" lon="12.988075"><ele>360.0</ele><time>2026-04-26T10:37:26.283Z</time></trkpt><trkpt lat="43.4126517" lon="12.98816"><ele>360.0</ele><time>2026-04-26T10:37:27.282Z</time></trkpt><trkpt lat="43.412595" lon="12.988245"><ele>360.0</ele><time>2026-04-26T10:37:28.282Z</time></trkpt><trkpt lat="43.4125417" lon="12.98833"><ele>360.0</ele><time>2026-04-26T10:37:29.282Z</time></trkpt><trkpt lat="43.4124883" lon="12.988415"><ele>360.0</ele><time>2026-04-26T10:37:30.282Z</time></trkpt><trkpt lat="43.41244" lon="12.9885117"><ele>360.0</ele><time>2026-04-26T10:37:31.282Z</time></trkpt><trkpt lat="43.4123983" lon="12.9885967"><ele>360.0</ele><time>2026-04-26T10:37:32.282Z</time></trkpt><trkpt lat="43.4123567" lon="12.988675"><ele>359.4285714285714</ele><time>2026-04-26T10:37:33.282Z</time></trkpt><trkpt lat="43.4123033" lon="12.9887483"><ele>358.8571428571429</ele><time>2026-04-26T10:37:34.282Z</time></trkpt><trkpt lat="43.4122433" lon="12.9888"><ele>358.2857142857143</ele><time>2026-04-26T10:37:35.282Z</time></trkpt><trkpt lat="43.4121767" lon="12.988835"><ele>357.71428571428567</ele><time>2026-04-26T10:37:36.282Z</time></trkpt><trkpt lat="43.4121033" lon="12.9888633"><ele>357.1428571428571</ele><time>2026-04-26T10:37:37.282Z</time></trkpt><trkpt lat="43.4120317" lon="12.9888817"><ele>356.57142857142856</ele><time>2026-04-26T10:37:38.282Z</time></trkpt><trkpt lat="43.41196" lon="12.9889167"><ele>356.0</ele><time>2026-04-26T10:37:39.282Z</time></trkpt><trkpt lat="43.4118917" lon="12.988945"><ele>358.99999999999994</ele><time>2026-04-26T10:37:40.282Z</time></trkpt><trkpt lat="43.4118267" lon="12.988985"><ele>362.0</ele><time>2026-04-26T10:37:41.282Z</time></trkpt><trkpt lat="43.4117567" lon="12.9890267"><ele>365.0</ele><time>2026-04-26T10:37:42.282Z</time></trkpt><trkpt lat="43.41169" lon="12.9890617"><ele>368.0</ele><time>2026-04-26T10:37:43.282Z</time></trkpt><trkpt lat="43.4116183" lon="12.9890967"><ele>371.0</ele><time>2026-04-26T10:37:44.282Z</time></trkpt><trkpt lat="43.4115417" lon="12.989135"><ele>373.99999999999994</ele><time>2026-04-26T10:37:45.283Z</time></trkpt><trkpt lat="43.4114817" lon="12.989175"><ele>377.0</ele><time>2026-04-26T10:37:46.282Z</time></trkpt><trkpt lat="43.4113933" lon="12.9892867"><ele>377.5</ele><time>2026-04-26T10:37:48.282Z</time></trkpt><trkpt lat="43.4113883" lon="12.989435"><ele>378.0</ele><time>2026-04-26T10:37:50.282Z</time></trkpt><trkpt lat="43.4114183" lon="12.989515"><ele>378.5</ele><time>2026-04-26T10:37:51.282Z</time></trkpt><trkpt lat="43.411455" lon="12.9895983"><ele>379.0</ele><time>2026-04-26T10:37:52.282Z</time></trkpt><trkpt lat="43.4114817" lon="12.9896983"><ele>379.5</ele><time>2026-04-26T10:37:53.282Z</time></trkpt><trkpt lat="43.411515" lon="12.9898217"><ele>380.0</ele><time>2026-04-26T10:37:54.282Z</time></trkpt><trkpt lat="43.41155" lon="12.9899783"><ele>381.8</ele><time>2026-04-26T10:37:55.282Z</time></trkpt><trkpt lat="43.41159" lon="12.990125"><ele>383.6</ele><time>2026-04-26T10:37:56.282Z</time></trkpt><trkpt lat="43.41163" lon="12.9902667"><ele>385.4</ele><time>2026-04-26T10:37:57.283Z</time></trkpt><trkpt lat="43.41167" lon="12.9904067"><ele>387.2</ele><time>2026-04-26T10:37:58.282Z</time></trkpt><trkpt lat="43.411705" lon="12.9905483"><ele>389.0</ele><time>2026-04-26T10:37:59.283Z</time></trkpt><trkpt lat="43.4117367" lon="12.990675"><ele>388.99999999999994</ele><time>2026-04-26T10:38:00.282Z</time></trkpt><trkpt lat="43.4117533" lon="12.9907983"><ele>389.0</ele><time>2026-04-26T10:38:01.282Z</time></trkpt><trkpt lat="43.4117733" lon="12.9909183"><ele>389.0</ele><time>2026-04-26T10:38:02.282Z</time></trkpt><trkpt lat="43.41179" lon="12.9910133"><ele>389.0</ele><time>2026-04-26T10:38:03.283Z</time></trkpt><trkpt lat="43.4118283" lon="12.9911117"><ele>388.99999999999994</ele><time>2026-04-26T10:38:04.282Z</time></trkpt><trkpt lat="43.4118817" lon="12.991195"><ele>389.0</ele><time>2026-04-26T10:38:05.282Z</time></trkpt><trkpt lat="43.4119333" lon="12.9912617"><ele>390.79999999999995</ele><time>2026-04-26T10:38:06.282Z</time></trkpt><trkpt lat="43.41202" lon="12.9913033"><ele>392.59999999999997</ele><time>2026-04-26T10:38:07.283Z</time></trkpt><trkpt lat="43.41211" lon="12.9913383"><ele>394.4</ele><time>2026-04-26T10:38:08.282Z</time></trkpt><trkpt lat="43.4122017" lon="12.99138"><ele>396.2</ele><time>2026-04-26T10:38:09.282Z</time></trkpt><trkpt lat="43.4123033" lon="12.9914383"><ele>398.0</ele><time>2026-04-26T10:38:10.282Z</time></trkpt><trkpt lat="43.4123917" lon="12.9915117"><ele>398.0</ele><time>2026-04-26T10:38:11.282Z</time></trkpt><trkpt lat="43.412485" lon="12.9915833"><ele>398.0</ele><time>2026-04-26T10:38:12.282Z</time></trkpt><trkpt lat="43.4125917" lon="12.9916383"><ele>398.0</ele><time>2026-04-26T10:38:13.282Z</time></trkpt><trkpt lat="43.4126917" lon="12.9916933"><ele>398.0</ele><time>2026-04-26T10:38:14.282Z</time></trkpt><trkpt lat="43.4127867" lon="12.991745"><ele>398.0</ele><time>2026-04-26T10:38:15.282Z</time></trkpt><trkpt lat="43.4128583" lon="12.9918033"><ele>401.0</ele><time>2026-04-26T10:38:16.282Z</time></trkpt><trkpt lat="43.4129517" lon="12.99186"><ele>404.0</ele><time>2026-04-26T10:38:17.283Z</time></trkpt><trkpt lat="43.4130467" lon="12.9919267"><ele>407.0</ele><time>2026-04-26T10:38:18.282Z</time></trkpt><trkpt lat="43.4131267" lon="12.992"><ele>410.0</ele><time>2026-04-26T10:38:19.282Z</time></trkpt><trkpt lat="43.413205" lon="12.9920683"><ele>413.0</ele><time>2026-04-26T10:38:20.282Z</time></trkpt><trkpt lat="43.4132833" lon="12.99214"><ele>412.99999999999994</ele><time>2026-04-26T10:38:21.282Z</time></trkpt><trkpt lat="43.4133683" lon="12.9922017"><ele>413.0</ele><time>2026-04-26T10:38:22.282Z</time></trkpt><trkpt lat="43.4134467" lon="12.99226"><ele>413.0</ele><time>2026-04-26T10:38:23.282Z</time></trkpt><trkpt lat="43.4135233" lon="12.9923167"><ele>413.0</ele><time>2026-04-26T10:38:24.282Z</time></trkpt><trkpt lat="43.4135883" lon="12.9923717"><ele>412.99999999999994</ele><time>2026-04-26T10:38:25.283Z</time></trkpt><trkpt lat="43.4136417" lon="12.9924433"><ele>413.0</ele><time>2026-04-26T10:38:26.282Z</time></trkpt><trkpt lat="43.4136967" lon="12.992525"><ele>411.49999999999994</ele><time>2026-04-26T10:38:27.282Z</time></trkpt><trkpt lat="43.413755" lon="12.9926133"><ele>410.0</ele><time>2026-04-26T10:38:28.282Z</time></trkpt><trkpt lat="43.4138033" lon="12.9926967"><ele>408.5</ele><time>2026-04-26T10:38:29.282Z</time></trkpt><trkpt lat="43.4138583" lon="12.9927817"><ele>407.0</ele><time>2026-04-26T10:38:30.282Z</time></trkpt><trkpt lat="43.4139133" lon="12.9928517"><ele>405.49999999999994</ele><time>2026-04-26T10:38:31.282Z</time></trkpt><trkpt lat="43.4139583" lon="12.9929617"><ele>404.0</ele><time>2026-04-26T10:38:33.282Z</time></trkpt><trkpt lat="43.4138967" lon="12.9930217"><ele>409.16666666666663</ele><time>2026-04-26T10:38:36.282Z</time></trkpt><trkpt lat="43.413785" lon="12.99298"><ele>414.3333333333333</ele><time>2026-04-26T10:38:38.283Z</time></trkpt><trkpt lat="43.41371" lon="12.9929433"><ele>419.5</ele><time>2026-04-26T10:38:39.282Z</time></trkpt><trkpt lat="43.4136417" lon="12.9929067"><ele>424.66666666666663</ele><time>2026-04-26T10:38:40.282Z</time></trkpt><trkpt lat="43.413575" lon="12.9928767"><ele>429.8333333333333</ele><time>2026-04-26T10:38:41.282Z</time></trkpt><trkpt lat="43.41351" lon="12.99286"><ele>435.0</ele><time>2026-04-26T10:38:42.282Z</time></trkpt><trkpt lat="43.4134317" lon="12.9928467"><ele>435.0</ele><time>2026-04-26T10:38:43.282Z</time></trkpt><trkpt lat="43.4133617" lon="12.9928583"><ele>435.0</ele><time>2026-04-26T10:38:44.282Z</time></trkpt><trkpt lat="43.413265" lon="12.99289"><ele>435.0</ele><time>2026-04-26T10:38:46.282Z</time></trkpt><trkpt lat="43.4132083" lon="12.992955"><ele>435.0</ele><time>2026-04-26T10:38:48.282Z</time></trkpt><trkpt lat="43.41324" lon="12.9930633"><ele>435.0</ele><time>2026-04-26T10:38:51.282Z</time></trkpt><trkpt lat="43.4133367" lon="12.9931367"><ele>435.0</ele><time>2026-04-26T10:38:53.282Z</time></trkpt><trkpt lat="43.4133916" lon="12.9931845"><ele>435.0</ele><time>2026-04-26T10:38:54.282Z</time></trkpt><trkpt lat="43.4134518" lon="12.9932533"><ele>435.0</ele><time>2026-04-26T10:38:55.282Z</time></trkpt><trkpt lat="43.4135021" lon="12.9933367"><ele>435.0</ele><time>2026-04-26T10:38:56.282Z</time></trkpt><trkpt lat="43.4135467" lon="12.9934171"><ele>435.0</ele><time>2026-04-26T10:38:57.282Z</time></trkpt><trkpt lat="43.413581" lon="12.9935652"><ele>435.0</ele><time>2026-04-26T10:38:59.282Z</time></trkpt><trkpt lat="43.4135596" lon="12.9937115"><ele>436.0</ele><time>2026-04-26T10:39:01.282Z</time></trkpt><trkpt lat="43.4135234" lon="12.9937826"><ele>437.0</ele><time>2026-04-26T10:39:02.282Z</time></trkpt><trkpt lat="43.4134755" lon="12.9938626"><ele>438.0</ele><time>2026-04-26T10:39:03.283Z</time></trkpt><trkpt lat="43.4134239" lon="12.9939624"><ele>439.0</ele><time>2026-04-26T10:39:04.283Z</time></trkpt><trkpt lat="43.4133783" lon="12.9940658"><ele>440.0</ele><time>2026-04-26T10:39:05.282Z</time></trkpt><trkpt lat="43.4133378" lon="12.9941589"><ele>441.0</ele><time>2026-04-26T10:39:06.282Z</time></trkpt><trkpt lat="43.4133088" lon="12.9942383"><ele>441.0</ele><time>2026-04-26T10:39:07.282Z</time></trkpt><trkpt lat="43.4132375" lon="12.9943217"><ele>441.0</ele><time>2026-04-26T10:39:09.283Z</time></trkpt><trkpt lat="43.4131467" lon="12.9942783"><ele>441.0</ele><time>2026-04-26T10:39:11.282Z</time></trkpt><trkpt lat="43.4130533" lon="12.9941717"><ele>441.0</ele><time>2026-04-26T10:39:13.282Z</time></trkpt><trkpt lat="43.4129967" lon="12.9941283"><ele>441.0</ele><time>2026-04-26T10:39:14.282Z</time></trkpt><trkpt lat="43.4128767" lon="12.9940583"><ele>443.5</ele><time>2026-04-26T10:39:16.282Z</time></trkpt><trkpt lat="43.4128133" lon="12.9940167"><ele>446.0</ele><time>2026-04-26T10:39:17.282Z</time></trkpt><trkpt lat="43.4127483" lon="12.993975"><ele>448.5</ele><time>2026-04-26T10:39:18.283Z</time></trkpt><trkpt lat="43.4126783" lon="12.99393"><ele>451.0</ele><time>2026-04-26T10:39:19.282Z</time></trkpt><trkpt lat="43.4126083" lon="12.9938733"><ele>453.5</ele><time>2026-04-26T10:39:20.282Z</time></trkpt><trkpt lat="43.4125317" lon="12.9938417"><ele>456.0</ele><time>2026-04-26T10:39:21.282Z</time></trkpt><trkpt lat="43.4124483" lon="12.9938"><ele>456.0</ele><time>2026-04-26T10:39:22.281Z</time></trkpt><trkpt lat="43.412375" lon="12.9937583"><ele>456.0</ele><time>2026-04-26T10:39:23.282Z</time></trkpt><trkpt lat="43.4122917" lon="12.99372"><ele>456.0</ele><time>2026-04-26T10:39:24.283Z</time></trkpt><trkpt lat="43.41221" lon="12.99367"><ele>456.0</ele><time>2026-04-26T10:39:25.282Z</time></trkpt><trkpt lat="43.4121333" lon="12.9936183"><ele>456.0</ele><time>2026-04-26T10:39:26.282Z</time></trkpt><trkpt lat="43.4120617" lon="12.9935683"><ele>456.0</ele><time>2026-04-26T10:39:27.282Z</time></trkpt><trkpt lat="43.4119833" lon="12.9935183"><ele>458.0</ele><time>2026-04-26T10:39:28.283Z</time></trkpt><trkpt lat="43.4119" lon="12.9934767"><ele>460.0</ele><time>2026-04-26T10:39:29.282Z</time></trkpt><trkpt lat="43.4118183" lon="12.9934483"><ele>462.0</ele><time>2026-04-26T10:39:30.282Z</time></trkpt><trkpt lat="43.411735" lon="12.9934217"><ele>464.0</ele><time>2026-04-26T10:39:31.283Z</time></trkpt><trkpt lat="43.4116517" lon="12.9934083"><ele>466.0</ele><time>2026-04-26T10:39:32.282Z</time></trkpt><trkpt lat="43.4115717" lon="12.9933933"><ele>468.0</ele><time>2026-04-26T10:39:33.282Z</time></trkpt><trkpt lat="43.4114983" lon="12.9933633"><ele>468.6666666666667</ele><time>2026-04-26T10:39:34.282Z</time></trkpt><trkpt lat="43.41144" lon="12.99331"><ele>469.33333333333337</ele><time>2026-04-26T10:39:35.282Z</time></trkpt><trkpt lat="43.4113883" lon="12.99323"><ele>470.0</ele><time>2026-04-26T10:39:36.282Z</time></trkpt><trkpt lat="43.41133" lon="12.9931517"><ele>470.6666666666667</ele><time>2026-04-26T10:39:37.282Z</time></trkpt><trkpt lat="43.4112633" lon="12.9930733"><ele>471.33333333333337</ele><time>2026-04-26T10:39:38.282Z</time></trkpt><trkpt lat="43.4111917" lon="12.9929983"><ele>472.0</ele><time>2026-04-26T10:39:39.282Z</time></trkpt><trkpt lat="43.411115" lon="12.99294"><ele>472.0</ele><time>2026-04-26T10:39:40.282Z</time></trkpt><trkpt lat="43.411035" lon="12.992885"><ele>472.00000000000006</ele><time>2026-04-26T10:39:41.282Z</time></trkpt><trkpt lat="43.4109517" lon="12.99284"><ele>472.00000000000006</ele><time>2026-04-26T10:39:42.282Z</time></trkpt><trkpt lat="43.4108583" lon="12.9927983"><ele>472.0</ele><time>2026-04-26T10:39:43.282Z</time></trkpt><trkpt lat="43.4107717" lon="12.9927617"><ele>472.0</ele><time>2026-04-26T10:39:44.283Z</time></trkpt><trkpt lat="43.4106817" lon="12.9927283"><ele>472.0</ele><time>2026-04-26T10:39:45.282Z</time></trkpt><trkpt lat="43.410605" lon="12.9927033"><ele>472.00000000000006</ele><time>2026-04-26T10:39:46.282Z</time></trkpt><trkpt lat="43.41051" lon="12.99269"><ele>472.00000000000006</ele><time>2026-04-26T10:39:47.282Z</time></trkpt><trkpt lat="43.4104167" lon="12.9926683"><ele>472.0</ele><time>2026-04-26T10:39:48.282Z</time></trkpt><trkpt lat="43.41033" lon="12.99263"><ele>472.0</ele><time>2026-04-26T10:39:49.282Z</time></trkpt><trkpt lat="43.41024" lon="12.992595"><ele>471.50000000000006</ele><time>2026-04-26T10:39:50.282Z</time></trkpt><trkpt lat="43.4101567" lon="12.9925617"><ele>471.0</ele><time>2026-04-26T10:39:51.282Z</time></trkpt><trkpt lat="43.4100683" lon="12.9925283"><ele>470.5</ele><time>2026-04-26T10:39:52.283Z</time></trkpt><trkpt lat="43.4099883" lon="12.9925017"><ele>470.0</ele><time>2026-04-26T10:39:53.282Z</time></trkpt><trkpt lat="43.4099017" lon="12.9924883"><ele>469.50000000000006</ele><time>2026-04-26T10:39:54.282Z</time></trkpt><trkpt lat="43.409805" lon="12.9924783"><ele>469.0</ele><time>2026-04-26T10:39:55.282Z</time></trkpt><trkpt lat="43.4097133" lon="12.9924583"><ele>471.33333333333337</ele><time>2026-04-26T10:39:56.283Z</time></trkpt><trkpt lat="43.4096217" lon="12.9924383"><ele>473.6666666666667</ele><time>2026-04-26T10:39:57.282Z</time></trkpt><trkpt lat="43.4095367" lon="12.9924133"><ele>476.0</ele><time>2026-04-26T10:39:58.283Z</time></trkpt><trkpt lat="43.40945" lon="12.9923867"><ele>478.33333333333337</ele><time>2026-04-26T10:39:59.282Z</time></trkpt><trkpt lat="43.4093767" lon="12.99236"><ele>480.6666666666667</ele><time>2026-04-26T10:40:00.282Z</time></trkpt><trkpt lat="43.4092933" lon="12.9923333"><ele>483.0</ele><time>2026-04-26T10:40:01.282Z</time></trkpt><trkpt lat="43.4092233" lon="12.9922833"><ele>483.0</ele><time>2026-04-26T10:40:02.282Z</time></trkpt><trkpt lat="43.4091633" lon="12.992205"><ele>483.0</ele><time>2026-04-26T10:40:03.283Z</time></trkpt><trkpt lat="43.4091117" lon="12.99211"><ele>483.0</ele><time>2026-04-26T10:40:04.282Z</time></trkpt><trkpt lat="43.4090567" lon="12.9920033"><ele>483.0</ele><time>2026-04-26T10:40:05.282Z</time></trkpt><trkpt lat="43.4090083" lon="12.9919017"><ele>483.0</ele><time>2026-04-26T10:40:06.282Z</time></trkpt><trkpt lat="43.408965" lon="12.9918067"><ele>483.0</ele><time>2026-04-26T10:40:07.282Z</time></trkpt><trkpt lat="43.408925" lon="12.991725"><ele>483.8333333333333</ele><time>2026-04-26T10:40:08.282Z</time></trkpt><trkpt lat="43.4088833" lon="12.99164"><ele>484.66666666666663</ele><time>2026-04-26T10:40:09.282Z</time></trkpt><trkpt lat="43.4088383" lon="12.9915567"><ele>485.5</ele><time>2026-04-26T10:40:10.283Z</time></trkpt><trkpt lat="43.4087883" lon="12.9914833"><ele>486.3333333333333</ele><time>2026-04-26T10:40:11.282Z</time></trkpt><trkpt lat="43.4087333" lon="12.9914083"><ele>487.16666666666663</ele><time>2026-04-26T10:40:12.282Z</time></trkpt><trkpt lat="43.40866" lon="12.9913467"><ele>488.0</ele><time>2026-04-26T10:40:13.282Z</time></trkpt><trkpt lat="43.40858" lon="12.9912867"><ele>488.0</ele><time>2026-04-26T10:40:14.282Z</time></trkpt><trkpt lat="43.4085017" lon="12.9912167"><ele>487.99999999999994</ele><time>2026-04-26T10:40:15.282Z</time></trkpt><trkpt lat="43.40842" lon="12.9911533"><ele>487.99999999999994</ele><time>2026-04-26T10:40:16.282Z</time></trkpt><trkpt lat="43.408335" lon="12.9910917"><ele>488.0</ele><time>2026-04-26T10:40:17.283Z</time></trkpt><trkpt lat="43.408245" lon="12.9910233"><ele>488.0</ele><time>2026-04-26T10:40:18.282Z</time></trkpt><trkpt lat="43.408165" lon="12.9909767"><ele>488.0</ele><time>2026-04-26T10:40:19.282Z</time></trkpt><trkpt lat="43.40808" lon="12.99092"><ele>487.99999999999994</ele><time>2026-04-26T10:40:20.282Z</time></trkpt><trkpt lat="43.4079983" lon="12.990875"><ele>487.99999999999994</ele><time>2026-04-26T10:40:21.282Z</time></trkpt><trkpt lat="43.4079033" lon="12.9908083"><ele>488.0</ele><time>2026-04-26T10:40:22.282Z</time></trkpt><trkpt lat="43.4078067" lon="12.990735"><ele>488.0</ele><time>2026-04-26T10:40:23.282Z</time></trkpt><trkpt lat="43.407715" lon="12.99066"><ele>487.8333333333333</ele><time>2026-04-26T10:40:24.282Z</time></trkpt><trkpt lat="43.4076333" lon="12.9905933"><ele>487.66666666666663</ele><time>2026-04-26T10:40:25.282Z</time></trkpt><trkpt lat="43.40756" lon="12.9905367"><ele>487.5</ele><time>2026-04-26T10:40:26.282Z</time></trkpt><trkpt lat="43.4074933" lon="12.9904817"><ele>487.33333333333337</ele><time>2026-04-26T10:40:27.282Z</time></trkpt><trkpt lat="43.4074217" lon="12.99042"><ele>487.1666666666667</ele><time>2026-04-26T10:40:28.283Z</time></trkpt><trkpt lat="43.407345" lon="12.9903717"><ele>487.0</ele><time>2026-04-26T10:40:29.282Z</time></trkpt><trkpt lat="43.4072617" lon="12.9903383"><ele>487.0</ele><time>2026-04-26T10:40:30.282Z</time></trkpt><trkpt lat="43.407175" lon="12.9903117"><ele>487.00000000000006</ele><time>2026-04-26T10:40:31.282Z</time></trkpt><trkpt lat="43.4070783" lon="12.99029"><ele>487.00000000000006</ele><time>2026-04-26T10:40:32.282Z</time></trkpt><trkpt lat="43.406975" lon="12.9902667"><ele>487.0</ele><time>2026-04-26T10:40:33.282Z</time></trkpt><trkpt lat="43.4068683" lon="12.9902367"><ele>487.0</ele><time>2026-04-26T10:40:34.282Z</time></trkpt><trkpt lat="43.4067583" lon="12.9902"><ele>488.40000000000003</ele><time>2026-04-26T10:40:35.282Z</time></trkpt><trkpt lat="43.40665" lon="12.9901717"><ele>489.80000000000007</ele><time>2026-04-26T10:40:36.282Z</time></trkpt><trkpt lat="43.406555" lon="12.9901483"><ele>491.2</ele><time>2026-04-26T10:40:37.282Z</time></trkpt><trkpt lat="43.4064683" lon="12.9901267"><ele>492.6</ele><time>2026-04-26T10:40:38.282Z</time></trkpt><trkpt lat="43.4063883" lon="12.9901083"><ele>494.0</ele><time>2026-04-26T10:40:39.282Z</time></trkpt><trkpt lat="43.4063083" lon="12.9900867"><ele>494.99999999999994</ele><time>2026-04-26T10:40:40.282Z</time></trkpt><trkpt lat="43.4062367" lon="12.9900817"><ele>496.0</ele><time>2026-04-26T10:40:41.283Z</time></trkpt><trkpt lat="43.4061633" lon="12.9900783"><ele>497.0</ele><time>2026-04-26T10:40:42.282Z</time></trkpt><trkpt lat="43.4060983" lon="12.99007"><ele>498.0</ele><time>2026-04-26T10:40:43.282Z</time></trkpt><trkpt lat="43.4060317" lon="12.99007"><ele>498.99999999999994</ele><time>2026-04-26T10:40:44.283Z</time></trkpt><trkpt lat="43.4059217" lon="12.9900733"><ele>500.0</ele><time>2026-04-26T10:40:46.282Z</time></trkpt><trkpt lat="43.405805" lon="12.990115"><ele>500.0</ele><time>2026-04-26T10:40:48.282Z</time></trkpt><trkpt lat="43.4056917" lon="12.990195"><ele>500.0</ele><time>2026-04-26T10:40:50.282Z</time></trkpt><trkpt lat="43.4056183" lon="12.99023"><ele>500.0</ele><time>2026-04-26T10:40:51.283Z</time></trkpt><trkpt lat="43.4055283" lon="12.9902617"><ele>500.0</ele><time>2026-04-26T10:40:52.282Z</time></trkpt><trkpt lat="43.4054317" lon="12.9902983"><ele>500.0</ele><time>2026-04-26T10:40:53.282Z</time></trkpt><trkpt lat="43.4053183" lon="12.9903233"><ele>500.0</ele><time>2026-04-26T10:40:54.282Z</time></trkpt><trkpt lat="43.40521" lon="12.9903617"><ele>500.0</ele><time>2026-04-26T10:40:55.282Z</time></trkpt><trkpt lat="43.4051167" lon="12.990375"><ele>500.0</ele><time>2026-04-26T10:40:56.282Z</time></trkpt><trkpt lat="43.405015" lon="12.9904067"><ele>500.0</ele><time>2026-04-26T10:40:57.282Z</time></trkpt><trkpt lat="43.40492" lon="12.9904383"><ele>500.0</ele><time>2026-04-26T10:40:58.282Z</time></trkpt><trkpt lat="43.4048283" lon="12.9904717"><ele>499.99999999999994</ele><time>2026-04-26T10:40:59.282Z</time></trkpt><trkpt lat="43.40475" lon="12.9905033"><ele>500.0</ele><time>2026-04-26T10:41:00.282Z</time></trkpt><trkpt lat="43.4046817" lon="12.9905417"><ele>500.0</ele><time>2026-04-26T10:41:01.282Z</time></trkpt><trkpt lat="43.4046117" lon="12.9905683"><ele>500.0</ele><time>2026-04-26T10:41:02.282Z</time></trkpt><trkpt lat="43.4045383" lon="12.9905883"><ele>499.99999999999994</ele><time>2026-04-26T10:41:03.282Z</time></trkpt><trkpt lat="43.4044583" lon="12.9906017"><ele>500.0</ele><time>2026-04-26T10:41:04.282Z</time></trkpt><trkpt lat="43.4043817" lon="12.990615"><ele>499.0</ele><time>2026-04-26T10:41:05.282Z</time></trkpt><trkpt lat="43.4043067" lon="12.990625"><ele>498.0</ele><time>2026-04-26T10:41:06.282Z</time></trkpt><trkpt lat="43.4042283" lon="12.99063"><ele>497.0</ele><time>2026-04-26T10:41:07.283Z</time></trkpt><trkpt lat="43.404145" lon="12.9906383"><ele>496.0</ele><time>2026-04-26T10:41:08.282Z</time></trkpt><trkpt lat="43.4040433" lon="12.99067"><ele>495.0</ele><time>2026-04-26T10:41:09.282Z</time></trkpt><trkpt lat="43.4039417" lon="12.9907217"><ele>495.0</ele><time>2026-04-26T10:41:10.282Z</time></trkpt><trkpt lat="43.4038367" lon="12.990785"><ele>495.0</ele><time>2026-04-26T10:41:11.282Z</time></trkpt><trkpt lat="43.4037267" lon="12.9908533"><ele>495.0</ele><time>2026-04-26T10:41:12.283Z</time></trkpt><trkpt lat="43.4036167" lon="12.9909167"><ele>495.0</ele><time>2026-04-26T10:41:13.282Z</time></trkpt><trkpt lat="43.4035083" lon="12.990995"><ele>499.0</ele><time>2026-04-26T10:41:14.282Z</time></trkpt><trkpt lat="43.4034" lon="12.9910717"><ele>503.0</ele><time>2026-04-26T10:41:15.282Z</time></trkpt><trkpt lat="43.4032883" lon="12.9911467"><ele>507.0</ele><time>2026-04-26T10:41:16.282Z</time></trkpt><trkpt lat="43.40321" lon="12.9911967"><ele>511.0</ele><time>2026-04-26T10:41:17.282Z</time></trkpt><trkpt lat="43.4031" lon="12.9912583"><ele>510.0</ele><time>2026-04-26T10:41:18.282Z</time></trkpt><trkpt lat="43.4029917" lon="12.9913167"><ele>509.0</ele><time>2026-04-26T10:41:19.282Z</time></trkpt><trkpt lat="43.4028817" lon="12.9914"><ele>508.0</ele><time>2026-04-26T10:41:20.282Z</time></trkpt><trkpt lat="43.4027583" lon="12.99147"><ele>507.0</ele><time>2026-04-26T10:41:21.282Z</time></trkpt><trkpt lat="43.4026317" lon="12.99154"><ele>507.0</ele><time>2026-04-26T10:41:22.282Z</time></trkpt><trkpt lat="43.4025033" lon="12.99162"><ele>507.0</ele><time>2026-04-26T10:41:23.282Z</time></trkpt><trkpt lat="43.4023767" lon="12.9917083"><ele>507.0</ele><time>2026-04-26T10:41:24.282Z</time></trkpt><trkpt lat="43.4022517" lon="12.9917783"><ele>507.0</ele><time>2026-04-26T10:41:25.282Z</time></trkpt><trkpt lat="43.4021283" lon="12.99186"><ele>511.5</ele><time>2026-04-26T10:41:26.282Z</time></trkpt><trkpt lat="43.4020183" lon="12.9919217"><ele>516.0</ele><time>2026-04-26T10:41:27.282Z</time></trkpt><trkpt lat="43.4019067" lon="12.99199"><ele>520.5</ele><time>2026-04-26T10:41:28.282Z</time></trkpt><trkpt lat="43.4018033" lon="12.9920517"><ele>525.0</ele><time>2026-04-26T10:41:29.282Z</time></trkpt><trkpt lat="43.4017067" lon="12.9921133"><ele>525.0</ele><time>2026-04-26T10:41:30.282Z</time></trkpt><trkpt lat="43.401615" lon="12.9921817"><ele>525.0</ele><time>2026-04-26T10:41:31.282Z</time></trkpt><trkpt lat="43.4015383" lon="12.9922483"><ele>525.0</ele><time>2026-04-26T10:41:32.282Z</time></trkpt><trkpt lat="43.4014717" lon="12.992305"><ele>525.0</ele><time>2026-04-26T10:41:33.282Z</time></trkpt><trkpt lat="43.40142" lon="12.9923567"><ele>525.0</ele><time>2026-04-26T10:41:34.282Z</time></trkpt><trkpt lat="43.4013483" lon="12.9924667"><ele>525.0</ele><time>2026-04-26T10:41:36.282Z</time></trkpt><trkpt lat="43.4013017" lon="12.9925317"><ele>527.0</ele><time>2026-04-26T10:41:39.282Z</time></trkpt><trkpt lat="43.4012933" lon="12.9926367"><ele>529.0</ele><time>2026-04-26T10:45:05.281Z</time></trkpt><trkpt lat="43.4012433" lon="12.9927867"><ele>531.0</ele><time>2026-04-26T10:45:07.281Z</time></trkpt><trkpt lat="43.4012" lon="12.9928983"><ele>533.0</ele><time>2026-04-26T10:45:09.281Z</time></trkpt><trkpt lat="43.4011533" lon="12.9929967"><ele>535.0</ele><time>2026-04-26T10:45:10.281Z</time></trkpt><trkpt lat="43.4010733" lon="12.9930683"><ele>535.0</ele><time>2026-04-26T10:45:11.281Z</time></trkpt><trkpt lat="43.4009817" lon="12.9931417"><ele>535.0</ele><time>2026-04-26T10:45:12.281Z</time></trkpt><trkpt lat="43.4008967" lon="12.9931933"><ele>535.0</ele><time>2026-04-26T10:45:13.281Z</time></trkpt><trkpt lat="43.400815" lon="12.99323"><ele>535.0</ele><time>2026-04-26T10:45:14.281Z</time></trkpt><trkpt lat="43.400735" lon="12.99326"><ele>535.0</ele><time>2026-04-26T10:45:15.281Z</time></trkpt><trkpt lat="43.4006683" lon="12.9932917"><ele>535.0</ele><time>2026-04-26T10:45:16.281Z</time></trkpt><trkpt lat="43.400605" lon="12.993335"><ele>538.6666666666667</ele><time>2026-04-26T10:45:17.281Z</time></trkpt><trkpt lat="43.40054" lon="12.9933783"><ele>542.3333333333334</ele><time>2026-04-26T10:45:18.281Z</time></trkpt><trkpt lat="43.40047" lon="12.9934217"><ele>546.0</ele><time>2026-04-26T10:45:19.281Z</time></trkpt><trkpt lat="43.4004117" lon="12.9934683"><ele>549.6666666666666</ele><time>2026-04-26T10:45:20.281Z</time></trkpt><trkpt lat="43.4002983" lon="12.993545"><ele>553.3333333333333</ele><time>2026-04-26T10:45:22.281Z</time></trkpt><trkpt lat="43.4002383" lon="12.9935833"><ele>557.0</ele><time>2026-04-26T10:45:23.281Z</time></trkpt><trkpt lat="43.4001783" lon="12.993625"><ele>557.0</ele><time>2026-04-26T10:45:24.281Z</time></trkpt><trkpt lat="43.4001183" lon="12.9936767"><ele>557.0</ele><time>2026-04-26T10:45:25.281Z</time></trkpt><trkpt lat="43.4000633" lon="12.9937233"><ele>557.0</ele><time>2026-04-26T10:45:26.281Z</time></trkpt><trkpt lat="43.3999483" lon="12.9938083"><ele>557.0</ele><time>2026-04-26T10:45:28.282Z</time></trkpt><trkpt lat="43.3998883" lon="12.9938383"><ele>557.0</ele><time>2026-04-26T10:45:29.281Z</time></trkpt><trkpt lat="43.39982" lon="12.99386"><ele>557.0</ele><time>2026-04-26T10:45:30.281Z</time></trkpt><trkpt lat="43.3997417" lon="12.9938617"><ele>557.0</ele><time>2026-04-26T10:45:31.281Z</time></trkpt><trkpt lat="43.3996733" lon="12.9938483"><ele>557.0</ele><time>2026-04-26T10:45:32.281Z</time></trkpt><trkpt lat="43.3996117" lon="12.9938267"><ele>557.0</ele><time>2026-04-26T10:45:33.281Z</time></trkpt><trkpt lat="43.3994983" lon="12.9937867"><ele>557.0</ele><time>2026-04-26T10:45:35.281Z</time></trkpt><trkpt lat="43.39942" lon="12.9937733"><ele>557.0</ele><time>2026-04-26T10:45:37.281Z</time></trkpt><trkpt lat="43.3993633" lon="12.993845"><ele>557.0</ele><time>2026-04-26T10:45:40.281Z</time></trkpt><trkpt lat="43.3994404" lon="12.9939469"><ele>557.0</ele><time>2026-04-26T10:45:44.315Z</time></trkpt><trkpt lat="43.3995416" lon="12.9939888"><ele>557.0</ele><time>2026-04-26T10:45:45.281Z</time></trkpt><trkpt lat="43.399605" lon="12.9940226"><ele>557.0</ele><time>2026-04-26T10:45:46.337Z</time></trkpt><trkpt lat="43.3998439" lon="12.9940827"><ele>557.0</ele><time>2026-04-26T10:45:47.282Z</time></trkpt><trkpt lat="43.4000348" lon="12.9941099"><ele>557.0</ele><time>2026-04-26T10:45:48.281Z</time></trkpt><trkpt lat="43.4002116" lon="12.9941315"><ele>557.0</ele><time>2026-04-26T10:45:49.281Z</time></trkpt><trkpt lat="43.400387" lon="12.9941476"><ele>557.0</ele><time>2026-04-26T10:45:50.281Z</time></trkpt><trkpt lat="43.4005486" lon="12.9941765"><ele>567.6666666666666</ele><time>2026-04-26T10:45:51.281Z</time></trkpt><trkpt lat="43.4007069" lon="12.9942004"><ele>578.3333333333334</ele><time>2026-04-26T10:45:52.282Z</time></trkpt><trkpt lat="43.400869" lon="12.9942145"><ele>589.0</ele><time>2026-04-26T10:45:53.281Z</time></trkpt><trkpt lat="43.4010269" lon="12.9942246"><ele>589.0</ele><time>2026-04-26T10:45:54.281Z</time></trkpt><trkpt lat="43.4011843" lon="12.9942459"><ele>589.0</ele><time>2026-04-26T10:45:55.281Z</time></trkpt><trkpt lat="43.4013412" lon="12.9942651"><ele>589.0</ele><time>2026-04-26T10:45:56.281Z</time></trkpt><trkpt lat="43.4014994" lon="12.9942812"><ele>591.0</ele><time>2026-04-26T10:45:57.281Z</time></trkpt><trkpt lat="43.4016621" lon="12.9942778"><ele>593.0</ele><time>2026-04-26T10:45:58.281Z</time></trkpt><trkpt lat="43.4018337" lon="12.9942648"><ele>595.0</ele><time>2026-04-26T10:45:59.281Z</time></trkpt><trkpt lat="43.4020087" lon="12.9942384"><ele>597.3333333333334</ele><time>2026-04-26T10:46:00.281Z</time></trkpt><trkpt lat="43.4021842" lon="12.9941867"><ele>599.6666666666666</ele><time>2026-04-26T10:46:01.281Z</time></trkpt><trkpt lat="43.402352" lon="12.994126"><ele>602.0</ele><time>2026-04-26T10:46:02.282Z</time></trkpt><trkpt lat="43.402521" lon="12.9940793"><ele>593.6666666666666</ele><time>2026-04-26T10:46:03.282Z</time></trkpt><trkpt lat="43.4026856" lon="12.9940622"><ele>585.3333333333334</ele><time>2026-04-26T10:46:04.281Z</time></trkpt><trkpt lat="43.4028519" lon="12.9940653"><ele>577.0</ele><time>2026-04-26T10:46:05.281Z</time></trkpt><trkpt lat="43.4030201" lon="12.9940789"><ele>577.0</ele><time>2026-04-26T10:46:06.281Z</time></trkpt><trkpt lat="43.4031889" lon="12.994104"><ele>577.0</ele><time>2026-04-26T10:46:07.281Z</time></trkpt><trkpt lat="43.4033641" lon="12.9941362"><ele>577.0</ele><time>2026-04-26T10:46:08.281Z</time></trkpt><trkpt lat="43.4035373" lon="12.9941681"><ele>584.6666666666667</ele><time>2026-04-26T10:46:09.281Z</time></trkpt><trkpt lat="43.4037171" lon="12.9942019"><ele>592.3333333333334</ele><time>2026-04-26T10:46:10.281Z</time></trkpt><trkpt lat="43.4038947" lon="12.9942388"><ele>600.0</ele><time>2026-04-26T10:46:11.281Z</time></trkpt><trkpt lat="43.4040726" lon="12.9942792"><ele>601.0</ele><time>2026-04-26T10:46:12.282Z</time></trkpt><trkpt lat="43.4042545" lon="12.9943191"><ele>602.0</ele><time>2026-04-26T10:46:13.281Z</time></trkpt><trkpt lat="43.4044277" lon="12.9943637"><ele>603.0</ele><time>2026-04-26T10:46:14.281Z</time></trkpt><trkpt lat="43.4045985" lon="12.9944183"><ele>602.6666666666666</ele><time>2026-04-26T10:46:15.281Z</time></trkpt><trkpt lat="43.4047783" lon="12.9944734"><ele>602.3333333333333</ele><time>2026-04-26T10:46:16.281Z</time></trkpt><trkpt lat="43.4049505" lon="12.9945415"><ele>602.0</ele><time>2026-04-26T10:46:17.281Z</time></trkpt><trkpt lat="43.4051241" lon="12.9946137"><ele>602.0</ele><time>2026-04-26T10:46:18.281Z</time></trkpt><trkpt lat="43.4052932" lon="12.9946833"><ele>602.0</ele><time>2026-04-26T10:46:19.281Z</time></trkpt><trkpt lat="43.4054573" lon="12.9947546"><ele>602.0</ele><time>2026-04-26T10:46:20.281Z</time></trkpt><trkpt lat="43.4056117" lon="12.9948355"><ele>600.6666666666666</ele><time>2026-04-26T10:46:21.281Z</time></trkpt><trkpt lat="43.405766" lon="12.9949256"><ele>599.3333333333334</ele><time>2026-04-26T10:46:22.281Z</time></trkpt><trkpt lat="43.4059241" lon="12.9950145"><ele>598.0</ele><time>2026-04-26T10:46:23.281Z</time></trkpt><trkpt lat="43.4060808" lon="12.9951061"><ele>603.0</ele><time>2026-04-26T10:46:24.282Z</time></trkpt><trkpt lat="43.4062346" lon="12.9952031"><ele>608.0</ele><time>2026-04-26T10:46:25.282Z</time></trkpt><trkpt lat="43.4063833" lon="12.9953033"><ele>613.0</ele><time>2026-04-26T10:46:26.281Z</time></trkpt><trkpt lat="43.4065383" lon="12.9954"><ele>613.0</ele><time>2026-04-26T10:46:27.281Z</time></trkpt><trkpt lat="43.4066817" lon="12.9954883"><ele>613.0</ele><time>2026-04-26T10:46:28.282Z</time></trkpt><trkpt lat="43.4068083" lon="12.9955817"><ele>613.0</ele><time>2026-04-26T10:46:29.281Z</time></trkpt><trkpt lat="43.4069317" lon="12.9956567"><ele>613.0</ele><time>2026-04-26T10:46:30.281Z</time></trkpt><trkpt lat="43.4070417" lon="12.9957267"><ele>613.0</ele><time>2026-04-26T10:46:31.281Z</time></trkpt><trkpt lat="43.4071333" lon="12.9957833"><ele>613.0</ele><time>2026-04-26T10:46:32.281Z</time></trkpt><trkpt lat="43.40722" lon="12.9958317"><ele>613.0</ele><time>2026-04-26T10:46:33.281Z</time></trkpt><trkpt lat="43.4072933" lon="12.9958833"><ele>613.0</ele><time>2026-04-26T10:46:34.281Z</time></trkpt><trkpt lat="43.407345" lon="12.9959433"><ele>613.0</ele><time>2026-04-26T10:46:35.281Z</time></trkpt><trkpt lat="43.4073583" lon="12.9960783"><ele>613.0</ele><time>2026-04-26T10:46:37.281Z</time></trkpt><trkpt lat="43.4072233" lon="12.9960817"><ele>618.75</ele><time>2026-04-26T10:46:39.281Z</time></trkpt><trkpt lat="43.40713" lon="12.9960333"><ele>624.5</ele><time>2026-04-26T10:46:40.282Z</time></trkpt><trkpt lat="43.4070133" lon="12.99597"><ele>630.25</ele><time>2026-04-26T10:46:41.281Z</time></trkpt><trkpt lat="43.4068717" lon="12.995925"><ele>636.0</ele><time>2026-04-26T10:46:42.281Z</time></trkpt><trkpt lat="43.4067317" lon="12.9959083"><ele>636.0</ele><time>2026-04-26T10:46:43.281Z</time></trkpt><trkpt lat="43.4065767" lon="12.9958933"><ele>636.0</ele><time>2026-04-26T10:46:44.282Z</time></trkpt><trkpt lat="43.4064117" lon="12.9958883"><ele>636.0</ele><time>2026-04-26T10:46:45.281Z</time></trkpt><trkpt lat="43.4062383" lon="12.9958983"><ele>640.0</ele><time>2026-04-26T10:46:46.281Z</time></trkpt><trkpt lat="43.4060567" lon="12.9959167"><ele>644.0</ele><time>2026-04-26T10:46:47.281Z</time></trkpt><trkpt lat="43.4058733" lon="12.9959317"><ele>648.0</ele><time>2026-04-26T10:46:48.281Z</time></trkpt><trkpt lat="43.4056933" lon="12.9959517"><ele>648.0</ele><time>2026-04-26T10:46:49.281Z</time></trkpt><trkpt lat="43.4055167" lon="12.995965"><ele>648.0</ele><time>2026-04-26T10:46:50.281Z</time></trkpt><trkpt lat="43.4053467" lon="12.9959833"><ele>648.0</ele><time>2026-04-26T10:46:51.282Z</time></trkpt><trkpt lat="43.4051733" lon="12.996005"><ele>649.3333333333334</ele><time>2026-04-26T10:46:52.281Z</time></trkpt><trkpt lat="43.404995" lon="12.9960167"><ele>650.6666666666667</ele><time>2026-04-26T10:46:53.281Z</time></trkpt><trkpt lat="43.4048183" lon="12.9960367"><ele>652.0</ele><time>2026-04-26T10:46:54.282Z</time></trkpt><trkpt lat="43.4046417" lon="12.9960517"><ele>652.0</ele><time>2026-04-26T10:46:55.282Z</time></trkpt><trkpt lat="43.4044667" lon="12.9960767"><ele>652.0</ele><time>2026-04-26T10:46:56.281Z</time></trkpt><trkpt lat="43.4042967" lon="12.9960967"><ele>652.0</ele><time>2026-04-26T10:46:57.281Z</time></trkpt><trkpt lat="43.4041217" lon="12.9961233"><ele>652.0</ele><time>2026-04-26T10:46:58.281Z</time></trkpt><trkpt lat="43.4039483" lon="12.9961467"><ele>652.0</ele><time>2026-04-26T10:46:59.281Z</time></trkpt><trkpt lat="43.4037717" lon="12.9961717"><ele>652.0</ele><time>2026-04-26T10:47:00.282Z</time></trkpt><trkpt lat="43.4036033" lon="12.9961817"><ele>652.5</ele><time>2026-04-26T10:47:01.281Z</time></trkpt><trkpt lat="43.4034517" lon="12.9961817"><ele>653.0</ele><time>2026-04-26T10:47:02.281Z</time></trkpt><trkpt lat="43.4033117" lon="12.9961817"><ele>653.5</ele><time>2026-04-26T10:47:03.281Z</time></trkpt><trkpt lat="43.4031883" lon="12.9961917"><ele>654.0</ele><time>2026-04-26T10:47:04.281Z</time></trkpt><trkpt lat="43.40307" lon="12.99622"><ele>652.75</ele><time>2026-04-26T10:47:05.281Z</time></trkpt><trkpt lat="43.4029533" lon="12.996275"><ele>651.5</ele><time>2026-04-26T10:47:06.282Z</time></trkpt><trkpt lat="43.402835" lon="12.9963683"><ele>650.25</ele><time>2026-04-26T10:47:07.281Z</time></trkpt><trkpt lat="43.4027117" lon="12.9964783"><ele>649.0</ele><time>2026-04-26T10:47:08.281Z</time></trkpt><trkpt lat="43.40258" lon="12.9965733"><ele>649.0</ele><time>2026-04-26T10:47:09.281Z</time></trkpt><trkpt lat="43.4024417" lon="12.9966567"><ele>649.0</ele><time>2026-04-26T10:47:10.281Z</time></trkpt><trkpt lat="43.4022983" lon="12.9967033"><ele>649.0</ele><time>2026-04-26T10:47:11.282Z</time></trkpt><trkpt lat="43.402165" lon="12.9967333"><ele>649.0</ele><time>2026-04-26T10:47:12.281Z</time></trkpt><trkpt lat="43.402055" lon="12.99675"><ele>650.5</ele><time>2026-04-26T10:47:13.281Z</time></trkpt><trkpt lat="43.4019683" lon="12.9967617"><ele>652.0</ele><time>2026-04-26T10:47:14.281Z</time></trkpt><trkpt lat="43.401895" lon="12.9967767"><ele>653.5</ele><time>2026-04-26T10:47:15.281Z</time></trkpt><trkpt lat="43.4017983" lon="12.9968617"><ele>655.0</ele><time>2026-04-26T10:47:17.281Z</time></trkpt><trkpt lat="43.4018067" lon="12.996995"><ele>656.5</ele><time>2026-04-26T10:47:19.281Z</time></trkpt><trkpt lat="43.4018683" lon="12.997035"><ele>658.0</ele><time>2026-04-26T10:47:20.281Z</time></trkpt><trkpt lat="43.4019433" lon="12.99706"><ele>658.0</ele><time>2026-04-26T10:47:21.281Z</time></trkpt><trkpt lat="43.4020467" lon="12.99706"><ele>658.0</ele><time>2026-04-26T10:47:22.281Z</time></trkpt><trkpt lat="43.4021883" lon="12.9970583"><ele>658.0</ele><time>2026-04-26T10:47:23.281Z</time></trkpt><trkpt lat="43.402345" lon="12.9970583"><ele>658.0</ele><time>2026-04-26T10:47:24.281Z</time></trkpt><trkpt lat="43.402505" lon="12.99706"><ele>659.0</ele><time>2026-04-26T10:47:25.281Z</time></trkpt><trkpt lat="43.4026833" lon="12.9970583"><ele>660.0</ele><time>2026-04-26T10:47:26.281Z</time></trkpt><trkpt lat="43.4028583" lon="12.997055"><ele>661.0</ele><time>2026-04-26T10:47:27.281Z</time></trkpt><trkpt lat="43.4030133" lon="12.9970333"><ele>663.75</ele><time>2026-04-26T10:47:28.281Z</time></trkpt><trkpt lat="43.4031567" lon="12.9969933"><ele>666.5</ele><time>2026-04-26T10:47:29.281Z</time></trkpt><trkpt lat="43.4032783" lon="12.996985"><ele>669.25</ele><time>2026-04-26T10:47:30.281Z</time></trkpt><trkpt lat="43.4034" lon="12.997025"><ele>672.0</ele><time>2026-04-26T10:47:31.281Z</time></trkpt><trkpt lat="43.4035333" lon="12.997075"><ele>672.0</ele><time>2026-04-26T10:47:32.281Z</time></trkpt><trkpt lat="43.40368" lon="12.99714"><ele>672.0</ele><time>2026-04-26T10:47:33.281Z</time></trkpt><trkpt lat="43.40383" lon="12.9971967"><ele>672.0</ele><time>2026-04-26T10:47:34.281Z</time></trkpt><trkpt lat="43.4039767" lon="12.9972467"><ele>672.75</ele><time>2026-04-26T10:47:35.281Z</time></trkpt><trkpt lat="43.4041067" lon="12.9972983"><ele>673.5</ele><time>2026-04-26T10:47:36.281Z</time></trkpt><trkpt lat="43.4042233" lon="12.9973383"><ele>674.25</ele><time>2026-04-26T10:47:37.281Z</time></trkpt><trkpt lat="43.4043267" lon="12.9973883"><ele>675.0</ele><time>2026-04-26T10:47:38.281Z</time></trkpt><trkpt lat="43.4044133" lon="12.99744"><ele>675.0</ele><time>2026-04-26T10:47:39.281Z</time></trkpt><trkpt lat="43.4044817" lon="12.9974883"><ele>675.0</ele><time>2026-04-26T10:47:40.281Z</time></trkpt><trkpt lat="43.404535" lon="12.9975983"><ele>675.0</ele><time>2026-04-26T10:47:42.281Z</time></trkpt><trkpt lat="43.4045417" lon="12.9977083"><ele>675.0</ele><time>2026-04-26T10:47:44.281Z</time></trkpt><trkpt lat="43.40453" lon="12.997805"><ele>675.0</ele><time>2026-04-26T10:47:46.281Z</time></trkpt><trkpt lat="43.40448" lon="12.9978583"><ele>675.0</ele><time>2026-04-26T10:47:48.281Z</time></trkpt><trkpt lat="43.4043967" lon="12.9979033"><ele>676.0</ele><time>2026-04-26T10:47:50.281Z</time></trkpt><trkpt lat="43.404315" lon="12.9979167"><ele>677.0</ele><time>2026-04-26T10:47:51.281Z</time></trkpt><trkpt lat="43.40424" lon="12.9979333"><ele>678.0</ele><time>2026-04-26T10:47:52.281Z</time></trkpt><trkpt lat="43.4041633" lon="12.9979383"><ele>679.0</ele><time>2026-04-26T10:47:53.281Z</time></trkpt><trkpt lat="43.404085" lon="12.997945"><ele>680.0</ele><time>2026-04-26T10:47:54.281Z</time></trkpt><trkpt lat="43.4040067" lon="12.9979567"><ele>681.0</ele><time>2026-04-26T10:47:55.281Z</time></trkpt><trkpt lat="43.40394" lon="12.997975"><ele>681.0</ele><time>2026-04-26T10:47:56.281Z</time></trkpt><trkpt lat="43.403875" lon="12.9979933"><ele>681.0</ele><time>2026-04-26T10:47:57.281Z</time></trkpt><trkpt lat="43.403815" lon="12.9980367"><ele>681.0</ele><time>2026-04-26T10:47:58.281Z</time></trkpt><trkpt lat="43.4037483" lon="12.9980917"><ele>681.0</ele><time>2026-04-26T10:47:59.281Z</time></trkpt><trkpt lat="43.403675" lon="12.9981633"><ele>681.0</ele><time>2026-04-26T10:48:00.281Z</time></trkpt><trkpt lat="43.403605" lon="12.9982467"><ele>681.0</ele><time>2026-04-26T10:48:01.281Z</time></trkpt><trkpt lat="43.4035433" lon="12.9983217"><ele>681.5</ele><time>2026-04-26T10:48:02.281Z</time></trkpt><trkpt lat="43.403495" lon="12.9983983"><ele>682.0</ele><time>2026-04-26T10:48:03.282Z</time></trkpt><trkpt lat="43.403465" lon="12.9984867"><ele>682.5</ele><time>2026-04-26T10:48:04.282Z</time></trkpt><trkpt lat="43.4034633" lon="12.99859"><ele>683.0</ele><time>2026-04-26T10:48:05.281Z</time></trkpt><trkpt lat="43.4034867" lon="12.9987"><ele>683.5</ele><time>2026-04-26T10:48:06.281Z</time></trkpt><trkpt lat="43.4035267" lon="12.9988283"><ele>684.0</ele><time>2026-04-26T10:48:07.281Z</time></trkpt><trkpt lat="43.4035733" lon="12.998965"><ele>684.0</ele><time>2026-04-26T10:48:08.281Z</time></trkpt><trkpt lat="43.403625" lon="12.9991083"><ele>684.0</ele><time>2026-04-26T10:48:09.281Z</time></trkpt><trkpt lat="43.4036683" lon="12.9992417"><ele>684.0</ele><time>2026-04-26T10:48:10.281Z</time></trkpt><trkpt lat="43.4036983" lon="12.99936"><ele>684.0</ele><time>2026-04-26T10:48:11.281Z</time></trkpt><trkpt lat="43.4037233" lon="12.9994717"><ele>684.0</ele><time>2026-04-26T10:48:12.281Z</time></trkpt><trkpt lat="43.4037267" lon="12.999575"><ele>684.3333333333334</ele><time>2026-04-26T10:48:13.281Z</time></trkpt><trkpt lat="43.40372" lon="12.999675"><ele>684.6666666666666</ele><time>2026-04-26T10:48:14.281Z</time></trkpt><trkpt lat="43.40368" lon="12.9997683"><ele>685.0</ele><time>2026-04-26T10:48:15.281Z</time></trkpt><trkpt lat="43.4036267" lon="12.9998517"><ele>685.3333333333333</ele><time>2026-04-26T10:48:16.281Z</time></trkpt><trkpt lat="43.4035533" lon="12.999905"><ele>685.6666666666666</ele><time>2026-04-26T10:48:17.281Z</time></trkpt><trkpt lat="43.4034567" lon="12.9999333"><ele>686.0</ele><time>2026-04-26T10:48:18.281Z</time></trkpt><trkpt lat="43.40335" lon="12.9999533"><ele>686.0</ele><time>2026-04-26T10:48:19.281Z</time></trkpt><trkpt lat="43.4032233" lon="12.99998"><ele>686.0</ele><time>2026-04-26T10:48:20.281Z</time></trkpt><trkpt lat="43.4030917" lon="12.999995"><ele>686.0</ele><time>2026-04-26T10:48:21.281Z</time></trkpt><trkpt lat="43.4029633" lon="13.0"><ele>686.0</ele><time>2026-04-26T10:48:22.281Z</time></trkpt><trkpt lat="43.4028317" lon="12.9999983"><ele>687.5</ele><time>2026-04-26T10:48:23.282Z</time></trkpt><trkpt lat="43.4027033" lon="12.9999917"><ele>689.0</ele><time>2026-04-26T10:48:24.281Z</time></trkpt><trkpt lat="43.4025683" lon="12.9999867"><ele>690.5</ele><time>2026-04-26T10:48:25.282Z</time></trkpt><trkpt lat="43.4024383" lon="12.999985"><ele>692.0</ele><time>2026-04-26T10:48:26.281Z</time></trkpt><trkpt lat="43.4023183" lon="13.0"><ele>692.0</ele><time>2026-04-26T10:48:27.281Z</time></trkpt><trkpt lat="43.4021983" lon="13.00001"><ele>692.0</ele><time>2026-04-26T10:48:28.281Z</time></trkpt><trkpt lat="43.402085" lon="13.0000167"><ele>692.0</ele><time>2026-04-26T10:48:29.281Z</time></trkpt><trkpt lat="43.4019733" lon="13.000025"><ele>692.0</ele><time>2026-04-26T10:48:30.281Z</time></trkpt><trkpt lat="43.40187" lon="13.000035"><ele>692.0</ele><time>2026-04-26T10:48:31.281Z</time></trkpt><trkpt lat="43.4017667" lon="13.0000383"><ele>693.8</ele><time>2026-04-26T10:48:32.281Z</time></trkpt><trkpt lat="43.4016567" lon="13.0000383"><ele>695.6</ele><time>2026-04-26T10:48:33.281Z</time></trkpt><trkpt lat="43.4015417" lon="13.00003"><ele>697.4</ele><time>2026-04-26T10:48:34.281Z</time></trkpt><trkpt lat="43.4014283" lon="13.0000267"><ele>699.1999999999999</ele><time>2026-04-26T10:48:35.282Z</time></trkpt><trkpt lat="43.4013233" lon="13.0000017"><ele>701.0</ele><time>2026-04-26T10:48:36.281Z</time></trkpt><trkpt lat="43.4012183" lon="12.9999567"><ele>703.5</ele><time>2026-04-26T10:48:37.281Z</time></trkpt><trkpt lat="43.401105" lon="12.99989"><ele>706.0</ele><time>2026-04-26T10:48:38.281Z</time></trkpt><trkpt lat="43.400975" lon="12.9998133"><ele>708.5</ele><time>2026-04-26T10:48:39.281Z</time></trkpt><trkpt lat="43.400845" lon="12.9997483"><ele>711.0</ele><time>2026-04-26T10:48:40.281Z</time></trkpt><trkpt lat="43.4007317" lon="12.9996917"><ele>711.0</ele><time>2026-04-26T10:48:41.281Z</time></trkpt><trkpt lat="43.4006117" lon="12.9996333"><ele>711.0</ele><time>2026-04-26T10:48:42.281Z</time></trkpt><trkpt lat="43.4004933" lon="12.99958"><ele>711.0</ele><time>2026-04-26T10:48:43.281Z</time></trkpt><trkpt lat="43.4003783" lon="12.999535"><ele>711.0</ele><time>2026-04-26T10:48:44.281Z</time></trkpt><trkpt lat="43.40027" lon="12.99949"><ele>713.25</ele><time>2026-04-26T10:48:45.281Z</time></trkpt><trkpt lat="43.4001633" lon="12.99945"><ele>715.5</ele><time>2026-04-26T10:48:46.281Z</time></trkpt><trkpt lat="43.400055" lon="12.9994033"><ele>717.75</ele><time>2026-04-26T10:48:47.281Z</time></trkpt><trkpt lat="43.3999333" lon="12.9993583"><ele>720.0</ele><time>2026-04-26T10:48:48.281Z</time></trkpt><trkpt lat="43.3998117" lon="12.9993167"><ele>720.0</ele><time>2026-04-26T10:48:49.281Z</time></trkpt><trkpt lat="43.3996933" lon="12.999285"><ele>720.0</ele><time>2026-04-26T10:48:50.281Z</time></trkpt><trkpt lat="43.399575" lon="12.9992517"><ele>720.0</ele><time>2026-04-26T10:48:51.281Z</time></trkpt><trkpt lat="43.3994567" lon="12.9992183"><ele>720.0</ele><time>2026-04-26T10:48:52.281Z</time></trkpt><trkpt lat="43.3993433" lon="12.99918"><ele>719.0</ele><time>2026-04-26T10:48:53.281Z</time></trkpt><trkpt lat="43.3992317" lon="12.9991517"><ele>718.0</ele><time>2026-04-26T10:48:54.281Z</time></trkpt><trkpt lat="43.3991283" lon="12.9991267"><ele>717.0</ele><time>2026-04-26T10:48:55.281Z</time></trkpt><trkpt lat="43.3990417" lon="12.9991033"><ele>716.0</ele><time>2026-04-26T10:48:56.281Z</time></trkpt><trkpt lat="43.3989567" lon="12.9990817"><ele>715.0</ele><time>2026-04-26T10:48:57.281Z</time></trkpt><trkpt lat="43.39888" lon="12.9990467"><ele>715.6</ele><time>2026-04-26T10:48:58.281Z</time></trkpt><trkpt lat="43.3988017" lon="12.9989967"><ele>716.2</ele><time>2026-04-26T10:48:59.281Z</time></trkpt><trkpt lat="43.3987183" lon="12.9989217"><ele>716.8</ele><time>2026-04-26T10:49:00.281Z</time></trkpt><trkpt lat="43.3986317" lon="12.9988467"><ele>717.4</ele><time>2026-04-26T10:49:01.282Z</time></trkpt><trkpt lat="43.398545" lon="12.9987783"><ele>718.0</ele><time>2026-04-26T10:49:02.281Z</time></trkpt><trkpt lat="43.3984617" lon="12.9987217"><ele>718.0</ele><time>2026-04-26T10:49:03.281Z</time></trkpt><trkpt lat="43.3983733" lon="12.998655"><ele>718.0</ele><time>2026-04-26T10:49:04.282Z</time></trkpt><trkpt lat="43.3982917" lon="12.9985883"><ele>718.0</ele><time>2026-04-26T10:49:05.281Z</time></trkpt><trkpt lat="43.3982067" lon="12.998515"><ele>718.0</ele><time>2026-04-26T10:49:06.281Z</time></trkpt><trkpt lat="43.3981233" lon="12.9984533"><ele>718.0</ele><time>2026-04-26T10:49:07.281Z</time></trkpt><trkpt lat="43.3980383" lon="12.998395"><ele>717.2</ele><time>2026-04-26T10:49:08.281Z</time></trkpt><trkpt lat="43.3979383" lon="12.9983417"><ele>716.4</ele><time>2026-04-26T10:49:09.281Z</time></trkpt><trkpt lat="43.3978433" lon="12.9982933"><ele>715.6</ele><time>2026-04-26T10:49:10.281Z</time></trkpt><trkpt lat="43.397755" lon="12.998245"><ele>714.8000000000001</ele><time>2026-04-26T10:49:11.281Z</time></trkpt><trkpt lat="43.3976783" lon="12.998205"><ele>714.0</ele><time>2026-04-26T10:49:12.281Z</time></trkpt><trkpt lat="43.3975967" lon="12.9981733"><ele>713.4000000000001</ele><time>2026-04-26T10:49:13.281Z</time></trkpt><trkpt lat="43.3975183" lon="12.9981367"><ele>712.8</ele><time>2026-04-26T10:49:14.281Z</time></trkpt><trkpt lat="43.3974367" lon="12.9981067"><ele>712.2</ele><time>2026-04-26T10:49:15.281Z</time></trkpt><trkpt lat="43.3973533" lon="12.9980733"><ele>711.5999999999999</ele><time>2026-04-26T10:49:16.281Z</time></trkpt><trkpt lat="43.39726" lon="12.9980533"><ele>711.0</ele><time>2026-04-26T10:49:17.281Z</time></trkpt><trkpt lat="43.3971583" lon="12.9980517"><ele>710.25</ele><time>2026-04-26T10:49:18.281Z</time></trkpt><trkpt lat="43.3970467" lon="12.9980583"><ele>709.5</ele><time>2026-04-26T10:49:19.281Z</time></trkpt><trkpt lat="43.396935" lon="12.9980783"><ele>708.75</ele><time>2026-04-26T10:49:20.281Z</time></trkpt><trkpt lat="43.3968217" lon="12.9980967"><ele>708.0</ele><time>2026-04-26T10:49:21.281Z</time></trkpt><trkpt lat="43.3967" lon="12.9981217"><ele>708.0</ele><time>2026-04-26T10:49:22.282Z</time></trkpt><trkpt lat="43.3965633" lon="12.9981433"><ele>708.0</ele><time>2026-04-26T10:49:23.281Z</time></trkpt><trkpt lat="43.3964183" lon="12.9981667"><ele>708.0</ele><time>2026-04-26T10:49:24.281Z</time></trkpt><trkpt lat="43.3962717" lon="12.99819"><ele>708.0</ele><time>2026-04-26T10:49:25.281Z</time></trkpt><trkpt lat="43.396135" lon="12.9982183"><ele>708.8</ele><time>2026-04-26T10:49:26.281Z</time></trkpt><trkpt lat="43.3960083" lon="12.99825"><ele>709.5999999999999</ele><time>2026-04-26T10:49:27.281Z</time></trkpt><trkpt lat="43.395885" lon="12.998275"><ele>710.4000000000001</ele><time>2026-04-26T10:49:28.281Z</time></trkpt><trkpt lat="43.39579" lon="12.998295"><ele>711.2</ele><time>2026-04-26T10:49:29.281Z</time></trkpt><trkpt lat="43.3957217" lon="12.9983"><ele>712.0</ele><time>2026-04-26T10:49:30.281Z</time></trkpt><trkpt lat="43.395655" lon="12.998285"><ele>712.0</ele><time>2026-04-26T10:49:31.281Z</time></trkpt><trkpt lat="43.3955967" lon="12.9982333"><ele>712.0</ele><time>2026-04-26T10:49:32.281Z</time></trkpt><trkpt lat="43.3955333" lon="12.9981633"><ele>712.0</ele><time>2026-04-26T10:49:33.281Z</time></trkpt><trkpt lat="43.39546" lon="12.9980817"><ele>712.0</ele><time>2026-04-26T10:49:34.281Z</time></trkpt><trkpt lat="43.3953717" lon="12.9980067"><ele>712.0</ele><time>2026-04-26T10:49:35.281Z</time></trkpt><trkpt lat="43.3952883" lon="12.99793"><ele>712.0</ele><time>2026-04-26T10:49:36.281Z</time></trkpt><trkpt lat="43.3951883" lon="12.9978533"><ele>714.2</ele><time>2026-04-26T10:49:37.281Z</time></trkpt><trkpt lat="43.3950933" lon="12.9977783"><ele>716.4000000000001</ele><time>2026-04-26T10:49:38.281Z</time></trkpt><trkpt lat="43.3949983" lon="12.9976883"><ele>718.5999999999999</ele><time>2026-04-26T10:49:39.281Z</time></trkpt><trkpt lat="43.3949033" lon="12.9975983"><ele>720.8</ele><time>2026-04-26T10:49:40.281Z</time></trkpt><trkpt lat="43.3948167" lon="12.9975233"><ele>723.0</ele><time>2026-04-26T10:49:41.281Z</time></trkpt><trkpt lat="43.3947433" lon="12.9974533"><ele>723.0000000000001</ele><time>2026-04-26T10:49:42.282Z</time></trkpt><trkpt lat="43.39468" lon="12.99739"><ele>723.0</ele><time>2026-04-26T10:49:43.281Z</time></trkpt><trkpt lat="43.3946183" lon="12.9973283"><ele>723.0</ele><time>2026-04-26T10:49:44.281Z</time></trkpt><trkpt lat="43.3945567" lon="12.9972783"><ele>723.0</ele><time>2026-04-26T10:49:45.281Z</time></trkpt><trkpt lat="43.3944933" lon="12.997245"><ele>723.0</ele><time>2026-04-26T10:49:46.281Z</time></trkpt><trkpt lat="43.39443" lon="12.99722"><ele>723.0000000000001</ele><time>2026-04-26T10:49:47.281Z</time></trkpt><trkpt lat="43.39436" lon="12.99719"><ele>723.0</ele><time>2026-04-26T10:49:48.282Z</time></trkpt><trkpt lat="43.394285" lon="12.99716"><ele>726.2</ele><time>2026-04-26T10:49:49.281Z</time></trkpt><trkpt lat="43.3942017" lon="12.997135"><ele>729.4</ele><time>2026-04-26T10:49:50.281Z</time></trkpt><trkpt lat="43.3941133" lon="12.9971"><ele>732.6</ele><time>2026-04-26T10:49:51.282Z</time></trkpt><trkpt lat="43.394025" lon="12.9970617"><ele>735.8000000000001</ele><time>2026-04-26T10:49:52.281Z</time></trkpt><trkpt lat="43.3939267" lon="12.99702"><ele>739.0</ele><time>2026-04-26T10:49:53.281Z</time></trkpt><trkpt lat="43.39383" lon="12.9969817"><ele>741.0</ele><time>2026-04-26T10:49:54.281Z</time></trkpt><trkpt lat="43.3937183" lon="12.9969433"><ele>743.0</ele><time>2026-04-26T10:49:55.281Z</time></trkpt><trkpt lat="43.3936033" lon="12.9969033"><ele>745.0</ele><time>2026-04-26T10:49:56.281Z</time></trkpt><trkpt lat="43.3934983" lon="12.99685"><ele>747.0</ele><time>2026-04-26T10:49:57.281Z</time></trkpt><trkpt lat="43.3933933" lon="12.9967817"><ele>747.0</ele><time>2026-04-26T10:49:58.281Z</time></trkpt><trkpt lat="43.393295" lon="12.9967017"><ele>747.0</ele><time>2026-04-26T10:49:59.281Z</time></trkpt><trkpt lat="43.3932" lon="12.9966133"><ele>747.0</ele><time>2026-04-26T10:50:00.281Z</time></trkpt><trkpt lat="43.39311" lon="12.9965183"><ele>747.0</ele><time>2026-04-26T10:50:01.281Z</time></trkpt><trkpt lat="43.3930233" lon="12.996415"><ele>750.8</ele><time>2026-04-26T10:50:02.281Z</time></trkpt><trkpt lat="43.3929333" lon="12.9963067"><ele>754.6</ele><time>2026-04-26T10:50:03.282Z</time></trkpt><trkpt lat="43.3928633" lon="12.9962083"><ele>758.4</ele><time>2026-04-26T10:50:04.281Z</time></trkpt><trkpt lat="43.392795" lon="12.9961283"><ele>762.1999999999999</ele><time>2026-04-26T10:50:05.281Z</time></trkpt><trkpt lat="43.3927367" lon="12.9960567"><ele>766.0</ele><time>2026-04-26T10:50:06.281Z</time></trkpt><trkpt lat="43.39269" lon="12.99599"><ele>766.0</ele><time>2026-04-26T10:50:07.281Z</time></trkpt><trkpt lat="43.3925983" lon="12.9958967"><ele>766.0</ele><time>2026-04-26T10:50:09.281Z</time></trkpt><trkpt lat="43.3925242" lon="12.9959047"><ele>766.0</ele><time>2026-04-26T10:50:11.281Z</time></trkpt><trkpt lat="43.3925303" lon="12.9960047"><ele>766.0</ele><time>2026-04-26T10:50:13.281Z</time></trkpt><trkpt lat="43.3926213" lon="12.99614"><ele>766.0</ele><time>2026-04-26T10:50:15.281Z</time></trkpt><trkpt lat="43.3926657" lon="12.9962204"><ele>766.0</ele><time>2026-04-26T10:50:16.281Z</time></trkpt><trkpt lat="43.3926956" lon="12.9963055"><ele>766.0</ele><time>2026-04-26T10:50:17.281Z</time></trkpt><trkpt lat="43.392719" lon="12.996402"><ele>766.0</ele><time>2026-04-26T10:50:18.281Z</time></trkpt><trkpt lat="43.3927386" lon="12.9965092"><ele>766.0</ele><time>2026-04-26T10:50:19.281Z</time></trkpt><trkpt lat="43.3927474" lon="12.9966255"><ele>766.0</ele><time>2026-04-26T10:50:20.281Z</time></trkpt><trkpt lat="43.3927462" lon="12.9967558"><ele>766.0</ele><time>2026-04-26T10:50:21.281Z</time></trkpt><trkpt lat="43.3927406" lon="12.9968858"><ele>765.8</ele><time>2026-04-26T10:50:22.281Z</time></trkpt><trkpt lat="43.3927297" lon="12.9970219"><ele>765.5999999999999</ele><time>2026-04-26T10:50:23.281Z</time></trkpt><trkpt lat="43.3927138" lon="12.9971637"><ele>765.4</ele><time>2026-04-26T10:50:24.281Z</time></trkpt><trkpt lat="43.3926985" lon="12.9973163"><ele>765.2</ele><time>2026-04-26T10:50:25.281Z</time></trkpt><trkpt lat="43.3926861" lon="12.9974731"><ele>765.0</ele><time>2026-04-26T10:50:26.281Z</time></trkpt><trkpt lat="43.3926749" lon="12.9976176"><ele>765.0</ele><time>2026-04-26T10:50:27.282Z</time></trkpt><trkpt lat="43.3926583" lon="12.9977583"><ele>765.0</ele><time>2026-04-26T10:50:28.281Z</time></trkpt><trkpt lat="43.3926376" lon="12.99789"><ele>765.0</ele><time>2026-04-26T10:50:29.281Z</time></trkpt><trkpt lat="43.3926027" lon="12.9980152"><ele>765.0</ele><time>2026-04-26T10:50:30.282Z</time></trkpt><trkpt lat="43.392555" lon="12.9981267"><ele>765.0</ele><time>2026-04-26T10:50:31.281Z</time></trkpt><trkpt lat="43.3925117" lon="12.99821"><ele>765.0</ele><time>2026-04-26T10:50:32.281Z</time></trkpt><trkpt lat="43.3924183" lon="12.99829"><ele>765.0</ele><time>2026-04-26T10:50:34.281Z</time></trkpt><trkpt lat="43.3922967" lon="12.998285"><ele>765.0</ele><time>2026-04-26T10:50:36.281Z</time></trkpt><trkpt lat="43.3922217" lon="12.9982783"><ele>765.0</ele><time>2026-04-26T10:50:37.281Z</time></trkpt><trkpt lat="43.3921467" lon="12.9982933"><ele>765.0</ele><time>2026-04-26T10:50:38.281Z</time></trkpt><trkpt lat="43.3920867" lon="12.9983583"><ele>769.5</ele><time>2026-04-26T10:50:39.281Z</time></trkpt><trkpt lat="43.392035" lon="12.99848"><ele>774.0</ele><time>2026-04-26T10:50:40.281Z</time></trkpt><trkpt lat="43.3919783" lon="12.9986383"><ele>778.5</ele><time>2026-04-26T10:50:41.281Z</time></trkpt><trkpt lat="43.3919183" lon="12.9988267"><ele>783.0</ele><time>2026-04-26T10:50:42.281Z</time></trkpt><trkpt lat="43.39187" lon="12.999005"><ele>784.25</ele><time>2026-04-26T10:50:43.281Z</time></trkpt><trkpt lat="43.3918317" lon="12.9991717"><ele>785.5</ele><time>2026-04-26T10:50:44.281Z</time></trkpt><trkpt lat="43.39181" lon="12.999335"><ele>786.75</ele><time>2026-04-26T10:50:45.281Z</time></trkpt><trkpt lat="43.3918067" lon="12.9995017"><ele>788.0</ele><time>2026-04-26T10:50:46.281Z</time></trkpt><trkpt lat="43.3918067" lon="12.999665"><ele>788.0</ele><time>2026-04-26T10:50:47.281Z</time></trkpt><trkpt lat="43.3918" lon="12.9998183"><ele>788.0</ele><time>2026-04-26T10:50:48.281Z</time></trkpt><trkpt lat="43.3917883" lon="12.9999717"><ele>788.0</ele><time>2026-04-26T10:50:49.282Z</time></trkpt><trkpt lat="43.3917833" lon="13.0001267"><ele>788.0</ele><time>2026-04-26T10:50:50.281Z</time></trkpt><trkpt lat="43.391785" lon="13.0002867"><ele>788.0</ele><time>2026-04-26T10:50:51.281Z</time></trkpt><trkpt lat="43.39178" lon="13.0004483"><ele>788.0</ele><time>2026-04-26T10:50:52.281Z</time></trkpt><trkpt lat="43.391775" lon="13.00061"><ele>788.0</ele><time>2026-04-26T10:50:53.281Z</time></trkpt><trkpt lat="43.3917633" lon="13.000765"><ele>788.0</ele><time>2026-04-26T10:50:54.281Z</time></trkpt><trkpt lat="43.391755" lon="13.00094"><ele>788.75</ele><time>2026-04-26T10:50:55.281Z</time></trkpt><trkpt lat="43.3917533" lon="13.0011317"><ele>789.5</ele><time>2026-04-26T10:50:56.281Z</time></trkpt><trkpt lat="43.3917567" lon="13.0013333"><ele>790.25</ele><time>2026-04-26T10:50:57.281Z</time></trkpt><trkpt lat="43.39176" lon="13.0015267"><ele>791.0</ele><time>2026-04-26T10:50:58.281Z</time></trkpt><trkpt lat="43.3917683" lon="13.0017233"><ele>793.0</ele><time>2026-04-26T10:50:59.281Z</time></trkpt><trkpt lat="43.3917833" lon="13.0019133"><ele>795.0</ele><time>2026-04-26T10:51:00.281Z</time></trkpt><trkpt lat="43.391795" lon="13.0021067"><ele>797.0</ele><time>2026-04-26T10:51:01.281Z</time></trkpt><trkpt lat="43.3918017" lon="13.0022967"><ele>799.0</ele><time>2026-04-26T10:51:02.281Z</time></trkpt><trkpt lat="43.39181" lon="13.0024817"><ele>800.5</ele><time>2026-04-26T10:51:03.281Z</time></trkpt><trkpt lat="43.39182" lon="13.0026717"><ele>802.0</ele><time>2026-04-26T10:51:04.281Z</time></trkpt><trkpt lat="43.3918311" lon="13.002855"><ele>803.5</ele><time>2026-04-26T10:51:05.281Z</time></trkpt><trkpt lat="43.3918348" lon="13.003042"><ele>805.0</ele><time>2026-04-26T10:51:06.282Z</time></trkpt><trkpt lat="43.3918424" lon="13.003233"><ele>807.5</ele><time>2026-04-26T10:51:07.281Z</time></trkpt><trkpt lat="43.3918567" lon="13.003434"><ele>810.0</ele><time>2026-04-26T10:51:08.281Z</time></trkpt><trkpt lat="43.3918796" lon="13.003639"><ele>812.5</ele><time>2026-04-26T10:51:09.281Z</time></trkpt><trkpt lat="43.3919054" lon="13.003844"><ele>815.0</ele><time>2026-04-26T10:51:10.281Z</time></trkpt><trkpt lat="43.3919278" lon="13.0040539"><ele>819.0</ele><time>2026-04-26T10:51:11.281Z</time></trkpt><trkpt lat="43.3919502" lon="13.004268"><ele>823.0</ele><time>2026-04-26T10:51:12.281Z</time></trkpt><trkpt lat="43.3919637" lon="13.0044893"><ele>827.0</ele><time>2026-04-26T10:51:13.281Z</time></trkpt><trkpt lat="43.3919769" lon="13.0047104"><ele>827.0</ele><time>2026-04-26T10:51:14.281Z</time></trkpt><trkpt lat="43.3919949" lon="13.0049301"><ele>827.0</ele><time>2026-04-26T10:51:15.281Z</time></trkpt><trkpt lat="43.3920077" lon="13.0051401"><ele>827.0</ele><time>2026-04-26T10:51:16.281Z</time></trkpt><trkpt lat="43.3920137" lon="13.0053507"><ele>828.5</ele><time>2026-04-26T10:51:17.281Z</time></trkpt><trkpt lat="43.3920212" lon="13.0055442"><ele>830.0</ele><time>2026-04-26T10:51:18.281Z</time></trkpt><trkpt lat="43.392037" lon="13.0057103"><ele>831.5</ele><time>2026-04-26T10:51:19.281Z</time></trkpt><trkpt lat="43.3920453" lon="13.0058579"><ele>833.0</ele><time>2026-04-26T10:51:20.281Z</time></trkpt><trkpt lat="43.3920509" lon="13.0060019"><ele>833.0</ele><time>2026-04-26T10:51:21.281Z</time></trkpt><trkpt lat="43.3920519" lon="13.0061287"><ele>833.0</ele><time>2026-04-26T10:51:22.281Z</time></trkpt><trkpt lat="43.3920487" lon="13.0062291"><ele>833.0</ele><time>2026-04-26T10:51:23.281Z</time></trkpt><trkpt lat="43.3920183" lon="13.0063739"><ele>833.0</ele><time>2026-04-26T10:51:25.281Z</time></trkpt><trkpt lat="43.39195" lon="13.0063883"><ele>833.0</ele><time>2026-04-26T10:51:28.281Z</time></trkpt><trkpt lat="43.39194" lon="13.006225"><ele>833.0</ele><time>2026-04-26T10:51:31.281Z</time></trkpt><trkpt lat="43.3919283" lon="13.0060667"><ele>833.0</ele><time>2026-04-26T10:51:33.28Z</time></trkpt><trkpt lat="43.3918967" lon="13.0058933"><ele>833.0</ele><time>2026-04-26T10:51:35.28Z</time></trkpt><trkpt lat="43.3918817" lon="13.0058017"><ele>833.0</ele><time>2026-04-26T10:51:36.28Z</time></trkpt><trkpt lat="43.391855" lon="13.0057"><ele>833.0</ele><time>2026-04-26T10:51:37.28Z</time></trkpt><trkpt lat="43.3918317" lon="13.005595"><ele>833.4</ele><time>2026-04-26T10:51:38.28Z</time></trkpt><trkpt lat="43.3918067" lon="13.0054767"><ele>833.8</ele><time>2026-04-26T10:51:39.28Z</time></trkpt><trkpt lat="43.391775" lon="13.005355"><ele>834.2</ele><time>2026-04-26T10:51:40.28Z</time></trkpt><trkpt lat="43.3917467" lon="13.00524"><ele>834.6</ele><time>2026-04-26T10:51:41.28Z</time></trkpt><trkpt lat="43.3917183" lon="13.0051217"><ele>835.0</ele><time>2026-04-26T10:51:42.28Z</time></trkpt><trkpt lat="43.3916883" lon="13.0050083"><ele>833.6666666666666</ele><time>2026-04-26T10:51:43.28Z</time></trkpt><trkpt lat="43.3916567" lon="13.0049"><ele>832.3333333333333</ele><time>2026-04-26T10:51:44.28Z</time></trkpt><trkpt lat="43.3916283" lon="13.0047933"><ele>831.0</ele><time>2026-04-26T10:51:45.281Z</time></trkpt><trkpt lat="43.3915917" lon="13.0046833"><ele>829.6666666666667</ele><time>2026-04-26T10:51:46.28Z</time></trkpt><trkpt lat="43.3915583" lon="13.004575"><ele>828.3333333333334</ele><time>2026-04-26T10:51:47.28Z</time></trkpt><trkpt lat="43.391515" lon="13.0044617"><ele>827.0</ele><time>2026-04-26T10:51:48.28Z</time></trkpt><trkpt lat="43.391465" lon="13.0043417"><ele>827.0</ele><time>2026-04-26T10:51:49.28Z</time></trkpt><trkpt lat="43.3914133" lon="13.0042083"><ele>827.0</ele><time>2026-04-26T10:51:50.28Z</time></trkpt><trkpt lat="43.39136" lon="13.0040717"><ele>827.0</ele><time>2026-04-26T10:51:51.28Z</time></trkpt><trkpt lat="43.3913167" lon="13.0039217"><ele>827.0</ele><time>2026-04-26T10:51:52.28Z</time></trkpt><trkpt lat="43.39128" lon="13.0037617"><ele>833.25</ele><time>2026-04-26T10:51:53.28Z</time></trkpt><trkpt lat="43.39124" lon="13.0035983"><ele>839.5</ele><time>2026-04-26T10:51:54.28Z</time></trkpt><trkpt lat="43.391205" lon="13.00344"><ele>845.75</ele><time>2026-04-26T10:51:55.28Z</time></trkpt><trkpt lat="43.3911633" lon="13.003295"><ele>852.0</ele><time>2026-04-26T10:51:56.28Z</time></trkpt><trkpt lat="43.39112" lon="13.003165"><ele>852.0</ele><time>2026-04-26T10:51:57.28Z</time></trkpt><trkpt lat="43.3910833" lon="13.00304"><ele>852.0</ele><time>2026-04-26T10:51:58.28Z</time></trkpt><trkpt lat="43.3910417" lon="13.0029417"><ele>852.0</ele><time>2026-04-26T10:51:59.28Z</time></trkpt><trkpt lat="43.3910083" lon="13.0028517"><ele>852.0</ele><time>2026-04-26T10:52:00.28Z</time></trkpt><trkpt lat="43.3909733" lon="13.002765"><ele>852.0</ele><time>2026-04-26T10:52:01.28Z</time></trkpt><trkpt lat="43.390945" lon="13.00268"><ele>852.0</ele><time>2026-04-26T10:52:02.28Z</time></trkpt><trkpt lat="43.390895" lon="13.00254"><ele>850.2</ele><time>2026-04-26T10:52:04.28Z</time></trkpt><trkpt lat="43.3908467" lon="13.0024017"><ele>848.4000000000001</ele><time>2026-04-26T10:52:06.28Z</time></trkpt><trkpt lat="43.3908017" lon="13.00227"><ele>846.5999999999999</ele><time>2026-04-26T10:52:08.28Z</time></trkpt><trkpt lat="43.3907583" lon="13.002145"><ele>844.8</ele><time>2026-04-26T10:52:10.28Z</time></trkpt><trkpt lat="43.3907" lon="13.00201"><ele>843.0</ele><time>2026-04-26T10:52:12.28Z</time></trkpt><trkpt lat="43.3906467" lon="13.0018667"><ele>843.0</ele><time>2026-04-26T10:52:14.281Z</time></trkpt><trkpt lat="43.3906133" lon="13.00179"><ele>843.0</ele><time>2026-04-26T10:52:15.28Z</time></trkpt><trkpt lat="43.390575" lon="13.001705"><ele>843.0</ele><time>2026-04-26T10:52:16.28Z</time></trkpt><trkpt lat="43.3905333" lon="13.0016133"><ele>843.0</ele><time>2026-04-26T10:52:17.28Z</time></trkpt><trkpt lat="43.3904933" lon="13.0015167"><ele>843.0</ele><time>2026-04-26T10:52:18.28Z</time></trkpt><trkpt lat="43.3904567" lon="13.001425"><ele>843.0</ele><time>2026-04-26T10:52:19.28Z</time></trkpt><trkpt lat="43.3904183" lon="13.0013283"><ele>847.8333333333334</ele><time>2026-04-26T10:52:20.28Z</time></trkpt><trkpt lat="43.390385" lon="13.0012483"><ele>852.6666666666667</ele><time>2026-04-26T10:52:21.281Z</time></trkpt><trkpt lat="43.390345" lon="13.00115"><ele>857.5</ele><time>2026-04-26T10:52:22.28Z</time></trkpt><trkpt lat="43.3903133" lon="13.0010517"><ele>862.3333333333334</ele><time>2026-04-26T10:52:23.28Z</time></trkpt><trkpt lat="43.390285" lon="13.0009533"><ele>867.1666666666667</ele><time>2026-04-26T10:52:24.28Z</time></trkpt><trkpt lat="43.3902517" lon="13.0008567"><ele>872.0</ele><time>2026-04-26T10:52:25.28Z</time></trkpt><trkpt lat="43.3902183" lon="13.0007683"><ele>872.0000000000001</ele><time>2026-04-26T10:52:26.28Z</time></trkpt><trkpt lat="43.3901833" lon="13.0006717"><ele>872.0</ele><time>2026-04-26T10:52:27.28Z</time></trkpt><trkpt lat="43.39015" lon="13.0005767"><ele>872.0</ele><time>2026-04-26T10:52:28.28Z</time></trkpt><trkpt lat="43.3901117" lon="13.0004767"><ele>872.0</ele><time>2026-04-26T10:52:29.28Z</time></trkpt><trkpt lat="43.3900767" lon="13.000375"><ele>872.0000000000001</ele><time>2026-04-26T10:52:30.28Z</time></trkpt><trkpt lat="43.3900417" lon="13.00027"><ele>872.0</ele><time>2026-04-26T10:52:31.28Z</time></trkpt><trkpt lat="43.3899983" lon="13.00016"><ele>872.0</ele><time>2026-04-26T10:52:32.28Z</time></trkpt><trkpt lat="43.3899517" lon="13.0000467"><ele>872.0</ele><time>2026-04-26T10:52:33.28Z</time></trkpt><trkpt lat="43.389915" lon="12.9999333"><ele>872.0</ele><time>2026-04-26T10:52:34.28Z</time></trkpt><trkpt lat="43.3898772" lon="12.9998234"><ele>872.0</ele><time>2026-04-26T10:52:35.28Z</time></trkpt><trkpt lat="43.3898375" lon="12.9997094"><ele>872.0</ele><time>2026-04-26T10:52:36.28Z</time></trkpt><trkpt lat="43.3897963" lon="12.9996019"><ele>872.0000000000001</ele><time>2026-04-26T10:52:37.28Z</time></trkpt><trkpt lat="43.389754" lon="12.9995153"><ele>872.0</ele><time>2026-04-26T10:52:38.281Z</time></trkpt><trkpt lat="43.3897103" lon="12.9994202"><ele>872.0</ele><time>2026-04-26T10:52:39.28Z</time></trkpt><trkpt lat="43.3896678" lon="12.999328"><ele>872.0</ele><time>2026-04-26T10:52:40.28Z</time></trkpt><trkpt lat="43.3896224" lon="12.999237"><ele>872.0000000000001</ele><time>2026-04-26T10:52:41.28Z</time></trkpt><trkpt lat="43.3895764" lon="12.9991451"><ele>872.0</ele><time>2026-04-26T10:52:42.28Z</time></trkpt><trkpt lat="43.3895322" lon="12.9990505"><ele>877.5000000000001</ele><time>2026-04-26T10:52:43.28Z</time></trkpt><trkpt lat="43.3894905" lon="12.9989626"><ele>883.0</ele><time>2026-04-26T10:52:44.281Z</time></trkpt><trkpt lat="43.3894492" lon="12.9988634"><ele>888.5</ele><time>2026-04-26T10:52:45.28Z</time></trkpt><trkpt lat="43.3894045" lon="12.998767"><ele>894.0</ele><time>2026-04-26T10:52:46.28Z</time></trkpt><trkpt lat="43.3893611" lon="12.9986663"><ele>899.5000000000001</ele><time>2026-04-26T10:52:47.28Z</time></trkpt><trkpt lat="43.3893169" lon="12.998567"><ele>905.0</ele><time>2026-04-26T10:52:48.28Z</time></trkpt><trkpt lat="43.3892655" lon="12.9984712"><ele>905.0</ele><time>2026-04-26T10:52:49.28Z</time></trkpt><trkpt lat="43.3892065" lon="12.9983729"><ele>905.0</ele><time>2026-04-26T10:52:50.28Z</time></trkpt><trkpt lat="43.3891401" lon="12.9982688"><ele>905.0</ele><time>2026-04-26T10:52:51.28Z</time></trkpt><trkpt lat="43.3890783" lon="12.9981706"><ele>905.0</ele><time>2026-04-26T10:52:52.28Z</time></trkpt><trkpt lat="43.3890209" lon="12.9980755"><ele>905.0</ele><time>2026-04-26T10:52:53.28Z</time></trkpt><trkpt lat="43.3889586" lon="12.9979767"><ele>904.6</ele><time>2026-04-26T10:52:54.28Z</time></trkpt><trkpt lat="43.3888989" lon="12.9978772"><ele>904.2</ele><time>2026-04-26T10:52:55.28Z</time></trkpt><trkpt lat="43.3888375" lon="12.9977707"><ele>903.8</ele><time>2026-04-26T10:52:56.28Z</time></trkpt><trkpt lat="43.388778" lon="12.9976728"><ele>903.4</ele><time>2026-04-26T10:52:57.28Z</time></trkpt><trkpt lat="43.3887188" lon="12.9975746"><ele>903.0</ele><time>2026-04-26T10:52:58.281Z</time></trkpt><trkpt lat="43.3886551" lon="12.99748"><ele>903.0</ele><time>2026-04-26T10:52:59.28Z</time></trkpt><trkpt lat="43.3885866" lon="12.9973838"><ele>903.0</ele><time>2026-04-26T10:53:00.28Z</time></trkpt><trkpt lat="43.3885146" lon="12.9972974"><ele>903.0</ele><time>2026-04-26T10:53:01.28Z</time></trkpt><trkpt lat="43.3884312" lon="12.9972127"><ele>903.0</ele><time>2026-04-26T10:53:02.28Z</time></trkpt><trkpt lat="43.3883414" lon="12.9971296"><ele>903.0</ele><time>2026-04-26T10:53:03.28Z</time></trkpt><trkpt lat="43.3882406" lon="12.9970436"><ele>903.0</ele><time>2026-04-26T10:53:04.28Z</time></trkpt><trkpt lat="43.3881498" lon="12.9969741"><ele>903.0</ele><time>2026-04-26T10:53:05.28Z</time></trkpt><trkpt lat="43.3880713" lon="12.9969212"><ele>903.0</ele><time>2026-04-26T10:53:06.28Z</time></trkpt><trkpt lat="43.3880006" lon="12.9968731"><ele>903.0</ele><time>2026-04-26T10:53:07.28Z</time></trkpt><trkpt lat="43.38793" lon="12.9968217"><ele>903.0</ele><time>2026-04-26T10:53:08.28Z</time></trkpt><trkpt lat="43.3878683" lon="12.9967767"><ele>903.0</ele><time>2026-04-26T10:53:09.28Z</time></trkpt><trkpt lat="43.3878067" lon="12.99674"><ele>902.1666666666666</ele><time>2026-04-26T10:53:10.28Z</time></trkpt><trkpt lat="43.387745" lon="12.99671"><ele>901.3333333333333</ele><time>2026-04-26T10:53:11.28Z</time></trkpt><trkpt lat="43.3876417" lon="12.996665"><ele>900.5</ele><time>2026-04-26T10:53:13.28Z</time></trkpt><trkpt lat="43.3875483" lon="12.996655"><ele>899.6666666666666</ele><time>2026-04-26T10:53:15.28Z</time></trkpt><trkpt lat="43.3874833" lon="12.9967083"><ele>898.8333333333333</ele><time>2026-04-26T10:53:17.28Z</time></trkpt><trkpt lat="43.3874433" lon="12.9967906"><ele>898.0</ele><time>2026-04-26T10:53:19.28Z</time></trkpt><trkpt lat="43.3874739" lon="12.9969136"><ele>902.0</ele><time>2026-04-26T10:53:21.28Z</time></trkpt><trkpt lat="43.3875235" lon="12.9969936"><ele>906.0</ele><time>2026-04-26T10:53:23.32Z</time></trkpt><trkpt lat="43.3877359" lon="12.9972205"><ele>910.0</ele><time>2026-04-26T10:53:26.28Z</time></trkpt><trkpt lat="43.3878167" lon="12.9973005"><ele>914.0</ele><time>2026-04-26T10:53:27.28Z</time></trkpt><trkpt lat="43.387873" lon="12.9973809"><ele>914.0000000000001</ele><time>2026-04-26T10:53:28.28Z</time></trkpt><trkpt lat="43.3879326" lon="12.9974667"><ele>914.0</ele><time>2026-04-26T10:53:29.28Z</time></trkpt><trkpt lat="43.3879748" lon="12.9975581"><ele>914.0</ele><time>2026-04-26T10:53:30.28Z</time></trkpt><trkpt lat="43.3880154" lon="12.9976598"><ele>914.0</ele><time>2026-04-26T10:53:31.28Z</time></trkpt><trkpt lat="43.3880486" lon="12.9977568"><ele>914.0000000000001</ele><time>2026-04-26T10:53:32.28Z</time></trkpt><trkpt lat="43.3880854" lon="12.9978442"><ele>914.0</ele><time>2026-04-26T10:53:33.28Z</time></trkpt><trkpt lat="43.3881266" lon="12.9979154"><ele>914.6</ele><time>2026-04-26T10:53:34.28Z</time></trkpt><trkpt lat="43.3882044" lon="12.9980201"><ele>915.2</ele><time>2026-04-26T10:53:36.28Z</time></trkpt><trkpt lat="43.3882495" lon="12.9981081"><ele>915.8000000000001</ele><time>2026-04-26T10:53:38.28Z</time></trkpt><trkpt lat="43.3882067" lon="12.998175"><ele>916.4000000000001</ele><time>2026-04-26T10:53:41.28Z</time></trkpt><trkpt lat="43.38813" lon="12.9981033"><ele>917.0</ele><time>2026-04-26T10:53:43.28Z</time></trkpt><trkpt lat="43.3880217" lon="12.9980333"><ele>919.6666666666667</ele><time>2026-04-26T10:53:45.28Z</time></trkpt><trkpt lat="43.387955" lon="12.997995"><ele>922.3333333333334</ele><time>2026-04-26T10:53:46.28Z</time></trkpt><trkpt lat="43.38788" lon="12.9979517"><ele>925.0</ele><time>2026-04-26T10:53:47.28Z</time></trkpt><trkpt lat="43.3878067" lon="12.9979133"><ele>927.6666666666667</ele><time>2026-04-26T10:53:48.28Z</time></trkpt><trkpt lat="43.3877367" lon="12.9978767"><ele>930.3333333333334</ele><time>2026-04-26T10:53:49.28Z</time></trkpt><trkpt lat="43.3876633" lon="12.99785"><ele>933.0</ele><time>2026-04-26T10:53:50.28Z</time></trkpt><trkpt lat="43.387585" lon="12.9978267"><ele>933.0</ele><time>2026-04-26T10:53:51.28Z</time></trkpt><trkpt lat="43.3874983" lon="12.9978083"><ele>933.0</ele><time>2026-04-26T10:53:52.28Z</time></trkpt><trkpt lat="43.3874067" lon="12.9978033"><ele>933.0</ele><time>2026-04-26T10:53:53.28Z</time></trkpt><trkpt lat="43.3873133" lon="12.9978133"><ele>933.0</ele><time>2026-04-26T10:53:54.28Z</time></trkpt><trkpt lat="43.3872217" lon="12.9978283"><ele>933.0</ele><time>2026-04-26T10:53:55.28Z</time></trkpt><trkpt lat="43.38712" lon="12.9978333"><ele>935.2</ele><time>2026-04-26T10:53:56.28Z</time></trkpt><trkpt lat="43.387025" lon="12.99785"><ele>937.4</ele><time>2026-04-26T10:53:57.28Z</time></trkpt><trkpt lat="43.38692" lon="12.997865"><ele>939.6000000000001</ele><time>2026-04-26T10:53:58.28Z</time></trkpt><trkpt lat="43.3868133" lon="12.99788"><ele>941.8000000000001</ele><time>2026-04-26T10:53:59.28Z</time></trkpt><trkpt lat="43.386695" lon="12.99789"><ele>944.0</ele><time>2026-04-26T10:54:00.28Z</time></trkpt><trkpt lat="43.3865767" lon="12.9979"><ele>944.0</ele><time>2026-04-26T10:54:01.28Z</time></trkpt><trkpt lat="43.3864683" lon="12.997915"><ele>944.0000000000001</ele><time>2026-04-26T10:54:02.28Z</time></trkpt><trkpt lat="43.3863717" lon="12.9979267"><ele>944.0000000000001</ele><time>2026-04-26T10:54:03.28Z</time></trkpt><trkpt lat="43.3862833" lon="12.9979333"><ele>944.0</ele><time>2026-04-26T10:54:04.28Z</time></trkpt><trkpt lat="43.3861883" lon="12.9979383"><ele>944.0</ele><time>2026-04-26T10:54:05.28Z</time></trkpt><trkpt lat="43.386095" lon="12.99794"><ele>946.6666666666667</ele><time>2026-04-26T10:54:06.28Z</time></trkpt><trkpt lat="43.3860067" lon="12.9979483"><ele>949.3333333333334</ele><time>2026-04-26T10:54:07.28Z</time></trkpt><trkpt lat="43.3859233" lon="12.9979683"><ele>952.0</ele><time>2026-04-26T10:54:08.28Z</time></trkpt><trkpt lat="43.3858417" lon="12.997995"><ele>954.6666666666667</ele><time>2026-04-26T10:54:09.28Z</time></trkpt><trkpt lat="43.3857733" lon="12.9980367"><ele>957.3333333333334</ele><time>2026-04-26T10:54:10.28Z</time></trkpt><trkpt lat="43.3856967" lon="12.99807"><ele>960.0</ele><time>2026-04-26T10:54:11.28Z</time></trkpt><trkpt lat="43.385625" lon="12.9980917"><ele>960.0</ele><time>2026-04-26T10:54:12.281Z</time></trkpt><trkpt lat="43.385555" lon="12.9981133"><ele>960.0</ele><time>2026-04-26T10:54:13.28Z</time></trkpt><trkpt lat="43.3854417" lon="12.9981217"><ele>960.0</ele><time>2026-04-26T10:54:15.28Z</time></trkpt><trkpt lat="43.3853383" lon="12.9981133"><ele>960.0</ele><time>2026-04-26T10:54:17.28Z</time></trkpt><trkpt lat="43.3852317" lon="12.9981017"><ele>960.0</ele><time>2026-04-26T10:54:19.28Z</time></trkpt><trkpt lat="43.385125" lon="12.9980467"><ele>961.8333333333334</ele><time>2026-04-26T10:54:21.28Z</time></trkpt><trkpt lat="43.3850783" lon="12.9979867"><ele>963.6666666666667</ele><time>2026-04-26T10:54:22.28Z</time></trkpt><trkpt lat="43.385025" lon="12.9979217"><ele>965.5</ele><time>2026-04-26T10:54:23.28Z</time></trkpt><trkpt lat="43.3849167" lon="12.99786"><ele>967.3333333333334</ele><time>2026-04-26T10:54:25.28Z</time></trkpt><trkpt lat="43.38481" lon="12.9978533"><ele>969.1666666666667</ele><time>2026-04-26T10:54:27.28Z</time></trkpt><trkpt lat="43.3847517" lon="12.9978933"><ele>971.0</ele><time>2026-04-26T10:54:29.28Z</time></trkpt><trkpt lat="43.3846767" lon="12.9979617"><ele>971.0</ele><time>2026-04-26T10:54:32.281Z</time></trkpt><trkpt lat="43.38459" lon="12.9979983"><ele>971.0000000000001</ele><time>2026-04-26T10:54:34.28Z</time></trkpt><trkpt lat="43.3845233" lon="12.9980117"><ele>971.0</ele><time>2026-04-26T10:54:35.28Z</time></trkpt><trkpt lat="43.384455" lon="12.9980183"><ele>971.0</ele><time>2026-04-26T10:54:36.28Z</time></trkpt><trkpt lat="43.38439" lon="12.998025"><ele>971.0000000000001</ele><time>2026-04-26T10:54:37.28Z</time></trkpt><trkpt lat="43.3843167" lon="12.998035"><ele>971.0</ele><time>2026-04-26T10:54:38.28Z</time></trkpt><trkpt lat="43.3842417" lon="12.9980483"><ele>971.0</ele><time>2026-04-26T10:54:39.28Z</time></trkpt><trkpt lat="43.3841667" lon="12.998065"><ele>971.0000000000001</ele><time>2026-04-26T10:54:40.28Z</time></trkpt><trkpt lat="43.3840917" lon="12.9980817"><ele>971.0</ele><time>2026-04-26T10:54:41.28Z</time></trkpt><trkpt lat="43.3840117" lon="12.998095"><ele>971.0</ele><time>2026-04-26T10:54:42.28Z</time></trkpt><trkpt lat="43.38394" lon="12.9981083"><ele>971.0</ele><time>2026-04-26T10:54:43.28Z</time></trkpt><trkpt lat="43.3838633" lon="12.998115"><ele>971.0000000000001</ele><time>2026-04-26T10:54:44.28Z</time></trkpt><trkpt lat="43.3837883" lon="12.9981183"><ele>971.0</ele><time>2026-04-26T10:54:45.28Z</time></trkpt><trkpt lat="43.3837033" lon="12.9981017"><ele>971.5999999999999</ele><time>2026-04-26T10:54:46.28Z</time></trkpt><trkpt lat="43.38361" lon="12.9980983"><ele>972.1999999999999</ele><time>2026-04-26T10:54:47.28Z</time></trkpt><trkpt lat="43.383515" lon="12.998105"><ele>972.8000000000001</ele><time>2026-04-26T10:54:48.28Z</time></trkpt><trkpt lat="43.3834217" lon="12.998115"><ele>973.4000000000001</ele><time>2026-04-26T10:54:49.28Z</time></trkpt><trkpt lat="43.38333" lon="12.99812"><ele>974.0</ele><time>2026-04-26T10:54:50.28Z</time></trkpt><trkpt lat="43.38324" lon="12.9981283"><ele>974.0000000000001</ele><time>2026-04-26T10:54:51.28Z</time></trkpt><trkpt lat="43.3831567" lon="12.9981483"><ele>974.0</ele><time>2026-04-26T10:54:52.281Z</time></trkpt><trkpt lat="43.3830717" lon="12.99817"><ele>974.0</ele><time>2026-04-26T10:54:53.28Z</time></trkpt><trkpt lat="43.38299" lon="12.9981933"><ele>974.0</ele><time>2026-04-26T10:54:54.28Z</time></trkpt><trkpt lat="43.3829067" lon="12.9982067"><ele>974.0000000000001</ele><time>2026-04-26T10:54:55.28Z</time></trkpt><trkpt lat="43.3828217" lon="12.9982167"><ele>974.0</ele><time>2026-04-26T10:54:56.28Z</time></trkpt><trkpt lat="43.3827417" lon="12.998215"><ele>974.1666666666667</ele><time>2026-04-26T10:54:57.28Z</time></trkpt><trkpt lat="43.382655" lon="12.9981967"><ele>974.3333333333334</ele><time>2026-04-26T10:54:58.28Z</time></trkpt><trkpt lat="43.3825733" lon="12.998195"><ele>974.5</ele><time>2026-04-26T10:54:59.281Z</time></trkpt><trkpt lat="43.3824967" lon="12.9981933"><ele>974.6666666666667</ele><time>2026-04-26T10:55:00.28Z</time></trkpt><trkpt lat="43.3824067" lon="12.9982083"><ele>974.8333333333334</ele><time>2026-04-26T10:55:01.28Z</time></trkpt><trkpt lat="43.38232" lon="12.9982267"><ele>975.0</ele><time>2026-04-26T10:55:02.28Z</time></trkpt><trkpt lat="43.3822367" lon="12.99824"><ele>974.8333333333334</ele><time>2026-04-26T10:55:03.28Z</time></trkpt><trkpt lat="43.3821583" lon="12.998255"><ele>974.6666666666667</ele><time>2026-04-26T10:55:04.28Z</time></trkpt><trkpt lat="43.3820733" lon="12.99827"><ele>974.5</ele><time>2026-04-26T10:55:05.28Z</time></trkpt><trkpt lat="43.3819967" lon="12.9982767"><ele>974.3333333333334</ele><time>2026-04-26T10:55:06.28Z</time></trkpt><trkpt lat="43.3819283" lon="12.9982883"><ele>974.1666666666667</ele><time>2026-04-26T10:55:07.281Z</time></trkpt><trkpt lat="43.3818533" lon="12.9983"><ele>974.0</ele><time>2026-04-26T10:55:08.28Z</time></trkpt><trkpt lat="43.38178" lon="12.998315"><ele>976.0000000000001</ele><time>2026-04-26T10:55:09.28Z</time></trkpt><trkpt lat="43.3816933" lon="12.9983367"><ele>978.0</ele><time>2026-04-26T10:55:10.28Z</time></trkpt><trkpt lat="43.381625" lon="12.9983717"><ele>980.0</ele><time>2026-04-26T10:55:11.28Z</time></trkpt><trkpt lat="43.381555" lon="12.9984183"><ele>982.0</ele><time>2026-04-26T10:55:12.28Z</time></trkpt><trkpt lat="43.3814767" lon="12.9984733"><ele>984.0000000000001</ele><time>2026-04-26T10:55:13.28Z</time></trkpt><trkpt lat="43.3813917" lon="12.99853"><ele>986.0</ele><time>2026-04-26T10:55:14.28Z</time></trkpt><trkpt lat="43.3812967" lon="12.99857"><ele>986.0000000000001</ele><time>2026-04-26T10:55:15.28Z</time></trkpt><trkpt lat="43.3812067" lon="12.9986033"><ele>986.0</ele><time>2026-04-26T10:55:16.28Z</time></trkpt><trkpt lat="43.3811217" lon="12.9986383"><ele>986.0</ele><time>2026-04-26T10:55:17.28Z</time></trkpt><trkpt lat="43.381045" lon="12.9986667"><ele>986.0</ele><time>2026-04-26T10:55:18.28Z</time></trkpt><trkpt lat="43.38097" lon="12.9986933"><ele>986.0000000000001</ele><time>2026-04-26T10:55:19.28Z</time></trkpt><trkpt lat="43.38089" lon="12.9987133"><ele>986.0</ele><time>2026-04-26T10:55:20.28Z</time></trkpt><trkpt lat="43.3808133" lon="12.998715"><ele>986.0000000000001</ele><time>2026-04-26T10:55:21.28Z</time></trkpt><trkpt lat="43.3807" lon="12.9987533"><ele>986.0</ele><time>2026-04-26T10:55:23.28Z</time></trkpt><trkpt lat="43.3806433" lon="12.998805"><ele>986.0</ele><time>2026-04-26T10:55:24.28Z</time></trkpt><trkpt lat="43.3806033" lon="12.9988767"><ele>986.0</ele><time>2026-04-26T10:55:25.28Z</time></trkpt><trkpt lat="43.3805617" lon="12.998945"><ele>986.0000000000001</ele><time>2026-04-26T10:55:26.28Z</time></trkpt><trkpt lat="43.380525" lon="12.9990283"><ele>986.0</ele><time>2026-04-26T10:55:27.28Z</time></trkpt><trkpt lat="43.3805133" lon="12.99913"><ele>986.3333333333334</ele><time>2026-04-26T10:55:28.28Z</time></trkpt><trkpt lat="43.3805183" lon="12.9992433"><ele>986.6666666666667</ele><time>2026-04-26T10:55:29.28Z</time></trkpt><trkpt lat="43.3805267" lon="12.9993617"><ele>987.0</ele><time>2026-04-26T10:55:30.28Z</time></trkpt><trkpt lat="43.3805333" lon="12.9994717"><ele>987.3333333333333</ele><time>2026-04-26T10:55:31.28Z</time></trkpt><trkpt lat="43.38054" lon="12.9995783"><ele>987.6666666666666</ele><time>2026-04-26T10:55:32.28Z</time></trkpt><trkpt lat="43.380555" lon="12.99969"><ele>988.0</ele><time>2026-04-26T10:55:33.28Z</time></trkpt><trkpt lat="43.3805767" lon="12.9998017"><ele>988.0</ele><time>2026-04-26T10:55:34.28Z</time></trkpt><trkpt lat="43.3806067" lon="12.9999183"><ele>988.0</ele><time>2026-04-26T10:55:35.281Z</time></trkpt><trkpt lat="43.380645" lon="13.0000417"><ele>988.0</ele><time>2026-04-26T10:55:36.28Z</time></trkpt><trkpt lat="43.380685" lon="13.0001817"><ele>988.0</ele><time>2026-04-26T10:55:37.28Z</time></trkpt><trkpt lat="43.3807267" lon="13.000335"><ele>988.0</ele><time>2026-04-26T10:55:38.28Z</time></trkpt><trkpt lat="43.380765" lon="13.0004917"><ele>988.0</ele><time>2026-04-26T10:55:39.281Z</time></trkpt><trkpt lat="43.38081" lon="13.00064"><ele>988.0</ele><time>2026-04-26T10:55:40.28Z</time></trkpt><trkpt lat="43.3808583" lon="13.000795"><ele>988.0</ele><time>2026-04-26T10:55:41.281Z</time></trkpt><trkpt lat="43.38089" lon="13.0009683"><ele>988.0</ele><time>2026-04-26T10:55:42.281Z</time></trkpt><trkpt lat="43.3809233" lon="13.0011267"><ele>987.2</ele><time>2026-04-26T10:55:43.28Z</time></trkpt><trkpt lat="43.38096" lon="13.001265"><ele>986.4</ele><time>2026-04-26T10:55:44.281Z</time></trkpt><trkpt lat="43.380995" lon="13.001395"><ele>985.6000000000001</ele><time>2026-04-26T10:55:45.28Z</time></trkpt><trkpt lat="43.3810267" lon="13.0015383"><ele>984.8000000000001</ele><time>2026-04-26T10:55:46.28Z</time></trkpt><trkpt lat="43.3810533" lon="13.0017033"><ele>984.0</ele><time>2026-04-26T10:55:47.28Z</time></trkpt><trkpt lat="43.3810967" lon="13.00186"><ele>982.25</ele><time>2026-04-26T10:55:48.28Z</time></trkpt><trkpt lat="43.3811417" lon="13.00201"><ele>980.5</ele><time>2026-04-26T10:55:49.28Z</time></trkpt><trkpt lat="43.3811833" lon="13.0021617"><ele>978.75</ele><time>2026-04-26T10:55:50.28Z</time></trkpt><trkpt lat="43.3812267" lon="13.0023183"><ele>977.0</ele><time>2026-04-26T10:55:51.28Z</time></trkpt><trkpt lat="43.3812583" lon="13.002475"><ele>976.25</ele><time>2026-04-26T10:55:52.28Z</time></trkpt><trkpt lat="43.38129" lon="13.0026283"><ele>975.5</ele><time>2026-04-26T10:55:53.28Z</time></trkpt><trkpt lat="43.3813117" lon="13.0028"><ele>974.75</ele><time>2026-04-26T10:55:54.28Z</time></trkpt><trkpt lat="43.38134" lon="13.00297"><ele>974.0</ele><time>2026-04-26T10:55:55.28Z</time></trkpt><trkpt lat="43.3813667" lon="13.0031333"><ele>981.0</ele><time>2026-04-26T10:55:56.28Z</time></trkpt><trkpt lat="43.38139" lon="13.0032983"><ele>988.0</ele><time>2026-04-26T10:55:57.28Z</time></trkpt><trkpt lat="43.3814167" lon="13.0034583"><ele>995.0</ele><time>2026-04-26T10:55:58.28Z</time></trkpt><trkpt lat="43.3814383" lon="13.0036083"><ele>1002.0</ele><time>2026-04-26T10:55:59.281Z</time></trkpt><trkpt lat="43.3814633" lon="13.003745"><ele>1002.0</ele><time>2026-04-26T10:56:00.28Z</time></trkpt><trkpt lat="43.3814917" lon="13.0038917"><ele>1002.0</ele><time>2026-04-26T10:56:01.28Z</time></trkpt><trkpt lat="43.3815217" lon="13.0040483"><ele>1002.0</ele><time>2026-04-26T10:56:02.28Z</time></trkpt><trkpt lat="43.3815517" lon="13.004205"><ele>1002.0</ele><time>2026-04-26T10:56:03.281Z</time></trkpt><trkpt lat="43.3815817" lon="13.004355"><ele>1001.25</ele><time>2026-04-26T10:56:04.28Z</time></trkpt><trkpt lat="43.3816117" lon="13.0045083"><ele>1000.5</ele><time>2026-04-26T10:56:05.28Z</time></trkpt><trkpt lat="43.3816483" lon="13.0046617"><ele>999.75</ele><time>2026-04-26T10:56:06.28Z</time></trkpt><trkpt lat="43.381685" lon="13.0048233"><ele>999.0</ele><time>2026-04-26T10:56:07.28Z</time></trkpt><trkpt lat="43.3817317" lon="13.0049783"><ele>997.75</ele><time>2026-04-26T10:56:08.28Z</time></trkpt><trkpt lat="43.381775" lon="13.0051467"><ele>996.5</ele><time>2026-04-26T10:56:09.281Z</time></trkpt><trkpt lat="43.3818117" lon="13.0053033"><ele>995.25</ele><time>2026-04-26T10:56:10.28Z</time></trkpt><trkpt lat="43.3818417" lon="13.0054533"><ele>994.0</ele><time>2026-04-26T10:56:11.28Z</time></trkpt><trkpt lat="43.38187" lon="13.0056117"><ele>994.0</ele><time>2026-04-26T10:56:12.281Z</time></trkpt><trkpt lat="43.3819033" lon="13.005765"><ele>994.0</ele><time>2026-04-26T10:56:13.28Z</time></trkpt><trkpt lat="43.3819367" lon="13.0059167"><ele>994.0</ele><time>2026-04-26T10:56:14.28Z</time></trkpt><trkpt lat="43.381975" lon="13.0060683"><ele>994.0</ele><time>2026-04-26T10:56:15.28Z</time></trkpt><trkpt lat="43.382005" lon="13.00623"><ele>993.25</ele><time>2026-04-26T10:56:16.28Z</time></trkpt><trkpt lat="43.3820267" lon="13.006395"><ele>992.5</ele><time>2026-04-26T10:56:17.28Z</time></trkpt><trkpt lat="43.3820417" lon="13.0065667"><ele>991.75</ele><time>2026-04-26T10:56:18.28Z</time></trkpt><trkpt lat="43.3820367" lon="13.006755"><ele>991.0</ele><time>2026-04-26T10:56:19.28Z</time></trkpt><trkpt lat="43.3820233" lon="13.0069267"><ele>991.0</ele><time>2026-04-26T10:56:20.28Z</time></trkpt><trkpt lat="43.382015" lon="13.00708"><ele>990.9999999999999</ele><time>2026-04-26T10:56:21.28Z</time></trkpt><trkpt lat="43.3820117" lon="13.0072133"><ele>990.9999999999999</ele><time>2026-04-26T10:56:22.28Z</time></trkpt><trkpt lat="43.382015" lon="13.007335"><ele>991.0</ele><time>2026-04-26T10:56:23.28Z</time></trkpt><trkpt lat="43.3820317" lon="13.0074417"><ele>991.0</ele><time>2026-04-26T10:56:24.28Z</time></trkpt><trkpt lat="43.3820633" lon="13.0075533"><ele>991.8333333333333</ele><time>2026-04-26T10:56:25.28Z</time></trkpt><trkpt lat="43.3820917" lon="13.00767"><ele>992.6666666666666</ele><time>2026-04-26T10:56:26.28Z</time></trkpt><trkpt lat="43.382125" lon="13.0077917"><ele>993.5</ele><time>2026-04-26T10:56:27.28Z</time></trkpt><trkpt lat="43.382165" lon="13.0079083"><ele>994.3333333333333</ele><time>2026-04-26T10:56:28.28Z</time></trkpt><trkpt lat="43.3822067" lon="13.0080183"><ele>995.1666666666666</ele><time>2026-04-26T10:56:29.28Z</time></trkpt><trkpt lat="43.3822517" lon="13.0081033"><ele>996.0</ele><time>2026-04-26T10:56:30.28Z</time></trkpt><trkpt lat="43.3822983" lon="13.0081883"><ele>998.0</ele><time>2026-04-26T10:56:31.28Z</time></trkpt><trkpt lat="43.38234" lon="13.0082733"><ele>999.9999999999999</ele><time>2026-04-26T10:56:32.28Z</time></trkpt><trkpt lat="43.3823783" lon="13.0083433"><ele>1001.9999999999999</ele><time>2026-04-26T10:56:33.28Z</time></trkpt><trkpt lat="43.3824183" lon="13.00848"><ele>1004.0</ele><time>2026-04-26T10:56:35.28Z</time></trkpt><trkpt lat="43.3823733" lon="13.0085733"><ele>1006.0</ele><time>2026-04-26T10:56:37.28Z</time></trkpt><trkpt lat="43.3822417" lon="13.0086017"><ele>1006.3333333333333</ele><time>2026-04-26T10:56:39.28Z</time></trkpt><trkpt lat="43.3821483" lon="13.0085967"><ele>1006.6666666666666</ele><time>2026-04-26T10:56:40.28Z</time></trkpt><trkpt lat="43.3820583" lon="13.0085783"><ele>1007.0</ele><time>2026-04-26T10:56:41.28Z</time></trkpt><trkpt lat="43.3819667" lon="13.0085717"><ele>1007.3333333333333</ele><time>2026-04-26T10:56:42.28Z</time></trkpt><trkpt lat="43.3818817" lon="13.008555"><ele>1007.6666666666666</ele><time>2026-04-26T10:56:43.28Z</time></trkpt><trkpt lat="43.3817983" lon="13.0085233"><ele>1008.0</ele><time>2026-04-26T10:56:44.28Z</time></trkpt><trkpt lat="43.3817117" lon="13.008485"><ele>1008.0</ele><time>2026-04-26T10:56:45.28Z</time></trkpt><trkpt lat="43.38163" lon="13.0084333"><ele>1008.0</ele><time>2026-04-26T10:56:46.28Z</time></trkpt><trkpt lat="43.38154" lon="13.008385"><ele>1008.0</ele><time>2026-04-26T10:56:47.28Z</time></trkpt><trkpt lat="43.3814517" lon="13.008315"><ele>1008.0</ele><time>2026-04-26T10:56:48.28Z</time></trkpt><trkpt lat="43.3813633" lon="13.00825"><ele>1008.0</ele><time>2026-04-26T10:56:49.28Z</time></trkpt><trkpt lat="43.3812733" lon="13.0081717"><ele>1007.75</ele><time>2026-04-26T10:56:50.28Z</time></trkpt><trkpt lat="43.3811833" lon="13.0080883"><ele>1007.5</ele><time>2026-04-26T10:56:51.28Z</time></trkpt><trkpt lat="43.381095" lon="13.008"><ele>1007.25</ele><time>2026-04-26T10:56:52.28Z</time></trkpt><trkpt lat="43.3810067" lon="13.0078967"><ele>1007.0</ele><time>2026-04-26T10:56:53.28Z</time></trkpt><trkpt lat="43.3809117" lon="13.007785"><ele>1007.0</ele><time>2026-04-26T10:56:54.28Z</time></trkpt><trkpt lat="43.38082" lon="13.0076767"><ele>1007.0</ele><time>2026-04-26T10:56:55.281Z</time></trkpt><trkpt lat="43.380735" lon="13.0075867"><ele>1007.0</ele><time>2026-04-26T10:56:56.281Z</time></trkpt><trkpt lat="43.38065" lon="13.0074967"><ele>1007.0</ele><time>2026-04-26T10:56:57.281Z</time></trkpt><trkpt lat="43.380565" lon="13.0074217"><ele>1007.0</ele><time>2026-04-26T10:56:58.281Z</time></trkpt><trkpt lat="43.3804783" lon="13.0073517"><ele>1005.6666666666667</ele><time>2026-04-26T10:56:59.28Z</time></trkpt><trkpt lat="43.3804017" lon="13.0072933"><ele>1004.3333333333334</ele><time>2026-04-26T10:57:00.28Z</time></trkpt><trkpt lat="43.3803267" lon="13.0072533"><ele>1003.0</ele><time>2026-04-26T10:57:01.28Z</time></trkpt><trkpt lat="43.38026" lon="13.0072133"><ele>1001.6666666666667</ele><time>2026-04-26T10:57:02.28Z</time></trkpt><trkpt lat="43.380165" lon="13.00717"><ele>1000.3333333333334</ele><time>2026-04-26T10:57:04.28Z</time></trkpt><trkpt lat="43.380085" lon="13.00716"><ele>999.0</ele><time>2026-04-26T10:57:06.28Z</time></trkpt><trkpt lat="43.38" lon="13.0071533"><ele>999.0</ele><time>2026-04-26T10:57:08.28Z</time></trkpt><trkpt lat="43.3799217" lon="13.007175"><ele>999.0</ele><time>2026-04-26T10:57:10.281Z</time></trkpt><trkpt lat="43.379835" lon="13.0072133"><ele>999.0</ele><time>2026-04-26T10:57:12.28Z</time></trkpt><trkpt lat="43.3797417" lon="13.0072983"><ele>999.0</ele><time>2026-04-26T10:57:14.28Z</time></trkpt><trkpt lat="43.3796917" lon="13.0073583"><ele>999.0</ele><time>2026-04-26T10:57:15.28Z</time></trkpt><trkpt lat="43.37964" lon="13.0074383"><ele>999.0</ele><time>2026-04-26T10:57:16.28Z</time></trkpt><trkpt lat="43.3795817" lon="13.00752"><ele>999.3333333333334</ele><time>2026-04-26T10:57:17.28Z</time></trkpt><trkpt lat="43.3795283" lon="13.0076033"><ele>999.6666666666667</ele><time>2026-04-26T10:57:18.28Z</time></trkpt><trkpt lat="43.37947" lon="13.0076817"><ele>1000.0</ele><time>2026-04-26T10:57:19.28Z</time></trkpt><trkpt lat="43.3794017" lon="13.0077667"><ele>1000.3333333333334</ele><time>2026-04-26T10:57:20.28Z</time></trkpt><trkpt lat="43.3793317" lon="13.0078533"><ele>1000.6666666666667</ele><time>2026-04-26T10:57:21.28Z</time></trkpt><trkpt lat="43.3792583" lon="13.00794"><ele>1001.0</ele><time>2026-04-26T10:57:22.28Z</time></trkpt><trkpt lat="43.379195" lon="13.0080217"><ele>1001.0</ele><time>2026-04-26T10:57:23.28Z</time></trkpt><trkpt lat="43.37912" lon="13.0081117"><ele>1000.9999999999999</ele><time>2026-04-26T10:57:24.28Z</time></trkpt><trkpt lat="43.3790467" lon="13.0081983"><ele>1000.9999999999999</ele><time>2026-04-26T10:57:25.28Z</time></trkpt><trkpt lat="43.37897" lon="13.0082867"><ele>1001.0</ele><time>2026-04-26T10:57:26.28Z</time></trkpt><trkpt lat="43.378905" lon="13.00837"><ele>1001.0</ele><time>2026-04-26T10:57:27.28Z</time></trkpt><trkpt lat="43.3788317" lon="13.00844"><ele>1001.4</ele><time>2026-04-26T10:57:28.28Z</time></trkpt><trkpt lat="43.3787533" lon="13.00851"><ele>1001.8</ele><time>2026-04-26T10:57:29.28Z</time></trkpt><trkpt lat="43.3786667" lon="13.0085733"><ele>1002.1999999999999</ele><time>2026-04-26T10:57:30.28Z</time></trkpt><trkpt lat="43.3785817" lon="13.00861"><ele>1002.5999999999999</ele><time>2026-04-26T10:57:31.28Z</time></trkpt><trkpt lat="43.3784867" lon="13.0086167"><ele>1003.0</ele><time>2026-04-26T10:57:32.28Z</time></trkpt><trkpt lat="43.3783783" lon="13.00861"><ele>1003.0</ele><time>2026-04-26T10:57:33.28Z</time></trkpt><trkpt lat="43.378265" lon="13.0085667"><ele>1003.0</ele><time>2026-04-26T10:57:34.28Z</time></trkpt><trkpt lat="43.378145" lon="13.0085133"><ele>1003.0</ele><time>2026-04-26T10:57:35.28Z</time></trkpt><trkpt lat="43.37802" lon="13.008445"><ele>1003.0</ele><time>2026-04-26T10:57:36.281Z</time></trkpt><trkpt lat="43.3778867" lon="13.008395"><ele>1002.25</ele><time>2026-04-26T10:57:37.28Z</time></trkpt><trkpt lat="43.377755" lon="13.0083333"><ele>1001.5</ele><time>2026-04-26T10:57:38.281Z</time></trkpt><trkpt lat="43.37762" lon="13.0082817"><ele>1000.75</ele><time>2026-04-26T10:57:39.28Z</time></trkpt><trkpt lat="43.3774817" lon="13.0082317"><ele>1000.0</ele><time>2026-04-26T10:57:40.28Z</time></trkpt><trkpt lat="43.377345" lon="13.00818"><ele>997.0</ele><time>2026-04-26T10:57:41.281Z</time></trkpt><trkpt lat="43.3772033" lon="13.00812"><ele>994.0</ele><time>2026-04-26T10:57:42.28Z</time></trkpt><trkpt lat="43.3770717" lon="13.0080683"><ele>991.0</ele><time>2026-04-26T10:57:43.28Z</time></trkpt><trkpt lat="43.37694" lon="13.0080183"><ele>988.0</ele><time>2026-04-26T10:57:44.28Z</time></trkpt><trkpt lat="43.3768117" lon="13.0079633"><ele>988.0</ele><time>2026-04-26T10:57:45.28Z</time></trkpt><trkpt lat="43.3766733" lon="13.0079017"><ele>988.0</ele><time>2026-04-26T10:57:46.28Z</time></trkpt><trkpt lat="43.37653" lon="13.0078433"><ele>988.0</ele><time>2026-04-26T10:57:47.28Z</time></trkpt><trkpt lat="43.3763833" lon="13.0077817"><ele>988.0</ele><time>2026-04-26T10:57:48.28Z</time></trkpt><trkpt lat="43.3762383" lon="13.0077183"><ele>988.5999999999999</ele><time>2026-04-26T10:57:49.28Z</time></trkpt><trkpt lat="43.3761133" lon="13.0076567"><ele>989.1999999999999</ele><time>2026-04-26T10:57:50.28Z</time></trkpt><trkpt lat="43.3760017" lon="13.0076083"><ele>989.8</ele><time>2026-04-26T10:57:51.28Z</time></trkpt><trkpt lat="43.3759017" lon="13.0075767"><ele>990.4</ele><time>2026-04-26T10:57:52.281Z</time></trkpt><trkpt lat="43.3758183" lon="13.0075417"><ele>991.0</ele><time>2026-04-26T10:57:53.28Z</time></trkpt><trkpt lat="43.3757317" lon="13.0075067"><ele>988.8333333333333</ele><time>2026-04-26T10:57:54.28Z</time></trkpt><trkpt lat="43.3756467" lon="13.0074783"><ele>986.6666666666666</ele><time>2026-04-26T10:57:55.28Z</time></trkpt><trkpt lat="43.3755683" lon="13.0074667"><ele>984.5</ele><time>2026-04-26T10:57:56.28Z</time></trkpt><trkpt lat="43.3755017" lon="13.0074767"><ele>982.3333333333333</ele><time>2026-04-26T10:57:57.28Z</time></trkpt><trkpt lat="43.3754233" lon="13.0075633"><ele>980.1666666666666</ele><time>2026-04-26T10:57:59.28Z</time></trkpt><trkpt lat="43.3754083" lon="13.0076567"><ele>978.0</ele><time>2026-04-26T10:58:00.28Z</time></trkpt><trkpt lat="43.3754117" lon="13.0077817"><ele>978.0</ele><time>2026-04-26T10:58:01.28Z</time></trkpt><trkpt lat="43.3754317" lon="13.0079583"><ele>978.0</ele><time>2026-04-26T10:58:02.28Z</time></trkpt><trkpt lat="43.3754717" lon="13.008175"><ele>978.0</ele><time>2026-04-26T10:58:03.28Z</time></trkpt><trkpt lat="43.3755" lon="13.008395"><ele>981.25</ele><time>2026-04-26T10:58:04.28Z</time></trkpt><trkpt lat="43.3755417" lon="13.008585"><ele>984.5</ele><time>2026-04-26T10:58:05.28Z</time></trkpt><trkpt lat="43.375585" lon="13.008765"><ele>987.75</ele><time>2026-04-26T10:58:06.28Z</time></trkpt><trkpt lat="43.3756383" lon="13.0089333"><ele>991.0</ele><time>2026-04-26T10:58:07.28Z</time></trkpt><trkpt lat="43.37569" lon="13.0090933"><ele>989.5</ele><time>2026-04-26T10:58:08.28Z</time></trkpt><trkpt lat="43.3757433" lon="13.00925"><ele>988.0</ele><time>2026-04-26T10:58:09.28Z</time></trkpt><trkpt lat="43.3757933" lon="13.009405"><ele>986.5</ele><time>2026-04-26T10:58:10.28Z</time></trkpt><trkpt lat="43.3758533" lon="13.00956"><ele>985.0</ele><time>2026-04-26T10:58:11.28Z</time></trkpt><trkpt lat="43.37591" lon="13.0097133"><ele>985.0</ele><time>2026-04-26T10:58:12.281Z</time></trkpt><trkpt lat="43.3759683" lon="13.0098667"><ele>985.0</ele><time>2026-04-26T10:58:13.28Z</time></trkpt><trkpt lat="43.37603" lon="13.0100233"><ele>985.0</ele><time>2026-04-26T10:58:14.28Z</time></trkpt><trkpt lat="43.37608" lon="13.01017"><ele>985.0</ele><time>2026-04-26T10:58:15.28Z</time></trkpt><trkpt lat="43.3761267" lon="13.01031"><ele>984.4</ele><time>2026-04-26T10:58:16.28Z</time></trkpt><trkpt lat="43.3761717" lon="13.0104467"><ele>983.8</ele><time>2026-04-26T10:58:17.28Z</time></trkpt><trkpt lat="43.37622" lon="13.0105833"><ele>983.2</ele><time>2026-04-26T10:58:18.28Z</time></trkpt><trkpt lat="43.3762683" lon="13.0107233"><ele>982.6</ele><time>2026-04-26T10:58:19.281Z</time></trkpt><trkpt lat="43.3763167" lon="13.0108633"><ele>982.0</ele><time>2026-04-26T10:58:20.28Z</time></trkpt><trkpt lat="43.3763567" lon="13.01101"><ele>982.0</ele><time>2026-04-26T10:58:21.28Z</time></trkpt><trkpt lat="43.376395" lon="13.0111583"><ele>982.0</ele><time>2026-04-26T10:58:22.28Z</time></trkpt><trkpt lat="43.3764467" lon="13.01129"><ele>982.0</ele><time>2026-04-26T10:58:23.28Z</time></trkpt><trkpt lat="43.3764867" lon="13.0114"><ele>982.0</ele><time>2026-04-26T10:58:24.28Z</time></trkpt><trkpt lat="43.3765067" lon="13.0115083"><ele>982.0</ele><time>2026-04-26T10:58:25.28Z</time></trkpt><trkpt lat="43.37652" lon="13.0116267"><ele>980.8</ele><time>2026-04-26T10:58:26.28Z</time></trkpt><trkpt lat="43.3765267" lon="13.0117533"><ele>979.6</ele><time>2026-04-26T10:58:27.28Z</time></trkpt><trkpt lat="43.376515" lon="13.0118817"><ele>978.3999999999999</ele><time>2026-04-26T10:58:28.28Z</time></trkpt><trkpt lat="43.376495" lon="13.012025"><ele>977.1999999999999</ele><time>2026-04-26T10:58:29.28Z</time></trkpt><trkpt lat="43.376445" lon="13.0121717"><ele>976.0</ele><time>2026-04-26T10:58:30.28Z</time></trkpt><trkpt lat="43.3764033" lon="13.01233"><ele>974.0</ele><time>2026-04-26T10:58:31.28Z</time></trkpt><trkpt lat="43.376375" lon="13.0125"><ele>972.0</ele><time>2026-04-26T10:58:32.28Z</time></trkpt><trkpt lat="43.3763533" lon="13.0126733"><ele>970.0</ele><time>2026-04-26T10:58:33.28Z</time></trkpt><trkpt lat="43.3763333" lon="13.0128317"><ele>968.0</ele><time>2026-04-26T10:58:34.281Z</time></trkpt><trkpt lat="43.3763083" lon="13.0129883"><ele>967.0</ele><time>2026-04-26T10:58:35.28Z</time></trkpt><trkpt lat="43.3762817" lon="13.0131383"><ele>966.0</ele><time>2026-04-26T10:58:36.28Z</time></trkpt><trkpt lat="43.3762567" lon="13.013275"><ele>965.0</ele><time>2026-04-26T10:58:37.28Z</time></trkpt><trkpt lat="43.37623" lon="13.0134033"><ele>964.0</ele><time>2026-04-26T10:58:38.28Z</time></trkpt><trkpt lat="43.37621" lon="13.0135333"><ele>963.0</ele><time>2026-04-26T10:58:39.28Z</time></trkpt><trkpt lat="43.3761817" lon="13.0136667"><ele>962.5999999999999</ele><time>2026-04-26T10:58:40.28Z</time></trkpt><trkpt lat="43.3761583" lon="13.013795"><ele>962.1999999999999</ele><time>2026-04-26T10:58:41.28Z</time></trkpt><trkpt lat="43.3761417" lon="13.0139333"><ele>961.8</ele><time>2026-04-26T10:58:42.28Z</time></trkpt><trkpt lat="43.3761167" lon="13.0140683"><ele>961.4</ele><time>2026-04-26T10:58:43.28Z</time></trkpt><trkpt lat="43.3760883" lon="13.0142"><ele>961.0</ele><time>2026-04-26T10:58:44.28Z</time></trkpt><trkpt lat="43.376065" lon="13.0143333"><ele>960.5999999999999</ele><time>2026-04-26T10:58:45.28Z</time></trkpt><trkpt lat="43.37604" lon="13.0144583"><ele>960.1999999999999</ele><time>2026-04-26T10:58:46.28Z</time></trkpt><trkpt lat="43.376015" lon="13.01459"><ele>959.8000000000001</ele><time>2026-04-26T10:58:47.28Z</time></trkpt><trkpt lat="43.375995" lon="13.0147133"><ele>959.4000000000001</ele><time>2026-04-26T10:58:48.28Z</time></trkpt><trkpt lat="43.375975" lon="13.01483"><ele>959.0</ele><time>2026-04-26T10:58:49.28Z</time></trkpt><trkpt lat="43.3759433" lon="13.0149567"><ele>958.8000000000001</ele><time>2026-04-26T10:58:50.28Z</time></trkpt><trkpt lat="43.3759083" lon="13.0150933"><ele>958.6000000000001</ele><time>2026-04-26T10:58:51.281Z</time></trkpt><trkpt lat="43.37587" lon="13.0152217"><ele>958.4</ele><time>2026-04-26T10:58:52.281Z</time></trkpt><trkpt lat="43.3758317" lon="13.0153433"><ele>958.2</ele><time>2026-04-26T10:58:53.28Z</time></trkpt><trkpt lat="43.3757933" lon="13.0154417"><ele>958.0</ele><time>2026-04-26T10:58:54.28Z</time></trkpt><trkpt lat="43.3757467" lon="13.0155317"><ele>958.0</ele><time>2026-04-26T10:58:55.28Z</time></trkpt><trkpt lat="43.3757033" lon="13.0156217"><ele>958.0</ele><time>2026-04-26T10:58:56.28Z</time></trkpt><trkpt lat="43.37566" lon="13.0157"><ele>958.0</ele><time>2026-04-26T10:58:57.28Z</time></trkpt><trkpt lat="43.3756233" lon="13.015785"><ele>958.0</ele><time>2026-04-26T10:58:58.28Z</time></trkpt><trkpt lat="43.375595" lon="13.0158667"><ele>958.0</ele><time>2026-04-26T10:58:59.281Z</time></trkpt><trkpt lat="43.3755633" lon="13.0159517"><ele>958.0</ele><time>2026-04-26T10:59:00.28Z</time></trkpt><trkpt lat="43.3755317" lon="13.01604"><ele>958.0</ele><time>2026-04-26T10:59:01.28Z</time></trkpt><trkpt lat="43.3754967" lon="13.0161233"><ele>956.2857142857142</ele><time>2026-04-26T10:59:02.28Z</time></trkpt><trkpt lat="43.3754583" lon="13.0162067"><ele>954.5714285714287</ele><time>2026-04-26T10:59:03.28Z</time></trkpt><trkpt lat="43.375425" lon="13.0162917"><ele>952.8571428571429</ele><time>2026-04-26T10:59:04.28Z</time></trkpt><trkpt lat="43.3753933" lon="13.016375"><ele>951.1428571428571</ele><time>2026-04-26T10:59:05.28Z</time></trkpt><trkpt lat="43.37536" lon="13.0164533"><ele>949.4285714285713</ele><time>2026-04-26T10:59:06.28Z</time></trkpt><trkpt lat="43.375325" lon="13.01653"><ele>947.7142857142858</ele><time>2026-04-26T10:59:07.28Z</time></trkpt><trkpt lat="43.3752917" lon="13.016605"><ele>946.0</ele><time>2026-04-26T10:59:08.28Z</time></trkpt><trkpt lat="43.3752567" lon="13.0166883"><ele>945.6666666666666</ele><time>2026-04-26T10:59:09.28Z</time></trkpt><trkpt lat="43.375225" lon="13.0167733"><ele>945.3333333333333</ele><time>2026-04-26T10:59:10.28Z</time></trkpt><trkpt lat="43.375195" lon="13.016855"><ele>945.0</ele><time>2026-04-26T10:59:11.28Z</time></trkpt><trkpt lat="43.375165" lon="13.0169333"><ele>944.6666666666667</ele><time>2026-04-26T10:59:12.28Z</time></trkpt><trkpt lat="43.3751267" lon="13.0170167"><ele>944.3333333333334</ele><time>2026-04-26T10:59:13.28Z</time></trkpt><trkpt lat="43.3750683" lon="13.017165"><ele>944.0</ele><time>2026-04-26T10:59:15.28Z</time></trkpt><trkpt lat="43.3750233" lon="13.01725"><ele>944.0</ele><time>2026-04-26T10:59:17.28Z</time></trkpt><trkpt lat="43.3749467" lon="13.0173683"><ele>944.0000000000001</ele><time>2026-04-26T10:59:35.28Z</time></trkpt><trkpt lat="43.37484" lon="13.0173817"><ele>944.0000000000001</ele><time>2026-04-26T10:59:37.28Z</time></trkpt><trkpt lat="43.374765" lon="13.0173967"><ele>944.0</ele><time>2026-04-26T10:59:38.28Z</time></trkpt><trkpt lat="43.37469" lon="13.0174267"><ele>944.0</ele><time>2026-04-26T10:59:39.28Z</time></trkpt><trkpt lat="43.3746167" lon="13.0174767"><ele>939.8000000000001</ele><time>2026-04-26T10:59:40.28Z</time></trkpt><trkpt lat="43.3745517" lon="13.0175533"><ele>935.6000000000001</ele><time>2026-04-26T10:59:41.281Z</time></trkpt><trkpt lat="43.37451" lon="13.017665"><ele>931.4</ele><time>2026-04-26T10:59:42.28Z</time></trkpt><trkpt lat="43.37449" lon="13.0177917"><ele>927.2</ele><time>2026-04-26T10:59:43.28Z</time></trkpt><trkpt lat="43.3744767" lon="13.01792"><ele>923.0</ele><time>2026-04-26T10:59:44.28Z</time></trkpt><trkpt lat="43.3744667" lon="13.018045"><ele>923.0000000000001</ele><time>2026-04-26T10:59:45.28Z</time></trkpt><trkpt lat="43.374455" lon="13.018175"><ele>923.0</ele><time>2026-04-26T10:59:46.28Z</time></trkpt><trkpt lat="43.374445" lon="13.0183033"><ele>923.0</ele><time>2026-04-26T10:59:47.28Z</time></trkpt><trkpt lat="43.3744367" lon="13.0184233"><ele>923.0</ele><time>2026-04-26T10:59:48.28Z</time></trkpt><trkpt lat="43.3744283" lon="13.018535"><ele>923.0000000000001</ele><time>2026-04-26T10:59:49.28Z</time></trkpt><trkpt lat="43.3744133" lon="13.0186483"><ele>923.0</ele><time>2026-04-26T10:59:50.28Z</time></trkpt><trkpt lat="43.3743983" lon="13.0187567"><ele>923.3333333333334</ele><time>2026-04-26T10:59:51.28Z</time></trkpt><trkpt lat="43.3743767" lon="13.0188633"><ele>923.6666666666667</ele><time>2026-04-26T10:59:52.28Z</time></trkpt><trkpt lat="43.3743583" lon="13.0189667"><ele>924.0</ele><time>2026-04-26T10:59:53.28Z</time></trkpt><trkpt lat="43.3743367" lon="13.01907"><ele>924.3333333333333</ele><time>2026-04-26T10:59:54.28Z</time></trkpt><trkpt lat="43.3743267" lon="13.0191667"><ele>924.6666666666666</ele><time>2026-04-26T10:59:55.28Z</time></trkpt><trkpt lat="43.3743183" lon="13.01928"><ele>925.0</ele><time>2026-04-26T10:59:56.28Z</time></trkpt><trkpt lat="43.374305" lon="13.0194117"><ele>925.4</ele><time>2026-04-26T10:59:57.281Z</time></trkpt><trkpt lat="43.3742883" lon="13.0195467"><ele>925.8</ele><time>2026-04-26T10:59:58.28Z</time></trkpt><trkpt lat="43.374265" lon="13.0196867"><ele>926.2</ele><time>2026-04-26T10:59:59.28Z</time></trkpt><trkpt lat="43.374235" lon="13.0198283"><ele>926.6</ele><time>2026-04-26T11:00:00.28Z</time></trkpt><trkpt lat="43.3742067" lon="13.01996"><ele>927.0</ele><time>2026-04-26T11:00:01.28Z</time></trkpt><trkpt lat="43.3741767" lon="13.020085"><ele>928.4000000000001</ele><time>2026-04-26T11:00:02.28Z</time></trkpt><trkpt lat="43.3741417" lon="13.0202083"><ele>929.8000000000001</ele><time>2026-04-26T11:00:03.28Z</time></trkpt><trkpt lat="43.374095" lon="13.0203367"><ele>931.2</ele><time>2026-04-26T11:00:04.28Z</time></trkpt><trkpt lat="43.3740433" lon="13.0204567"><ele>932.6</ele><time>2026-04-26T11:00:05.28Z</time></trkpt><trkpt lat="43.37398" lon="13.0205667"><ele>934.0</ele><time>2026-04-26T11:00:06.28Z</time></trkpt><trkpt lat="43.3739117" lon="13.02065"><ele>933.8000000000001</ele><time>2026-04-26T11:00:07.28Z</time></trkpt><trkpt lat="43.3738367" lon="13.0207133"><ele>933.6000000000001</ele><time>2026-04-26T11:00:08.28Z</time></trkpt><trkpt lat="43.37375" lon="13.020775"><ele>933.4</ele><time>2026-04-26T11:00:09.28Z</time></trkpt><trkpt lat="43.3736633" lon="13.020825"><ele>933.2</ele><time>2026-04-26T11:00:10.28Z</time></trkpt><trkpt lat="43.37358" lon="13.02088"><ele>933.0</ele><time>2026-04-26T11:00:11.281Z</time></trkpt><trkpt lat="43.3735017" lon="13.020945"><ele>933.0</ele><time>2026-04-26T11:00:12.28Z</time></trkpt><trkpt lat="43.3734267" lon="13.021005"><ele>933.0</ele><time>2026-04-26T11:00:13.28Z</time></trkpt><trkpt lat="43.3733533" lon="13.02106"><ele>933.0</ele><time>2026-04-26T11:00:14.28Z</time></trkpt><trkpt lat="43.37328" lon="13.02112"><ele>933.0</ele><time>2026-04-26T11:00:15.28Z</time></trkpt><trkpt lat="43.37321" lon="13.0211767"><ele>933.0</ele><time>2026-04-26T11:00:16.28Z</time></trkpt><trkpt lat="43.373135" lon="13.0212283"><ele>933.0</ele><time>2026-04-26T11:00:17.28Z</time></trkpt><trkpt lat="43.3730533" lon="13.0212933"><ele>933.8</ele><time>2026-04-26T11:00:18.28Z</time></trkpt><trkpt lat="43.37297" lon="13.021365"><ele>934.5999999999999</ele><time>2026-04-26T11:00:19.281Z</time></trkpt><trkpt lat="43.372885" lon="13.0214433"><ele>935.4000000000001</ele><time>2026-04-26T11:00:20.28Z</time></trkpt><trkpt lat="43.3727983" lon="13.0215167"><ele>936.2</ele><time>2026-04-26T11:00:21.28Z</time></trkpt><trkpt lat="43.3727133" lon="13.0215883"><ele>937.0</ele><time>2026-04-26T11:00:22.28Z</time></trkpt><trkpt lat="43.37263" lon="13.021665"><ele>938.4000000000001</ele><time>2026-04-26T11:00:23.28Z</time></trkpt><trkpt lat="43.3725467" lon="13.0217433"><ele>939.8000000000001</ele><time>2026-04-26T11:00:24.281Z</time></trkpt><trkpt lat="43.37246" lon="13.0218217"><ele>941.2</ele><time>2026-04-26T11:00:25.28Z</time></trkpt><trkpt lat="43.3723767" lon="13.0218967"><ele>942.6</ele><time>2026-04-26T11:00:26.28Z</time></trkpt><trkpt lat="43.372295" lon="13.02197"><ele>944.0</ele><time>2026-04-26T11:00:27.281Z</time></trkpt><trkpt lat="43.37222" lon="13.02204"><ele>944.8333333333334</ele><time>2026-04-26T11:00:28.281Z</time></trkpt><trkpt lat="43.372145" lon="13.0220983"><ele>945.6666666666667</ele><time>2026-04-26T11:00:29.28Z</time></trkpt><trkpt lat="43.3720683" lon="13.022165"><ele>946.5</ele><time>2026-04-26T11:00:30.28Z</time></trkpt><trkpt lat="43.3719967" lon="13.022245"><ele>947.3333333333333</ele><time>2026-04-26T11:00:31.28Z</time></trkpt><trkpt lat="43.3719383" lon="13.0223283"><ele>948.1666666666666</ele><time>2026-04-26T11:00:32.28Z</time></trkpt><trkpt lat="43.3718783" lon="13.0224183"><ele>949.0</ele><time>2026-04-26T11:00:33.28Z</time></trkpt><trkpt lat="43.3718167" lon="13.0225017"><ele>949.4285714285716</ele><time>2026-04-26T11:00:34.28Z</time></trkpt><trkpt lat="43.3717567" lon="13.0225817"><ele>949.8571428571429</ele><time>2026-04-26T11:00:35.28Z</time></trkpt><trkpt lat="43.3717017" lon="13.02266"><ele>950.2857142857143</ele><time>2026-04-26T11:00:36.28Z</time></trkpt><trkpt lat="43.3716583" lon="13.02274"><ele>950.7142857142858</ele><time>2026-04-26T11:00:37.28Z</time></trkpt><trkpt lat="43.3716183" lon="13.02282"><ele>951.1428571428571</ele><time>2026-04-26T11:00:38.28Z</time></trkpt><trkpt lat="43.3715767" lon="13.0228867"><ele>951.5714285714286</ele><time>2026-04-26T11:00:39.28Z</time></trkpt><trkpt lat="43.3715283" lon="13.0229467"><ele>952.0</ele><time>2026-04-26T11:00:40.28Z</time></trkpt><trkpt lat="43.3714617" lon="13.0230067"><ele>951.9999999999999</ele><time>2026-04-26T11:00:41.28Z</time></trkpt><trkpt lat="43.371395" lon="13.02306"><ele>952.0</ele><time>2026-04-26T11:00:42.28Z</time></trkpt><trkpt lat="43.3713233" lon="13.0231067"><ele>952.0</ele><time>2026-04-26T11:00:43.28Z</time></trkpt><trkpt lat="43.37125" lon="13.02314"><ele>952.0</ele><time>2026-04-26T11:00:44.28Z</time></trkpt><trkpt lat="43.371175" lon="13.0231667"><ele>951.9999999999999</ele><time>2026-04-26T11:00:45.28Z</time></trkpt><trkpt lat="43.3710917" lon="13.0231867"><ele>952.0</ele><time>2026-04-26T11:00:46.28Z</time></trkpt><trkpt lat="43.3710133" lon="13.0231967"><ele>952.1666666666666</ele><time>2026-04-26T11:00:47.28Z</time></trkpt><trkpt lat="43.3709267" lon="13.0232183"><ele>952.3333333333333</ele><time>2026-04-26T11:00:48.28Z</time></trkpt><trkpt lat="43.3708383" lon="13.0232517"><ele>952.5</ele><time>2026-04-26T11:00:49.28Z</time></trkpt><trkpt lat="43.370755" lon="13.0232783"><ele>952.6666666666667</ele><time>2026-04-26T11:00:50.28Z</time></trkpt><trkpt lat="43.3706683" lon="13.0233033"><ele>952.8333333333334</ele><time>2026-04-26T11:00:51.28Z</time></trkpt><trkpt lat="43.37058" lon="13.0233283"><ele>953.0</ele><time>2026-04-26T11:00:52.28Z</time></trkpt><trkpt lat="43.3705017" lon="13.0233517"><ele>953.0000000000001</ele><time>2026-04-26T11:00:53.28Z</time></trkpt><trkpt lat="43.37042" lon="13.0233683"><ele>953.0</ele><time>2026-04-26T11:00:54.28Z</time></trkpt><trkpt lat="43.3703267" lon="13.0233917"><ele>953.0</ele><time>2026-04-26T11:00:55.28Z</time></trkpt><trkpt lat="43.37025" lon="13.0234083"><ele>953.0</ele><time>2026-04-26T11:00:56.28Z</time></trkpt><trkpt lat="43.3701817" lon="13.0234233"><ele>953.0000000000001</ele><time>2026-04-26T11:00:57.28Z</time></trkpt><trkpt lat="43.3701133" lon="13.023445"><ele>953.0</ele><time>2026-04-26T11:00:58.28Z</time></trkpt><trkpt lat="43.3700283" lon="13.023485"><ele>953.0000000000001</ele><time>2026-04-26T11:00:59.28Z</time></trkpt><trkpt lat="43.3699317" lon="13.02353"><ele>953.0</ele><time>2026-04-26T11:01:00.28Z</time></trkpt><trkpt lat="43.369845" lon="13.0235733"><ele>953.0</ele><time>2026-04-26T11:01:01.28Z</time></trkpt><trkpt lat="43.3697667" lon="13.0236217"><ele>953.0</ele><time>2026-04-26T11:01:02.28Z</time></trkpt><trkpt lat="43.36969" lon="13.023665"><ele>953.0000000000001</ele><time>2026-04-26T11:01:03.28Z</time></trkpt><trkpt lat="43.369615" lon="13.0237017"><ele>953.0</ele><time>2026-04-26T11:01:04.281Z</time></trkpt><trkpt lat="43.3695483" lon="13.0237367"><ele>953.4</ele><time>2026-04-26T11:01:05.28Z</time></trkpt><trkpt lat="43.369485" lon="13.0237667"><ele>953.8</ele><time>2026-04-26T11:01:06.28Z</time></trkpt><trkpt lat="43.36939" lon="13.0238083"><ele>954.2</ele><time>2026-04-26T11:01:08.28Z</time></trkpt><trkpt lat="43.369295" lon="13.0238567"><ele>954.6</ele><time>2026-04-26T11:01:10.28Z</time></trkpt><trkpt lat="43.3691917" lon="13.0239467"><ele>955.0</ele><time>2026-04-26T11:01:12.28Z</time></trkpt><trkpt lat="43.3690867" lon="13.0240267"><ele>954.9999999999999</ele><time>2026-04-26T11:01:14.281Z</time></trkpt><trkpt lat="43.3689917" lon="13.0241233"><ele>955.0</ele><time>2026-04-26T11:01:16.28Z</time></trkpt><trkpt lat="43.3689333" lon="13.024185"><ele>955.0</ele><time>2026-04-26T11:01:17.28Z</time></trkpt><trkpt lat="43.3688733" lon="13.0242467"><ele>955.0</ele><time>2026-04-26T11:01:18.281Z</time></trkpt><trkpt lat="43.36881" lon="13.02431"><ele>954.9999999999999</ele><time>2026-04-26T11:01:19.28Z</time></trkpt><trkpt lat="43.368745" lon="13.0243733"><ele>955.0</ele><time>2026-04-26T11:01:20.28Z</time></trkpt><trkpt lat="43.368685" lon="13.0244367"><ele>953.9999999999999</ele><time>2026-04-26T11:01:21.279Z</time></trkpt><trkpt lat="43.36862" lon="13.0245"><ele>953.0</ele><time>2026-04-26T11:01:22.28Z</time></trkpt><trkpt lat="43.3685533" lon="13.02457"><ele>952.0</ele><time>2026-04-26T11:01:23.279Z</time></trkpt><trkpt lat="43.3684867" lon="13.0246433"><ele>951.0</ele><time>2026-04-26T11:01:24.279Z</time></trkpt><trkpt lat="43.3684233" lon="13.0247133"><ele>949.9999999999999</ele><time>2026-04-26T11:01:25.279Z</time></trkpt><trkpt lat="43.36836" lon="13.0247833"><ele>949.0</ele><time>2026-04-26T11:01:26.279Z</time></trkpt><trkpt lat="43.3683" lon="13.0248517"><ele>948.9999999999999</ele><time>2026-04-26T11:01:27.279Z</time></trkpt><trkpt lat="43.368245" lon="13.02492"><ele>949.0</ele><time>2026-04-26T11:01:28.279Z</time></trkpt><trkpt lat="43.368185" lon="13.0249817"><ele>949.0</ele><time>2026-04-26T11:01:29.279Z</time></trkpt><trkpt lat="43.3681167" lon="13.025055"><ele>949.0</ele><time>2026-04-26T11:01:30.279Z</time></trkpt><trkpt lat="43.36804" lon="13.0251183"><ele>948.9999999999999</ele><time>2026-04-26T11:01:31.279Z</time></trkpt><trkpt lat="43.3679733" lon="13.0251783"><ele>949.0</ele><time>2026-04-26T11:01:32.279Z</time></trkpt><trkpt lat="43.3678767" lon="13.02526"><ele>947.4000000000001</ele><time>2026-04-26T11:01:34.279Z</time></trkpt><trkpt lat="43.3678017" lon="13.025315"><ele>945.8000000000001</ele><time>2026-04-26T11:01:36.279Z</time></trkpt><trkpt lat="43.3677233" lon="13.0253833"><ele>944.1999999999999</ele><time>2026-04-26T11:01:38.279Z</time></trkpt><trkpt lat="43.3676383" lon="13.0254283"><ele>942.5999999999999</ele><time>2026-04-26T11:01:40.279Z</time></trkpt><trkpt lat="43.3675383" lon="13.0254683"><ele>941.0</ele><time>2026-04-26T11:01:42.279Z</time></trkpt><trkpt lat="43.3674283" lon="13.0254883"><ele>941.0000000000001</ele><time>2026-04-26T11:01:44.279Z</time></trkpt><trkpt lat="43.3673617" lon="13.0255033"><ele>941.0</ele><time>2026-04-26T11:01:45.279Z</time></trkpt><trkpt lat="43.3672917" lon="13.0255183"><ele>941.0</ele><time>2026-04-26T11:01:46.279Z</time></trkpt><trkpt lat="43.3672233" lon="13.0255367"><ele>941.0</ele><time>2026-04-26T11:01:47.279Z</time></trkpt><trkpt lat="43.36715" lon="13.02556"><ele>941.0000000000001</ele><time>2026-04-26T11:01:48.279Z</time></trkpt><trkpt lat="43.3670783" lon="13.0255767"><ele>941.0</ele><time>2026-04-26T11:01:49.279Z</time></trkpt><trkpt lat="43.3669583" lon="13.0256167"><ele>940.0000000000001</ele><time>2026-04-26T11:01:51.279Z</time></trkpt><trkpt lat="43.3668617" lon="13.025655"><ele>939.0</ele><time>2026-04-26T11:01:53.279Z</time></trkpt><trkpt lat="43.3667733" lon="13.0257017"><ele>938.0</ele><time>2026-04-26T11:01:55.279Z</time></trkpt><trkpt lat="43.36666" lon="13.0257533"><ele>937.0</ele><time>2026-04-26T11:01:57.279Z</time></trkpt><trkpt lat="43.3665983" lon="13.02579"><ele>936.0000000000001</ele><time>2026-04-26T11:01:58.279Z</time></trkpt><trkpt lat="43.3665383" lon="13.02583"><ele>935.0</ele><time>2026-04-26T11:01:59.279Z</time></trkpt><trkpt lat="43.366435" lon="13.02592"><ele>934.5</ele><time>2026-04-26T11:02:01.279Z</time></trkpt><trkpt lat="43.366345" lon="13.026035"><ele>934.0</ele><time>2026-04-26T11:02:03.28Z</time></trkpt><trkpt lat="43.366295" lon="13.026175"><ele>933.5</ele><time>2026-04-26T11:02:05.279Z</time></trkpt><trkpt lat="43.3662717" lon="13.0263183"><ele>933.0</ele><time>2026-04-26T11:02:07.279Z</time></trkpt><trkpt lat="43.36624" lon="13.0264633"><ele>933.0</ele><time>2026-04-26T11:02:09.279Z</time></trkpt><trkpt lat="43.3662217" lon="13.0266233"><ele>933.0</ele><time>2026-04-26T11:02:11.279Z</time></trkpt><trkpt lat="43.366205" lon="13.0267783"><ele>933.0</ele><time>2026-04-26T11:02:13.279Z</time></trkpt><trkpt lat="43.366185" lon="13.02693"><ele>933.0</ele><time>2026-04-26T11:02:15.279Z</time></trkpt><trkpt lat="43.3661767" lon="13.0270867"><ele>933.2</ele><time>2026-04-26T11:02:17.279Z</time></trkpt><trkpt lat="43.366165" lon="13.0272517"><ele>933.4</ele><time>2026-04-26T11:02:19.279Z</time></trkpt><trkpt lat="43.3661567" lon="13.0273383"><ele>933.6000000000001</ele><time>2026-04-26T11:02:20.28Z</time></trkpt><trkpt lat="43.36614" lon="13.0275083"><ele>933.8000000000001</ele><time>2026-04-26T11:02:22.279Z</time></trkpt><trkpt lat="43.3661167" lon="13.0276767"><ele>934.0</ele><time>2026-04-26T11:02:24.28Z</time></trkpt><trkpt lat="43.3660967" lon="13.0278217"><ele>934.2</ele><time>2026-04-26T11:02:26.279Z</time></trkpt><trkpt lat="43.3660733" lon="13.0279633"><ele>934.4000000000001</ele><time>2026-04-26T11:02:28.279Z</time></trkpt><trkpt lat="43.3660483" lon="13.0280667"><ele>934.6</ele><time>2026-04-26T11:02:30.279Z</time></trkpt><trkpt lat="43.3659933" lon="13.0281633"><ele>934.8</ele><time>2026-04-26T11:02:52.279Z</time></trkpt><trkpt lat="43.365915" lon="13.0282733"><ele>935.0</ele><time>2026-04-26T11:02:54.279Z</time></trkpt><trkpt lat="43.36583" lon="13.0283733"><ele>935.0000000000001</ele><time>2026-04-26T11:02:56.279Z</time></trkpt><trkpt lat="43.3657917" lon="13.02845"><ele>935.0</ele><time>2026-04-26T11:02:57.279Z</time></trkpt><trkpt lat="43.365755" lon="13.02854"><ele>935.0</ele><time>2026-04-26T11:02:58.279Z</time></trkpt><trkpt lat="43.3657317" lon="13.028655"><ele>935.0</ele><time>2026-04-26T11:02:59.279Z</time></trkpt><trkpt lat="43.3657167" lon="13.0287733"><ele>935.0000000000001</ele><time>2026-04-26T11:03:00.279Z</time></trkpt><trkpt lat="43.365705" lon="13.0289033"><ele>935.0</ele><time>2026-04-26T11:03:01.28Z</time></trkpt><trkpt lat="43.36569" lon="13.02902"><ele>934.8</ele><time>2026-04-26T11:03:02.279Z</time></trkpt><trkpt lat="43.365655" lon="13.0291583"><ele>934.6</ele><time>2026-04-26T11:03:03.279Z</time></trkpt><trkpt lat="43.36563" lon="13.0292967"><ele>934.4000000000001</ele><time>2026-04-26T11:03:04.279Z</time></trkpt><trkpt lat="43.3656067" lon="13.0294383"><ele>934.2</ele><time>2026-04-26T11:03:05.279Z</time></trkpt><trkpt lat="43.3655783" lon="13.0295733"><ele>934.0</ele><time>2026-04-26T11:03:06.279Z</time></trkpt><trkpt lat="43.3655617" lon="13.0297017"><ele>933.9999999999999</ele><time>2026-04-26T11:03:07.279Z</time></trkpt><trkpt lat="43.3655617" lon="13.0298267"><ele>934.0</ele><time>2026-04-26T11:03:08.279Z</time></trkpt><trkpt lat="43.365565" lon="13.0299433"><ele>934.0</ele><time>2026-04-26T11:03:09.279Z</time></trkpt><trkpt lat="43.3655667" lon="13.030065"><ele>934.0</ele><time>2026-04-26T11:03:10.279Z</time></trkpt><trkpt lat="43.3655667" lon="13.0301783"><ele>933.9999999999999</ele><time>2026-04-26T11:03:11.279Z</time></trkpt><trkpt lat="43.3655583" lon="13.0302867"><ele>934.0</ele><time>2026-04-26T11:03:12.279Z</time></trkpt><trkpt lat="43.3655533" lon="13.03039"><ele>933.8571428571427</ele><time>2026-04-26T11:03:13.279Z</time></trkpt><trkpt lat="43.365535" lon="13.0304783"><ele>933.7142857142857</ele><time>2026-04-26T11:03:14.279Z</time></trkpt><trkpt lat="43.365495" lon="13.0305483"><ele>933.5714285714284</ele><time>2026-04-26T11:03:15.28Z</time></trkpt><trkpt lat="43.3654433" lon="13.0306033"><ele>933.4285714285713</ele><time>2026-04-26T11:03:16.279Z</time></trkpt><trkpt lat="43.3653717" lon="13.030635"><ele>933.2857142857142</ele><time>2026-04-26T11:03:17.279Z</time></trkpt><trkpt lat="43.36529" lon="13.0306533"><ele>933.1428571428571</ele><time>2026-04-26T11:03:18.279Z</time></trkpt><trkpt lat="43.3651967" lon="13.0306617"><ele>933.0</ele><time>2026-04-26T11:03:19.279Z</time></trkpt><trkpt lat="43.365095" lon="13.030655"><ele>933.0</ele><time>2026-04-26T11:03:20.28Z</time></trkpt><trkpt lat="43.364995" lon="13.030645"><ele>933.0</ele><time>2026-04-26T11:03:21.279Z</time></trkpt><trkpt lat="43.36489" lon="13.0306233"><ele>933.0</ele><time>2026-04-26T11:03:22.279Z</time></trkpt><trkpt lat="43.3647917" lon="13.0306"><ele>933.0</ele><time>2026-04-26T11:03:23.28Z</time></trkpt><trkpt lat="43.3646983" lon="13.0305683"><ele>933.0</ele><time>2026-04-26T11:03:24.279Z</time></trkpt><trkpt lat="43.3646083" lon="13.0305367"><ele>932.3333333333334</ele><time>2026-04-26T11:03:25.279Z</time></trkpt><trkpt lat="43.3645233" lon="13.030495"><ele>931.6666666666667</ele><time>2026-04-26T11:03:26.279Z</time></trkpt><trkpt lat="43.364445" lon="13.0304533"><ele>931.0</ele><time>2026-04-26T11:03:27.279Z</time></trkpt><trkpt lat="43.3643633" lon="13.0304117"><ele>930.3333333333334</ele><time>2026-04-26T11:03:28.279Z</time></trkpt><trkpt lat="43.36428" lon="13.0303733"><ele>929.6666666666667</ele><time>2026-04-26T11:03:29.279Z</time></trkpt><trkpt lat="43.3641983" lon="13.0303467"><ele>929.0</ele><time>2026-04-26T11:03:30.279Z</time></trkpt><trkpt lat="43.3641183" lon="13.030315"><ele>929.0000000000001</ele><time>2026-04-26T11:03:31.279Z</time></trkpt><trkpt lat="43.3640383" lon="13.0302783"><ele>929.0</ele><time>2026-04-26T11:03:32.279Z</time></trkpt><trkpt lat="43.3639517" lon="13.03025"><ele>929.0</ele><time>2026-04-26T11:03:33.279Z</time></trkpt><trkpt lat="43.3638667" lon="13.0302583"><ele>929.0</ele><time>2026-04-26T11:03:34.28Z</time></trkpt><trkpt lat="43.363775" lon="13.0302867"><ele>929.0000000000001</ele><time>2026-04-26T11:03:35.279Z</time></trkpt><trkpt lat="43.3636917" lon="13.0303433"><ele>929.0</ele><time>2026-04-26T11:03:36.279Z</time></trkpt><trkpt lat="43.3636167" lon="13.030435"><ele>929.25</ele><time>2026-04-26T11:03:37.279Z</time></trkpt><trkpt lat="43.36355" lon="13.0305533"><ele>929.5</ele><time>2026-04-26T11:03:38.279Z</time></trkpt><trkpt lat="43.3634933" lon="13.0306867"><ele>929.75</ele><time>2026-04-26T11:03:39.279Z</time></trkpt><trkpt lat="43.3634333" lon="13.0308317"><ele>930.0</ele><time>2026-04-26T11:03:40.279Z</time></trkpt><trkpt lat="43.3633833" lon="13.0309683"><ele>930.0</ele><time>2026-04-26T11:03:41.279Z</time></trkpt><trkpt lat="43.36333" lon="13.03111"><ele>930.0</ele><time>2026-04-26T11:03:42.279Z</time></trkpt><trkpt lat="43.36328" lon="13.0312467"><ele>930.0</ele><time>2026-04-26T11:03:43.279Z</time></trkpt><trkpt lat="43.3632333" lon="13.031385"><ele>930.0</ele><time>2026-04-26T11:03:44.279Z</time></trkpt><trkpt lat="43.3631867" lon="13.0315267"><ele>929.0</ele><time>2026-04-26T11:03:45.279Z</time></trkpt><trkpt lat="43.363145" lon="13.0316667"><ele>928.0</ele><time>2026-04-26T11:03:46.279Z</time></trkpt><trkpt lat="43.3630967" lon="13.0318017"><ele>927.0</ele><time>2026-04-26T11:03:47.28Z</time></trkpt><trkpt lat="43.3630467" lon="13.0319433"><ele>926.0</ele><time>2026-04-26T11:03:48.279Z</time></trkpt><trkpt lat="43.3630017" lon="13.0320833"><ele>925.0</ele><time>2026-04-26T11:03:49.279Z</time></trkpt><trkpt lat="43.3629583" lon="13.0322217"><ele>930.0</ele><time>2026-04-26T11:03:50.279Z</time></trkpt><trkpt lat="43.3629067" lon="13.0323583"><ele>935.0</ele><time>2026-04-26T11:03:51.28Z</time></trkpt><trkpt lat="43.36285" lon="13.032495"><ele>940.0</ele><time>2026-04-26T11:03:52.279Z</time></trkpt><trkpt lat="43.3627817" lon="13.032625"><ele>945.0</ele><time>2026-04-26T11:03:53.279Z</time></trkpt><trkpt lat="43.3627117" lon="13.0327517"><ele>945.0</ele><time>2026-04-26T11:03:54.279Z</time></trkpt><trkpt lat="43.362645" lon="13.0328783"><ele>945.0</ele><time>2026-04-26T11:03:55.279Z</time></trkpt><trkpt lat="43.3625783" lon="13.03301"><ele>945.0</ele><time>2026-04-26T11:03:56.279Z</time></trkpt><trkpt lat="43.3625167" lon="13.033135"><ele>945.0</ele><time>2026-04-26T11:03:57.279Z</time></trkpt><trkpt lat="43.36246" lon="13.0332633"><ele>945.0</ele><time>2026-04-26T11:03:58.279Z</time></trkpt><trkpt lat="43.3623933" lon="13.03338"><ele>942.8</ele><time>2026-04-26T11:03:59.279Z</time></trkpt><trkpt lat="43.36233" lon="13.0334967"><ele>940.6</ele><time>2026-04-26T11:04:00.279Z</time></trkpt><trkpt lat="43.3622683" lon="13.0336033"><ele>938.4000000000001</ele><time>2026-04-26T11:04:01.279Z</time></trkpt><trkpt lat="43.3622" lon="13.0337033"><ele>936.2</ele><time>2026-04-26T11:04:02.279Z</time></trkpt><trkpt lat="43.3621317" lon="13.0337883"><ele>934.0</ele><time>2026-04-26T11:04:03.279Z</time></trkpt><trkpt lat="43.3620633" lon="13.0338717"><ele>936.3333333333333</ele><time>2026-04-26T11:04:04.279Z</time></trkpt><trkpt lat="43.361995" lon="13.0339483"><ele>938.6666666666666</ele><time>2026-04-26T11:04:05.279Z</time></trkpt><trkpt lat="43.3619283" lon="13.0340333"><ele>941.0</ele><time>2026-04-26T11:04:06.279Z</time></trkpt><trkpt lat="43.3618667" lon="13.0341017"><ele>943.3333333333333</ele><time>2026-04-26T11:04:07.279Z</time></trkpt><trkpt lat="43.3617967" lon="13.0341517"><ele>945.6666666666666</ele><time>2026-04-26T11:04:08.279Z</time></trkpt><trkpt lat="43.361725" lon="13.034195"><ele>948.0</ele><time>2026-04-26T11:04:09.279Z</time></trkpt><trkpt lat="43.36165" lon="13.03423"><ele>948.0</ele><time>2026-04-26T11:04:10.279Z</time></trkpt><trkpt lat="43.3615783" lon="13.03424"><ele>948.0</ele><time>2026-04-26T11:04:11.279Z</time></trkpt><trkpt lat="43.3614967" lon="13.03423"><ele>948.0</ele><time>2026-04-26T11:04:12.279Z</time></trkpt><trkpt lat="43.3614083" lon="13.034205"><ele>948.0</ele><time>2026-04-26T11:04:13.28Z</time></trkpt><trkpt lat="43.361315" lon="13.0341883"><ele>948.0</ele><time>2026-04-26T11:04:14.279Z</time></trkpt><trkpt lat="43.3612217" lon="13.0341783"><ele>948.0</ele><time>2026-04-26T11:04:15.279Z</time></trkpt><trkpt lat="43.3611283" lon="13.0341683"><ele>951.0</ele><time>2026-04-26T11:04:16.279Z</time></trkpt><trkpt lat="43.3610367" lon="13.0341583"><ele>954.0</ele><time>2026-04-26T11:04:17.279Z</time></trkpt><trkpt lat="43.3609467" lon="13.0341583"><ele>957.0</ele><time>2026-04-26T11:04:18.279Z</time></trkpt><trkpt lat="43.3608517" lon="13.0341933"><ele>960.0</ele><time>2026-04-26T11:04:19.279Z</time></trkpt><trkpt lat="43.3607667" lon="13.0342533"><ele>963.0</ele><time>2026-04-26T11:04:20.279Z</time></trkpt><trkpt lat="43.36069" lon="13.0343383"><ele>963.0</ele><time>2026-04-26T11:04:21.279Z</time></trkpt><trkpt lat="43.360615" lon="13.0344483"><ele>963.0</ele><time>2026-04-26T11:04:22.279Z</time></trkpt><trkpt lat="43.36056" lon="13.034575"><ele>963.0</ele><time>2026-04-26T11:04:23.279Z</time></trkpt><trkpt lat="43.3605117" lon="13.0347067"><ele>963.0</ele><time>2026-04-26T11:04:24.279Z</time></trkpt><trkpt lat="43.36047" lon="13.0348383"><ele>963.0</ele><time>2026-04-26T11:04:25.279Z</time></trkpt><trkpt lat="43.3604283" lon="13.0349483"><ele>962.5999999999999</ele><time>2026-04-26T11:04:26.279Z</time></trkpt><trkpt lat="43.3603667" lon="13.03504"><ele>962.1999999999999</ele><time>2026-04-26T11:04:27.279Z</time></trkpt><trkpt lat="43.360295" lon="13.0351183"><ele>961.8</ele><time>2026-04-26T11:04:28.279Z</time></trkpt><trkpt lat="43.360205" lon="13.03517"><ele>961.4</ele><time>2026-04-26T11:04:29.279Z</time></trkpt><trkpt lat="43.3601067" lon="13.0351833"><ele>961.0</ele><time>2026-04-26T11:04:30.279Z</time></trkpt><trkpt lat="43.3600083" lon="13.0351717"><ele>961.0</ele><time>2026-04-26T11:04:31.279Z</time></trkpt><trkpt lat="43.3599083" lon="13.03513"><ele>960.9999999999999</ele><time>2026-04-26T11:04:32.279Z</time></trkpt><trkpt lat="43.3598017" lon="13.03508"><ele>960.9999999999999</ele><time>2026-04-26T11:04:33.279Z</time></trkpt><trkpt lat="43.3596967" lon="13.0350217"><ele>961.0</ele><time>2026-04-26T11:04:34.279Z</time></trkpt><trkpt lat="43.359595" lon="13.0349567"><ele>961.0</ele><time>2026-04-26T11:04:35.279Z</time></trkpt><trkpt lat="43.3594867" lon="13.0348883"><ele>965.25</ele><time>2026-04-26T11:04:36.279Z</time></trkpt><trkpt lat="43.3593717" lon="13.0348167"><ele>969.5</ele><time>2026-04-26T11:04:37.279Z</time></trkpt><trkpt lat="43.3592455" lon="13.0347487"><ele>973.75</ele><time>2026-04-26T11:04:38.279Z</time></trkpt><trkpt lat="43.3591183" lon="13.0346869"><ele>978.0</ele><time>2026-04-26T11:04:39.279Z</time></trkpt><trkpt lat="43.358983" lon="13.0346215"><ele>972.75</ele><time>2026-04-26T11:04:40.279Z</time></trkpt><trkpt lat="43.3588479" lon="13.0345472"><ele>967.5</ele><time>2026-04-26T11:04:41.279Z</time></trkpt><trkpt lat="43.3587187" lon="13.0344757"><ele>962.25</ele><time>2026-04-26T11:04:42.279Z</time></trkpt><trkpt lat="43.358602" lon="13.0344009"><ele>957.0</ele><time>2026-04-26T11:04:43.279Z</time></trkpt><trkpt lat="43.3584831" lon="13.0343387"><ele>957.0</ele><time>2026-04-26T11:04:44.279Z</time></trkpt><trkpt lat="43.358364" lon="13.034271"><ele>957.0</ele><time>2026-04-26T11:04:45.279Z</time></trkpt><trkpt lat="43.3582395" lon="13.0341913"><ele>957.0</ele><time>2026-04-26T11:04:46.279Z</time></trkpt><trkpt lat="43.3581184" lon="13.0340972"><ele>957.0</ele><time>2026-04-26T11:04:47.279Z</time></trkpt><trkpt lat="43.3580045" lon="13.0339918"><ele>956.75</ele><time>2026-04-26T11:04:48.279Z</time></trkpt><trkpt lat="43.3578913" lon="13.0338808"><ele>956.5</ele><time>2026-04-26T11:04:49.279Z</time></trkpt><trkpt lat="43.3577841" lon="13.0337668"><ele>956.25</ele><time>2026-04-26T11:04:50.279Z</time></trkpt><trkpt lat="43.3576854" lon="13.033655"><ele>956.0</ele><time>2026-04-26T11:04:51.279Z</time></trkpt><trkpt lat="43.3575925" lon="13.0335521"><ele>956.0</ele><time>2026-04-26T11:04:52.279Z</time></trkpt><trkpt lat="43.3575044" lon="13.0334523"><ele>955.9999999999999</ele><time>2026-04-26T11:04:53.279Z</time></trkpt><trkpt lat="43.3574151" lon="13.0333563"><ele>955.9999999999999</ele><time>2026-04-26T11:04:54.279Z</time></trkpt><trkpt lat="43.3573264" lon="13.0332675"><ele>956.0</ele><time>2026-04-26T11:04:55.279Z</time></trkpt><trkpt lat="43.3572391" lon="13.0331848"><ele>956.0</ele><time>2026-04-26T11:04:56.279Z</time></trkpt><trkpt lat="43.3571555" lon="13.0331047"><ele>954.1999999999999</ele><time>2026-04-26T11:04:57.279Z</time></trkpt><trkpt lat="43.3570768" lon="13.0330209"><ele>952.3999999999999</ele><time>2026-04-26T11:04:58.279Z</time></trkpt><trkpt lat="43.356998" lon="13.0329424"><ele>950.6</ele><time>2026-04-26T11:04:59.279Z</time></trkpt><trkpt lat="43.3569214" lon="13.0328677"><ele>948.8</ele><time>2026-04-26T11:05:00.279Z</time></trkpt><trkpt lat="43.356848" lon="13.0327978"><ele>947.0</ele><time>2026-04-26T11:05:01.279Z</time></trkpt><trkpt lat="43.356774" lon="13.0327332"><ele>947.0000000000001</ele><time>2026-04-26T11:05:02.279Z</time></trkpt><trkpt lat="43.3567045" lon="13.0326642"><ele>947.0</ele><time>2026-04-26T11:05:03.279Z</time></trkpt><trkpt lat="43.3566346" lon="13.0325984"><ele>947.0</ele><time>2026-04-26T11:05:04.279Z</time></trkpt><trkpt lat="43.3565629" lon="13.0325371"><ele>947.0</ele><time>2026-04-26T11:05:05.279Z</time></trkpt><trkpt lat="43.3564976" lon="13.0324657"><ele>947.0000000000001</ele><time>2026-04-26T11:05:06.279Z</time></trkpt><trkpt lat="43.3564378" lon="13.0323876"><ele>947.0</ele><time>2026-04-26T11:05:07.279Z</time></trkpt><trkpt lat="43.3563758" lon="13.0323082"><ele>944.5000000000001</ele><time>2026-04-26T11:05:08.279Z</time></trkpt><trkpt lat="43.3563099" lon="13.032237"><ele>942.0</ele><time>2026-04-26T11:05:09.279Z</time></trkpt><trkpt lat="43.3562378" lon="13.0321727"><ele>939.5</ele><time>2026-04-26T11:05:10.28Z</time></trkpt><trkpt lat="43.356165" lon="13.0321117"><ele>937.0</ele><time>2026-04-26T11:05:11.28Z</time></trkpt><trkpt lat="43.35609" lon="13.03204"><ele>934.5000000000001</ele><time>2026-04-26T11:05:12.279Z</time></trkpt><trkpt lat="43.3560167" lon="13.03196"><ele>932.0</ele><time>2026-04-26T11:05:13.279Z</time></trkpt><trkpt lat="43.3559433" lon="13.0318667"><ele>932.0</ele><time>2026-04-26T11:05:14.279Z</time></trkpt><trkpt lat="43.35587" lon="13.031785"><ele>932.0</ele><time>2026-04-26T11:05:15.279Z</time></trkpt><trkpt lat="43.3557917" lon="13.0317167"><ele>932.0</ele><time>2026-04-26T11:05:16.279Z</time></trkpt><trkpt lat="43.3557217" lon="13.0316367"><ele>932.0</ele><time>2026-04-26T11:05:17.279Z</time></trkpt><trkpt lat="43.3556533" lon="13.0315583"><ele>932.0</ele><time>2026-04-26T11:05:18.279Z</time></trkpt><trkpt lat="43.355585" lon="13.031485"><ele>928.8</ele><time>2026-04-26T11:05:19.279Z</time></trkpt><trkpt lat="43.3555233" lon="13.0314067"><ele>925.6</ele><time>2026-04-26T11:05:20.279Z</time></trkpt><trkpt lat="43.3554567" lon="13.0313267"><ele>922.3999999999999</ele><time>2026-04-26T11:05:21.279Z</time></trkpt><trkpt lat="43.3553817" lon="13.0312367"><ele>919.1999999999999</ele><time>2026-04-26T11:05:22.279Z</time></trkpt><trkpt lat="43.3553083" lon="13.031145"><ele>916.0</ele><time>2026-04-26T11:05:23.28Z</time></trkpt><trkpt lat="43.3552333" lon="13.0310467"><ele>916.0</ele><time>2026-04-26T11:05:24.279Z</time></trkpt><trkpt lat="43.35516" lon="13.0309567"><ele>915.9999999999999</ele><time>2026-04-26T11:05:25.279Z</time></trkpt><trkpt lat="43.3550967" lon="13.0308617"><ele>915.9999999999999</ele><time>2026-04-26T11:05:26.279Z</time></trkpt><trkpt lat="43.3550383" lon="13.0307717"><ele>916.0</ele><time>2026-04-26T11:05:27.279Z</time></trkpt><trkpt lat="43.3549833" lon="13.03068"><ele>916.0</ele><time>2026-04-26T11:05:28.279Z</time></trkpt><trkpt lat="43.35492" lon="13.0305833"><ele>914.6666666666666</ele><time>2026-04-26T11:05:29.279Z</time></trkpt><trkpt lat="43.35486" lon="13.030485"><ele>913.3333333333333</ele><time>2026-04-26T11:05:30.279Z</time></trkpt><trkpt lat="43.3548033" lon="13.0303917"><ele>912.0</ele><time>2026-04-26T11:05:31.279Z</time></trkpt><trkpt lat="43.3547483" lon="13.0302967"><ele>910.6666666666667</ele><time>2026-04-26T11:05:32.279Z</time></trkpt><trkpt lat="43.3546917" lon="13.03021"><ele>909.3333333333334</ele><time>2026-04-26T11:05:33.28Z</time></trkpt><trkpt lat="43.354635" lon="13.030115"><ele>908.0</ele><time>2026-04-26T11:05:34.28Z</time></trkpt><trkpt lat="43.354575" lon="13.0300317"><ele>908.4285714285714</ele><time>2026-04-26T11:05:35.28Z</time></trkpt><trkpt lat="43.354525" lon="13.029955"><ele>908.8571428571429</ele><time>2026-04-26T11:05:36.279Z</time></trkpt><trkpt lat="43.3544667" lon="13.0298817"><ele>909.2857142857143</ele><time>2026-04-26T11:05:37.279Z</time></trkpt><trkpt lat="43.3544083" lon="13.0298133"><ele>909.7142857142858</ele><time>2026-04-26T11:05:38.279Z</time></trkpt><trkpt lat="43.35435" lon="13.0297617"><ele>910.1428571428571</ele><time>2026-04-26T11:05:39.279Z</time></trkpt><trkpt lat="43.3542817" lon="13.02972"><ele>910.5714285714287</ele><time>2026-04-26T11:05:40.279Z</time></trkpt><trkpt lat="43.3542167" lon="13.0296867"><ele>911.0</ele><time>2026-04-26T11:05:41.279Z</time></trkpt><trkpt lat="43.3541317" lon="13.0296633"><ele>911.0</ele><time>2026-04-26T11:05:42.28Z</time></trkpt><trkpt lat="43.3540383" lon="13.0296567"><ele>910.9999999999999</ele><time>2026-04-26T11:05:43.279Z</time></trkpt><trkpt lat="43.3539417" lon="13.0296617"><ele>910.9999999999999</ele><time>2026-04-26T11:05:44.279Z</time></trkpt><trkpt lat="43.3538483" lon="13.0296817"><ele>911.0</ele><time>2026-04-26T11:05:45.279Z</time></trkpt><trkpt lat="43.3537567" lon="13.0297233"><ele>911.0</ele><time>2026-04-26T11:05:46.279Z</time></trkpt><trkpt lat="43.3536667" lon="13.0297883"><ele>910.8</ele><time>2026-04-26T11:05:47.279Z</time></trkpt><trkpt lat="43.3535833" lon="13.029875"><ele>910.5999999999999</ele><time>2026-04-26T11:05:48.279Z</time></trkpt><trkpt lat="43.3535067" lon="13.0299783"><ele>910.4</ele><time>2026-04-26T11:05:49.279Z</time></trkpt><trkpt lat="43.3534367" lon="13.03009"><ele>910.2</ele><time>2026-04-26T11:05:50.279Z</time></trkpt><trkpt lat="43.353365" lon="13.0301983"><ele>910.0</ele><time>2026-04-26T11:05:51.28Z</time></trkpt><trkpt lat="43.3532933" lon="13.030295"><ele>909.9999999999999</ele><time>2026-04-26T11:05:52.28Z</time></trkpt><trkpt lat="43.3532233" lon="13.030385"><ele>910.0</ele><time>2026-04-26T11:05:53.279Z</time></trkpt><trkpt lat="43.35316" lon="13.03045"><ele>910.0</ele><time>2026-04-26T11:05:54.279Z</time></trkpt><trkpt lat="43.3531017" lon="13.030495"><ele>910.0</ele><time>2026-04-26T11:05:55.279Z</time></trkpt><trkpt lat="43.35304" lon="13.0305217"><ele>909.9999999999999</ele><time>2026-04-26T11:05:56.279Z</time></trkpt><trkpt lat="43.35297" lon="13.0305067"><ele>910.0</ele><time>2026-04-26T11:05:57.279Z</time></trkpt><trkpt lat="43.352895" lon="13.0304617"><ele>910.0</ele><time>2026-04-26T11:05:58.279Z</time></trkpt><trkpt lat="43.3528283" lon="13.0303833"><ele>910.0</ele><time>2026-04-26T11:05:59.279Z</time></trkpt><trkpt lat="43.35276" lon="13.0302767"><ele>910.0</ele><time>2026-04-26T11:06:00.279Z</time></trkpt><trkpt lat="43.3526867" lon="13.03017"><ele>910.0</ele><time>2026-04-26T11:06:01.28Z</time></trkpt><trkpt lat="43.3526183" lon="13.0300667"><ele>910.0</ele><time>2026-04-26T11:06:02.279Z</time></trkpt><trkpt lat="43.3525467" lon="13.0299633"><ele>913.4</ele><time>2026-04-26T11:06:03.279Z</time></trkpt><trkpt lat="43.3524617" lon="13.02988"><ele>916.8</ele><time>2026-04-26T11:06:04.28Z</time></trkpt><trkpt lat="43.35238" lon="13.0298017"><ele>920.2</ele><time>2026-04-26T11:06:05.279Z</time></trkpt><trkpt lat="43.3522933" lon="13.0297217"><ele>923.6</ele><time>2026-04-26T11:06:06.279Z</time></trkpt><trkpt lat="43.3522083" lon="13.0296567"><ele>927.0</ele><time>2026-04-26T11:06:07.279Z</time></trkpt><trkpt lat="43.352125" lon="13.0296083"><ele>928.8333333333334</ele><time>2026-04-26T11:06:08.279Z</time></trkpt><trkpt lat="43.3520417" lon="13.0295817"><ele>930.6666666666667</ele><time>2026-04-26T11:06:09.28Z</time></trkpt><trkpt lat="43.3519517" lon="13.02958"><ele>932.5</ele><time>2026-04-26T11:06:10.279Z</time></trkpt><trkpt lat="43.35186" lon="13.0295983"><ele>934.3333333333334</ele><time>2026-04-26T11:06:11.279Z</time></trkpt><trkpt lat="43.3517783" lon="13.0296317"><ele>936.1666666666667</ele><time>2026-04-26T11:06:12.28Z</time></trkpt><trkpt lat="43.3516933" lon="13.029685"><ele>938.0</ele><time>2026-04-26T11:06:13.279Z</time></trkpt><trkpt lat="43.3516133" lon="13.0297567"><ele>938.0</ele><time>2026-04-26T11:06:14.279Z</time></trkpt><trkpt lat="43.3515383" lon="13.0298417"><ele>938.0</ele><time>2026-04-26T11:06:15.279Z</time></trkpt><trkpt lat="43.3514767" lon="13.0299233"><ele>938.0</ele><time>2026-04-26T11:06:16.279Z</time></trkpt><trkpt lat="43.351425" lon="13.03004"><ele>938.0</ele><time>2026-04-26T11:06:17.279Z</time></trkpt><trkpt lat="43.3513817" lon="13.03016"><ele>938.0</ele><time>2026-04-26T11:06:18.279Z</time></trkpt><trkpt lat="43.3513483" lon="13.030275"><ele>940.0</ele><time>2026-04-26T11:06:19.279Z</time></trkpt><trkpt lat="43.35132" lon="13.0303883"><ele>942.0</ele><time>2026-04-26T11:06:20.279Z</time></trkpt><trkpt lat="43.3512933" lon="13.0305167"><ele>944.0</ele><time>2026-04-26T11:06:21.279Z</time></trkpt><trkpt lat="43.3512667" lon="13.0306333"><ele>946.0</ele><time>2026-04-26T11:06:22.279Z</time></trkpt><trkpt lat="43.3512433" lon="13.03076"><ele>948.0</ele><time>2026-04-26T11:06:23.279Z</time></trkpt><trkpt lat="43.3512233" lon="13.0308967"><ele>948.0</ele><time>2026-04-26T11:06:24.279Z</time></trkpt><trkpt lat="43.3512067" lon="13.0310367"><ele>948.0</ele><time>2026-04-26T11:06:25.279Z</time></trkpt><trkpt lat="43.3511833" lon="13.0311817"><ele>948.0</ele><time>2026-04-26T11:06:26.279Z</time></trkpt><trkpt lat="43.3511617" lon="13.0313283"><ele>948.0</ele><time>2026-04-26T11:06:27.279Z</time></trkpt><trkpt lat="43.35115" lon="13.031475"><ele>948.0</ele><time>2026-04-26T11:06:28.279Z</time></trkpt><trkpt lat="43.35114" lon="13.0316267"><ele>946.5</ele><time>2026-04-26T11:06:29.279Z</time></trkpt><trkpt lat="43.351125" lon="13.0317783"><ele>945.0</ele><time>2026-04-26T11:06:30.279Z</time></trkpt><trkpt lat="43.3511067" lon="13.0319317"><ele>943.5</ele><time>2026-04-26T11:06:31.279Z</time></trkpt><trkpt lat="43.3510933" lon="13.0320933"><ele>942.0</ele><time>2026-04-26T11:06:32.279Z</time></trkpt><trkpt lat="43.3510733" lon="13.0322583"><ele>942.0</ele><time>2026-04-26T11:06:33.279Z</time></trkpt><trkpt lat="43.35106" lon="13.0324117"><ele>942.0</ele><time>2026-04-26T11:06:34.28Z</time></trkpt><trkpt lat="43.351045" lon="13.032565"><ele>942.0</ele><time>2026-04-26T11:06:35.28Z</time></trkpt><trkpt lat="43.3510333" lon="13.0327167"><ele>942.0</ele><time>2026-04-26T11:06:36.279Z</time></trkpt><trkpt lat="43.3510183" lon="13.0328583"><ele>942.0</ele><time>2026-04-26T11:06:37.279Z</time></trkpt><trkpt lat="43.3510017" lon="13.032995"><ele>940.6</ele><time>2026-04-26T11:06:38.279Z</time></trkpt><trkpt lat="43.3509933" lon="13.0331267"><ele>939.2</ele><time>2026-04-26T11:06:39.279Z</time></trkpt><trkpt lat="43.3509883" lon="13.0332567"><ele>937.8</ele><time>2026-04-26T11:06:40.279Z</time></trkpt><trkpt lat="43.3509817" lon="13.03339"><ele>936.4</ele><time>2026-04-26T11:06:41.279Z</time></trkpt><trkpt lat="43.35097" lon="13.033515"><ele>935.0</ele><time>2026-04-26T11:06:42.279Z</time></trkpt><trkpt lat="43.3509367" lon="13.033635"><ele>933.6</ele><time>2026-04-26T11:06:43.279Z</time></trkpt><trkpt lat="43.350885" lon="13.0337483"><ele>932.2</ele><time>2026-04-26T11:06:44.279Z</time></trkpt><trkpt lat="43.350825" lon="13.03385"><ele>930.8</ele><time>2026-04-26T11:06:45.279Z</time></trkpt><trkpt lat="43.3507533" lon="13.0339483"><ele>929.4</ele><time>2026-04-26T11:06:46.28Z</time></trkpt><trkpt lat="43.3506783" lon="13.03405"><ele>928.0</ele><time>2026-04-26T11:06:47.279Z</time></trkpt><trkpt lat="43.350605" lon="13.0341533"><ele>933.4</ele><time>2026-04-26T11:06:48.279Z</time></trkpt><trkpt lat="43.350535" lon="13.03427"><ele>938.8</ele><time>2026-04-26T11:06:49.279Z</time></trkpt><trkpt lat="43.3504717" lon="13.03438"><ele>944.2</ele><time>2026-04-26T11:06:50.279Z</time></trkpt><trkpt lat="43.3504283" lon="13.0345033"><ele>949.6</ele><time>2026-04-26T11:06:51.279Z</time></trkpt><trkpt lat="43.3503933" lon="13.0346383"><ele>955.0</ele><time>2026-04-26T11:06:52.279Z</time></trkpt><trkpt lat="43.3503683" lon="13.03478"><ele>955.0</ele><time>2026-04-26T11:06:53.279Z</time></trkpt><trkpt lat="43.3503517" lon="13.0349433"><ele>955.0</ele><time>2026-04-26T11:06:54.279Z</time></trkpt><trkpt lat="43.3503383" lon="13.035095"><ele>955.0</ele><time>2026-04-26T11:06:55.279Z</time></trkpt><trkpt lat="43.3503317" lon="13.035295"><ele>955.0</ele><time>2026-04-26T11:06:56.279Z</time></trkpt><trkpt lat="43.3503233" lon="13.0354833"><ele>954.0</ele><time>2026-04-26T11:06:57.279Z</time></trkpt><trkpt lat="43.3503117" lon="13.0356633"><ele>953.0</ele><time>2026-04-26T11:06:58.279Z</time></trkpt><trkpt lat="43.35031" lon="13.0358267"><ele>952.0</ele><time>2026-04-26T11:06:59.279Z</time></trkpt><trkpt lat="43.350305" lon="13.0359767"><ele>951.0</ele><time>2026-04-26T11:07:00.28Z</time></trkpt><trkpt lat="43.3503" lon="13.0361167"><ele>950.5999999999999</ele><time>2026-04-26T11:07:01.279Z</time></trkpt><trkpt lat="43.3503033" lon="13.0362567"><ele>950.1999999999999</ele><time>2026-04-26T11:07:02.279Z</time></trkpt><trkpt lat="43.3502917" lon="13.0363983"><ele>949.8000000000001</ele><time>2026-04-26T11:07:03.279Z</time></trkpt><trkpt lat="43.350285" lon="13.0365467"><ele>949.4000000000001</ele><time>2026-04-26T11:07:04.279Z</time></trkpt><trkpt lat="43.35028" lon="13.0366983"><ele>949.0</ele><time>2026-04-26T11:07:05.279Z</time></trkpt><trkpt lat="43.350285" lon="13.0368583"><ele>948.25</ele><time>2026-04-26T11:07:06.279Z</time></trkpt><trkpt lat="43.3502883" lon="13.0370167"><ele>947.5</ele><time>2026-04-26T11:07:07.279Z</time></trkpt><trkpt lat="43.3502917" lon="13.03718"><ele>946.75</ele><time>2026-04-26T11:07:08.279Z</time></trkpt><trkpt lat="43.3502933" lon="13.0373433"><ele>946.0</ele><time>2026-04-26T11:07:09.279Z</time></trkpt><trkpt lat="43.3502883" lon="13.0375083"><ele>944.1999999999999</ele><time>2026-04-26T11:07:10.279Z</time></trkpt><trkpt lat="43.350275" lon="13.0376583"><ele>942.3999999999999</ele><time>2026-04-26T11:07:11.279Z</time></trkpt><trkpt lat="43.3502683" lon="13.037805"><ele>940.6</ele><time>2026-04-26T11:07:12.279Z</time></trkpt><trkpt lat="43.3502567" lon="13.037925"><ele>938.8</ele><time>2026-04-26T11:07:13.279Z</time></trkpt><trkpt lat="43.3502367" lon="13.0380367"><ele>937.0</ele><time>2026-04-26T11:07:14.279Z</time></trkpt><trkpt lat="43.3502017" lon="13.0381333"><ele>936.9999999999999</ele><time>2026-04-26T11:07:15.279Z</time></trkpt><trkpt lat="43.3501517" lon="13.038215"><ele>937.0</ele><time>2026-04-26T11:07:16.279Z</time></trkpt><trkpt lat="43.3500933" lon="13.0382683"><ele>937.0</ele><time>2026-04-26T11:07:17.279Z</time></trkpt><trkpt lat="43.350015" lon="13.0383"><ele>937.0</ele><time>2026-04-26T11:07:18.279Z</time></trkpt><trkpt lat="43.3499383" lon="13.0382883"><ele>936.9999999999999</ele><time>2026-04-26T11:07:19.279Z</time></trkpt><trkpt lat="43.3498467" lon="13.0382517"><ele>937.0</ele><time>2026-04-26T11:07:20.279Z</time></trkpt><trkpt lat="43.3497533" lon="13.0382033"><ele>939.0</ele><time>2026-04-26T11:07:21.279Z</time></trkpt><trkpt lat="43.3496633" lon="13.038135"><ele>941.0</ele><time>2026-04-26T11:07:22.279Z</time></trkpt><trkpt lat="43.3495717" lon="13.03805"><ele>943.0</ele><time>2026-04-26T11:07:23.279Z</time></trkpt><trkpt lat="43.3494817" lon="13.0379767"><ele>945.0</ele><time>2026-04-26T11:07:24.279Z</time></trkpt><trkpt lat="43.3493967" lon="13.0379167"><ele>947.0</ele><time>2026-04-26T11:07:25.279Z</time></trkpt><trkpt lat="43.3493133" lon="13.0378517"><ele>947.0</ele><time>2026-04-26T11:07:26.279Z</time></trkpt><trkpt lat="43.3492317" lon="13.0377933"><ele>947.0</ele><time>2026-04-26T11:07:27.279Z</time></trkpt><trkpt lat="43.3491467" lon="13.037725"><ele>947.0</ele><time>2026-04-26T11:07:28.279Z</time></trkpt><trkpt lat="43.3490583" lon="13.0376667"><ele>947.0</ele><time>2026-04-26T11:07:29.279Z</time></trkpt><trkpt lat="43.3489733" lon="13.0376133"><ele>947.0</ele><time>2026-04-26T11:07:30.279Z</time></trkpt><trkpt lat="43.3489" lon="13.03755"><ele>945.5000000000001</ele><time>2026-04-26T11:07:31.279Z</time></trkpt><trkpt lat="43.348825" lon="13.03749"><ele>944.0</ele><time>2026-04-26T11:07:32.279Z</time></trkpt><trkpt lat="43.34875" lon="13.03744"><ele>942.5</ele><time>2026-04-26T11:07:33.279Z</time></trkpt><trkpt lat="43.3486733" lon="13.0373867"><ele>941.0</ele><time>2026-04-26T11:07:34.279Z</time></trkpt><trkpt lat="43.3486017" lon="13.03732"><ele>939.5000000000001</ele><time>2026-04-26T11:07:35.279Z</time></trkpt><trkpt lat="43.3485267" lon="13.0372633"><ele>938.0</ele><time>2026-04-26T11:07:36.279Z</time></trkpt><trkpt lat="43.3484667" lon="13.0371983"><ele>942.3333333333334</ele><time>2026-04-26T11:07:37.279Z</time></trkpt><trkpt lat="43.348415" lon="13.03713"><ele>946.6666666666667</ele><time>2026-04-26T11:07:38.279Z</time></trkpt><trkpt lat="43.34836" lon="13.0370567"><ele>951.0</ele><time>2026-04-26T11:07:39.279Z</time></trkpt><trkpt lat="43.3483033" lon="13.0369867"><ele>955.3333333333333</ele><time>2026-04-26T11:07:40.279Z</time></trkpt><trkpt lat="43.3482417" lon="13.03691"><ele>959.6666666666666</ele><time>2026-04-26T11:07:41.279Z</time></trkpt><trkpt lat="43.3481717" lon="13.0368383"><ele>964.0</ele><time>2026-04-26T11:07:42.279Z</time></trkpt><trkpt lat="43.3480933" lon="13.0367767"><ele>963.4000000000001</ele><time>2026-04-26T11:07:43.279Z</time></trkpt><trkpt lat="43.3480167" lon="13.0367317"><ele>962.8000000000001</ele><time>2026-04-26T11:07:44.279Z</time></trkpt><trkpt lat="43.3479333" lon="13.0367133"><ele>962.1999999999999</ele><time>2026-04-26T11:07:45.279Z</time></trkpt><trkpt lat="43.3478383" lon="13.03672"><ele>961.5999999999999</ele><time>2026-04-26T11:07:46.279Z</time></trkpt><trkpt lat="43.3477417" lon="13.036725"><ele>961.0</ele><time>2026-04-26T11:07:47.279Z</time></trkpt><trkpt lat="43.3476417" lon="13.0367283"><ele>961.0</ele><time>2026-04-26T11:07:48.279Z</time></trkpt><trkpt lat="43.3475367" lon="13.03674"><ele>960.9999999999999</ele><time>2026-04-26T11:07:49.279Z</time></trkpt><trkpt lat="43.3474283" lon="13.0367533"><ele>960.9999999999999</ele><time>2026-04-26T11:07:50.279Z</time></trkpt><trkpt lat="43.3473233" lon="13.0367783"><ele>961.0</ele><time>2026-04-26T11:07:51.279Z</time></trkpt><trkpt lat="43.347225" lon="13.0367967"><ele>961.0</ele><time>2026-04-26T11:07:52.279Z</time></trkpt><trkpt lat="43.3471317" lon="13.0368233"><ele>963.4999999999999</ele><time>2026-04-26T11:07:53.279Z</time></trkpt><trkpt lat="43.347045" lon="13.0368533"><ele>966.0</ele><time>2026-04-26T11:07:54.279Z</time></trkpt><trkpt lat="43.3469567" lon="13.0368617"><ele>968.5</ele><time>2026-04-26T11:07:55.279Z</time></trkpt><trkpt lat="43.34687" lon="13.0368717"><ele>971.0</ele><time>2026-04-26T11:07:56.279Z</time></trkpt><trkpt lat="43.3467867" lon="13.0368717"><ele>973.4999999999999</ele><time>2026-04-26T11:07:57.279Z</time></trkpt><trkpt lat="43.3467067" lon="13.0368883"><ele>976.0</ele><time>2026-04-26T11:07:58.279Z</time></trkpt><trkpt lat="43.3466317" lon="13.036915"><ele>976.0</ele><time>2026-04-26T11:07:59.279Z</time></trkpt><trkpt lat="43.3465533" lon="13.0369633"><ele>975.9999999999999</ele><time>2026-04-26T11:08:00.279Z</time></trkpt><trkpt lat="43.3464617" lon="13.037035"><ele>975.9999999999999</ele><time>2026-04-26T11:08:01.279Z</time></trkpt><trkpt lat="43.3463617" lon="13.03711"><ele>976.0</ele><time>2026-04-26T11:08:02.279Z</time></trkpt><trkpt lat="43.3462717" lon="13.0371967"><ele>976.0</ele><time>2026-04-26T11:08:03.279Z</time></trkpt><trkpt lat="43.3461833" lon="13.037275"><ele>974.8</ele><time>2026-04-26T11:08:04.279Z</time></trkpt><trkpt lat="43.3461017" lon="13.03736"><ele>973.5999999999999</ele><time>2026-04-26T11:08:05.28Z</time></trkpt><trkpt lat="43.3460317" lon="13.03744"><ele>972.4</ele><time>2026-04-26T11:08:06.279Z</time></trkpt><trkpt lat="43.345975" lon="13.0375083"><ele>971.2</ele><time>2026-04-26T11:08:07.279Z</time></trkpt><trkpt lat="43.3458917" lon="13.0375933"><ele>970.0</ele><time>2026-04-26T11:08:09.279Z</time></trkpt><trkpt lat="43.3458267" lon="13.0376633"><ele>969.9999999999999</ele><time>2026-04-26T11:08:11.279Z</time></trkpt><trkpt lat="43.345765" lon="13.037725"><ele>970.0</ele><time>2026-04-26T11:08:14.279Z</time></trkpt><trkpt lat="43.3456833" lon="13.0377967"><ele>970.0</ele><time>2026-04-26T11:08:24.279Z</time></trkpt><trkpt lat="43.345655" lon="13.0378817"><ele>970.0</ele><time>2026-04-26T11:08:27.279Z</time></trkpt><trkpt lat="43.3457233" lon="13.0379017"><ele>969.9999999999999</ele><time>2026-04-26T11:08:30.279Z</time></trkpt><trkpt lat="43.3457933" lon="13.0378767"><ele>970.0</ele><time>2026-04-26T11:08:32.28Z</time></trkpt><trkpt lat="43.345865" lon="13.0378317"><ele>970.0</ele><time>2026-04-26T11:08:34.279Z</time></trkpt><trkpt lat="43.3459417" lon="13.03777"><ele>970.0</ele><time>2026-04-26T11:08:36.279Z</time></trkpt><trkpt lat="43.3460283" lon="13.03769"><ele>970.0</ele><time>2026-04-26T11:08:38.279Z</time></trkpt><trkpt lat="43.3461167" lon="13.0376"><ele>970.0</ele><time>2026-04-26T11:08:40.279Z</time></trkpt><trkpt lat="43.34621" lon="13.037515"><ele>970.0</ele><time>2026-04-26T11:08:42.279Z</time></trkpt><trkpt lat="43.346315" lon="13.0374067"><ele>971.2</ele><time>2026-04-26T11:08:44.279Z</time></trkpt><trkpt lat="43.34637" lon="13.0373533"><ele>972.4</ele><time>2026-04-26T11:08:45.279Z</time></trkpt><trkpt lat="43.34645" lon="13.0373283"><ele>973.5999999999999</ele><time>2026-04-26T11:08:46.279Z</time></trkpt><trkpt lat="43.3465833" lon="13.03728"><ele>974.8</ele><time>2026-04-26T11:08:48.279Z</time></trkpt><trkpt lat="43.3466883" lon="13.03723"><ele>976.0</ele><time>2026-04-26T11:08:50.28Z</time></trkpt><trkpt lat="43.3468017" lon="13.03722"><ele>975.9999999999999</ele><time>2026-04-26T11:08:52.279Z</time></trkpt><trkpt lat="43.3468683" lon="13.0372117"><ele>976.0</ele><time>2026-04-26T11:08:53.279Z</time></trkpt><trkpt lat="43.3469417" lon="13.0372067"><ele>975.9999999999999</ele><time>2026-04-26T11:08:54.279Z</time></trkpt><trkpt lat="43.34701" lon="13.0372"><ele>975.9999999999999</ele><time>2026-04-26T11:08:55.28Z</time></trkpt><trkpt lat="43.3470767" lon="13.0371983"><ele>976.0</ele><time>2026-04-26T11:08:56.28Z</time></trkpt><trkpt lat="43.347155" lon="13.037185"><ele>975.9999999999999</ele><time>2026-04-26T11:08:57.279Z</time></trkpt><trkpt lat="43.3472383" lon="13.0371783"><ele>975.9999999999999</ele><time>2026-04-26T11:08:58.279Z</time></trkpt><trkpt lat="43.3473267" lon="13.037185"><ele>973.4999999999999</ele><time>2026-04-26T11:08:59.279Z</time></trkpt><trkpt lat="43.3474267" lon="13.0372017"><ele>971.0</ele><time>2026-04-26T11:09:00.279Z</time></trkpt><trkpt lat="43.3475017" lon="13.0372"><ele>968.5</ele><time>2026-04-26T11:09:01.279Z</time></trkpt><trkpt lat="43.3475783" lon="13.0372267"><ele>966.0</ele><time>2026-04-26T11:09:02.279Z</time></trkpt><trkpt lat="43.3476483" lon="13.0372283"><ele>963.4999999999999</ele><time>2026-04-26T11:09:03.279Z</time></trkpt><trkpt lat="43.3477133" lon="13.03726"><ele>961.0</ele><time>2026-04-26T11:09:04.279Z</time></trkpt><trkpt lat="43.3477867" lon="13.037275"><ele>960.9999999999999</ele><time>2026-04-26T11:09:05.279Z</time></trkpt><trkpt lat="43.34785" lon="13.0372917"><ele>961.0</ele><time>2026-04-26T11:09:06.279Z</time></trkpt><trkpt lat="43.3479617" lon="13.0373267"><ele>961.0</ele><time>2026-04-26T11:09:08.279Z</time></trkpt><trkpt lat="43.3480267" lon="13.0373483"><ele>961.0</ele><time>2026-04-26T11:09:09.28Z</time></trkpt><trkpt lat="43.348085" lon="13.0373917"><ele>960.9999999999999</ele><time>2026-04-26T11:09:10.279Z</time></trkpt><trkpt lat="43.348145" lon="13.037455"><ele>961.0</ele><time>2026-04-26T11:09:11.279Z</time></trkpt><trkpt lat="43.3481917" lon="13.037515"><ele>957.7142857142857</ele><time>2026-04-26T11:09:12.28Z</time></trkpt><trkpt lat="43.3482367" lon="13.0375967"><ele>954.4285714285713</ele><time>2026-04-26T11:09:13.279Z</time></trkpt><trkpt lat="43.3482833" lon="13.0376733"><ele>951.1428571428571</ele><time>2026-04-26T11:09:14.279Z</time></trkpt><trkpt lat="43.34833" lon="13.03775"><ele>947.8571428571429</ele><time>2026-04-26T11:09:15.279Z</time></trkpt><trkpt lat="43.348365" lon="13.037855"><ele>944.5714285714286</ele><time>2026-04-26T11:09:16.279Z</time></trkpt><trkpt lat="43.3484" lon="13.037955"><ele>941.2857142857142</ele><time>2026-04-26T11:09:17.279Z</time></trkpt><trkpt lat="43.348435" lon="13.0380283"><ele>938.0</ele><time>2026-04-26T11:09:18.279Z</time></trkpt><trkpt lat="43.348475" lon="13.0380967"><ele>938.0</ele><time>2026-04-26T11:09:19.279Z</time></trkpt><trkpt lat="43.3485083" lon="13.0381767"><ele>938.0</ele><time>2026-04-26T11:09:20.279Z</time></trkpt><trkpt lat="43.3485667" lon="13.03831"><ele>938.0</ele><time>2026-04-26T11:09:22.279Z</time></trkpt><trkpt lat="43.3485933" lon="13.03839"><ele>938.0</ele><time>2026-04-26T11:09:23.279Z</time></trkpt><trkpt lat="43.3486483" lon="13.0385233"><ele>938.0</ele><time>2026-04-26T11:09:25.28Z</time></trkpt><trkpt lat="43.348685" lon="13.03867"><ele>933.2</ele><time>2026-04-26T11:09:27.279Z</time></trkpt><trkpt lat="43.3487" lon="13.0388083"><ele>928.4</ele><time>2026-04-26T11:09:29.279Z</time></trkpt><trkpt lat="43.34869" lon="13.03895"><ele>923.6000000000001</ele><time>2026-04-26T11:09:31.279Z</time></trkpt><trkpt lat="43.3486317" lon="13.0390767"><ele>918.8000000000001</ele><time>2026-04-26T11:09:33.279Z</time></trkpt><trkpt lat="43.3485533" lon="13.0391633"><ele>914.0</ele><time>2026-04-26T11:09:35.28Z</time></trkpt><trkpt lat="43.3484633" lon="13.0392083"><ele>911.8000000000001</ele><time>2026-04-26T11:09:37.279Z</time></trkpt><trkpt lat="43.3483683" lon="13.039255"><ele>909.6000000000001</ele><time>2026-04-26T11:09:39.279Z</time></trkpt><trkpt lat="43.3482783" lon="13.0392867"><ele>907.4</ele><time>2026-04-26T11:09:41.279Z</time></trkpt><trkpt lat="43.348155" lon="13.039325"><ele>905.2</ele><time>2026-04-26T11:09:43.279Z</time></trkpt><trkpt lat="43.34809" lon="13.0393467"><ele>903.0</ele><time>2026-04-26T11:09:44.279Z</time></trkpt><trkpt lat="43.3480233" lon="13.03937"><ele>903.0</ele><time>2026-04-26T11:09:45.279Z</time></trkpt><trkpt lat="43.3479467" lon="13.0393867"><ele>903.0</ele><time>2026-04-26T11:09:46.279Z</time></trkpt><trkpt lat="43.3478417" lon="13.0394683"><ele>903.0</ele><time>2026-04-26T11:09:48.28Z</time></trkpt><trkpt lat="43.3477533" lon="13.03956"><ele>903.0</ele><time>2026-04-26T11:09:50.279Z</time></trkpt><trkpt lat="43.3476633" lon="13.0396967"><ele>903.0</ele><time>2026-04-26T11:09:52.279Z</time></trkpt><trkpt lat="43.347615" lon="13.03978"><ele>903.0</ele><time>2026-04-26T11:09:53.279Z</time></trkpt><trkpt lat="43.3475567" lon="13.0399333"><ele>903.0</ele><time>2026-04-26T11:09:55.279Z</time></trkpt><trkpt lat="43.34752" lon="13.0400083"><ele>903.0</ele><time>2026-04-26T11:09:56.279Z</time></trkpt><trkpt lat="43.3474433" lon="13.0401383"><ele>903.0</ele><time>2026-04-26T11:09:58.279Z</time></trkpt><trkpt lat="43.3473767" lon="13.0402733"><ele>903.0</ele><time>2026-04-26T11:10:00.279Z</time></trkpt><trkpt lat="43.3473333" lon="13.04034"><ele>903.0</ele><time>2026-04-26T11:10:01.279Z</time></trkpt><trkpt lat="43.3472967" lon="13.0404133"><ele>903.0</ele><time>2026-04-26T11:10:02.279Z</time></trkpt><trkpt lat="43.3472583" lon="13.0404917"><ele>903.0</ele><time>2026-04-26T11:10:03.279Z</time></trkpt><trkpt lat="43.3471767" lon="13.040635"><ele>903.0</ele><time>2026-04-26T11:10:05.279Z</time></trkpt><trkpt lat="43.347135" lon="13.0407033"><ele>903.0</ele><time>2026-04-26T11:10:06.279Z</time></trkpt><trkpt lat="43.3470867" lon="13.0407783"><ele>903.0</ele><time>2026-04-26T11:10:07.279Z</time></trkpt><trkpt lat="43.347045" lon="13.0408533"><ele>899.5999999999999</ele><time>2026-04-26T11:10:08.279Z</time></trkpt><trkpt lat="43.3469933" lon="13.0409217"><ele>896.1999999999999</ele><time>2026-04-26T11:10:09.279Z</time></trkpt><trkpt lat="43.346915" lon="13.0410433"><ele>892.8</ele><time>2026-04-26T11:10:11.279Z</time></trkpt><trkpt lat="43.34683" lon="13.04114"><ele>889.4</ele><time>2026-04-26T11:10:13.279Z</time></trkpt><trkpt lat="43.34675" lon="13.0412233"><ele>886.0</ele><time>2026-04-26T11:10:15.279Z</time></trkpt><trkpt lat="43.3467133" lon="13.0412967"><ele>886.0</ele><time>2026-04-26T11:10:17.279Z</time></trkpt><trkpt lat="43.3467017" lon="13.0413867"><ele>886.0</ele><time>2026-04-26T11:10:19.279Z</time></trkpt><trkpt lat="43.3467033" lon="13.04148"><ele>886.0</ele><time>2026-04-26T11:10:21.279Z</time></trkpt><trkpt lat="43.3467167" lon="13.0415667"><ele>886.0</ele><time>2026-04-26T11:10:23.279Z</time></trkpt><trkpt lat="43.3467333" lon="13.0416567"><ele>886.0</ele><time>2026-04-26T11:10:25.28Z</time></trkpt><trkpt lat="43.3467583" lon="13.0417467"><ele>886.0</ele><time>2026-04-26T11:10:27.279Z</time></trkpt><trkpt lat="43.34679" lon="13.041855"><ele>886.0</ele><time>2026-04-26T11:10:30.28Z</time></trkpt><trkpt lat="43.34681" lon="13.04195"><ele>882.6666666666666</ele><time>2026-04-26T11:10:42.279Z</time></trkpt><trkpt lat="43.3468533" lon="13.0420433"><ele>879.3333333333333</ele><time>2026-04-26T11:10:49.28Z</time></trkpt><trkpt lat="43.3468733" lon="13.0421283"><ele>876.0</ele><time>2026-04-26T11:10:54.279Z</time></trkpt><trkpt lat="43.3469183" lon="13.0422067"><ele>872.6666666666667</ele><time>2026-04-26T11:10:57.28Z</time></trkpt><trkpt lat="43.3469683" lon="13.0423133"><ele>869.3333333333334</ele><time>2026-04-26T11:11:00.279Z</time></trkpt><trkpt lat="43.34703" lon="13.0423983"><ele>866.0</ele><time>2026-04-26T11:11:04.279Z</time></trkpt><trkpt lat="43.3469806" lon="13.0422994"><ele>866.0</ele><time>2026-04-26T11:11:06.363Z</time></trkpt><trkpt lat="43.3470447" lon="13.0423205"><ele>865.9999999999999</ele><time>2026-04-26T11:11:09.34Z</time></trkpt><trkpt lat="43.3471345" lon="13.0423851"><ele>865.9999999999999</ele><time>2026-04-26T11:11:12.318Z</time></trkpt><trkpt lat="43.3471856" lon="13.0424365"><ele>866.0</ele><time>2026-04-26T11:11:14.339Z</time></trkpt><trkpt lat="43.3472488" lon="13.0424132"><ele>866.0</ele><time>2026-04-26T11:11:15.296Z</time></trkpt><trkpt lat="43.347434" lon="13.0424167"><ele>863.1666666666667</ele><time>2026-04-26T11:11:32.311Z</time></trkpt><trkpt lat="43.3475219" lon="13.0424433"><ele>860.3333333333334</ele><time>2026-04-26T11:11:46.349Z</time></trkpt><trkpt lat="43.3476117" lon="13.0424367"><ele>857.5</ele><time>2026-04-26T11:11:54.279Z</time></trkpt><trkpt lat="43.3476767" lon="13.0424417"><ele>854.6666666666667</ele><time>2026-04-26T11:11:58.279Z</time></trkpt><trkpt lat="43.3477566" lon="13.0424319"><ele>851.8333333333334</ele><time>2026-04-26T11:12:03.365Z</time></trkpt><trkpt lat="43.3478247" lon="13.0424616"><ele>849.0</ele><time>2026-04-26T11:12:07.3Z</time></trkpt><trkpt lat="43.3478872" lon="13.042475"><ele>846.3333333333334</ele><time>2026-04-26T11:12:10.345Z</time></trkpt><trkpt lat="43.3479532" lon="13.0424865"><ele>843.6666666666667</ele><time>2026-04-26T11:12:14.282Z</time></trkpt><trkpt lat="43.3480183" lon="13.042502"><ele>841.0</ele><time>2026-04-26T11:12:20.274Z</time></trkpt><trkpt lat="43.3481283" lon="13.0425417"><ele>838.3333333333334</ele><time>2026-04-26T11:12:50.278Z</time></trkpt><trkpt lat="43.3482017" lon="13.0425567"><ele>835.6666666666667</ele><time>2026-04-26T11:12:55.278Z</time></trkpt><trkpt lat="43.3482783" lon="13.0425717"><ele>833.0</ele><time>2026-04-26T11:12:59.278Z</time></trkpt><trkpt lat="43.3483667" lon="13.042625"><ele>827.8</ele><time>2026-04-26T11:13:20.278Z</time></trkpt><trkpt lat="43.348425" lon="13.0426783"><ele>822.5999999999999</ele><time>2026-04-26T11:13:24.279Z</time></trkpt><trkpt lat="43.3484767" lon="13.04276"><ele>817.4000000000001</ele><time>2026-04-26T11:13:27.278Z</time></trkpt><trkpt lat="43.3484267" lon="13.0429133"><ele>812.2</ele><time>2026-04-26T11:15:13.278Z</time></trkpt><trkpt lat="43.3483917" lon="13.0430483"><ele>807.0</ele><time>2026-04-26T11:15:15.278Z</time></trkpt><trkpt lat="43.3483633" lon="13.0431617"><ele>805.0</ele><time>2026-04-26T11:15:17.278Z</time></trkpt><trkpt lat="43.3483433" lon="13.0433033"><ele>803.0</ele><time>2026-04-26T11:15:19.278Z</time></trkpt><trkpt lat="43.3483167" lon="13.0434367"><ele>801.0</ele><time>2026-04-26T11:15:21.278Z</time></trkpt><trkpt lat="43.3482617" lon="13.043555"><ele>799.0</ele><time>2026-04-26T11:15:23.278Z</time></trkpt><trkpt lat="43.3481933" lon="13.0436567"><ele>797.0</ele><time>2026-04-26T11:15:25.278Z</time></trkpt><trkpt lat="43.3481133" lon="13.0437433"><ele>801.0</ele><time>2026-04-26T11:15:27.278Z</time></trkpt><trkpt lat="43.3480233" lon="13.04381"><ele>805.0</ele><time>2026-04-26T11:15:29.278Z</time></trkpt><trkpt lat="43.34793" lon="13.0438533"><ele>809.0</ele><time>2026-04-26T11:15:31.278Z</time></trkpt><trkpt lat="43.3478366" lon="13.0438928"><ele>813.0</ele><time>2026-04-26T11:15:33.278Z</time></trkpt><trkpt lat="43.3477244" lon="13.0439256"><ele>817.0</ele><time>2026-04-26T11:15:35.278Z</time></trkpt><trkpt lat="43.3476164" lon="13.0439493"><ele>817.0</ele><time>2026-04-26T11:15:37.278Z</time></trkpt><trkpt lat="43.34751" lon="13.0439655"><ele>817.0</ele><time>2026-04-26T11:15:39.278Z</time></trkpt><trkpt lat="43.3474092" lon="13.0439844"><ele>817.0</ele><time>2026-04-26T11:15:41.278Z</time></trkpt><trkpt lat="43.3473193" lon="13.0439976"><ele>817.0</ele><time>2026-04-26T11:15:43.278Z</time></trkpt><trkpt lat="43.3472182" lon="13.0440376"><ele>817.0</ele><time>2026-04-26T11:15:45.278Z</time></trkpt><trkpt lat="43.3471018" lon="13.0441157"><ele>813.1666666666666</ele><time>2026-04-26T11:15:47.278Z</time></trkpt><trkpt lat="43.347039" lon="13.0441562"><ele>809.3333333333333</ele><time>2026-04-26T11:15:48.278Z</time></trkpt><trkpt lat="43.3469767" lon="13.0441931"><ele>805.5</ele><time>2026-04-26T11:15:49.278Z</time></trkpt><trkpt lat="43.346912" lon="13.0442254"><ele>801.6666666666667</ele><time>2026-04-26T11:15:50.278Z</time></trkpt><trkpt lat="43.3468457" lon="13.0442577"><ele>797.8333333333334</ele><time>2026-04-26T11:15:51.278Z</time></trkpt><trkpt lat="43.3467363" lon="13.0442743"><ele>794.0</ele><time>2026-04-26T11:15:53.278Z</time></trkpt><trkpt lat="43.3466264" lon="13.0442722"><ele>794.0</ele><time>2026-04-26T11:15:55.278Z</time></trkpt><trkpt lat="43.3465236" lon="13.0442486"><ele>794.0</ele><time>2026-04-26T11:15:57.278Z</time></trkpt><trkpt lat="43.3464174" lon="13.0442377"><ele>794.0</ele><time>2026-04-26T11:15:59.278Z</time></trkpt><trkpt lat="43.3463013" lon="13.0442904"><ele>794.0</ele><time>2026-04-26T11:16:01.278Z</time></trkpt><trkpt lat="43.3462395" lon="13.0443273"><ele>794.0</ele><time>2026-04-26T11:16:02.279Z</time></trkpt><trkpt lat="43.3461804" lon="13.0443723"><ele>795.1428571428571</ele><time>2026-04-26T11:16:03.278Z</time></trkpt><trkpt lat="43.346123" lon="13.0444169"><ele>796.2857142857142</ele><time>2026-04-26T11:16:04.278Z</time></trkpt><trkpt lat="43.3460633" lon="13.0444785"><ele>797.4285714285714</ele><time>2026-04-26T11:16:05.278Z</time></trkpt><trkpt lat="43.3459992" lon="13.0445316"><ele>798.5714285714286</ele><time>2026-04-26T11:16:06.278Z</time></trkpt><trkpt lat="43.3459403" lon="13.0445691"><ele>799.7142857142858</ele><time>2026-04-26T11:16:07.278Z</time></trkpt><trkpt lat="43.3458806" lon="13.0446119"><ele>800.8571428571429</ele><time>2026-04-26T11:16:08.278Z</time></trkpt><trkpt lat="43.3458195" lon="13.0446571"><ele>802.0</ele><time>2026-04-26T11:16:09.278Z</time></trkpt><trkpt lat="43.345758" lon="13.0446971"><ele>801.9999999999999</ele><time>2026-04-26T11:16:10.278Z</time></trkpt><trkpt lat="43.3456915" lon="13.0447366"><ele>802.0</ele><time>2026-04-26T11:16:11.278Z</time></trkpt><trkpt lat="43.3456212" lon="13.0447615"><ele>802.0</ele><time>2026-04-26T11:16:12.278Z</time></trkpt><trkpt lat="43.3455464" lon="13.0447787"><ele>802.0</ele><time>2026-04-26T11:16:13.278Z</time></trkpt><trkpt lat="43.3454667" lon="13.0447905"><ele>801.9999999999999</ele><time>2026-04-26T11:16:14.279Z</time></trkpt><trkpt lat="43.3453795" lon="13.0448053"><ele>802.0</ele><time>2026-04-26T11:16:15.278Z</time></trkpt><trkpt lat="43.3452883" lon="13.0448217"><ele>802.4000000000001</ele><time>2026-04-26T11:16:16.278Z</time></trkpt><trkpt lat="43.3451917" lon="13.04484"><ele>802.8000000000001</ele><time>2026-04-26T11:16:17.278Z</time></trkpt><trkpt lat="43.3450933" lon="13.044855"><ele>803.2</ele><time>2026-04-26T11:16:18.278Z</time></trkpt><trkpt lat="43.3449917" lon="13.0448833"><ele>803.6</ele><time>2026-04-26T11:16:19.278Z</time></trkpt><trkpt lat="43.3448967" lon="13.04492"><ele>804.0</ele><time>2026-04-26T11:16:20.278Z</time></trkpt><trkpt lat="43.3447983" lon="13.0449833"><ele>799.8000000000001</ele><time>2026-04-26T11:16:21.279Z</time></trkpt><trkpt lat="43.3447033" lon="13.04504"><ele>795.6</ele><time>2026-04-26T11:16:22.278Z</time></trkpt><trkpt lat="43.34461" lon="13.0450933"><ele>791.4</ele><time>2026-04-26T11:16:23.278Z</time></trkpt><trkpt lat="43.3445167" lon="13.045145"><ele>787.2</ele><time>2026-04-26T11:16:24.278Z</time></trkpt><trkpt lat="43.3444267" lon="13.0451783"><ele>783.0</ele><time>2026-04-26T11:16:25.279Z</time></trkpt><trkpt lat="43.344345" lon="13.04521"><ele>783.0</ele><time>2026-04-26T11:16:26.278Z</time></trkpt><trkpt lat="43.344255" lon="13.045245"><ele>783.0</ele><time>2026-04-26T11:16:27.278Z</time></trkpt><trkpt lat="43.3441733" lon="13.0452717"><ele>783.0</ele><time>2026-04-26T11:16:28.278Z</time></trkpt><trkpt lat="43.3440833" lon="13.0453017"><ele>783.0</ele><time>2026-04-26T11:16:29.278Z</time></trkpt><trkpt lat="43.344" lon="13.04531"><ele>783.0</ele><time>2026-04-26T11:16:30.278Z</time></trkpt><trkpt lat="43.343915" lon="13.0452983"><ele>783.0</ele><time>2026-04-26T11:16:31.278Z</time></trkpt><trkpt lat="43.3438217" lon="13.04527"><ele>782.2</ele><time>2026-04-26T11:16:32.278Z</time></trkpt><trkpt lat="43.3437383" lon="13.0452417"><ele>781.4</ele><time>2026-04-26T11:16:33.278Z</time></trkpt><trkpt lat="43.34364" lon="13.0452033"><ele>780.6</ele><time>2026-04-26T11:16:34.278Z</time></trkpt><trkpt lat="43.343545" lon="13.0451583"><ele>779.8000000000001</ele><time>2026-04-26T11:16:35.278Z</time></trkpt><trkpt lat="43.34345" lon="13.04511"><ele>779.0</ele><time>2026-04-26T11:16:36.278Z</time></trkpt><trkpt lat="43.34336" lon="13.0450967"><ele>779.0</ele><time>2026-04-26T11:16:37.279Z</time></trkpt><trkpt lat="43.3432683" lon="13.04511"><ele>779.0</ele><time>2026-04-26T11:16:38.278Z</time></trkpt><trkpt lat="43.34318" lon="13.04511"><ele>779.0</ele><time>2026-04-26T11:16:39.278Z</time></trkpt><trkpt lat="43.3430967" lon="13.0451217"><ele>779.0</ele><time>2026-04-26T11:16:40.279Z</time></trkpt><trkpt lat="43.3430017" lon="13.0451333"><ele>779.0</ele><time>2026-04-26T11:16:41.278Z</time></trkpt><trkpt lat="43.3429017" lon="13.045135"><ele>780.1666666666667</ele><time>2026-04-26T11:16:42.278Z</time></trkpt><trkpt lat="43.3428033" lon="13.0451267"><ele>781.3333333333334</ele><time>2026-04-26T11:16:43.278Z</time></trkpt><trkpt lat="43.3427117" lon="13.045125"><ele>782.5</ele><time>2026-04-26T11:16:44.278Z</time></trkpt><trkpt lat="43.3426233" lon="13.045135"><ele>783.6666666666667</ele><time>2026-04-26T11:16:45.278Z</time></trkpt><trkpt lat="43.3425433" lon="13.0451633"><ele>784.8333333333334</ele><time>2026-04-26T11:16:46.278Z</time></trkpt><trkpt lat="43.34247" lon="13.0452283"><ele>786.0</ele><time>2026-04-26T11:16:47.278Z</time></trkpt><trkpt lat="43.3423967" lon="13.0453"><ele>786.0</ele><time>2026-04-26T11:16:48.278Z</time></trkpt><trkpt lat="43.3423317" lon="13.0453783"><ele>786.0</ele><time>2026-04-26T11:16:49.278Z</time></trkpt><trkpt lat="43.34226" lon="13.045445"><ele>786.0</ele><time>2026-04-26T11:16:50.279Z</time></trkpt><trkpt lat="43.34219" lon="13.0454933"><ele>786.0</ele><time>2026-04-26T11:16:51.278Z</time></trkpt><trkpt lat="43.342105" lon="13.04553"><ele>786.0</ele><time>2026-04-26T11:16:52.278Z</time></trkpt><trkpt lat="43.34201" lon="13.0455533"><ele>786.0</ele><time>2026-04-26T11:16:53.278Z</time></trkpt><trkpt lat="43.3418917" lon="13.04555"><ele>791.5</ele><time>2026-04-26T11:16:54.278Z</time></trkpt><trkpt lat="43.3417717" lon="13.0455433"><ele>797.0</ele><time>2026-04-26T11:16:55.278Z</time></trkpt><trkpt lat="43.3416483" lon="13.0455467"><ele>802.5</ele><time>2026-04-26T11:16:56.278Z</time></trkpt><trkpt lat="43.3415267" lon="13.0455533"><ele>808.0</ele><time>2026-04-26T11:16:57.278Z</time></trkpt><trkpt lat="43.3414133" lon="13.0455633"><ele>813.5</ele><time>2026-04-26T11:16:58.279Z</time></trkpt><trkpt lat="43.3413017" lon="13.04559"><ele>819.0</ele><time>2026-04-26T11:16:59.278Z</time></trkpt><trkpt lat="43.3412" lon="13.0456283"><ele>824.5</ele><time>2026-04-26T11:17:00.278Z</time></trkpt><trkpt lat="43.3411" lon="13.0456917"><ele>830.0</ele><time>2026-04-26T11:17:01.278Z</time></trkpt><trkpt lat="43.3409967" lon="13.04578"><ele>822.25</ele><time>2026-04-26T11:17:02.278Z</time></trkpt><trkpt lat="43.3408967" lon="13.0458717"><ele>814.5</ele><time>2026-04-26T11:17:03.278Z</time></trkpt><trkpt lat="43.3407967" lon="13.0459567"><ele>806.75</ele><time>2026-04-26T11:17:04.279Z</time></trkpt><trkpt lat="43.3406933" lon="13.046045"><ele>799.0</ele><time>2026-04-26T11:17:05.278Z</time></trkpt><trkpt lat="43.3405767" lon="13.0461283"><ele>806.5</ele><time>2026-04-26T11:17:06.279Z</time></trkpt><trkpt lat="43.340475" lon="13.0462183"><ele>814.0</ele><time>2026-04-26T11:17:07.278Z</time></trkpt><trkpt lat="43.3403717" lon="13.0463017"><ele>821.5</ele><time>2026-04-26T11:17:08.278Z</time></trkpt><trkpt lat="43.3402667" lon="13.0463767"><ele>829.0</ele><time>2026-04-26T11:17:09.278Z</time></trkpt><trkpt lat="43.3401617" lon="13.0464467"><ele>829.0</ele><time>2026-04-26T11:17:10.278Z</time></trkpt><trkpt lat="43.34005" lon="13.0465117"><ele>829.0</ele><time>2026-04-26T11:17:11.279Z</time></trkpt><trkpt lat="43.3399417" lon="13.046595"><ele>829.0</ele><time>2026-04-26T11:17:12.278Z</time></trkpt><trkpt lat="43.3398283" lon="13.0466683"><ele>829.0</ele><time>2026-04-26T11:17:13.278Z</time></trkpt><trkpt lat="43.3397217" lon="13.046765"><ele>827.25</ele><time>2026-04-26T11:17:14.278Z</time></trkpt><trkpt lat="43.3396167" lon="13.0468417"><ele>825.5</ele><time>2026-04-26T11:17:15.278Z</time></trkpt><trkpt lat="43.3395067" lon="13.046925"><ele>823.75</ele><time>2026-04-26T11:17:16.279Z</time></trkpt><trkpt lat="43.33939" lon="13.0470167"><ele>822.0</ele><time>2026-04-26T11:17:17.278Z</time></trkpt><trkpt lat="43.3392683" lon="13.0471083"><ele>822.0</ele><time>2026-04-26T11:17:18.278Z</time></trkpt><trkpt lat="43.3391417" lon="13.0472167"><ele>822.0</ele><time>2026-04-26T11:17:19.279Z</time></trkpt><trkpt lat="43.33902" lon="13.0473083"><ele>822.0</ele><time>2026-04-26T11:17:20.278Z</time></trkpt><trkpt lat="43.3389017" lon="13.0474083"><ele>822.0</ele><time>2026-04-26T11:17:21.279Z</time></trkpt><trkpt lat="43.3387867" lon="13.0474983"><ele>821.25</ele><time>2026-04-26T11:17:22.278Z</time></trkpt><trkpt lat="43.3386733" lon="13.0475833"><ele>820.5</ele><time>2026-04-26T11:17:23.278Z</time></trkpt><trkpt lat="43.33856" lon="13.04767"><ele>819.75</ele><time>2026-04-26T11:17:24.279Z</time></trkpt><trkpt lat="43.33845" lon="13.0477583"><ele>819.0</ele><time>2026-04-26T11:17:25.278Z</time></trkpt><trkpt lat="43.3383467" lon="13.0478267"><ele>819.0</ele><time>2026-04-26T11:17:26.278Z</time></trkpt><trkpt lat="43.3382483" lon="13.0478933"><ele>819.0</ele><time>2026-04-26T11:17:27.278Z</time></trkpt><trkpt lat="43.3381583" lon="13.04795"><ele>819.0</ele><time>2026-04-26T11:17:28.278Z</time></trkpt><trkpt lat="43.3380767" lon="13.04802"><ele>819.0</ele><time>2026-04-26T11:17:29.278Z</time></trkpt><trkpt lat="43.3380083" lon="13.0481033"><ele>819.0</ele><time>2026-04-26T11:17:30.278Z</time></trkpt><trkpt lat="43.337955" lon="13.0481883"><ele>819.5</ele><time>2026-04-26T11:17:31.278Z</time></trkpt><trkpt lat="43.33792" lon="13.0482767"><ele>820.0</ele><time>2026-04-26T11:17:32.278Z</time></trkpt><trkpt lat="43.33792" lon="13.04838"><ele>820.5</ele><time>2026-04-26T11:17:33.278Z</time></trkpt><trkpt lat="43.3379367" lon="13.0484967"><ele>821.0</ele><time>2026-04-26T11:17:34.278Z</time></trkpt><trkpt lat="43.3379667" lon="13.0486183"><ele>821.5</ele><time>2026-04-26T11:17:35.278Z</time></trkpt><trkpt lat="43.338005" lon="13.0487467"><ele>822.0</ele><time>2026-04-26T11:17:36.278Z</time></trkpt><trkpt lat="43.3380617" lon="13.0488583"><ele>818.0</ele><time>2026-04-26T11:17:37.278Z</time></trkpt><trkpt lat="43.3381283" lon="13.0489483"><ele>814.0</ele><time>2026-04-26T11:17:38.278Z</time></trkpt><trkpt lat="43.3382067" lon="13.04901"><ele>810.0</ele><time>2026-04-26T11:17:39.278Z</time></trkpt><trkpt lat="43.3382917" lon="13.0490483"><ele>806.0</ele><time>2026-04-26T11:17:40.278Z</time></trkpt><trkpt lat="43.3383933" lon="13.0490783"><ele>802.0</ele><time>2026-04-26T11:17:41.279Z</time></trkpt><trkpt lat="43.338505" lon="13.0490983"><ele>802.0</ele><time>2026-04-26T11:17:42.278Z</time></trkpt><trkpt lat="43.33863" lon="13.0491083"><ele>802.0</ele><time>2026-04-26T11:17:43.278Z</time></trkpt><trkpt lat="43.338765" lon="13.04912"><ele>802.0</ele><time>2026-04-26T11:17:44.279Z</time></trkpt><trkpt lat="43.3388867" lon="13.0491367"><ele>802.0</ele><time>2026-04-26T11:17:45.278Z</time></trkpt><trkpt lat="43.339015" lon="13.0491533"><ele>804.4000000000001</ele><time>2026-04-26T11:17:46.278Z</time></trkpt><trkpt lat="43.3391283" lon="13.0491867"><ele>806.8000000000001</ele><time>2026-04-26T11:17:47.278Z</time></trkpt><trkpt lat="43.3392383" lon="13.0492017"><ele>809.2</ele><time>2026-04-26T11:17:48.278Z</time></trkpt><trkpt lat="43.33934" lon="13.04921"><ele>811.6</ele><time>2026-04-26T11:17:49.278Z</time></trkpt><trkpt lat="43.3394367" lon="13.049205"><ele>814.0</ele><time>2026-04-26T11:17:50.278Z</time></trkpt><trkpt lat="43.3395283" lon="13.0492083"><ele>814.0</ele><time>2026-04-26T11:17:51.278Z</time></trkpt><trkpt lat="43.339635" lon="13.0491967"><ele>814.0</ele><time>2026-04-26T11:17:52.278Z</time></trkpt><trkpt lat="43.3397533" lon="13.0491767"><ele>814.0</ele><time>2026-04-26T11:17:53.278Z</time></trkpt><trkpt lat="43.3398767" lon="13.049155"><ele>814.0</ele><time>2026-04-26T11:17:54.278Z</time></trkpt><trkpt lat="43.33999" lon="13.049125"><ele>806.0</ele><time>2026-04-26T11:17:55.278Z</time></trkpt><trkpt lat="43.3401" lon="13.0490967"><ele>798.0</ele><time>2026-04-26T11:17:56.278Z</time></trkpt><trkpt lat="43.34021" lon="13.0490717"><ele>790.0</ele><time>2026-04-26T11:17:57.278Z</time></trkpt><trkpt lat="43.340325" lon="13.04904"><ele>782.0</ele><time>2026-04-26T11:17:58.278Z</time></trkpt><trkpt lat="43.3404383" lon="13.0490317"><ele>782.0</ele><time>2026-04-26T11:17:59.278Z</time></trkpt><trkpt lat="43.3405567" lon="13.0490517"><ele>782.0</ele><time>2026-04-26T11:18:00.278Z</time></trkpt><trkpt lat="43.340665" lon="13.0490783"><ele>782.0</ele><time>2026-04-26T11:18:01.278Z</time></trkpt><trkpt lat="43.3407717" lon="13.0491117"><ele>782.0</ele><time>2026-04-26T11:18:02.278Z</time></trkpt><trkpt lat="43.3408767" lon="13.0491583"><ele>782.0</ele><time>2026-04-26T11:18:03.278Z</time></trkpt><trkpt lat="43.3409817" lon="13.0492067"><ele>786.6</ele><time>2026-04-26T11:18:04.278Z</time></trkpt><trkpt lat="43.3410883" lon="13.0492483"><ele>791.2</ele><time>2026-04-26T11:18:05.279Z</time></trkpt><trkpt lat="43.3411883" lon="13.0492883"><ele>795.8</ele><time>2026-04-26T11:18:06.278Z</time></trkpt><trkpt lat="43.341285" lon="13.0493333"><ele>800.4</ele><time>2026-04-26T11:18:07.278Z</time></trkpt><trkpt lat="43.3413717" lon="13.04938"><ele>805.0</ele><time>2026-04-26T11:18:08.278Z</time></trkpt><trkpt lat="43.341455" lon="13.04943"><ele>805.0</ele><time>2026-04-26T11:18:09.278Z</time></trkpt><trkpt lat="43.3415367" lon="13.0494633"><ele>805.0</ele><time>2026-04-26T11:18:10.278Z</time></trkpt><trkpt lat="43.3416167" lon="13.04951"><ele>805.0</ele><time>2026-04-26T11:18:11.278Z</time></trkpt><trkpt lat="43.3417033" lon="13.04956"><ele>805.0</ele><time>2026-04-26T11:18:12.278Z</time></trkpt><trkpt lat="43.3418" lon="13.0496067"><ele>805.0</ele><time>2026-04-26T11:18:13.279Z</time></trkpt><trkpt lat="43.3418983" lon="13.0496633"><ele>805.0</ele><time>2026-04-26T11:18:14.278Z</time></trkpt><trkpt lat="43.3419967" lon="13.049735"><ele>805.0</ele><time>2026-04-26T11:18:15.278Z</time></trkpt><trkpt lat="43.342115" lon="13.0498317"><ele>805.0</ele><time>2026-04-26T11:18:16.278Z</time></trkpt><trkpt lat="43.34224" lon="13.04994"><ele>805.0</ele><time>2026-04-26T11:18:17.278Z</time></trkpt><trkpt lat="43.3423617" lon="13.050025"><ele>810.5</ele><time>2026-04-26T11:18:18.278Z</time></trkpt><trkpt lat="43.3424717" lon="13.050105"><ele>816.0</ele><time>2026-04-26T11:18:19.278Z</time></trkpt><trkpt lat="43.3425783" lon="13.0501917"><ele>821.5</ele><time>2026-04-26T11:18:20.279Z</time></trkpt><trkpt lat="43.3426983" lon="13.05026"><ele>827.0</ele><time>2026-04-26T11:18:21.278Z</time></trkpt><trkpt lat="43.3428283" lon="13.050335"><ele>827.0</ele><time>2026-04-26T11:18:22.278Z</time></trkpt><trkpt lat="43.3429433" lon="13.05041"><ele>827.0</ele><time>2026-04-26T11:18:23.278Z</time></trkpt><trkpt lat="43.3430517" lon="13.0504833"><ele>827.0</ele><time>2026-04-26T11:18:24.278Z</time></trkpt><trkpt lat="43.3431533" lon="13.05057"><ele>827.0</ele><time>2026-04-26T11:18:25.278Z</time></trkpt><trkpt lat="43.34324" lon="13.0506583"><ele>824.0</ele><time>2026-04-26T11:18:26.278Z</time></trkpt><trkpt lat="43.3433367" lon="13.050735"><ele>821.0</ele><time>2026-04-26T11:18:27.279Z</time></trkpt><trkpt lat="43.3434183" lon="13.0508083"><ele>818.0</ele><time>2026-04-26T11:18:28.278Z</time></trkpt><trkpt lat="43.3434967" lon="13.05089"><ele>815.0</ele><time>2026-04-26T11:18:29.279Z</time></trkpt><trkpt lat="43.3435783" lon="13.0509617"><ele>812.0</ele><time>2026-04-26T11:18:30.278Z</time></trkpt><trkpt lat="43.3436483" lon="13.05102"><ele>814.0000000000001</ele><time>2026-04-26T11:18:31.278Z</time></trkpt><trkpt lat="43.34372" lon="13.0510767"><ele>816.0</ele><time>2026-04-26T11:18:32.278Z</time></trkpt><trkpt lat="43.3437917" lon="13.0511283"><ele>818.0</ele><time>2026-04-26T11:18:33.278Z</time></trkpt><trkpt lat="43.343865" lon="13.0511733"><ele>820.0</ele><time>2026-04-26T11:18:34.278Z</time></trkpt><trkpt lat="43.3439417" lon="13.051215"><ele>822.0000000000001</ele><time>2026-04-26T11:18:35.279Z</time></trkpt><trkpt lat="43.344025" lon="13.0512517"><ele>824.0</ele><time>2026-04-26T11:18:36.278Z</time></trkpt><trkpt lat="43.3441267" lon="13.0512783"><ele>824.0</ele><time>2026-04-26T11:18:37.278Z</time></trkpt><trkpt lat="43.344235" lon="13.051295"><ele>824.0</ele><time>2026-04-26T11:18:38.278Z</time></trkpt><trkpt lat="43.344345" lon="13.0513083"><ele>824.0</ele><time>2026-04-26T11:18:39.278Z</time></trkpt><trkpt lat="43.3444567" lon="13.0513167"><ele>824.0</ele><time>2026-04-26T11:18:40.279Z</time></trkpt><trkpt lat="43.344575" lon="13.0513233"><ele>824.0</ele><time>2026-04-26T11:18:41.278Z</time></trkpt><trkpt lat="43.3446983" lon="13.0513517"><ele>824.0</ele><time>2026-04-26T11:18:42.278Z</time></trkpt><trkpt lat="43.344815" lon="13.0513867"><ele>824.0</ele><time>2026-04-26T11:18:43.278Z</time></trkpt><trkpt lat="43.34492" lon="13.051435"><ele>824.0</ele><time>2026-04-26T11:18:44.278Z</time></trkpt><trkpt lat="43.3450267" lon="13.0514767"><ele>822.6</ele><time>2026-04-26T11:18:45.278Z</time></trkpt><trkpt lat="43.34514" lon="13.0515133"><ele>821.2</ele><time>2026-04-26T11:18:46.278Z</time></trkpt><trkpt lat="43.34525" lon="13.0515417"><ele>819.8000000000001</ele><time>2026-04-26T11:18:47.277Z</time></trkpt><trkpt lat="43.3453567" lon="13.0515683"><ele>818.4000000000001</ele><time>2026-04-26T11:18:48.277Z</time></trkpt><trkpt lat="43.3454633" lon="13.051585"><ele>817.0</ele><time>2026-04-26T11:18:49.277Z</time></trkpt><trkpt lat="43.3455717" lon="13.0516067"><ele>820.6</ele><time>2026-04-26T11:18:50.277Z</time></trkpt><trkpt lat="43.3456717" lon="13.0516383"><ele>824.2</ele><time>2026-04-26T11:18:51.277Z</time></trkpt><trkpt lat="43.3457617" lon="13.0516667"><ele>827.8</ele><time>2026-04-26T11:18:52.277Z</time></trkpt><trkpt lat="43.34586" lon="13.0516883"><ele>831.4</ele><time>2026-04-26T11:18:53.278Z</time></trkpt><trkpt lat="43.3459433" lon="13.051715"><ele>835.0</ele><time>2026-04-26T11:18:54.277Z</time></trkpt><trkpt lat="43.3460283" lon="13.0517467"><ele>834.9999999999999</ele><time>2026-04-26T11:18:55.277Z</time></trkpt><trkpt lat="43.346105" lon="13.0517667"><ele>835.0</ele><time>2026-04-26T11:18:56.278Z</time></trkpt><trkpt lat="43.3461767" lon="13.0517867"><ele>835.0</ele><time>2026-04-26T11:18:57.277Z</time></trkpt><trkpt lat="43.3462467" lon="13.0518083"><ele>835.0</ele><time>2026-04-26T11:18:58.277Z</time></trkpt><trkpt lat="43.3463217" lon="13.05183"><ele>834.9999999999999</ele><time>2026-04-26T11:18:59.277Z</time></trkpt><trkpt lat="43.3464" lon="13.0518417"><ele>835.0</ele><time>2026-04-26T11:19:00.278Z</time></trkpt><trkpt lat="43.3464767" lon="13.0518567"><ele>835.8333333333333</ele><time>2026-04-26T11:19:01.277Z</time></trkpt><trkpt lat="43.3465533" lon="13.0518683"><ele>836.6666666666666</ele><time>2026-04-26T11:19:02.277Z</time></trkpt><trkpt lat="43.3466283" lon="13.0518817"><ele>837.5</ele><time>2026-04-26T11:19:03.277Z</time></trkpt><trkpt lat="43.3467033" lon="13.0518983"><ele>838.3333333333333</ele><time>2026-04-26T11:19:04.277Z</time></trkpt><trkpt lat="43.346795" lon="13.05192"><ele>839.1666666666666</ele><time>2026-04-26T11:19:05.278Z</time></trkpt><trkpt lat="43.346905" lon="13.0519417"><ele>840.0</ele><time>2026-04-26T11:19:06.277Z</time></trkpt><trkpt lat="43.3470167" lon="13.0519717"><ele>840.0</ele><time>2026-04-26T11:19:07.277Z</time></trkpt><trkpt lat="43.3471317" lon="13.052"><ele>840.0</ele><time>2026-04-26T11:19:08.277Z</time></trkpt><trkpt lat="43.3472583" lon="13.05203"><ele>840.0</ele><time>2026-04-26T11:19:09.277Z</time></trkpt><trkpt lat="43.3473833" lon="13.0520617"><ele>840.0</ele><time>2026-04-26T11:19:10.277Z</time></trkpt><trkpt lat="43.3475133" lon="13.0520983"><ele>838.25</ele><time>2026-04-26T11:19:11.277Z</time></trkpt><trkpt lat="43.3476467" lon="13.0521267"><ele>836.5</ele><time>2026-04-26T11:19:12.277Z</time></trkpt><trkpt lat="43.3477867" lon="13.05215"><ele>834.75</ele><time>2026-04-26T11:19:13.277Z</time></trkpt><trkpt lat="43.3479283" lon="13.0521767"><ele>833.0</ele><time>2026-04-26T11:19:14.277Z</time></trkpt><trkpt lat="43.348065" lon="13.0522"><ele>832.75</ele><time>2026-04-26T11:19:15.278Z</time></trkpt><trkpt lat="43.3481967" lon="13.0522267"><ele>832.5</ele><time>2026-04-26T11:19:16.277Z</time></trkpt><trkpt lat="43.3483283" lon="13.0522567"><ele>832.25</ele><time>2026-04-26T11:19:17.278Z</time></trkpt><trkpt lat="43.348465" lon="13.0522867"><ele>832.0</ele><time>2026-04-26T11:19:18.278Z</time></trkpt><trkpt lat="43.348605" lon="13.0523167"><ele>832.0</ele><time>2026-04-26T11:19:19.277Z</time></trkpt><trkpt lat="43.3487567" lon="13.0523367"><ele>832.0</ele><time>2026-04-26T11:19:20.277Z</time></trkpt><trkpt lat="43.348895" lon="13.0523517"><ele>832.0</ele><time>2026-04-26T11:19:21.277Z</time></trkpt><trkpt lat="43.3490217" lon="13.0523717"><ele>832.0</ele><time>2026-04-26T11:19:22.277Z</time></trkpt><trkpt lat="43.3491467" lon="13.0523867"><ele>832.75</ele><time>2026-04-26T11:19:23.277Z</time></trkpt><trkpt lat="43.34926" lon="13.05239"><ele>833.5</ele><time>2026-04-26T11:19:24.278Z</time></trkpt><trkpt lat="43.349365" lon="13.0523767"><ele>834.25</ele><time>2026-04-26T11:19:25.277Z</time></trkpt><trkpt lat="43.3494833" lon="13.0523483"><ele>835.0</ele><time>2026-04-26T11:19:26.277Z</time></trkpt><trkpt lat="43.3495983" lon="13.05233"><ele>833.0</ele><time>2026-04-26T11:19:27.277Z</time></trkpt><trkpt lat="43.3497183" lon="13.0523117"><ele>831.0</ele><time>2026-04-26T11:19:28.278Z</time></trkpt><trkpt lat="43.349845" lon="13.0523167"><ele>829.0</ele><time>2026-04-26T11:19:29.277Z</time></trkpt><trkpt lat="43.3499683" lon="13.05234"><ele>827.0</ele><time>2026-04-26T11:19:30.277Z</time></trkpt><trkpt lat="43.3501033" lon="13.0523733"><ele>827.0</ele><time>2026-04-26T11:19:31.277Z</time></trkpt><trkpt lat="43.350235" lon="13.052425"><ele>827.0</ele><time>2026-04-26T11:19:32.277Z</time></trkpt><trkpt lat="43.350365" lon="13.0524867"><ele>827.0</ele><time>2026-04-26T11:19:33.277Z</time></trkpt><trkpt lat="43.3504883" lon="13.052555"><ele>827.0</ele><time>2026-04-26T11:19:34.278Z</time></trkpt><trkpt lat="43.3506167" lon="13.05264"><ele>830.5</ele><time>2026-04-26T11:19:35.277Z</time></trkpt><trkpt lat="43.3507417" lon="13.0527467"><ele>834.0</ele><time>2026-04-26T11:19:36.277Z</time></trkpt><trkpt lat="43.3508633" lon="13.052865"><ele>837.5</ele><time>2026-04-26T11:19:37.277Z</time></trkpt><trkpt lat="43.35098" lon="13.0529767"><ele>841.0</ele><time>2026-04-26T11:19:38.277Z</time></trkpt><trkpt lat="43.35109" lon="13.0530867"><ele>841.0</ele><time>2026-04-26T11:19:39.277Z</time></trkpt><trkpt lat="43.3511917" lon="13.053205"><ele>841.0</ele><time>2026-04-26T11:19:40.277Z</time></trkpt><trkpt lat="43.351295" lon="13.05331"><ele>841.0</ele><time>2026-04-26T11:19:41.277Z</time></trkpt><trkpt lat="43.3513933" lon="13.0534117"><ele>841.0</ele><time>2026-04-26T11:19:42.277Z</time></trkpt><trkpt lat="43.3514783" lon="13.0535083"><ele>843.4</ele><time>2026-04-26T11:19:43.277Z</time></trkpt><trkpt lat="43.3515783" lon="13.0535883"><ele>845.8</ele><time>2026-04-26T11:19:44.277Z</time></trkpt><trkpt lat="43.351675" lon="13.0536483"><ele>848.1999999999999</ele><time>2026-04-26T11:19:45.277Z</time></trkpt><trkpt lat="43.351775" lon="13.05369"><ele>850.5999999999999</ele><time>2026-04-26T11:19:46.277Z</time></trkpt><trkpt lat="43.35188" lon="13.0537267"><ele>853.0</ele><time>2026-04-26T11:19:47.277Z</time></trkpt><trkpt lat="43.3519833" lon="13.053755"><ele>853.0</ele><time>2026-04-26T11:19:48.277Z</time></trkpt><trkpt lat="43.3521" lon="13.05376"><ele>853.0</ele><time>2026-04-26T11:19:49.277Z</time></trkpt><trkpt lat="43.3522217" lon="13.0537717"><ele>853.0</ele><time>2026-04-26T11:19:50.277Z</time></trkpt><trkpt lat="43.352345" lon="13.0537867"><ele>853.0</ele><time>2026-04-26T11:19:51.277Z</time></trkpt><trkpt lat="43.35247" lon="13.05381"><ele>851.25</ele><time>2026-04-26T11:19:52.277Z</time></trkpt><trkpt lat="43.35259" lon="13.053835"><ele>849.5</ele><time>2026-04-26T11:19:53.277Z</time></trkpt><trkpt lat="43.3527117" lon="13.05387"><ele>847.75</ele><time>2026-04-26T11:19:54.277Z</time></trkpt><trkpt lat="43.3528283" lon="13.0539117"><ele>846.0</ele><time>2026-04-26T11:19:55.277Z</time></trkpt><trkpt lat="43.3529433" lon="13.0539633"><ele>842.75</ele><time>2026-04-26T11:19:56.277Z</time></trkpt><trkpt lat="43.35305" lon="13.05402"><ele>839.5</ele><time>2026-04-26T11:19:57.277Z</time></trkpt><trkpt lat="43.3531567" lon="13.054085"><ele>836.25</ele><time>2026-04-26T11:19:58.277Z</time></trkpt><trkpt lat="43.3532583" lon="13.054155"><ele>833.0</ele><time>2026-04-26T11:19:59.277Z</time></trkpt><trkpt lat="43.353355" lon="13.0542317"><ele>839.5999999999999</ele><time>2026-04-26T11:20:00.277Z</time></trkpt><trkpt lat="43.3534433" lon="13.05432"><ele>846.1999999999999</ele><time>2026-04-26T11:20:01.277Z</time></trkpt><trkpt lat="43.3535267" lon="13.0544133"><ele>852.8</ele><time>2026-04-26T11:20:02.277Z</time></trkpt><trkpt lat="43.3535983" lon="13.05452"><ele>859.4</ele><time>2026-04-26T11:20:03.278Z</time></trkpt><trkpt lat="43.353675" lon="13.0546333"><ele>866.0</ele><time>2026-04-26T11:20:04.278Z</time></trkpt><trkpt lat="43.3537417" lon="13.054755"><ele>866.0</ele><time>2026-04-26T11:20:05.277Z</time></trkpt><trkpt lat="43.35381" lon="13.0549067"><ele>866.0</ele><time>2026-04-26T11:20:06.277Z</time></trkpt><trkpt lat="43.3538783" lon="13.055045"><ele>866.0</ele><time>2026-04-26T11:20:07.277Z</time></trkpt><trkpt lat="43.3539383" lon="13.0551867"><ele>866.0</ele><time>2026-04-26T11:20:08.277Z</time></trkpt><trkpt lat="43.3539917" lon="13.0553067"><ele>866.1999999999999</ele><time>2026-04-26T11:20:09.278Z</time></trkpt><trkpt lat="43.3540467" lon="13.0554267"><ele>866.3999999999999</ele><time>2026-04-26T11:20:10.277Z</time></trkpt><trkpt lat="43.354105" lon="13.05553"><ele>866.6</ele><time>2026-04-26T11:20:11.277Z</time></trkpt><trkpt lat="43.35416" lon="13.0556533"><ele>866.8</ele><time>2026-04-26T11:20:12.277Z</time></trkpt><trkpt lat="43.3542183" lon="13.05577"><ele>867.0</ele><time>2026-04-26T11:20:13.277Z</time></trkpt><trkpt lat="43.3542733" lon="13.0558917"><ele>872.5</ele><time>2026-04-26T11:20:14.277Z</time></trkpt><trkpt lat="43.3543417" lon="13.0560167"><ele>878.0</ele><time>2026-04-26T11:20:15.277Z</time></trkpt><trkpt lat="43.3544133" lon="13.0561467"><ele>883.5</ele><time>2026-04-26T11:20:16.277Z</time></trkpt><trkpt lat="43.3544917" lon="13.0562933"><ele>889.0</ele><time>2026-04-26T11:20:17.277Z</time></trkpt><trkpt lat="43.3545717" lon="13.0564517"><ele>890.3333333333333</ele><time>2026-04-26T11:20:18.277Z</time></trkpt><trkpt lat="43.3546617" lon="13.0566217"><ele>891.6666666666667</ele><time>2026-04-26T11:20:19.277Z</time></trkpt><trkpt lat="43.3547467" lon="13.0567933"><ele>893.0</ele><time>2026-04-26T11:20:20.277Z</time></trkpt><trkpt lat="43.3548333" lon="13.0569667"><ele>889.75</ele><time>2026-04-26T11:20:21.278Z</time></trkpt><trkpt lat="43.354915" lon="13.0571317"><ele>886.5</ele><time>2026-04-26T11:20:22.277Z</time></trkpt><trkpt lat="43.35499" lon="13.05727"><ele>883.25</ele><time>2026-04-26T11:20:23.277Z</time></trkpt><trkpt lat="43.3550583" lon="13.0573967"><ele>880.0</ele><time>2026-04-26T11:20:24.277Z</time></trkpt><trkpt lat="43.3551183" lon="13.0575083"><ele>880.0</ele><time>2026-04-26T11:20:25.277Z</time></trkpt><trkpt lat="43.3551583" lon="13.0576067"><ele>880.0</ele><time>2026-04-26T11:20:26.277Z</time></trkpt><trkpt lat="43.35518" lon="13.0577"><ele>880.0</ele><time>2026-04-26T11:20:27.277Z</time></trkpt><trkpt lat="43.35516" lon="13.05786"><ele>880.0</ele><time>2026-04-26T11:20:29.277Z</time></trkpt><trkpt lat="43.3550633" lon="13.0579867"><ele>880.0</ele><time>2026-04-26T11:20:31.277Z</time></trkpt><trkpt lat="43.3549817" lon="13.0580633"><ele>880.0</ele><time>2026-04-26T11:20:32.277Z</time></trkpt><trkpt lat="43.354875" lon="13.0581583"><ele>880.0</ele><time>2026-04-26T11:20:33.277Z</time></trkpt><trkpt lat="43.3547583" lon="13.0582633"><ele>880.0</ele><time>2026-04-26T11:20:34.277Z</time></trkpt><trkpt lat="43.3546383" lon="13.0583717"><ele>880.0</ele><time>2026-04-26T11:20:35.277Z</time></trkpt><trkpt lat="43.3545117" lon="13.05849"><ele>883.5</ele><time>2026-04-26T11:20:36.277Z</time></trkpt><trkpt lat="43.3543933" lon="13.0585983"><ele>887.0</ele><time>2026-04-26T11:20:37.277Z</time></trkpt><trkpt lat="43.35428" lon="13.0586983"><ele>890.5</ele><time>2026-04-26T11:20:38.277Z</time></trkpt><trkpt lat="43.3541767" lon="13.058805"><ele>894.0</ele><time>2026-04-26T11:20:39.277Z</time></trkpt><trkpt lat="43.3540733" lon="13.0589067"><ele>894.0</ele><time>2026-04-26T11:20:40.277Z</time></trkpt><trkpt lat="43.3539683" lon="13.0590067"><ele>894.0</ele><time>2026-04-26T11:20:41.277Z</time></trkpt><trkpt lat="43.353865" lon="13.0591133"><ele>894.0</ele><time>2026-04-26T11:20:42.277Z</time></trkpt><trkpt lat="43.35375" lon="13.0592183"><ele>894.0</ele><time>2026-04-26T11:20:43.277Z</time></trkpt><trkpt lat="43.353635" lon="13.0593167"><ele>896.75</ele><time>2026-04-26T11:20:44.277Z</time></trkpt><trkpt lat="43.35353" lon="13.05941"><ele>899.5</ele><time>2026-04-26T11:20:45.277Z</time></trkpt><trkpt lat="43.35343" lon="13.059505"><ele>902.25</ele><time>2026-04-26T11:20:46.278Z</time></trkpt><trkpt lat="43.3533483" lon="13.0596017"><ele>905.0</ele><time>2026-04-26T11:20:47.277Z</time></trkpt><trkpt lat="43.3532733" lon="13.05974"><ele>905.0</ele><time>2026-04-26T11:20:48.277Z</time></trkpt><trkpt lat="43.3532033" lon="13.05991"><ele>905.0</ele><time>2026-04-26T11:20:49.277Z</time></trkpt><trkpt lat="43.35315" lon="13.06011"><ele>905.0</ele><time>2026-04-26T11:20:50.277Z</time></trkpt><trkpt lat="43.3531" lon="13.06031"><ele>904.25</ele><time>2026-04-26T11:20:51.277Z</time></trkpt><trkpt lat="43.35305" lon="13.0605017"><ele>903.5</ele><time>2026-04-26T11:20:52.277Z</time></trkpt><trkpt lat="43.353" lon="13.0606883"><ele>902.75</ele><time>2026-04-26T11:20:53.277Z</time></trkpt><trkpt lat="43.3529533" lon="13.0608717"><ele>902.0</ele><time>2026-04-26T11:20:54.277Z</time></trkpt><trkpt lat="43.3529067" lon="13.0610433"><ele>904.25</ele><time>2026-04-26T11:20:55.277Z</time></trkpt><trkpt lat="43.3528583" lon="13.0612067"><ele>906.5</ele><time>2026-04-26T11:20:56.277Z</time></trkpt><trkpt lat="43.3528117" lon="13.061375"><ele>908.75</ele><time>2026-04-26T11:20:57.277Z</time></trkpt><trkpt lat="43.3527633" lon="13.061535"><ele>911.0</ele><time>2026-04-26T11:20:58.277Z</time></trkpt><trkpt lat="43.3527167" lon="13.061695"><ele>911.0</ele><time>2026-04-26T11:20:59.277Z</time></trkpt><trkpt lat="43.3526667" lon="13.0618517"><ele>911.0</ele><time>2026-04-26T11:21:00.277Z</time></trkpt><trkpt lat="43.3526167" lon="13.06201"><ele>911.0</ele><time>2026-04-26T11:21:01.277Z</time></trkpt><trkpt lat="43.3525667" lon="13.0621783"><ele>911.0</ele><time>2026-04-26T11:21:02.277Z</time></trkpt><trkpt lat="43.3525167" lon="13.0623433"><ele>909.75</ele><time>2026-04-26T11:21:03.277Z</time></trkpt><trkpt lat="43.3524717" lon="13.0625033"><ele>908.5</ele><time>2026-04-26T11:21:04.277Z</time></trkpt><trkpt lat="43.35243" lon="13.0626583"><ele>907.25</ele><time>2026-04-26T11:21:05.278Z</time></trkpt><trkpt lat="43.35239" lon="13.06281"><ele>906.0</ele><time>2026-04-26T11:21:06.277Z</time></trkpt><trkpt lat="43.3523533" lon="13.0629633"><ele>906.0</ele><time>2026-04-26T11:21:07.277Z</time></trkpt><trkpt lat="43.35232" lon="13.063125"><ele>906.0</ele><time>2026-04-26T11:21:08.277Z</time></trkpt><trkpt lat="43.3522817" lon="13.0632883"><ele>906.0</ele><time>2026-04-26T11:21:09.277Z</time></trkpt><trkpt lat="43.35224" lon="13.0634517"><ele>906.0</ele><time>2026-04-26T11:21:10.277Z</time></trkpt><trkpt lat="43.3521967" lon="13.0636133"><ele>908.75</ele><time>2026-04-26T11:21:11.277Z</time></trkpt><trkpt lat="43.3521483" lon="13.0637733"><ele>911.5</ele><time>2026-04-26T11:21:12.277Z</time></trkpt><trkpt lat="43.3521017" lon="13.063925"><ele>914.25</ele><time>2026-04-26T11:21:13.277Z</time></trkpt><trkpt lat="43.3520517" lon="13.0640733"><ele>917.0</ele><time>2026-04-26T11:21:14.277Z</time></trkpt><trkpt lat="43.3519917" lon="13.06421"><ele>917.0</ele><time>2026-04-26T11:21:15.278Z</time></trkpt><trkpt lat="43.351925" lon="13.0643433"><ele>917.0</ele><time>2026-04-26T11:21:16.277Z</time></trkpt><trkpt lat="43.3518467" lon="13.0644733"><ele>917.0</ele><time>2026-04-26T11:21:17.277Z</time></trkpt><trkpt lat="43.3517717" lon="13.0646"><ele>917.0</ele><time>2026-04-26T11:21:18.277Z</time></trkpt><trkpt lat="43.351685" lon="13.064715"><ele>917.0</ele><time>2026-04-26T11:21:19.277Z</time></trkpt><trkpt lat="43.3516017" lon="13.064825"><ele>917.0</ele><time>2026-04-26T11:21:20.277Z</time></trkpt><trkpt lat="43.3515067" lon="13.0649267"><ele>917.0</ele><time>2026-04-26T11:21:21.277Z</time></trkpt><trkpt lat="43.3514033" lon="13.0650217"><ele>917.0</ele><time>2026-04-26T11:21:22.277Z</time></trkpt><trkpt lat="43.3513" lon="13.0651133"><ele>918.75</ele><time>2026-04-26T11:21:23.278Z</time></trkpt><trkpt lat="43.3511883" lon="13.0651983"><ele>920.5</ele><time>2026-04-26T11:21:24.277Z</time></trkpt><trkpt lat="43.3510733" lon="13.0652867"><ele>922.25</ele><time>2026-04-26T11:21:25.277Z</time></trkpt><trkpt lat="43.3509567" lon="13.0653617"><ele>924.0</ele><time>2026-04-26T11:21:26.278Z</time></trkpt><trkpt lat="43.35085" lon="13.0654383"><ele>924.0</ele><time>2026-04-26T11:21:27.277Z</time></trkpt><trkpt lat="43.3507467" lon="13.0655"><ele>924.0</ele><time>2026-04-26T11:21:28.277Z</time></trkpt><trkpt lat="43.3506383" lon="13.0655583"><ele>924.0</ele><time>2026-04-26T11:21:29.277Z</time></trkpt><trkpt lat="43.35053" lon="13.0656217"><ele>924.0</ele><time>2026-04-26T11:21:30.277Z</time></trkpt><trkpt lat="43.3504133" lon="13.0656867"><ele>922.75</ele><time>2026-04-26T11:21:31.277Z</time></trkpt><trkpt lat="43.35029" lon="13.0657533"><ele>921.5</ele><time>2026-04-26T11:21:32.278Z</time></trkpt><trkpt lat="43.3501617" lon="13.06582"><ele>920.25</ele><time>2026-04-26T11:21:33.277Z</time></trkpt><trkpt lat="43.3500333" lon="13.06588"><ele>919.0</ele><time>2026-04-26T11:21:34.277Z</time></trkpt><trkpt lat="43.3499033" lon="13.065935"><ele>919.0</ele><time>2026-04-26T11:21:35.277Z</time></trkpt><trkpt lat="43.349765" lon="13.06598"><ele>919.0</ele><time>2026-04-26T11:21:36.277Z</time></trkpt><trkpt lat="43.349635" lon="13.06601"><ele>919.0</ele><time>2026-04-26T11:21:37.277Z</time></trkpt><trkpt lat="43.3495183" lon="13.06603"><ele>919.0</ele><time>2026-04-26T11:21:38.277Z</time></trkpt><trkpt lat="43.3494067" lon="13.06605"><ele>920.25</ele><time>2026-04-26T11:21:39.277Z</time></trkpt><trkpt lat="43.349295" lon="13.0660667"><ele>921.5</ele><time>2026-04-26T11:21:40.277Z</time></trkpt><trkpt lat="43.349175" lon="13.0661067"><ele>922.75</ele><time>2026-04-26T11:21:41.278Z</time></trkpt><trkpt lat="43.34906" lon="13.06615"><ele>924.0</ele><time>2026-04-26T11:21:42.277Z</time></trkpt><trkpt lat="43.3489417" lon="13.0661883"><ele>924.2</ele><time>2026-04-26T11:21:43.277Z</time></trkpt><trkpt lat="43.3488233" lon="13.0662167"><ele>924.4000000000001</ele><time>2026-04-26T11:21:44.277Z</time></trkpt><trkpt lat="43.3487133" lon="13.06623"><ele>924.6</ele><time>2026-04-26T11:21:45.277Z</time></trkpt><trkpt lat="43.34861" lon="13.0662283"><ele>924.8</ele><time>2026-04-26T11:21:46.277Z</time></trkpt><trkpt lat="43.3485167" lon="13.0662233"><ele>925.0</ele><time>2026-04-26T11:21:47.277Z</time></trkpt><trkpt lat="43.3484217" lon="13.0662117"><ele>925.0</ele><time>2026-04-26T11:21:48.277Z</time></trkpt><trkpt lat="43.3483267" lon="13.06619"><ele>925.0</ele><time>2026-04-26T11:21:49.277Z</time></trkpt><trkpt lat="43.34823" lon="13.06614"><ele>925.0</ele><time>2026-04-26T11:21:50.277Z</time></trkpt><trkpt lat="43.3481317" lon="13.0660667"><ele>925.0</ele><time>2026-04-26T11:21:51.277Z</time></trkpt><trkpt lat="43.3480367" lon="13.065965"><ele>925.0</ele><time>2026-04-26T11:21:52.277Z</time></trkpt><trkpt lat="43.3479467" lon="13.0658617"><ele>926.0</ele><time>2026-04-26T11:21:53.277Z</time></trkpt><trkpt lat="43.3478617" lon="13.0657433"><ele>927.0</ele><time>2026-04-26T11:21:54.277Z</time></trkpt><trkpt lat="43.3477817" lon="13.0656167"><ele>928.0</ele><time>2026-04-26T11:21:55.277Z</time></trkpt><trkpt lat="43.3477" lon="13.0654883"><ele>929.0</ele><time>2026-04-26T11:21:56.277Z</time></trkpt><trkpt lat="43.3476217" lon="13.0653567"><ele>929.0</ele><time>2026-04-26T11:21:57.277Z</time></trkpt><trkpt lat="43.34754" lon="13.0652317"><ele>929.0</ele><time>2026-04-26T11:21:58.277Z</time></trkpt><trkpt lat="43.3474567" lon="13.065105"><ele>929.0</ele><time>2026-04-26T11:21:59.277Z</time></trkpt><trkpt lat="43.3473733" lon="13.064975"><ele>929.0</ele><time>2026-04-26T11:22:00.277Z</time></trkpt><trkpt lat="43.3472867" lon="13.06485"><ele>927.75</ele><time>2026-04-26T11:22:01.277Z</time></trkpt><trkpt lat="43.3472" lon="13.0647317"><ele>926.5</ele><time>2026-04-26T11:22:02.277Z</time></trkpt><trkpt lat="43.34711" lon="13.0646067"><ele>925.25</ele><time>2026-04-26T11:22:03.277Z</time></trkpt><trkpt lat="43.3470183" lon="13.0644733"><ele>924.0</ele><time>2026-04-26T11:22:04.278Z</time></trkpt><trkpt lat="43.3469167" lon="13.0643333"><ele>924.0</ele><time>2026-04-26T11:22:05.277Z</time></trkpt><trkpt lat="43.346825" lon="13.0642"><ele>924.0</ele><time>2026-04-26T11:22:06.277Z</time></trkpt><trkpt lat="43.34674" lon="13.06407"><ele>924.0</ele><time>2026-04-26T11:22:07.278Z</time></trkpt><trkpt lat="43.3466517" lon="13.0639483"><ele>924.0</ele><time>2026-04-26T11:22:08.277Z</time></trkpt><trkpt lat="43.346575" lon="13.0638367"><ele>924.0</ele><time>2026-04-26T11:22:09.277Z</time></trkpt><trkpt lat="43.3464917" lon="13.063745"><ele>924.0</ele><time>2026-04-26T11:22:10.277Z</time></trkpt><trkpt lat="43.3464117" lon="13.0636617"><ele>924.0</ele><time>2026-04-26T11:22:11.277Z</time></trkpt><trkpt lat="43.346335" lon="13.0635867"><ele>924.0</ele><time>2026-04-26T11:22:12.277Z</time></trkpt><trkpt lat="43.3462783" lon="13.0635233"><ele>924.0</ele><time>2026-04-26T11:22:13.277Z</time></trkpt><trkpt lat="43.3462233" lon="13.0634683"><ele>924.0</ele><time>2026-04-26T11:22:14.277Z</time></trkpt><trkpt lat="43.3461717" lon="13.06341"><ele>924.0</ele><time>2026-04-26T11:22:15.277Z</time></trkpt><trkpt lat="43.3460783" lon="13.0633333"><ele>924.0000000000001</ele><time>2026-04-26T11:22:17.277Z</time></trkpt><trkpt lat="43.3460033" lon="13.0632783"><ele>924.0000000000001</ele><time>2026-04-26T11:22:20.277Z</time></trkpt><trkpt lat="43.3459483" lon="13.0632217"><ele>924.0</ele><time>2026-04-26T11:22:22.277Z</time></trkpt><trkpt lat="43.3458517" lon="13.0630933"><ele>924.0</ele><time>2026-04-26T11:22:24.277Z</time></trkpt><trkpt lat="43.3457833" lon="13.06299"><ele>922.5</ele><time>2026-04-26T11:22:25.277Z</time></trkpt><trkpt lat="43.3457033" lon="13.062885"><ele>921.0</ele><time>2026-04-26T11:22:26.277Z</time></trkpt><trkpt lat="43.345615" lon="13.0627733"><ele>919.5</ele><time>2026-04-26T11:22:27.277Z</time></trkpt><trkpt lat="43.34553" lon="13.0626717"><ele>918.0</ele><time>2026-04-26T11:22:28.278Z</time></trkpt><trkpt lat="43.3454467" lon="13.0625567"><ele>921.0</ele><time>2026-04-26T11:22:29.277Z</time></trkpt><trkpt lat="43.3453633" lon="13.0624317"><ele>924.0</ele><time>2026-04-26T11:22:30.277Z</time></trkpt><trkpt lat="43.345275" lon="13.0623133"><ele>927.0</ele><time>2026-04-26T11:22:31.277Z</time></trkpt><trkpt lat="43.3451817" lon="13.0621983"><ele>930.0</ele><time>2026-04-26T11:22:32.278Z</time></trkpt><trkpt lat="43.3450917" lon="13.062085"><ele>930.0</ele><time>2026-04-26T11:22:33.277Z</time></trkpt><trkpt lat="43.3449983" lon="13.0619733"><ele>930.0</ele><time>2026-04-26T11:22:34.277Z</time></trkpt><trkpt lat="43.3449067" lon="13.0618617"><ele>930.0</ele><time>2026-04-26T11:22:35.277Z</time></trkpt><trkpt lat="43.3448133" lon="13.061745"><ele>930.0</ele><time>2026-04-26T11:22:36.277Z</time></trkpt><trkpt lat="43.344725" lon="13.061635"><ele>930.75</ele><time>2026-04-26T11:22:37.277Z</time></trkpt><trkpt lat="43.3446383" lon="13.0615183"><ele>931.5</ele><time>2026-04-26T11:22:38.277Z</time></trkpt><trkpt lat="43.344545" lon="13.061405"><ele>932.25</ele><time>2026-04-26T11:22:39.277Z</time></trkpt><trkpt lat="43.3444567" lon="13.06129"><ele>933.0</ele><time>2026-04-26T11:22:40.277Z</time></trkpt><trkpt lat="43.344375" lon="13.06119"><ele>933.0</ele><time>2026-04-26T11:22:41.277Z</time></trkpt><trkpt lat="43.3442833" lon="13.0610983"><ele>933.0</ele><time>2026-04-26T11:22:42.277Z</time></trkpt><trkpt lat="43.3442017" lon="13.061015"><ele>933.0</ele><time>2026-04-26T11:22:43.277Z</time></trkpt><trkpt lat="43.3441217" lon="13.0609433"><ele>933.0</ele><time>2026-04-26T11:22:44.277Z</time></trkpt><trkpt lat="43.3440467" lon="13.0608817"><ele>933.0</ele><time>2026-04-26T11:22:45.277Z</time></trkpt><trkpt lat="43.3439767" lon="13.0608383"><ele>933.0</ele><time>2026-04-26T11:22:46.277Z</time></trkpt><trkpt lat="43.343915" lon="13.0607933"><ele>933.0</ele><time>2026-04-26T11:22:47.278Z</time></trkpt><trkpt lat="43.3438517" lon="13.06077"><ele>933.0</ele><time>2026-04-26T11:22:48.277Z</time></trkpt><trkpt lat="43.34378" lon="13.0607633"><ele>933.0</ele><time>2026-04-26T11:22:49.278Z</time></trkpt><trkpt lat="43.3436983" lon="13.0607783"><ele>933.0</ele><time>2026-04-26T11:22:50.277Z</time></trkpt><trkpt lat="43.343615" lon="13.0607767"><ele>933.0</ele><time>2026-04-26T11:22:51.277Z</time></trkpt><trkpt lat="43.3435233" lon="13.0607783"><ele>933.5999999999999</ele><time>2026-04-26T11:22:52.277Z</time></trkpt><trkpt lat="43.3434267" lon="13.0607683"><ele>934.1999999999999</ele><time>2026-04-26T11:22:53.277Z</time></trkpt><trkpt lat="43.3433167" lon="13.06076"><ele>934.8</ele><time>2026-04-26T11:22:54.277Z</time></trkpt><trkpt lat="43.3432133" lon="13.0607317"><ele>935.4</ele><time>2026-04-26T11:22:55.277Z</time></trkpt><trkpt lat="43.3430983" lon="13.060695"><ele>936.0</ele><time>2026-04-26T11:22:56.277Z</time></trkpt><trkpt lat="43.3429883" lon="13.0606383"><ele>938.0</ele><time>2026-04-26T11:22:57.277Z</time></trkpt><trkpt lat="43.3428767" lon="13.0605683"><ele>940.0</ele><time>2026-04-26T11:22:58.277Z</time></trkpt><trkpt lat="43.34276" lon="13.0604883"><ele>942.0</ele><time>2026-04-26T11:22:59.277Z</time></trkpt><trkpt lat="43.34264" lon="13.0604083"><ele>944.0</ele><time>2026-04-26T11:23:00.277Z</time></trkpt><trkpt lat="43.34252" lon="13.0603283"><ele>944.0</ele><time>2026-04-26T11:23:01.277Z</time></trkpt><trkpt lat="43.34241" lon="13.0602567"><ele>944.0</ele><time>2026-04-26T11:23:02.277Z</time></trkpt><trkpt lat="43.3422933" lon="13.060205"><ele>944.0</ele><time>2026-04-26T11:23:03.278Z</time></trkpt><trkpt lat="43.3421633" lon="13.0601683"><ele>944.0</ele><time>2026-04-26T11:23:04.277Z</time></trkpt><trkpt lat="43.3420167" lon="13.0601633"><ele>947.75</ele><time>2026-04-26T11:23:05.277Z</time></trkpt><trkpt lat="43.3418833" lon="13.060195"><ele>951.5</ele><time>2026-04-26T11:23:06.277Z</time></trkpt><trkpt lat="43.3417617" lon="13.060235"><ele>955.25</ele><time>2026-04-26T11:23:07.277Z</time></trkpt><trkpt lat="43.3416417" lon="13.0603183"><ele>959.0</ele><time>2026-04-26T11:23:08.277Z</time></trkpt><trkpt lat="43.3415233" lon="13.0604333"><ele>959.0</ele><time>2026-04-26T11:23:09.277Z</time></trkpt><trkpt lat="43.3414117" lon="13.0605417"><ele>959.0</ele><time>2026-04-26T11:23:10.277Z</time></trkpt><trkpt lat="43.341315" lon="13.0606383"><ele>959.0</ele><time>2026-04-26T11:23:11.277Z</time></trkpt><trkpt lat="43.3412183" lon="13.0607583"><ele>959.0</ele><time>2026-04-26T11:23:12.277Z</time></trkpt><trkpt lat="43.3411217" lon="13.06087"><ele>962.25</ele><time>2026-04-26T11:23:13.278Z</time></trkpt><trkpt lat="43.3410283" lon="13.0609817"><ele>965.5</ele><time>2026-04-26T11:23:14.277Z</time></trkpt><trkpt lat="43.3409517" lon="13.061145"><ele>968.75</ele><time>2026-04-26T11:23:15.277Z</time></trkpt><trkpt lat="43.3408767" lon="13.0613267"><ele>972.0</ele><time>2026-04-26T11:23:16.278Z</time></trkpt><trkpt lat="43.3407883" lon="13.0615033"><ele>968.0</ele><time>2026-04-26T11:23:17.277Z</time></trkpt><trkpt lat="43.3407033" lon="13.0617"><ele>964.0</ele><time>2026-04-26T11:23:18.277Z</time></trkpt><trkpt lat="43.3406117" lon="13.0618917"><ele>960.0</ele><time>2026-04-26T11:23:19.277Z</time></trkpt><trkpt lat="43.34052" lon="13.0621083"><ele>964.6666666666667</ele><time>2026-04-26T11:23:20.277Z</time></trkpt><trkpt lat="43.3404333" lon="13.0623333"><ele>969.3333333333334</ele><time>2026-04-26T11:23:21.277Z</time></trkpt><trkpt lat="43.3403483" lon="13.06254"><ele>974.0</ele><time>2026-04-26T11:23:22.277Z</time></trkpt><trkpt lat="43.3402717" lon="13.0627483"><ele>974.0</ele><time>2026-04-26T11:23:23.277Z</time></trkpt><trkpt lat="43.3402117" lon="13.0629583"><ele>974.0</ele><time>2026-04-26T11:23:24.277Z</time></trkpt><trkpt lat="43.3401367" lon="13.0631633"><ele>974.0</ele><time>2026-04-26T11:23:25.278Z</time></trkpt><trkpt lat="43.34006" lon="13.0633583"><ele>969.3333333333334</ele><time>2026-04-26T11:23:26.277Z</time></trkpt><trkpt lat="43.3399783" lon="13.0635433"><ele>964.6666666666667</ele><time>2026-04-26T11:23:27.277Z</time></trkpt><trkpt lat="43.33988" lon="13.0637217"><ele>960.0</ele><time>2026-04-26T11:23:28.277Z</time></trkpt><trkpt lat="43.339775" lon="13.063885"><ele>966.0</ele><time>2026-04-26T11:23:29.277Z</time></trkpt><trkpt lat="43.3396767" lon="13.0640567"><ele>972.0</ele><time>2026-04-26T11:23:30.278Z</time></trkpt><trkpt lat="43.33958" lon="13.06423"><ele>978.0</ele><time>2026-04-26T11:23:31.277Z</time></trkpt><trkpt lat="43.3394867" lon="13.0644017"><ele>978.0</ele><time>2026-04-26T11:23:32.277Z</time></trkpt><trkpt lat="43.3393917" lon="13.0645667"><ele>978.0</ele><time>2026-04-26T11:23:33.277Z</time></trkpt><trkpt lat="43.33929" lon="13.0647333"><ele>978.0</ele><time>2026-04-26T11:23:34.277Z</time></trkpt><trkpt lat="43.3391817" lon="13.064895"><ele>982.0</ele><time>2026-04-26T11:23:35.277Z</time></trkpt><trkpt lat="43.339065" lon="13.0650617"><ele>986.0</ele><time>2026-04-26T11:23:36.277Z</time></trkpt><trkpt lat="43.3389417" lon="13.0652267"><ele>990.0</ele><time>2026-04-26T11:23:37.277Z</time></trkpt><trkpt lat="43.338825" lon="13.0654017"><ele>990.0</ele><time>2026-04-26T11:23:38.277Z</time></trkpt><trkpt lat="43.3387133" lon="13.0655533"><ele>990.0</ele><time>2026-04-26T11:23:39.277Z</time></trkpt><trkpt lat="43.3386183" lon="13.0656817"><ele>990.0</ele><time>2026-04-26T11:23:40.277Z</time></trkpt><trkpt lat="43.3385367" lon="13.06578"><ele>990.0</ele><time>2026-04-26T11:23:41.277Z</time></trkpt><trkpt lat="43.338465" lon="13.06586"><ele>986.4</ele><time>2026-04-26T11:23:42.277Z</time></trkpt><trkpt lat="43.3384" lon="13.0659117"><ele>982.8</ele><time>2026-04-26T11:23:43.277Z</time></trkpt><trkpt lat="43.3382917" lon="13.0659533"><ele>979.2</ele><time>2026-04-26T11:23:45.277Z</time></trkpt><trkpt lat="43.3381883" lon="13.0659867"><ele>975.6</ele><time>2026-04-26T11:23:47.277Z</time></trkpt><trkpt lat="43.3381083" lon="13.0661017"><ele>972.0</ele><time>2026-04-26T11:23:49.277Z</time></trkpt><trkpt lat="43.3380683" lon="13.0661917"><ele>979.0</ele><time>2026-04-26T11:23:50.277Z</time></trkpt><trkpt lat="43.338035" lon="13.0663"><ele>986.0</ele><time>2026-04-26T11:23:51.277Z</time></trkpt><trkpt lat="43.3380017" lon="13.0664117"><ele>993.0</ele><time>2026-04-26T11:23:52.277Z</time></trkpt><trkpt lat="43.3379717" lon="13.0665317"><ele>1000.0</ele><time>2026-04-26T11:23:53.277Z</time></trkpt><trkpt lat="43.3379517" lon="13.0666567"><ele>1007.0</ele><time>2026-04-26T11:23:54.277Z</time></trkpt><trkpt lat="43.3379417" lon="13.0667867"><ele>1007.0</ele><time>2026-04-26T11:23:55.278Z</time></trkpt><trkpt lat="43.3379483" lon="13.0669183"><ele>1007.0</ele><time>2026-04-26T11:23:56.277Z</time></trkpt><trkpt lat="43.3379567" lon="13.0670533"><ele>1007.0</ele><time>2026-04-26T11:23:57.277Z</time></trkpt><trkpt lat="43.3379733" lon="13.067185"><ele>1007.0</ele><time>2026-04-26T11:23:58.277Z</time></trkpt><trkpt lat="43.3380017" lon="13.0673283"><ele>1007.0</ele><time>2026-04-26T11:23:59.277Z</time></trkpt><trkpt lat="43.3380167" lon="13.0674633"><ele>1007.6</ele><time>2026-04-26T11:24:00.277Z</time></trkpt><trkpt lat="43.3380367" lon="13.06761"><ele>1008.2</ele><time>2026-04-26T11:24:01.277Z</time></trkpt><trkpt lat="43.338065" lon="13.0677467"><ele>1008.8</ele><time>2026-04-26T11:24:02.277Z</time></trkpt><trkpt lat="43.33811" lon="13.0678783"><ele>1009.4</ele><time>2026-04-26T11:24:03.277Z</time></trkpt><trkpt lat="43.338155" lon="13.0680067"><ele>1010.0</ele><time>2026-04-26T11:24:04.277Z</time></trkpt><trkpt lat="43.3381967" lon="13.0681233"><ele>999.6</ele><time>2026-04-26T11:24:05.277Z</time></trkpt><trkpt lat="43.3382317" lon="13.0682433"><ele>989.2</ele><time>2026-04-26T11:24:06.277Z</time></trkpt><trkpt lat="43.3382883" lon="13.0683683"><ele>978.8</ele><time>2026-04-26T11:24:07.278Z</time></trkpt><trkpt lat="43.3383367" lon="13.0684933"><ele>968.4</ele><time>2026-04-26T11:24:08.277Z</time></trkpt><trkpt lat="43.3383767" lon="13.0686183"><ele>958.0</ele><time>2026-04-26T11:24:09.277Z</time></trkpt><trkpt lat="43.3383933" lon="13.0687367"><ele>957.9999999999999</ele><time>2026-04-26T11:24:10.277Z</time></trkpt><trkpt lat="43.3384167" lon="13.0688583"><ele>958.0</ele><time>2026-04-26T11:24:11.277Z</time></trkpt><trkpt lat="43.3384367" lon="13.0689817"><ele>958.0</ele><time>2026-04-26T11:24:12.277Z</time></trkpt><trkpt lat="43.3384483" lon="13.069095"><ele>958.0</ele><time>2026-04-26T11:24:13.277Z</time></trkpt><trkpt lat="43.3384767" lon="13.069205"><ele>957.9999999999999</ele><time>2026-04-26T11:24:14.277Z</time></trkpt><trkpt lat="43.3385167" lon="13.0693133"><ele>958.0</ele><time>2026-04-26T11:24:15.277Z</time></trkpt><trkpt lat="43.3385733" lon="13.069405"><ele>960.75</ele><time>2026-04-26T11:24:16.277Z</time></trkpt><trkpt lat="43.3386667" lon="13.0694933"><ele>963.5</ele><time>2026-04-26T11:24:17.277Z</time></trkpt><trkpt lat="43.3387467" lon="13.069575"><ele>966.25</ele><time>2026-04-26T11:24:18.277Z</time></trkpt><trkpt lat="43.3388567" lon="13.06964"><ele>969.0</ele><time>2026-04-26T11:24:19.277Z</time></trkpt><trkpt lat="43.3389633" lon="13.0697067"><ele>963.2</ele><time>2026-04-26T11:24:20.277Z</time></trkpt><trkpt lat="43.3390683" lon="13.069775"><ele>957.4000000000001</ele><time>2026-04-26T11:24:21.277Z</time></trkpt><trkpt lat="43.33917" lon="13.0698317"><ele>951.6</ele><time>2026-04-26T11:24:22.277Z</time></trkpt><trkpt lat="43.3392567" lon="13.0698783"><ele>945.8</ele><time>2026-04-26T11:24:23.277Z</time></trkpt><trkpt lat="43.3393383" lon="13.06993"><ele>940.0</ele><time>2026-04-26T11:24:24.277Z</time></trkpt><trkpt lat="43.3394283" lon="13.0699967"><ele>940.0</ele><time>2026-04-26T11:24:25.277Z</time></trkpt><trkpt lat="43.33952" lon="13.070065"><ele>940.0</ele><time>2026-04-26T11:24:26.277Z</time></trkpt><trkpt lat="43.33962" lon="13.0701317"><ele>940.0</ele><time>2026-04-26T11:24:27.277Z</time></trkpt><trkpt lat="43.3397183" lon="13.070195"><ele>940.0</ele><time>2026-04-26T11:24:28.277Z</time></trkpt><trkpt lat="43.3398217" lon="13.0702533"><ele>940.0</ele><time>2026-04-26T11:24:29.277Z</time></trkpt><trkpt lat="43.3399283" lon="13.0703017"><ele>930.0</ele><time>2026-04-26T11:24:30.277Z</time></trkpt><trkpt lat="43.34003" lon="13.070355"><ele>920.0</ele><time>2026-04-26T11:24:31.277Z</time></trkpt><trkpt lat="43.340135" lon="13.0704183"><ele>910.0</ele><time>2026-04-26T11:24:32.277Z</time></trkpt><trkpt lat="43.3402433" lon="13.070485"><ele>900.0</ele><time>2026-04-26T11:24:33.277Z</time></trkpt><trkpt lat="43.340345" lon="13.0705633"><ele>900.0</ele><time>2026-04-26T11:24:34.278Z</time></trkpt><trkpt lat="43.3404517" lon="13.0706517"><ele>900.0</ele><time>2026-04-26T11:24:35.277Z</time></trkpt><trkpt lat="43.340545" lon="13.0707367"><ele>900.0</ele><time>2026-04-26T11:24:36.278Z</time></trkpt><trkpt lat="43.3406233" lon="13.0708267"><ele>900.0</ele><time>2026-04-26T11:24:37.277Z</time></trkpt><trkpt lat="43.3406967" lon="13.07091"><ele>900.0</ele><time>2026-04-26T11:24:38.277Z</time></trkpt><trkpt lat="43.3407617" lon="13.071"><ele>899.0</ele><time>2026-04-26T11:24:39.277Z</time></trkpt><trkpt lat="43.34082" lon="13.0710967"><ele>898.0</ele><time>2026-04-26T11:24:40.277Z</time></trkpt><trkpt lat="43.34088" lon="13.071185"><ele>897.0</ele><time>2026-04-26T11:24:41.277Z</time></trkpt><trkpt lat="43.3409283" lon="13.0712783"><ele>896.0</ele><time>2026-04-26T11:24:42.277Z</time></trkpt><trkpt lat="43.340975" lon="13.07136"><ele>895.0</ele><time>2026-04-26T11:24:43.277Z</time></trkpt><trkpt lat="43.3410317" lon="13.07145"><ele>894.0</ele><time>2026-04-26T11:24:44.277Z</time></trkpt><trkpt lat="43.3410917" lon="13.07155"><ele>897.4000000000001</ele><time>2026-04-26T11:24:45.277Z</time></trkpt><trkpt lat="43.34115" lon="13.0716567"><ele>900.8000000000001</ele><time>2026-04-26T11:24:46.277Z</time></trkpt><trkpt lat="43.3412083" lon="13.0717633"><ele>904.1999999999999</ele><time>2026-04-26T11:24:47.277Z</time></trkpt><trkpt lat="43.3412583" lon="13.0718667"><ele>907.5999999999999</ele><time>2026-04-26T11:24:48.277Z</time></trkpt><trkpt lat="43.3412983" lon="13.0719633"><ele>911.0</ele><time>2026-04-26T11:24:49.278Z</time></trkpt><trkpt lat="43.3413467" lon="13.0720733"><ele>903.5999999999999</ele><time>2026-04-26T11:24:50.277Z</time></trkpt><trkpt lat="43.3413933" lon="13.072185"><ele>896.1999999999999</ele><time>2026-04-26T11:24:51.278Z</time></trkpt><trkpt lat="43.3414383" lon="13.0723033"><ele>888.8000000000001</ele><time>2026-04-26T11:24:52.277Z</time></trkpt><trkpt lat="43.3414917" lon="13.0724217"><ele>881.4000000000001</ele><time>2026-04-26T11:24:53.278Z</time></trkpt><trkpt lat="43.3415333" lon="13.0725517"><ele>874.0</ele><time>2026-04-26T11:24:54.277Z</time></trkpt><trkpt lat="43.34156" lon="13.07269"><ele>874.0</ele><time>2026-04-26T11:24:55.277Z</time></trkpt><trkpt lat="43.3415817" lon="13.07282"><ele>874.0000000000001</ele><time>2026-04-26T11:24:56.277Z</time></trkpt><trkpt lat="43.3416083" lon="13.0729567"><ele>874.0000000000001</ele><time>2026-04-26T11:24:57.277Z</time></trkpt><trkpt lat="43.3416333" lon="13.0730883"><ele>874.0</ele><time>2026-04-26T11:24:58.277Z</time></trkpt><trkpt lat="43.3416467" lon="13.0732217"><ele>874.0</ele><time>2026-04-26T11:24:59.277Z</time></trkpt><trkpt lat="43.3416633" lon="13.073365"><ele>874.0</ele><time>2026-04-26T11:25:00.277Z</time></trkpt><trkpt lat="43.3416783" lon="13.073505"><ele>874.0000000000001</ele><time>2026-04-26T11:25:01.277Z</time></trkpt><trkpt lat="43.3416767" lon="13.0736433"><ele>874.0000000000001</ele><time>2026-04-26T11:25:02.277Z</time></trkpt><trkpt lat="43.3416767" lon="13.0737817"><ele>874.0</ele><time>2026-04-26T11:25:03.277Z</time></trkpt><trkpt lat="43.3416733" lon="13.07392"><ele>874.0</ele><time>2026-04-26T11:25:04.278Z</time></trkpt><trkpt lat="43.3416683" lon="13.0740417"><ele>873.4999999999999</ele><time>2026-04-26T11:25:05.277Z</time></trkpt><trkpt lat="43.3416517" lon="13.07414"><ele>873.0</ele><time>2026-04-26T11:25:06.277Z</time></trkpt><trkpt lat="43.3416117" lon="13.07424"><ele>872.5</ele><time>2026-04-26T11:25:07.277Z</time></trkpt><trkpt lat="43.34156" lon="13.07434"><ele>872.0</ele><time>2026-04-26T11:25:08.277Z</time></trkpt><trkpt lat="43.3415033" lon="13.0744383"><ele>871.4999999999999</ele><time>2026-04-26T11:25:09.277Z</time></trkpt><trkpt lat="43.341435" lon="13.07454"><ele>871.0</ele><time>2026-04-26T11:25:10.277Z</time></trkpt><trkpt lat="43.341365" lon="13.07463"><ele>872.1999999999999</ele><time>2026-04-26T11:25:11.277Z</time></trkpt><trkpt lat="43.34128" lon="13.07472"><ele>873.3999999999999</ele><time>2026-04-26T11:25:12.277Z</time></trkpt><trkpt lat="43.341185" lon="13.0748133"><ele>874.6</ele><time>2026-04-26T11:25:13.277Z</time></trkpt><trkpt lat="43.34109" lon="13.074905"><ele>875.8</ele><time>2026-04-26T11:25:14.277Z</time></trkpt><trkpt lat="43.3409983" lon="13.074985"><ele>877.0</ele><time>2026-04-26T11:25:15.277Z</time></trkpt><trkpt lat="43.340915" lon="13.0750667"><ele>877.0</ele><time>2026-04-26T11:25:16.278Z</time></trkpt><trkpt lat="43.3408467" lon="13.0751517"><ele>877.0</ele><time>2026-04-26T11:25:17.277Z</time></trkpt><trkpt lat="43.3407883" lon="13.0752533"><ele>877.0</ele><time>2026-04-26T11:25:18.277Z</time></trkpt><trkpt lat="43.34074" lon="13.07537"><ele>877.0</ele><time>2026-04-26T11:25:19.278Z</time></trkpt><trkpt lat="43.3407067" lon="13.07551"><ele>877.0</ele><time>2026-04-26T11:25:20.277Z</time></trkpt><trkpt lat="43.3406767" lon="13.0756467"><ele>878.0</ele><time>2026-04-26T11:25:21.277Z</time></trkpt><trkpt lat="43.3406517" lon="13.0757767"><ele>879.0</ele><time>2026-04-26T11:25:22.277Z</time></trkpt><trkpt lat="43.3406167" lon="13.0758983"><ele>880.0</ele><time>2026-04-26T11:25:23.277Z</time></trkpt><trkpt lat="43.34057" lon="13.07601"><ele>881.0</ele><time>2026-04-26T11:25:24.277Z</time></trkpt><trkpt lat="43.3405083" lon="13.076095"><ele>882.0</ele><time>2026-04-26T11:25:25.277Z</time></trkpt><trkpt lat="43.3404283" lon="13.0761467"><ele>882.0</ele><time>2026-04-26T11:25:26.278Z</time></trkpt><trkpt lat="43.34034" lon="13.0761667"><ele>882.0</ele><time>2026-04-26T11:25:27.277Z</time></trkpt><trkpt lat="43.3402517" lon="13.076155"><ele>882.0</ele><time>2026-04-26T11:25:28.277Z</time></trkpt><trkpt lat="43.3401483" lon="13.076125"><ele>882.0</ele><time>2026-04-26T11:25:29.277Z</time></trkpt><trkpt lat="43.340045" lon="13.0760617"><ele>882.0</ele><time>2026-04-26T11:25:30.277Z</time></trkpt><trkpt lat="43.339945" lon="13.0759933"><ele>882.0</ele><time>2026-04-26T11:25:31.277Z</time></trkpt><trkpt lat="43.3398567" lon="13.0759383"><ele>882.0</ele><time>2026-04-26T11:25:32.277Z</time></trkpt><trkpt lat="43.3397583" lon="13.0758667"><ele>882.0</ele><time>2026-04-26T11:25:33.277Z</time></trkpt><trkpt lat="43.3396517" lon="13.07578"><ele>882.0</ele><time>2026-04-26T11:25:34.277Z</time></trkpt><trkpt lat="43.3395617" lon="13.0756917"><ele>882.0</ele><time>2026-04-26T11:25:35.277Z</time></trkpt><trkpt lat="43.3394717" lon="13.0755967"><ele>888.5</ele><time>2026-04-26T11:25:36.277Z</time></trkpt><trkpt lat="43.339375" lon="13.0755017"><ele>895.0</ele><time>2026-04-26T11:25:37.277Z</time></trkpt><trkpt lat="43.339265" lon="13.0754233"><ele>901.5</ele><time>2026-04-26T11:25:38.277Z</time></trkpt><trkpt lat="43.339155" lon="13.0753633"><ele>908.0</ele><time>2026-04-26T11:25:39.277Z</time></trkpt><trkpt lat="43.3390333" lon="13.07532"><ele>908.0</ele><time>2026-04-26T11:25:40.277Z</time></trkpt><trkpt lat="43.3389067" lon="13.0753067"><ele>908.0</ele><time>2026-04-26T11:25:41.277Z</time></trkpt><trkpt lat="43.3387733" lon="13.0753033"><ele>908.0</ele><time>2026-04-26T11:25:42.277Z</time></trkpt><trkpt lat="43.3386383" lon="13.0753017"><ele>908.0</ele><time>2026-04-26T11:25:43.277Z</time></trkpt><trkpt lat="43.3385" lon="13.0753217"><ele>911.75</ele><time>2026-04-26T11:25:44.278Z</time></trkpt><trkpt lat="43.3383683" lon="13.0753317"><ele>915.5</ele><time>2026-04-26T11:25:45.277Z</time></trkpt><trkpt lat="43.3382383" lon="13.0753617"><ele>919.25</ele><time>2026-04-26T11:25:46.277Z</time></trkpt><trkpt lat="43.338115" lon="13.0753967"><ele>923.0</ele><time>2026-04-26T11:25:47.277Z</time></trkpt><trkpt lat="43.33801" lon="13.07544"><ele>920.4</ele><time>2026-04-26T11:25:48.277Z</time></trkpt><trkpt lat="43.33791" lon="13.0754867"><ele>917.8</ele><time>2026-04-26T11:25:49.277Z</time></trkpt><trkpt lat="43.3378217" lon="13.0755567"><ele>915.2</ele><time>2026-04-26T11:25:50.277Z</time></trkpt><trkpt lat="43.3377317" lon="13.0756183"><ele>912.6</ele><time>2026-04-26T11:25:51.277Z</time></trkpt><trkpt lat="43.33764" lon="13.0757333"><ele>910.0</ele><time>2026-04-26T11:25:52.277Z</time></trkpt><trkpt lat="43.3375617" lon="13.0758783"><ele>910.0</ele><time>2026-04-26T11:25:53.277Z</time></trkpt><trkpt lat="43.337505" lon="13.0760717"><ele>910.0</ele><time>2026-04-26T11:25:54.278Z</time></trkpt><trkpt lat="43.3374533" lon="13.0762533"><ele>910.0</ele><time>2026-04-26T11:25:55.277Z</time></trkpt><trkpt lat="43.3374017" lon="13.0764267"><ele>910.0</ele><time>2026-04-26T11:25:56.277Z</time></trkpt><trkpt lat="43.3373617" lon="13.0765933"><ele>913.25</ele><time>2026-04-26T11:25:57.277Z</time></trkpt><trkpt lat="43.3373167" lon="13.0767567"><ele>916.5</ele><time>2026-04-26T11:25:58.277Z</time></trkpt><trkpt lat="43.33727" lon="13.0769183"><ele>919.75</ele><time>2026-04-26T11:25:59.277Z</time></trkpt><trkpt lat="43.33723" lon="13.077075"><ele>923.0</ele><time>2026-04-26T11:26:00.277Z</time></trkpt><trkpt lat="43.337205" lon="13.0772367"><ele>923.0</ele><time>2026-04-26T11:26:01.277Z</time></trkpt><trkpt lat="43.3371967" lon="13.0774017"><ele>923.0</ele><time>2026-04-26T11:26:02.277Z</time></trkpt><trkpt lat="43.3371867" lon="13.077575"><ele>923.0</ele><time>2026-04-26T11:26:03.277Z</time></trkpt><trkpt lat="43.3371817" lon="13.0777433"><ele>923.0</ele><time>2026-04-26T11:26:04.277Z</time></trkpt><trkpt lat="43.3371833" lon="13.0779067"><ele>919.75</ele><time>2026-04-26T11:26:05.277Z</time></trkpt><trkpt lat="43.337185" lon="13.0780667"><ele>916.5</ele><time>2026-04-26T11:26:06.277Z</time></trkpt><trkpt lat="43.3371917" lon="13.0782333"><ele>913.25</ele><time>2026-04-26T11:26:07.277Z</time></trkpt><trkpt lat="43.3371983" lon="13.0784017"><ele>910.0</ele><time>2026-04-26T11:26:08.277Z</time></trkpt><trkpt lat="43.3372083" lon="13.07857"><ele>900.5</ele><time>2026-04-26T11:26:09.277Z</time></trkpt><trkpt lat="43.3372267" lon="13.0787367"><ele>891.0</ele><time>2026-04-26T11:26:10.277Z</time></trkpt><trkpt lat="43.3372483" lon="13.0789117"><ele>881.5</ele><time>2026-04-26T11:26:11.277Z</time></trkpt><trkpt lat="43.3372717" lon="13.0790883"><ele>872.0</ele><time>2026-04-26T11:26:12.277Z</time></trkpt><trkpt lat="43.3372917" lon="13.0792583"><ele>871.75</ele><time>2026-04-26T11:26:13.277Z</time></trkpt><trkpt lat="43.3373117" lon="13.0794183"><ele>871.5</ele><time>2026-04-26T11:26:14.277Z</time></trkpt><trkpt lat="43.33734" lon="13.0795717"><ele>871.25</ele><time>2026-04-26T11:26:15.277Z</time></trkpt><trkpt lat="43.3373667" lon="13.0797317"><ele>871.0</ele><time>2026-04-26T11:26:16.277Z</time></trkpt><trkpt lat="43.33739" lon="13.079885"><ele>871.5</ele><time>2026-04-26T11:26:17.277Z</time></trkpt><trkpt lat="43.337415" lon="13.0800317"><ele>872.0</ele><time>2026-04-26T11:26:18.277Z</time></trkpt><trkpt lat="43.3374367" lon="13.0801767"><ele>872.5</ele><time>2026-04-26T11:26:19.278Z</time></trkpt><trkpt lat="43.3374583" lon="13.0803367"><ele>873.0</ele><time>2026-04-26T11:26:20.277Z</time></trkpt><trkpt lat="43.33748" lon="13.080495"><ele>873.0</ele><time>2026-04-26T11:26:21.277Z</time></trkpt><trkpt lat="43.3374983" lon="13.080645"><ele>873.0</ele><time>2026-04-26T11:26:22.278Z</time></trkpt><trkpt lat="43.3375183" lon="13.0807883"><ele>873.0</ele><time>2026-04-26T11:26:23.277Z</time></trkpt><trkpt lat="43.33754" lon="13.080925"><ele>873.0</ele><time>2026-04-26T11:26:24.277Z</time></trkpt><trkpt lat="43.3375617" lon="13.08107"><ele>873.0</ele><time>2026-04-26T11:26:25.277Z</time></trkpt><trkpt lat="43.3375833" lon="13.0812067"><ele>873.1666666666666</ele><time>2026-04-26T11:26:26.277Z</time></trkpt><trkpt lat="43.337605" lon="13.0813383"><ele>873.3333333333333</ele><time>2026-04-26T11:26:27.278Z</time></trkpt><trkpt lat="43.3376267" lon="13.08146"><ele>873.5</ele><time>2026-04-26T11:26:28.278Z</time></trkpt><trkpt lat="43.33765" lon="13.081575"><ele>873.6666666666666</ele><time>2026-04-26T11:26:29.277Z</time></trkpt><trkpt lat="43.3376683" lon="13.08168"><ele>873.8333333333333</ele><time>2026-04-26T11:26:30.277Z</time></trkpt><trkpt lat="43.3376817" lon="13.0817683"><ele>874.0</ele><time>2026-04-26T11:26:31.277Z</time></trkpt><trkpt lat="43.3376867" lon="13.0818567"><ele>872.75</ele><time>2026-04-26T11:26:32.277Z</time></trkpt><trkpt lat="43.3376583" lon="13.082005"><ele>871.5</ele><time>2026-04-26T11:26:34.277Z</time></trkpt><trkpt lat="43.3375333" lon="13.082085"><ele>870.25</ele><time>2026-04-26T11:26:36.277Z</time></trkpt><trkpt lat="43.33743" lon="13.0820917"><ele>869.0</ele><time>2026-04-26T11:26:37.277Z</time></trkpt><trkpt lat="43.33731" lon="13.08207"><ele>867.75</ele><time>2026-04-26T11:26:38.277Z</time></trkpt><trkpt lat="43.3371933" lon="13.0820283"><ele>866.5</ele><time>2026-04-26T11:26:39.277Z</time></trkpt><trkpt lat="43.33708" lon="13.0819833"><ele>865.25</ele><time>2026-04-26T11:26:40.277Z</time></trkpt><trkpt lat="43.3369667" lon="13.081945"><ele>864.0</ele><time>2026-04-26T11:26:41.277Z</time></trkpt><trkpt lat="43.3368467" lon="13.0819083"><ele>864.0</ele><time>2026-04-26T11:26:42.277Z</time></trkpt><trkpt lat="43.336715" lon="13.0818733"><ele>864.0</ele><time>2026-04-26T11:26:43.277Z</time></trkpt><trkpt lat="43.3365883" lon="13.08184"><ele>864.0</ele><time>2026-04-26T11:26:44.277Z</time></trkpt><trkpt lat="43.336465" lon="13.081805"><ele>864.0</ele><time>2026-04-26T11:26:45.277Z</time></trkpt><trkpt lat="43.3363333" lon="13.0817733"><ele>861.5</ele><time>2026-04-26T11:26:46.277Z</time></trkpt><trkpt lat="43.3362067" lon="13.0817433"><ele>859.0</ele><time>2026-04-26T11:26:47.277Z</time></trkpt><trkpt lat="43.3360817" lon="13.081715"><ele>856.5</ele><time>2026-04-26T11:26:48.277Z</time></trkpt><trkpt lat="43.33596" lon="13.0816883"><ele>854.0</ele><time>2026-04-26T11:26:49.277Z</time></trkpt><trkpt lat="43.3358383" lon="13.0816583"><ele>854.0</ele><time>2026-04-26T11:26:50.277Z</time></trkpt><trkpt lat="43.3357083" lon="13.0816333"><ele>854.0</ele><time>2026-04-26T11:26:51.277Z</time></trkpt><trkpt lat="43.3355733" lon="13.0816"><ele>854.0</ele><time>2026-04-26T11:26:52.278Z</time></trkpt><trkpt lat="43.3354367" lon="13.0815683"><ele>854.0</ele><time>2026-04-26T11:26:53.277Z</time></trkpt><trkpt lat="43.3353067" lon="13.0815417"><ele>858.0</ele><time>2026-04-26T11:26:54.277Z</time></trkpt><trkpt lat="43.33517" lon="13.0815167"><ele>862.0</ele><time>2026-04-26T11:26:55.277Z</time></trkpt><trkpt lat="43.3350367" lon="13.0814933"><ele>866.0</ele><time>2026-04-26T11:26:56.277Z</time></trkpt><trkpt lat="43.3349033" lon="13.0814717"><ele>870.0</ele><time>2026-04-26T11:26:57.277Z</time></trkpt><trkpt lat="43.3347717" lon="13.0814517"><ele>868.25</ele><time>2026-04-26T11:26:58.277Z</time></trkpt><trkpt lat="43.334645" lon="13.0814383"><ele>866.5</ele><time>2026-04-26T11:26:59.277Z</time></trkpt><trkpt lat="43.3345267" lon="13.0814267"><ele>864.75</ele><time>2026-04-26T11:27:00.277Z</time></trkpt><trkpt lat="43.3344117" lon="13.081425"><ele>863.0</ele><time>2026-04-26T11:27:01.277Z</time></trkpt><trkpt lat="43.33429" lon="13.0814267"><ele>863.0</ele><time>2026-04-26T11:27:02.277Z</time></trkpt><trkpt lat="43.3341633" lon="13.0814433"><ele>863.0</ele><time>2026-04-26T11:27:03.277Z</time></trkpt><trkpt lat="43.3340333" lon="13.08146"><ele>863.0</ele><time>2026-04-26T11:27:04.278Z</time></trkpt><trkpt lat="43.3338983" lon="13.0814867"><ele>863.0</ele><time>2026-04-26T11:27:05.277Z</time></trkpt><trkpt lat="43.3337717" lon="13.0815233"><ele>863.25</ele><time>2026-04-26T11:27:06.277Z</time></trkpt><trkpt lat="43.3336483" lon="13.0815617"><ele>863.5</ele><time>2026-04-26T11:27:07.277Z</time></trkpt><trkpt lat="43.333535" lon="13.081595"><ele>863.75</ele><time>2026-04-26T11:27:08.277Z</time></trkpt><trkpt lat="43.333425" lon="13.08163"><ele>864.0</ele><time>2026-04-26T11:27:09.277Z</time></trkpt><trkpt lat="43.333315" lon="13.0816517"><ele>860.8000000000001</ele><time>2026-04-26T11:27:10.277Z</time></trkpt><trkpt lat="43.3332067" lon="13.0816567"><ele>857.6000000000001</ele><time>2026-04-26T11:27:11.277Z</time></trkpt><trkpt lat="43.3331" lon="13.081635"><ele>854.4</ele><time>2026-04-26T11:27:12.277Z</time></trkpt><trkpt lat="43.3329933" lon="13.081605"><ele>851.2</ele><time>2026-04-26T11:27:13.277Z</time></trkpt><trkpt lat="43.332885" lon="13.0815667"><ele>848.0</ele><time>2026-04-26T11:27:14.277Z</time></trkpt><trkpt lat="43.3327767" lon="13.0815167"><ele>848.0</ele><time>2026-04-26T11:27:15.277Z</time></trkpt><trkpt lat="43.3326617" lon="13.0814583"><ele>848.0</ele><time>2026-04-26T11:27:16.277Z</time></trkpt><trkpt lat="43.3325517" lon="13.0813867"><ele>848.0</ele><time>2026-04-26T11:27:17.277Z</time></trkpt><trkpt lat="43.332455" lon="13.0813017"><ele>848.0</ele><time>2026-04-26T11:27:18.277Z</time></trkpt><trkpt lat="43.332365" lon="13.0812083"><ele>848.0</ele><time>2026-04-26T11:27:19.277Z</time></trkpt><trkpt lat="43.3322817" lon="13.081095"><ele>848.0</ele><time>2026-04-26T11:27:20.277Z</time></trkpt><trkpt lat="43.332205" lon="13.0809667"><ele>848.0</ele><time>2026-04-26T11:27:21.277Z</time></trkpt><trkpt lat="43.332135" lon="13.0808317"><ele>848.0</ele><time>2026-04-26T11:27:22.277Z</time></trkpt><trkpt lat="43.3320683" lon="13.080695"><ele>843.5999999999999</ele><time>2026-04-26T11:27:23.278Z</time></trkpt><trkpt lat="43.332015" lon="13.0805633"><ele>839.1999999999999</ele><time>2026-04-26T11:27:24.277Z</time></trkpt><trkpt lat="43.3319783" lon="13.0804383"><ele>834.8</ele><time>2026-04-26T11:27:25.277Z</time></trkpt><trkpt lat="43.3319467" lon="13.0803183"><ele>830.4</ele><time>2026-04-26T11:27:26.277Z</time></trkpt><trkpt lat="43.3319283" lon="13.0801883"><ele>826.0</ele><time>2026-04-26T11:27:27.277Z</time></trkpt><trkpt lat="43.3319133" lon="13.0800533"><ele>826.8</ele><time>2026-04-26T11:27:28.277Z</time></trkpt><trkpt lat="43.331895" lon="13.0799233"><ele>827.5999999999999</ele><time>2026-04-26T11:27:29.277Z</time></trkpt><trkpt lat="43.3319017" lon="13.079785"><ele>828.4</ele><time>2026-04-26T11:27:30.277Z</time></trkpt><trkpt lat="43.3319267" lon="13.0796533"><ele>829.2</ele><time>2026-04-26T11:27:31.277Z</time></trkpt><trkpt lat="43.331965" lon="13.0795217"><ele>830.0</ele><time>2026-04-26T11:27:32.277Z</time></trkpt><trkpt lat="43.3320083" lon="13.07939"><ele>830.0</ele><time>2026-04-26T11:27:33.277Z</time></trkpt><trkpt lat="43.332055" lon="13.079265"><ele>830.0</ele><time>2026-04-26T11:27:34.277Z</time></trkpt><trkpt lat="43.3321033" lon="13.0791433"><ele>830.0</ele><time>2026-04-26T11:27:35.277Z</time></trkpt><trkpt lat="43.3321483" lon="13.0790317"><ele>830.0</ele><time>2026-04-26T11:27:36.277Z</time></trkpt><trkpt lat="43.332185" lon="13.0789217"><ele>830.0</ele><time>2026-04-26T11:27:37.277Z</time></trkpt><trkpt lat="43.3322083" lon="13.0788183"><ele>833.0000000000001</ele><time>2026-04-26T11:27:38.277Z</time></trkpt><trkpt lat="43.3322117" lon="13.0787083"><ele>836.0</ele><time>2026-04-26T11:27:39.278Z</time></trkpt><trkpt lat="43.332205" lon="13.0785967"><ele>839.0</ele><time>2026-04-26T11:27:40.277Z</time></trkpt><trkpt lat="43.33219" lon="13.0784867"><ele>842.0</ele><time>2026-04-26T11:27:41.277Z</time></trkpt><trkpt lat="43.3321567" lon="13.0783833"><ele>845.0000000000001</ele><time>2026-04-26T11:27:42.278Z</time></trkpt><trkpt lat="43.3321133" lon="13.0782917"><ele>848.0</ele><time>2026-04-26T11:27:43.277Z</time></trkpt><trkpt lat="43.3320633" lon="13.0782317"><ele>848.0</ele><time>2026-04-26T11:27:44.277Z</time></trkpt><trkpt lat="43.3320033" lon="13.0782017"><ele>848.0</ele><time>2026-04-26T11:27:45.277Z</time></trkpt><trkpt lat="43.331885" lon="13.07823"><ele>848.0</ele><time>2026-04-26T11:27:47.277Z</time></trkpt><trkpt lat="43.3318083" lon="13.078275"><ele>848.0</ele><time>2026-04-26T11:27:48.277Z</time></trkpt><trkpt lat="43.3317217" lon="13.078335"><ele>848.0</ele><time>2026-04-26T11:27:49.277Z</time></trkpt><trkpt lat="43.3316267" lon="13.0783983"><ele>848.0000000000001</ele><time>2026-04-26T11:27:50.277Z</time></trkpt><trkpt lat="43.3315417" lon="13.0784467"><ele>848.0</ele><time>2026-04-26T11:27:51.277Z</time></trkpt><trkpt lat="43.3314683" lon="13.0784767"><ele>848.0</ele><time>2026-04-26T11:27:52.277Z</time></trkpt><trkpt lat="43.3313967" lon="13.0784867"><ele>848.0</ele><time>2026-04-26T11:27:53.277Z</time></trkpt><trkpt lat="43.3313217" lon="13.0785067"><ele>848.0000000000001</ele><time>2026-04-26T11:27:54.277Z</time></trkpt><trkpt lat="43.3312467" lon="13.0785267"><ele>848.0</ele><time>2026-04-26T11:27:55.277Z</time></trkpt><trkpt lat="43.3311683" lon="13.0785633"><ele>849.2857142857143</ele><time>2026-04-26T11:27:56.277Z</time></trkpt><trkpt lat="43.331095" lon="13.0786117"><ele>850.5714285714286</ele><time>2026-04-26T11:27:57.277Z</time></trkpt><trkpt lat="43.3310317" lon="13.0786367"><ele>851.8571428571429</ele><time>2026-04-26T11:27:58.277Z</time></trkpt><trkpt lat="43.3309683" lon="13.0786483"><ele>853.1428571428571</ele><time>2026-04-26T11:27:59.277Z</time></trkpt><trkpt lat="43.3309033" lon="13.0786917"><ele>854.4285714285713</ele><time>2026-04-26T11:28:00.278Z</time></trkpt><trkpt lat="43.330845" lon="13.0787433"><ele>855.7142857142857</ele><time>2026-04-26T11:28:01.277Z</time></trkpt><trkpt lat="43.3307867" lon="13.0787783"><ele>857.0</ele><time>2026-04-26T11:28:02.277Z</time></trkpt><trkpt lat="43.3306533" lon="13.07881"><ele>857.0</ele><time>2026-04-26T11:28:04.277Z</time></trkpt><trkpt lat="43.3305667" lon="13.0788017"><ele>857.0</ele><time>2026-04-26T11:28:05.277Z</time></trkpt><trkpt lat="43.3304783" lon="13.078785"><ele>857.0</ele><time>2026-04-26T11:28:06.277Z</time></trkpt><trkpt lat="43.3303817" lon="13.07875"><ele>857.0</ele><time>2026-04-26T11:28:07.277Z</time></trkpt><trkpt lat="43.3302783" lon="13.0787167"><ele>857.0</ele><time>2026-04-26T11:28:08.277Z</time></trkpt><trkpt lat="43.330185" lon="13.07868"><ele>856.4000000000001</ele><time>2026-04-26T11:28:09.277Z</time></trkpt><trkpt lat="43.3300967" lon="13.0786383"><ele>855.8000000000001</ele><time>2026-04-26T11:28:10.277Z</time></trkpt><trkpt lat="43.33001" lon="13.0785833"><ele>855.2</ele><time>2026-04-26T11:28:11.277Z</time></trkpt><trkpt lat="43.32992" lon="13.0785333"><ele>854.6</ele><time>2026-04-26T11:28:12.277Z</time></trkpt><trkpt lat="43.3298283" lon="13.07848"><ele>854.0</ele><time>2026-04-26T11:28:13.277Z</time></trkpt><trkpt lat="43.32975" lon="13.0784083"><ele>852.3333333333334</ele><time>2026-04-26T11:28:14.277Z</time></trkpt><trkpt lat="43.3296683" lon="13.07836"><ele>850.6666666666667</ele><time>2026-04-26T11:28:15.277Z</time></trkpt><trkpt lat="43.32959" lon="13.0783117"><ele>849.0</ele><time>2026-04-26T11:28:16.277Z</time></trkpt><trkpt lat="43.329515" lon="13.07825"><ele>847.3333333333333</ele><time>2026-04-26T11:28:17.277Z</time></trkpt><trkpt lat="43.3294417" lon="13.0781867"><ele>845.6666666666666</ele><time>2026-04-26T11:28:18.277Z</time></trkpt><trkpt lat="43.32937" lon="13.0781217"><ele>844.0</ele><time>2026-04-26T11:28:19.277Z</time></trkpt><trkpt lat="43.3293017" lon="13.0780683"><ele>848.3333333333333</ele><time>2026-04-26T11:28:20.277Z</time></trkpt><trkpt lat="43.32923" lon="13.0780317"><ele>852.6666666666666</ele><time>2026-04-26T11:28:21.277Z</time></trkpt><trkpt lat="43.32915" lon="13.0780033"><ele>857.0</ele><time>2026-04-26T11:28:22.277Z</time></trkpt><trkpt lat="43.32906" lon="13.0779683"><ele>861.3333333333333</ele><time>2026-04-26T11:28:23.277Z</time></trkpt><trkpt lat="43.32897" lon="13.077945"><ele>865.6666666666666</ele><time>2026-04-26T11:28:24.277Z</time></trkpt><trkpt lat="43.3288767" lon="13.07794"><ele>870.0</ele><time>2026-04-26T11:28:25.277Z</time></trkpt><trkpt lat="43.3287917" lon="13.077925"><ele>870.0</ele><time>2026-04-26T11:28:26.277Z</time></trkpt><trkpt lat="43.3287" lon="13.07791"><ele>870.0</ele><time>2026-04-26T11:28:27.277Z</time></trkpt><trkpt lat="43.3286167" lon="13.0779"><ele>870.0</ele><time>2026-04-26T11:28:28.277Z</time></trkpt><trkpt lat="43.3285283" lon="13.0779033"><ele>870.0</ele><time>2026-04-26T11:28:29.277Z</time></trkpt><trkpt lat="43.3284533" lon="13.077915"><ele>870.0</ele><time>2026-04-26T11:28:30.277Z</time></trkpt><trkpt lat="43.3283683" lon="13.0779333"><ele>870.0</ele><time>2026-04-26T11:28:31.277Z</time></trkpt><trkpt lat="43.3282883" lon="13.0779517"><ele>870.0</ele><time>2026-04-26T11:28:32.277Z</time></trkpt><trkpt lat="43.3282017" lon="13.07797"><ele>870.0</ele><time>2026-04-26T11:28:33.277Z</time></trkpt><trkpt lat="43.32811" lon="13.0779717"><ele>870.0</ele><time>2026-04-26T11:28:34.277Z</time></trkpt><trkpt lat="43.3280167" lon="13.0779533"><ele>870.0</ele><time>2026-04-26T11:28:35.277Z</time></trkpt><trkpt lat="43.3279217" lon="13.0779117"><ele>870.0</ele><time>2026-04-26T11:28:36.277Z</time></trkpt><trkpt lat="43.3278333" lon="13.0778517"><ele>869.4</ele><time>2026-04-26T11:28:37.277Z</time></trkpt><trkpt lat="43.3277567" lon="13.0777817"><ele>868.8</ele><time>2026-04-26T11:28:38.277Z</time></trkpt><trkpt lat="43.3276833" lon="13.0777133"><ele>868.2</ele><time>2026-04-26T11:28:39.277Z</time></trkpt><trkpt lat="43.327605" lon="13.0776667"><ele>867.6</ele><time>2026-04-26T11:28:40.277Z</time></trkpt><trkpt lat="43.3275167" lon="13.0776383"><ele>867.0</ele><time>2026-04-26T11:28:41.277Z</time></trkpt><trkpt lat="43.32742" lon="13.0776233"><ele>867.0</ele><time>2026-04-26T11:28:42.277Z</time></trkpt><trkpt lat="43.3273183" lon="13.0776183"><ele>867.0</ele><time>2026-04-26T11:28:43.277Z</time></trkpt><trkpt lat="43.3272183" lon="13.0776117"><ele>867.0</ele><time>2026-04-26T11:28:44.277Z</time></trkpt><trkpt lat="43.327095" lon="13.0775917"><ele>867.0</ele><time>2026-04-26T11:28:45.277Z</time></trkpt><trkpt lat="43.32698" lon="13.0775583"><ele>867.0</ele><time>2026-04-26T11:28:46.277Z</time></trkpt><trkpt lat="43.32687" lon="13.0775367"><ele>865.25</ele><time>2026-04-26T11:28:47.277Z</time></trkpt><trkpt lat="43.3267433" lon="13.07753"><ele>863.5</ele><time>2026-04-26T11:28:48.277Z</time></trkpt><trkpt lat="43.3266217" lon="13.0775117"><ele>861.75</ele><time>2026-04-26T11:28:49.277Z</time></trkpt><trkpt lat="43.3265017" lon="13.077495"><ele>860.0</ele><time>2026-04-26T11:28:50.277Z</time></trkpt><trkpt lat="43.326385" lon="13.077475"><ele>858.75</ele><time>2026-04-26T11:28:51.277Z</time></trkpt><trkpt lat="43.3262717" lon="13.0774433"><ele>857.5</ele><time>2026-04-26T11:28:52.278Z</time></trkpt><trkpt lat="43.3261617" lon="13.0773967"><ele>856.25</ele><time>2026-04-26T11:28:53.277Z</time></trkpt><trkpt lat="43.326055" lon="13.0773333"><ele>855.0</ele><time>2026-04-26T11:28:54.277Z</time></trkpt><trkpt lat="43.3259533" lon="13.0772667"><ele>857.8</ele><time>2026-04-26T11:28:55.277Z</time></trkpt><trkpt lat="43.3258633" lon="13.0771933"><ele>860.6</ele><time>2026-04-26T11:28:56.277Z</time></trkpt><trkpt lat="43.3257767" lon="13.0771317"><ele>863.4000000000001</ele><time>2026-04-26T11:28:57.278Z</time></trkpt><trkpt lat="43.3256917" lon="13.0770633"><ele>866.2</ele><time>2026-04-26T11:28:58.277Z</time></trkpt><trkpt lat="43.325615" lon="13.0769933"><ele>869.0</ele><time>2026-04-26T11:28:59.277Z</time></trkpt><trkpt lat="43.32554" lon="13.076925"><ele>869.0000000000001</ele><time>2026-04-26T11:29:00.277Z</time></trkpt><trkpt lat="43.3254717" lon="13.076845"><ele>869.0</ele><time>2026-04-26T11:29:01.277Z</time></trkpt><trkpt lat="43.3254017" lon="13.076765"><ele>869.0</ele><time>2026-04-26T11:29:02.277Z</time></trkpt><trkpt lat="43.32534" lon="13.0766883"><ele>869.0</ele><time>2026-04-26T11:29:03.277Z</time></trkpt><trkpt lat="43.32529" lon="13.076595"><ele>869.0000000000001</ele><time>2026-04-26T11:29:04.277Z</time></trkpt><trkpt lat="43.3252367" lon="13.0765133"><ele>869.0</ele><time>2026-04-26T11:29:05.278Z</time></trkpt><trkpt lat="43.32518" lon="13.076455"><ele>872.8333333333334</ele><time>2026-04-26T11:29:06.277Z</time></trkpt><trkpt lat="43.3251167" lon="13.076415"><ele>876.6666666666667</ele><time>2026-04-26T11:29:07.277Z</time></trkpt><trkpt lat="43.3250483" lon="13.0763967"><ele>880.5</ele><time>2026-04-26T11:29:08.277Z</time></trkpt><trkpt lat="43.32498" lon="13.0764067"><ele>884.3333333333333</ele><time>2026-04-26T11:29:09.278Z</time></trkpt><trkpt lat="43.3249133" lon="13.0764417"><ele>888.1666666666666</ele><time>2026-04-26T11:29:10.277Z</time></trkpt><trkpt lat="43.3248317" lon="13.076485"><ele>892.0</ele><time>2026-04-26T11:29:11.277Z</time></trkpt><trkpt lat="43.32474" lon="13.07655"><ele>891.0</ele><time>2026-04-26T11:29:12.277Z</time></trkpt><trkpt lat="43.3246533" lon="13.07663"><ele>890.0</ele><time>2026-04-26T11:29:13.277Z</time></trkpt><trkpt lat="43.3245517" lon="13.0767217"><ele>889.0</ele><time>2026-04-26T11:29:14.277Z</time></trkpt><trkpt lat="43.32446" lon="13.0768083"><ele>888.0</ele><time>2026-04-26T11:29:15.277Z</time></trkpt><trkpt lat="43.3243783" lon="13.07691"><ele>887.0</ele><time>2026-04-26T11:29:16.277Z</time></trkpt><trkpt lat="43.3243117" lon="13.076975"><ele>887.0000000000001</ele><time>2026-04-26T11:29:17.277Z</time></trkpt><trkpt lat="43.324245" lon="13.0770383"><ele>887.0</ele><time>2026-04-26T11:29:18.278Z</time></trkpt><trkpt lat="43.3241767" lon="13.07711"><ele>887.0</ele><time>2026-04-26T11:29:19.277Z</time></trkpt><trkpt lat="43.3241133" lon="13.0771817"><ele>887.0</ele><time>2026-04-26T11:29:20.277Z</time></trkpt><trkpt lat="43.3240533" lon="13.07726"><ele>887.0000000000001</ele><time>2026-04-26T11:29:21.277Z</time></trkpt><trkpt lat="43.32401" lon="13.0773617"><ele>887.0</ele><time>2026-04-26T11:29:22.277Z</time></trkpt><trkpt lat="43.3239867" lon="13.0774533"><ele>884.2</ele><time>2026-04-26T11:29:23.277Z</time></trkpt><trkpt lat="43.3239667" lon="13.0776117"><ele>881.4000000000001</ele><time>2026-04-26T11:29:25.277Z</time></trkpt><trkpt lat="43.323975" lon="13.0777167"><ele>878.5999999999999</ele><time>2026-04-26T11:29:27.277Z</time></trkpt><trkpt lat="43.323985" lon="13.0778433"><ele>875.8</ele><time>2026-04-26T11:29:29.277Z</time></trkpt><trkpt lat="43.3239933" lon="13.0779583"><ele>873.0</ele><time>2026-04-26T11:29:31.277Z</time></trkpt><trkpt lat="43.32401" lon="13.07811"><ele>873.5</ele><time>2026-04-26T11:29:33.277Z</time></trkpt><trkpt lat="43.324035" lon="13.078285"><ele>874.0</ele><time>2026-04-26T11:29:35.278Z</time></trkpt><trkpt lat="43.3240533" lon="13.0783733"><ele>874.5</ele><time>2026-04-26T11:29:36.277Z</time></trkpt><trkpt lat="43.3240633" lon="13.0784717"><ele>875.0</ele><time>2026-04-26T11:29:37.277Z</time></trkpt><trkpt lat="43.3240833" lon="13.0785733"><ele>875.5</ele><time>2026-04-26T11:29:38.277Z</time></trkpt><trkpt lat="43.324105" lon="13.0786717"><ele>876.0</ele><time>2026-04-26T11:29:39.278Z</time></trkpt><trkpt lat="43.324135" lon="13.0787667"><ele>876.0</ele><time>2026-04-26T11:29:40.277Z</time></trkpt><trkpt lat="43.324165" lon="13.0788733"><ele>875.9999999999999</ele><time>2026-04-26T11:29:41.277Z</time></trkpt><trkpt lat="43.3241983" lon="13.0789967"><ele>875.9999999999999</ele><time>2026-04-26T11:29:42.277Z</time></trkpt><trkpt lat="43.3242167" lon="13.0791233"><ele>876.0</ele><time>2026-04-26T11:29:43.277Z</time></trkpt><trkpt lat="43.3242317" lon="13.0792517"><ele>876.0</ele><time>2026-04-26T11:29:44.278Z</time></trkpt><trkpt lat="43.32424" lon="13.07939"><ele>879.5</ele><time>2026-04-26T11:29:45.278Z</time></trkpt><trkpt lat="43.3242467" lon="13.0795383"><ele>883.0</ele><time>2026-04-26T11:29:46.277Z</time></trkpt><trkpt lat="43.3242683" lon="13.0796967"><ele>886.5</ele><time>2026-04-26T11:29:47.277Z</time></trkpt><trkpt lat="43.3243067" lon="13.0798467"><ele>890.0</ele><time>2026-04-26T11:29:48.277Z</time></trkpt><trkpt lat="43.3243517" lon="13.0799883"><ele>891.8333333333334</ele><time>2026-04-26T11:29:49.278Z</time></trkpt><trkpt lat="43.3243917" lon="13.0801267"><ele>893.6666666666667</ele><time>2026-04-26T11:29:50.277Z</time></trkpt><trkpt lat="43.324425" lon="13.0802483"><ele>895.5</ele><time>2026-04-26T11:29:51.278Z</time></trkpt><trkpt lat="43.3244533" lon="13.0803517"><ele>897.3333333333333</ele><time>2026-04-26T11:29:52.277Z</time></trkpt><trkpt lat="43.324475" lon="13.0804533"><ele>899.1666666666666</ele><time>2026-04-26T11:29:53.277Z</time></trkpt><trkpt lat="43.32452" lon="13.08055"><ele>901.0</ele><time>2026-04-26T11:29:54.277Z</time></trkpt><trkpt lat="43.3245467" lon="13.0806467"><ele>900.9999999999999</ele><time>2026-04-26T11:29:55.277Z</time></trkpt><trkpt lat="43.324555" lon="13.080745"><ele>901.0</ele><time>2026-04-26T11:29:56.277Z</time></trkpt><trkpt lat="43.32456" lon="13.08085"><ele>901.0</ele><time>2026-04-26T11:29:57.277Z</time></trkpt><trkpt lat="43.324545" lon="13.0809533"><ele>901.0</ele><time>2026-04-26T11:29:58.278Z</time></trkpt><trkpt lat="43.324495" lon="13.08106"><ele>900.9999999999999</ele><time>2026-04-26T11:29:59.278Z</time></trkpt><trkpt lat="43.3244583" lon="13.081165"><ele>901.0</ele><time>2026-04-26T11:30:00.277Z</time></trkpt><trkpt lat="43.324415" lon="13.0812633"><ele>900.5999999999999</ele><time>2026-04-26T11:30:01.277Z</time></trkpt><trkpt lat="43.3243633" lon="13.0813767"><ele>900.1999999999999</ele><time>2026-04-26T11:30:02.277Z</time></trkpt><trkpt lat="43.3243017" lon="13.0814883"><ele>899.8000000000001</ele><time>2026-04-26T11:30:03.277Z</time></trkpt><trkpt lat="43.324235" lon="13.0815967"><ele>899.4000000000001</ele><time>2026-04-26T11:30:04.277Z</time></trkpt><trkpt lat="43.3241683" lon="13.0817017"><ele>899.0</ele><time>2026-04-26T11:30:05.277Z</time></trkpt><trkpt lat="43.3241217" lon="13.0818083"><ele>899.0000000000001</ele><time>2026-04-26T11:30:06.277Z</time></trkpt><trkpt lat="43.3240867" lon="13.0819233"><ele>899.0</ele><time>2026-04-26T11:30:07.277Z</time></trkpt><trkpt lat="43.3240717" lon="13.0820467"><ele>899.0</ele><time>2026-04-26T11:30:08.277Z</time></trkpt><trkpt lat="43.3240683" lon="13.0821633"><ele>899.0</ele><time>2026-04-26T11:30:09.277Z</time></trkpt><trkpt lat="43.3240717" lon="13.0822633"><ele>899.0000000000001</ele><time>2026-04-26T11:30:10.276Z</time></trkpt><trkpt lat="43.3240867" lon="13.0823667"><ele>899.0</ele><time>2026-04-26T11:30:11.277Z</time></trkpt><trkpt lat="43.3241117" lon="13.08248"><ele>898.6666666666667</ele><time>2026-04-26T11:30:12.276Z</time></trkpt><trkpt lat="43.32413" lon="13.0826083"><ele>898.3333333333334</ele><time>2026-04-26T11:30:13.276Z</time></trkpt><trkpt lat="43.3241367" lon="13.0827367"><ele>898.0</ele><time>2026-04-26T11:30:14.276Z</time></trkpt><trkpt lat="43.324135" lon="13.0828583"><ele>897.6666666666667</ele><time>2026-04-26T11:30:15.276Z</time></trkpt><trkpt lat="43.3241083" lon="13.082965"><ele>897.3333333333334</ele><time>2026-04-26T11:30:16.276Z</time></trkpt><trkpt lat="43.32407" lon="13.0830633"><ele>897.0</ele><time>2026-04-26T11:30:17.276Z</time></trkpt><trkpt lat="43.3240133" lon="13.0831433"><ele>897.0</ele><time>2026-04-26T11:30:18.276Z</time></trkpt><trkpt lat="43.3239533" lon="13.0832033"><ele>897.0</ele><time>2026-04-26T11:30:19.276Z</time></trkpt><trkpt lat="43.3239" lon="13.0832517"><ele>897.0</ele><time>2026-04-26T11:30:20.276Z</time></trkpt><trkpt lat="43.3238367" lon="13.08337"><ele>897.0</ele><time>2026-04-26T11:30:22.276Z</time></trkpt><trkpt lat="43.3238067" lon="13.083485"><ele>897.0</ele><time>2026-04-26T11:30:24.276Z</time></trkpt><trkpt lat="43.3238205" lon="13.0835925"><ele>897.0</ele><time>2026-04-26T11:30:26.276Z</time></trkpt><trkpt lat="43.323858" lon="13.0836648"><ele>896.2</ele><time>2026-04-26T11:30:27.276Z</time></trkpt><trkpt lat="43.3239143" lon="13.0837522"><ele>895.4000000000001</ele><time>2026-04-26T11:30:28.276Z</time></trkpt><trkpt lat="43.3239763" lon="13.0838632"><ele>894.5999999999999</ele><time>2026-04-26T11:30:29.276Z</time></trkpt><trkpt lat="43.3240246" lon="13.0839868"><ele>893.8</ele><time>2026-04-26T11:30:30.276Z</time></trkpt><trkpt lat="43.3240652" lon="13.0841259"><ele>893.0</ele><time>2026-04-26T11:30:31.276Z</time></trkpt><trkpt lat="43.3240992" lon="13.0842716"><ele>893.0</ele><time>2026-04-26T11:30:32.276Z</time></trkpt><trkpt lat="43.3241416" lon="13.084421"><ele>893.0</ele><time>2026-04-26T11:30:33.276Z</time></trkpt><trkpt lat="43.3241917" lon="13.0845786"><ele>893.0</ele><time>2026-04-26T11:30:34.276Z</time></trkpt><trkpt lat="43.3242505" lon="13.0847415"><ele>893.0</ele><time>2026-04-26T11:30:35.276Z</time></trkpt><trkpt lat="43.3243139" lon="13.0849016"><ele>891.75</ele><time>2026-04-26T11:30:36.277Z</time></trkpt><trkpt lat="43.3243771" lon="13.0850533"><ele>890.5</ele><time>2026-04-26T11:30:37.276Z</time></trkpt><trkpt lat="43.3244333" lon="13.0851952"><ele>889.25</ele><time>2026-04-26T11:30:38.276Z</time></trkpt><trkpt lat="43.324492" lon="13.0853286"><ele>888.0</ele><time>2026-04-26T11:30:39.276Z</time></trkpt><trkpt lat="43.3245485" lon="13.0854771"><ele>888.0</ele><time>2026-04-26T11:30:40.276Z</time></trkpt><trkpt lat="43.3245961" lon="13.085646"><ele>888.0</ele><time>2026-04-26T11:30:41.276Z</time></trkpt><trkpt lat="43.3246427" lon="13.0858244"><ele>888.0</ele><time>2026-04-26T11:30:42.276Z</time></trkpt><trkpt lat="43.3246932" lon="13.0860064"><ele>888.0</ele><time>2026-04-26T11:30:43.276Z</time></trkpt><trkpt lat="43.3247427" lon="13.0861843"><ele>889.0</ele><time>2026-04-26T11:30:44.276Z</time></trkpt><trkpt lat="43.3247908" lon="13.0863523"><ele>890.0</ele><time>2026-04-26T11:30:45.276Z</time></trkpt><trkpt lat="43.3248373" lon="13.0865078"><ele>891.0</ele><time>2026-04-26T11:30:46.276Z</time></trkpt><trkpt lat="43.3248874" lon="13.0866627"><ele>892.0</ele><time>2026-04-26T11:30:47.276Z</time></trkpt><trkpt lat="43.324939" lon="13.0868213"><ele>892.0</ele><time>2026-04-26T11:30:48.276Z</time></trkpt><trkpt lat="43.3249727" lon="13.0869794"><ele>892.0</ele><time>2026-04-26T11:30:49.276Z</time></trkpt><trkpt lat="43.3249891" lon="13.0871397"><ele>892.0</ele><time>2026-04-26T11:30:50.276Z</time></trkpt><trkpt lat="43.3249896" lon="13.0873036"><ele>892.0</ele><time>2026-04-26T11:30:51.276Z</time></trkpt><trkpt lat="43.3249671" lon="13.0874623"><ele>891.0</ele><time>2026-04-26T11:30:52.276Z</time></trkpt><trkpt lat="43.3249196" lon="13.0876147"><ele>890.0</ele><time>2026-04-26T11:30:53.276Z</time></trkpt><trkpt lat="43.3248459" lon="13.0877521"><ele>889.0</ele><time>2026-04-26T11:30:54.276Z</time></trkpt><trkpt lat="43.3247567" lon="13.0878656"><ele>888.0</ele><time>2026-04-26T11:30:55.276Z</time></trkpt><trkpt lat="43.3246554" lon="13.0879753"><ele>883.75</ele><time>2026-04-26T11:30:56.276Z</time></trkpt><trkpt lat="43.3245483" lon="13.0880783"><ele>879.5</ele><time>2026-04-26T11:30:57.276Z</time></trkpt><trkpt lat="43.324455" lon="13.0881883"><ele>875.25</ele><time>2026-04-26T11:30:58.276Z</time></trkpt><trkpt lat="43.32436" lon="13.0883067"><ele>871.0</ele><time>2026-04-26T11:30:59.276Z</time></trkpt><trkpt lat="43.3242783" lon="13.0884383"><ele>871.0</ele><time>2026-04-26T11:31:00.276Z</time></trkpt><trkpt lat="43.324205" lon="13.0885783"><ele>871.0</ele><time>2026-04-26T11:31:01.276Z</time></trkpt><trkpt lat="43.324155" lon="13.08873"><ele>871.0</ele><time>2026-04-26T11:31:02.277Z</time></trkpt><trkpt lat="43.3241267" lon="13.0888833"><ele>871.0</ele><time>2026-04-26T11:31:03.276Z</time></trkpt><trkpt lat="43.3241167" lon="13.0890483"><ele>872.5</ele><time>2026-04-26T11:31:04.276Z</time></trkpt><trkpt lat="43.3241183" lon="13.0892283"><ele>874.0</ele><time>2026-04-26T11:31:05.277Z</time></trkpt><trkpt lat="43.324115" lon="13.0893933"><ele>875.5</ele><time>2026-04-26T11:31:06.277Z</time></trkpt><trkpt lat="43.32411" lon="13.08955"><ele>877.0</ele><time>2026-04-26T11:31:07.276Z</time></trkpt><trkpt lat="43.3240883" lon="13.0897233"><ele>877.0</ele><time>2026-04-26T11:31:08.276Z</time></trkpt><trkpt lat="43.32405" lon="13.08989"><ele>877.0</ele><time>2026-04-26T11:31:09.277Z</time></trkpt><trkpt lat="43.3240067" lon="13.0900567"><ele>877.0</ele><time>2026-04-26T11:31:10.276Z</time></trkpt><trkpt lat="43.323955" lon="13.0902167"><ele>877.0</ele><time>2026-04-26T11:31:11.276Z</time></trkpt><trkpt lat="43.3238933" lon="13.0903767"><ele>871.0</ele><time>2026-04-26T11:31:12.276Z</time></trkpt><trkpt lat="43.3238383" lon="13.090525"><ele>865.0</ele><time>2026-04-26T11:31:13.276Z</time></trkpt><trkpt lat="43.3237867" lon="13.0906817"><ele>859.0</ele><time>2026-04-26T11:31:14.276Z</time></trkpt><trkpt lat="43.3237317" lon="13.0908317"><ele>853.0</ele><time>2026-04-26T11:31:15.277Z</time></trkpt><trkpt lat="43.3236717" lon="13.0909783"><ele>853.0</ele><time>2026-04-26T11:31:16.276Z</time></trkpt><trkpt lat="43.3236133" lon="13.091115"><ele>853.0</ele><time>2026-04-26T11:31:17.276Z</time></trkpt><trkpt lat="43.3235733" lon="13.0912667"><ele>853.0</ele><time>2026-04-26T11:31:18.276Z</time></trkpt><trkpt lat="43.3235333" lon="13.0914133"><ele>853.0</ele><time>2026-04-26T11:31:19.276Z</time></trkpt><trkpt lat="43.323505" lon="13.0915783"><ele>854.25</ele><time>2026-04-26T11:31:20.277Z</time></trkpt><trkpt lat="43.3234783" lon="13.0917333"><ele>855.5</ele><time>2026-04-26T11:31:21.276Z</time></trkpt><trkpt lat="43.3234533" lon="13.091895"><ele>856.75</ele><time>2026-04-26T11:31:22.276Z</time></trkpt><trkpt lat="43.3234317" lon="13.09206"><ele>858.0</ele><time>2026-04-26T11:31:23.277Z</time></trkpt><trkpt lat="43.3234033" lon="13.0922383"><ele>858.0</ele><time>2026-04-26T11:31:24.276Z</time></trkpt><trkpt lat="43.3233733" lon="13.0924217"><ele>858.0</ele><time>2026-04-26T11:31:25.276Z</time></trkpt><trkpt lat="43.3233317" lon="13.0925933"><ele>858.0</ele><time>2026-04-26T11:31:26.276Z</time></trkpt><trkpt lat="43.3232833" lon="13.0927683"><ele>858.0</ele><time>2026-04-26T11:31:27.276Z</time></trkpt><trkpt lat="43.32323" lon="13.0929333"><ele>858.75</ele><time>2026-04-26T11:31:28.277Z</time></trkpt><trkpt lat="43.32317" lon="13.0930933"><ele>859.5</ele><time>2026-04-26T11:31:29.276Z</time></trkpt><trkpt lat="43.3231167" lon="13.093255"><ele>860.25</ele><time>2026-04-26T11:31:30.276Z</time></trkpt><trkpt lat="43.3230767" lon="13.093415"><ele>861.0</ele><time>2026-04-26T11:31:31.276Z</time></trkpt><trkpt lat="43.3230517" lon="13.093585"><ele>861.25</ele><time>2026-04-26T11:31:32.276Z</time></trkpt><trkpt lat="43.3230433" lon="13.09376"><ele>861.5</ele><time>2026-04-26T11:31:33.276Z</time></trkpt><trkpt lat="43.3230467" lon="13.0939483"><ele>861.75</ele><time>2026-04-26T11:31:34.276Z</time></trkpt><trkpt lat="43.323055" lon="13.0941267"><ele>862.0</ele><time>2026-04-26T11:31:35.276Z</time></trkpt><trkpt lat="43.323075" lon="13.0943017"><ele>862.0</ele><time>2026-04-26T11:31:36.276Z</time></trkpt><trkpt lat="43.323095" lon="13.0944717"><ele>862.0</ele><time>2026-04-26T11:31:37.276Z</time></trkpt><trkpt lat="43.3231233" lon="13.0946367"><ele>862.0</ele><time>2026-04-26T11:31:38.276Z</time></trkpt><trkpt lat="43.3231517" lon="13.094795"><ele>862.0</ele><time>2026-04-26T11:31:39.276Z</time></trkpt><trkpt lat="43.323195" lon="13.0949367"><ele>859.4000000000001</ele><time>2026-04-26T11:31:40.276Z</time></trkpt><trkpt lat="43.3232533" lon="13.0950617"><ele>856.8000000000001</ele><time>2026-04-26T11:31:41.276Z</time></trkpt><trkpt lat="43.3233267" lon="13.0951717"><ele>854.2</ele><time>2026-04-26T11:31:42.276Z</time></trkpt><trkpt lat="43.3234067" lon="13.0952567"><ele>851.6</ele><time>2026-04-26T11:31:43.276Z</time></trkpt><trkpt lat="43.3235033" lon="13.0953417"><ele>849.0</ele><time>2026-04-26T11:31:44.276Z</time></trkpt><trkpt lat="43.3236083" lon="13.0954233"><ele>849.0</ele><time>2026-04-26T11:31:45.276Z</time></trkpt><trkpt lat="43.3237183" lon="13.0954967"><ele>849.0</ele><time>2026-04-26T11:31:46.276Z</time></trkpt><trkpt lat="43.3238317" lon="13.09556"><ele>849.0</ele><time>2026-04-26T11:31:47.276Z</time></trkpt><trkpt lat="43.3239433" lon="13.09563"><ele>849.0</ele><time>2026-04-26T11:31:48.276Z</time></trkpt><trkpt lat="43.3240517" lon="13.0956983"><ele>848.3333333333334</ele><time>2026-04-26T11:31:49.276Z</time></trkpt><trkpt lat="43.32415" lon="13.09575"><ele>847.6666666666667</ele><time>2026-04-26T11:31:50.276Z</time></trkpt><trkpt lat="43.3242367" lon="13.0958"><ele>847.0</ele><time>2026-04-26T11:31:51.276Z</time></trkpt><trkpt lat="43.3243083" lon="13.0958667"><ele>846.3333333333334</ele><time>2026-04-26T11:31:52.276Z</time></trkpt><trkpt lat="43.3243567" lon="13.0959383"><ele>845.6666666666667</ele><time>2026-04-26T11:31:53.277Z</time></trkpt><trkpt lat="43.32437" lon="13.0960267"><ele>845.0</ele><time>2026-04-26T11:31:54.276Z</time></trkpt><trkpt lat="43.324355" lon="13.09612"><ele>845.0</ele><time>2026-04-26T11:31:55.276Z</time></trkpt><trkpt lat="43.3243133" lon="13.0962217"><ele>845.0</ele><time>2026-04-26T11:31:56.276Z</time></trkpt><trkpt lat="43.3242367" lon="13.0963183"><ele>845.0</ele><time>2026-04-26T11:31:57.276Z</time></trkpt><trkpt lat="43.3241217" lon="13.096425"><ele>845.0</ele><time>2026-04-26T11:31:58.276Z</time></trkpt><trkpt lat="43.324005" lon="13.0965267"><ele>846.0</ele><time>2026-04-26T11:31:59.276Z</time></trkpt><trkpt lat="43.3239" lon="13.0966283"><ele>847.0</ele><time>2026-04-26T11:32:00.276Z</time></trkpt><trkpt lat="43.3238067" lon="13.0967267"><ele>848.0</ele><time>2026-04-26T11:32:01.276Z</time></trkpt><trkpt lat="43.3237167" lon="13.0968133"><ele>849.0</ele><time>2026-04-26T11:32:02.276Z</time></trkpt><trkpt lat="43.3236267" lon="13.0969"><ele>842.0</ele><time>2026-04-26T11:32:03.276Z</time></trkpt><trkpt lat="43.3235267" lon="13.09699"><ele>835.0</ele><time>2026-04-26T11:32:04.276Z</time></trkpt><trkpt lat="43.32343" lon="13.0970817"><ele>828.0</ele><time>2026-04-26T11:32:05.276Z</time></trkpt><trkpt lat="43.323345" lon="13.09717"><ele>821.0</ele><time>2026-04-26T11:32:06.276Z</time></trkpt><trkpt lat="43.3232767" lon="13.09727"><ele>814.0</ele><time>2026-04-26T11:32:07.276Z</time></trkpt><trkpt lat="43.3232233" lon="13.097385"><ele>817.4000000000001</ele><time>2026-04-26T11:32:08.276Z</time></trkpt><trkpt lat="43.3231733" lon="13.0975033"><ele>820.8</ele><time>2026-04-26T11:32:09.276Z</time></trkpt><trkpt lat="43.3231267" lon="13.097635"><ele>824.2</ele><time>2026-04-26T11:32:10.276Z</time></trkpt><trkpt lat="43.3230883" lon="13.0977767"><ele>827.5999999999999</ele><time>2026-04-26T11:32:11.276Z</time></trkpt><trkpt lat="43.3230633" lon="13.097925"><ele>831.0</ele><time>2026-04-26T11:32:12.276Z</time></trkpt><trkpt lat="43.3230417" lon="13.0980667"><ele>823.5999999999999</ele><time>2026-04-26T11:32:13.276Z</time></trkpt><trkpt lat="43.323025" lon="13.09821"><ele>816.2</ele><time>2026-04-26T11:32:14.276Z</time></trkpt><trkpt lat="43.3230117" lon="13.0983517"><ele>808.8</ele><time>2026-04-26T11:32:15.276Z</time></trkpt><trkpt lat="43.3229983" lon="13.098495"><ele>801.4000000000001</ele><time>2026-04-26T11:32:16.276Z</time></trkpt><trkpt lat="43.322985" lon="13.098645"><ele>794.0</ele><time>2026-04-26T11:32:17.276Z</time></trkpt><trkpt lat="43.3229717" lon="13.0988033"><ele>794.0</ele><time>2026-04-26T11:32:18.276Z</time></trkpt><trkpt lat="43.3229583" lon="13.098965"><ele>794.0</ele><time>2026-04-26T11:32:19.276Z</time></trkpt><trkpt lat="43.3229533" lon="13.099125"><ele>794.0</ele><time>2026-04-26T11:32:20.277Z</time></trkpt><trkpt lat="43.3229533" lon="13.09927"><ele>794.0</ele><time>2026-04-26T11:32:21.276Z</time></trkpt><trkpt lat="43.3229633" lon="13.099385"><ele>794.0</ele><time>2026-04-26T11:32:22.276Z</time></trkpt><trkpt lat="43.32299" lon="13.0994917"><ele>793.6</ele><time>2026-04-26T11:32:23.276Z</time></trkpt><trkpt lat="43.32304" lon="13.0995883"><ele>793.2</ele><time>2026-04-26T11:32:24.276Z</time></trkpt><trkpt lat="43.3231083" lon="13.0996583"><ele>792.8000000000001</ele><time>2026-04-26T11:32:25.276Z</time></trkpt><trkpt lat="43.3231833" lon="13.0997117"><ele>792.4000000000001</ele><time>2026-04-26T11:32:26.277Z</time></trkpt><trkpt lat="43.3232467" lon="13.099775"><ele>792.0</ele><time>2026-04-26T11:32:27.276Z</time></trkpt><trkpt lat="43.323265" lon="13.09994"><ele>791.5</ele><time>2026-04-26T11:32:29.276Z</time></trkpt><trkpt lat="43.3232233" lon="13.1000283"><ele>791.0</ele><time>2026-04-26T11:32:30.276Z</time></trkpt><trkpt lat="43.32316" lon="13.1001233"><ele>790.5</ele><time>2026-04-26T11:32:31.276Z</time></trkpt><trkpt lat="43.3231033" lon="13.1002117"><ele>790.0</ele><time>2026-04-26T11:32:32.276Z</time></trkpt><trkpt lat="43.3230567" lon="13.100315"><ele>789.5</ele><time>2026-04-26T11:32:33.276Z</time></trkpt><trkpt lat="43.323045" lon="13.100425"><ele>789.0</ele><time>2026-04-26T11:32:34.276Z</time></trkpt><trkpt lat="43.3230633" lon="13.1005333"><ele>794.1666666666666</ele><time>2026-04-26T11:32:35.276Z</time></trkpt><trkpt lat="43.3231167" lon="13.1006367"><ele>799.3333333333333</ele><time>2026-04-26T11:32:36.276Z</time></trkpt><trkpt lat="43.3231833" lon="13.1007183"><ele>804.5</ele><time>2026-04-26T11:32:37.276Z</time></trkpt><trkpt lat="43.3232583" lon="13.100795"><ele>809.6666666666666</ele><time>2026-04-26T11:32:38.276Z</time></trkpt><trkpt lat="43.3233133" lon="13.1008883"><ele>814.8333333333333</ele><time>2026-04-26T11:32:39.276Z</time></trkpt><trkpt lat="43.3233467" lon="13.100995"><ele>820.0</ele><time>2026-04-26T11:32:40.276Z</time></trkpt><trkpt lat="43.323355" lon="13.1011117"><ele>820.0</ele><time>2026-04-26T11:32:41.276Z</time></trkpt><trkpt lat="43.323335" lon="13.101245"><ele>820.0</ele><time>2026-04-26T11:32:42.276Z</time></trkpt><trkpt lat="43.32329" lon="13.10137"><ele>820.0</ele><time>2026-04-26T11:32:43.276Z</time></trkpt><trkpt lat="43.323235" lon="13.1014983"><ele>820.0</ele><time>2026-04-26T11:32:44.276Z</time></trkpt><trkpt lat="43.3231733" lon="13.1016067"><ele>820.0</ele><time>2026-04-26T11:32:45.276Z</time></trkpt><trkpt lat="43.323105" lon="13.1017083"><ele>815.0</ele><time>2026-04-26T11:32:46.276Z</time></trkpt><trkpt lat="43.3230367" lon="13.1018"><ele>810.0</ele><time>2026-04-26T11:32:47.276Z</time></trkpt><trkpt lat="43.3229667" lon="13.1018733"><ele>805.0</ele><time>2026-04-26T11:32:48.277Z</time></trkpt><trkpt lat="43.3228867" lon="13.1019267"><ele>800.0</ele><time>2026-04-26T11:32:49.276Z</time></trkpt><trkpt lat="43.3227983" lon="13.1019767"><ele>795.0</ele><time>2026-04-26T11:32:50.277Z</time></trkpt><trkpt lat="43.322705" lon="13.1020117"><ele>795.0</ele><time>2026-04-26T11:32:51.276Z</time></trkpt><trkpt lat="43.322615" lon="13.102045"><ele>795.0</ele><time>2026-04-26T11:32:52.276Z</time></trkpt><trkpt lat="43.3225333" lon="13.1020867"><ele>795.0</ele><time>2026-04-26T11:32:53.276Z</time></trkpt><trkpt lat="43.32246" lon="13.102155"><ele>795.0</ele><time>2026-04-26T11:32:54.276Z</time></trkpt><trkpt lat="43.3223983" lon="13.10224"><ele>795.0</ele><time>2026-04-26T11:32:55.276Z</time></trkpt><trkpt lat="43.32236" lon="13.10234"><ele>795.0</ele><time>2026-04-26T11:32:56.276Z</time></trkpt><trkpt lat="43.322335" lon="13.10244"><ele>796.6666666666666</ele><time>2026-04-26T11:32:57.276Z</time></trkpt><trkpt lat="43.3223117" lon="13.1025433"><ele>798.3333333333333</ele><time>2026-04-26T11:32:58.276Z</time></trkpt><trkpt lat="43.3223" lon="13.1026367"><ele>800.0</ele><time>2026-04-26T11:32:59.276Z</time></trkpt><trkpt lat="43.3222917" lon="13.1027267"><ele>801.6666666666666</ele><time>2026-04-26T11:33:00.276Z</time></trkpt><trkpt lat="43.3222733" lon="13.1028567"><ele>803.3333333333333</ele><time>2026-04-26T11:33:02.277Z</time></trkpt><trkpt lat="43.3222117" lon="13.1029233"><ele>805.0</ele><time>2026-04-26T11:33:05.276Z</time></trkpt><trkpt lat="43.3221783" lon="13.1028333"><ele>797.4</ele><time>2026-04-26T11:33:07.276Z</time></trkpt><trkpt lat="43.3221817" lon="13.102735"><ele>789.8</ele><time>2026-04-26T11:33:08.276Z</time></trkpt><trkpt lat="43.32218" lon="13.10261"><ele>782.2</ele><time>2026-04-26T11:33:09.276Z</time></trkpt><trkpt lat="43.322175" lon="13.1024567"><ele>774.6</ele><time>2026-04-26T11:33:10.276Z</time></trkpt><trkpt lat="43.3221683" lon="13.1022917"><ele>767.0</ele><time>2026-04-26T11:33:11.276Z</time></trkpt><trkpt lat="43.32216" lon="13.102125"><ele>765.5</ele><time>2026-04-26T11:33:12.276Z</time></trkpt><trkpt lat="43.3221533" lon="13.1019533"><ele>764.0</ele><time>2026-04-26T11:33:13.276Z</time></trkpt><trkpt lat="43.3221633" lon="13.1017917"><ele>762.5</ele><time>2026-04-26T11:33:14.276Z</time></trkpt><trkpt lat="43.3222" lon="13.1016317"><ele>761.0</ele><time>2026-04-26T11:33:15.277Z</time></trkpt><trkpt lat="43.3222533" lon="13.10149"><ele>766.1999999999999</ele><time>2026-04-26T11:33:16.276Z</time></trkpt><trkpt lat="43.3223183" lon="13.1013733"><ele>771.4</ele><time>2026-04-26T11:33:17.276Z</time></trkpt><trkpt lat="43.3223967" lon="13.101295"><ele>776.6</ele><time>2026-04-26T11:33:18.276Z</time></trkpt><trkpt lat="43.32248" lon="13.1012417"><ele>781.8</ele><time>2026-04-26T11:33:19.276Z</time></trkpt><trkpt lat="43.32255" lon="13.10118"><ele>787.0</ele><time>2026-04-26T11:33:20.276Z</time></trkpt><trkpt lat="43.322595" lon="13.1011017"><ele>787.0</ele><time>2026-04-26T11:33:21.276Z</time></trkpt><trkpt lat="43.3225983" lon="13.1009933"><ele>787.0</ele><time>2026-04-26T11:33:22.277Z</time></trkpt><trkpt lat="43.32256" lon="13.1008783"><ele>787.0</ele><time>2026-04-26T11:33:23.276Z</time></trkpt><trkpt lat="43.3225033" lon="13.1007583"><ele>787.0</ele><time>2026-04-26T11:33:24.276Z</time></trkpt><trkpt lat="43.3224167" lon="13.1006483"><ele>787.0</ele><time>2026-04-26T11:33:25.276Z</time></trkpt><trkpt lat="43.3223333" lon="13.100545"><ele>787.4000000000001</ele><time>2026-04-26T11:33:26.276Z</time></trkpt><trkpt lat="43.3222533" lon="13.1004633"><ele>787.8000000000001</ele><time>2026-04-26T11:33:27.277Z</time></trkpt><trkpt lat="43.3221833" lon="13.1003633"><ele>788.2</ele><time>2026-04-26T11:33:28.276Z</time></trkpt><trkpt lat="43.3221517" lon="13.1002483"><ele>788.6</ele><time>2026-04-26T11:33:29.276Z</time></trkpt><trkpt lat="43.3221617" lon="13.100105"><ele>789.0</ele><time>2026-04-26T11:33:30.276Z</time></trkpt><trkpt lat="43.32218" lon="13.0999467"><ele>781.6</ele><time>2026-04-26T11:33:31.276Z</time></trkpt><trkpt lat="43.3221933" lon="13.0997917"><ele>774.2</ele><time>2026-04-26T11:33:32.277Z</time></trkpt><trkpt lat="43.3221867" lon="13.0996433"><ele>766.8000000000001</ele><time>2026-04-26T11:33:33.276Z</time></trkpt><trkpt lat="43.3221583" lon="13.0995"><ele>759.4000000000001</ele><time>2026-04-26T11:33:34.276Z</time></trkpt><trkpt lat="43.32212" lon="13.0993583"><ele>752.0</ele><time>2026-04-26T11:33:35.276Z</time></trkpt><trkpt lat="43.322085" lon="13.0991833"><ele>752.0</ele><time>2026-04-26T11:33:36.276Z</time></trkpt><trkpt lat="43.3220717" lon="13.09899"><ele>752.0</ele><time>2026-04-26T11:33:37.276Z</time></trkpt><trkpt lat="43.3220633" lon="13.0988"><ele>752.0</ele><time>2026-04-26T11:33:38.276Z</time></trkpt><trkpt lat="43.3220483" lon="13.0986133"><ele>752.0</ele><time>2026-04-26T11:33:39.276Z</time></trkpt><trkpt lat="43.3220417" lon="13.0984283"><ele>751.75</ele><time>2026-04-26T11:33:40.276Z</time></trkpt><trkpt lat="43.322025" lon="13.09825"><ele>751.5</ele><time>2026-04-26T11:33:41.276Z</time></trkpt><trkpt lat="43.3220133" lon="13.0980717"><ele>751.25</ele><time>2026-04-26T11:33:42.276Z</time></trkpt><trkpt lat="43.3220033" lon="13.097905"><ele>751.0</ele><time>2026-04-26T11:33:43.276Z</time></trkpt><trkpt lat="43.321995" lon="13.0977317"><ele>751.0</ele><time>2026-04-26T11:33:44.276Z</time></trkpt><trkpt lat="43.32198" lon="13.0975583"><ele>751.0</ele><time>2026-04-26T11:33:45.276Z</time></trkpt><trkpt lat="43.321965" lon="13.0973867"><ele>751.0</ele><time>2026-04-26T11:33:46.277Z</time></trkpt><trkpt lat="43.3219517" lon="13.097225"><ele>751.0</ele><time>2026-04-26T11:33:47.276Z</time></trkpt><trkpt lat="43.321935" lon="13.09707"><ele>751.0</ele><time>2026-04-26T11:33:48.276Z</time></trkpt><trkpt lat="43.321925" lon="13.0969283"><ele>751.0</ele><time>2026-04-26T11:33:49.276Z</time></trkpt><trkpt lat="43.321915" lon="13.0968083"><ele>751.0</ele><time>2026-04-26T11:33:50.276Z</time></trkpt><trkpt lat="43.3219183" lon="13.096685"><ele>751.0</ele><time>2026-04-26T11:33:51.276Z</time></trkpt><trkpt lat="43.3219333" lon="13.096575"><ele>751.0</ele><time>2026-04-26T11:33:52.276Z</time></trkpt><trkpt lat="43.3219433" lon="13.0964733"><ele>751.0</ele><time>2026-04-26T11:33:53.276Z</time></trkpt><trkpt lat="43.32194" lon="13.0963767"><ele>752.1999999999999</ele><time>2026-04-26T11:33:54.276Z</time></trkpt><trkpt lat="43.321915" lon="13.0962783"><ele>753.4</ele><time>2026-04-26T11:33:55.276Z</time></trkpt><trkpt lat="43.3218733" lon="13.0961683"><ele>754.6</ele><time>2026-04-26T11:33:56.276Z</time></trkpt><trkpt lat="43.3218233" lon="13.09605"><ele>755.8</ele><time>2026-04-26T11:33:57.276Z</time></trkpt><trkpt lat="43.3217817" lon="13.095935"><ele>757.0</ele><time>2026-04-26T11:33:58.276Z</time></trkpt><trkpt lat="43.321735" lon="13.0958133"><ele>759.4000000000001</ele><time>2026-04-26T11:33:59.276Z</time></trkpt><trkpt lat="43.3216967" lon="13.0956917"><ele>761.8000000000001</ele><time>2026-04-26T11:34:00.276Z</time></trkpt><trkpt lat="43.3216717" lon="13.09555"><ele>764.2</ele><time>2026-04-26T11:34:01.277Z</time></trkpt><trkpt lat="43.3216483" lon="13.0954033"><ele>766.6</ele><time>2026-04-26T11:34:02.276Z</time></trkpt><trkpt lat="43.3216233" lon="13.0952567"><ele>769.0</ele><time>2026-04-26T11:34:03.276Z</time></trkpt><trkpt lat="43.3216067" lon="13.0951033"><ele>769.0</ele><time>2026-04-26T11:34:04.276Z</time></trkpt><trkpt lat="43.321585" lon="13.0949433"><ele>769.0</ele><time>2026-04-26T11:34:05.276Z</time></trkpt><trkpt lat="43.321565" lon="13.09478"><ele>769.0</ele><time>2026-04-26T11:34:06.276Z</time></trkpt><trkpt lat="43.32155" lon="13.09461"><ele>769.0</ele><time>2026-04-26T11:34:07.276Z</time></trkpt><trkpt lat="43.32154" lon="13.0944417"><ele>770.25</ele><time>2026-04-26T11:34:08.276Z</time></trkpt><trkpt lat="43.321535" lon="13.0942733"><ele>771.5</ele><time>2026-04-26T11:34:09.276Z</time></trkpt><trkpt lat="43.32153" lon="13.094105"><ele>772.75</ele><time>2026-04-26T11:34:10.276Z</time></trkpt><trkpt lat="43.3215217" lon="13.093935"><ele>774.0</ele><time>2026-04-26T11:34:11.276Z</time></trkpt><trkpt lat="43.321515" lon="13.0937817"><ele>774.5</ele><time>2026-04-26T11:34:12.276Z</time></trkpt><trkpt lat="43.3215067" lon="13.0936267"><ele>775.0</ele><time>2026-04-26T11:34:13.276Z</time></trkpt><trkpt lat="43.3214967" lon="13.093465"><ele>775.5</ele><time>2026-04-26T11:34:14.277Z</time></trkpt><trkpt lat="43.321485" lon="13.0933083"><ele>776.0</ele><time>2026-04-26T11:34:15.276Z</time></trkpt><trkpt lat="43.3214767" lon="13.093165"><ele>776.0</ele><time>2026-04-26T11:34:16.276Z</time></trkpt><trkpt lat="43.3214683" lon="13.0930317"><ele>776.0</ele><time>2026-04-26T11:34:17.276Z</time></trkpt><trkpt lat="43.3214533" lon="13.0929083"><ele>776.0</ele><time>2026-04-26T11:34:18.276Z</time></trkpt><trkpt lat="43.321435" lon="13.09279"><ele>776.0</ele><time>2026-04-26T11:34:19.276Z</time></trkpt><trkpt lat="43.3214133" lon="13.0926767"><ele>776.0</ele><time>2026-04-26T11:34:20.276Z</time></trkpt><trkpt lat="43.3213717" lon="13.0925583"><ele>771.0</ele><time>2026-04-26T11:34:21.276Z</time></trkpt><trkpt lat="43.32131" lon="13.0924417"><ele>766.0</ele><time>2026-04-26T11:34:22.276Z</time></trkpt><trkpt lat="43.3212417" lon="13.0923317"><ele>761.0</ele><time>2026-04-26T11:34:23.276Z</time></trkpt><trkpt lat="43.3211733" lon="13.092225"><ele>756.0</ele><time>2026-04-26T11:34:24.276Z</time></trkpt><trkpt lat="43.3211067" lon="13.0921283"><ele>751.0</ele><time>2026-04-26T11:34:25.276Z</time></trkpt><trkpt lat="43.3210367" lon="13.0920433"><ele>751.0</ele><time>2026-04-26T11:34:26.276Z</time></trkpt><trkpt lat="43.3209717" lon="13.09196"><ele>751.0</ele><time>2026-04-26T11:34:27.276Z</time></trkpt><trkpt lat="43.3209033" lon="13.0918733"><ele>751.0</ele><time>2026-04-26T11:34:28.276Z</time></trkpt><trkpt lat="43.32084" lon="13.091795"><ele>751.0</ele><time>2026-04-26T11:34:29.276Z</time></trkpt><trkpt lat="43.3207783" lon="13.0917133"><ele>751.0</ele><time>2026-04-26T11:34:30.276Z</time></trkpt><trkpt lat="43.32072" lon="13.0916383"><ele>751.0</ele><time>2026-04-26T11:34:31.276Z</time></trkpt><trkpt lat="43.3206683" lon="13.0915717"><ele>752.0</ele><time>2026-04-26T11:34:32.276Z</time></trkpt><trkpt lat="43.3205567" lon="13.091505"><ele>753.0</ele><time>2026-04-26T11:34:34.276Z</time></trkpt><trkpt lat="43.32048" lon="13.09148"><ele>754.0</ele><time>2026-04-26T11:34:35.276Z</time></trkpt><trkpt lat="43.32039" lon="13.0914583"><ele>755.0</ele><time>2026-04-26T11:34:36.276Z</time></trkpt><trkpt lat="43.3203" lon="13.091425"><ele>756.0</ele><time>2026-04-26T11:34:37.276Z</time></trkpt><trkpt lat="43.3202117" lon="13.0913883"><ele>756.0</ele><time>2026-04-26T11:34:38.276Z</time></trkpt><trkpt lat="43.32013" lon="13.091335"><ele>756.0</ele><time>2026-04-26T11:34:39.276Z</time></trkpt><trkpt lat="43.3200567" lon="13.0912817"><ele>756.0</ele><time>2026-04-26T11:34:40.276Z</time></trkpt><trkpt lat="43.319985" lon="13.09123"><ele>756.0</ele><time>2026-04-26T11:34:41.276Z</time></trkpt><trkpt lat="43.3199217" lon="13.0911917"><ele>756.0</ele><time>2026-04-26T11:34:42.276Z</time></trkpt><trkpt lat="43.3198533" lon="13.0911567"><ele>756.0</ele><time>2026-04-26T11:34:43.276Z</time></trkpt><trkpt lat="43.3197867" lon="13.0911517"><ele>756.0</ele><time>2026-04-26T11:34:44.276Z</time></trkpt><trkpt lat="43.3197183" lon="13.0911667"><ele>756.0</ele><time>2026-04-26T11:34:45.276Z</time></trkpt><trkpt lat="43.319645" lon="13.091225"><ele>756.0</ele><time>2026-04-26T11:34:46.276Z</time></trkpt><trkpt lat="43.3195817" lon="13.0912967"><ele>756.0</ele><time>2026-04-26T11:34:47.276Z</time></trkpt><trkpt lat="43.3195167" lon="13.0913667"><ele>756.0</ele><time>2026-04-26T11:34:48.276Z</time></trkpt><trkpt lat="43.3194567" lon="13.0914233"><ele>756.0</ele><time>2026-04-26T11:34:49.277Z</time></trkpt><trkpt lat="43.3193967" lon="13.09148"><ele>756.0</ele><time>2026-04-26T11:34:50.276Z</time></trkpt><trkpt lat="43.3193367" lon="13.09153"><ele>756.0</ele><time>2026-04-26T11:34:51.276Z</time></trkpt><trkpt lat="43.3192717" lon="13.0915717"><ele>756.0</ele><time>2026-04-26T11:34:52.276Z</time></trkpt><trkpt lat="43.3192083" lon="13.0916183"><ele>756.0</ele><time>2026-04-26T11:34:53.277Z</time></trkpt><trkpt lat="43.3191467" lon="13.0916767"><ele>756.0</ele><time>2026-04-26T11:34:54.276Z</time></trkpt><trkpt lat="43.319095" lon="13.0917267"><ele>756.0</ele><time>2026-04-26T11:34:55.276Z</time></trkpt><trkpt lat="43.3190233" lon="13.0918483"><ele>755.5</ele><time>2026-04-26T11:34:57.276Z</time></trkpt><trkpt lat="43.3189967" lon="13.091935"><ele>755.0</ele><time>2026-04-26T11:34:58.276Z</time></trkpt><trkpt lat="43.3189633" lon="13.0921117"><ele>754.5</ele><time>2026-04-26T11:35:00.276Z</time></trkpt><trkpt lat="43.31895" lon="13.0922017"><ele>754.0</ele><time>2026-04-26T11:35:01.276Z</time></trkpt><trkpt lat="43.318935" lon="13.09229"><ele>753.5</ele><time>2026-04-26T11:35:02.276Z</time></trkpt><trkpt lat="43.3189083" lon="13.0923833"><ele>753.0</ele><time>2026-04-26T11:35:03.276Z</time></trkpt><trkpt lat="43.3188533" lon="13.0925167"><ele>754.5</ele><time>2026-04-26T11:35:05.276Z</time></trkpt><trkpt lat="43.3188283" lon="13.0926417"><ele>756.0</ele><time>2026-04-26T11:35:07.276Z</time></trkpt><trkpt lat="43.318801" lon="13.0927667"><ele>757.5</ele><time>2026-04-26T11:35:09.276Z</time></trkpt><trkpt lat="43.3187568" lon="13.0929156"><ele>759.0</ele><time>2026-04-26T11:35:11.276Z</time></trkpt><trkpt lat="43.3187418" lon="13.093004"><ele>760.5</ele><time>2026-04-26T11:35:12.276Z</time></trkpt><trkpt lat="43.3187239" lon="13.0930905"><ele>762.0</ele><time>2026-04-26T11:35:13.276Z</time></trkpt><trkpt lat="43.3186889" lon="13.0932451"><ele>763.1666666666666</ele><time>2026-04-26T11:35:15.276Z</time></trkpt><trkpt lat="43.3186601" lon="13.0934092"><ele>764.3333333333333</ele><time>2026-04-26T11:35:17.276Z</time></trkpt><trkpt lat="43.3186117" lon="13.0935601"><ele>765.5</ele><time>2026-04-26T11:35:19.276Z</time></trkpt><trkpt lat="43.3185782" lon="13.0936375"><ele>766.6666666666666</ele><time>2026-04-26T11:35:20.276Z</time></trkpt><trkpt lat="43.3185449" lon="13.0937188"><ele>767.8333333333333</ele><time>2026-04-26T11:35:21.276Z</time></trkpt><trkpt lat="43.3185097" lon="13.0937999"><ele>769.0</ele><time>2026-04-26T11:35:22.276Z</time></trkpt><trkpt lat="43.3184754" lon="13.0938785"><ele>769.0</ele><time>2026-04-26T11:35:23.276Z</time></trkpt><trkpt lat="43.3183999" lon="13.0940121"><ele>769.0</ele><time>2026-04-26T11:35:25.277Z</time></trkpt><trkpt lat="43.3183299" lon="13.0941387"><ele>769.0</ele><time>2026-04-26T11:35:27.276Z</time></trkpt><trkpt lat="43.3183012" lon="13.0942851"><ele>769.0</ele><time>2026-04-26T11:35:29.276Z</time></trkpt><trkpt lat="43.318291" lon="13.0944439"><ele>770.0</ele><time>2026-04-26T11:35:31.276Z</time></trkpt><trkpt lat="43.3183103" lon="13.0945268"><ele>771.0</ele><time>2026-04-26T11:35:32.276Z</time></trkpt><trkpt lat="43.3183315" lon="13.0946158"><ele>772.0</ele><time>2026-04-26T11:35:33.276Z</time></trkpt><trkpt lat="43.3183527" lon="13.0947186"><ele>773.0</ele><time>2026-04-26T11:35:34.276Z</time></trkpt><trkpt lat="43.318373" lon="13.0948167"><ele>774.0</ele><time>2026-04-26T11:35:35.277Z</time></trkpt><trkpt lat="43.3183972" lon="13.0949108"><ele>775.0</ele><time>2026-04-26T11:35:36.276Z</time></trkpt><trkpt lat="43.3184282" lon="13.0949968"><ele>776.0</ele><time>2026-04-26T11:35:37.276Z</time></trkpt><trkpt lat="43.3184599" lon="13.0950778"><ele>777.6666666666667</ele><time>2026-04-26T11:35:38.276Z</time></trkpt><trkpt lat="43.3184908" lon="13.0951617"><ele>779.3333333333334</ele><time>2026-04-26T11:35:39.276Z</time></trkpt><trkpt lat="43.3185202" lon="13.0952481"><ele>781.0</ele><time>2026-04-26T11:35:40.276Z</time></trkpt><trkpt lat="43.3185555" lon="13.0953279"><ele>782.6666666666667</ele><time>2026-04-26T11:35:41.276Z</time></trkpt><trkpt lat="43.3186017" lon="13.0954033"><ele>784.3333333333334</ele><time>2026-04-26T11:35:42.277Z</time></trkpt><trkpt lat="43.3186667" lon="13.0955367"><ele>786.0</ele><time>2026-04-26T11:35:44.276Z</time></trkpt><trkpt lat="43.3186933" lon="13.09566"><ele>786.0</ele><time>2026-04-26T11:35:46.276Z</time></trkpt><trkpt lat="43.3186586" lon="13.0957354"><ele>786.0</ele><time>2026-04-26T11:35:48.276Z</time></trkpt><trkpt lat="43.3185669" lon="13.0957089"><ele>786.0</ele><time>2026-04-26T11:35:51.276Z</time></trkpt><trkpt lat="43.3184983" lon="13.095605"><ele>786.0</ele><time>2026-04-26T11:35:53.277Z</time></trkpt><trkpt lat="43.318425" lon="13.095505"><ele>786.0</ele><time>2026-04-26T11:35:55.276Z</time></trkpt><trkpt lat="43.3183417" lon="13.0954233"><ele>786.0</ele><time>2026-04-26T11:35:57.277Z</time></trkpt><trkpt lat="43.3182583" lon="13.0953433"><ele>786.0</ele><time>2026-04-26T11:35:59.277Z</time></trkpt><trkpt lat="43.3182067" lon="13.0952917"><ele>786.0</ele><time>2026-04-26T11:36:00.276Z</time></trkpt><trkpt lat="43.318125" lon="13.0952017"><ele>786.0</ele><time>2026-04-26T11:36:02.276Z</time></trkpt><trkpt lat="43.31803" lon="13.0951167"><ele>786.0</ele><time>2026-04-26T11:36:04.276Z</time></trkpt><trkpt lat="43.3179733" lon="13.0950667"><ele>790.0</ele><time>2026-04-26T11:36:05.276Z</time></trkpt><trkpt lat="43.3178883" lon="13.0949583"><ele>794.0</ele><time>2026-04-26T11:36:07.276Z</time></trkpt><trkpt lat="43.3178283" lon="13.09484"><ele>798.0</ele><time>2026-04-26T11:36:09.276Z</time></trkpt><trkpt lat="43.3177367" lon="13.0948233"><ele>802.0</ele><time>2026-04-26T11:36:17.276Z</time></trkpt><trkpt lat="43.3177333" lon="13.0949217"><ele>806.0</ele><time>2026-04-26T11:36:19.276Z</time></trkpt><trkpt lat="43.3177833" lon="13.0950433"><ele>808.4</ele><time>2026-04-26T11:36:21.277Z</time></trkpt><trkpt lat="43.3178367" lon="13.0951704"><ele>810.8</ele><time>2026-04-26T11:36:23.276Z</time></trkpt><trkpt lat="43.317868" lon="13.0953485"><ele>813.1999999999999</ele><time>2026-04-26T11:36:25.276Z</time></trkpt><trkpt lat="43.3178684" lon="13.0954531"><ele>815.5999999999999</ele><time>2026-04-26T11:36:26.276Z</time></trkpt><trkpt lat="43.3178724" lon="13.0955556"><ele>818.0</ele><time>2026-04-26T11:36:27.276Z</time></trkpt><trkpt lat="43.3178836" lon="13.0956531"><ele>818.0</ele><time>2026-04-26T11:36:28.276Z</time></trkpt><trkpt lat="43.3179114" lon="13.0957448"><ele>818.0</ele><time>2026-04-26T11:36:29.276Z</time></trkpt><trkpt lat="43.3179295" lon="13.0958358"><ele>818.0</ele><time>2026-04-26T11:36:30.276Z</time></trkpt><trkpt lat="43.317944" lon="13.0959224"><ele>818.0</ele><time>2026-04-26T11:36:31.277Z</time></trkpt><trkpt lat="43.3179479" lon="13.0960118"><ele>818.0</ele><time>2026-04-26T11:36:32.277Z</time></trkpt><trkpt lat="43.3179453" lon="13.0961012"><ele>818.0</ele><time>2026-04-26T11:36:33.276Z</time></trkpt><trkpt lat="43.3179489" lon="13.0961914"><ele>818.0</ele><time>2026-04-26T11:36:34.276Z</time></trkpt><trkpt lat="43.3179346" lon="13.0963562"><ele>819.25</ele><time>2026-04-26T11:36:36.276Z</time></trkpt><trkpt lat="43.3179063" lon="13.0965197"><ele>820.5</ele><time>2026-04-26T11:36:38.276Z</time></trkpt><trkpt lat="43.3178719" lon="13.096674"><ele>821.75</ele><time>2026-04-26T11:36:40.277Z</time></trkpt><trkpt lat="43.3178159" lon="13.096804"><ele>823.0</ele><time>2026-04-26T11:36:42.276Z</time></trkpt><trkpt lat="43.3177273" lon="13.0969252"><ele>823.6666666666666</ele><time>2026-04-26T11:36:44.276Z</time></trkpt><trkpt lat="43.3176796" lon="13.0970038"><ele>824.3333333333333</ele><time>2026-04-26T11:36:45.276Z</time></trkpt><trkpt lat="43.3176249" lon="13.0970762"><ele>825.0</ele><time>2026-04-26T11:36:46.276Z</time></trkpt><trkpt lat="43.3175676" lon="13.0971466"><ele>825.6666666666667</ele><time>2026-04-26T11:36:47.277Z</time></trkpt><trkpt lat="43.3175111" lon="13.0972135"><ele>826.3333333333334</ele><time>2026-04-26T11:36:48.276Z</time></trkpt><trkpt lat="43.317454" lon="13.0972867"><ele>827.0</ele><time>2026-04-26T11:36:49.276Z</time></trkpt><trkpt lat="43.3173895" lon="13.0973469"><ele>827.0</ele><time>2026-04-26T11:36:50.276Z</time></trkpt><trkpt lat="43.3173202" lon="13.097394"><ele>827.0</ele><time>2026-04-26T11:36:51.276Z</time></trkpt><trkpt lat="43.3172546" lon="13.0974286"><ele>827.0</ele><time>2026-04-26T11:36:52.276Z</time></trkpt><trkpt lat="43.3171909" lon="13.0974399"><ele>827.0</ele><time>2026-04-26T11:36:53.276Z</time></trkpt><trkpt lat="43.317123" lon="13.0974288"><ele>827.0</ele><time>2026-04-26T11:36:54.277Z</time></trkpt><trkpt lat="43.317055" lon="13.0974117"><ele>827.0</ele><time>2026-04-26T11:36:55.276Z</time></trkpt><trkpt lat="43.31699" lon="13.0974"><ele>827.0</ele><time>2026-04-26T11:36:56.276Z</time></trkpt><trkpt lat="43.3168617" lon="13.0973817"><ele>828.0000000000001</ele><time>2026-04-26T11:36:58.276Z</time></trkpt><trkpt lat="43.3167883" lon="13.097375"><ele>829.0</ele><time>2026-04-26T11:36:59.276Z</time></trkpt><trkpt lat="43.3167083" lon="13.09736"><ele>830.0</ele><time>2026-04-26T11:37:00.276Z</time></trkpt><trkpt lat="43.3166367" lon="13.0973533"><ele>831.0</ele><time>2026-04-26T11:37:01.276Z</time></trkpt><trkpt lat="43.3165717" lon="13.0973483"><ele>832.0000000000001</ele><time>2026-04-26T11:37:02.276Z</time></trkpt><trkpt lat="43.316505" lon="13.0973433"><ele>833.0</ele><time>2026-04-26T11:37:03.277Z</time></trkpt><trkpt lat="43.3163933" lon="13.09734"><ele>833.0000000000001</ele><time>2026-04-26T11:37:05.276Z</time></trkpt><trkpt lat="43.3162983" lon="13.0973333"><ele>833.0</ele><time>2026-04-26T11:37:07.276Z</time></trkpt><trkpt lat="43.3161983" lon="13.0973217"><ele>833.0</ele><time>2026-04-26T11:37:09.276Z</time></trkpt><trkpt lat="43.3161167" lon="13.0973083"><ele>833.0</ele><time>2026-04-26T11:37:11.276Z</time></trkpt><trkpt lat="43.31603" lon="13.097305"><ele>833.0000000000001</ele><time>2026-04-26T11:37:13.277Z</time></trkpt><trkpt lat="43.3159483" lon="13.0973"><ele>833.0</ele><time>2026-04-26T11:37:15.276Z</time></trkpt><trkpt lat="43.315865" lon="13.097285"><ele>833.0</ele><time>2026-04-26T11:37:17.276Z</time></trkpt><trkpt lat="43.3157717" lon="13.0972783"><ele>833.0</ele><time>2026-04-26T11:37:19.276Z</time></trkpt><trkpt lat="43.31568" lon="13.0972583"><ele>833.0</ele><time>2026-04-26T11:37:21.276Z</time></trkpt><trkpt lat="43.3155867" lon="13.0971983"><ele>833.0</ele><time>2026-04-26T11:37:23.276Z</time></trkpt><trkpt lat="43.315495" lon="13.0971333"><ele>833.0</ele><time>2026-04-26T11:37:25.276Z</time></trkpt><trkpt lat="43.3154067" lon="13.0970283"><ele>832.8333333333334</ele><time>2026-04-26T11:37:27.276Z</time></trkpt><trkpt lat="43.3153583" lon="13.0969683"><ele>832.6666666666667</ele><time>2026-04-26T11:37:28.276Z</time></trkpt><trkpt lat="43.31531" lon="13.0969067"><ele>832.5</ele><time>2026-04-26T11:37:29.276Z</time></trkpt><trkpt lat="43.3152567" lon="13.0968283"><ele>832.3333333333333</ele><time>2026-04-26T11:37:30.276Z</time></trkpt><trkpt lat="43.3152067" lon="13.0967417"><ele>832.1666666666666</ele><time>2026-04-26T11:37:31.276Z</time></trkpt><trkpt lat="43.3151483" lon="13.096635"><ele>832.0</ele><time>2026-04-26T11:37:32.277Z</time></trkpt><trkpt lat="43.3150917" lon="13.096525"><ele>831.9999999999999</ele><time>2026-04-26T11:37:33.276Z</time></trkpt><trkpt lat="43.3150383" lon="13.0964217"><ele>832.0</ele><time>2026-04-26T11:37:34.276Z</time></trkpt><trkpt lat="43.314975" lon="13.0963283"><ele>832.0</ele><time>2026-04-26T11:37:35.276Z</time></trkpt><trkpt lat="43.3149017" lon="13.0962433"><ele>832.0</ele><time>2026-04-26T11:37:36.277Z</time></trkpt><trkpt lat="43.3148333" lon="13.09617"><ele>831.9999999999999</ele><time>2026-04-26T11:37:37.276Z</time></trkpt><trkpt lat="43.3147683" lon="13.0961067"><ele>832.0</ele><time>2026-04-26T11:37:38.276Z</time></trkpt><trkpt lat="43.3147033" lon="13.09604"><ele>829.8571428571428</ele><time>2026-04-26T11:37:39.276Z</time></trkpt><trkpt lat="43.3146367" lon="13.0959717"><ele>827.7142857142858</ele><time>2026-04-26T11:37:40.277Z</time></trkpt><trkpt lat="43.3145733" lon="13.0959083"><ele>825.5714285714286</ele><time>2026-04-26T11:37:41.277Z</time></trkpt><trkpt lat="43.3145117" lon="13.095845"><ele>823.4285714285713</ele><time>2026-04-26T11:37:42.276Z</time></trkpt><trkpt lat="43.3144567" lon="13.0957833"><ele>821.2857142857142</ele><time>2026-04-26T11:37:43.276Z</time></trkpt><trkpt lat="43.3143967" lon="13.09572"><ele>819.1428571428571</ele><time>2026-04-26T11:37:44.276Z</time></trkpt><trkpt lat="43.3143467" lon="13.0956667"><ele>817.0</ele><time>2026-04-26T11:37:45.276Z</time></trkpt><trkpt lat="43.3142433" lon="13.0955767"><ele>817.0</ele><time>2026-04-26T11:37:47.276Z</time></trkpt><trkpt lat="43.3141367" lon="13.09551"><ele>817.0</ele><time>2026-04-26T11:37:49.276Z</time></trkpt><trkpt lat="43.3140483" lon="13.0954483"><ele>817.0</ele><time>2026-04-26T11:37:51.276Z</time></trkpt><trkpt lat="43.31395" lon="13.0953783"><ele>817.0</ele><time>2026-04-26T11:37:53.276Z</time></trkpt><trkpt lat="43.3138517" lon="13.0952983"><ele>817.0</ele><time>2026-04-26T11:37:55.276Z</time></trkpt><trkpt lat="43.3137667" lon="13.095185"><ele>814.4999999999999</ele><time>2026-04-26T11:37:57.276Z</time></trkpt><trkpt lat="43.3137233" lon="13.09512"><ele>812.0</ele><time>2026-04-26T11:37:58.276Z</time></trkpt><trkpt lat="43.3136433" lon="13.0949883"><ele>809.5</ele><time>2026-04-26T11:38:00.276Z</time></trkpt><trkpt lat="43.313595" lon="13.0949133"><ele>807.0</ele><time>2026-04-26T11:38:01.276Z</time></trkpt><trkpt lat="43.31354" lon="13.0948383"><ele>804.4999999999999</ele><time>2026-04-26T11:38:02.276Z</time></trkpt><trkpt lat="43.31348" lon="13.0947567"><ele>802.0</ele><time>2026-04-26T11:38:03.276Z</time></trkpt><trkpt lat="43.3134167" lon="13.094695"><ele>802.0</ele><time>2026-04-26T11:38:04.276Z</time></trkpt><trkpt lat="43.3133567" lon="13.0946433"><ele>802.0</ele><time>2026-04-26T11:38:05.276Z</time></trkpt><trkpt lat="43.31329" lon="13.0945967"><ele>802.0</ele><time>2026-04-26T11:38:06.276Z</time></trkpt><trkpt lat="43.3132233" lon="13.0945567"><ele>802.0</ele><time>2026-04-26T11:38:07.276Z</time></trkpt><trkpt lat="43.313155" lon="13.0945267"><ele>802.0</ele><time>2026-04-26T11:38:08.277Z</time></trkpt><trkpt lat="43.3130867" lon="13.0945017"><ele>802.0</ele><time>2026-04-26T11:38:09.276Z</time></trkpt><trkpt lat="43.31301" lon="13.09448"><ele>802.0</ele><time>2026-04-26T11:38:10.276Z</time></trkpt><trkpt lat="43.3129367" lon="13.0944833"><ele>801.3333333333333</ele><time>2026-04-26T11:38:11.276Z</time></trkpt><trkpt lat="43.3128683" lon="13.0945017"><ele>800.6666666666666</ele><time>2026-04-26T11:38:12.276Z</time></trkpt><trkpt lat="43.3128067" lon="13.0945333"><ele>800.0</ele><time>2026-04-26T11:38:13.277Z</time></trkpt><trkpt lat="43.3127433" lon="13.0945817"><ele>799.3333333333333</ele><time>2026-04-26T11:38:14.276Z</time></trkpt><trkpt lat="43.3126733" lon="13.0946367"><ele>798.6666666666666</ele><time>2026-04-26T11:38:15.276Z</time></trkpt><trkpt lat="43.3125933" lon="13.0946833"><ele>798.0</ele><time>2026-04-26T11:38:16.276Z</time></trkpt><trkpt lat="43.3125133" lon="13.0947167"><ele>798.0</ele><time>2026-04-26T11:38:17.275Z</time></trkpt><trkpt lat="43.3124267" lon="13.0947533"><ele>798.0</ele><time>2026-04-26T11:38:18.276Z</time></trkpt><trkpt lat="43.3123417" lon="13.09478"><ele>798.0</ele><time>2026-04-26T11:38:19.276Z</time></trkpt><trkpt lat="43.3122683" lon="13.0947983"><ele>798.0</ele><time>2026-04-26T11:38:20.275Z</time></trkpt><trkpt lat="43.3122067" lon="13.0948183"><ele>798.0</ele><time>2026-04-26T11:38:21.275Z</time></trkpt><trkpt lat="43.312105" lon="13.0948533"><ele>798.0</ele><time>2026-04-26T11:38:23.275Z</time></trkpt><trkpt lat="43.3120217" lon="13.0948717"><ele>797.8</ele><time>2026-04-26T11:38:25.275Z</time></trkpt><trkpt lat="43.3119417" lon="13.0948833"><ele>797.5999999999999</ele><time>2026-04-26T11:38:28.275Z</time></trkpt><trkpt lat="43.3118533" lon="13.0949067"><ele>797.4000000000001</ele><time>2026-04-26T11:38:31.275Z</time></trkpt><trkpt lat="43.3117533" lon="13.0949317"><ele>797.2</ele><time>2026-04-26T11:38:34.276Z</time></trkpt><trkpt lat="43.3116583" lon="13.0949583"><ele>797.0</ele><time>2026-04-26T11:38:36.274Z</time></trkpt><trkpt lat="43.3115583" lon="13.094985"><ele>797.0000000000001</ele><time>2026-04-26T11:38:38.275Z</time></trkpt><trkpt lat="43.31145" lon="13.095035"><ele>797.0</ele><time>2026-04-26T11:38:40.275Z</time></trkpt><trkpt lat="43.3113883" lon="13.0950583"><ele>797.0</ele><time>2026-04-26T11:38:41.276Z</time></trkpt><trkpt lat="43.3113233" lon="13.0950883"><ele>797.0</ele><time>2026-04-26T11:38:42.275Z</time></trkpt><trkpt lat="43.311255" lon="13.0951233"><ele>797.0000000000001</ele><time>2026-04-26T11:38:43.275Z</time></trkpt><trkpt lat="43.311185" lon="13.09517"><ele>797.0</ele><time>2026-04-26T11:38:44.275Z</time></trkpt><trkpt lat="43.3111117" lon="13.0952083"><ele>798.5000000000001</ele><time>2026-04-26T11:38:45.275Z</time></trkpt><trkpt lat="43.3110317" lon="13.09525"><ele>800.0</ele><time>2026-04-26T11:38:46.275Z</time></trkpt><trkpt lat="43.31095" lon="13.0952933"><ele>801.5</ele><time>2026-04-26T11:38:47.275Z</time></trkpt><trkpt lat="43.3108783" lon="13.09533"><ele>803.0</ele><time>2026-04-26T11:38:48.275Z</time></trkpt><trkpt lat="43.3108083" lon="13.0953733"><ele>804.5000000000001</ele><time>2026-04-26T11:38:49.276Z</time></trkpt><trkpt lat="43.3107367" lon="13.0954117"><ele>806.0</ele><time>2026-04-26T11:38:50.275Z</time></trkpt><trkpt lat="43.31067" lon="13.0954467"><ele>806.0</ele><time>2026-04-26T11:38:51.275Z</time></trkpt><trkpt lat="43.3106083" lon="13.09548"><ele>806.0</ele><time>2026-04-26T11:38:52.275Z</time></trkpt><trkpt lat="43.3105117" lon="13.0955617"><ele>806.0</ele><time>2026-04-26T11:38:54.276Z</time></trkpt><trkpt lat="43.3104533" lon="13.0956783"><ele>806.0</ele><time>2026-04-26T11:38:56.275Z</time></trkpt><trkpt lat="43.3104383" lon="13.095845"><ele>806.0</ele><time>2026-04-26T11:38:58.275Z</time></trkpt><trkpt lat="43.3104683" lon="13.0959267"><ele>807.1999999999999</ele><time>2026-04-26T11:38:59.275Z</time></trkpt><trkpt lat="43.3105167" lon="13.0960617"><ele>808.4</ele><time>2026-04-26T11:39:01.275Z</time></trkpt><trkpt lat="43.31052" lon="13.09616"><ele>809.6</ele><time>2026-04-26T11:39:04.275Z</time></trkpt><trkpt lat="43.3104183" lon="13.0961817"><ele>810.8</ele><time>2026-04-26T11:39:48.275Z</time></trkpt><trkpt lat="43.310315" lon="13.0962217"><ele>812.0</ele><time>2026-04-26T11:39:50.275Z</time></trkpt><trkpt lat="43.310195" lon="13.096275"><ele>812.0</ele><time>2026-04-26T11:39:52.275Z</time></trkpt><trkpt lat="43.31013" lon="13.096295"><ele>812.0</ele><time>2026-04-26T11:39:53.275Z</time></trkpt><trkpt lat="43.3100317" lon="13.0963383"><ele>812.0</ele><time>2026-04-26T11:39:55.275Z</time></trkpt><trkpt lat="43.3099517" lon="13.0963883"><ele>812.0</ele><time>2026-04-26T11:39:57.275Z</time></trkpt><trkpt lat="43.3098567" lon="13.096415"><ele>812.0</ele><time>2026-04-26T11:39:59.275Z</time></trkpt><trkpt lat="43.309755" lon="13.096425"><ele>815.4000000000001</ele><time>2026-04-26T11:40:01.275Z</time></trkpt><trkpt lat="43.3096517" lon="13.09643"><ele>818.8000000000001</ele><time>2026-04-26T11:40:03.275Z</time></trkpt><trkpt lat="43.309565" lon="13.0964333"><ele>822.2</ele><time>2026-04-26T11:40:05.275Z</time></trkpt><trkpt lat="43.3094867" lon="13.096435"><ele>825.6</ele><time>2026-04-26T11:40:07.275Z</time></trkpt><trkpt lat="43.3093917" lon="13.0964017"><ele>829.0</ele><time>2026-04-26T11:40:25.275Z</time></trkpt><trkpt lat="43.3092833" lon="13.0963817"><ele>829.0</ele><time>2026-04-26T11:41:19.275Z</time></trkpt><trkpt lat="43.3092183" lon="13.096435"><ele>829.0</ele><time>2026-04-26T11:42:06.275Z</time></trkpt><trkpt lat="43.3091817" lon="13.09655"><ele>829.0</ele><time>2026-04-26T11:42:09.275Z</time></trkpt><trkpt lat="43.30915" lon="13.0967"><ele>829.0</ele><time>2026-04-26T11:42:11.275Z</time></trkpt><trkpt lat="43.3091333" lon="13.096785"><ele>829.0</ele><time>2026-04-26T11:42:12.275Z</time></trkpt><trkpt lat="43.3091233" lon="13.0969483"><ele>830.4999999999999</ele><time>2026-04-26T11:42:14.275Z</time></trkpt><trkpt lat="43.3091333" lon="13.0971267"><ele>832.0</ele><time>2026-04-26T11:42:16.275Z</time></trkpt><trkpt lat="43.30915" lon="13.0972267"><ele>833.5</ele><time>2026-04-26T11:42:17.275Z</time></trkpt><trkpt lat="43.3091783" lon="13.09733"><ele>835.0</ele><time>2026-04-26T11:42:18.275Z</time></trkpt><trkpt lat="43.3092133" lon="13.0974333"><ele>836.4999999999999</ele><time>2026-04-26T11:42:19.275Z</time></trkpt><trkpt lat="43.3092533" lon="13.0975183"><ele>838.0</ele><time>2026-04-26T11:42:20.275Z</time></trkpt><trkpt lat="43.3092917" lon="13.0976083"><ele>840.2857142857142</ele><time>2026-04-26T11:42:21.276Z</time></trkpt><trkpt lat="43.30933" lon="13.097695"><ele>842.5714285714286</ele><time>2026-04-26T11:42:22.275Z</time></trkpt><trkpt lat="43.309375" lon="13.097775"><ele>844.8571428571429</ele><time>2026-04-26T11:42:23.275Z</time></trkpt><trkpt lat="43.30942" lon="13.09785"><ele>847.1428571428571</ele><time>2026-04-26T11:42:24.275Z</time></trkpt><trkpt lat="43.30946" lon="13.0979267"><ele>849.4285714285714</ele><time>2026-04-26T11:42:25.275Z</time></trkpt><trkpt lat="43.3095167" lon="13.0980033"><ele>851.7142857142857</ele><time>2026-04-26T11:42:26.275Z</time></trkpt><trkpt lat="43.30957" lon="13.0980867"><ele>854.0</ele><time>2026-04-26T11:42:27.275Z</time></trkpt><trkpt lat="43.3096233" lon="13.0981467"><ele>854.5000000000001</ele><time>2026-04-26T11:42:28.275Z</time></trkpt><trkpt lat="43.3097033" lon="13.098255"><ele>855.0</ele><time>2026-04-26T11:42:30.275Z</time></trkpt><trkpt lat="43.3097533" lon="13.0983383"><ele>855.5</ele><time>2026-04-26T11:42:32.275Z</time></trkpt><trkpt lat="43.3098333" lon="13.0983967"><ele>856.0</ele><time>2026-04-26T11:52:44.273Z</time></trkpt><trkpt lat="43.3098567" lon="13.0984817"><ele>856.5000000000001</ele><time>2026-04-26T11:52:47.273Z</time></trkpt><trkpt lat="43.3098783" lon="13.0985667"><ele>857.0</ele><time>2026-04-26T11:52:50.273Z</time></trkpt><trkpt lat="43.30985" lon="13.0984817"><ele>857.0000000000001</ele><time>2026-04-26T11:53:17.274Z</time></trkpt><trkpt lat="43.3098133" lon="13.0983883"><ele>857.0</ele><time>2026-04-26T11:53:21.273Z</time></trkpt><trkpt lat="43.30975" lon="13.09829"><ele>857.0</ele><time>2026-04-26T11:53:24.273Z</time></trkpt><trkpt lat="43.3097" lon="13.0982317"><ele>857.0</ele><time>2026-04-26T11:53:26.273Z</time></trkpt><trkpt lat="43.3096383" lon="13.0981667"><ele>857.0000000000001</ele><time>2026-04-26T11:53:29.273Z</time></trkpt><trkpt lat="43.309585" lon="13.0981083"><ele>857.0</ele><time>2026-04-26T11:53:31.273Z</time></trkpt><trkpt lat="43.3095317" lon="13.0980467"><ele>856.5000000000001</ele><time>2026-04-26T11:53:33.274Z</time></trkpt><trkpt lat="43.3094817" lon="13.0979667"><ele>856.0</ele><time>2026-04-26T11:53:36.273Z</time></trkpt><trkpt lat="43.309435" lon="13.0978867"><ele>855.5</ele><time>2026-04-26T11:53:39.273Z</time></trkpt><trkpt lat="43.3094033" lon="13.0978033"><ele>855.0</ele><time>2026-04-26T11:53:41.273Z</time></trkpt><trkpt lat="43.309355" lon="13.0977"><ele>854.5000000000001</ele><time>2026-04-26T11:53:43.273Z</time></trkpt><trkpt lat="43.3093117" lon="13.09759"><ele>854.0</ele><time>2026-04-26T11:53:45.273Z</time></trkpt><trkpt lat="43.3092583" lon="13.0974567"><ele>851.3333333333334</ele><time>2026-04-26T11:53:47.274Z</time></trkpt><trkpt lat="43.3092383" lon="13.09737"><ele>848.6666666666667</ele><time>2026-04-26T11:53:48.273Z</time></trkpt><trkpt lat="43.3092" lon="13.0972317"><ele>846.0</ele><time>2026-04-26T11:53:50.273Z</time></trkpt><trkpt lat="43.3091767" lon="13.0971033"><ele>843.3333333333333</ele><time>2026-04-26T11:53:52.273Z</time></trkpt><trkpt lat="43.3091633" lon="13.0969667"><ele>840.6666666666666</ele><time>2026-04-26T11:53:54.273Z</time></trkpt><trkpt lat="43.3091641" lon="13.0968604"><ele>838.0</ele><time>2026-04-26T11:53:56.264Z</time></trkpt><trkpt lat="43.3091624" lon="13.0967355"><ele>837.9999999999999</ele><time>2026-04-26T11:53:58.322Z</time></trkpt><trkpt lat="43.3091874" lon="13.0966293"><ele>838.0</ele><time>2026-04-26T11:54:00.343Z</time></trkpt><trkpt lat="43.3092212" lon="13.0965561"><ele>838.0</ele><time>2026-04-26T11:54:02.406Z</time></trkpt><trkpt lat="43.3092428" lon="13.0964386"><ele>838.0</ele><time>2026-04-26T11:54:05.145Z</time></trkpt><trkpt lat="43.309275" lon="13.096355"><ele>837.9999999999999</ele><time>2026-04-26T11:54:06.273Z</time></trkpt><trkpt lat="43.3093" lon="13.0962317"><ele>838.0</ele><time>2026-04-26T11:54:09.273Z</time></trkpt><trkpt lat="43.309392" lon="13.0961797"><ele>836.4999999999999</ele><time>2026-04-26T11:54:13.285Z</time></trkpt><trkpt lat="43.3094768" lon="13.0961659"><ele>835.0</ele><time>2026-04-26T11:54:15.344Z</time></trkpt><trkpt lat="43.3095656" lon="13.0961313"><ele>833.5</ele><time>2026-04-26T11:54:17.344Z</time></trkpt><trkpt lat="43.3096301" lon="13.0960692"><ele>832.0</ele><time>2026-04-26T11:54:19.278Z</time></trkpt><trkpt lat="43.3097136" lon="13.0959982"><ele>830.4999999999999</ele><time>2026-04-26T11:54:21.299Z</time></trkpt><trkpt lat="43.3097999" lon="13.0959505"><ele>829.0</ele><time>2026-04-26T11:54:23.273Z</time></trkpt><trkpt lat="43.3098968" lon="13.0959179"><ele>826.1666666666666</ele><time>2026-04-26T11:54:25.273Z</time></trkpt><trkpt lat="43.3099937" lon="13.0958845"><ele>823.3333333333333</ele><time>2026-04-26T11:54:27.273Z</time></trkpt><trkpt lat="43.3100878" lon="13.0958374"><ele>820.5</ele><time>2026-04-26T11:54:29.273Z</time></trkpt><trkpt lat="43.3101738" lon="13.0958058"><ele>817.6666666666667</ele><time>2026-04-26T11:54:31.273Z</time></trkpt><trkpt lat="43.3102433" lon="13.0958267"><ele>814.8333333333334</ele><time>2026-04-26T11:54:33.273Z</time></trkpt><trkpt lat="43.310305" lon="13.09588"><ele>812.0</ele><time>2026-04-26T11:54:35.273Z</time></trkpt><trkpt lat="43.3103467" lon="13.0959617"><ele>812.0000000000001</ele><time>2026-04-26T11:54:37.273Z</time></trkpt><trkpt lat="43.31037" lon="13.09607"><ele>812.0</ele><time>2026-04-26T11:54:39.273Z</time></trkpt><trkpt lat="43.310415" lon="13.09616"><ele>812.0</ele><time>2026-04-26T11:54:41.273Z</time></trkpt><trkpt lat="43.310485" lon="13.0961733"><ele>812.0</ele><time>2026-04-26T11:54:43.273Z</time></trkpt><trkpt lat="43.3105617" lon="13.0962067"><ele>812.0000000000001</ele><time>2026-04-26T11:54:45.274Z</time></trkpt><trkpt lat="43.3106167" lon="13.0962783"><ele>812.0</ele><time>2026-04-26T11:54:47.273Z</time></trkpt><trkpt lat="43.310695" lon="13.09639"><ele>810.5</ele><time>2026-04-26T11:54:49.273Z</time></trkpt><trkpt lat="43.3107683" lon="13.0964517"><ele>809.0</ele><time>2026-04-26T11:54:50.273Z</time></trkpt><trkpt lat="43.3108567" lon="13.0965117"><ele>807.5</ele><time>2026-04-26T11:54:51.273Z</time></trkpt><trkpt lat="43.3109433" lon="13.0965817"><ele>806.0</ele><time>2026-04-26T11:54:52.273Z</time></trkpt><trkpt lat="43.3111" lon="13.0967683"><ele>806.0</ele><time>2026-04-26T11:54:54.273Z</time></trkpt><trkpt lat="43.3111633" lon="13.09688"><ele>806.0</ele><time>2026-04-26T11:54:55.273Z</time></trkpt><trkpt lat="43.311225" lon="13.09699"><ele>806.0</ele><time>2026-04-26T11:54:56.274Z</time></trkpt><trkpt lat="43.31128" lon="13.0971067"><ele>806.0</ele><time>2026-04-26T11:54:57.273Z</time></trkpt><trkpt lat="43.311335" lon="13.09722"><ele>806.0</ele><time>2026-04-26T11:54:58.273Z</time></trkpt><trkpt lat="43.31139" lon="13.097335"><ele>803.4</ele><time>2026-04-26T11:54:59.273Z</time></trkpt><trkpt lat="43.3114417" lon="13.0974433"><ele>800.8</ele><time>2026-04-26T11:55:00.273Z</time></trkpt><trkpt lat="43.311485" lon="13.0975417"><ele>798.1999999999999</ele><time>2026-04-26T11:55:01.274Z</time></trkpt><trkpt lat="43.311525" lon="13.0976567"><ele>795.5999999999999</ele><time>2026-04-26T11:55:02.273Z</time></trkpt><trkpt lat="43.31156" lon="13.097775"><ele>793.0</ele><time>2026-04-26T11:55:03.273Z</time></trkpt><trkpt lat="43.3115967" lon="13.09791"><ele>793.0</ele><time>2026-04-26T11:55:04.273Z</time></trkpt><trkpt lat="43.31164" lon="13.0980767"><ele>793.0</ele><time>2026-04-26T11:55:05.273Z</time></trkpt><trkpt lat="43.3116833" lon="13.09825"><ele>793.0</ele><time>2026-04-26T11:55:06.272Z</time></trkpt><trkpt lat="43.3117133" lon="13.0984067"><ele>793.0</ele><time>2026-04-26T11:55:07.272Z</time></trkpt><trkpt lat="43.3117483" lon="13.0985567"><ele>793.2</ele><time>2026-04-26T11:55:08.272Z</time></trkpt><trkpt lat="43.3117817" lon="13.0986833"><ele>793.4</ele><time>2026-04-26T11:55:09.272Z</time></trkpt><trkpt lat="43.3118167" lon="13.0987983"><ele>793.6</ele><time>2026-04-26T11:55:10.272Z</time></trkpt><trkpt lat="43.31188" lon="13.0989133"><ele>793.8000000000001</ele><time>2026-04-26T11:55:11.273Z</time></trkpt><trkpt lat="43.31195" lon="13.0990233"><ele>794.0</ele><time>2026-04-26T11:55:12.272Z</time></trkpt><trkpt lat="43.3120283" lon="13.099135"><ele>795.4000000000001</ele><time>2026-04-26T11:55:13.272Z</time></trkpt><trkpt lat="43.3121033" lon="13.09925"><ele>796.8</ele><time>2026-04-26T11:55:14.272Z</time></trkpt><trkpt lat="43.31217" lon="13.09937"><ele>798.2</ele><time>2026-04-26T11:55:15.272Z</time></trkpt><trkpt lat="43.3122333" lon="13.099495"><ele>799.5999999999999</ele><time>2026-04-26T11:55:16.272Z</time></trkpt><trkpt lat="43.3123" lon="13.0996117"><ele>801.0</ele><time>2026-04-26T11:55:17.272Z</time></trkpt><trkpt lat="43.3123633" lon="13.0997233"><ele>797.4</ele><time>2026-04-26T11:55:18.272Z</time></trkpt><trkpt lat="43.31242" lon="13.0998367"><ele>793.8</ele><time>2026-04-26T11:55:19.272Z</time></trkpt><trkpt lat="43.3124767" lon="13.099935"><ele>790.1999999999999</ele><time>2026-04-26T11:55:20.272Z</time></trkpt><trkpt lat="43.312535" lon="13.1000333"><ele>786.5999999999999</ele><time>2026-04-26T11:55:21.273Z</time></trkpt><trkpt lat="43.3125867" lon="13.1001283"><ele>783.0</ele><time>2026-04-26T11:55:22.272Z</time></trkpt><trkpt lat="43.3126483" lon="13.10022"><ele>783.0</ele><time>2026-04-26T11:55:23.272Z</time></trkpt><trkpt lat="43.3127067" lon="13.1003117"><ele>783.0</ele><time>2026-04-26T11:55:24.272Z</time></trkpt><trkpt lat="43.3127583" lon="13.1004017"><ele>783.0</ele><time>2026-04-26T11:55:25.272Z</time></trkpt><trkpt lat="43.3128167" lon="13.10049"><ele>783.0</ele><time>2026-04-26T11:55:26.272Z</time></trkpt><trkpt lat="43.3128817" lon="13.1005717"><ele>783.0</ele><time>2026-04-26T11:55:27.272Z</time></trkpt><trkpt lat="43.3129433" lon="13.1006483"><ele>783.0</ele><time>2026-04-26T11:55:28.272Z</time></trkpt><trkpt lat="43.3130133" lon="13.1007183"><ele>780.4</ele><time>2026-04-26T11:55:29.272Z</time></trkpt><trkpt lat="43.31309" lon="13.1007933"><ele>777.8</ele><time>2026-04-26T11:55:30.272Z</time></trkpt><trkpt lat="43.3131583" lon="13.10088"><ele>775.2</ele><time>2026-04-26T11:55:31.272Z</time></trkpt><trkpt lat="43.3132333" lon="13.100975"><ele>772.6</ele><time>2026-04-26T11:55:32.272Z</time></trkpt><trkpt lat="43.3133117" lon="13.10107"><ele>770.0</ele><time>2026-04-26T11:55:33.272Z</time></trkpt><trkpt lat="43.313385" lon="13.1011617"><ele>770.0</ele><time>2026-04-26T11:55:34.273Z</time></trkpt><trkpt lat="43.3134583" lon="13.10125"><ele>770.0</ele><time>2026-04-26T11:55:35.273Z</time></trkpt><trkpt lat="43.3135417" lon="13.1013433"><ele>770.0</ele><time>2026-04-26T11:55:36.272Z</time></trkpt><trkpt lat="43.3136333" lon="13.1014283"><ele>770.0</ele><time>2026-04-26T11:55:37.272Z</time></trkpt><trkpt lat="43.31372" lon="13.1015117"><ele>770.0</ele><time>2026-04-26T11:55:38.272Z</time></trkpt><trkpt lat="43.3137967" lon="13.1015917"><ele>768.2</ele><time>2026-04-26T11:55:39.272Z</time></trkpt><trkpt lat="43.3138733" lon="13.1016717"><ele>766.4</ele><time>2026-04-26T11:55:40.272Z</time></trkpt><trkpt lat="43.3139533" lon="13.101745"><ele>764.5999999999999</ele><time>2026-04-26T11:55:41.272Z</time></trkpt><trkpt lat="43.3140317" lon="13.101825"><ele>762.8</ele><time>2026-04-26T11:55:42.272Z</time></trkpt><trkpt lat="43.3140817" lon="13.1018983"><ele>761.0</ele><time>2026-04-26T11:55:43.272Z</time></trkpt><trkpt lat="43.3141617" lon="13.1019967"><ele>761.0</ele><time>2026-04-26T11:55:44.272Z</time></trkpt><trkpt lat="43.31422" lon="13.10208"><ele>761.0</ele><time>2026-04-26T11:55:45.272Z</time></trkpt><trkpt lat="43.3142933" lon="13.1021633"><ele>761.0</ele><time>2026-04-26T11:55:46.272Z</time></trkpt><trkpt lat="43.314365" lon="13.102255"><ele>761.0</ele><time>2026-04-26T11:55:47.272Z</time></trkpt><trkpt lat="43.3144317" lon="13.1023483"><ele>761.0</ele><time>2026-04-26T11:55:48.272Z</time></trkpt><trkpt lat="43.3144967" lon="13.1024367"><ele>759.8333333333333</ele><time>2026-04-26T11:55:49.272Z</time></trkpt><trkpt lat="43.3145617" lon="13.1025267"><ele>758.6666666666666</ele><time>2026-04-26T11:55:50.272Z</time></trkpt><trkpt lat="43.31462" lon="13.1026117"><ele>757.5</ele><time>2026-04-26T11:55:51.272Z</time></trkpt><trkpt lat="43.314675" lon="13.1026933"><ele>756.3333333333334</ele><time>2026-04-26T11:55:52.272Z</time></trkpt><trkpt lat="43.3147267" lon="13.1027817"><ele>755.1666666666667</ele><time>2026-04-26T11:55:53.272Z</time></trkpt><trkpt lat="43.3147767" lon="13.102875"><ele>754.0</ele><time>2026-04-26T11:55:54.272Z</time></trkpt><trkpt lat="43.3148283" lon="13.102975"><ele>754.0</ele><time>2026-04-26T11:55:55.273Z</time></trkpt><trkpt lat="43.3148767" lon="13.1030767"><ele>754.0</ele><time>2026-04-26T11:55:56.272Z</time></trkpt><trkpt lat="43.3149267" lon="13.1031767"><ele>754.0</ele><time>2026-04-26T11:55:57.272Z</time></trkpt><trkpt lat="43.3149783" lon="13.1032767"><ele>754.0</ele><time>2026-04-26T11:55:58.272Z</time></trkpt><trkpt lat="43.3150367" lon="13.1033867"><ele>754.0</ele><time>2026-04-26T11:55:59.272Z</time></trkpt><trkpt lat="43.3150867" lon="13.1034917"><ele>754.2</ele><time>2026-04-26T11:56:00.272Z</time></trkpt><trkpt lat="43.3151367" lon="13.1036083"><ele>754.4000000000001</ele><time>2026-04-26T11:56:01.272Z</time></trkpt><trkpt lat="43.3151817" lon="13.1037283"><ele>754.6</ele><time>2026-04-26T11:56:02.272Z</time></trkpt><trkpt lat="43.315225" lon="13.1038433"><ele>754.8</ele><time>2026-04-26T11:56:03.272Z</time></trkpt><trkpt lat="43.3152683" lon="13.103965"><ele>755.0</ele><time>2026-04-26T11:56:04.272Z</time></trkpt><trkpt lat="43.3153117" lon="13.1040867"><ele>757.0</ele><time>2026-04-26T11:56:05.273Z</time></trkpt><trkpt lat="43.31537" lon="13.104205"><ele>759.0</ele><time>2026-04-26T11:56:06.272Z</time></trkpt><trkpt lat="43.31543" lon="13.1043233"><ele>761.0</ele><time>2026-04-26T11:56:07.272Z</time></trkpt><trkpt lat="43.3155033" lon="13.104435"><ele>763.0</ele><time>2026-04-26T11:56:08.272Z</time></trkpt><trkpt lat="43.3155683" lon="13.1045483"><ele>765.0</ele><time>2026-04-26T11:56:09.272Z</time></trkpt><trkpt lat="43.3156317" lon="13.1046583"><ele>761.5</ele><time>2026-04-26T11:56:10.272Z</time></trkpt><trkpt lat="43.3156967" lon="13.1047567"><ele>758.0</ele><time>2026-04-26T11:56:11.272Z</time></trkpt><trkpt lat="43.315755" lon="13.1048483"><ele>754.5</ele><time>2026-04-26T11:56:12.272Z</time></trkpt><trkpt lat="43.3158117" lon="13.1049367"><ele>751.0</ele><time>2026-04-26T11:56:13.272Z</time></trkpt><trkpt lat="43.3158667" lon="13.1050233"><ele>747.5</ele><time>2026-04-26T11:56:14.272Z</time></trkpt><trkpt lat="43.315915" lon="13.1051083"><ele>744.0</ele><time>2026-04-26T11:56:15.272Z</time></trkpt><trkpt lat="43.3159667" lon="13.10519"><ele>743.8000000000001</ele><time>2026-04-26T11:56:16.273Z</time></trkpt><trkpt lat="43.31602" lon="13.10526"><ele>743.6</ele><time>2026-04-26T11:56:17.272Z</time></trkpt><trkpt lat="43.31607" lon="13.1053283"><ele>743.4</ele><time>2026-04-26T11:56:18.272Z</time></trkpt><trkpt lat="43.31616" lon="13.105425"><ele>743.2</ele><time>2026-04-26T11:56:20.272Z</time></trkpt><trkpt lat="43.3162483" lon="13.1054967"><ele>743.0</ele><time>2026-04-26T11:56:22.271Z</time></trkpt><trkpt lat="43.3163" lon="13.1056217"><ele>743.0</ele><time>2026-04-26T11:56:24.272Z</time></trkpt><trkpt lat="43.316315" lon="13.1057133"><ele>743.0</ele><time>2026-04-26T11:56:25.272Z</time></trkpt><trkpt lat="43.31634" lon="13.1058167"><ele>743.0</ele><time>2026-04-26T11:56:26.272Z</time></trkpt><trkpt lat="43.316395" lon="13.1059217"><ele>743.0</ele><time>2026-04-26T11:56:27.272Z</time></trkpt><trkpt lat="43.316485" lon="13.1060383"><ele>743.0</ele><time>2026-04-26T11:56:28.272Z</time></trkpt><trkpt lat="43.3165833" lon="13.1061533"><ele>744.75</ele><time>2026-04-26T11:56:29.272Z</time></trkpt><trkpt lat="43.3166783" lon="13.1062633"><ele>746.5</ele><time>2026-04-26T11:56:30.272Z</time></trkpt><trkpt lat="43.3167833" lon="13.1063733"><ele>748.25</ele><time>2026-04-26T11:56:31.272Z</time></trkpt><trkpt lat="43.316885" lon="13.1064817"><ele>750.0</ele><time>2026-04-26T11:56:32.272Z</time></trkpt><trkpt lat="43.31698" lon="13.1065867"><ele>750.0</ele><time>2026-04-26T11:56:33.272Z</time></trkpt><trkpt lat="43.3170817" lon="13.1066667"><ele>750.0</ele><time>2026-04-26T11:56:34.272Z</time></trkpt><trkpt lat="43.3171667" lon="13.1067367"><ele>750.0</ele><time>2026-04-26T11:56:35.272Z</time></trkpt><trkpt lat="43.3172267" lon="13.1068133"><ele>750.0</ele><time>2026-04-26T11:56:36.273Z</time></trkpt><trkpt lat="43.317245" lon="13.10697"><ele>750.0</ele><time>2026-04-26T11:56:38.272Z</time></trkpt><trkpt lat="43.31721" lon="13.1070533"><ele>750.0</ele><time>2026-04-26T11:56:39.272Z</time></trkpt><trkpt lat="43.3171617" lon="13.1071433"><ele>750.0</ele><time>2026-04-26T11:56:40.272Z</time></trkpt><trkpt lat="43.317105" lon="13.1072433"><ele>750.0</ele><time>2026-04-26T11:56:41.273Z</time></trkpt><trkpt lat="43.3170567" lon="13.1073667"><ele>750.0</ele><time>2026-04-26T11:56:42.272Z</time></trkpt><trkpt lat="43.3170367" lon="13.1074933"><ele>750.0</ele><time>2026-04-26T11:56:43.272Z</time></trkpt><trkpt lat="43.31704" lon="13.1076083"><ele>752.8333333333334</ele><time>2026-04-26T11:56:44.272Z</time></trkpt><trkpt lat="43.3170517" lon="13.107715"><ele>755.6666666666666</ele><time>2026-04-26T11:56:45.272Z</time></trkpt><trkpt lat="43.3170783" lon="13.107795"><ele>758.5</ele><time>2026-04-26T11:56:46.272Z</time></trkpt><trkpt lat="43.3171033" lon="13.107885"><ele>761.3333333333333</ele><time>2026-04-26T11:56:47.272Z</time></trkpt><trkpt lat="43.31708" lon="13.1079783"><ele>764.1666666666666</ele><time>2026-04-26T11:56:48.272Z</time></trkpt><trkpt lat="43.31703" lon="13.10808"><ele>767.0</ele><time>2026-04-26T11:56:49.272Z</time></trkpt><trkpt lat="43.3169767" lon="13.1081933"><ele>766.8</ele><time>2026-04-26T11:56:50.272Z</time></trkpt><trkpt lat="43.316925" lon="13.1082983"><ele>766.6</ele><time>2026-04-26T11:56:51.272Z</time></trkpt><trkpt lat="43.3168767" lon="13.1084017"><ele>766.4</ele><time>2026-04-26T11:56:52.272Z</time></trkpt><trkpt lat="43.316835" lon="13.1085033"><ele>766.1999999999999</ele><time>2026-04-26T11:56:53.272Z</time></trkpt><trkpt lat="43.316815" lon="13.1086183"><ele>766.0</ele><time>2026-04-26T11:56:54.273Z</time></trkpt><trkpt lat="43.3168" lon="13.10876"><ele>766.0</ele><time>2026-04-26T11:56:55.272Z</time></trkpt><trkpt lat="43.316795" lon="13.1089217"><ele>766.0</ele><time>2026-04-26T11:56:56.272Z</time></trkpt><trkpt lat="43.316805" lon="13.1090967"><ele>766.0</ele><time>2026-04-26T11:56:57.272Z</time></trkpt><trkpt lat="43.316815" lon="13.1092483"><ele>766.0</ele><time>2026-04-26T11:56:58.273Z</time></trkpt><trkpt lat="43.3168167" lon="13.1094067"><ele>763.0</ele><time>2026-04-26T11:56:59.272Z</time></trkpt><trkpt lat="43.3168133" lon="13.1095667"><ele>760.0</ele><time>2026-04-26T11:57:00.272Z</time></trkpt><trkpt lat="43.3168117" lon="13.109725"><ele>757.0</ele><time>2026-04-26T11:57:01.273Z</time></trkpt><trkpt lat="43.3167983" lon="13.1098867"><ele>754.0</ele><time>2026-04-26T11:57:02.272Z</time></trkpt><trkpt lat="43.316795" lon="13.1100567"><ele>751.0</ele><time>2026-04-26T11:57:03.272Z</time></trkpt><trkpt lat="43.3167917" lon="13.1102133"><ele>748.0</ele><time>2026-04-26T11:57:04.272Z</time></trkpt><trkpt lat="43.3167817" lon="13.1103717"><ele>745.0</ele><time>2026-04-26T11:57:05.273Z</time></trkpt><trkpt lat="43.316755" lon="13.1105233"><ele>742.0</ele><time>2026-04-26T11:57:06.272Z</time></trkpt><trkpt lat="43.3167083" lon="13.1106617"><ele>744.0</ele><time>2026-04-26T11:57:07.272Z</time></trkpt><trkpt lat="43.3166383" lon="13.1108017"><ele>746.0</ele><time>2026-04-26T11:57:08.272Z</time></trkpt><trkpt lat="43.3165467" lon="13.110935"><ele>748.0</ele><time>2026-04-26T11:57:09.272Z</time></trkpt><trkpt lat="43.3164533" lon="13.1110667"><ele>750.0</ele><time>2026-04-26T11:57:10.272Z</time></trkpt><trkpt lat="43.31636" lon="13.1111983"><ele>750.0</ele><time>2026-04-26T11:57:11.272Z</time></trkpt><trkpt lat="43.3162667" lon="13.1113233"><ele>750.0</ele><time>2026-04-26T11:57:12.272Z</time></trkpt><trkpt lat="43.3161767" lon="13.11144"><ele>750.0</ele><time>2026-04-26T11:57:13.272Z</time></trkpt><trkpt lat="43.3160933" lon="13.111565"><ele>750.0</ele><time>2026-04-26T11:57:14.272Z</time></trkpt><trkpt lat="43.3160183" lon="13.1116983"><ele>745.75</ele><time>2026-04-26T11:57:15.272Z</time></trkpt><trkpt lat="43.315965" lon="13.1118117"><ele>741.5</ele><time>2026-04-26T11:57:16.272Z</time></trkpt><trkpt lat="43.3159383" lon="13.111965"><ele>737.25</ele><time>2026-04-26T11:57:17.272Z</time></trkpt><trkpt lat="43.3159233" lon="13.1121467"><ele>733.0</ele><time>2026-04-26T11:57:18.272Z</time></trkpt><trkpt lat="43.3159217" lon="13.1123283"><ele>731.5</ele><time>2026-04-26T11:57:19.273Z</time></trkpt><trkpt lat="43.3159267" lon="13.1125117"><ele>730.0</ele><time>2026-04-26T11:57:20.272Z</time></trkpt><trkpt lat="43.315945" lon="13.112685"><ele>728.5</ele><time>2026-04-26T11:57:21.272Z</time></trkpt><trkpt lat="43.3159933" lon="13.1128517"><ele>727.0</ele><time>2026-04-26T11:57:22.272Z</time></trkpt><trkpt lat="43.3160617" lon="13.11302"><ele>727.0</ele><time>2026-04-26T11:57:23.272Z</time></trkpt><trkpt lat="43.3161483" lon="13.1131783"><ele>727.0</ele><time>2026-04-26T11:57:24.272Z</time></trkpt><trkpt lat="43.3162317" lon="13.1133267"><ele>727.0</ele><time>2026-04-26T11:57:25.272Z</time></trkpt><trkpt lat="43.316315" lon="13.1134667"><ele>727.0</ele><time>2026-04-26T11:57:26.272Z</time></trkpt><trkpt lat="43.316395" lon="13.1136217"><ele>720.6666666666667</ele><time>2026-04-26T11:57:27.272Z</time></trkpt><trkpt lat="43.3164883" lon="13.1137767"><ele>714.3333333333334</ele><time>2026-04-26T11:57:28.272Z</time></trkpt><trkpt lat="43.3166083" lon="13.1139517"><ele>708.0</ele><time>2026-04-26T11:57:29.272Z</time></trkpt><trkpt lat="43.3167317" lon="13.1141267"><ele>708.0</ele><time>2026-04-26T11:57:30.273Z</time></trkpt><trkpt lat="43.3168467" lon="13.1142983"><ele>708.0</ele><time>2026-04-26T11:57:31.272Z</time></trkpt><trkpt lat="43.3169633" lon="13.114465"><ele>708.0</ele><time>2026-04-26T11:57:32.272Z</time></trkpt><trkpt lat="43.3170667" lon="13.1146283"><ele>708.0</ele><time>2026-04-26T11:57:33.272Z</time></trkpt><trkpt lat="43.3171733" lon="13.114785"><ele>708.0</ele><time>2026-04-26T11:57:34.272Z</time></trkpt><trkpt lat="43.3172767" lon="13.1149467"><ele>708.0</ele><time>2026-04-26T11:57:35.272Z</time></trkpt><trkpt lat="43.3173933" lon="13.1150983"><ele>700.0</ele><time>2026-04-26T11:57:36.272Z</time></trkpt><trkpt lat="43.3175" lon="13.115255"><ele>692.0</ele><time>2026-04-26T11:57:37.273Z</time></trkpt><trkpt lat="43.3176033" lon="13.11542"><ele>684.0</ele><time>2026-04-26T11:57:38.272Z</time></trkpt><trkpt lat="43.3176817" lon="13.1156"><ele>685.75</ele><time>2026-04-26T11:57:39.272Z</time></trkpt><trkpt lat="43.317745" lon="13.1157883"><ele>687.5</ele><time>2026-04-26T11:57:40.272Z</time></trkpt><trkpt lat="43.317795" lon="13.11597"><ele>689.25</ele><time>2026-04-26T11:57:41.272Z</time></trkpt><trkpt lat="43.3178367" lon="13.11616"><ele>691.0</ele><time>2026-04-26T11:57:42.272Z</time></trkpt><trkpt lat="43.3178683" lon="13.1163517"><ele>691.0</ele><time>2026-04-26T11:57:43.272Z</time></trkpt><trkpt lat="43.3178583" lon="13.11654"><ele>691.0</ele><time>2026-04-26T11:57:44.272Z</time></trkpt><trkpt lat="43.31782" lon="13.1167183"><ele>691.0</ele><time>2026-04-26T11:57:45.272Z</time></trkpt><trkpt lat="43.3177733" lon="13.116895"><ele>691.0</ele><time>2026-04-26T11:57:46.272Z</time></trkpt><trkpt lat="43.3177283" lon="13.117065"><ele>690.25</ele><time>2026-04-26T11:57:47.272Z</time></trkpt><trkpt lat="43.317695" lon="13.117245"><ele>689.5</ele><time>2026-04-26T11:57:48.272Z</time></trkpt><trkpt lat="43.3176817" lon="13.1174283"><ele>688.75</ele><time>2026-04-26T11:57:49.272Z</time></trkpt><trkpt lat="43.3176833" lon="13.1176067"><ele>688.0</ele><time>2026-04-26T11:57:50.273Z</time></trkpt><trkpt lat="43.31768" lon="13.117775"><ele>685.5</ele><time>2026-04-26T11:57:51.272Z</time></trkpt><trkpt lat="43.3176417" lon="13.1179433"><ele>683.0</ele><time>2026-04-26T11:57:52.272Z</time></trkpt><trkpt lat="43.3175883" lon="13.11809"><ele>680.5</ele><time>2026-04-26T11:57:53.272Z</time></trkpt><trkpt lat="43.3175133" lon="13.1182033"><ele>678.0</ele><time>2026-04-26T11:57:54.272Z</time></trkpt><trkpt lat="43.3174517" lon="13.1183167"><ele>675.8333333333334</ele><time>2026-04-26T11:57:55.272Z</time></trkpt><trkpt lat="43.3174033" lon="13.1184283"><ele>673.6666666666666</ele><time>2026-04-26T11:57:56.272Z</time></trkpt><trkpt lat="43.317375" lon="13.1185133"><ele>671.5</ele><time>2026-04-26T11:57:57.272Z</time></trkpt><trkpt lat="43.3173867" lon="13.1186033"><ele>669.3333333333333</ele><time>2026-04-26T11:57:58.272Z</time></trkpt><trkpt lat="43.3174333" lon="13.1186683"><ele>667.1666666666666</ele><time>2026-04-26T11:57:59.272Z</time></trkpt><trkpt lat="43.3174917" lon="13.1187267"><ele>665.0</ele><time>2026-04-26T11:58:00.272Z</time></trkpt><trkpt lat="43.31759" lon="13.118775"><ele>665.0</ele><time>2026-04-26T11:58:01.272Z</time></trkpt><trkpt lat="43.3177117" lon="13.1188267"><ele>665.0</ele><time>2026-04-26T11:58:02.272Z</time></trkpt><trkpt lat="43.3178433" lon="13.118895"><ele>665.0</ele><time>2026-04-26T11:58:03.272Z</time></trkpt><trkpt lat="43.31797" lon="13.1189633"><ele>665.0</ele><time>2026-04-26T11:58:04.272Z</time></trkpt><trkpt lat="43.3181033" lon="13.1190117"><ele>661.2</ele><time>2026-04-26T11:58:05.272Z</time></trkpt><trkpt lat="43.3182267" lon="13.1190517"><ele>657.4</ele><time>2026-04-26T11:58:06.272Z</time></trkpt><trkpt lat="43.318325" lon="13.1190933"><ele>653.5999999999999</ele><time>2026-04-26T11:58:07.272Z</time></trkpt><trkpt lat="43.318395" lon="13.119125"><ele>649.8</ele><time>2026-04-26T11:58:08.273Z</time></trkpt><trkpt lat="43.318455" lon="13.1191517"><ele>646.0</ele><time>2026-04-26T11:58:09.272Z</time></trkpt><trkpt lat="43.31855" lon="13.1190967"><ele>643.5</ele><time>2026-04-26T11:58:11.272Z</time></trkpt><trkpt lat="43.3185017" lon="13.1190283"><ele>641.0</ele><time>2026-04-26T11:58:13.272Z</time></trkpt><trkpt lat="43.3183817" lon="13.1189917"><ele>638.5</ele><time>2026-04-26T11:58:15.272Z</time></trkpt><trkpt lat="43.3183183" lon="13.118975"><ele>636.0</ele><time>2026-04-26T11:58:16.272Z</time></trkpt><trkpt lat="43.3182467" lon="13.118935"><ele>633.5</ele><time>2026-04-26T11:58:18.272Z</time></trkpt><trkpt lat="43.3182" lon="13.1188717"><ele>631.0</ele><time>2026-04-26T11:58:21.272Z</time></trkpt><trkpt lat="43.31812" lon="13.1188367"><ele>631.0</ele><time>2026-04-26T11:58:25.272Z</time></trkpt><trkpt lat="43.3180433" lon="13.1188033"><ele>631.0</ele><time>2026-04-26T11:58:28.272Z</time></trkpt><trkpt lat="43.3179967" lon="13.118725"><ele>631.0</ele><time>2026-04-26T11:58:31.272Z</time></trkpt><trkpt lat="43.31803" lon="13.1186367"><ele>631.0</ele><time>2026-04-26T11:58:34.272Z</time></trkpt><trkpt lat="43.3181467" lon="13.1187033"><ele>631.0</ele><time>2026-04-26T11:58:36.272Z</time></trkpt><trkpt lat="43.3182167" lon="13.1187383"><ele>631.0</ele><time>2026-04-26T11:58:37.272Z</time></trkpt><trkpt lat="43.3182967" lon="13.1187617"><ele>631.0</ele><time>2026-04-26T11:58:38.272Z</time></trkpt><trkpt lat="43.3183867" lon="13.1187733"><ele>631.0</ele><time>2026-04-26T11:58:39.272Z</time></trkpt><trkpt lat="43.31848" lon="13.1187833"><ele>631.0</ele><time>2026-04-26T11:58:40.272Z</time></trkpt><trkpt lat="43.3185767" lon="13.11878"><ele>631.0</ele><time>2026-04-26T11:58:41.272Z</time></trkpt><trkpt lat="43.3186783" lon="13.1187817"><ele>631.0</ele><time>2026-04-26T11:58:42.272Z</time></trkpt><trkpt lat="43.3187933" lon="13.1187933"><ele>624.25</ele><time>2026-04-26T11:58:43.272Z</time></trkpt><trkpt lat="43.3189067" lon="13.1188167"><ele>617.5</ele><time>2026-04-26T11:58:44.272Z</time></trkpt><trkpt lat="43.31903" lon="13.11885"><ele>610.75</ele><time>2026-04-26T11:58:45.272Z</time></trkpt><trkpt lat="43.31915" lon="13.1188917"><ele>604.0</ele><time>2026-04-26T11:58:46.272Z</time></trkpt><trkpt lat="43.31927" lon="13.118945"><ele>604.0</ele><time>2026-04-26T11:58:47.272Z</time></trkpt><trkpt lat="43.3193983" lon="13.1190167"><ele>604.0</ele><time>2026-04-26T11:58:48.272Z</time></trkpt><trkpt lat="43.3195333" lon="13.1191033"><ele>604.0</ele><time>2026-04-26T11:58:49.272Z</time></trkpt><trkpt lat="43.3196617" lon="13.11922"><ele>604.0</ele><time>2026-04-26T11:58:50.272Z</time></trkpt><trkpt lat="43.3197833" lon="13.1193567"><ele>603.0</ele><time>2026-04-26T11:58:51.272Z</time></trkpt><trkpt lat="43.3199067" lon="13.1195217"><ele>602.0</ele><time>2026-04-26T11:58:52.272Z</time></trkpt><trkpt lat="43.3200417" lon="13.11969"><ele>601.0</ele><time>2026-04-26T11:58:53.272Z</time></trkpt><trkpt lat="43.320175" lon="13.1198683"><ele>607.3333333333334</ele><time>2026-04-26T11:58:54.272Z</time></trkpt><trkpt lat="43.3202917" lon="13.120055"><ele>613.6666666666666</ele><time>2026-04-26T11:58:55.272Z</time></trkpt><trkpt lat="43.3204017" lon="13.1202267"><ele>620.0</ele><time>2026-04-26T11:58:56.272Z</time></trkpt><trkpt lat="43.3205067" lon="13.1204017"><ele>614.0</ele><time>2026-04-26T11:58:57.272Z</time></trkpt><trkpt lat="43.320615" lon="13.1205583"><ele>608.0</ele><time>2026-04-26T11:58:58.272Z</time></trkpt><trkpt lat="43.32072" lon="13.1207033"><ele>602.0</ele><time>2026-04-26T11:58:59.272Z</time></trkpt><trkpt lat="43.3208267" lon="13.12084"><ele>602.0</ele><time>2026-04-26T11:59:00.272Z</time></trkpt><trkpt lat="43.320925" lon="13.1209817"><ele>602.0</ele><time>2026-04-26T11:59:01.272Z</time></trkpt><trkpt lat="43.321" lon="13.1211433"><ele>602.0</ele><time>2026-04-26T11:59:02.272Z</time></trkpt><trkpt lat="43.32105" lon="13.12132"><ele>602.0</ele><time>2026-04-26T11:59:03.272Z</time></trkpt><trkpt lat="43.3210767" lon="13.1215033"><ele>603.5</ele><time>2026-04-26T11:59:04.272Z</time></trkpt><trkpt lat="43.3210933" lon="13.1216917"><ele>605.0</ele><time>2026-04-26T11:59:05.272Z</time></trkpt><trkpt lat="43.3211067" lon="13.12188"><ele>606.5</ele><time>2026-04-26T11:59:06.272Z</time></trkpt><trkpt lat="43.3211017" lon="13.1220683"><ele>608.0</ele><time>2026-04-26T11:59:07.272Z</time></trkpt><trkpt lat="43.3210867" lon="13.12225"><ele>606.0</ele><time>2026-04-26T11:59:08.272Z</time></trkpt><trkpt lat="43.3210667" lon="13.1224317"><ele>604.0</ele><time>2026-04-26T11:59:09.272Z</time></trkpt><trkpt lat="43.3210367" lon="13.1226067"><ele>602.0</ele><time>2026-04-26T11:59:10.272Z</time></trkpt><trkpt lat="43.3210133" lon="13.1227883"><ele>600.0</ele><time>2026-04-26T11:59:11.273Z</time></trkpt><trkpt lat="43.32099" lon="13.1229717"><ele>600.0</ele><time>2026-04-26T11:59:12.272Z</time></trkpt><trkpt lat="43.320945" lon="13.1231483"><ele>600.0</ele><time>2026-04-26T11:59:13.272Z</time></trkpt><trkpt lat="43.3209167" lon="13.1233183"><ele>600.0</ele><time>2026-04-26T11:59:14.272Z</time></trkpt><trkpt lat="43.3208833" lon="13.123485"><ele>600.0</ele><time>2026-04-26T11:59:15.272Z</time></trkpt><trkpt lat="43.320855" lon="13.1236517"><ele>597.0</ele><time>2026-04-26T11:59:16.272Z</time></trkpt><trkpt lat="43.3208483" lon="13.12382"><ele>594.0</ele><time>2026-04-26T11:59:17.272Z</time></trkpt><trkpt lat="43.3208517" lon="13.1239867"><ele>591.0</ele><time>2026-04-26T11:59:18.272Z</time></trkpt><trkpt lat="43.3208583" lon="13.1241433"><ele>588.0</ele><time>2026-04-26T11:59:19.272Z</time></trkpt><trkpt lat="43.3208667" lon="13.1243017"><ele>586.0</ele><time>2026-04-26T11:59:20.272Z</time></trkpt><trkpt lat="43.320855" lon="13.1244517"><ele>584.0</ele><time>2026-04-26T11:59:21.272Z</time></trkpt><trkpt lat="43.3208417" lon="13.12461"><ele>582.0</ele><time>2026-04-26T11:59:22.272Z</time></trkpt><trkpt lat="43.320805" lon="13.1247583"><ele>580.0</ele><time>2026-04-26T11:59:23.272Z</time></trkpt><trkpt lat="43.320745" lon="13.1248983"><ele>576.75</ele><time>2026-04-26T11:59:24.272Z</time></trkpt><trkpt lat="43.3206883" lon="13.1250333"><ele>573.5</ele><time>2026-04-26T11:59:25.272Z</time></trkpt><trkpt lat="43.3206383" lon="13.1251733"><ele>570.25</ele><time>2026-04-26T11:59:26.272Z</time></trkpt><trkpt lat="43.3206117" lon="13.1253317"><ele>567.0</ele><time>2026-04-26T11:59:27.272Z</time></trkpt><trkpt lat="43.3206183" lon="13.1254933"><ele>567.0</ele><time>2026-04-26T11:59:28.272Z</time></trkpt><trkpt lat="43.3206133" lon="13.1256517"><ele>567.0</ele><time>2026-04-26T11:59:29.272Z</time></trkpt><trkpt lat="43.3206" lon="13.12581"><ele>567.0</ele><time>2026-04-26T11:59:30.272Z</time></trkpt><trkpt lat="43.3205883" lon="13.1259633"><ele>567.0</ele><time>2026-04-26T11:59:31.272Z</time></trkpt><trkpt lat="43.32057" lon="13.1261183"><ele>566.5</ele><time>2026-04-26T11:59:32.272Z</time></trkpt><trkpt lat="43.3205333" lon="13.1262683"><ele>566.0</ele><time>2026-04-26T11:59:33.272Z</time></trkpt><trkpt lat="43.3204767" lon="13.1264033"><ele>565.5</ele><time>2026-04-26T11:59:34.272Z</time></trkpt><trkpt lat="43.3204133" lon="13.1265317"><ele>565.0</ele><time>2026-04-26T11:59:35.272Z</time></trkpt><trkpt lat="43.3203383" lon="13.126655"><ele>565.0</ele><time>2026-04-26T11:59:36.272Z</time></trkpt><trkpt lat="43.320265" lon="13.1267817"><ele>565.0</ele><time>2026-04-26T11:59:37.272Z</time></trkpt><trkpt lat="43.32018" lon="13.1268833"><ele>565.0</ele><time>2026-04-26T11:59:38.272Z</time></trkpt><trkpt lat="43.3200767" lon="13.1269567"><ele>565.0</ele><time>2026-04-26T11:59:39.272Z</time></trkpt><trkpt lat="43.3199633" lon="13.127"><ele>565.0</ele><time>2026-04-26T11:59:40.272Z</time></trkpt><trkpt lat="43.31986" lon="13.1270533"><ele>565.0</ele><time>2026-04-26T11:59:41.272Z</time></trkpt><trkpt lat="43.3197617" lon="13.127135"><ele>565.0</ele><time>2026-04-26T11:59:42.272Z</time></trkpt><trkpt lat="43.3196617" lon="13.1272417"><ele>565.0</ele><time>2026-04-26T11:59:43.273Z</time></trkpt><trkpt lat="43.3195617" lon="13.1273433"><ele>563.2</ele><time>2026-04-26T11:59:44.272Z</time></trkpt><trkpt lat="43.3194717" lon="13.1274267"><ele>561.4</ele><time>2026-04-26T11:59:45.272Z</time></trkpt><trkpt lat="43.319375" lon="13.1275083"><ele>559.6</ele><time>2026-04-26T11:59:46.272Z</time></trkpt><trkpt lat="43.3192867" lon="13.12759"><ele>557.8</ele><time>2026-04-26T11:59:47.272Z</time></trkpt><trkpt lat="43.319195" lon="13.1276867"><ele>556.0</ele><time>2026-04-26T11:59:48.272Z</time></trkpt><trkpt lat="43.3191117" lon="13.1277467"><ele>556.0</ele><time>2026-04-26T11:59:49.272Z</time></trkpt><trkpt lat="43.3190133" lon="13.1277767"><ele>556.0</ele><time>2026-04-26T11:59:50.273Z</time></trkpt><trkpt lat="43.318915" lon="13.12779"><ele>556.0</ele><time>2026-04-26T11:59:51.272Z</time></trkpt><trkpt lat="43.3188117" lon="13.1277883"><ele>556.0</ele><time>2026-04-26T11:59:52.273Z</time></trkpt><trkpt lat="43.3187217" lon="13.1278017"><ele>556.0</ele><time>2026-04-26T11:59:53.272Z</time></trkpt><trkpt lat="43.318645" lon="13.1278067"><ele>556.0</ele><time>2026-04-26T11:59:54.273Z</time></trkpt><trkpt lat="43.318585" lon="13.1278367"><ele>556.0</ele><time>2026-04-26T11:59:55.272Z</time></trkpt><trkpt lat="43.3185633" lon="13.1279483"><ele>556.0</ele><time>2026-04-26T11:59:57.272Z</time></trkpt><trkpt lat="43.3186283" lon="13.1279883"><ele>556.0</ele><time>2026-04-26T11:59:58.272Z</time></trkpt><trkpt lat="43.3187167" lon="13.1279983"><ele>556.0</ele><time>2026-04-26T11:59:59.272Z</time></trkpt><trkpt lat="43.31882" lon="13.128"><ele>556.0</ele><time>2026-04-26T12:00:00.272Z</time></trkpt><trkpt lat="43.3189317" lon="13.12801"><ele>556.0</ele><time>2026-04-26T12:00:01.272Z</time></trkpt><trkpt lat="43.319035" lon="13.1280383"><ele>556.0</ele><time>2026-04-26T12:00:02.272Z</time></trkpt><trkpt lat="43.3191383" lon="13.1280833"><ele>556.0</ele><time>2026-04-26T12:00:03.272Z</time></trkpt><trkpt lat="43.3192383" lon="13.1281317"><ele>556.0</ele><time>2026-04-26T12:00:04.272Z</time></trkpt><trkpt lat="43.319335" lon="13.1281833"><ele>556.0</ele><time>2026-04-26T12:00:05.272Z</time></trkpt><trkpt lat="43.3194267" lon="13.1282583"><ele>552.2</ele><time>2026-04-26T12:00:06.272Z</time></trkpt><trkpt lat="43.3195083" lon="13.1283333"><ele>548.4000000000001</ele><time>2026-04-26T12:00:07.272Z</time></trkpt><trkpt lat="43.3195767" lon="13.1284217"><ele>544.6</ele><time>2026-04-26T12:00:08.272Z</time></trkpt><trkpt lat="43.3196183" lon="13.1285283"><ele>540.8000000000001</ele><time>2026-04-26T12:00:09.272Z</time></trkpt><trkpt lat="43.3196383" lon="13.128665"><ele>537.0</ele><time>2026-04-26T12:00:10.273Z</time></trkpt><trkpt lat="43.31964" lon="13.128815"><ele>537.0</ele><time>2026-04-26T12:00:11.273Z</time></trkpt><trkpt lat="43.3196283" lon="13.1289667"><ele>537.0</ele><time>2026-04-26T12:00:12.273Z</time></trkpt><trkpt lat="43.3196083" lon="13.12911"><ele>537.0</ele><time>2026-04-26T12:00:13.272Z</time></trkpt><trkpt lat="43.3195817" lon="13.1292517"><ele>537.0</ele><time>2026-04-26T12:00:14.272Z</time></trkpt><trkpt lat="43.3195583" lon="13.12938"><ele>537.0</ele><time>2026-04-26T12:00:15.272Z</time></trkpt><trkpt lat="43.319555" lon="13.1295017"><ele>534.6</ele><time>2026-04-26T12:00:16.272Z</time></trkpt><trkpt lat="43.319585" lon="13.12961"><ele>532.2</ele><time>2026-04-26T12:00:17.272Z</time></trkpt><trkpt lat="43.3196333" lon="13.1297067"><ele>529.8</ele><time>2026-04-26T12:00:18.272Z</time></trkpt><trkpt lat="43.319715" lon="13.1297733"><ele>527.4</ele><time>2026-04-26T12:00:19.272Z</time></trkpt><trkpt lat="43.31982" lon="13.1298083"><ele>525.0</ele><time>2026-04-26T12:00:20.272Z</time></trkpt><trkpt lat="43.3199267" lon="13.1298417"><ele>524.25</ele><time>2026-04-26T12:00:21.272Z</time></trkpt><trkpt lat="43.3200367" lon="13.1298917"><ele>523.5</ele><time>2026-04-26T12:00:22.272Z</time></trkpt><trkpt lat="43.32014" lon="13.1299617"><ele>522.75</ele><time>2026-04-26T12:00:23.272Z</time></trkpt><trkpt lat="43.3202267" lon="13.13007"><ele>522.0</ele><time>2026-04-26T12:00:24.273Z</time></trkpt><trkpt lat="43.3203033" lon="13.1301967"><ele>522.0</ele><time>2026-04-26T12:00:25.272Z</time></trkpt><trkpt lat="43.3203817" lon="13.13033"><ele>522.0</ele><time>2026-04-26T12:00:26.272Z</time></trkpt><trkpt lat="43.3204533" lon="13.1304567"><ele>522.0</ele><time>2026-04-26T12:00:27.272Z</time></trkpt><trkpt lat="43.3205217" lon="13.1305667"><ele>522.0</ele><time>2026-04-26T12:00:28.272Z</time></trkpt><trkpt lat="43.3205883" lon="13.1306867"><ele>522.2</ele><time>2026-04-26T12:00:29.272Z</time></trkpt><trkpt lat="43.3206367" lon="13.1308"><ele>522.4000000000001</ele><time>2026-04-26T12:00:30.272Z</time></trkpt><trkpt lat="43.3206517" lon="13.1309167"><ele>522.5999999999999</ele><time>2026-04-26T12:00:31.272Z</time></trkpt><trkpt lat="43.3206383" lon="13.1310383"><ele>522.8</ele><time>2026-04-26T12:00:32.272Z</time></trkpt><trkpt lat="43.3206067" lon="13.13118"><ele>523.0</ele><time>2026-04-26T12:00:33.272Z</time></trkpt><trkpt lat="43.3205533" lon="13.131315"><ele>523.0</ele><time>2026-04-26T12:00:34.272Z</time></trkpt><trkpt lat="43.3204883" lon="13.1314467"><ele>523.0</ele><time>2026-04-26T12:00:35.273Z</time></trkpt><trkpt lat="43.3204167" lon="13.1315667"><ele>523.0</ele><time>2026-04-26T12:00:36.272Z</time></trkpt><trkpt lat="43.3203267" lon="13.1316367"><ele>523.0</ele><time>2026-04-26T12:00:37.272Z</time></trkpt><trkpt lat="43.3202333" lon="13.13167"><ele>523.0</ele><time>2026-04-26T12:00:38.272Z</time></trkpt><trkpt lat="43.3201367" lon="13.1316733"><ele>523.0</ele><time>2026-04-26T12:00:39.272Z</time></trkpt><trkpt lat="43.3200317" lon="13.1316383"><ele>523.0</ele><time>2026-04-26T12:00:40.272Z</time></trkpt><trkpt lat="43.3199183" lon="13.131585"><ele>523.0</ele><time>2026-04-26T12:00:41.272Z</time></trkpt><trkpt lat="43.3198133" lon="13.1315317"><ele>523.0</ele><time>2026-04-26T12:00:42.273Z</time></trkpt><trkpt lat="43.3197167" lon="13.1314517"><ele>518.25</ele><time>2026-04-26T12:00:43.272Z</time></trkpt><trkpt lat="43.3196383" lon="13.1313333"><ele>513.5</ele><time>2026-04-26T12:00:44.272Z</time></trkpt><trkpt lat="43.31957" lon="13.1311933"><ele>508.75</ele><time>2026-04-26T12:00:45.272Z</time></trkpt><trkpt lat="43.3195017" lon="13.1310517"><ele>504.0</ele><time>2026-04-26T12:00:46.272Z</time></trkpt><trkpt lat="43.319425" lon="13.13092"><ele>504.0</ele><time>2026-04-26T12:00:47.272Z</time></trkpt><trkpt lat="43.3193333" lon="13.1308183"><ele>504.0</ele><time>2026-04-26T12:00:48.273Z</time></trkpt><trkpt lat="43.3192333" lon="13.1307367"><ele>504.0</ele><time>2026-04-26T12:00:49.272Z</time></trkpt><trkpt lat="43.3191317" lon="13.1306583"><ele>504.0</ele><time>2026-04-26T12:00:50.272Z</time></trkpt><trkpt lat="43.319055" lon="13.13055"><ele>503.6</ele><time>2026-04-26T12:00:51.273Z</time></trkpt><trkpt lat="43.318995" lon="13.1304217"><ele>503.2</ele><time>2026-04-26T12:00:52.272Z</time></trkpt><trkpt lat="43.3189417" lon="13.130285"><ele>502.80000000000007</ele><time>2026-04-26T12:00:53.272Z</time></trkpt><trkpt lat="43.3188817" lon="13.1301583"><ele>502.40000000000003</ele><time>2026-04-26T12:00:54.272Z</time></trkpt><trkpt lat="43.3188083" lon="13.1300783"><ele>502.0</ele><time>2026-04-26T12:00:55.272Z</time></trkpt><trkpt lat="43.3187133" lon="13.13006"><ele>502.0</ele><time>2026-04-26T12:00:56.272Z</time></trkpt><trkpt lat="43.3186183" lon="13.1300867"><ele>502.00000000000006</ele><time>2026-04-26T12:00:57.272Z</time></trkpt><trkpt lat="43.3185233" lon="13.1301317"><ele>502.00000000000006</ele><time>2026-04-26T12:00:58.272Z</time></trkpt><trkpt lat="43.3184317" lon="13.1301933"><ele>502.0</ele><time>2026-04-26T12:00:59.272Z</time></trkpt><trkpt lat="43.3183467" lon="13.13025"><ele>502.0</ele><time>2026-04-26T12:01:00.272Z</time></trkpt><trkpt lat="43.3182667" lon="13.130305"><ele>502.00000000000006</ele><time>2026-04-26T12:01:01.272Z</time></trkpt><trkpt lat="43.3181983" lon="13.130345"><ele>502.0</ele><time>2026-04-26T12:01:02.272Z</time></trkpt><trkpt lat="43.31811" lon="13.1304183"><ele>502.0</ele><time>2026-04-26T12:01:04.272Z</time></trkpt><trkpt lat="43.3181033" lon="13.1305133"><ele>502.0</ele><time>2026-04-26T12:01:06.272Z</time></trkpt><trkpt lat="43.3182033" lon="13.13057"><ele>502.00000000000006</ele><time>2026-04-26T12:01:08.272Z</time></trkpt><trkpt lat="43.3182833" lon="13.1305867"><ele>502.0</ele><time>2026-04-26T12:01:09.272Z</time></trkpt><trkpt lat="43.318385" lon="13.13062"><ele>502.0</ele><time>2026-04-26T12:01:10.273Z</time></trkpt><trkpt lat="43.3185" lon="13.1306683"><ele>502.0</ele><time>2026-04-26T12:01:11.272Z</time></trkpt><trkpt lat="43.3186167" lon="13.1307233"><ele>502.0</ele><time>2026-04-26T12:01:12.272Z</time></trkpt><trkpt lat="43.3187433" lon="13.1307867"><ele>502.0</ele><time>2026-04-26T12:01:13.272Z</time></trkpt><trkpt lat="43.31887" lon="13.1308717"><ele>502.6666666666667</ele><time>2026-04-26T12:01:14.272Z</time></trkpt><trkpt lat="43.31899" lon="13.13098"><ele>503.33333333333337</ele><time>2026-04-26T12:01:15.273Z</time></trkpt><trkpt lat="43.3191067" lon="13.1311283"><ele>504.0</ele><time>2026-04-26T12:01:16.272Z</time></trkpt><trkpt lat="43.3192083" lon="13.13131"><ele>504.0</ele><time>2026-04-26T12:01:17.272Z</time></trkpt><trkpt lat="43.3193167" lon="13.1315233"><ele>504.0</ele><time>2026-04-26T12:01:18.272Z</time></trkpt><trkpt lat="43.3194283" lon="13.13174"><ele>504.0</ele><time>2026-04-26T12:01:19.272Z</time></trkpt><trkpt lat="43.3195433" lon="13.13195"><ele>501.33333333333337</ele><time>2026-04-26T12:01:20.272Z</time></trkpt><trkpt lat="43.3196317" lon="13.132145"><ele>498.6666666666667</ele><time>2026-04-26T12:01:21.273Z</time></trkpt><trkpt lat="43.3197233" lon="13.132325"><ele>496.0</ele><time>2026-04-26T12:01:22.273Z</time></trkpt><trkpt lat="43.319805" lon="13.1325017"><ele>496.0</ele><time>2026-04-26T12:01:23.272Z</time></trkpt><trkpt lat="43.31989" lon="13.1326633"><ele>496.0</ele><time>2026-04-26T12:01:24.272Z</time></trkpt><trkpt lat="43.31997" lon="13.13282"><ele>496.0</ele><time>2026-04-26T12:01:25.272Z</time></trkpt><trkpt lat="43.3200817" lon="13.1329533"><ele>496.0</ele><time>2026-04-26T12:01:26.272Z</time></trkpt><trkpt lat="43.3202067" lon="13.133055"><ele>496.0</ele><time>2026-04-26T12:01:27.273Z</time></trkpt><trkpt lat="43.32036" lon="13.1331067"><ele>496.0</ele><time>2026-04-26T12:01:28.272Z</time></trkpt><trkpt lat="43.320535" lon="13.1331217"><ele>496.0</ele><time>2026-04-26T12:01:29.272Z</time></trkpt><trkpt lat="43.3207133" lon="13.1331117"><ele>496.33333333333337</ele><time>2026-04-26T12:01:30.272Z</time></trkpt><trkpt lat="43.3208683" lon="13.13311"><ele>496.66666666666663</ele><time>2026-04-26T12:01:31.272Z</time></trkpt><trkpt lat="43.3210183" lon="13.133115"><ele>497.0</ele><time>2026-04-26T12:01:32.272Z</time></trkpt><trkpt lat="43.321165" lon="13.13311"><ele>497.0</ele><time>2026-04-26T12:01:33.272Z</time></trkpt><trkpt lat="43.3213067" lon="13.1330667"><ele>497.0</ele><time>2026-04-26T12:01:34.272Z</time></trkpt><trkpt lat="43.321435" lon="13.1329667"><ele>497.0</ele><time>2026-04-26T12:01:35.272Z</time></trkpt><trkpt lat="43.3215667" lon="13.13282"><ele>495.66666666666663</ele><time>2026-04-26T12:01:36.273Z</time></trkpt><trkpt lat="43.321695" lon="13.1326467"><ele>494.33333333333337</ele><time>2026-04-26T12:01:37.272Z</time></trkpt><trkpt lat="43.3218317" lon="13.1324667"><ele>493.0</ele><time>2026-04-26T12:01:38.272Z</time></trkpt><trkpt lat="43.321965" lon="13.1322967"><ele>493.0</ele><time>2026-04-26T12:01:39.272Z</time></trkpt><trkpt lat="43.322095" lon="13.1321367"><ele>493.0</ele><time>2026-04-26T12:01:40.272Z</time></trkpt><trkpt lat="43.3222233" lon="13.1319833"><ele>493.0</ele><time>2026-04-26T12:01:41.272Z</time></trkpt><trkpt lat="43.322345" lon="13.1318067"><ele>490.33333333333337</ele><time>2026-04-26T12:01:42.272Z</time></trkpt><trkpt lat="43.3224533" lon="13.131605"><ele>487.66666666666663</ele><time>2026-04-26T12:01:43.272Z</time></trkpt><trkpt lat="43.3225567" lon="13.1313817"><ele>485.0</ele><time>2026-04-26T12:01:44.272Z</time></trkpt><trkpt lat="43.322645" lon="13.1311317"><ele>483.66666666666663</ele><time>2026-04-26T12:01:45.272Z</time></trkpt><trkpt lat="43.3227267" lon="13.1308783"><ele>482.33333333333337</ele><time>2026-04-26T12:01:46.273Z</time></trkpt><trkpt lat="43.3228" lon="13.13064"><ele>481.0</ele><time>2026-04-26T12:01:47.273Z</time></trkpt><trkpt lat="43.322885" lon="13.1304267"><ele>480.33333333333337</ele><time>2026-04-26T12:01:48.272Z</time></trkpt><trkpt lat="43.3229833" lon="13.13025"><ele>479.66666666666663</ele><time>2026-04-26T12:01:49.273Z</time></trkpt><trkpt lat="43.3231167" lon="13.1301167"><ele>479.0</ele><time>2026-04-26T12:01:50.272Z</time></trkpt><trkpt lat="43.3232733" lon="13.130035"><ele>478.0</ele><time>2026-04-26T12:01:51.272Z</time></trkpt><trkpt lat="43.3234283" lon="13.1299683"><ele>477.0</ele><time>2026-04-26T12:01:52.272Z</time></trkpt><trkpt lat="43.323575" lon="13.1299167"><ele>476.0</ele><time>2026-04-26T12:01:53.272Z</time></trkpt><trkpt lat="43.32371" lon="13.1298583"><ele>476.0</ele><time>2026-04-26T12:01:54.273Z</time></trkpt><trkpt lat="43.323825" lon="13.1297783"><ele>476.0</ele><time>2026-04-26T12:01:55.272Z</time></trkpt><trkpt lat="43.3239267" lon="13.12965"><ele>476.0</ele><time>2026-04-26T12:01:56.272Z</time></trkpt><trkpt lat="43.32401" lon="13.1294833"><ele>476.0</ele><time>2026-04-26T12:01:57.272Z</time></trkpt><trkpt lat="43.32407" lon="13.1292683"><ele>471.3333333333333</ele><time>2026-04-26T12:01:58.272Z</time></trkpt><trkpt lat="43.3240967" lon="13.12902"><ele>466.66666666666663</ele><time>2026-04-26T12:01:59.272Z</time></trkpt><trkpt lat="43.324095" lon="13.1287433"><ele>462.0</ele><time>2026-04-26T12:02:00.272Z</time></trkpt><trkpt lat="43.3240833" lon="13.128465"><ele>461.33333333333337</ele><time>2026-04-26T12:02:01.272Z</time></trkpt><trkpt lat="43.3240767" lon="13.128185"><ele>460.6666666666667</ele><time>2026-04-26T12:02:02.272Z</time></trkpt><trkpt lat="43.3240733" lon="13.1279083"><ele>460.0</ele><time>2026-04-26T12:02:03.272Z</time></trkpt><trkpt lat="43.3240717" lon="13.12764"><ele>460.0</ele><time>2026-04-26T12:02:04.272Z</time></trkpt><trkpt lat="43.3240667" lon="13.1273767"><ele>460.0</ele><time>2026-04-26T12:02:05.272Z</time></trkpt><trkpt lat="43.3240683" lon="13.12712"><ele>460.0</ele><time>2026-04-26T12:02:06.272Z</time></trkpt><trkpt lat="43.3240617" lon="13.1268883"><ele>460.0</ele><time>2026-04-26T12:02:07.273Z</time></trkpt><trkpt lat="43.32406" lon="13.12667"><ele>460.0</ele><time>2026-04-26T12:02:08.272Z</time></trkpt><trkpt lat="43.32406" lon="13.1264633"><ele>460.0</ele><time>2026-04-26T12:02:09.272Z</time></trkpt><trkpt lat="43.32408" lon="13.1262733"><ele>460.0</ele><time>2026-04-26T12:02:10.272Z</time></trkpt><trkpt lat="43.3241383" lon="13.1261133"><ele>459.25</ele><time>2026-04-26T12:02:11.272Z</time></trkpt><trkpt lat="43.324205" lon="13.1259833"><ele>458.5</ele><time>2026-04-26T12:02:12.272Z</time></trkpt><trkpt lat="43.324305" lon="13.1259117"><ele>457.75</ele><time>2026-04-26T12:02:13.271Z</time></trkpt><trkpt lat="43.3244233" lon="13.1259033"><ele>457.0</ele><time>2026-04-26T12:02:14.271Z</time></trkpt><trkpt lat="43.3245483" lon="13.1259283"><ele>457.0</ele><time>2026-04-26T12:02:15.271Z</time></trkpt><trkpt lat="43.3246683" lon="13.1259983"><ele>457.0</ele><time>2026-04-26T12:02:16.271Z</time></trkpt><trkpt lat="43.3248017" lon="13.1261383"><ele>457.0</ele><time>2026-04-26T12:02:17.271Z</time></trkpt><trkpt lat="43.3249233" lon="13.1263083"><ele>457.0</ele><time>2026-04-26T12:02:18.271Z</time></trkpt><trkpt lat="43.3250517" lon="13.12649"><ele>457.0</ele><time>2026-04-26T12:02:19.271Z</time></trkpt><trkpt lat="43.325165" lon="13.126645"><ele>457.0</ele><time>2026-04-26T12:02:20.271Z</time></trkpt><trkpt lat="43.325285" lon="13.1267717"><ele>456.6666666666667</ele><time>2026-04-26T12:02:21.272Z</time></trkpt><trkpt lat="43.3254133" lon="13.12686"><ele>456.33333333333337</ele><time>2026-04-26T12:02:22.271Z</time></trkpt><trkpt lat="43.325565" lon="13.1269017"><ele>456.0</ele><time>2026-04-26T12:02:23.271Z</time></trkpt><trkpt lat="43.3257233" lon="13.1268933"><ele>456.0</ele><time>2026-04-26T12:02:24.272Z</time></trkpt><trkpt lat="43.32591" lon="13.1268383"><ele>456.0</ele><time>2026-04-26T12:02:25.271Z</time></trkpt><trkpt lat="43.3261017" lon="13.12676"><ele>456.0</ele><time>2026-04-26T12:02:26.271Z</time></trkpt><trkpt lat="43.326285" lon="13.1266533"><ele>460.0</ele><time>2026-04-26T12:02:27.271Z</time></trkpt><trkpt lat="43.32646" lon="13.126545"><ele>464.0</ele><time>2026-04-26T12:02:28.271Z</time></trkpt><trkpt lat="43.3266333" lon="13.1264283"><ele>468.0</ele><time>2026-04-26T12:02:29.272Z</time></trkpt><trkpt lat="43.3268033" lon="13.126305"><ele>468.0</ele><time>2026-04-26T12:02:30.271Z</time></trkpt><trkpt lat="43.32696" lon="13.1261917"><ele>468.0</ele><time>2026-04-26T12:02:31.271Z</time></trkpt><trkpt lat="43.3271133" lon="13.1260883"><ele>468.0</ele><time>2026-04-26T12:02:32.271Z</time></trkpt><trkpt lat="43.3272567" lon="13.1259833"><ele>470.66666666666663</ele><time>2026-04-26T12:02:33.271Z</time></trkpt><trkpt lat="43.3274017" lon="13.12588"><ele>473.3333333333333</ele><time>2026-04-26T12:02:34.271Z</time></trkpt><trkpt lat="43.3275483" lon="13.1257683"><ele>476.0</ele><time>2026-04-26T12:02:35.271Z</time></trkpt><trkpt lat="43.3277" lon="13.1256467"><ele>473.3333333333333</ele><time>2026-04-26T12:02:36.271Z</time></trkpt><trkpt lat="43.32784" lon="13.1255033"><ele>470.66666666666663</ele><time>2026-04-26T12:02:37.271Z</time></trkpt><trkpt lat="43.3279683" lon="13.1253333"><ele>468.0</ele><time>2026-04-26T12:02:38.271Z</time></trkpt><trkpt lat="43.328075" lon="13.12515"><ele>468.0</ele><time>2026-04-26T12:02:39.272Z</time></trkpt><trkpt lat="43.3281617" lon="13.124965"><ele>468.0</ele><time>2026-04-26T12:02:40.271Z</time></trkpt><trkpt lat="43.32824" lon="13.1247767"><ele>468.0</ele><time>2026-04-26T12:02:41.272Z</time></trkpt><trkpt lat="43.3283117" lon="13.124585"><ele>470.33333333333337</ele><time>2026-04-26T12:02:42.271Z</time></trkpt><trkpt lat="43.3283667" lon="13.124375"><ele>472.6666666666667</ele><time>2026-04-26T12:02:43.271Z</time></trkpt><trkpt lat="43.328405" lon="13.1241517"><ele>475.0</ele><time>2026-04-26T12:02:44.271Z</time></trkpt><trkpt lat="43.32844" lon="13.1239133"><ele>476.6666666666667</ele><time>2026-04-26T12:02:45.271Z</time></trkpt><trkpt lat="43.3284867" lon="13.1236717"><ele>478.33333333333337</ele><time>2026-04-26T12:02:46.271Z</time></trkpt><trkpt lat="43.328545" lon="13.1234233"><ele>480.0</ele><time>2026-04-26T12:02:47.271Z</time></trkpt><trkpt lat="43.3286283" lon="13.123165"><ele>479.33333333333337</ele><time>2026-04-26T12:02:48.271Z</time></trkpt><trkpt lat="43.3287283" lon="13.1229283"><ele>478.6666666666667</ele><time>2026-04-26T12:02:49.271Z</time></trkpt><trkpt lat="43.3288467" lon="13.1227167"><ele>478.0</ele><time>2026-04-26T12:02:50.271Z</time></trkpt><trkpt lat="43.3289783" lon="13.1225"><ele>480.0</ele><time>2026-04-26T12:02:51.271Z</time></trkpt><trkpt lat="43.32911" lon="13.1222917"><ele>482.0</ele><time>2026-04-26T12:02:52.271Z</time></trkpt><trkpt lat="43.3292433" lon="13.1220917"><ele>484.0</ele><time>2026-04-26T12:02:53.271Z</time></trkpt><trkpt lat="43.3293767" lon="13.1219083"><ele>484.0</ele><time>2026-04-26T12:02:54.271Z</time></trkpt><trkpt lat="43.3295033" lon="13.1217317"><ele>484.0</ele><time>2026-04-26T12:02:55.272Z</time></trkpt><trkpt lat="43.3296267" lon="13.1215467"><ele>484.0</ele><time>2026-04-26T12:02:56.271Z</time></trkpt><trkpt lat="43.32975" lon="13.1213733"><ele>484.0</ele><time>2026-04-26T12:02:57.271Z</time></trkpt><trkpt lat="43.3298833" lon="13.1212133"><ele>484.0</ele><time>2026-04-26T12:02:58.271Z</time></trkpt><trkpt lat="43.3300233" lon="13.1210867"><ele>484.0</ele><time>2026-04-26T12:02:59.271Z</time></trkpt><trkpt lat="43.3301867" lon="13.1209817"><ele>484.0</ele><time>2026-04-26T12:03:00.271Z</time></trkpt><trkpt lat="43.3303517" lon="13.120885"><ele>484.0</ele><time>2026-04-26T12:03:01.271Z</time></trkpt><trkpt lat="43.3305067" lon="13.12081"><ele>484.0</ele><time>2026-04-26T12:03:02.271Z</time></trkpt><trkpt lat="43.3306583" lon="13.1207367"><ele>484.33333333333337</ele><time>2026-04-26T12:03:03.272Z</time></trkpt><trkpt lat="43.3308083" lon="13.1207"><ele>484.66666666666663</ele><time>2026-04-26T12:03:04.271Z</time></trkpt><trkpt lat="43.3309617" lon="13.120715"><ele>485.0</ele><time>2026-04-26T12:03:05.271Z</time></trkpt><trkpt lat="43.331105" lon="13.1207767"><ele>485.0</ele><time>2026-04-26T12:03:06.271Z</time></trkpt><trkpt lat="43.3312517" lon="13.1208867"><ele>485.0</ele><time>2026-04-26T12:03:07.271Z</time></trkpt><trkpt lat="43.3314017" lon="13.1210367"><ele>485.0</ele><time>2026-04-26T12:03:08.271Z</time></trkpt><trkpt lat="43.33155" lon="13.1212"><ele>486.66666666666663</ele><time>2026-04-26T12:03:09.271Z</time></trkpt><trkpt lat="43.33168" lon="13.1213933"><ele>488.33333333333337</ele><time>2026-04-26T12:03:10.271Z</time></trkpt><trkpt lat="43.3318083" lon="13.1215917"><ele>490.0</ele><time>2026-04-26T12:03:11.271Z</time></trkpt><trkpt lat="43.3319233" lon="13.1217717"><ele>490.0</ele><time>2026-04-26T12:03:12.271Z</time></trkpt><trkpt lat="43.3320183" lon="13.1219533"><ele>490.0</ele><time>2026-04-26T12:03:13.271Z</time></trkpt><trkpt lat="43.3321183" lon="13.1221283"><ele>490.0</ele><time>2026-04-26T12:03:14.271Z</time></trkpt><trkpt lat="43.3322133" lon="13.1223017"><ele>491.75</ele><time>2026-04-26T12:03:15.271Z</time></trkpt><trkpt lat="43.33231" lon="13.1224517"><ele>493.5</ele><time>2026-04-26T12:03:16.272Z</time></trkpt><trkpt lat="43.3323867" lon="13.1225917"><ele>495.25</ele><time>2026-04-26T12:03:17.271Z</time></trkpt><trkpt lat="43.33247" lon="13.1227283"><ele>497.0</ele><time>2026-04-26T12:03:18.272Z</time></trkpt><trkpt lat="43.3325483" lon="13.1228517"><ele>497.0</ele><time>2026-04-26T12:03:19.271Z</time></trkpt><trkpt lat="43.3326317" lon="13.12295"><ele>497.0</ele><time>2026-04-26T12:03:20.271Z</time></trkpt><trkpt lat="43.33271" lon="13.1230433"><ele>497.0</ele><time>2026-04-26T12:03:21.271Z</time></trkpt><trkpt lat="43.332785" lon="13.123165"><ele>497.0</ele><time>2026-04-26T12:03:22.271Z</time></trkpt><trkpt lat="43.33285" lon="13.1233167"><ele>497.0</ele><time>2026-04-26T12:03:23.271Z</time></trkpt><trkpt lat="43.332905" lon="13.1234867"><ele>497.0</ele><time>2026-04-26T12:03:24.271Z</time></trkpt><trkpt lat="43.3329533" lon="13.1236733"><ele>497.0</ele><time>2026-04-26T12:03:25.271Z</time></trkpt><trkpt lat="43.3329933" lon="13.1238767"><ele>497.0</ele><time>2026-04-26T12:03:26.271Z</time></trkpt><trkpt lat="43.3330233" lon="13.124075"><ele>497.75</ele><time>2026-04-26T12:03:27.272Z</time></trkpt><trkpt lat="43.333045" lon="13.1242617"><ele>498.5</ele><time>2026-04-26T12:03:28.271Z</time></trkpt><trkpt lat="43.33305" lon="13.1244383"><ele>499.25</ele><time>2026-04-26T12:03:29.271Z</time></trkpt><trkpt lat="43.3330367" lon="13.1246083"><ele>500.0</ele><time>2026-04-26T12:03:30.271Z</time></trkpt><trkpt lat="43.3330183" lon="13.124755"><ele>500.0</ele><time>2026-04-26T12:03:31.271Z</time></trkpt><trkpt lat="43.3330067" lon="13.1248783"><ele>500.0</ele><time>2026-04-26T12:03:32.271Z</time></trkpt><trkpt lat="43.3330067" lon="13.1249867"><ele>500.0</ele><time>2026-04-26T12:03:33.271Z</time></trkpt><trkpt lat="43.3330517" lon="13.12512"><ele>500.0</ele><time>2026-04-26T12:03:35.271Z</time></trkpt><trkpt lat="43.3331417" lon="13.125145"><ele>500.0</ele><time>2026-04-26T12:03:37.271Z</time></trkpt><trkpt lat="43.3332683" lon="13.1250933"><ele>502.0</ele><time>2026-04-26T12:03:39.271Z</time></trkpt><trkpt lat="43.3333433" lon="13.1250383"><ele>504.0</ele><time>2026-04-26T12:03:40.271Z</time></trkpt><trkpt lat="43.333425" lon="13.12497"><ele>506.0</ele><time>2026-04-26T12:03:41.271Z</time></trkpt><trkpt lat="43.3335233" lon="13.1249233"><ele>508.0</ele><time>2026-04-26T12:03:42.271Z</time></trkpt><trkpt lat="43.33362" lon="13.1249133"><ele>510.0</ele><time>2026-04-26T12:03:43.271Z</time></trkpt><trkpt lat="43.333735" lon="13.124945"><ele>510.0</ele><time>2026-04-26T12:03:44.271Z</time></trkpt><trkpt lat="43.3338467" lon="13.1249967"><ele>510.0</ele><time>2026-04-26T12:03:45.271Z</time></trkpt><trkpt lat="43.3339633" lon="13.125065"><ele>510.0</ele><time>2026-04-26T12:03:46.271Z</time></trkpt><trkpt lat="43.3340767" lon="13.1251567"><ele>510.0</ele><time>2026-04-26T12:03:47.271Z</time></trkpt><trkpt lat="43.3341833" lon="13.1252733"><ele>510.33333333333337</ele><time>2026-04-26T12:03:48.271Z</time></trkpt><trkpt lat="43.3342867" lon="13.12542"><ele>510.6666666666667</ele><time>2026-04-26T12:03:49.271Z</time></trkpt><trkpt lat="43.334385" lon="13.12558"><ele>511.0</ele><time>2026-04-26T12:03:50.272Z</time></trkpt><trkpt lat="43.334485" lon="13.1257433"><ele>511.6666666666667</ele><time>2026-04-26T12:03:51.271Z</time></trkpt><trkpt lat="43.3345783" lon="13.1259017"><ele>512.3333333333334</ele><time>2026-04-26T12:03:52.271Z</time></trkpt><trkpt lat="43.3346833" lon="13.1260733"><ele>513.0</ele><time>2026-04-26T12:03:53.271Z</time></trkpt><trkpt lat="43.3347933" lon="13.1262667"><ele>515.3333333333334</ele><time>2026-04-26T12:03:54.271Z</time></trkpt><trkpt lat="43.3349267" lon="13.1264833"><ele>517.6666666666667</ele><time>2026-04-26T12:03:55.271Z</time></trkpt><trkpt lat="43.3350633" lon="13.1267067"><ele>520.0</ele><time>2026-04-26T12:03:56.271Z</time></trkpt><trkpt lat="43.33519" lon="13.1269117"><ele>520.3333333333334</ele><time>2026-04-26T12:03:57.271Z</time></trkpt><trkpt lat="43.3353067" lon="13.1271"><ele>520.6666666666666</ele><time>2026-04-26T12:03:58.271Z</time></trkpt><trkpt lat="43.3354133" lon="13.1272733"><ele>521.0</ele><time>2026-04-26T12:03:59.271Z</time></trkpt><trkpt lat="43.3355167" lon="13.1274433"><ele>522.6666666666666</ele><time>2026-04-26T12:04:00.271Z</time></trkpt><trkpt lat="43.335625" lon="13.127615"><ele>524.3333333333334</ele><time>2026-04-26T12:04:01.271Z</time></trkpt><trkpt lat="43.3357283" lon="13.1277867"><ele>526.0</ele><time>2026-04-26T12:04:02.271Z</time></trkpt><trkpt lat="43.335835" lon="13.12795"><ele>526.0</ele><time>2026-04-26T12:04:03.271Z</time></trkpt><trkpt lat="43.33593" lon="13.1281033"><ele>526.0</ele><time>2026-04-26T12:04:04.271Z</time></trkpt><trkpt lat="43.3360167" lon="13.1282367"><ele>526.0</ele><time>2026-04-26T12:04:05.271Z</time></trkpt><trkpt lat="43.3361" lon="13.128365"><ele>526.0</ele><time>2026-04-26T12:04:06.271Z</time></trkpt><trkpt lat="43.3361633" lon="13.12848"><ele>526.3333333333334</ele><time>2026-04-26T12:04:07.272Z</time></trkpt><trkpt lat="43.3362233" lon="13.1285817"><ele>526.6666666666667</ele><time>2026-04-26T12:04:08.271Z</time></trkpt><trkpt lat="43.3362483" lon="13.12867"><ele>527.0</ele><time>2026-04-26T12:04:09.272Z</time></trkpt><trkpt lat="43.3362533" lon="13.1287683"><ele>527.3333333333334</ele><time>2026-04-26T12:04:10.271Z</time></trkpt><trkpt lat="43.3362317" lon="13.12889"><ele>527.6666666666666</ele><time>2026-04-26T12:04:11.271Z</time></trkpt><trkpt lat="43.3362067" lon="13.129005"><ele>528.0</ele><time>2026-04-26T12:04:12.271Z</time></trkpt><trkpt lat="43.33617" lon="13.1291183"><ele>529.1999999999999</ele><time>2026-04-26T12:04:13.271Z</time></trkpt><trkpt lat="43.3361483" lon="13.129245"><ele>530.4</ele><time>2026-04-26T12:04:14.271Z</time></trkpt><trkpt lat="43.3361517" lon="13.1293567"><ele>531.5999999999999</ele><time>2026-04-26T12:04:15.271Z</time></trkpt><trkpt lat="43.336175" lon="13.12948"><ele>532.8</ele><time>2026-04-26T12:04:16.271Z</time></trkpt><trkpt lat="43.3361933" lon="13.1296133"><ele>534.0</ele><time>2026-04-26T12:04:17.271Z</time></trkpt><trkpt lat="43.33621" lon="13.1297367"><ele>534.0</ele><time>2026-04-26T12:04:18.271Z</time></trkpt><trkpt lat="43.3362183" lon="13.129855"><ele>534.0</ele><time>2026-04-26T12:04:19.271Z</time></trkpt><trkpt lat="43.3362217" lon="13.129965"><ele>534.0</ele><time>2026-04-26T12:04:20.271Z</time></trkpt><trkpt lat="43.3362233" lon="13.1300683"><ele>534.0</ele><time>2026-04-26T12:04:21.271Z</time></trkpt><trkpt lat="43.3362883" lon="13.130205"><ele>534.0</ele><time>2026-04-26T12:04:23.271Z</time></trkpt><trkpt lat="43.336415" lon="13.130225"><ele>533.5</ele><time>2026-04-26T12:04:25.271Z</time></trkpt><trkpt lat="43.3365233" lon="13.1301517"><ele>533.0</ele><time>2026-04-26T12:04:26.272Z</time></trkpt><trkpt lat="43.3366317" lon="13.1300517"><ele>532.5</ele><time>2026-04-26T12:04:27.271Z</time></trkpt><trkpt lat="43.3367417" lon="13.129965"><ele>532.0</ele><time>2026-04-26T12:04:28.271Z</time></trkpt><trkpt lat="43.336855" lon="13.1298883"><ele>532.0</ele><time>2026-04-26T12:04:29.271Z</time></trkpt><trkpt lat="43.33697" lon="13.1298183"><ele>532.0</ele><time>2026-04-26T12:04:30.271Z</time></trkpt><trkpt lat="43.3370883" lon="13.129745"><ele>532.0</ele><time>2026-04-26T12:04:31.271Z</time></trkpt><trkpt lat="43.337205" lon="13.12969"><ele>532.0</ele><time>2026-04-26T12:04:32.271Z</time></trkpt><trkpt lat="43.3373267" lon="13.1296467"><ele>529.2</ele><time>2026-04-26T12:04:33.271Z</time></trkpt><trkpt lat="43.3374517" lon="13.1296117"><ele>526.4000000000001</ele><time>2026-04-26T12:04:34.271Z</time></trkpt><trkpt lat="43.3375717" lon="13.1296033"><ele>523.5999999999999</ele><time>2026-04-26T12:04:35.271Z</time></trkpt><trkpt lat="43.3376767" lon="13.1296217"><ele>520.8</ele><time>2026-04-26T12:04:36.271Z</time></trkpt><trkpt lat="43.3377667" lon="13.1296517"><ele>518.0</ele><time>2026-04-26T12:04:37.271Z</time></trkpt><trkpt lat="43.3378417" lon="13.129715"><ele>518.0</ele><time>2026-04-26T12:04:38.271Z</time></trkpt><trkpt lat="43.3378967" lon="13.1297983"><ele>518.0</ele><time>2026-04-26T12:04:39.271Z</time></trkpt><trkpt lat="43.337925" lon="13.1299"><ele>518.0</ele><time>2026-04-26T12:04:40.271Z</time></trkpt><trkpt lat="43.3379117" lon="13.13003"><ele>518.0</ele><time>2026-04-26T12:04:41.271Z</time></trkpt><trkpt lat="43.3378683" lon="13.1301833"><ele>518.0</ele><time>2026-04-26T12:04:42.271Z</time></trkpt><trkpt lat="43.3378083" lon="13.1303333"><ele>514.75</ele><time>2026-04-26T12:04:43.271Z</time></trkpt><trkpt lat="43.33775" lon="13.1304817"><ele>511.5</ele><time>2026-04-26T12:04:44.271Z</time></trkpt><trkpt lat="43.3376967" lon="13.130635"><ele>508.25</ele><time>2026-04-26T12:04:45.271Z</time></trkpt><trkpt lat="43.337645" lon="13.1307817"><ele>505.0</ele><time>2026-04-26T12:04:46.271Z</time></trkpt><trkpt lat="43.3376017" lon="13.130915"><ele>501.75</ele><time>2026-04-26T12:04:47.271Z</time></trkpt><trkpt lat="43.337575" lon="13.1310517"><ele>498.5</ele><time>2026-04-26T12:04:48.271Z</time></trkpt><trkpt lat="43.33758" lon="13.1311867"><ele>495.25</ele><time>2026-04-26T12:04:49.271Z</time></trkpt><trkpt lat="43.3376167" lon="13.1313367"><ele>492.0</ele><time>2026-04-26T12:04:50.271Z</time></trkpt><trkpt lat="43.3376983" lon="13.1315017"><ele>488.66666666666663</ele><time>2026-04-26T12:04:51.271Z</time></trkpt><trkpt lat="43.3378017" lon="13.1316933"><ele>485.3333333333333</ele><time>2026-04-26T12:04:52.271Z</time></trkpt><trkpt lat="43.3379083" lon="13.1319233"><ele>482.0</ele><time>2026-04-26T12:04:53.271Z</time></trkpt><trkpt lat="43.3380267" lon="13.1321817"><ele>477.0</ele><time>2026-04-26T12:04:54.271Z</time></trkpt><trkpt lat="43.33815" lon="13.132465"><ele>472.0</ele><time>2026-04-26T12:04:55.271Z</time></trkpt><trkpt lat="43.3382617" lon="13.13273"><ele>472.0</ele><time>2026-04-26T12:04:56.271Z</time></trkpt><trkpt lat="43.3383617" lon="13.1329733"><ele>472.0</ele><time>2026-04-26T12:04:57.271Z</time></trkpt><trkpt lat="43.3384433" lon="13.133185"><ele>472.0</ele><time>2026-04-26T12:04:58.271Z</time></trkpt><trkpt lat="43.3384867" lon="13.133385"><ele>474.0</ele><time>2026-04-26T12:04:59.271Z</time></trkpt><trkpt lat="43.33851" lon="13.1335767"><ele>476.0</ele><time>2026-04-26T12:05:00.271Z</time></trkpt><trkpt lat="43.3385167" lon="13.1337533"><ele>478.0</ele><time>2026-04-26T12:05:01.271Z</time></trkpt><trkpt lat="43.3385083" lon="13.1339083"><ele>480.0</ele><time>2026-04-26T12:05:02.271Z</time></trkpt><trkpt lat="43.33848" lon="13.1340433"><ele>481.5</ele><time>2026-04-26T12:05:03.271Z</time></trkpt><trkpt lat="43.3384317" lon="13.1341817"><ele>483.0</ele><time>2026-04-26T12:05:04.271Z</time></trkpt><trkpt lat="43.33835" lon="13.1343083"><ele>484.5</ele><time>2026-04-26T12:05:05.271Z</time></trkpt><trkpt lat="43.338245" lon="13.1344133"><ele>486.0</ele><time>2026-04-26T12:05:06.271Z</time></trkpt><trkpt lat="43.3381267" lon="13.13452"><ele>486.66666666666663</ele><time>2026-04-26T12:05:07.272Z</time></trkpt><trkpt lat="43.3380217" lon="13.134655"><ele>487.3333333333333</ele><time>2026-04-26T12:05:08.272Z</time></trkpt><trkpt lat="43.3379483" lon="13.1348283"><ele>488.0</ele><time>2026-04-26T12:05:09.271Z</time></trkpt><trkpt lat="43.3378817" lon="13.1350583"><ele>488.0</ele><time>2026-04-26T12:05:10.271Z</time></trkpt><trkpt lat="43.337815" lon="13.1353033"><ele>488.0</ele><time>2026-04-26T12:05:11.272Z</time></trkpt><trkpt lat="43.3377583" lon="13.1355467"><ele>488.0</ele><time>2026-04-26T12:05:12.271Z</time></trkpt><trkpt lat="43.3377017" lon="13.1357983"><ele>485.66666666666663</ele><time>2026-04-26T12:05:13.271Z</time></trkpt><trkpt lat="43.3376517" lon="13.1360483"><ele>483.33333333333337</ele><time>2026-04-26T12:05:14.271Z</time></trkpt><trkpt lat="43.3376" lon="13.1362983"><ele>481.0</ele><time>2026-04-26T12:05:15.271Z</time></trkpt><trkpt lat="43.3375317" lon="13.1365417"><ele>478.33333333333337</ele><time>2026-04-26T12:05:16.271Z</time></trkpt><trkpt lat="43.3374633" lon="13.1367583"><ele>475.66666666666663</ele><time>2026-04-26T12:05:17.271Z</time></trkpt><trkpt lat="43.337395" lon="13.1369483"><ele>473.0</ele><time>2026-04-26T12:05:18.272Z</time></trkpt><trkpt lat="43.3373283" lon="13.1371083"><ele>473.0</ele><time>2026-04-26T12:05:19.271Z</time></trkpt><trkpt lat="43.337275" lon="13.1372583"><ele>473.0</ele><time>2026-04-26T12:05:20.271Z</time></trkpt><trkpt lat="43.3372383" lon="13.137405"><ele>473.0</ele><time>2026-04-26T12:05:21.271Z</time></trkpt><trkpt lat="43.3372233" lon="13.137565"><ele>473.0</ele><time>2026-04-26T12:05:22.271Z</time></trkpt><trkpt lat="43.3372317" lon="13.1377267"><ele>472.0</ele><time>2026-04-26T12:05:23.271Z</time></trkpt><trkpt lat="43.3372717" lon="13.1379083"><ele>471.0</ele><time>2026-04-26T12:05:24.271Z</time></trkpt><trkpt lat="43.3373317" lon="13.1381167"><ele>470.0</ele><time>2026-04-26T12:05:25.271Z</time></trkpt><trkpt lat="43.3374033" lon="13.1383333"><ele>470.0</ele><time>2026-04-26T12:05:26.271Z</time></trkpt><trkpt lat="43.3374717" lon="13.138535"><ele>470.0</ele><time>2026-04-26T12:05:27.271Z</time></trkpt><trkpt lat="43.3375667" lon="13.1387083"><ele>470.0</ele><time>2026-04-26T12:05:28.271Z</time></trkpt><trkpt lat="43.3376667" lon="13.1388483"><ele>470.0</ele><time>2026-04-26T12:05:29.271Z</time></trkpt><trkpt lat="43.3377567" lon="13.13898"><ele>470.0</ele><time>2026-04-26T12:05:30.271Z</time></trkpt><trkpt lat="43.3378367" lon="13.13913"><ele>470.0</ele><time>2026-04-26T12:05:31.271Z</time></trkpt><trkpt lat="43.3379117" lon="13.1392967"><ele>470.0</ele><time>2026-04-26T12:05:32.271Z</time></trkpt><trkpt lat="43.3379667" lon="13.13948"><ele>470.0</ele><time>2026-04-26T12:05:33.271Z</time></trkpt><trkpt lat="43.33802" lon="13.1396567"><ele>470.0</ele><time>2026-04-26T12:05:34.272Z</time></trkpt><trkpt lat="43.3380683" lon="13.1398333"><ele>470.0</ele><time>2026-04-26T12:05:35.271Z</time></trkpt><trkpt lat="43.33812" lon="13.1400017"><ele>470.0</ele><time>2026-04-26T12:05:36.271Z</time></trkpt><trkpt lat="43.33817" lon="13.1401517"><ele>470.0</ele><time>2026-04-26T12:05:37.272Z</time></trkpt><trkpt lat="43.338215" lon="13.140285"><ele>470.0</ele><time>2026-04-26T12:05:38.271Z</time></trkpt><trkpt lat="43.3382467" lon="13.1404133"><ele>470.0</ele><time>2026-04-26T12:05:39.271Z</time></trkpt><trkpt lat="43.3382817" lon="13.1405333"><ele>470.0</ele><time>2026-04-26T12:05:40.271Z</time></trkpt><trkpt lat="43.3382983" lon="13.1406517"><ele>470.0</ele><time>2026-04-26T12:05:41.271Z</time></trkpt><trkpt lat="43.338295" lon="13.1407883"><ele>471.25</ele><time>2026-04-26T12:05:42.271Z</time></trkpt><trkpt lat="43.338285" lon="13.14094"><ele>472.5</ele><time>2026-04-26T12:05:43.271Z</time></trkpt><trkpt lat="43.3382567" lon="13.1410983"><ele>473.75</ele><time>2026-04-26T12:05:44.271Z</time></trkpt><trkpt lat="43.3382433" lon="13.1412683"><ele>475.0</ele><time>2026-04-26T12:05:45.271Z</time></trkpt><trkpt lat="43.3382283" lon="13.1414283"><ele>473.75</ele><time>2026-04-26T12:05:46.271Z</time></trkpt><trkpt lat="43.3382167" lon="13.1415983"><ele>472.5</ele><time>2026-04-26T12:05:47.271Z</time></trkpt><trkpt lat="43.3382" lon="13.14177"><ele>471.25</ele><time>2026-04-26T12:05:48.271Z</time></trkpt><trkpt lat="43.3381967" lon="13.141935"><ele>470.0</ele><time>2026-04-26T12:05:49.271Z</time></trkpt><trkpt lat="43.338195" lon="13.1420883"><ele>470.0</ele><time>2026-04-26T12:05:50.271Z</time></trkpt><trkpt lat="43.338205" lon="13.1422383"><ele>470.0</ele><time>2026-04-26T12:05:51.271Z</time></trkpt><trkpt lat="43.3382283" lon="13.1423783"><ele>470.0</ele><time>2026-04-26T12:05:52.271Z</time></trkpt><trkpt lat="43.3382633" lon="13.142515"><ele>470.0</ele><time>2026-04-26T12:05:53.271Z</time></trkpt><trkpt lat="43.3383033" lon="13.1426417"><ele>470.0</ele><time>2026-04-26T12:05:54.271Z</time></trkpt><trkpt lat="43.3383567" lon="13.1427633"><ele>467.8</ele><time>2026-04-26T12:05:55.271Z</time></trkpt><trkpt lat="43.3384117" lon="13.1428883"><ele>465.6</ele><time>2026-04-26T12:05:56.271Z</time></trkpt><trkpt lat="43.3384783" lon="13.1430083"><ele>463.4</ele><time>2026-04-26T12:05:57.271Z</time></trkpt><trkpt lat="43.3385333" lon="13.1431317"><ele>461.2</ele><time>2026-04-26T12:05:58.271Z</time></trkpt><trkpt lat="43.3385833" lon="13.1432483"><ele>459.0</ele><time>2026-04-26T12:05:59.271Z</time></trkpt><trkpt lat="43.338625" lon="13.1433633"><ele>458.1666666666667</ele><time>2026-04-26T12:06:00.271Z</time></trkpt><trkpt lat="43.3386617" lon="13.1434717"><ele>457.33333333333337</ele><time>2026-04-26T12:06:01.271Z</time></trkpt><trkpt lat="43.3386914" lon="13.1435709"><ele>456.5</ele><time>2026-04-26T12:06:02.271Z</time></trkpt><trkpt lat="43.3387131" lon="13.1436566"><ele>455.6666666666667</ele><time>2026-04-26T12:06:03.272Z</time></trkpt><trkpt lat="43.3387471" lon="13.1438081"><ele>454.83333333333337</ele><time>2026-04-26T12:06:05.271Z</time></trkpt><trkpt lat="43.3387822" lon="13.1439336"><ele>454.0</ele><time>2026-04-26T12:06:07.271Z</time></trkpt><trkpt lat="43.3388083" lon="13.1440503"><ele>453.1666666666667</ele><time>2026-04-26T12:06:09.271Z</time></trkpt><trkpt lat="43.3388483" lon="13.144165"><ele>452.33333333333337</ele><time>2026-04-26T12:06:11.271Z</time></trkpt><trkpt lat="43.3388867" lon="13.1442867"><ele>451.5</ele><time>2026-04-26T12:06:13.271Z</time></trkpt><trkpt lat="43.33893" lon="13.1444233"><ele>450.66666666666663</ele><time>2026-04-26T12:06:15.271Z</time></trkpt><trkpt lat="43.3389567" lon="13.14451"><ele>449.8333333333333</ele><time>2026-04-26T12:06:16.272Z</time></trkpt><trkpt lat="43.3389917" lon="13.1446"><ele>449.0</ele><time>2026-04-26T12:06:17.271Z</time></trkpt><trkpt lat="43.3390217" lon="13.1447017"><ele>449.0</ele><time>2026-04-26T12:06:18.271Z</time></trkpt><trkpt lat="43.3390567" lon="13.1448117"><ele>449.0</ele><time>2026-04-26T12:06:19.271Z</time></trkpt><trkpt lat="43.3390933" lon="13.144925"><ele>449.0</ele><time>2026-04-26T12:06:20.271Z</time></trkpt><trkpt lat="43.339145" lon="13.1450517"><ele>449.0</ele><time>2026-04-26T12:06:21.271Z</time></trkpt><trkpt lat="43.3392017" lon="13.1451733"><ele>449.0</ele><time>2026-04-26T12:06:22.271Z</time></trkpt><trkpt lat="43.33927" lon="13.1453033"><ele>449.25</ele><time>2026-04-26T12:06:23.272Z</time></trkpt><trkpt lat="43.3393467" lon="13.1454333"><ele>449.5</ele><time>2026-04-26T12:06:24.271Z</time></trkpt><trkpt lat="43.339425" lon="13.1455783"><ele>449.75</ele><time>2026-04-26T12:06:25.271Z</time></trkpt><trkpt lat="43.3394933" lon="13.145725"><ele>450.0</ele><time>2026-04-26T12:06:26.272Z</time></trkpt><trkpt lat="43.3395333" lon="13.1458517"><ele>451.2</ele><time>2026-04-26T12:06:27.271Z</time></trkpt><trkpt lat="43.3395467" lon="13.14598"><ele>452.4</ele><time>2026-04-26T12:06:28.271Z</time></trkpt><trkpt lat="43.3395467" lon="13.1461167"><ele>453.6</ele><time>2026-04-26T12:06:29.271Z</time></trkpt><trkpt lat="43.3395167" lon="13.1462533"><ele>454.8</ele><time>2026-04-26T12:06:30.271Z</time></trkpt><trkpt lat="43.3394567" lon="13.14639"><ele>456.0</ele><time>2026-04-26T12:06:31.271Z</time></trkpt><trkpt lat="43.3393883" lon="13.1465283"><ele>457.20000000000005</ele><time>2026-04-26T12:06:32.271Z</time></trkpt><trkpt lat="43.339325" lon="13.1466617"><ele>458.40000000000003</ele><time>2026-04-26T12:06:33.271Z</time></trkpt><trkpt lat="43.3392917" lon="13.1467917"><ele>459.6</ele><time>2026-04-26T12:06:34.271Z</time></trkpt><trkpt lat="43.3392767" lon="13.1469267"><ele>460.8</ele><time>2026-04-26T12:06:35.271Z</time></trkpt><trkpt lat="43.3392783" lon="13.1470533"><ele>462.0</ele><time>2026-04-26T12:06:36.271Z</time></trkpt><trkpt lat="43.339305" lon="13.1471767"><ele>462.0</ele><time>2026-04-26T12:06:37.271Z</time></trkpt><trkpt lat="43.339355" lon="13.1472833"><ele>462.00000000000006</ele><time>2026-04-26T12:06:38.271Z</time></trkpt><trkpt lat="43.3394217" lon="13.1473867"><ele>462.00000000000006</ele><time>2026-04-26T12:06:39.271Z</time></trkpt><trkpt lat="43.339505" lon="13.1474817"><ele>462.0</ele><time>2026-04-26T12:06:40.271Z</time></trkpt><trkpt lat="43.3396117" lon="13.147565"><ele>462.0</ele><time>2026-04-26T12:06:41.271Z</time></trkpt><trkpt lat="43.3397433" lon="13.1476467"><ele>469.0</ele><time>2026-04-26T12:06:42.271Z</time></trkpt><trkpt lat="43.33988" lon="13.14773"><ele>476.0</ele><time>2026-04-26T12:06:43.271Z</time></trkpt><trkpt lat="43.3400283" lon="13.1478233"><ele>483.0</ele><time>2026-04-26T12:06:44.271Z</time></trkpt><trkpt lat="43.3401933" lon="13.1479267"><ele>483.0</ele><time>2026-04-26T12:06:45.271Z</time></trkpt><trkpt lat="43.34036" lon="13.1480217"><ele>483.0</ele><time>2026-04-26T12:06:46.271Z</time></trkpt><trkpt lat="43.3405" lon="13.1481183"><ele>483.0</ele><time>2026-04-26T12:06:47.271Z</time></trkpt><trkpt lat="43.340615" lon="13.14822"><ele>483.4</ele><time>2026-04-26T12:06:48.271Z</time></trkpt><trkpt lat="43.3407033" lon="13.1483283"><ele>483.79999999999995</ele><time>2026-04-26T12:06:49.271Z</time></trkpt><trkpt lat="43.3407733" lon="13.14844"><ele>484.2</ele><time>2026-04-26T12:06:50.271Z</time></trkpt><trkpt lat="43.3408317" lon="13.14854"><ele>484.6</ele><time>2026-04-26T12:06:51.271Z</time></trkpt><trkpt lat="43.3408783" lon="13.148635"><ele>485.0</ele><time>2026-04-26T12:06:52.271Z</time></trkpt><trkpt lat="43.3409217" lon="13.1487283"><ele>484.99999999999994</ele><time>2026-04-26T12:06:53.271Z</time></trkpt><trkpt lat="43.3409467" lon="13.1488283"><ele>485.0</ele><time>2026-04-26T12:06:54.271Z</time></trkpt><trkpt lat="43.3409683" lon="13.148945"><ele>485.0</ele><time>2026-04-26T12:06:55.271Z</time></trkpt><trkpt lat="43.3409783" lon="13.1490667"><ele>485.0</ele><time>2026-04-26T12:06:56.271Z</time></trkpt><trkpt lat="43.3409933" lon="13.1491933"><ele>484.99999999999994</ele><time>2026-04-26T12:06:57.272Z</time></trkpt><trkpt lat="43.34103" lon="13.1493183"><ele>485.0</ele><time>2026-04-26T12:06:58.271Z</time></trkpt><trkpt lat="43.3410833" lon="13.1494583"><ele>484.25</ele><time>2026-04-26T12:06:59.272Z</time></trkpt><trkpt lat="43.3411533" lon="13.149605"><ele>483.5</ele><time>2026-04-26T12:07:00.271Z</time></trkpt><trkpt lat="43.3412233" lon="13.1497667"><ele>482.75</ele><time>2026-04-26T12:07:01.271Z</time></trkpt><trkpt lat="43.3412967" lon="13.149935"><ele>482.0</ele><time>2026-04-26T12:07:02.271Z</time></trkpt><trkpt lat="43.34138" lon="13.1501017"><ele>481.25</ele><time>2026-04-26T12:07:03.271Z</time></trkpt><trkpt lat="43.3414667" lon="13.1502683"><ele>480.5</ele><time>2026-04-26T12:07:04.271Z</time></trkpt><trkpt lat="43.3415517" lon="13.150415"><ele>479.75</ele><time>2026-04-26T12:07:05.271Z</time></trkpt><trkpt lat="43.3416317" lon="13.15057"><ele>479.0</ele><time>2026-04-26T12:07:06.271Z</time></trkpt><trkpt lat="43.3417133" lon="13.150725"><ele>475.5</ele><time>2026-04-26T12:07:07.271Z</time></trkpt><trkpt lat="43.3417933" lon="13.1508767"><ele>472.0</ele><time>2026-04-26T12:07:08.271Z</time></trkpt><trkpt lat="43.34187" lon="13.1510217"><ele>468.5</ele><time>2026-04-26T12:07:09.271Z</time></trkpt><trkpt lat="43.3419433" lon="13.1511667"><ele>465.0</ele><time>2026-04-26T12:07:10.271Z</time></trkpt><trkpt lat="43.342005" lon="13.1513067"><ele>465.0</ele><time>2026-04-26T12:07:11.271Z</time></trkpt><trkpt lat="43.3420683" lon="13.1514367"><ele>465.0</ele><time>2026-04-26T12:07:12.271Z</time></trkpt><trkpt lat="43.3421233" lon="13.1515467"><ele>465.0</ele><time>2026-04-26T12:07:13.271Z</time></trkpt><trkpt lat="43.342175" lon="13.1516383"><ele>465.0</ele><time>2026-04-26T12:07:14.271Z</time></trkpt><trkpt lat="43.3422233" lon="13.1517333"><ele>465.0</ele><time>2026-04-26T12:07:15.271Z</time></trkpt><trkpt lat="43.3422767" lon="13.1518167"><ele>463.6</ele><time>2026-04-26T12:07:16.271Z</time></trkpt><trkpt lat="43.3423383" lon="13.1518867"><ele>462.2</ele><time>2026-04-26T12:07:17.271Z</time></trkpt><trkpt lat="43.34241" lon="13.15194"><ele>460.79999999999995</ele><time>2026-04-26T12:07:18.271Z</time></trkpt><trkpt lat="43.3424983" lon="13.15198"><ele>459.4</ele><time>2026-04-26T12:07:19.271Z</time></trkpt><trkpt lat="43.3426067" lon="13.1520083"><ele>458.0</ele><time>2026-04-26T12:07:20.272Z</time></trkpt><trkpt lat="43.3427217" lon="13.1520283"><ele>457.99999999999994</ele><time>2026-04-26T12:07:21.271Z</time></trkpt><trkpt lat="43.342825" lon="13.1520483"><ele>458.0</ele><time>2026-04-26T12:07:22.271Z</time></trkpt><trkpt lat="43.3429167" lon="13.1520617"><ele>458.0</ele><time>2026-04-26T12:07:23.271Z</time></trkpt><trkpt lat="43.343" lon="13.152075"><ele>458.0</ele><time>2026-04-26T12:07:24.271Z</time></trkpt><trkpt lat="43.3430767" lon="13.1520767"><ele>457.99999999999994</ele><time>2026-04-26T12:07:25.271Z</time></trkpt><trkpt lat="43.3431467" lon="13.1520633"><ele>458.0</ele><time>2026-04-26T12:07:26.271Z</time></trkpt><trkpt lat="43.34323" lon="13.1520333"><ele>456.2</ele><time>2026-04-26T12:07:27.271Z</time></trkpt><trkpt lat="43.34332" lon="13.151965"><ele>454.4</ele><time>2026-04-26T12:07:28.271Z</time></trkpt><trkpt lat="43.3434117" lon="13.1518983"><ele>452.59999999999997</ele><time>2026-04-26T12:07:29.271Z</time></trkpt><trkpt lat="43.343495" lon="13.151855"><ele>450.79999999999995</ele><time>2026-04-26T12:07:30.271Z</time></trkpt><trkpt lat="43.34358" lon="13.1518483"><ele>449.0</ele><time>2026-04-26T12:07:31.271Z</time></trkpt><trkpt lat="43.3436683" lon="13.1518783"><ele>449.0</ele><time>2026-04-26T12:07:32.271Z</time></trkpt><trkpt lat="43.343745" lon="13.1519067"><ele>449.0</ele><time>2026-04-26T12:07:33.271Z</time></trkpt><trkpt lat="43.3438217" lon="13.151925"><ele>449.0</ele><time>2026-04-26T12:07:34.271Z</time></trkpt><trkpt lat="43.3438983" lon="13.151925"><ele>449.0</ele><time>2026-04-26T12:07:35.271Z</time></trkpt><trkpt lat="43.3439967" lon="13.1518933"><ele>449.0</ele><time>2026-04-26T12:07:36.271Z</time></trkpt><trkpt lat="43.34411" lon="13.15184"><ele>447.0</ele><time>2026-04-26T12:07:37.271Z</time></trkpt><trkpt lat="43.344235" lon="13.1517867"><ele>445.0</ele><time>2026-04-26T12:07:38.271Z</time></trkpt><trkpt lat="43.3443533" lon="13.1517333"><ele>443.0</ele><time>2026-04-26T12:07:39.271Z</time></trkpt><trkpt lat="43.3444683" lon="13.151695"><ele>441.0</ele><time>2026-04-26T12:07:40.271Z</time></trkpt><trkpt lat="43.3445733" lon="13.1516633"><ele>441.0</ele><time>2026-04-26T12:07:41.271Z</time></trkpt><trkpt lat="43.3446683" lon="13.1516367"><ele>441.0</ele><time>2026-04-26T12:07:42.271Z</time></trkpt><trkpt lat="43.3447467" lon="13.15161"><ele>441.0</ele><time>2026-04-26T12:07:43.271Z</time></trkpt><trkpt lat="43.3448567" lon="13.1515717"><ele>441.0</ele><time>2026-04-26T12:07:45.271Z</time></trkpt><trkpt lat="43.3449217" lon="13.15164"><ele>441.0</ele><time>2026-04-26T12:07:47.271Z</time></trkpt><trkpt lat="43.3449133" lon="13.151805"><ele>441.0</ele><time>2026-04-26T12:07:49.271Z</time></trkpt><trkpt lat="43.3448717" lon="13.151905"><ele>441.0</ele><time>2026-04-26T12:07:50.271Z</time></trkpt><trkpt lat="43.34482" lon="13.151995"><ele>441.0</ele><time>2026-04-26T12:07:51.271Z</time></trkpt><trkpt lat="43.3447667" lon="13.1520917"><ele>441.0</ele><time>2026-04-26T12:07:52.271Z</time></trkpt><trkpt lat="43.3447133" lon="13.1521867"><ele>441.0</ele><time>2026-04-26T12:07:53.271Z</time></trkpt><trkpt lat="43.344655" lon="13.1522717"><ele>441.0</ele><time>2026-04-26T12:07:54.271Z</time></trkpt><trkpt lat="43.3445917" lon="13.1523583"><ele>435.8</ele><time>2026-04-26T12:07:55.271Z</time></trkpt><trkpt lat="43.34453" lon="13.15244"><ele>430.6</ele><time>2026-04-26T12:07:56.271Z</time></trkpt><trkpt lat="43.3444783" lon="13.1525183"><ele>425.4</ele><time>2026-04-26T12:07:57.271Z</time></trkpt><trkpt lat="43.3444117" lon="13.152645"><ele>420.2</ele><time>2026-04-26T12:07:59.271Z</time></trkpt><trkpt lat="43.3444517" lon="13.15274"><ele>415.0</ele><time>2026-04-26T12:08:01.271Z</time></trkpt><trkpt lat="43.3446133" lon="13.1527583"><ele>412.25</ele><time>2026-04-26T12:08:03.271Z</time></trkpt><trkpt lat="43.3447333" lon="13.1527383"><ele>409.5</ele><time>2026-04-26T12:08:04.271Z</time></trkpt><trkpt lat="43.3448567" lon="13.1527083"><ele>406.75</ele><time>2026-04-26T12:08:05.271Z</time></trkpt><trkpt lat="43.344985" lon="13.1526683"><ele>404.0</ele><time>2026-04-26T12:08:06.271Z</time></trkpt><trkpt lat="43.3451067" lon="13.152635"><ele>404.0</ele><time>2026-04-26T12:08:07.272Z</time></trkpt><trkpt lat="43.345225" lon="13.1525983"><ele>404.0</ele><time>2026-04-26T12:08:08.271Z</time></trkpt><trkpt lat="43.3453533" lon="13.1525733"><ele>404.0</ele><time>2026-04-26T12:08:09.271Z</time></trkpt><trkpt lat="43.34548" lon="13.1525683"><ele>404.0</ele><time>2026-04-26T12:08:10.271Z</time></trkpt><trkpt lat="43.3455933" lon="13.152585"><ele>400.5</ele><time>2026-04-26T12:08:11.271Z</time></trkpt><trkpt lat="43.345705" lon="13.1526183"><ele>397.0</ele><time>2026-04-26T12:08:12.271Z</time></trkpt><trkpt lat="43.3458167" lon="13.15266"><ele>393.5</ele><time>2026-04-26T12:08:13.271Z</time></trkpt><trkpt lat="43.3459267" lon="13.1527017"><ele>390.0</ele><time>2026-04-26T12:08:14.271Z</time></trkpt><trkpt lat="43.3460317" lon="13.1527533"><ele>390.0</ele><time>2026-04-26T12:08:15.271Z</time></trkpt><trkpt lat="43.3461383" lon="13.1527983"><ele>390.0</ele><time>2026-04-26T12:08:16.271Z</time></trkpt><trkpt lat="43.346245" lon="13.15285"><ele>390.0</ele><time>2026-04-26T12:08:17.271Z</time></trkpt><trkpt lat="43.3463533" lon="13.1529083"><ele>390.0</ele><time>2026-04-26T12:08:18.271Z</time></trkpt><trkpt lat="43.3464533" lon="13.152965"><ele>390.0</ele><time>2026-04-26T12:08:19.271Z</time></trkpt><trkpt lat="43.346555" lon="13.15302"><ele>388.4</ele><time>2026-04-26T12:08:20.271Z</time></trkpt><trkpt lat="43.34665" lon="13.15308"><ele>386.8</ele><time>2026-04-26T12:08:21.271Z</time></trkpt><trkpt lat="43.346735" lon="13.15314"><ele>385.20000000000005</ele><time>2026-04-26T12:08:22.271Z</time></trkpt><trkpt lat="43.3468083" lon="13.1532033"><ele>383.6</ele><time>2026-04-26T12:08:23.271Z</time></trkpt><trkpt lat="43.3468833" lon="13.1532583"><ele>382.0</ele><time>2026-04-26T12:08:24.271Z</time></trkpt><trkpt lat="43.3469583" lon="13.15329"><ele>382.0</ele><time>2026-04-26T12:08:25.271Z</time></trkpt><trkpt lat="43.3470417" lon="13.153295"><ele>382.0</ele><time>2026-04-26T12:08:26.271Z</time></trkpt><trkpt lat="43.34712" lon="13.15327"><ele>382.0</ele><time>2026-04-26T12:08:27.271Z</time></trkpt><trkpt lat="43.3472017" lon="13.15323"><ele>382.0</ele><time>2026-04-26T12:08:28.271Z</time></trkpt><trkpt lat="43.3472833" lon="13.15319"><ele>382.0</ele><time>2026-04-26T12:08:29.271Z</time></trkpt><trkpt lat="43.3473483" lon="13.153155"><ele>382.0</ele><time>2026-04-26T12:08:30.271Z</time></trkpt><trkpt lat="43.3474567" lon="13.1531583"><ele>379.0</ele><time>2026-04-26T12:08:32.271Z</time></trkpt><trkpt lat="43.3474967" lon="13.1533067"><ele>376.0</ele><time>2026-04-26T12:08:34.272Z</time></trkpt><trkpt lat="43.34749" lon="13.1534267"><ele>373.0</ele><time>2026-04-26T12:08:35.271Z</time></trkpt><trkpt lat="43.3474683" lon="13.1535783"><ele>370.0</ele><time>2026-04-26T12:08:36.271Z</time></trkpt><trkpt lat="43.3474233" lon="13.1537417"><ele>367.0</ele><time>2026-04-26T12:08:37.271Z</time></trkpt><trkpt lat="43.3473783" lon="13.1539133"><ele>367.0</ele><time>2026-04-26T12:08:38.271Z</time></trkpt><trkpt lat="43.3473317" lon="13.1540667"><ele>367.0</ele><time>2026-04-26T12:08:39.272Z</time></trkpt><trkpt lat="43.3472917" lon="13.15419"><ele>367.0</ele><time>2026-04-26T12:08:40.271Z</time></trkpt><trkpt lat="43.3472567" lon="13.1543033"><ele>367.0</ele><time>2026-04-26T12:08:41.271Z</time></trkpt><trkpt lat="43.3472067" lon="13.154405"><ele>367.0</ele><time>2026-04-26T12:08:42.271Z</time></trkpt><trkpt lat="43.3471483" lon="13.154495"><ele>367.0</ele><time>2026-04-26T12:08:43.271Z</time></trkpt><trkpt lat="43.3470733" lon="13.1545533"><ele>367.0</ele><time>2026-04-26T12:08:44.271Z</time></trkpt><trkpt lat="43.3469783" lon="13.1545633"><ele>367.0</ele><time>2026-04-26T12:08:45.271Z</time></trkpt><trkpt lat="43.3469" lon="13.154555"><ele>367.0</ele><time>2026-04-26T12:08:46.271Z</time></trkpt><trkpt lat="43.346825" lon="13.1545517"><ele>367.0</ele><time>2026-04-26T12:08:47.271Z</time></trkpt><trkpt lat="43.3467633" lon="13.1545717"><ele>367.0</ele><time>2026-04-26T12:08:48.271Z</time></trkpt><trkpt lat="43.3467017" lon="13.154685"><ele>367.0</ele><time>2026-04-26T12:08:50.271Z</time></trkpt><trkpt lat="43.3466967" lon="13.1548067"><ele>367.0</ele><time>2026-04-26T12:08:51.271Z</time></trkpt><trkpt lat="43.3466817" lon="13.154955"><ele>367.0</ele><time>2026-04-26T12:08:52.272Z</time></trkpt><trkpt lat="43.3466633" lon="13.15511"><ele>367.0</ele><time>2026-04-26T12:08:53.271Z</time></trkpt><trkpt lat="43.34666" lon="13.155275"><ele>367.0</ele><time>2026-04-26T12:08:54.271Z</time></trkpt><trkpt lat="43.3466483" lon="13.1554383"><ele>362.40000000000003</ele><time>2026-04-26T12:08:55.271Z</time></trkpt><trkpt lat="43.3466383" lon="13.1556067"><ele>357.8</ele><time>2026-04-26T12:08:56.271Z</time></trkpt><trkpt lat="43.3466217" lon="13.1557633"><ele>353.2</ele><time>2026-04-26T12:08:57.271Z</time></trkpt><trkpt lat="43.34661" lon="13.1559117"><ele>348.6</ele><time>2026-04-26T12:08:58.271Z</time></trkpt><trkpt lat="43.3465967" lon="13.1560467"><ele>344.0</ele><time>2026-04-26T12:08:59.271Z</time></trkpt><trkpt lat="43.3466017" lon="13.1562"><ele>342.75</ele><time>2026-04-26T12:09:00.271Z</time></trkpt><trkpt lat="43.3466217" lon="13.1563833"><ele>341.5</ele><time>2026-04-26T12:09:01.271Z</time></trkpt><trkpt lat="43.34665" lon="13.1565583"><ele>340.25</ele><time>2026-04-26T12:09:02.271Z</time></trkpt><trkpt lat="43.3466933" lon="13.1567317"><ele>339.0</ele><time>2026-04-26T12:09:03.272Z</time></trkpt><trkpt lat="43.3467433" lon="13.1568867"><ele>339.0</ele><time>2026-04-26T12:09:04.271Z</time></trkpt><trkpt lat="43.3467967" lon="13.1570417"><ele>339.0</ele><time>2026-04-26T12:09:05.271Z</time></trkpt><trkpt lat="43.3468567" lon="13.157205"><ele>339.0</ele><time>2026-04-26T12:09:06.271Z</time></trkpt><trkpt lat="43.34693" lon="13.1573933"><ele>339.0</ele><time>2026-04-26T12:09:07.271Z</time></trkpt><trkpt lat="43.3470017" lon="13.157585"><ele>340.2</ele><time>2026-04-26T12:09:08.271Z</time></trkpt><trkpt lat="43.3470717" lon="13.1577433"><ele>341.4</ele><time>2026-04-26T12:09:09.272Z</time></trkpt><trkpt lat="43.3471317" lon="13.157885"><ele>342.6</ele><time>2026-04-26T12:09:10.271Z</time></trkpt><trkpt lat="43.3471767" lon="13.15802"><ele>343.8</ele><time>2026-04-26T12:09:11.271Z</time></trkpt><trkpt lat="43.3472" lon="13.1581333"><ele>345.0</ele><time>2026-04-26T12:09:12.271Z</time></trkpt><trkpt lat="43.3472033" lon="13.1582217"><ele>344.8</ele><time>2026-04-26T12:09:13.272Z</time></trkpt><trkpt lat="43.34719" lon="13.15834"><ele>344.6</ele><time>2026-04-26T12:09:15.271Z</time></trkpt><trkpt lat="43.3472" lon="13.15843"><ele>344.4</ele><time>2026-04-26T12:09:17.271Z</time></trkpt><trkpt lat="43.3472667" lon="13.1585767"><ele>344.2</ele><time>2026-04-26T12:09:19.271Z</time></trkpt><trkpt lat="43.3473233" lon="13.158675"><ele>344.0</ele><time>2026-04-26T12:09:20.271Z</time></trkpt><trkpt lat="43.3473967" lon="13.1587817"><ele>344.0</ele><time>2026-04-26T12:09:21.271Z</time></trkpt><trkpt lat="43.34746" lon="13.158885"><ele>344.0</ele><time>2026-04-26T12:09:22.272Z</time></trkpt><trkpt lat="43.3475183" lon="13.158975"><ele>344.0</ele><time>2026-04-26T12:09:23.271Z</time></trkpt><trkpt lat="43.3475667" lon="13.159045"><ele>344.0</ele><time>2026-04-26T12:09:24.271Z</time></trkpt><trkpt lat="43.34766" lon="13.1591333"><ele>344.0</ele><time>2026-04-26T12:09:26.271Z</time></trkpt><trkpt lat="43.34773" lon="13.15914"><ele>344.0</ele><time>2026-04-26T12:09:27.271Z</time></trkpt><trkpt lat="43.34783" lon="13.1591133"><ele>344.75</ele><time>2026-04-26T12:09:28.271Z</time></trkpt><trkpt lat="43.3479617" lon="13.1590633"><ele>345.5</ele><time>2026-04-26T12:09:29.271Z</time></trkpt><trkpt lat="43.348115" lon="13.1590033"><ele>346.25</ele><time>2026-04-26T12:09:30.271Z</time></trkpt><trkpt lat="43.3482533" lon="13.158955"><ele>347.0</ele><time>2026-04-26T12:09:31.271Z</time></trkpt><trkpt lat="43.3483583" lon="13.1589333"><ele>347.0</ele><time>2026-04-26T12:09:32.271Z</time></trkpt><trkpt lat="43.3484383" lon="13.1589133"><ele>347.0</ele><time>2026-04-26T12:09:33.271Z</time></trkpt><trkpt lat="43.3485" lon="13.158875"><ele>347.0</ele><time>2026-04-26T12:09:34.271Z</time></trkpt><trkpt lat="43.3485567" lon="13.1588267"><ele>347.0</ele><time>2026-04-26T12:09:35.271Z</time></trkpt><trkpt lat="43.3486233" lon="13.15876"><ele>347.0</ele><time>2026-04-26T12:09:36.271Z</time></trkpt><trkpt lat="43.3487033" lon="13.1586767"><ele>347.0</ele><time>2026-04-26T12:09:37.271Z</time></trkpt><trkpt lat="43.3488017" lon="13.158595"><ele>345.75</ele><time>2026-04-26T12:09:38.271Z</time></trkpt><trkpt lat="43.3489017" lon="13.1585117"><ele>344.5</ele><time>2026-04-26T12:09:39.271Z</time></trkpt><trkpt lat="43.348995" lon="13.1583967"><ele>343.25</ele><time>2026-04-26T12:09:40.271Z</time></trkpt><trkpt lat="43.3490533" lon="13.1582533"><ele>342.0</ele><time>2026-04-26T12:09:41.271Z</time></trkpt><trkpt lat="43.3490733" lon="13.158105"><ele>342.0</ele><time>2026-04-26T12:09:42.271Z</time></trkpt><trkpt lat="43.3490667" lon="13.15793"><ele>342.0</ele><time>2026-04-26T12:09:43.271Z</time></trkpt><trkpt lat="43.349015" lon="13.1577233"><ele>342.0</ele><time>2026-04-26T12:09:44.271Z</time></trkpt><trkpt lat="43.34895" lon="13.1574717"><ele>339.0</ele><time>2026-04-26T12:09:45.271Z</time></trkpt><trkpt lat="43.34888" lon="13.1571933"><ele>336.0</ele><time>2026-04-26T12:09:46.271Z</time></trkpt><trkpt lat="43.3488333" lon="13.1569233"><ele>333.0</ele><time>2026-04-26T12:09:47.271Z</time></trkpt><trkpt lat="43.3488167" lon="13.1566517"><ele>332.6666666666667</ele><time>2026-04-26T12:09:48.271Z</time></trkpt><trkpt lat="43.3488167" lon="13.1564"><ele>332.33333333333337</ele><time>2026-04-26T12:09:49.271Z</time></trkpt><trkpt lat="43.34884" lon="13.1561417"><ele>332.0</ele><time>2026-04-26T12:09:50.271Z</time></trkpt><trkpt lat="43.3488833" lon="13.1558917"><ele>333.0</ele><time>2026-04-26T12:09:51.271Z</time></trkpt><trkpt lat="43.34895" lon="13.15565"><ele>334.0</ele><time>2026-04-26T12:09:52.271Z</time></trkpt><trkpt lat="43.3490233" lon="13.1554133"><ele>335.0</ele><time>2026-04-26T12:09:53.271Z</time></trkpt><trkpt lat="43.3490867" lon="13.1551883"><ele>335.0</ele><time>2026-04-26T12:09:54.271Z</time></trkpt><trkpt lat="43.3491433" lon="13.1549683"><ele>335.0</ele><time>2026-04-26T12:09:55.271Z</time></trkpt><trkpt lat="43.3492117" lon="13.15476"><ele>335.0</ele><time>2026-04-26T12:09:56.271Z</time></trkpt><trkpt lat="43.349295" lon="13.154565"><ele>337.0</ele><time>2026-04-26T12:09:57.271Z</time></trkpt><trkpt lat="43.3493883" lon="13.1543967"><ele>339.0</ele><time>2026-04-26T12:09:58.271Z</time></trkpt><trkpt lat="43.34949" lon="13.1542633"><ele>341.0</ele><time>2026-04-26T12:09:59.271Z</time></trkpt><trkpt lat="43.3496117" lon="13.1541567"><ele>343.0</ele><time>2026-04-26T12:10:00.271Z</time></trkpt><trkpt lat="43.3497417" lon="13.1540717"><ele>347.25</ele><time>2026-04-26T12:10:01.271Z</time></trkpt><trkpt lat="43.3498883" lon="13.154005"><ele>351.5</ele><time>2026-04-26T12:10:02.271Z</time></trkpt><trkpt lat="43.350035" lon="13.15397"><ele>355.75</ele><time>2026-04-26T12:10:03.271Z</time></trkpt><trkpt lat="43.350175" lon="13.1539517"><ele>360.0</ele><time>2026-04-26T12:10:04.271Z</time></trkpt><trkpt lat="43.3502967" lon="13.1539333"><ele>360.0</ele><time>2026-04-26T12:10:05.271Z</time></trkpt><trkpt lat="43.3504017" lon="13.153915"><ele>360.0</ele><time>2026-04-26T12:10:06.271Z</time></trkpt><trkpt lat="43.3504933" lon="13.1538767"><ele>360.0</ele><time>2026-04-26T12:10:07.272Z</time></trkpt><trkpt lat="43.350565" lon="13.1538"><ele>360.0</ele><time>2026-04-26T12:10:08.271Z</time></trkpt><trkpt lat="43.350615" lon="13.1536967"><ele>360.0</ele><time>2026-04-26T12:10:09.271Z</time></trkpt><trkpt lat="43.3506233" lon="13.1535867"><ele>360.0</ele><time>2026-04-26T12:10:10.271Z</time></trkpt><trkpt lat="43.350595" lon="13.1534933"><ele>360.0</ele><time>2026-04-26T12:10:11.271Z</time></trkpt><trkpt lat="43.3505383" lon="13.1534133"><ele>360.0</ele><time>2026-04-26T12:10:12.271Z</time></trkpt><trkpt lat="43.3504483" lon="13.1533767"><ele>360.0</ele><time>2026-04-26T12:10:13.271Z</time></trkpt><trkpt lat="43.3503267" lon="13.15337"><ele>360.0</ele><time>2026-04-26T12:10:14.271Z</time></trkpt><trkpt lat="43.350205" lon="13.153395"><ele>360.0</ele><time>2026-04-26T12:10:15.271Z</time></trkpt><trkpt lat="43.3500883" lon="13.15343"><ele>360.0</ele><time>2026-04-26T12:10:16.271Z</time></trkpt><trkpt lat="43.34999" lon="13.153455"><ele>360.0</ele><time>2026-04-26T12:10:17.271Z</time></trkpt><trkpt lat="43.3499017" lon="13.15343"><ele>360.0</ele><time>2026-04-26T12:10:18.271Z</time></trkpt><trkpt lat="43.3498267" lon="13.1533617"><ele>360.0</ele><time>2026-04-26T12:10:19.271Z</time></trkpt><trkpt lat="43.34979" lon="13.153245"><ele>363.25</ele><time>2026-04-26T12:10:20.271Z</time></trkpt><trkpt lat="43.3498067" lon="13.15309"><ele>366.5</ele><time>2026-04-26T12:10:21.271Z</time></trkpt><trkpt lat="43.3498533" lon="13.1529183"><ele>369.75</ele><time>2026-04-26T12:10:22.271Z</time></trkpt><trkpt lat="43.3499117" lon="13.15274"><ele>373.0</ele><time>2026-04-26T12:10:23.271Z</time></trkpt><trkpt lat="43.349945" lon="13.152545"><ele>374.5</ele><time>2026-04-26T12:10:24.271Z</time></trkpt><trkpt lat="43.3499267" lon="13.1523517"><ele>376.0</ele><time>2026-04-26T12:10:25.27Z</time></trkpt><trkpt lat="43.3498833" lon="13.1521767"><ele>377.5</ele><time>2026-04-26T12:10:26.27Z</time></trkpt><trkpt lat="43.349815" lon="13.151995"><ele>379.0</ele><time>2026-04-26T12:10:27.27Z</time></trkpt><trkpt lat="43.3497633" lon="13.1518183"><ele>379.0</ele><time>2026-04-26T12:10:28.27Z</time></trkpt><trkpt lat="43.3497383" lon="13.1516583"><ele>379.0</ele><time>2026-04-26T12:10:29.271Z</time></trkpt><trkpt lat="43.34975" lon="13.151515"><ele>379.0</ele><time>2026-04-26T12:10:30.27Z</time></trkpt><trkpt lat="43.3497917" lon="13.151375"><ele>379.0</ele><time>2026-04-26T12:10:31.27Z</time></trkpt><trkpt lat="43.3498667" lon="13.151255"><ele>379.0</ele><time>2026-04-26T12:10:32.27Z</time></trkpt><trkpt lat="43.3499867" lon="13.1511567"><ele>379.0</ele><time>2026-04-26T12:10:33.27Z</time></trkpt><trkpt lat="43.35011" lon="13.15106"><ele>379.0</ele><time>2026-04-26T12:10:34.271Z</time></trkpt><trkpt lat="43.350235" lon="13.1509583"><ele>379.0</ele><time>2026-04-26T12:10:35.27Z</time></trkpt><trkpt lat="43.35036" lon="13.1508667"><ele>379.0</ele><time>2026-04-26T12:10:36.27Z</time></trkpt><trkpt lat="43.3504633" lon="13.1507767"><ele>382.2</ele><time>2026-04-26T12:10:37.27Z</time></trkpt><trkpt lat="43.3505567" lon="13.1506967"><ele>385.4</ele><time>2026-04-26T12:10:38.27Z</time></trkpt><trkpt lat="43.3506417" lon="13.1506183"><ele>388.6</ele><time>2026-04-26T12:10:39.27Z</time></trkpt><trkpt lat="43.350685" lon="13.1505017"><ele>391.8</ele><time>2026-04-26T12:10:40.27Z</time></trkpt><trkpt lat="43.3506967" lon="13.15036"><ele>395.0</ele><time>2026-04-26T12:10:41.27Z</time></trkpt><trkpt lat="43.3506933" lon="13.1501967"><ele>395.0</ele><time>2026-04-26T12:10:42.27Z</time></trkpt><trkpt lat="43.3506883" lon="13.1500233"><ele>395.0</ele><time>2026-04-26T12:10:43.27Z</time></trkpt><trkpt lat="43.35069" lon="13.1498267"><ele>395.0</ele><time>2026-04-26T12:10:44.27Z</time></trkpt><trkpt lat="43.35069" lon="13.1496467"><ele>395.0</ele><time>2026-04-26T12:10:45.27Z</time></trkpt><trkpt lat="43.3507033" lon="13.14947"><ele>395.5</ele><time>2026-04-26T12:10:46.27Z</time></trkpt><trkpt lat="43.350715" lon="13.1492867"><ele>396.0</ele><time>2026-04-26T12:10:47.27Z</time></trkpt><trkpt lat="43.3507233" lon="13.1491067"><ele>396.5</ele><time>2026-04-26T12:10:48.27Z</time></trkpt><trkpt lat="43.3507217" lon="13.14892"><ele>397.0</ele><time>2026-04-26T12:10:49.27Z</time></trkpt><trkpt lat="43.350705" lon="13.1487183"><ele>398.20000000000005</ele><time>2026-04-26T12:10:50.27Z</time></trkpt><trkpt lat="43.350665" lon="13.1485217"><ele>399.4</ele><time>2026-04-26T12:10:51.27Z</time></trkpt><trkpt lat="43.35063" lon="13.148365"><ele>400.6</ele><time>2026-04-26T12:10:52.27Z</time></trkpt><trkpt lat="43.3506067" lon="13.1482383"><ele>401.79999999999995</ele><time>2026-04-26T12:10:53.27Z</time></trkpt><trkpt lat="43.3505933" lon="13.1481283"><ele>403.0</ele><time>2026-04-26T12:10:54.27Z</time></trkpt><trkpt lat="43.3506083" lon="13.148035"><ele>404.2</ele><time>2026-04-26T12:10:55.27Z</time></trkpt><trkpt lat="43.35074" lon="13.1479933"><ele>405.4</ele><time>2026-04-26T12:10:57.27Z</time></trkpt><trkpt lat="43.35083" lon="13.1480367"><ele>406.59999999999997</ele><time>2026-04-26T12:10:58.27Z</time></trkpt><trkpt lat="43.3509317" lon="13.148085"><ele>407.79999999999995</ele><time>2026-04-26T12:10:59.27Z</time></trkpt><trkpt lat="43.3510317" lon="13.1481383"><ele>409.0</ele><time>2026-04-26T12:11:00.27Z</time></trkpt><trkpt lat="43.3511267" lon="13.1481983"><ele>407.79999999999995</ele><time>2026-04-26T12:11:01.27Z</time></trkpt><trkpt lat="43.35122" lon="13.148255"><ele>406.59999999999997</ele><time>2026-04-26T12:11:02.27Z</time></trkpt><trkpt lat="43.3512983" lon="13.1483267"><ele>405.4</ele><time>2026-04-26T12:11:03.27Z</time></trkpt><trkpt lat="43.35136" lon="13.1484133"><ele>404.2</ele><time>2026-04-26T12:11:04.27Z</time></trkpt><trkpt lat="43.3514017" lon="13.1485117"><ele>403.0</ele><time>2026-04-26T12:11:05.27Z</time></trkpt><trkpt lat="43.35142" lon="13.148635"><ele>405.1666666666667</ele><time>2026-04-26T12:11:06.27Z</time></trkpt><trkpt lat="43.3514233" lon="13.148755"><ele>407.33333333333337</ele><time>2026-04-26T12:11:07.27Z</time></trkpt><trkpt lat="43.3514233" lon="13.148885"><ele>409.5</ele><time>2026-04-26T12:11:08.271Z</time></trkpt><trkpt lat="43.35142" lon="13.149005"><ele>411.66666666666663</ele><time>2026-04-26T12:11:09.27Z</time></trkpt><trkpt lat="43.3514267" lon="13.1491083"><ele>413.8333333333333</ele><time>2026-04-26T12:11:10.27Z</time></trkpt><trkpt lat="43.3514383" lon="13.1491967"><ele>416.0</ele><time>2026-04-26T12:11:11.27Z</time></trkpt><trkpt lat="43.3515033" lon="13.149275"><ele>416.0</ele><time>2026-04-26T12:11:13.27Z</time></trkpt><trkpt lat="43.3516033" lon="13.1491917"><ele>416.0</ele><time>2026-04-26T12:11:15.271Z</time></trkpt><trkpt lat="43.35165" lon="13.1490767"><ele>416.0</ele><time>2026-04-26T12:11:16.27Z</time></trkpt><trkpt lat="43.3517083" lon="13.1489467"><ele>416.0</ele><time>2026-04-26T12:11:17.27Z</time></trkpt><trkpt lat="43.3517683" lon="13.148825"><ele>416.0</ele><time>2026-04-26T12:11:18.27Z</time></trkpt><trkpt lat="43.3518333" lon="13.1487167"><ele>416.0</ele><time>2026-04-26T12:11:19.27Z</time></trkpt><trkpt lat="43.3519083" lon="13.1486067"><ele>416.0</ele><time>2026-04-26T12:11:20.27Z</time></trkpt><trkpt lat="43.3519883" lon="13.148515"><ele>416.0</ele><time>2026-04-26T12:11:21.27Z</time></trkpt><trkpt lat="43.3520717" lon="13.1484183"><ele>416.0</ele><time>2026-04-26T12:11:22.27Z</time></trkpt><trkpt lat="43.3521517" lon="13.1483217"><ele>416.0</ele><time>2026-04-26T12:11:23.27Z</time></trkpt><trkpt lat="43.35224" lon="13.1482283"><ele>418.6</ele><time>2026-04-26T12:11:24.27Z</time></trkpt><trkpt lat="43.35233" lon="13.1481417"><ele>421.20000000000005</ele><time>2026-04-26T12:11:25.27Z</time></trkpt><trkpt lat="43.3524233" lon="13.1480567"><ele>423.79999999999995</ele><time>2026-04-26T12:11:26.27Z</time></trkpt><trkpt lat="43.3525033" lon="13.147985"><ele>426.4</ele><time>2026-04-26T12:11:27.27Z</time></trkpt><trkpt lat="43.3525667" lon="13.1478983"><ele>429.0</ele><time>2026-04-26T12:11:28.27Z</time></trkpt><trkpt lat="43.352615" lon="13.1477883"><ele>429.0</ele><time>2026-04-26T12:11:29.27Z</time></trkpt><trkpt lat="43.3526367" lon="13.1476667"><ele>429.0</ele><time>2026-04-26T12:11:30.27Z</time></trkpt><trkpt lat="43.352605" lon="13.1475317"><ele>429.0</ele><time>2026-04-26T12:11:31.27Z</time></trkpt><trkpt lat="43.35254" lon="13.1473983"><ele>429.0</ele><time>2026-04-26T12:11:32.27Z</time></trkpt><trkpt lat="43.3524567" lon="13.1472817"><ele>429.0</ele><time>2026-04-26T12:11:33.27Z</time></trkpt><trkpt lat="43.352365" lon="13.1471783"><ele>429.6</ele><time>2026-04-26T12:11:34.27Z</time></trkpt><trkpt lat="43.3522783" lon="13.147065"><ele>430.2</ele><time>2026-04-26T12:11:35.27Z</time></trkpt><trkpt lat="43.3522033" lon="13.14695"><ele>430.80000000000007</ele><time>2026-04-26T12:11:36.27Z</time></trkpt><trkpt lat="43.352135" lon="13.1468367"><ele>431.40000000000003</ele><time>2026-04-26T12:11:37.27Z</time></trkpt><trkpt lat="43.352085" lon="13.1467183"><ele>432.0</ele><time>2026-04-26T12:11:38.27Z</time></trkpt><trkpt lat="43.3520483" lon="13.1465933"><ele>433.40000000000003</ele><time>2026-04-26T12:11:39.27Z</time></trkpt><trkpt lat="43.3520333" lon="13.1464567"><ele>434.80000000000007</ele><time>2026-04-26T12:11:40.27Z</time></trkpt><trkpt lat="43.3520333" lon="13.1463133"><ele>436.2</ele><time>2026-04-26T12:11:41.27Z</time></trkpt><trkpt lat="43.3520467" lon="13.1461683"><ele>437.6</ele><time>2026-04-26T12:11:42.27Z</time></trkpt><trkpt lat="43.35206" lon="13.1460183"><ele>439.0</ele><time>2026-04-26T12:11:43.27Z</time></trkpt><trkpt lat="43.352095" lon="13.1458667"><ele>439.0</ele><time>2026-04-26T12:11:44.271Z</time></trkpt><trkpt lat="43.3521267" lon="13.1457183"><ele>439.0</ele><time>2026-04-26T12:11:45.271Z</time></trkpt><trkpt lat="43.3521733" lon="13.1455667"><ele>439.0</ele><time>2026-04-26T12:11:46.271Z</time></trkpt><trkpt lat="43.3522167" lon="13.1454217"><ele>439.0</ele><time>2026-04-26T12:11:47.27Z</time></trkpt><trkpt lat="43.3522617" lon="13.14528"><ele>441.00000000000006</ele><time>2026-04-26T12:11:48.27Z</time></trkpt><trkpt lat="43.3522967" lon="13.1451383"><ele>443.0</ele><time>2026-04-26T12:11:49.27Z</time></trkpt><trkpt lat="43.3523317" lon="13.1450117"><ele>445.0</ele><time>2026-04-26T12:11:50.27Z</time></trkpt><trkpt lat="43.3523417" lon="13.1448917"><ele>447.0</ele><time>2026-04-26T12:11:51.27Z</time></trkpt><trkpt lat="43.3523567" lon="13.1447717"><ele>449.00000000000006</ele><time>2026-04-26T12:11:52.271Z</time></trkpt><trkpt lat="43.3523633" lon="13.1446817"><ele>451.0</ele><time>2026-04-26T12:11:53.27Z</time></trkpt><trkpt lat="43.352375" lon="13.1445567"><ele>451.33333333333337</ele><time>2026-04-26T12:11:55.27Z</time></trkpt><trkpt lat="43.3524417" lon="13.1444783"><ele>451.6666666666667</ele><time>2026-04-26T12:11:57.27Z</time></trkpt><trkpt lat="43.3525383" lon="13.1444533"><ele>452.0</ele><time>2026-04-26T12:11:59.27Z</time></trkpt><trkpt lat="43.35261" lon="13.1444467"><ele>452.33333333333337</ele><time>2026-04-26T12:12:01.27Z</time></trkpt><trkpt lat="43.35268" lon="13.14441"><ele>452.6666666666667</ele><time>2026-04-26T12:13:26.27Z</time></trkpt><trkpt lat="43.3527533" lon="13.1443717"><ele>453.0</ele><time>2026-04-26T12:13:28.271Z</time></trkpt><trkpt lat="43.352885" lon="13.1443717"><ele>453.0</ele><time>2026-04-26T12:13:30.27Z</time></trkpt><trkpt lat="43.3529583" lon="13.1443817"><ele>453.0</ele><time>2026-04-26T12:13:31.27Z</time></trkpt><trkpt lat="43.3530417" lon="13.1444017"><ele>453.0</ele><time>2026-04-26T12:13:32.27Z</time></trkpt><trkpt lat="43.35312" lon="13.144415"><ele>453.0</ele><time>2026-04-26T12:13:33.27Z</time></trkpt><trkpt lat="43.3532" lon="13.1444333"><ele>453.0</ele><time>2026-04-26T12:13:34.27Z</time></trkpt><trkpt lat="43.35328" lon="13.14445"><ele>453.0</ele><time>2026-04-26T12:13:35.27Z</time></trkpt><trkpt lat="43.3533567" lon="13.1444617"><ele>451.5714285714285</ele><time>2026-04-26T12:13:36.27Z</time></trkpt><trkpt lat="43.3534317" lon="13.1444633"><ele>450.1428571428571</ele><time>2026-04-26T12:13:37.27Z</time></trkpt><trkpt lat="43.3535067" lon="13.1444767"><ele>448.71428571428567</ele><time>2026-04-26T12:13:38.27Z</time></trkpt><trkpt lat="43.3535767" lon="13.144485"><ele>447.2857142857142</ele><time>2026-04-26T12:13:39.27Z</time></trkpt><trkpt lat="43.3536433" lon="13.14451"><ele>445.8571428571429</ele><time>2026-04-26T12:13:40.27Z</time></trkpt><trkpt lat="43.35371" lon="13.1445483"><ele>444.42857142857144</ele><time>2026-04-26T12:13:41.27Z</time></trkpt><trkpt lat="43.35378" lon="13.1445983"><ele>443.0</ele><time>2026-04-26T12:13:42.27Z</time></trkpt><trkpt lat="43.353855" lon="13.144675"><ele>442.2</ele><time>2026-04-26T12:13:43.271Z</time></trkpt><trkpt lat="43.35393" lon="13.144765"><ele>441.4</ele><time>2026-04-26T12:13:44.27Z</time></trkpt><trkpt lat="43.3540033" lon="13.1448617"><ele>440.59999999999997</ele><time>2026-04-26T12:13:45.27Z</time></trkpt><trkpt lat="43.35408" lon="13.1449583"><ele>439.79999999999995</ele><time>2026-04-26T12:13:46.27Z</time></trkpt><trkpt lat="43.35416" lon="13.14505"><ele>439.0</ele><time>2026-04-26T12:13:47.27Z</time></trkpt><trkpt lat="43.354245" lon="13.1451417"><ele>439.0</ele><time>2026-04-26T12:13:48.27Z</time></trkpt><trkpt lat="43.354325" lon="13.14524"><ele>439.0</ele><time>2026-04-26T12:13:49.27Z</time></trkpt><trkpt lat="43.3544" lon="13.1453433"><ele>439.0</ele><time>2026-04-26T12:13:50.271Z</time></trkpt><trkpt lat="43.3544767" lon="13.145435"><ele>439.0</ele><time>2026-04-26T12:13:51.27Z</time></trkpt><trkpt lat="43.3545467" lon="13.145525"><ele>439.0</ele><time>2026-04-26T12:13:52.27Z</time></trkpt><trkpt lat="43.354615" lon="13.14561"><ele>439.0</ele><time>2026-04-26T12:13:53.27Z</time></trkpt><trkpt lat="43.3546983" lon="13.1456933"><ele>439.0</ele><time>2026-04-26T12:13:54.271Z</time></trkpt><trkpt lat="43.3547867" lon="13.14578"><ele>439.0</ele><time>2026-04-26T12:13:55.27Z</time></trkpt><trkpt lat="43.35488" lon="13.145865"><ele>439.0</ele><time>2026-04-26T12:13:56.27Z</time></trkpt><trkpt lat="43.3549667" lon="13.14594"><ele>439.0</ele><time>2026-04-26T12:13:57.269Z</time></trkpt><trkpt lat="43.355055" lon="13.1460283"><ele>438.0</ele><time>2026-04-26T12:13:58.27Z</time></trkpt><trkpt lat="43.355155" lon="13.146115"><ele>437.0</ele><time>2026-04-26T12:13:59.27Z</time></trkpt><trkpt lat="43.35528" lon="13.14619"><ele>436.0</ele><time>2026-04-26T12:14:00.27Z</time></trkpt><trkpt lat="43.3554183" lon="13.146265"><ele>435.0</ele><time>2026-04-26T12:14:01.27Z</time></trkpt><trkpt lat="43.3555567" lon="13.1463367"><ele>434.5</ele><time>2026-04-26T12:14:02.27Z</time></trkpt><trkpt lat="43.3556917" lon="13.1464117"><ele>434.0</ele><time>2026-04-26T12:14:03.27Z</time></trkpt><trkpt lat="43.3558233" lon="13.1464917"><ele>433.5</ele><time>2026-04-26T12:14:04.27Z</time></trkpt><trkpt lat="43.3559533" lon="13.1465783"><ele>433.0</ele><time>2026-04-26T12:14:05.27Z</time></trkpt><trkpt lat="43.3560783" lon="13.146685"><ele>433.0</ele><time>2026-04-26T12:14:06.271Z</time></trkpt><trkpt lat="43.3561983" lon="13.1468017"><ele>433.0</ele><time>2026-04-26T12:14:07.27Z</time></trkpt><trkpt lat="43.3563333" lon="13.146915"><ele>433.0</ele><time>2026-04-26T12:14:08.27Z</time></trkpt><trkpt lat="43.35646" lon="13.1470633"><ele>430.0</ele><time>2026-04-26T12:14:09.27Z</time></trkpt><trkpt lat="43.3565833" lon="13.1472333"><ele>427.0</ele><time>2026-04-26T12:14:10.27Z</time></trkpt><trkpt lat="43.3567033" lon="13.14743"><ele>424.0</ele><time>2026-04-26T12:14:11.27Z</time></trkpt><trkpt lat="43.3568167" lon="13.1476317"><ele>424.0</ele><time>2026-04-26T12:14:12.271Z</time></trkpt><trkpt lat="43.356915" lon="13.1478333"><ele>424.0</ele><time>2026-04-26T12:14:13.27Z</time></trkpt><trkpt lat="43.3570117" lon="13.148025"><ele>424.0</ele><time>2026-04-26T12:14:14.27Z</time></trkpt><trkpt lat="43.357105" lon="13.1482"><ele>422.75</ele><time>2026-04-26T12:14:15.27Z</time></trkpt><trkpt lat="43.3571983" lon="13.1483583"><ele>421.5</ele><time>2026-04-26T12:14:16.27Z</time></trkpt><trkpt lat="43.357285" lon="13.1485117"><ele>420.25</ele><time>2026-04-26T12:14:17.27Z</time></trkpt><trkpt lat="43.3573783" lon="13.1486617"><ele>419.0</ele><time>2026-04-26T12:14:18.27Z</time></trkpt><trkpt lat="43.3574783" lon="13.1487983"><ele>419.0</ele><time>2026-04-26T12:14:19.27Z</time></trkpt><trkpt lat="43.3575917" lon="13.1489083"><ele>419.0</ele><time>2026-04-26T12:14:20.27Z</time></trkpt><trkpt lat="43.35772" lon="13.1490067"><ele>419.0</ele><time>2026-04-26T12:14:21.27Z</time></trkpt><trkpt lat="43.3578567" lon="13.1490733"><ele>419.0</ele><time>2026-04-26T12:14:22.27Z</time></trkpt><trkpt lat="43.3580133" lon="13.1491417"><ele>417.3333333333333</ele><time>2026-04-26T12:14:23.27Z</time></trkpt><trkpt lat="43.358165" lon="13.1492233"><ele>415.66666666666663</ele><time>2026-04-26T12:14:24.271Z</time></trkpt><trkpt lat="43.3583133" lon="13.1493083"><ele>414.0</ele><time>2026-04-26T12:14:25.271Z</time></trkpt><trkpt lat="43.3584433" lon="13.1494117"><ele>414.0</ele><time>2026-04-26T12:14:26.27Z</time></trkpt><trkpt lat="43.358565" lon="13.1495467"><ele>414.0</ele><time>2026-04-26T12:14:27.27Z</time></trkpt><trkpt lat="43.3586717" lon="13.1497033"><ele>414.0</ele><time>2026-04-26T12:14:28.27Z</time></trkpt><trkpt lat="43.358775" lon="13.1498633"><ele>414.0</ele><time>2026-04-26T12:14:29.27Z</time></trkpt><trkpt lat="43.3588667" lon="13.15004"><ele>414.0</ele><time>2026-04-26T12:14:30.27Z</time></trkpt><trkpt lat="43.35895" lon="13.1502117"><ele>414.0</ele><time>2026-04-26T12:14:31.27Z</time></trkpt><trkpt lat="43.3590467" lon="13.1503683"><ele>414.0</ele><time>2026-04-26T12:14:32.27Z</time></trkpt><trkpt lat="43.3591333" lon="13.15052"><ele>414.0</ele><time>2026-04-26T12:14:33.27Z</time></trkpt><trkpt lat="43.3592183" lon="13.1506667"><ele>414.0</ele><time>2026-04-26T12:14:34.27Z</time></trkpt><trkpt lat="43.35931" lon="13.15081"><ele>414.0</ele><time>2026-04-26T12:14:35.27Z</time></trkpt><trkpt lat="43.3594083" lon="13.1509333"><ele>413.33333333333337</ele><time>2026-04-26T12:14:36.27Z</time></trkpt><trkpt lat="43.3595417" lon="13.1510417"><ele>412.6666666666667</ele><time>2026-04-26T12:14:37.271Z</time></trkpt><trkpt lat="43.35968" lon="13.1511433"><ele>412.0</ele><time>2026-04-26T12:14:38.27Z</time></trkpt><trkpt lat="43.359825" lon="13.15123"><ele>411.33333333333337</ele><time>2026-04-26T12:14:39.27Z</time></trkpt><trkpt lat="43.3599617" lon="13.151315"><ele>410.66666666666663</ele><time>2026-04-26T12:14:40.27Z</time></trkpt><trkpt lat="43.3601033" lon="13.15141"><ele>410.0</ele><time>2026-04-26T12:14:41.271Z</time></trkpt><trkpt lat="43.3602533" lon="13.151495"><ele>409.66666666666663</ele><time>2026-04-26T12:14:42.27Z</time></trkpt><trkpt lat="43.360405" lon="13.15157"><ele>409.33333333333337</ele><time>2026-04-26T12:14:43.27Z</time></trkpt><trkpt lat="43.360565" lon="13.15162"><ele>409.0</ele><time>2026-04-26T12:14:44.27Z</time></trkpt><trkpt lat="43.360735" lon="13.1516283"><ele>409.0</ele><time>2026-04-26T12:14:45.27Z</time></trkpt><trkpt lat="43.3609" lon="13.1515767"><ele>409.0</ele><time>2026-04-26T12:14:46.27Z</time></trkpt><trkpt lat="43.36107" lon="13.1515117"><ele>409.0</ele><time>2026-04-26T12:14:47.27Z</time></trkpt><trkpt lat="43.3612283" lon="13.15146"><ele>409.0</ele><time>2026-04-26T12:14:48.271Z</time></trkpt><trkpt lat="43.3613867" lon="13.151405"><ele>409.0</ele><time>2026-04-26T12:14:49.27Z</time></trkpt><trkpt lat="43.3615417" lon="13.1513533"><ele>409.0</ele><time>2026-04-26T12:14:50.27Z</time></trkpt><trkpt lat="43.3616983" lon="13.151305"><ele>409.0</ele><time>2026-04-26T12:14:51.27Z</time></trkpt><trkpt lat="43.3618633" lon="13.1512517"><ele>409.0</ele><time>2026-04-26T12:14:52.27Z</time></trkpt><trkpt lat="43.36204" lon="13.15119"><ele>409.0</ele><time>2026-04-26T12:14:53.27Z</time></trkpt><trkpt lat="43.3622117" lon="13.1511433"><ele>409.6666666666667</ele><time>2026-04-26T12:14:54.27Z</time></trkpt><trkpt lat="43.3623833" lon="13.1510933"><ele>410.33333333333337</ele><time>2026-04-26T12:14:55.27Z</time></trkpt><trkpt lat="43.36256" lon="13.15105"><ele>411.0</ele><time>2026-04-26T12:14:56.27Z</time></trkpt><trkpt lat="43.3627433" lon="13.151015"><ele>411.0</ele><time>2026-04-26T12:14:57.27Z</time></trkpt><trkpt lat="43.36293" lon="13.1509983"><ele>411.0</ele><time>2026-04-26T12:14:58.27Z</time></trkpt><trkpt lat="43.3631217" lon="13.1509883"><ele>411.0</ele><time>2026-04-26T12:14:59.27Z</time></trkpt><trkpt lat="43.3633167" lon="13.1509867"><ele>411.33333333333337</ele><time>2026-04-26T12:15:00.27Z</time></trkpt><trkpt lat="43.3635033" lon="13.1509833"><ele>411.6666666666667</ele><time>2026-04-26T12:15:01.27Z</time></trkpt><trkpt lat="43.3636783" lon="13.15098"><ele>412.0</ele><time>2026-04-26T12:15:02.27Z</time></trkpt><trkpt lat="43.3638417" lon="13.1509767"><ele>412.25</ele><time>2026-04-26T12:15:03.27Z</time></trkpt><trkpt lat="43.3639983" lon="13.15098"><ele>412.5</ele><time>2026-04-26T12:15:04.27Z</time></trkpt><trkpt lat="43.364135" lon="13.1509783"><ele>412.75</ele><time>2026-04-26T12:15:05.27Z</time></trkpt><trkpt lat="43.3642533" lon="13.1509833"><ele>413.0</ele><time>2026-04-26T12:15:06.27Z</time></trkpt><trkpt lat="43.36436" lon="13.1510133"><ele>413.0</ele><time>2026-04-26T12:15:07.27Z</time></trkpt><trkpt lat="43.36445" lon="13.1510767"><ele>413.0</ele><time>2026-04-26T12:15:08.27Z</time></trkpt><trkpt lat="43.3645233" lon="13.1511833"><ele>413.0</ele><time>2026-04-26T12:15:09.27Z</time></trkpt><trkpt lat="43.3645867" lon="13.1513233"><ele>413.0</ele><time>2026-04-26T12:15:10.27Z</time></trkpt><trkpt lat="43.3646617" lon="13.15147"><ele>410.75</ele><time>2026-04-26T12:15:11.27Z</time></trkpt><trkpt lat="43.3647467" lon="13.1516117"><ele>408.5</ele><time>2026-04-26T12:15:12.271Z</time></trkpt><trkpt lat="43.3648417" lon="13.1517567"><ele>406.25</ele><time>2026-04-26T12:15:13.27Z</time></trkpt><trkpt lat="43.364965" lon="13.1518917"><ele>404.0</ele><time>2026-04-26T12:15:14.27Z</time></trkpt><trkpt lat="43.3651033" lon="13.1520167"><ele>404.0</ele><time>2026-04-26T12:15:15.27Z</time></trkpt><trkpt lat="43.365255" lon="13.15213"><ele>404.0</ele><time>2026-04-26T12:15:16.27Z</time></trkpt><trkpt lat="43.3654233" lon="13.1522167"><ele>404.0</ele><time>2026-04-26T12:15:17.27Z</time></trkpt><trkpt lat="43.3655817" lon="13.15228"><ele>401.66666666666663</ele><time>2026-04-26T12:15:18.27Z</time></trkpt><trkpt lat="43.36574" lon="13.1523233"><ele>399.33333333333337</ele><time>2026-04-26T12:15:19.27Z</time></trkpt><trkpt lat="43.3659017" lon="13.1523733"><ele>397.0</ele><time>2026-04-26T12:15:20.27Z</time></trkpt><trkpt lat="43.366055" lon="13.15241"><ele>396.75</ele><time>2026-04-26T12:15:21.271Z</time></trkpt><trkpt lat="43.3661983" lon="13.1524533"><ele>396.5</ele><time>2026-04-26T12:15:22.27Z</time></trkpt><trkpt lat="43.36634" lon="13.1525217"><ele>396.25</ele><time>2026-04-26T12:15:23.27Z</time></trkpt><trkpt lat="43.3664633" lon="13.15263"><ele>396.0</ele><time>2026-04-26T12:15:24.27Z</time></trkpt><trkpt lat="43.3665667" lon="13.1527683"><ele>397.25</ele><time>2026-04-26T12:15:25.27Z</time></trkpt><trkpt lat="43.3666533" lon="13.1529217"><ele>398.5</ele><time>2026-04-26T12:15:26.27Z</time></trkpt><trkpt lat="43.3667283" lon="13.153085"><ele>399.75</ele><time>2026-04-26T12:15:27.27Z</time></trkpt><trkpt lat="43.366795" lon="13.1532467"><ele>401.0</ele><time>2026-04-26T12:15:28.27Z</time></trkpt><trkpt lat="43.3668583" lon="13.1534017"><ele>400.20000000000005</ele><time>2026-04-26T12:15:29.27Z</time></trkpt><trkpt lat="43.3669217" lon="13.153545"><ele>399.40000000000003</ele><time>2026-04-26T12:15:30.271Z</time></trkpt><trkpt lat="43.3669983" lon="13.153655"><ele>398.6</ele><time>2026-04-26T12:15:31.27Z</time></trkpt><trkpt lat="43.3670883" lon="13.153735"><ele>397.8</ele><time>2026-04-26T12:15:32.271Z</time></trkpt><trkpt lat="43.367185" lon="13.1537733"><ele>397.0</ele><time>2026-04-26T12:15:33.27Z</time></trkpt><trkpt lat="43.3673033" lon="13.1537683"><ele>397.0</ele><time>2026-04-26T12:15:34.271Z</time></trkpt><trkpt lat="43.3674183" lon="13.1537233"><ele>397.0</ele><time>2026-04-26T12:15:35.27Z</time></trkpt><trkpt lat="43.367545" lon="13.1536733"><ele>397.0</ele><time>2026-04-26T12:15:36.27Z</time></trkpt><trkpt lat="43.367675" lon="13.1536767"><ele>397.0</ele><time>2026-04-26T12:15:37.27Z</time></trkpt><trkpt lat="43.3677983" lon="13.1537317"><ele>397.0</ele><time>2026-04-26T12:15:38.27Z</time></trkpt><trkpt lat="43.367915" lon="13.1538367"><ele>397.0</ele><time>2026-04-26T12:15:39.27Z</time></trkpt><trkpt lat="43.3680283" lon="13.1539317"><ele>397.0</ele><time>2026-04-26T12:15:40.271Z</time></trkpt><trkpt lat="43.3681617" lon="13.1539967"><ele>397.0</ele><time>2026-04-26T12:15:41.27Z</time></trkpt><trkpt lat="43.3683117" lon="13.1540417"><ele>390.0</ele><time>2026-04-26T12:15:42.27Z</time></trkpt><trkpt lat="43.3684733" lon="13.154065"><ele>383.0</ele><time>2026-04-26T12:15:43.27Z</time></trkpt><trkpt lat="43.3686317" lon="13.15408"><ele>376.0</ele><time>2026-04-26T12:15:44.27Z</time></trkpt><trkpt lat="43.36878" lon="13.1540933"><ele>372.75</ele><time>2026-04-26T12:15:45.27Z</time></trkpt><trkpt lat="43.368905" lon="13.1541133"><ele>369.5</ele><time>2026-04-26T12:15:46.27Z</time></trkpt><trkpt lat="43.36902" lon="13.1541283"><ele>366.25</ele><time>2026-04-26T12:15:47.27Z</time></trkpt><trkpt lat="43.36913" lon="13.154135"><ele>363.0</ele><time>2026-04-26T12:15:48.271Z</time></trkpt><trkpt lat="43.3692483" lon="13.1541367"><ele>363.0</ele><time>2026-04-26T12:15:49.27Z</time></trkpt><trkpt lat="43.3693667" lon="13.15415"><ele>363.0</ele><time>2026-04-26T12:15:50.27Z</time></trkpt><trkpt lat="43.36949" lon="13.1541733"><ele>363.0</ele><time>2026-04-26T12:15:51.271Z</time></trkpt><trkpt lat="43.369615" lon="13.1541883"><ele>363.0</ele><time>2026-04-26T12:15:52.27Z</time></trkpt><trkpt lat="43.3697467" lon="13.1542033"><ele>360.0</ele><time>2026-04-26T12:15:53.27Z</time></trkpt><trkpt lat="43.369875" lon="13.154215"><ele>357.0</ele><time>2026-04-26T12:15:54.27Z</time></trkpt><trkpt lat="43.3700067" lon="13.1542367"><ele>354.0</ele><time>2026-04-26T12:15:55.27Z</time></trkpt><trkpt lat="43.3701383" lon="13.154255"><ele>351.0</ele><time>2026-04-26T12:15:56.27Z</time></trkpt><trkpt lat="43.3702783" lon="13.1542683"><ele>351.0</ele><time>2026-04-26T12:15:57.271Z</time></trkpt><trkpt lat="43.3704183" lon="13.1542833"><ele>351.0</ele><time>2026-04-26T12:15:58.27Z</time></trkpt><trkpt lat="43.37056" lon="13.154295"><ele>351.0</ele><time>2026-04-26T12:15:59.271Z</time></trkpt><trkpt lat="43.370705" lon="13.15431"><ele>351.0</ele><time>2026-04-26T12:16:00.27Z</time></trkpt><trkpt lat="43.3708467" lon="13.154335"><ele>347.75</ele><time>2026-04-26T12:16:01.27Z</time></trkpt><trkpt lat="43.37099" lon="13.15435"><ele>344.5</ele><time>2026-04-26T12:16:02.27Z</time></trkpt><trkpt lat="43.3711267" lon="13.1543633"><ele>341.25</ele><time>2026-04-26T12:16:03.27Z</time></trkpt><trkpt lat="43.3712517" lon="13.1543767"><ele>338.0</ele><time>2026-04-26T12:16:04.27Z</time></trkpt><trkpt lat="43.371375" lon="13.1543917"><ele>335.5</ele><time>2026-04-26T12:16:05.27Z</time></trkpt><trkpt lat="43.3715017" lon="13.1544067"><ele>333.0</ele><time>2026-04-26T12:16:06.27Z</time></trkpt><trkpt lat="43.371625" lon="13.1544183"><ele>330.5</ele><time>2026-04-26T12:16:07.27Z</time></trkpt><trkpt lat="43.3717467" lon="13.1544317"><ele>328.0</ele><time>2026-04-26T12:16:08.27Z</time></trkpt><trkpt lat="43.3718633" lon="13.1544433"><ele>328.0</ele><time>2026-04-26T12:16:09.27Z</time></trkpt><trkpt lat="43.3719933" lon="13.154445"><ele>328.0</ele><time>2026-04-26T12:16:10.27Z</time></trkpt><trkpt lat="43.372125" lon="13.154445"><ele>328.0</ele><time>2026-04-26T12:16:11.27Z</time></trkpt><trkpt lat="43.37225" lon="13.1544467"><ele>328.0</ele><time>2026-04-26T12:16:12.27Z</time></trkpt><trkpt lat="43.37238" lon="13.1544283"><ele>327.75</ele><time>2026-04-26T12:16:13.27Z</time></trkpt><trkpt lat="43.3725067" lon="13.15441"><ele>327.5</ele><time>2026-04-26T12:16:14.27Z</time></trkpt><trkpt lat="43.3726383" lon="13.1543733"><ele>327.25</ele><time>2026-04-26T12:16:15.27Z</time></trkpt><trkpt lat="43.3727683" lon="13.154335"><ele>327.0</ele><time>2026-04-26T12:16:16.27Z</time></trkpt><trkpt lat="43.3728933" lon="13.1542867"><ele>327.0</ele><time>2026-04-26T12:16:17.271Z</time></trkpt><trkpt lat="43.37302" lon="13.1542333"><ele>327.0</ele><time>2026-04-26T12:16:18.27Z</time></trkpt><trkpt lat="43.3731533" lon="13.1541667"><ele>327.0</ele><time>2026-04-26T12:16:19.27Z</time></trkpt><trkpt lat="43.3732817" lon="13.1540967"><ele>327.0</ele><time>2026-04-26T12:16:20.27Z</time></trkpt><trkpt lat="43.3734017" lon="13.1540233"><ele>328.75</ele><time>2026-04-26T12:16:21.27Z</time></trkpt><trkpt lat="43.3735167" lon="13.1539467"><ele>330.5</ele><time>2026-04-26T12:16:22.27Z</time></trkpt><trkpt lat="43.3736267" lon="13.1538783"><ele>332.25</ele><time>2026-04-26T12:16:23.27Z</time></trkpt><trkpt lat="43.3737367" lon="13.153805"><ele>334.0</ele><time>2026-04-26T12:16:24.27Z</time></trkpt><trkpt lat="43.3738467" lon="13.1537367"><ele>336.79999999999995</ele><time>2026-04-26T12:16:25.27Z</time></trkpt><trkpt lat="43.37395" lon="13.1536683"><ele>339.59999999999997</ele><time>2026-04-26T12:16:26.27Z</time></trkpt><trkpt lat="43.3740417" lon="13.1536083"><ele>342.4</ele><time>2026-04-26T12:16:27.27Z</time></trkpt><trkpt lat="43.3741383" lon="13.1535517"><ele>345.2</ele><time>2026-04-26T12:16:28.27Z</time></trkpt><trkpt lat="43.3742317" lon="13.1535033"><ele>348.0</ele><time>2026-04-26T12:16:29.27Z</time></trkpt><trkpt lat="43.374325" lon="13.15345"><ele>348.0</ele><time>2026-04-26T12:16:30.271Z</time></trkpt><trkpt lat="43.374415" lon="13.153415"><ele>348.0</ele><time>2026-04-26T12:16:31.27Z</time></trkpt><trkpt lat="43.3744983" lon="13.153405"><ele>348.0</ele><time>2026-04-26T12:16:32.271Z</time></trkpt><trkpt lat="43.3745783" lon="13.153425"><ele>348.0</ele><time>2026-04-26T12:16:33.27Z</time></trkpt><trkpt lat="43.3746467" lon="13.1534767"><ele>348.0</ele><time>2026-04-26T12:16:34.27Z</time></trkpt><trkpt lat="43.3747017" lon="13.1535533"><ele>348.0</ele><time>2026-04-26T12:16:35.27Z</time></trkpt><trkpt lat="43.3747433" lon="13.1536417"><ele>350.1666666666667</ele><time>2026-04-26T12:16:36.27Z</time></trkpt><trkpt lat="43.374775" lon="13.1537267"><ele>352.3333333333333</ele><time>2026-04-26T12:16:37.27Z</time></trkpt><trkpt lat="43.37482" lon="13.1537967"><ele>354.5</ele><time>2026-04-26T12:16:38.27Z</time></trkpt><trkpt lat="43.37492" lon="13.15389"><ele>356.66666666666663</ele><time>2026-04-26T12:16:40.27Z</time></trkpt><trkpt lat="43.374995" lon="13.1539333"><ele>358.8333333333333</ele><time>2026-04-26T12:16:42.27Z</time></trkpt><trkpt lat="43.3749783" lon="13.1540433"><ele>361.0</ele><time>2026-04-26T12:16:45.27Z</time></trkpt><trkpt lat="43.374895" lon="13.1540917"><ele>361.0</ele><time>2026-04-26T12:16:47.27Z</time></trkpt><trkpt lat="43.3748133" lon="13.1540817"><ele>361.0</ele><time>2026-04-26T12:16:49.27Z</time></trkpt><trkpt lat="43.3747267" lon="13.1539767"><ele>361.0</ele><time>2026-04-26T12:16:51.27Z</time></trkpt><trkpt lat="43.3746833" lon="13.1539033"><ele>361.0</ele><time>2026-04-26T12:16:52.27Z</time></trkpt><trkpt lat="43.3746417" lon="13.1538367"><ele>361.0</ele><time>2026-04-26T12:16:53.27Z</time></trkpt><trkpt lat="43.3746017" lon="13.1537667"><ele>361.0</ele><time>2026-04-26T12:16:54.271Z</time></trkpt><trkpt lat="43.37451" lon="13.1536733"><ele>358.8333333333333</ele><time>2026-04-26T12:16:56.27Z</time></trkpt><trkpt lat="43.374395" lon="13.1536533"><ele>356.66666666666663</ele><time>2026-04-26T12:16:58.27Z</time></trkpt><trkpt lat="43.3742983" lon="13.15368"><ele>354.5</ele><time>2026-04-26T12:17:00.27Z</time></trkpt><trkpt lat="43.3742367" lon="13.1537283"><ele>352.3333333333333</ele><time>2026-04-26T12:17:03.27Z</time></trkpt><trkpt lat="43.3742133" lon="13.153815"><ele>350.1666666666667</ele><time>2026-04-26T12:17:07.27Z</time></trkpt><trkpt lat="43.374235" lon="13.1539183"><ele>348.0</ele><time>2026-04-26T12:17:10.27Z</time></trkpt><trkpt lat="43.3742867" lon="13.154005"><ele>348.59999999999997</ele><time>2026-04-26T12:17:12.27Z</time></trkpt><trkpt lat="43.3743817" lon="13.1541117"><ele>349.2</ele><time>2026-04-26T12:17:14.27Z</time></trkpt><trkpt lat="43.374485" lon="13.1542167"><ele>349.8</ele><time>2026-04-26T12:17:16.27Z</time></trkpt><trkpt lat="43.3745417" lon="13.1542683"><ele>350.4</ele><time>2026-04-26T12:17:17.27Z</time></trkpt><trkpt lat="43.3746333" lon="13.1543283"><ele>351.0</ele><time>2026-04-26T12:17:19.27Z</time></trkpt><trkpt lat="43.37472" lon="13.1543283"><ele>353.0</ele><time>2026-04-26T12:17:21.271Z</time></trkpt><trkpt lat="43.3748217" lon="13.154265"><ele>355.0</ele><time>2026-04-26T12:17:23.27Z</time></trkpt><trkpt lat="43.3749117" lon="13.1541433"><ele>357.0</ele><time>2026-04-26T12:17:25.271Z</time></trkpt><trkpt lat="43.374955" lon="13.154075"><ele>359.0</ele><time>2026-04-26T12:17:26.27Z</time></trkpt><trkpt lat="43.3750133" lon="13.154005"><ele>361.0</ele><time>2026-04-26T12:17:27.27Z</time></trkpt><trkpt lat="43.3750783" lon="13.1539267"><ele>361.0</ele><time>2026-04-26T12:17:28.27Z</time></trkpt><trkpt lat="43.3751533" lon="13.1538317"><ele>361.0</ele><time>2026-04-26T12:17:29.27Z</time></trkpt><trkpt lat="43.37522" lon="13.1537167"><ele>361.0</ele><time>2026-04-26T12:17:30.27Z</time></trkpt><trkpt lat="43.37528" lon="13.1535983"><ele>361.0</ele><time>2026-04-26T12:17:31.27Z</time></trkpt><trkpt lat="43.3753183" lon="13.1534967"><ele>361.0</ele><time>2026-04-26T12:17:32.27Z</time></trkpt><trkpt lat="43.37534" lon="13.153405"><ele>361.0</ele><time>2026-04-26T12:17:33.27Z</time></trkpt><trkpt lat="43.3753467" lon="13.15331"><ele>361.0</ele><time>2026-04-26T12:17:34.27Z</time></trkpt><trkpt lat="43.375345" lon="13.1532117"><ele>361.0</ele><time>2026-04-26T12:17:35.27Z</time></trkpt><trkpt lat="43.375345" lon="13.153115"><ele>361.0</ele><time>2026-04-26T12:17:36.27Z</time></trkpt><trkpt lat="43.375355" lon="13.1530217"><ele>361.0</ele><time>2026-04-26T12:17:37.27Z</time></trkpt><trkpt lat="43.375365" lon="13.15293"><ele>361.0</ele><time>2026-04-26T12:17:38.27Z</time></trkpt><trkpt lat="43.37538" lon="13.1528383"><ele>361.0</ele><time>2026-04-26T12:17:39.271Z</time></trkpt><trkpt lat="43.3754083" lon="13.1526833"><ele>361.0</ele><time>2026-04-26T12:17:41.271Z</time></trkpt><trkpt lat="43.3754517" lon="13.1525667"><ele>361.0</ele><time>2026-04-26T12:17:43.27Z</time></trkpt><trkpt lat="43.3754817" lon="13.1524733"><ele>361.0</ele><time>2026-04-26T12:17:45.27Z</time></trkpt><trkpt lat="43.3755317" lon="13.15238"><ele>369.0</ele><time>2026-04-26T12:17:48.269Z</time></trkpt><trkpt lat="43.3756023" lon="13.1523613"><ele>362.0</ele><time>2026-04-26T12:17:51.419Z</time></trkpt></trkseg></trk></gpx>